<?xml version="1.0" encoding="UTF-8" standalone="no" ?>
<gpx xmlns="http://www.topografix.com/GPX/1/1" xmlns:xsi="http://www.w3.org/2001/XMLSchema-instance" xsi:schemaLocation="http://www.topografix.com/GPX/1/1 http://www.topografix.com/GPX/1/1/gpx.xsd" version="1.1" creator="VisuGPX - https://www.visugpx.com">
  <metadata>
    <name>01.09.13 Rando Vernou</name>
    <desc><![CDATA[Rando Vernou 01.09.13]]></desc>
  </metadata>
  <trk>
    <name><![CDATA[01/09/2013 8:41 Vernou]]></name>
    <desc><![CDATA[Rando Vernou 01.09.13]]></desc>
    <trkseg>
      <trkpt lat="47.42094" lon="0.84477">
        <ele>110</ele>
        <time>2013-09-01T06:41:16.812Z</time>
      </trkpt>
      <trkpt lat="47.42092" lon="0.84474">
        <ele>114</ele>
        <time>2013-09-01T06:41:27.672Z</time>
      </trkpt>
      <trkpt lat="47.42092" lon="0.84474">
        <ele>114</ele>
        <time>2013-09-01T06:41:28.694Z</time>
      </trkpt>
      <trkpt lat="47.42092" lon="0.84475">
        <ele>114</ele>
        <time>2013-09-01T06:41:38.671Z</time>
      </trkpt>
      <trkpt lat="47.42092" lon="0.84473">
        <ele>115</ele>
        <time>2013-09-01T06:41:39.678Z</time>
      </trkpt>
      <trkpt lat="47.42093" lon="0.84461">
        <ele>115</ele>
        <time>2013-09-01T06:41:41.685Z</time>
      </trkpt>
      <trkpt lat="47.42095" lon="0.84454">
        <ele>115</ele>
        <time>2013-09-01T06:41:42.648Z</time>
      </trkpt>
      <trkpt lat="47.42095" lon="0.84444">
        <ele>115</ele>
        <time>2013-09-01T06:41:44.646Z</time>
      </trkpt>
      <trkpt lat="47.42096" lon="0.8444">
        <ele>114</ele>
        <time>2013-09-01T06:41:45.655Z</time>
      </trkpt>
      <trkpt lat="47.42094" lon="0.84429">
        <ele>109</ele>
        <time>2013-09-01T06:41:47.690Z</time>
      </trkpt>
      <trkpt lat="47.42094" lon="0.84427">
        <ele>108</ele>
        <time>2013-09-01T06:41:48.679Z</time>
      </trkpt>
      <trkpt lat="47.42093" lon="0.84415">
        <ele>108</ele>
        <time>2013-09-01T06:41:52.676Z</time>
      </trkpt>
      <trkpt lat="47.42092" lon="0.84412">
        <ele>108</ele>
        <time>2013-09-01T06:41:53.651Z</time>
      </trkpt>
      <trkpt lat="47.42088" lon="0.84401">
        <ele>109</ele>
        <time>2013-09-01T06:41:56.644Z</time>
      </trkpt>
      <trkpt lat="47.42085" lon="0.84397">
        <ele>109</ele>
        <time>2013-09-01T06:41:57.646Z</time>
      </trkpt>
      <trkpt lat="47.42081" lon="0.84391">
        <ele>110</ele>
        <time>2013-09-01T06:41:59.637Z</time>
      </trkpt>
      <trkpt lat="47.4208" lon="0.84387">
        <ele>110</ele>
        <time>2013-09-01T06:42:00.634Z</time>
      </trkpt>
      <trkpt lat="47.42073" lon="0.84382">
        <ele>112</ele>
        <time>2013-09-01T06:42:03.687Z</time>
      </trkpt>
      <trkpt lat="47.42069" lon="0.84384">
        <ele>112</ele>
        <time>2013-09-01T06:42:04.674Z</time>
      </trkpt>
      <trkpt lat="47.42062" lon="0.84387">
        <ele>110</ele>
        <time>2013-09-01T06:42:06.581Z</time>
      </trkpt>
      <trkpt lat="47.42058" lon="0.84385">
        <ele>109</ele>
        <time>2013-09-01T06:42:07.645Z</time>
      </trkpt>
      <trkpt lat="47.42052" lon="0.84382">
        <ele>107</ele>
        <time>2013-09-01T06:42:09.615Z</time>
      </trkpt>
      <trkpt lat="47.42048" lon="0.8438">
        <ele>107</ele>
        <time>2013-09-01T06:42:10.654Z</time>
      </trkpt>
      <trkpt lat="47.42039" lon="0.84378">
        <ele>107</ele>
        <time>2013-09-01T06:42:13.634Z</time>
      </trkpt>
      <trkpt lat="47.42037" lon="0.84378">
        <ele>106</ele>
        <time>2013-09-01T06:42:14.593Z</time>
      </trkpt>
      <trkpt lat="47.42038" lon="0.84368">
        <ele>105</ele>
        <time>2013-09-01T06:42:17.637Z</time>
      </trkpt>
      <trkpt lat="47.4204" lon="0.84365">
        <ele>104</ele>
        <time>2013-09-01T06:42:18.623Z</time>
      </trkpt>
      <trkpt lat="47.42048" lon="0.84367">
        <ele>103</ele>
        <time>2013-09-01T06:42:21.677Z</time>
      </trkpt>
      <trkpt lat="47.42051" lon="0.84367">
        <ele>104</ele>
        <time>2013-09-01T06:42:22.616Z</time>
      </trkpt>
      <trkpt lat="47.42057" lon="0.8437">
        <ele>105</ele>
        <time>2013-09-01T06:42:25.689Z</time>
      </trkpt>
      <trkpt lat="47.42061" lon="0.84368">
        <ele>105</ele>
        <time>2013-09-01T06:42:26.657Z</time>
      </trkpt>
      <trkpt lat="47.42055" lon="0.84359">
        <ele>116</ele>
        <time>2013-09-01T06:42:40.623Z</time>
      </trkpt>
      <trkpt lat="47.42053" lon="0.84359">
        <ele>117</ele>
        <time>2013-09-01T06:42:41.621Z</time>
      </trkpt>
      <trkpt lat="47.42045" lon="0.84355">
        <ele>116</ele>
        <time>2013-09-01T06:42:45.604Z</time>
      </trkpt>
      <trkpt lat="47.42042" lon="0.84354">
        <ele>117</ele>
        <time>2013-09-01T06:42:46.630Z</time>
      </trkpt>
      <trkpt lat="47.42033" lon="0.84354">
        <ele>121</ele>
        <time>2013-09-01T06:42:49.653Z</time>
      </trkpt>
      <trkpt lat="47.4203" lon="0.84354">
        <ele>122</ele>
        <time>2013-09-01T06:42:50.675Z</time>
      </trkpt>
      <trkpt lat="47.42022" lon="0.84352">
        <ele>120</ele>
        <time>2013-09-01T06:42:53.702Z</time>
      </trkpt>
      <trkpt lat="47.42019" lon="0.8435">
        <ele>121</ele>
        <time>2013-09-01T06:42:54.621Z</time>
      </trkpt>
      <trkpt lat="47.42012" lon="0.8435">
        <ele>122</ele>
        <time>2013-09-01T06:42:56.628Z</time>
      </trkpt>
      <trkpt lat="47.42008" lon="0.8435">
        <ele>124</ele>
        <time>2013-09-01T06:42:57.615Z</time>
      </trkpt>
      <trkpt lat="47.42" lon="0.84352">
        <ele>125</ele>
        <time>2013-09-01T06:42:59.618Z</time>
      </trkpt>
      <trkpt lat="47.41998" lon="0.84351">
        <ele>125</ele>
        <time>2013-09-01T06:43:00.634Z</time>
      </trkpt>
      <trkpt lat="47.41992" lon="0.84349">
        <ele>121</ele>
        <time>2013-09-01T06:43:02.654Z</time>
      </trkpt>
      <trkpt lat="47.41988" lon="0.84348">
        <ele>120</ele>
        <time>2013-09-01T06:43:03.673Z</time>
      </trkpt>
      <trkpt lat="47.41981" lon="0.84342">
        <ele>117</ele>
        <time>2013-09-01T06:43:05.648Z</time>
      </trkpt>
      <trkpt lat="47.41977" lon="0.84341">
        <ele>116</ele>
        <time>2013-09-01T06:43:06.646Z</time>
      </trkpt>
      <trkpt lat="47.41969" lon="0.84337">
        <ele>115</ele>
        <time>2013-09-01T06:43:08.663Z</time>
      </trkpt>
      <trkpt lat="47.41964" lon="0.84335">
        <ele>113</ele>
        <time>2013-09-01T06:43:09.698Z</time>
      </trkpt>
      <trkpt lat="47.41957" lon="0.84333">
        <ele>111</ele>
        <time>2013-09-01T06:43:11.653Z</time>
      </trkpt>
      <trkpt lat="47.41953" lon="0.84331">
        <ele>111</ele>
        <time>2013-09-01T06:43:12.602Z</time>
      </trkpt>
      <trkpt lat="47.41946" lon="0.84329">
        <ele>110</ele>
        <time>2013-09-01T06:43:14.648Z</time>
      </trkpt>
      <trkpt lat="47.41943" lon="0.84327">
        <ele>111</ele>
        <time>2013-09-01T06:43:15.653Z</time>
      </trkpt>
      <trkpt lat="47.41935" lon="0.84322">
        <ele>111</ele>
        <time>2013-09-01T06:43:17.593Z</time>
      </trkpt>
      <trkpt lat="47.41931" lon="0.84322">
        <ele>111</ele>
        <time>2013-09-01T06:43:18.615Z</time>
      </trkpt>
      <trkpt lat="47.41924" lon="0.8432">
        <ele>109</ele>
        <time>2013-09-01T06:43:20.663Z</time>
      </trkpt>
      <trkpt lat="47.4192" lon="0.8432">
        <ele>108</ele>
        <time>2013-09-01T06:43:21.662Z</time>
      </trkpt>
      <trkpt lat="47.41912" lon="0.84318">
        <ele>110</ele>
        <time>2013-09-01T06:43:23.605Z</time>
      </trkpt>
      <trkpt lat="47.41907" lon="0.84316">
        <ele>111</ele>
        <time>2013-09-01T06:43:24.653Z</time>
      </trkpt>
      <trkpt lat="47.419" lon="0.84314">
        <ele>111</ele>
        <time>2013-09-01T06:43:26.649Z</time>
      </trkpt>
      <trkpt lat="47.41896" lon="0.84313">
        <ele>111</ele>
        <time>2013-09-01T06:43:27.648Z</time>
      </trkpt>
      <trkpt lat="47.41888" lon="0.84311">
        <ele>112</ele>
        <time>2013-09-01T06:43:29.657Z</time>
      </trkpt>
      <trkpt lat="47.41884" lon="0.8431">
        <ele>112</ele>
        <time>2013-09-01T06:43:30.659Z</time>
      </trkpt>
      <trkpt lat="47.41876" lon="0.84307">
        <ele>112</ele>
        <time>2013-09-01T06:43:32.585Z</time>
      </trkpt>
      <trkpt lat="47.41872" lon="0.84307">
        <ele>111</ele>
        <time>2013-09-01T06:43:33.632Z</time>
      </trkpt>
      <trkpt lat="47.41864" lon="0.84303">
        <ele>110</ele>
        <time>2013-09-01T06:43:35.597Z</time>
      </trkpt>
      <trkpt lat="47.4186" lon="0.84303">
        <ele>110</ele>
        <time>2013-09-01T06:43:36.647Z</time>
      </trkpt>
      <trkpt lat="47.41852" lon="0.84301">
        <ele>108</ele>
        <time>2013-09-01T06:43:38.850Z</time>
      </trkpt>
      <trkpt lat="47.41849" lon="0.84301">
        <ele>109</ele>
        <time>2013-09-01T06:43:39.594Z</time>
      </trkpt>
      <trkpt lat="47.41841" lon="0.84301">
        <ele>108</ele>
        <time>2013-09-01T06:43:41.600Z</time>
      </trkpt>
      <trkpt lat="47.41838" lon="0.84301">
        <ele>108</ele>
        <time>2013-09-01T06:43:42.655Z</time>
      </trkpt>
      <trkpt lat="47.41833" lon="0.84303">
        <ele>108</ele>
        <time>2013-09-01T06:43:43.615Z</time>
      </trkpt>
      <trkpt lat="47.41829" lon="0.84305">
        <ele>107</ele>
        <time>2013-09-01T06:43:44.649Z</time>
      </trkpt>
      <trkpt lat="47.41825" lon="0.84309">
        <ele>107</ele>
        <time>2013-09-01T06:43:45.623Z</time>
      </trkpt>
      <trkpt lat="47.41821" lon="0.84314">
        <ele>106</ele>
        <time>2013-09-01T06:43:46.638Z</time>
      </trkpt>
      <trkpt lat="47.41815" lon="0.8432">
        <ele>107</ele>
        <time>2013-09-01T06:43:48.648Z</time>
      </trkpt>
      <trkpt lat="47.41812" lon="0.84322">
        <ele>107</ele>
        <time>2013-09-01T06:43:49.654Z</time>
      </trkpt>
      <trkpt lat="47.41807" lon="0.84331">
        <ele>106</ele>
        <time>2013-09-01T06:43:51.594Z</time>
      </trkpt>
      <trkpt lat="47.41806" lon="0.84333">
        <ele>105</ele>
        <time>2013-09-01T06:43:52.620Z</time>
      </trkpt>
      <trkpt lat="47.41803" lon="0.84341">
        <ele>104</ele>
        <time>2013-09-01T06:43:54.599Z</time>
      </trkpt>
      <trkpt lat="47.418" lon="0.84346">
        <ele>103</ele>
        <time>2013-09-01T06:43:55.617Z</time>
      </trkpt>
      <trkpt lat="47.41793" lon="0.84354">
        <ele>105</ele>
        <time>2013-09-01T06:43:57.649Z</time>
      </trkpt>
      <trkpt lat="47.41791" lon="0.84357">
        <ele>105</ele>
        <time>2013-09-01T06:43:58.646Z</time>
      </trkpt>
      <trkpt lat="47.41786" lon="0.84365">
        <ele>105</ele>
        <time>2013-09-01T06:44:01.595Z</time>
      </trkpt>
      <trkpt lat="47.41785" lon="0.84367">
        <ele>105</ele>
        <time>2013-09-01T06:44:02.619Z</time>
      </trkpt>
      <trkpt lat="47.41781" lon="0.84378">
        <ele>105</ele>
        <time>2013-09-01T06:44:05.654Z</time>
      </trkpt>
      <trkpt lat="47.41779" lon="0.8438">
        <ele>105</ele>
        <time>2013-09-01T06:44:06.651Z</time>
      </trkpt>
      <trkpt lat="47.41773" lon="0.84389">
        <ele>104</ele>
        <time>2013-09-01T06:44:09.602Z</time>
      </trkpt>
      <trkpt lat="47.41771" lon="0.84391">
        <ele>104</ele>
        <time>2013-09-01T06:44:10.596Z</time>
      </trkpt>
      <trkpt lat="47.41773" lon="0.84402">
        <ele>106</ele>
        <time>2013-09-01T06:44:17.658Z</time>
      </trkpt>
      <trkpt lat="47.41773" lon="0.84404">
        <ele>106</ele>
        <time>2013-09-01T06:44:18.603Z</time>
      </trkpt>
      <trkpt lat="47.41772" lon="0.84414">
        <ele>107</ele>
        <time>2013-09-01T06:44:21.594Z</time>
      </trkpt>
      <trkpt lat="47.4177" lon="0.84417">
        <ele>107</ele>
        <time>2013-09-01T06:44:22.596Z</time>
      </trkpt>
      <trkpt lat="47.41761" lon="0.84419">
        <ele>107</ele>
        <time>2013-09-01T06:44:25.620Z</time>
      </trkpt>
      <trkpt lat="47.41758" lon="0.84423">
        <ele>107</ele>
        <time>2013-09-01T06:44:26.710Z</time>
      </trkpt>
      <trkpt lat="47.41754" lon="0.84429">
        <ele>106</ele>
        <time>2013-09-01T06:44:28.605Z</time>
      </trkpt>
      <trkpt lat="47.41752" lon="0.84436">
        <ele>106</ele>
        <time>2013-09-01T06:44:29.640Z</time>
      </trkpt>
      <trkpt lat="47.41747" lon="0.84445">
        <ele>107</ele>
        <time>2013-09-01T06:44:31.659Z</time>
      </trkpt>
      <trkpt lat="47.41745" lon="0.84449">
        <ele>107</ele>
        <time>2013-09-01T06:44:32.657Z</time>
      </trkpt>
      <trkpt lat="47.41741" lon="0.84457">
        <ele>107</ele>
        <time>2013-09-01T06:44:34.619Z</time>
      </trkpt>
      <trkpt lat="47.41739" lon="0.84462">
        <ele>107</ele>
        <time>2013-09-01T06:44:35.653Z</time>
      </trkpt>
      <trkpt lat="47.41737" lon="0.84468">
        <ele>107</ele>
        <time>2013-09-01T06:44:36.647Z</time>
      </trkpt>
      <trkpt lat="47.41735" lon="0.84474">
        <ele>106</ele>
        <time>2013-09-01T06:44:37.643Z</time>
      </trkpt>
      <trkpt lat="47.41729" lon="0.84483">
        <ele>106</ele>
        <time>2013-09-01T06:44:39.593Z</time>
      </trkpt>
      <trkpt lat="47.41726" lon="0.84487">
        <ele>105</ele>
        <time>2013-09-01T06:44:40.594Z</time>
      </trkpt>
      <trkpt lat="47.41724" lon="0.84494">
        <ele>105</ele>
        <time>2013-09-01T06:44:41.657Z</time>
      </trkpt>
      <trkpt lat="47.41721" lon="0.84498">
        <ele>105</ele>
        <time>2013-09-01T06:44:42.664Z</time>
      </trkpt>
      <trkpt lat="47.41716" lon="0.84509">
        <ele>104</ele>
        <time>2013-09-01T06:44:44.657Z</time>
      </trkpt>
      <trkpt lat="47.41714" lon="0.84515">
        <ele>104</ele>
        <time>2013-09-01T06:44:45.646Z</time>
      </trkpt>
      <trkpt lat="47.41711" lon="0.84526">
        <ele>105</ele>
        <time>2013-09-01T06:44:47.651Z</time>
      </trkpt>
      <trkpt lat="47.41711" lon="0.84532">
        <ele>106</ele>
        <time>2013-09-01T06:44:48.653Z</time>
      </trkpt>
      <trkpt lat="47.4171" lon="0.84544">
        <ele>106</ele>
        <time>2013-09-01T06:44:50.618Z</time>
      </trkpt>
      <trkpt lat="47.4171" lon="0.84551">
        <ele>104</ele>
        <time>2013-09-01T06:44:51.651Z</time>
      </trkpt>
      <trkpt lat="47.41711" lon="0.84558">
        <ele>104</ele>
        <time>2013-09-01T06:44:52.626Z</time>
      </trkpt>
      <trkpt lat="47.41712" lon="0.84565">
        <ele>104</ele>
        <time>2013-09-01T06:44:53.661Z</time>
      </trkpt>
      <trkpt lat="47.41713" lon="0.84571">
        <ele>104</ele>
        <time>2013-09-01T06:44:54.627Z</time>
      </trkpt>
      <trkpt lat="47.41714" lon="0.84578">
        <ele>104</ele>
        <time>2013-09-01T06:44:55.653Z</time>
      </trkpt>
      <trkpt lat="47.41715" lon="0.84584">
        <ele>104</ele>
        <time>2013-09-01T06:44:56.669Z</time>
      </trkpt>
      <trkpt lat="47.41716" lon="0.8459">
        <ele>104</ele>
        <time>2013-09-01T06:44:57.651Z</time>
      </trkpt>
      <trkpt lat="47.41718" lon="0.84597">
        <ele>104</ele>
        <time>2013-09-01T06:44:58.650Z</time>
      </trkpt>
      <trkpt lat="47.41718" lon="0.84603">
        <ele>103</ele>
        <time>2013-09-01T06:44:59.653Z</time>
      </trkpt>
      <trkpt lat="47.41719" lon="0.8461">
        <ele>103</ele>
        <time>2013-09-01T06:45:00.684Z</time>
      </trkpt>
      <trkpt lat="47.41722" lon="0.84616">
        <ele>103</ele>
        <time>2013-09-01T06:45:01.605Z</time>
      </trkpt>
      <trkpt lat="47.41725" lon="0.84627">
        <ele>104</ele>
        <time>2013-09-01T06:45:03.670Z</time>
      </trkpt>
      <trkpt lat="47.41726" lon="0.84633">
        <ele>103</ele>
        <time>2013-09-01T06:45:04.661Z</time>
      </trkpt>
      <trkpt lat="47.41727" lon="0.8464">
        <ele>103</ele>
        <time>2013-09-01T06:45:05.614Z</time>
      </trkpt>
      <trkpt lat="47.41728" lon="0.84646">
        <ele>103</ele>
        <time>2013-09-01T06:45:06.624Z</time>
      </trkpt>
      <trkpt lat="47.4173" lon="0.84653">
        <ele>103</ele>
        <time>2013-09-01T06:45:07.653Z</time>
      </trkpt>
      <trkpt lat="47.41731" lon="0.84659">
        <ele>104</ele>
        <time>2013-09-01T06:45:08.657Z</time>
      </trkpt>
      <trkpt lat="47.41734" lon="0.8467">
        <ele>104</ele>
        <time>2013-09-01T06:45:10.594Z</time>
      </trkpt>
      <trkpt lat="47.41735" lon="0.84676">
        <ele>104</ele>
        <time>2013-09-01T06:45:11.594Z</time>
      </trkpt>
      <trkpt lat="47.41736" lon="0.84683">
        <ele>103</ele>
        <time>2013-09-01T06:45:12.599Z</time>
      </trkpt>
      <trkpt lat="47.41737" lon="0.84689">
        <ele>103</ele>
        <time>2013-09-01T06:45:13.604Z</time>
      </trkpt>
      <trkpt lat="47.4174" lon="0.847">
        <ele>103</ele>
        <time>2013-09-01T06:45:15.695Z</time>
      </trkpt>
      <trkpt lat="47.4174" lon="0.84704">
        <ele>103</ele>
        <time>2013-09-01T06:45:16.648Z</time>
      </trkpt>
      <trkpt lat="47.41742" lon="0.84715">
        <ele>103</ele>
        <time>2013-09-01T06:45:18.619Z</time>
      </trkpt>
      <trkpt lat="47.41744" lon="0.84721">
        <ele>102</ele>
        <time>2013-09-01T06:45:19.678Z</time>
      </trkpt>
      <trkpt lat="47.41747" lon="0.84732">
        <ele>103</ele>
        <time>2013-09-01T06:45:22.671Z</time>
      </trkpt>
      <trkpt lat="47.41748" lon="0.84734">
        <ele>103</ele>
        <time>2013-09-01T06:45:23.607Z</time>
      </trkpt>
      <trkpt lat="47.41749" lon="0.84737">
        <ele>102</ele>
        <time>2013-09-01T06:45:25.628Z</time>
      </trkpt>
      <trkpt lat="47.41748" lon="0.84736">
        <ele>102</ele>
        <time>2013-09-01T06:45:26.651Z</time>
      </trkpt>
      <trkpt lat="47.41748" lon="0.84736">
        <ele>102</ele>
        <time>2013-09-01T06:45:31.667Z</time>
      </trkpt>
      <trkpt lat="47.41748" lon="0.84738">
        <ele>103</ele>
        <time>2013-09-01T06:45:32.675Z</time>
      </trkpt>
      <trkpt lat="47.41749" lon="0.84747">
        <ele>103</ele>
        <time>2013-09-01T06:45:35.656Z</time>
      </trkpt>
      <trkpt lat="47.4175" lon="0.84751">
        <ele>103</ele>
        <time>2013-09-01T06:45:36.667Z</time>
      </trkpt>
      <trkpt lat="47.41752" lon="0.8476">
        <ele>103</ele>
        <time>2013-09-01T06:45:38.749Z</time>
      </trkpt>
      <trkpt lat="47.41753" lon="0.84764">
        <ele>103</ele>
        <time>2013-09-01T06:45:39.682Z</time>
      </trkpt>
      <trkpt lat="47.41753" lon="0.84775">
        <ele>103</ele>
        <time>2013-09-01T06:45:41.661Z</time>
      </trkpt>
      <trkpt lat="47.41754" lon="0.84779">
        <ele>104</ele>
        <time>2013-09-01T06:45:42.625Z</time>
      </trkpt>
      <trkpt lat="47.41754" lon="0.8479">
        <ele>104</ele>
        <time>2013-09-01T06:45:44.607Z</time>
      </trkpt>
      <trkpt lat="47.41755" lon="0.84794">
        <ele>105</ele>
        <time>2013-09-01T06:45:45.651Z</time>
      </trkpt>
      <trkpt lat="47.41755" lon="0.84807">
        <ele>104</ele>
        <time>2013-09-01T06:45:47.705Z</time>
      </trkpt>
      <trkpt lat="47.41756" lon="0.84812">
        <ele>104</ele>
        <time>2013-09-01T06:45:48.606Z</time>
      </trkpt>
      <trkpt lat="47.41757" lon="0.84822">
        <ele>104</ele>
        <time>2013-09-01T06:45:50.671Z</time>
      </trkpt>
      <trkpt lat="47.41757" lon="0.84828">
        <ele>105</ele>
        <time>2013-09-01T06:45:51.607Z</time>
      </trkpt>
      <trkpt lat="47.41758" lon="0.8484">
        <ele>105</ele>
        <time>2013-09-01T06:45:53.672Z</time>
      </trkpt>
      <trkpt lat="47.41758" lon="0.84846">
        <ele>105</ele>
        <time>2013-09-01T06:45:54.599Z</time>
      </trkpt>
      <trkpt lat="47.41758" lon="0.84856">
        <ele>105</ele>
        <time>2013-09-01T06:45:56.652Z</time>
      </trkpt>
      <trkpt lat="47.41759" lon="0.84863">
        <ele>104</ele>
        <time>2013-09-01T06:45:57.651Z</time>
      </trkpt>
      <trkpt lat="47.4176" lon="0.84876">
        <ele>105</ele>
        <time>2013-09-01T06:45:59.661Z</time>
      </trkpt>
      <trkpt lat="47.41761" lon="0.8488">
        <ele>105</ele>
        <time>2013-09-01T06:46:00.609Z</time>
      </trkpt>
      <trkpt lat="47.41761" lon="0.84891">
        <ele>106</ele>
        <time>2013-09-01T06:46:02.605Z</time>
      </trkpt>
      <trkpt lat="47.41761" lon="0.84897">
        <ele>106</ele>
        <time>2013-09-01T06:46:03.654Z</time>
      </trkpt>
      <trkpt lat="47.41761" lon="0.8491">
        <ele>106</ele>
        <time>2013-09-01T06:46:05.624Z</time>
      </trkpt>
      <trkpt lat="47.41761" lon="0.84915">
        <ele>106</ele>
        <time>2013-09-01T06:46:06.653Z</time>
      </trkpt>
      <trkpt lat="47.41761" lon="0.84925">
        <ele>107</ele>
        <time>2013-09-01T06:46:08.622Z</time>
      </trkpt>
      <trkpt lat="47.4176" lon="0.84932">
        <ele>107</ele>
        <time>2013-09-01T06:46:09.703Z</time>
      </trkpt>
      <trkpt lat="47.41761" lon="0.84943">
        <ele>108</ele>
        <time>2013-09-01T06:46:11.652Z</time>
      </trkpt>
      <trkpt lat="47.41761" lon="0.84949">
        <ele>108</ele>
        <time>2013-09-01T06:46:12.656Z</time>
      </trkpt>
      <trkpt lat="47.41761" lon="0.84959">
        <ele>109</ele>
        <time>2013-09-01T06:46:14.603Z</time>
      </trkpt>
      <trkpt lat="47.41761" lon="0.84964">
        <ele>109</ele>
        <time>2013-09-01T06:46:15.600Z</time>
      </trkpt>
      <trkpt lat="47.41763" lon="0.84975">
        <ele>109</ele>
        <time>2013-09-01T06:46:17.649Z</time>
      </trkpt>
      <trkpt lat="47.41763" lon="0.84979">
        <ele>110</ele>
        <time>2013-09-01T06:46:18.657Z</time>
      </trkpt>
      <trkpt lat="47.41764" lon="0.84987">
        <ele>111</ele>
        <time>2013-09-01T06:46:20.699Z</time>
      </trkpt>
      <trkpt lat="47.41766" lon="0.84993">
        <ele>111</ele>
        <time>2013-09-01T06:46:21.671Z</time>
      </trkpt>
      <trkpt lat="47.41768" lon="0.85002">
        <ele>111</ele>
        <time>2013-09-01T06:46:23.609Z</time>
      </trkpt>
      <trkpt lat="47.41769" lon="0.85007">
        <ele>110</ele>
        <time>2013-09-01T06:46:24.653Z</time>
      </trkpt>
      <trkpt lat="47.41768" lon="0.8502">
        <ele>112</ele>
        <time>2013-09-01T06:46:28.675Z</time>
      </trkpt>
      <trkpt lat="47.41766" lon="0.85022">
        <ele>112</ele>
        <time>2013-09-01T06:46:29.607Z</time>
      </trkpt>
      <trkpt lat="47.4176" lon="0.85026">
        <ele>112</ele>
        <time>2013-09-01T06:46:31.605Z</time>
      </trkpt>
      <trkpt lat="47.41757" lon="0.85028">
        <ele>112</ele>
        <time>2013-09-01T06:46:32.623Z</time>
      </trkpt>
      <trkpt lat="47.41752" lon="0.85032">
        <ele>112</ele>
        <time>2013-09-01T06:46:34.586Z</time>
      </trkpt>
      <trkpt lat="47.41749" lon="0.85033">
        <ele>112</ele>
        <time>2013-09-01T06:46:35.623Z</time>
      </trkpt>
      <trkpt lat="47.41741" lon="0.85039">
        <ele>112</ele>
        <time>2013-09-01T06:46:38.618Z</time>
      </trkpt>
      <trkpt lat="47.41738" lon="0.85041">
        <ele>112</ele>
        <time>2013-09-01T06:46:39.595Z</time>
      </trkpt>
      <trkpt lat="47.41731" lon="0.85045">
        <ele>114</ele>
        <time>2013-09-01T06:46:41.670Z</time>
      </trkpt>
      <trkpt lat="47.41729" lon="0.85046">
        <ele>114</ele>
        <time>2013-09-01T06:46:42.670Z</time>
      </trkpt>
      <trkpt lat="47.41722" lon="0.85052">
        <ele>116</ele>
        <time>2013-09-01T06:46:45.677Z</time>
      </trkpt>
      <trkpt lat="47.41719" lon="0.85052">
        <ele>116</ele>
        <time>2013-09-01T06:46:46.663Z</time>
      </trkpt>
      <trkpt lat="47.41712" lon="0.85056">
        <ele>118</ele>
        <time>2013-09-01T06:46:49.640Z</time>
      </trkpt>
      <trkpt lat="47.41711" lon="0.85058">
        <ele>118</ele>
        <time>2013-09-01T06:46:50.653Z</time>
      </trkpt>
      <trkpt lat="47.41703" lon="0.85063">
        <ele>118</ele>
        <time>2013-09-01T06:46:54.628Z</time>
      </trkpt>
      <trkpt lat="47.41699" lon="0.85063">
        <ele>118</ele>
        <time>2013-09-01T06:46:55.676Z</time>
      </trkpt>
      <trkpt lat="47.41692" lon="0.85065">
        <ele>120</ele>
        <time>2013-09-01T06:46:58.671Z</time>
      </trkpt>
      <trkpt lat="47.41689" lon="0.85065">
        <ele>120</ele>
        <time>2013-09-01T06:46:59.565Z</time>
      </trkpt>
      <trkpt lat="47.41682" lon="0.85065">
        <ele>120</ele>
        <time>2013-09-01T06:47:02.586Z</time>
      </trkpt>
      <trkpt lat="47.4168" lon="0.85065">
        <ele>119</ele>
        <time>2013-09-01T06:47:03.570Z</time>
      </trkpt>
      <trkpt lat="47.41672" lon="0.85065">
        <ele>120</ele>
        <time>2013-09-01T06:47:06.362Z</time>
      </trkpt>
      <trkpt lat="47.4167" lon="0.85065">
        <ele>120</ele>
        <time>2013-09-01T06:47:07.357Z</time>
      </trkpt>
      <trkpt lat="47.41661" lon="0.85066">
        <ele>119</ele>
        <time>2013-09-01T06:47:11.321Z</time>
      </trkpt>
      <trkpt lat="47.4166" lon="0.85067">
        <ele>119</ele>
        <time>2013-09-01T06:47:12.311Z</time>
      </trkpt>
      <trkpt lat="47.41652" lon="0.85065">
        <ele>116</ele>
        <time>2013-09-01T06:47:15.337Z</time>
      </trkpt>
      <trkpt lat="47.4165" lon="0.85065">
        <ele>117</ele>
        <time>2013-09-01T06:47:16.343Z</time>
      </trkpt>
      <trkpt lat="47.41641" lon="0.85067">
        <ele>117</ele>
        <time>2013-09-01T06:47:19.388Z</time>
      </trkpt>
      <trkpt lat="47.41639" lon="0.85067">
        <ele>116</ele>
        <time>2013-09-01T06:47:20.318Z</time>
      </trkpt>
      <trkpt lat="47.41632" lon="0.85065">
        <ele>114</ele>
        <time>2013-09-01T06:47:23.319Z</time>
      </trkpt>
      <trkpt lat="47.41628" lon="0.85065">
        <ele>114</ele>
        <time>2013-09-01T06:47:24.367Z</time>
      </trkpt>
      <trkpt lat="47.41622" lon="0.85065">
        <ele>114</ele>
        <time>2013-09-01T06:47:26.474Z</time>
      </trkpt>
      <trkpt lat="47.41619" lon="0.85066">
        <ele>115</ele>
        <time>2013-09-01T06:47:27.483Z</time>
      </trkpt>
      <trkpt lat="47.41612" lon="0.85067">
        <ele>114</ele>
        <time>2013-09-01T06:47:29.491Z</time>
      </trkpt>
      <trkpt lat="47.41609" lon="0.85067">
        <ele>114</ele>
        <time>2013-09-01T06:47:30.526Z</time>
      </trkpt>
      <trkpt lat="47.41603" lon="0.85071">
        <ele>115</ele>
        <time>2013-09-01T06:47:32.580Z</time>
      </trkpt>
      <trkpt lat="47.416" lon="0.85073">
        <ele>116</ele>
        <time>2013-09-01T06:47:33.534Z</time>
      </trkpt>
      <trkpt lat="47.41595" lon="0.85082">
        <ele>117</ele>
        <time>2013-09-01T06:47:35.476Z</time>
      </trkpt>
      <trkpt lat="47.41593" lon="0.85084">
        <ele>118</ele>
        <time>2013-09-01T06:47:36.521Z</time>
      </trkpt>
      <trkpt lat="47.41589" lon="0.85092">
        <ele>118</ele>
        <time>2013-09-01T06:47:38.612Z</time>
      </trkpt>
      <trkpt lat="47.41586" lon="0.85099">
        <ele>121</ele>
        <time>2013-09-01T06:47:39.556Z</time>
      </trkpt>
      <trkpt lat="47.41581" lon="0.85108">
        <ele>125</ele>
        <time>2013-09-01T06:47:47.564Z</time>
      </trkpt>
      <trkpt lat="47.4158" lon="0.8511">
        <ele>125</ele>
        <time>2013-09-01T06:47:48.509Z</time>
      </trkpt>
      <trkpt lat="47.41574" lon="0.85118">
        <ele>126</ele>
        <time>2013-09-01T06:47:52.507Z</time>
      </trkpt>
      <trkpt lat="47.41572" lon="0.8512">
        <ele>126</ele>
        <time>2013-09-01T06:47:53.503Z</time>
      </trkpt>
      <trkpt lat="47.41567" lon="0.85129">
        <ele>127</ele>
        <time>2013-09-01T06:47:56.566Z</time>
      </trkpt>
      <trkpt lat="47.41566" lon="0.85131">
        <ele>127</ele>
        <time>2013-09-01T06:47:57.623Z</time>
      </trkpt>
      <trkpt lat="47.41561" lon="0.8514">
        <ele>128</ele>
        <time>2013-09-01T06:48:00.527Z</time>
      </trkpt>
      <trkpt lat="47.41559" lon="0.85144">
        <ele>128</ele>
        <time>2013-09-01T06:48:01.578Z</time>
      </trkpt>
      <trkpt lat="47.41554" lon="0.85152">
        <ele>129</ele>
        <time>2013-09-01T06:48:04.567Z</time>
      </trkpt>
      <trkpt lat="47.41553" lon="0.85157">
        <ele>129</ele>
        <time>2013-09-01T06:48:05.566Z</time>
      </trkpt>
      <trkpt lat="47.41549" lon="0.85168">
        <ele>130</ele>
        <time>2013-09-01T06:48:08.512Z</time>
      </trkpt>
      <trkpt lat="47.41549" lon="0.85172">
        <ele>130</ele>
        <time>2013-09-01T06:48:09.527Z</time>
      </trkpt>
      <trkpt lat="47.41546" lon="0.85183">
        <ele>130</ele>
        <time>2013-09-01T06:48:12.573Z</time>
      </trkpt>
      <trkpt lat="47.41545" lon="0.85187">
        <ele>131</ele>
        <time>2013-09-01T06:48:13.569Z</time>
      </trkpt>
      <trkpt lat="47.41542" lon="0.85198">
        <ele>132</ele>
        <time>2013-09-01T06:48:16.566Z</time>
      </trkpt>
      <trkpt lat="47.41541" lon="0.852">
        <ele>132</ele>
        <time>2013-09-01T06:48:17.580Z</time>
      </trkpt>
      <trkpt lat="47.41538" lon="0.85209">
        <ele>133</ele>
        <time>2013-09-01T06:48:20.513Z</time>
      </trkpt>
      <trkpt lat="47.41537" lon="0.85213">
        <ele>133</ele>
        <time>2013-09-01T06:48:21.557Z</time>
      </trkpt>
      <trkpt lat="47.41536" lon="0.85223">
        <ele>133</ele>
        <time>2013-09-01T06:48:24.521Z</time>
      </trkpt>
      <trkpt lat="47.41535" lon="0.85226">
        <ele>133</ele>
        <time>2013-09-01T06:48:25.515Z</time>
      </trkpt>
      <trkpt lat="47.41535" lon="0.85238">
        <ele>134</ele>
        <time>2013-09-01T06:48:28.516Z</time>
      </trkpt>
      <trkpt lat="47.41536" lon="0.85241">
        <ele>135</ele>
        <time>2013-09-01T06:48:29.566Z</time>
      </trkpt>
      <trkpt lat="47.41537" lon="0.85254">
        <ele>136</ele>
        <time>2013-09-01T06:48:33.597Z</time>
      </trkpt>
      <trkpt lat="47.41537" lon="0.85258">
        <ele>136</ele>
        <time>2013-09-01T06:48:34.585Z</time>
      </trkpt>
      <trkpt lat="47.4154" lon="0.85269">
        <ele>137</ele>
        <time>2013-09-01T06:48:38.630Z</time>
      </trkpt>
      <trkpt lat="47.4154" lon="0.85272">
        <ele>137</ele>
        <time>2013-09-01T06:48:39.524Z</time>
      </trkpt>
      <trkpt lat="47.41542" lon="0.85283">
        <ele>139</ele>
        <time>2013-09-01T06:48:42.575Z</time>
      </trkpt>
      <trkpt lat="47.41544" lon="0.85286">
        <ele>139</ele>
        <time>2013-09-01T06:48:43.566Z</time>
      </trkpt>
      <trkpt lat="47.41546" lon="0.85298">
        <ele>140</ele>
        <time>2013-09-01T06:48:47.570Z</time>
      </trkpt>
      <trkpt lat="47.41547" lon="0.85303">
        <ele>141</ele>
        <time>2013-09-01T06:48:48.569Z</time>
      </trkpt>
      <trkpt lat="47.41549" lon="0.85315">
        <ele>142</ele>
        <time>2013-09-01T06:48:52.576Z</time>
      </trkpt>
      <trkpt lat="47.41549" lon="0.85318">
        <ele>142</ele>
        <time>2013-09-01T06:48:53.532Z</time>
      </trkpt>
      <trkpt lat="47.4155" lon="0.85329">
        <ele>143</ele>
        <time>2013-09-01T06:48:56.513Z</time>
      </trkpt>
      <trkpt lat="47.41551" lon="0.85333">
        <ele>143</ele>
        <time>2013-09-01T06:48:57.511Z</time>
      </trkpt>
      <trkpt lat="47.41553" lon="0.85344">
        <ele>143</ele>
        <time>2013-09-01T06:49:00.527Z</time>
      </trkpt>
      <trkpt lat="47.41553" lon="0.85348">
        <ele>143</ele>
        <time>2013-09-01T06:49:01.514Z</time>
      </trkpt>
      <trkpt lat="47.41555" lon="0.85359">
        <ele>143</ele>
        <time>2013-09-01T06:49:04.533Z</time>
      </trkpt>
      <trkpt lat="47.41555" lon="0.85363">
        <ele>144</ele>
        <time>2013-09-01T06:49:05.539Z</time>
      </trkpt>
      <trkpt lat="47.41557" lon="0.85374">
        <ele>143</ele>
        <time>2013-09-01T06:49:08.589Z</time>
      </trkpt>
      <trkpt lat="47.41557" lon="0.85378">
        <ele>143</ele>
        <time>2013-09-01T06:49:09.619Z</time>
      </trkpt>
      <trkpt lat="47.41559" lon="0.85391">
        <ele>143</ele>
        <time>2013-09-01T06:49:13.586Z</time>
      </trkpt>
      <trkpt lat="47.41557" lon="0.85393">
        <ele>143</ele>
        <time>2013-09-01T06:49:14.569Z</time>
      </trkpt>
      <trkpt lat="47.41559" lon="0.854">
        <ele>144</ele>
        <time>2013-09-01T06:49:18.529Z</time>
      </trkpt>
      <trkpt lat="47.41559" lon="0.85399">
        <ele>144</ele>
        <time>2013-09-01T06:49:19.576Z</time>
      </trkpt>
      <trkpt lat="47.41558" lon="0.85399">
        <ele>144</ele>
        <time>2013-09-01T06:49:21.572Z</time>
      </trkpt>
      <trkpt lat="47.41557" lon="0.85399">
        <ele>144</ele>
        <time>2013-09-01T06:49:22.574Z</time>
      </trkpt>
      <trkpt lat="47.4155" lon="0.85399">
        <ele>145</ele>
        <time>2013-09-01T06:49:26.575Z</time>
      </trkpt>
      <trkpt lat="47.41548" lon="0.85397">
        <ele>144</ele>
        <time>2013-09-01T06:49:27.570Z</time>
      </trkpt>
      <trkpt lat="47.4154" lon="0.85397">
        <ele>144</ele>
        <time>2013-09-01T06:49:30.571Z</time>
      </trkpt>
      <trkpt lat="47.41537" lon="0.85399">
        <ele>144</ele>
        <time>2013-09-01T06:49:31.560Z</time>
      </trkpt>
      <trkpt lat="47.41529" lon="0.85399">
        <ele>144</ele>
        <time>2013-09-01T06:49:34.559Z</time>
      </trkpt>
      <trkpt lat="47.41525" lon="0.85401">
        <ele>143</ele>
        <time>2013-09-01T06:49:35.508Z</time>
      </trkpt>
      <trkpt lat="47.41519" lon="0.85402">
        <ele>143</ele>
        <time>2013-09-01T06:49:37.541Z</time>
      </trkpt>
      <trkpt lat="47.41516" lon="0.85403">
        <ele>143</ele>
        <time>2013-09-01T06:49:38.561Z</time>
      </trkpt>
      <trkpt lat="47.4151" lon="0.85408">
        <ele>142</ele>
        <time>2013-09-01T06:49:40.532Z</time>
      </trkpt>
      <trkpt lat="47.41508" lon="0.85412">
        <ele>141</ele>
        <time>2013-09-01T06:49:41.562Z</time>
      </trkpt>
      <trkpt lat="47.41508" lon="0.85421">
        <ele>141</ele>
        <time>2013-09-01T06:49:43.556Z</time>
      </trkpt>
      <trkpt lat="47.41509" lon="0.85427">
        <ele>140</ele>
        <time>2013-09-01T06:49:44.566Z</time>
      </trkpt>
      <trkpt lat="47.41512" lon="0.85438">
        <ele>140</ele>
        <time>2013-09-01T06:49:46.592Z</time>
      </trkpt>
      <trkpt lat="47.41512" lon="0.85442">
        <ele>140</ele>
        <time>2013-09-01T06:49:47.591Z</time>
      </trkpt>
      <trkpt lat="47.41516" lon="0.85453">
        <ele>139</ele>
        <time>2013-09-01T06:49:49.522Z</time>
      </trkpt>
      <trkpt lat="47.41518" lon="0.85457">
        <ele>140</ele>
        <time>2013-09-01T06:49:50.521Z</time>
      </trkpt>
      <trkpt lat="47.41521" lon="0.85466">
        <ele>141</ele>
        <time>2013-09-01T06:49:52.576Z</time>
      </trkpt>
      <trkpt lat="47.41523" lon="0.8547">
        <ele>142</ele>
        <time>2013-09-01T06:49:53.570Z</time>
      </trkpt>
      <trkpt lat="47.41528" lon="0.85479">
        <ele>143</ele>
        <time>2013-09-01T06:49:55.531Z</time>
      </trkpt>
      <trkpt lat="47.4153" lon="0.85481">
        <ele>144</ele>
        <time>2013-09-01T06:49:56.576Z</time>
      </trkpt>
      <trkpt lat="47.41533" lon="0.85491">
        <ele>144</ele>
        <time>2013-09-01T06:49:59.520Z</time>
      </trkpt>
      <trkpt lat="47.41534" lon="0.85496">
        <ele>145</ele>
        <time>2013-09-01T06:50:00.526Z</time>
      </trkpt>
      <trkpt lat="47.4154" lon="0.85503">
        <ele>146</ele>
        <time>2013-09-01T06:50:04.584Z</time>
      </trkpt>
      <trkpt lat="47.41543" lon="0.85502">
        <ele>147</ele>
        <time>2013-09-01T06:50:05.571Z</time>
      </trkpt>
      <trkpt lat="47.41551" lon="0.85507">
        <ele>147</ele>
        <time>2013-09-01T06:50:08.531Z</time>
      </trkpt>
      <trkpt lat="47.41553" lon="0.85511">
        <ele>147</ele>
        <time>2013-09-01T06:50:09.573Z</time>
      </trkpt>
      <trkpt lat="47.41557" lon="0.85518">
        <ele>147</ele>
        <time>2013-09-01T06:50:11.578Z</time>
      </trkpt>
      <trkpt lat="47.41558" lon="0.85522">
        <ele>147</ele>
        <time>2013-09-01T06:50:12.576Z</time>
      </trkpt>
      <trkpt lat="47.4156" lon="0.8553">
        <ele>146</ele>
        <time>2013-09-01T06:50:14.576Z</time>
      </trkpt>
      <trkpt lat="47.41561" lon="0.85535">
        <ele>146</ele>
        <time>2013-09-01T06:50:15.577Z</time>
      </trkpt>
      <trkpt lat="47.41563" lon="0.85543">
        <ele>146</ele>
        <time>2013-09-01T06:50:17.572Z</time>
      </trkpt>
      <trkpt lat="47.41563" lon="0.85547">
        <ele>146</ele>
        <time>2013-09-01T06:50:18.585Z</time>
      </trkpt>
      <trkpt lat="47.41562" lon="0.8556">
        <ele>145</ele>
        <time>2013-09-01T06:50:21.512Z</time>
      </trkpt>
      <trkpt lat="47.41561" lon="0.85565">
        <ele>146</ele>
        <time>2013-09-01T06:50:22.513Z</time>
      </trkpt>
      <trkpt lat="47.41561" lon="0.85573">
        <ele>146</ele>
        <time>2013-09-01T06:50:24.577Z</time>
      </trkpt>
      <trkpt lat="47.4156" lon="0.85579">
        <ele>145</ele>
        <time>2013-09-01T06:50:25.527Z</time>
      </trkpt>
      <trkpt lat="47.4156" lon="0.85591">
        <ele>145</ele>
        <time>2013-09-01T06:50:27.570Z</time>
      </trkpt>
      <trkpt lat="47.4156" lon="0.85595">
        <ele>145</ele>
        <time>2013-09-01T06:50:28.535Z</time>
      </trkpt>
      <trkpt lat="47.41562" lon="0.85607">
        <ele>145</ele>
        <time>2013-09-01T06:50:30.566Z</time>
      </trkpt>
      <trkpt lat="47.41562" lon="0.85612">
        <ele>144</ele>
        <time>2013-09-01T06:50:31.560Z</time>
      </trkpt>
      <trkpt lat="47.41565" lon="0.85622">
        <ele>145</ele>
        <time>2013-09-01T06:50:33.522Z</time>
      </trkpt>
      <trkpt lat="47.41566" lon="0.85627">
        <ele>145</ele>
        <time>2013-09-01T06:50:34.570Z</time>
      </trkpt>
      <trkpt lat="47.41569" lon="0.85635">
        <ele>145</ele>
        <time>2013-09-01T06:50:36.576Z</time>
      </trkpt>
      <trkpt lat="47.41571" lon="0.8564">
        <ele>145</ele>
        <time>2013-09-01T06:50:37.574Z</time>
      </trkpt>
      <trkpt lat="47.41576" lon="0.85648">
        <ele>146</ele>
        <time>2013-09-01T06:50:39.576Z</time>
      </trkpt>
      <trkpt lat="47.41578" lon="0.85653">
        <ele>146</ele>
        <time>2013-09-01T06:50:40.574Z</time>
      </trkpt>
      <trkpt lat="47.41582" lon="0.85661">
        <ele>146</ele>
        <time>2013-09-01T06:50:42.584Z</time>
      </trkpt>
      <trkpt lat="47.41584" lon="0.85665">
        <ele>146</ele>
        <time>2013-09-01T06:50:43.633Z</time>
      </trkpt>
      <trkpt lat="47.41587" lon="0.85676">
        <ele>146</ele>
        <time>2013-09-01T06:50:45.576Z</time>
      </trkpt>
      <trkpt lat="47.41588" lon="0.85681">
        <ele>146</ele>
        <time>2013-09-01T06:50:46.579Z</time>
      </trkpt>
      <trkpt lat="47.41589" lon="0.85691">
        <ele>146</ele>
        <time>2013-09-01T06:50:48.539Z</time>
      </trkpt>
      <trkpt lat="47.41589" lon="0.85697">
        <ele>146</ele>
        <time>2013-09-01T06:50:49.512Z</time>
      </trkpt>
      <trkpt lat="47.41589" lon="0.85711">
        <ele>146</ele>
        <time>2013-09-01T06:50:51.509Z</time>
      </trkpt>
      <trkpt lat="47.41589" lon="0.85717">
        <ele>146</ele>
        <time>2013-09-01T06:50:52.506Z</time>
      </trkpt>
      <trkpt lat="47.41588" lon="0.85728">
        <ele>145</ele>
        <time>2013-09-01T06:50:54.524Z</time>
      </trkpt>
      <trkpt lat="47.41588" lon="0.85734">
        <ele>145</ele>
        <time>2013-09-01T06:50:55.511Z</time>
      </trkpt>
      <trkpt lat="47.4159" lon="0.85741">
        <ele>145</ele>
        <time>2013-09-01T06:50:56.526Z</time>
      </trkpt>
      <trkpt lat="47.41591" lon="0.85747">
        <ele>144</ele>
        <time>2013-09-01T06:50:57.571Z</time>
      </trkpt>
      <trkpt lat="47.41593" lon="0.85758">
        <ele>144</ele>
        <time>2013-09-01T06:50:59.567Z</time>
      </trkpt>
      <trkpt lat="47.41595" lon="0.85764">
        <ele>144</ele>
        <time>2013-09-01T06:51:00.549Z</time>
      </trkpt>
      <trkpt lat="47.41598" lon="0.85775">
        <ele>144</ele>
        <time>2013-09-01T06:51:02.596Z</time>
      </trkpt>
      <trkpt lat="47.41599" lon="0.85781">
        <ele>143</ele>
        <time>2013-09-01T06:51:03.539Z</time>
      </trkpt>
      <trkpt lat="47.41602" lon="0.8579">
        <ele>143</ele>
        <time>2013-09-01T06:51:05.521Z</time>
      </trkpt>
      <trkpt lat="47.41603" lon="0.85796">
        <ele>142</ele>
        <time>2013-09-01T06:51:06.516Z</time>
      </trkpt>
      <trkpt lat="47.41605" lon="0.85807">
        <ele>143</ele>
        <time>2013-09-01T06:51:08.531Z</time>
      </trkpt>
      <trkpt lat="47.41606" lon="0.85814">
        <ele>143</ele>
        <time>2013-09-01T06:51:09.646Z</time>
      </trkpt>
      <trkpt lat="47.41608" lon="0.85824">
        <ele>143</ele>
        <time>2013-09-01T06:51:11.582Z</time>
      </trkpt>
      <trkpt lat="47.41608" lon="0.85829">
        <ele>143</ele>
        <time>2013-09-01T06:51:12.584Z</time>
      </trkpt>
      <trkpt lat="47.41609" lon="0.85839">
        <ele>143</ele>
        <time>2013-09-01T06:51:14.600Z</time>
      </trkpt>
      <trkpt lat="47.41611" lon="0.85844">
        <ele>143</ele>
        <time>2013-09-01T06:51:15.599Z</time>
      </trkpt>
      <trkpt lat="47.41613" lon="0.85852">
        <ele>142</ele>
        <time>2013-09-01T06:51:17.576Z</time>
      </trkpt>
      <trkpt lat="47.41615" lon="0.85858">
        <ele>143</ele>
        <time>2013-09-01T06:51:18.539Z</time>
      </trkpt>
      <trkpt lat="47.41616" lon="0.85867">
        <ele>144</ele>
        <time>2013-09-01T06:51:20.591Z</time>
      </trkpt>
      <trkpt lat="47.41618" lon="0.85871">
        <ele>144</ele>
        <time>2013-09-01T06:51:21.522Z</time>
      </trkpt>
      <trkpt lat="47.4162" lon="0.85882">
        <ele>143</ele>
        <time>2013-09-01T06:51:22.835Z</time>
      </trkpt>
      <trkpt lat="47.41621" lon="0.85888">
        <ele>144</ele>
        <time>2013-09-01T06:51:23.887Z</time>
      </trkpt>
      <trkpt lat="47.41623" lon="0.85899">
        <ele>144</ele>
        <time>2013-09-01T06:51:25.840Z</time>
      </trkpt>
      <trkpt lat="47.41624" lon="0.85904">
        <ele>143</ele>
        <time>2013-09-01T06:51:26.872Z</time>
      </trkpt>
      <trkpt lat="47.41626" lon="0.85915">
        <ele>143</ele>
        <time>2013-09-01T06:51:28.817Z</time>
      </trkpt>
      <trkpt lat="47.41627" lon="0.85921">
        <ele>143</ele>
        <time>2013-09-01T06:51:29.818Z</time>
      </trkpt>
      <trkpt lat="47.41629" lon="0.85931">
        <ele>142</ele>
        <time>2013-09-01T06:51:31.867Z</time>
      </trkpt>
      <trkpt lat="47.41631" lon="0.85936">
        <ele>141</ele>
        <time>2013-09-01T06:51:32.931Z</time>
      </trkpt>
      <trkpt lat="47.41634" lon="0.85947">
        <ele>141</ele>
        <time>2013-09-01T06:51:34.873Z</time>
      </trkpt>
      <trkpt lat="47.41635" lon="0.85953">
        <ele>141</ele>
        <time>2013-09-01T06:51:35.871Z</time>
      </trkpt>
      <trkpt lat="47.41637" lon="0.85959">
        <ele>141</ele>
        <time>2013-09-01T06:51:36.883Z</time>
      </trkpt>
      <trkpt lat="47.41638" lon="0.85966">
        <ele>140</ele>
        <time>2013-09-01T06:51:37.940Z</time>
      </trkpt>
      <trkpt lat="47.41642" lon="0.85977">
        <ele>140</ele>
        <time>2013-09-01T06:51:39.883Z</time>
      </trkpt>
      <trkpt lat="47.41643" lon="0.85983">
        <ele>140</ele>
        <time>2013-09-01T06:51:40.886Z</time>
      </trkpt>
      <trkpt lat="47.41646" lon="0.85994">
        <ele>141</ele>
        <time>2013-09-01T06:51:42.891Z</time>
      </trkpt>
      <trkpt lat="47.41648" lon="0.85998">
        <ele>142</ele>
        <time>2013-09-01T06:51:43.851Z</time>
      </trkpt>
      <trkpt lat="47.4165" lon="0.86009">
        <ele>142</ele>
        <time>2013-09-01T06:51:45.837Z</time>
      </trkpt>
      <trkpt lat="47.41651" lon="0.86015">
        <ele>143</ele>
        <time>2013-09-01T06:51:46.832Z</time>
      </trkpt>
      <trkpt lat="47.41653" lon="0.86024">
        <ele>142</ele>
        <time>2013-09-01T06:51:48.825Z</time>
      </trkpt>
      <trkpt lat="47.41654" lon="0.86028">
        <ele>143</ele>
        <time>2013-09-01T06:51:49.828Z</time>
      </trkpt>
      <trkpt lat="47.41656" lon="0.86039">
        <ele>144</ele>
        <time>2013-09-01T06:51:51.882Z</time>
      </trkpt>
      <trkpt lat="47.41657" lon="0.86043">
        <ele>145</ele>
        <time>2013-09-01T06:51:52.940Z</time>
      </trkpt>
      <trkpt lat="47.4166" lon="0.86054">
        <ele>145</ele>
        <time>2013-09-01T06:51:54.884Z</time>
      </trkpt>
      <trkpt lat="47.4166" lon="0.86058">
        <ele>145</ele>
        <time>2013-09-01T06:51:55.836Z</time>
      </trkpt>
      <trkpt lat="47.4166" lon="0.86069">
        <ele>145</ele>
        <time>2013-09-01T06:51:57.881Z</time>
      </trkpt>
      <trkpt lat="47.41661" lon="0.86075">
        <ele>145</ele>
        <time>2013-09-01T06:51:58.833Z</time>
      </trkpt>
      <trkpt lat="47.41665" lon="0.86086">
        <ele>144</ele>
        <time>2013-09-01T06:52:00.831Z</time>
      </trkpt>
      <trkpt lat="47.41666" lon="0.8609">
        <ele>144</ele>
        <time>2013-09-01T06:52:01.834Z</time>
      </trkpt>
      <trkpt lat="47.41668" lon="0.86101">
        <ele>144</ele>
        <time>2013-09-01T06:52:03.838Z</time>
      </trkpt>
      <trkpt lat="47.41669" lon="0.86107">
        <ele>143</ele>
        <time>2013-09-01T06:52:04.826Z</time>
      </trkpt>
      <trkpt lat="47.41672" lon="0.86118">
        <ele>143</ele>
        <time>2013-09-01T06:52:06.829Z</time>
      </trkpt>
      <trkpt lat="47.41674" lon="0.86123">
        <ele>143</ele>
        <time>2013-09-01T06:52:07.853Z</time>
      </trkpt>
      <trkpt lat="47.41677" lon="0.86131">
        <ele>142</ele>
        <time>2013-09-01T06:52:09.883Z</time>
      </trkpt>
      <trkpt lat="47.41679" lon="0.86137">
        <ele>142</ele>
        <time>2013-09-01T06:52:10.879Z</time>
      </trkpt>
      <trkpt lat="47.41681" lon="0.86148">
        <ele>140</ele>
        <time>2013-09-01T06:52:12.838Z</time>
      </trkpt>
      <trkpt lat="47.41682" lon="0.86153">
        <ele>140</ele>
        <time>2013-09-01T06:52:13.883Z</time>
      </trkpt>
      <trkpt lat="47.41684" lon="0.86165">
        <ele>138</ele>
        <time>2013-09-01T06:52:15.878Z</time>
      </trkpt>
      <trkpt lat="47.41685" lon="0.86172">
        <ele>138</ele>
        <time>2013-09-01T06:52:16.884Z</time>
      </trkpt>
      <trkpt lat="47.41686" lon="0.86178">
        <ele>138</ele>
        <time>2013-09-01T06:52:17.887Z</time>
      </trkpt>
      <trkpt lat="47.41687" lon="0.86185">
        <ele>138</ele>
        <time>2013-09-01T06:52:18.900Z</time>
      </trkpt>
      <trkpt lat="47.41689" lon="0.86195">
        <ele>138</ele>
        <time>2013-09-01T06:52:20.832Z</time>
      </trkpt>
      <trkpt lat="47.4169" lon="0.86202">
        <ele>138</ele>
        <time>2013-09-01T06:52:21.848Z</time>
      </trkpt>
      <trkpt lat="47.41692" lon="0.86208">
        <ele>137</ele>
        <time>2013-09-01T06:52:22.885Z</time>
      </trkpt>
      <trkpt lat="47.41693" lon="0.86215">
        <ele>137</ele>
        <time>2013-09-01T06:52:23.830Z</time>
      </trkpt>
      <trkpt lat="47.41694" lon="0.86221">
        <ele>137</ele>
        <time>2013-09-01T06:52:24.842Z</time>
      </trkpt>
      <trkpt lat="47.41696" lon="0.86228">
        <ele>138</ele>
        <time>2013-09-01T06:52:25.851Z</time>
      </trkpt>
      <trkpt lat="47.41698" lon="0.86238">
        <ele>138</ele>
        <time>2013-09-01T06:52:27.832Z</time>
      </trkpt>
      <trkpt lat="47.41699" lon="0.86245">
        <ele>138</ele>
        <time>2013-09-01T06:52:28.896Z</time>
      </trkpt>
      <trkpt lat="47.41702" lon="0.86255">
        <ele>138</ele>
        <time>2013-09-01T06:52:30.932Z</time>
      </trkpt>
      <trkpt lat="47.41704" lon="0.8626">
        <ele>138</ele>
        <time>2013-09-01T06:52:31.870Z</time>
      </trkpt>
      <trkpt lat="47.41707" lon="0.86271">
        <ele>138</ele>
        <time>2013-09-01T06:52:33.835Z</time>
      </trkpt>
      <trkpt lat="47.41709" lon="0.86277">
        <ele>138</ele>
        <time>2013-09-01T06:52:34.831Z</time>
      </trkpt>
      <trkpt lat="47.41712" lon="0.86288">
        <ele>138</ele>
        <time>2013-09-01T06:52:37.868Z</time>
      </trkpt>
      <trkpt lat="47.41713" lon="0.86292">
        <ele>138</ele>
        <time>2013-09-01T06:52:38.883Z</time>
      </trkpt>
      <trkpt lat="47.41714" lon="0.86305">
        <ele>138</ele>
        <time>2013-09-01T06:52:42.851Z</time>
      </trkpt>
      <trkpt lat="47.41715" lon="0.86307">
        <ele>138</ele>
        <time>2013-09-01T06:52:43.891Z</time>
      </trkpt>
      <trkpt lat="47.41718" lon="0.86316">
        <ele>138</ele>
        <time>2013-09-01T06:52:45.887Z</time>
      </trkpt>
      <trkpt lat="47.41719" lon="0.8632">
        <ele>138</ele>
        <time>2013-09-01T06:52:46.894Z</time>
      </trkpt>
      <trkpt lat="47.41721" lon="0.86331">
        <ele>137</ele>
        <time>2013-09-01T06:52:48.829Z</time>
      </trkpt>
      <trkpt lat="47.41722" lon="0.86335">
        <ele>137</ele>
        <time>2013-09-01T06:52:49.858Z</time>
      </trkpt>
      <trkpt lat="47.41724" lon="0.86344">
        <ele>138</ele>
        <time>2013-09-01T06:52:51.988Z</time>
      </trkpt>
      <trkpt lat="47.41725" lon="0.86348">
        <ele>137</ele>
        <time>2013-09-01T06:52:52.843Z</time>
      </trkpt>
      <trkpt lat="47.41727" lon="0.86356">
        <ele>137</ele>
        <time>2013-09-01T06:52:54.832Z</time>
      </trkpt>
      <trkpt lat="47.41728" lon="0.86361">
        <ele>137</ele>
        <time>2013-09-01T06:52:55.855Z</time>
      </trkpt>
      <trkpt lat="47.4173" lon="0.86371">
        <ele>138</ele>
        <time>2013-09-01T06:52:57.830Z</time>
      </trkpt>
      <trkpt lat="47.41731" lon="0.86378">
        <ele>138</ele>
        <time>2013-09-01T06:52:58.890Z</time>
      </trkpt>
      <trkpt lat="47.41735" lon="0.86387">
        <ele>137</ele>
        <time>2013-09-01T06:53:00.861Z</time>
      </trkpt>
      <trkpt lat="47.41737" lon="0.86393">
        <ele>137</ele>
        <time>2013-09-01T06:53:01.888Z</time>
      </trkpt>
      <trkpt lat="47.4174" lon="0.86403">
        <ele>137</ele>
        <time>2013-09-01T06:53:03.830Z</time>
      </trkpt>
      <trkpt lat="47.41741" lon="0.86408">
        <ele>137</ele>
        <time>2013-09-01T06:53:04.838Z</time>
      </trkpt>
      <trkpt lat="47.41743" lon="0.86421">
        <ele>137</ele>
        <time>2013-09-01T06:53:06.893Z</time>
      </trkpt>
      <trkpt lat="47.41744" lon="0.86425">
        <ele>137</ele>
        <time>2013-09-01T06:53:07.886Z</time>
      </trkpt>
      <trkpt lat="47.41747" lon="0.86436">
        <ele>137</ele>
        <time>2013-09-01T06:53:09.827Z</time>
      </trkpt>
      <trkpt lat="47.41748" lon="0.86442">
        <ele>137</ele>
        <time>2013-09-01T06:53:10.833Z</time>
      </trkpt>
      <trkpt lat="47.4175" lon="0.86449">
        <ele>136</ele>
        <time>2013-09-01T06:53:11.830Z</time>
      </trkpt>
      <trkpt lat="47.41751" lon="0.86455">
        <ele>136</ele>
        <time>2013-09-01T06:53:12.893Z</time>
      </trkpt>
      <trkpt lat="47.41752" lon="0.86463">
        <ele>136</ele>
        <time>2013-09-01T06:53:13.833Z</time>
      </trkpt>
      <trkpt lat="47.41753" lon="0.8647">
        <ele>135</ele>
        <time>2013-09-01T06:53:14.850Z</time>
      </trkpt>
      <trkpt lat="47.41754" lon="0.86477">
        <ele>135</ele>
        <time>2013-09-01T06:53:15.886Z</time>
      </trkpt>
      <trkpt lat="47.41756" lon="0.86485">
        <ele>134</ele>
        <time>2013-09-01T06:53:16.893Z</time>
      </trkpt>
      <trkpt lat="47.41758" lon="0.86492">
        <ele>134</ele>
        <time>2013-09-01T06:53:17.835Z</time>
      </trkpt>
      <trkpt lat="47.4176" lon="0.86498">
        <ele>134</ele>
        <time>2013-09-01T06:53:18.893Z</time>
      </trkpt>
      <trkpt lat="47.41761" lon="0.86506">
        <ele>134</ele>
        <time>2013-09-01T06:53:19.891Z</time>
      </trkpt>
      <trkpt lat="47.41763" lon="0.86513">
        <ele>135</ele>
        <time>2013-09-01T06:53:20.898Z</time>
      </trkpt>
      <trkpt lat="47.41766" lon="0.86524">
        <ele>136</ele>
        <time>2013-09-01T06:53:22.827Z</time>
      </trkpt>
      <trkpt lat="47.41766" lon="0.86528">
        <ele>136</ele>
        <time>2013-09-01T06:53:23.854Z</time>
      </trkpt>
      <trkpt lat="47.41768" lon="0.86539">
        <ele>137</ele>
        <time>2013-09-01T06:53:25.868Z</time>
      </trkpt>
      <trkpt lat="47.41768" lon="0.86543">
        <ele>138</ele>
        <time>2013-09-01T06:53:26.883Z</time>
      </trkpt>
      <trkpt lat="47.41771" lon="0.86554">
        <ele>139</ele>
        <time>2013-09-01T06:53:29.833Z</time>
      </trkpt>
      <trkpt lat="47.41772" lon="0.86558">
        <ele>139</ele>
        <time>2013-09-01T06:53:30.844Z</time>
      </trkpt>
      <trkpt lat="47.41774" lon="0.86567">
        <ele>139</ele>
        <time>2013-09-01T06:53:32.886Z</time>
      </trkpt>
      <trkpt lat="47.41774" lon="0.86571">
        <ele>139</ele>
        <time>2013-09-01T06:53:33.892Z</time>
      </trkpt>
      <trkpt lat="47.41772" lon="0.86584">
        <ele>140</ele>
        <time>2013-09-01T06:53:37.846Z</time>
      </trkpt>
      <trkpt lat="47.4177" lon="0.86586">
        <ele>140</ele>
        <time>2013-09-01T06:53:38.873Z</time>
      </trkpt>
      <trkpt lat="47.41769" lon="0.86599">
        <ele>139</ele>
        <time>2013-09-01T06:53:41.881Z</time>
      </trkpt>
      <trkpt lat="47.4177" lon="0.86601">
        <ele>139</ele>
        <time>2013-09-01T06:53:42.876Z</time>
      </trkpt>
      <trkpt lat="47.41772" lon="0.86614">
        <ele>139</ele>
        <time>2013-09-01T06:53:45.876Z</time>
      </trkpt>
      <trkpt lat="47.41773" lon="0.8662">
        <ele>138</ele>
        <time>2013-09-01T06:53:46.880Z</time>
      </trkpt>
      <trkpt lat="47.41775" lon="0.86629">
        <ele>138</ele>
        <time>2013-09-01T06:53:48.825Z</time>
      </trkpt>
      <trkpt lat="47.41776" lon="0.86633">
        <ele>138</ele>
        <time>2013-09-01T06:53:49.849Z</time>
      </trkpt>
      <trkpt lat="47.41777" lon="0.86644">
        <ele>139</ele>
        <time>2013-09-01T06:53:51.877Z</time>
      </trkpt>
      <trkpt lat="47.41779" lon="0.86648">
        <ele>139</ele>
        <time>2013-09-01T06:53:52.891Z</time>
      </trkpt>
      <trkpt lat="47.41781" lon="0.86657">
        <ele>139</ele>
        <time>2013-09-01T06:53:54.832Z</time>
      </trkpt>
      <trkpt lat="47.41783" lon="0.86661">
        <ele>139</ele>
        <time>2013-09-01T06:53:55.850Z</time>
      </trkpt>
      <trkpt lat="47.41785" lon="0.86672">
        <ele>140</ele>
        <time>2013-09-01T06:53:57.886Z</time>
      </trkpt>
      <trkpt lat="47.41786" lon="0.86676">
        <ele>140</ele>
        <time>2013-09-01T06:53:58.893Z</time>
      </trkpt>
      <trkpt lat="47.41788" lon="0.86685">
        <ele>141</ele>
        <time>2013-09-01T06:54:00.834Z</time>
      </trkpt>
      <trkpt lat="47.41789" lon="0.86689">
        <ele>141</ele>
        <time>2013-09-01T06:54:01.851Z</time>
      </trkpt>
      <trkpt lat="47.41792" lon="0.867">
        <ele>141</ele>
        <time>2013-09-01T06:54:03.873Z</time>
      </trkpt>
      <trkpt lat="47.41792" lon="0.86704">
        <ele>141</ele>
        <time>2013-09-01T06:54:04.886Z</time>
      </trkpt>
      <trkpt lat="47.41795" lon="0.86715">
        <ele>141</ele>
        <time>2013-09-01T06:54:06.892Z</time>
      </trkpt>
      <trkpt lat="47.41795" lon="0.86719">
        <ele>141</ele>
        <time>2013-09-01T06:54:07.850Z</time>
      </trkpt>
      <trkpt lat="47.41797" lon="0.86728">
        <ele>141</ele>
        <time>2013-09-01T06:54:09.898Z</time>
      </trkpt>
      <trkpt lat="47.41798" lon="0.86734">
        <ele>141</ele>
        <time>2013-09-01T06:54:10.886Z</time>
      </trkpt>
      <trkpt lat="47.418" lon="0.86743">
        <ele>141</ele>
        <time>2013-09-01T06:54:12.842Z</time>
      </trkpt>
      <trkpt lat="47.41801" lon="0.86749">
        <ele>142</ele>
        <time>2013-09-01T06:54:13.897Z</time>
      </trkpt>
      <trkpt lat="47.41802" lon="0.86758">
        <ele>141</ele>
        <time>2013-09-01T06:54:15.835Z</time>
      </trkpt>
      <trkpt lat="47.41803" lon="0.86764">
        <ele>142</ele>
        <time>2013-09-01T06:54:16.836Z</time>
      </trkpt>
      <trkpt lat="47.41805" lon="0.86773">
        <ele>142</ele>
        <time>2013-09-01T06:54:18.841Z</time>
      </trkpt>
      <trkpt lat="47.41806" lon="0.86777">
        <ele>142</ele>
        <time>2013-09-01T06:54:19.821Z</time>
      </trkpt>
      <trkpt lat="47.41809" lon="0.86788">
        <ele>142</ele>
        <time>2013-09-01T06:54:21.847Z</time>
      </trkpt>
      <trkpt lat="47.41809" lon="0.86794">
        <ele>142</ele>
        <time>2013-09-01T06:54:22.961Z</time>
      </trkpt>
      <trkpt lat="47.41811" lon="0.86805">
        <ele>141</ele>
        <time>2013-09-01T06:54:24.891Z</time>
      </trkpt>
      <trkpt lat="47.41811" lon="0.86809">
        <ele>141</ele>
        <time>2013-09-01T06:54:25.963Z</time>
      </trkpt>
      <trkpt lat="47.41813" lon="0.8682">
        <ele>140</ele>
        <time>2013-09-01T06:54:28.166Z</time>
      </trkpt>
      <trkpt lat="47.41814" lon="0.86826">
        <ele>140</ele>
        <time>2013-09-01T06:54:29.172Z</time>
      </trkpt>
      <trkpt lat="47.41816" lon="0.86835">
        <ele>140</ele>
        <time>2013-09-01T06:54:31.187Z</time>
      </trkpt>
      <trkpt lat="47.41817" lon="0.86841">
        <ele>139</ele>
        <time>2013-09-01T06:54:32.145Z</time>
      </trkpt>
      <trkpt lat="47.41819" lon="0.86852">
        <ele>138</ele>
        <time>2013-09-01T06:54:34.214Z</time>
      </trkpt>
      <trkpt lat="47.41821" lon="0.86858">
        <ele>139</ele>
        <time>2013-09-01T06:54:35.217Z</time>
      </trkpt>
      <trkpt lat="47.41824" lon="0.86869">
        <ele>138</ele>
        <time>2013-09-01T06:54:37.179Z</time>
      </trkpt>
      <trkpt lat="47.41826" lon="0.86874">
        <ele>138</ele>
        <time>2013-09-01T06:54:38.147Z</time>
      </trkpt>
      <trkpt lat="47.41829" lon="0.86882">
        <ele>139</ele>
        <time>2013-09-01T06:54:40.212Z</time>
      </trkpt>
      <trkpt lat="47.41831" lon="0.86888">
        <ele>139</ele>
        <time>2013-09-01T06:54:41.162Z</time>
      </trkpt>
      <trkpt lat="47.41833" lon="0.86897">
        <ele>139</ele>
        <time>2013-09-01T06:54:43.156Z</time>
      </trkpt>
      <trkpt lat="47.41835" lon="0.86903">
        <ele>139</ele>
        <time>2013-09-01T06:54:44.143Z</time>
      </trkpt>
      <trkpt lat="47.41838" lon="0.86914">
        <ele>139</ele>
        <time>2013-09-01T06:54:46.166Z</time>
      </trkpt>
      <trkpt lat="47.4184" lon="0.86919">
        <ele>139</ele>
        <time>2013-09-01T06:54:47.197Z</time>
      </trkpt>
      <trkpt lat="47.41842" lon="0.86929">
        <ele>139</ele>
        <time>2013-09-01T06:54:49.203Z</time>
      </trkpt>
      <trkpt lat="47.41843" lon="0.86936">
        <ele>139</ele>
        <time>2013-09-01T06:54:50.197Z</time>
      </trkpt>
      <trkpt lat="47.41844" lon="0.86947">
        <ele>139</ele>
        <time>2013-09-01T06:54:52.146Z</time>
      </trkpt>
      <trkpt lat="47.41844" lon="0.86953">
        <ele>139</ele>
        <time>2013-09-01T06:54:53.164Z</time>
      </trkpt>
      <trkpt lat="47.41845" lon="0.86963">
        <ele>139</ele>
        <time>2013-09-01T06:54:55.160Z</time>
      </trkpt>
      <trkpt lat="47.41846" lon="0.86968">
        <ele>140</ele>
        <time>2013-09-01T06:54:56.150Z</time>
      </trkpt>
      <trkpt lat="47.41847" lon="0.86981">
        <ele>139</ele>
        <time>2013-09-01T06:54:58.162Z</time>
      </trkpt>
      <trkpt lat="47.41848" lon="0.86985">
        <ele>139</ele>
        <time>2013-09-01T06:54:59.163Z</time>
      </trkpt>
      <trkpt lat="47.41849" lon="0.86996">
        <ele>139</ele>
        <time>2013-09-01T06:55:01.197Z</time>
      </trkpt>
      <trkpt lat="47.4185" lon="0.87002">
        <ele>139</ele>
        <time>2013-09-01T06:55:02.202Z</time>
      </trkpt>
      <trkpt lat="47.41854" lon="0.87013">
        <ele>139</ele>
        <time>2013-09-01T06:55:04.198Z</time>
      </trkpt>
      <trkpt lat="47.41854" lon="0.87019">
        <ele>139</ele>
        <time>2013-09-01T06:55:05.177Z</time>
      </trkpt>
      <trkpt lat="47.41856" lon="0.87028">
        <ele>139</ele>
        <time>2013-09-01T06:55:07.172Z</time>
      </trkpt>
      <trkpt lat="47.41857" lon="0.87034">
        <ele>139</ele>
        <time>2013-09-01T06:55:08.211Z</time>
      </trkpt>
      <trkpt lat="47.41859" lon="0.87043">
        <ele>139</ele>
        <time>2013-09-01T06:55:10.201Z</time>
      </trkpt>
      <trkpt lat="47.4186" lon="0.87047">
        <ele>139</ele>
        <time>2013-09-01T06:55:11.198Z</time>
      </trkpt>
      <trkpt lat="47.4186" lon="0.87058">
        <ele>140</ele>
        <time>2013-09-01T06:55:13.211Z</time>
      </trkpt>
      <trkpt lat="47.4186" lon="0.87062">
        <ele>139</ele>
        <time>2013-09-01T06:55:14.197Z</time>
      </trkpt>
      <trkpt lat="47.41862" lon="0.87071">
        <ele>140</ele>
        <time>2013-09-01T06:55:16.145Z</time>
      </trkpt>
      <trkpt lat="47.41864" lon="0.87075">
        <ele>140</ele>
        <time>2013-09-01T06:55:17.165Z</time>
      </trkpt>
      <trkpt lat="47.41866" lon="0.87086">
        <ele>140</ele>
        <time>2013-09-01T06:55:19.201Z</time>
      </trkpt>
      <trkpt lat="47.41867" lon="0.8709">
        <ele>141</ele>
        <time>2013-09-01T06:55:20.197Z</time>
      </trkpt>
      <trkpt lat="47.4187" lon="0.87099">
        <ele>141</ele>
        <time>2013-09-01T06:55:22.201Z</time>
      </trkpt>
      <trkpt lat="47.41872" lon="0.87103">
        <ele>142</ele>
        <time>2013-09-01T06:55:23.171Z</time>
      </trkpt>
      <trkpt lat="47.41874" lon="0.87112">
        <ele>142</ele>
        <time>2013-09-01T06:55:25.186Z</time>
      </trkpt>
      <trkpt lat="47.41876" lon="0.87116">
        <ele>143</ele>
        <time>2013-09-01T06:55:26.192Z</time>
      </trkpt>
      <trkpt lat="47.41878" lon="0.87125">
        <ele>143</ele>
        <time>2013-09-01T06:55:28.243Z</time>
      </trkpt>
      <trkpt lat="47.41879" lon="0.87131">
        <ele>144</ele>
        <time>2013-09-01T06:55:29.192Z</time>
      </trkpt>
      <trkpt lat="47.41882" lon="0.8714">
        <ele>145</ele>
        <time>2013-09-01T06:55:31.187Z</time>
      </trkpt>
      <trkpt lat="47.41883" lon="0.87144">
        <ele>144</ele>
        <time>2013-09-01T06:55:32.192Z</time>
      </trkpt>
      <trkpt lat="47.41883" lon="0.87155">
        <ele>143</ele>
        <time>2013-09-01T06:55:34.202Z</time>
      </trkpt>
      <trkpt lat="47.41884" lon="0.87159">
        <ele>143</ele>
        <time>2013-09-01T06:55:35.202Z</time>
      </trkpt>
      <trkpt lat="47.41884" lon="0.8717">
        <ele>144</ele>
        <time>2013-09-01T06:55:37.192Z</time>
      </trkpt>
      <trkpt lat="47.41885" lon="0.87174">
        <ele>144</ele>
        <time>2013-09-01T06:55:38.192Z</time>
      </trkpt>
      <trkpt lat="47.41886" lon="0.87185">
        <ele>144</ele>
        <time>2013-09-01T06:55:40.181Z</time>
      </trkpt>
      <trkpt lat="47.41888" lon="0.87189">
        <ele>145</ele>
        <time>2013-09-01T06:55:41.191Z</time>
      </trkpt>
      <trkpt lat="47.4189" lon="0.872">
        <ele>145</ele>
        <time>2013-09-01T06:55:43.152Z</time>
      </trkpt>
      <trkpt lat="47.41891" lon="0.87202">
        <ele>145</ele>
        <time>2013-09-01T06:55:44.164Z</time>
      </trkpt>
      <trkpt lat="47.41898" lon="0.8721">
        <ele>143</ele>
        <time>2013-09-01T06:55:47.207Z</time>
      </trkpt>
      <trkpt lat="47.41901" lon="0.87209">
        <ele>144</ele>
        <time>2013-09-01T06:55:48.254Z</time>
      </trkpt>
      <trkpt lat="47.41908" lon="0.87208">
        <ele>144</ele>
        <time>2013-09-01T06:55:50.207Z</time>
      </trkpt>
      <trkpt lat="47.41912" lon="0.87208">
        <ele>144</ele>
        <time>2013-09-01T06:55:51.211Z</time>
      </trkpt>
      <trkpt lat="47.4192" lon="0.87208">
        <ele>146</ele>
        <time>2013-09-01T06:55:54.218Z</time>
      </trkpt>
      <trkpt lat="47.41923" lon="0.87208">
        <ele>146</ele>
        <time>2013-09-01T06:55:55.202Z</time>
      </trkpt>
      <trkpt lat="47.41932" lon="0.87206">
        <ele>147</ele>
        <time>2013-09-01T06:55:58.207Z</time>
      </trkpt>
      <trkpt lat="47.41935" lon="0.87206">
        <ele>147</ele>
        <time>2013-09-01T06:55:59.176Z</time>
      </trkpt>
      <trkpt lat="47.41941" lon="0.87206">
        <ele>148</ele>
        <time>2013-09-01T06:56:01.159Z</time>
      </trkpt>
      <trkpt lat="47.41945" lon="0.87206">
        <ele>149</ele>
        <time>2013-09-01T06:56:02.154Z</time>
      </trkpt>
      <trkpt lat="47.41951" lon="0.87206">
        <ele>149</ele>
        <time>2013-09-01T06:56:04.208Z</time>
      </trkpt>
      <trkpt lat="47.41954" lon="0.87206">
        <ele>150</ele>
        <time>2013-09-01T06:56:05.207Z</time>
      </trkpt>
      <trkpt lat="47.41961" lon="0.87206">
        <ele>150</ele>
        <time>2013-09-01T06:56:07.202Z</time>
      </trkpt>
      <trkpt lat="47.41964" lon="0.87204">
        <ele>150</ele>
        <time>2013-09-01T06:56:08.207Z</time>
      </trkpt>
      <trkpt lat="47.41972" lon="0.87204">
        <ele>151</ele>
        <time>2013-09-01T06:56:10.212Z</time>
      </trkpt>
      <trkpt lat="47.41975" lon="0.87204">
        <ele>151</ele>
        <time>2013-09-01T06:56:11.207Z</time>
      </trkpt>
      <trkpt lat="47.41983" lon="0.87204">
        <ele>151</ele>
        <time>2013-09-01T06:56:14.206Z</time>
      </trkpt>
      <trkpt lat="47.41986" lon="0.87204">
        <ele>151</ele>
        <time>2013-09-01T06:56:15.202Z</time>
      </trkpt>
      <trkpt lat="47.41995" lon="0.87206">
        <ele>152</ele>
        <time>2013-09-01T06:56:18.184Z</time>
      </trkpt>
      <trkpt lat="47.41998" lon="0.87206">
        <ele>152</ele>
        <time>2013-09-01T06:56:19.206Z</time>
      </trkpt>
      <trkpt lat="47.42007" lon="0.87206">
        <ele>153</ele>
        <time>2013-09-01T06:56:22.201Z</time>
      </trkpt>
      <trkpt lat="47.42011" lon="0.87206">
        <ele>153</ele>
        <time>2013-09-01T06:56:23.293Z</time>
      </trkpt>
      <trkpt lat="47.42018" lon="0.87208">
        <ele>153</ele>
        <time>2013-09-01T06:56:25.187Z</time>
      </trkpt>
      <trkpt lat="47.42021" lon="0.87208">
        <ele>153</ele>
        <time>2013-09-01T06:56:26.202Z</time>
      </trkpt>
      <trkpt lat="47.42029" lon="0.87208">
        <ele>153</ele>
        <time>2013-09-01T06:56:28.206Z</time>
      </trkpt>
      <trkpt lat="47.42032" lon="0.87208">
        <ele>153</ele>
        <time>2013-09-01T06:56:29.155Z</time>
      </trkpt>
      <trkpt lat="47.42039" lon="0.87208">
        <ele>152</ele>
        <time>2013-09-01T06:56:31.202Z</time>
      </trkpt>
      <trkpt lat="47.42043" lon="0.87208">
        <ele>152</ele>
        <time>2013-09-01T06:56:32.202Z</time>
      </trkpt>
      <trkpt lat="47.4205" lon="0.87208">
        <ele>152</ele>
        <time>2013-09-01T06:56:34.207Z</time>
      </trkpt>
      <trkpt lat="47.42053" lon="0.87206">
        <ele>152</ele>
        <time>2013-09-01T06:56:35.216Z</time>
      </trkpt>
      <trkpt lat="47.42058" lon="0.87204">
        <ele>152</ele>
        <time>2013-09-01T06:56:37.207Z</time>
      </trkpt>
      <trkpt lat="47.42063" lon="0.87204">
        <ele>152</ele>
        <time>2013-09-01T06:56:38.203Z</time>
      </trkpt>
      <trkpt lat="47.42069" lon="0.872">
        <ele>151</ele>
        <time>2013-09-01T06:56:40.222Z</time>
      </trkpt>
      <trkpt lat="47.42072" lon="0.87198">
        <ele>152</ele>
        <time>2013-09-01T06:56:41.221Z</time>
      </trkpt>
      <trkpt lat="47.42079" lon="0.87196">
        <ele>152</ele>
        <time>2013-09-01T06:56:43.176Z</time>
      </trkpt>
      <trkpt lat="47.42082" lon="0.87193">
        <ele>152</ele>
        <time>2013-09-01T06:56:44.223Z</time>
      </trkpt>
      <trkpt lat="47.42089" lon="0.87191">
        <ele>152</ele>
        <time>2013-09-01T06:56:46.179Z</time>
      </trkpt>
      <trkpt lat="47.42092" lon="0.87191">
        <ele>152</ele>
        <time>2013-09-01T06:56:47.206Z</time>
      </trkpt>
      <trkpt lat="47.42098" lon="0.87187">
        <ele>152</ele>
        <time>2013-09-01T06:56:49.220Z</time>
      </trkpt>
      <trkpt lat="47.42101" lon="0.87187">
        <ele>152</ele>
        <time>2013-09-01T06:56:50.220Z</time>
      </trkpt>
      <trkpt lat="47.42108" lon="0.87185">
        <ele>152</ele>
        <time>2013-09-01T06:56:52.218Z</time>
      </trkpt>
      <trkpt lat="47.42111" lon="0.87185">
        <ele>152</ele>
        <time>2013-09-01T06:56:53.156Z</time>
      </trkpt>
      <trkpt lat="47.42118" lon="0.87185">
        <ele>152</ele>
        <time>2013-09-01T06:56:55.205Z</time>
      </trkpt>
      <trkpt lat="47.42121" lon="0.87183">
        <ele>152</ele>
        <time>2013-09-01T06:56:56.160Z</time>
      </trkpt>
      <trkpt lat="47.42127" lon="0.87182">
        <ele>152</ele>
        <time>2013-09-01T06:56:58.213Z</time>
      </trkpt>
      <trkpt lat="47.4213" lon="0.87183">
        <ele>152</ele>
        <time>2013-09-01T06:56:59.162Z</time>
      </trkpt>
      <trkpt lat="47.42139" lon="0.87184">
        <ele>152</ele>
        <time>2013-09-01T06:57:02.205Z</time>
      </trkpt>
      <trkpt lat="47.42141" lon="0.87187">
        <ele>152</ele>
        <time>2013-09-01T06:57:03.215Z</time>
      </trkpt>
      <trkpt lat="47.42143" lon="0.87193">
        <ele>152</ele>
        <time>2013-09-01T06:57:05.205Z</time>
      </trkpt>
      <trkpt lat="47.42144" lon="0.87199">
        <ele>152</ele>
        <time>2013-09-01T06:57:06.200Z</time>
      </trkpt>
      <trkpt lat="47.42145" lon="0.87208">
        <ele>152</ele>
        <time>2013-09-01T06:57:08.205Z</time>
      </trkpt>
      <trkpt lat="47.42147" lon="0.87213">
        <ele>152</ele>
        <time>2013-09-01T06:57:09.206Z</time>
      </trkpt>
      <trkpt lat="47.42147" lon="0.87223">
        <ele>152</ele>
        <time>2013-09-01T06:57:11.149Z</time>
      </trkpt>
      <trkpt lat="47.42147" lon="0.87228">
        <ele>152</ele>
        <time>2013-09-01T06:57:12.162Z</time>
      </trkpt>
      <trkpt lat="47.42147" lon="0.8724">
        <ele>151</ele>
        <time>2013-09-01T06:57:15.213Z</time>
      </trkpt>
      <trkpt lat="47.42147" lon="0.87245">
        <ele>151</ele>
        <time>2013-09-01T06:57:16.155Z</time>
      </trkpt>
      <trkpt lat="47.42147" lon="0.87256">
        <ele>151</ele>
        <time>2013-09-01T06:57:18.149Z</time>
      </trkpt>
      <trkpt lat="47.42147" lon="0.8726">
        <ele>151</ele>
        <time>2013-09-01T06:57:19.154Z</time>
      </trkpt>
      <trkpt lat="47.42147" lon="0.8727">
        <ele>150</ele>
        <time>2013-09-01T06:57:21.160Z</time>
      </trkpt>
      <trkpt lat="47.42147" lon="0.87275">
        <ele>150</ele>
        <time>2013-09-01T06:57:22.151Z</time>
      </trkpt>
      <trkpt lat="47.42147" lon="0.87286">
        <ele>150</ele>
        <time>2013-09-01T06:57:24.205Z</time>
      </trkpt>
      <trkpt lat="47.42147" lon="0.8729">
        <ele>150</ele>
        <time>2013-09-01T06:57:25.251Z</time>
      </trkpt>
      <trkpt lat="47.42148" lon="0.87303">
        <ele>149</ele>
        <time>2013-09-01T06:57:28.421Z</time>
      </trkpt>
      <trkpt lat="47.42151" lon="0.87307">
        <ele>149</ele>
        <time>2013-09-01T06:57:29.411Z</time>
      </trkpt>
      <trkpt lat="47.42159" lon="0.87305">
        <ele>150</ele>
        <time>2013-09-01T06:57:32.456Z</time>
      </trkpt>
      <trkpt lat="47.42163" lon="0.87305">
        <ele>149</ele>
        <time>2013-09-01T06:57:33.436Z</time>
      </trkpt>
      <trkpt lat="47.4217" lon="0.87303">
        <ele>149</ele>
        <time>2013-09-01T06:57:35.465Z</time>
      </trkpt>
      <trkpt lat="47.42173" lon="0.87303">
        <ele>149</ele>
        <time>2013-09-01T06:57:36.512Z</time>
      </trkpt>
      <trkpt lat="47.4218" lon="0.87303">
        <ele>149</ele>
        <time>2013-09-01T06:57:38.412Z</time>
      </trkpt>
      <trkpt lat="47.42183" lon="0.87303">
        <ele>149</ele>
        <time>2013-09-01T06:57:39.466Z</time>
      </trkpt>
      <trkpt lat="47.42189" lon="0.87298">
        <ele>149</ele>
        <time>2013-09-01T06:57:41.474Z</time>
      </trkpt>
      <trkpt lat="47.42192" lon="0.87298">
        <ele>149</ele>
        <time>2013-09-01T06:57:42.460Z</time>
      </trkpt>
      <trkpt lat="47.42199" lon="0.87294">
        <ele>149</ele>
        <time>2013-09-01T06:57:44.412Z</time>
      </trkpt>
      <trkpt lat="47.42201" lon="0.87294">
        <ele>150</ele>
        <time>2013-09-01T06:57:45.419Z</time>
      </trkpt>
      <trkpt lat="47.42208" lon="0.87292">
        <ele>150</ele>
        <time>2013-09-01T06:57:47.467Z</time>
      </trkpt>
      <trkpt lat="47.42211" lon="0.8729">
        <ele>150</ele>
        <time>2013-09-01T06:57:48.466Z</time>
      </trkpt>
      <trkpt lat="47.42216" lon="0.87287">
        <ele>151</ele>
        <time>2013-09-01T06:57:50.471Z</time>
      </trkpt>
      <trkpt lat="47.42219" lon="0.87286">
        <ele>151</ele>
        <time>2013-09-01T06:57:51.482Z</time>
      </trkpt>
      <trkpt lat="47.42226" lon="0.87283">
        <ele>151</ele>
        <time>2013-09-01T06:57:53.439Z</time>
      </trkpt>
      <trkpt lat="47.42229" lon="0.87281">
        <ele>151</ele>
        <time>2013-09-01T06:57:54.467Z</time>
      </trkpt>
      <trkpt lat="47.42236" lon="0.87279">
        <ele>151</ele>
        <time>2013-09-01T06:57:56.466Z</time>
      </trkpt>
      <trkpt lat="47.42239" lon="0.87277">
        <ele>152</ele>
        <time>2013-09-01T06:57:57.466Z</time>
      </trkpt>
      <trkpt lat="47.42245" lon="0.87275">
        <ele>152</ele>
        <time>2013-09-01T06:57:59.410Z</time>
      </trkpt>
      <trkpt lat="47.42249" lon="0.87273">
        <ele>152</ele>
        <time>2013-09-01T06:58:00.433Z</time>
      </trkpt>
      <trkpt lat="47.42257" lon="0.87268">
        <ele>153</ele>
        <time>2013-09-01T06:58:03.467Z</time>
      </trkpt>
      <trkpt lat="47.4226" lon="0.87268">
        <ele>153</ele>
        <time>2013-09-01T06:58:04.422Z</time>
      </trkpt>
      <trkpt lat="47.42267" lon="0.87264">
        <ele>154</ele>
        <time>2013-09-01T06:58:06.467Z</time>
      </trkpt>
      <trkpt lat="47.4227" lon="0.87264">
        <ele>154</ele>
        <time>2013-09-01T06:58:07.462Z</time>
      </trkpt>
      <trkpt lat="47.42276" lon="0.87266">
        <ele>154</ele>
        <time>2013-09-01T06:58:09.466Z</time>
      </trkpt>
      <trkpt lat="47.42278" lon="0.87268">
        <ele>154</ele>
        <time>2013-09-01T06:58:10.471Z</time>
      </trkpt>
      <trkpt lat="47.4228" lon="0.87279">
        <ele>154</ele>
        <time>2013-09-01T06:58:12.432Z</time>
      </trkpt>
      <trkpt lat="47.42279" lon="0.87284">
        <ele>154</ele>
        <time>2013-09-01T06:58:13.433Z</time>
      </trkpt>
      <trkpt lat="47.42281" lon="0.87296">
        <ele>153</ele>
        <time>2013-09-01T06:58:16.457Z</time>
      </trkpt>
      <trkpt lat="47.42281" lon="0.87302">
        <ele>154</ele>
        <time>2013-09-01T06:58:17.456Z</time>
      </trkpt>
      <trkpt lat="47.42282" lon="0.87313">
        <ele>153</ele>
        <time>2013-09-01T06:58:19.461Z</time>
      </trkpt>
      <trkpt lat="47.42283" lon="0.87318">
        <ele>153</ele>
        <time>2013-09-01T06:58:20.461Z</time>
      </trkpt>
      <trkpt lat="47.42284" lon="0.87329">
        <ele>153</ele>
        <time>2013-09-01T06:58:22.459Z</time>
      </trkpt>
      <trkpt lat="47.42285" lon="0.87333">
        <ele>153</ele>
        <time>2013-09-01T06:58:23.472Z</time>
      </trkpt>
      <trkpt lat="47.42286" lon="0.87344">
        <ele>153</ele>
        <time>2013-09-01T06:58:25.415Z</time>
      </trkpt>
      <trkpt lat="47.42287" lon="0.8735">
        <ele>153</ele>
        <time>2013-09-01T06:58:26.440Z</time>
      </trkpt>
      <trkpt lat="47.42287" lon="0.87359">
        <ele>153</ele>
        <time>2013-09-01T06:58:28.519Z</time>
      </trkpt>
      <trkpt lat="47.42287" lon="0.87365">
        <ele>153</ele>
        <time>2013-09-01T06:58:29.435Z</time>
      </trkpt>
      <trkpt lat="47.42287" lon="0.87376">
        <ele>152</ele>
        <time>2013-09-01T06:58:31.461Z</time>
      </trkpt>
      <trkpt lat="47.42288" lon="0.8738">
        <ele>152</ele>
        <time>2013-09-01T06:58:32.459Z</time>
      </trkpt>
      <trkpt lat="47.42289" lon="0.87391">
        <ele>152</ele>
        <time>2013-09-01T06:58:34.462Z</time>
      </trkpt>
      <trkpt lat="47.4229" lon="0.87395">
        <ele>152</ele>
        <time>2013-09-01T06:58:35.461Z</time>
      </trkpt>
      <trkpt lat="47.42291" lon="0.87406">
        <ele>153</ele>
        <time>2013-09-01T06:58:37.459Z</time>
      </trkpt>
      <trkpt lat="47.42291" lon="0.87412">
        <ele>153</ele>
        <time>2013-09-01T06:58:38.470Z</time>
      </trkpt>
      <trkpt lat="47.42292" lon="0.87423">
        <ele>153</ele>
        <time>2013-09-01T06:58:40.412Z</time>
      </trkpt>
      <trkpt lat="47.42293" lon="0.87427">
        <ele>152</ele>
        <time>2013-09-01T06:58:41.449Z</time>
      </trkpt>
      <trkpt lat="47.42295" lon="0.8744">
        <ele>152</ele>
        <time>2013-09-01T06:58:43.461Z</time>
      </trkpt>
      <trkpt lat="47.42295" lon="0.87444">
        <ele>152</ele>
        <time>2013-09-01T06:58:44.416Z</time>
      </trkpt>
      <trkpt lat="47.42298" lon="0.87455">
        <ele>152</ele>
        <time>2013-09-01T06:58:46.416Z</time>
      </trkpt>
      <trkpt lat="47.42299" lon="0.87461">
        <ele>152</ele>
        <time>2013-09-01T06:58:47.419Z</time>
      </trkpt>
      <trkpt lat="47.423" lon="0.8747">
        <ele>153</ele>
        <time>2013-09-01T06:58:49.458Z</time>
      </trkpt>
      <trkpt lat="47.423" lon="0.87476">
        <ele>153</ele>
        <time>2013-09-01T06:58:50.482Z</time>
      </trkpt>
      <trkpt lat="47.42301" lon="0.87487">
        <ele>152</ele>
        <time>2013-09-01T06:58:52.662Z</time>
      </trkpt>
      <trkpt lat="47.42302" lon="0.87493">
        <ele>152</ele>
        <time>2013-09-01T06:58:53.411Z</time>
      </trkpt>
      <trkpt lat="47.42304" lon="0.87504">
        <ele>153</ele>
        <time>2013-09-01T06:58:55.468Z</time>
      </trkpt>
      <trkpt lat="47.42304" lon="0.87509">
        <ele>153</ele>
        <time>2013-09-01T06:58:56.477Z</time>
      </trkpt>
      <trkpt lat="47.42308" lon="0.87517">
        <ele>153</ele>
        <time>2013-09-01T06:58:58.411Z</time>
      </trkpt>
      <trkpt lat="47.4231" lon="0.87522">
        <ele>153</ele>
        <time>2013-09-01T06:58:59.422Z</time>
      </trkpt>
      <trkpt lat="47.42312" lon="0.8753">
        <ele>153</ele>
        <time>2013-09-01T06:59:01.472Z</time>
      </trkpt>
      <trkpt lat="47.42313" lon="0.87534">
        <ele>153</ele>
        <time>2013-09-01T06:59:02.414Z</time>
      </trkpt>
      <trkpt lat="47.42314" lon="0.87545">
        <ele>154</ele>
        <time>2013-09-01T06:59:04.416Z</time>
      </trkpt>
      <trkpt lat="47.42314" lon="0.8755">
        <ele>154</ele>
        <time>2013-09-01T06:59:05.400Z</time>
      </trkpt>
      <trkpt lat="47.42315" lon="0.87562">
        <ele>154</ele>
        <time>2013-09-01T06:59:07.461Z</time>
      </trkpt>
      <trkpt lat="47.42316" lon="0.87569">
        <ele>153</ele>
        <time>2013-09-01T06:59:08.481Z</time>
      </trkpt>
      <trkpt lat="47.42317" lon="0.87579">
        <ele>153</ele>
        <time>2013-09-01T06:59:10.480Z</time>
      </trkpt>
      <trkpt lat="47.42317" lon="0.87586">
        <ele>153</ele>
        <time>2013-09-01T06:59:11.424Z</time>
      </trkpt>
      <trkpt lat="47.42319" lon="0.87597">
        <ele>154</ele>
        <time>2013-09-01T06:59:13.453Z</time>
      </trkpt>
      <trkpt lat="47.42319" lon="0.87603">
        <ele>153</ele>
        <time>2013-09-01T06:59:14.474Z</time>
      </trkpt>
      <trkpt lat="47.4232" lon="0.87614">
        <ele>153</ele>
        <time>2013-09-01T06:59:16.466Z</time>
      </trkpt>
      <trkpt lat="47.4232" lon="0.8762">
        <ele>153</ele>
        <time>2013-09-01T06:59:17.456Z</time>
      </trkpt>
      <trkpt lat="47.42323" lon="0.87631">
        <ele>154</ele>
        <time>2013-09-01T06:59:19.411Z</time>
      </trkpt>
      <trkpt lat="47.42324" lon="0.87637">
        <ele>154</ele>
        <time>2013-09-01T06:59:20.462Z</time>
      </trkpt>
      <trkpt lat="47.42324" lon="0.87648">
        <ele>154</ele>
        <time>2013-09-01T06:59:22.468Z</time>
      </trkpt>
      <trkpt lat="47.42324" lon="0.87655">
        <ele>155</ele>
        <time>2013-09-01T06:59:23.432Z</time>
      </trkpt>
      <trkpt lat="47.42326" lon="0.87665">
        <ele>155</ele>
        <time>2013-09-01T06:59:25.459Z</time>
      </trkpt>
      <trkpt lat="47.42327" lon="0.87672">
        <ele>155</ele>
        <time>2013-09-01T06:59:26.467Z</time>
      </trkpt>
      <trkpt lat="47.42328" lon="0.87683">
        <ele>155</ele>
        <time>2013-09-01T06:59:28.507Z</time>
      </trkpt>
      <trkpt lat="47.42329" lon="0.87689">
        <ele>155</ele>
        <time>2013-09-01T06:59:29.466Z</time>
      </trkpt>
      <trkpt lat="47.42331" lon="0.877">
        <ele>156</ele>
        <time>2013-09-01T06:59:31.466Z</time>
      </trkpt>
      <trkpt lat="47.42331" lon="0.87706">
        <ele>156</ele>
        <time>2013-09-01T06:59:32.469Z</time>
      </trkpt>
      <trkpt lat="47.42332" lon="0.87712">
        <ele>156</ele>
        <time>2013-09-01T06:59:33.527Z</time>
      </trkpt>
      <trkpt lat="47.42333" lon="0.87719">
        <ele>156</ele>
        <time>2013-09-01T06:59:34.411Z</time>
      </trkpt>
      <trkpt lat="47.42336" lon="0.8773">
        <ele>156</ele>
        <time>2013-09-01T06:59:36.466Z</time>
      </trkpt>
      <trkpt lat="47.42336" lon="0.87736">
        <ele>156</ele>
        <time>2013-09-01T06:59:37.471Z</time>
      </trkpt>
      <trkpt lat="47.42339" lon="0.87747">
        <ele>156</ele>
        <time>2013-09-01T06:59:39.422Z</time>
      </trkpt>
      <trkpt lat="47.4234" lon="0.87753">
        <ele>156</ele>
        <time>2013-09-01T06:59:40.479Z</time>
      </trkpt>
      <trkpt lat="47.42341" lon="0.87764">
        <ele>156</ele>
        <time>2013-09-01T06:59:42.456Z</time>
      </trkpt>
      <trkpt lat="47.42342" lon="0.8777">
        <ele>156</ele>
        <time>2013-09-01T06:59:43.466Z</time>
      </trkpt>
      <trkpt lat="47.42343" lon="0.87777">
        <ele>156</ele>
        <time>2013-09-01T06:59:44.460Z</time>
      </trkpt>
      <trkpt lat="47.42344" lon="0.87783">
        <ele>156</ele>
        <time>2013-09-01T06:59:45.466Z</time>
      </trkpt>
      <trkpt lat="47.42346" lon="0.87794">
        <ele>155</ele>
        <time>2013-09-01T06:59:47.420Z</time>
      </trkpt>
      <trkpt lat="47.42347" lon="0.878">
        <ele>156</ele>
        <time>2013-09-01T06:59:48.438Z</time>
      </trkpt>
      <trkpt lat="47.42348" lon="0.87813">
        <ele>156</ele>
        <time>2013-09-01T06:59:50.411Z</time>
      </trkpt>
      <trkpt lat="47.42349" lon="0.8782">
        <ele>156</ele>
        <time>2013-09-01T06:59:51.413Z</time>
      </trkpt>
      <trkpt lat="47.4235" lon="0.87833">
        <ele>155</ele>
        <time>2013-09-01T06:59:53.420Z</time>
      </trkpt>
      <trkpt lat="47.42351" lon="0.87837">
        <ele>155</ele>
        <time>2013-09-01T06:59:54.431Z</time>
      </trkpt>
      <trkpt lat="47.42353" lon="0.8785">
        <ele>155</ele>
        <time>2013-09-01T06:59:56.466Z</time>
      </trkpt>
      <trkpt lat="47.42355" lon="0.87856">
        <ele>154</ele>
        <time>2013-09-01T06:59:57.466Z</time>
      </trkpt>
      <trkpt lat="47.42355" lon="0.87863">
        <ele>154</ele>
        <time>2013-09-01T06:59:58.473Z</time>
      </trkpt>
      <trkpt lat="47.42355" lon="0.87871">
        <ele>154</ele>
        <time>2013-09-01T06:59:59.412Z</time>
      </trkpt>
      <trkpt lat="47.42355" lon="0.87878">
        <ele>154</ele>
        <time>2013-09-01T07:00:00.418Z</time>
      </trkpt>
      <trkpt lat="47.42356" lon="0.87884">
        <ele>154</ele>
        <time>2013-09-01T07:00:01.411Z</time>
      </trkpt>
      <trkpt lat="47.42356" lon="0.87897">
        <ele>154</ele>
        <time>2013-09-01T07:00:03.444Z</time>
      </trkpt>
      <trkpt lat="47.42356" lon="0.87904">
        <ele>154</ele>
        <time>2013-09-01T07:00:04.504Z</time>
      </trkpt>
      <trkpt lat="47.42355" lon="0.87916">
        <ele>154</ele>
        <time>2013-09-01T07:00:06.453Z</time>
      </trkpt>
      <trkpt lat="47.42355" lon="0.87923">
        <ele>154</ele>
        <time>2013-09-01T07:00:07.466Z</time>
      </trkpt>
      <trkpt lat="47.42355" lon="0.87929">
        <ele>154</ele>
        <time>2013-09-01T07:00:08.414Z</time>
      </trkpt>
      <trkpt lat="47.42355" lon="0.87938">
        <ele>154</ele>
        <time>2013-09-01T07:00:09.425Z</time>
      </trkpt>
      <trkpt lat="47.42353" lon="0.87951">
        <ele>153</ele>
        <time>2013-09-01T07:00:11.477Z</time>
      </trkpt>
      <trkpt lat="47.42353" lon="0.87957">
        <ele>153</ele>
        <time>2013-09-01T07:00:12.465Z</time>
      </trkpt>
      <trkpt lat="47.42351" lon="0.87968">
        <ele>153</ele>
        <time>2013-09-01T07:00:14.426Z</time>
      </trkpt>
      <trkpt lat="47.4235" lon="0.87974">
        <ele>152</ele>
        <time>2013-09-01T07:00:15.444Z</time>
      </trkpt>
      <trkpt lat="47.42349" lon="0.87987">
        <ele>153</ele>
        <time>2013-09-01T07:00:17.437Z</time>
      </trkpt>
      <trkpt lat="47.4235" lon="0.87992">
        <ele>153</ele>
        <time>2013-09-01T07:00:18.538Z</time>
      </trkpt>
      <trkpt lat="47.42357" lon="0.87998">
        <ele>153</ele>
        <time>2013-09-01T07:00:20.440Z</time>
      </trkpt>
      <trkpt lat="47.42361" lon="0.87996">
        <ele>153</ele>
        <time>2013-09-01T07:00:21.482Z</time>
      </trkpt>
      <trkpt lat="47.4237" lon="0.87993">
        <ele>153</ele>
        <time>2013-09-01T07:00:23.430Z</time>
      </trkpt>
      <trkpt lat="47.42373" lon="0.87992">
        <ele>154</ele>
        <time>2013-09-01T07:00:24.426Z</time>
      </trkpt>
      <trkpt lat="47.42381" lon="0.87991">
        <ele>154</ele>
        <time>2013-09-01T07:00:26.477Z</time>
      </trkpt>
      <trkpt lat="47.42385" lon="0.8799">
        <ele>154</ele>
        <time>2013-09-01T07:00:27.591Z</time>
      </trkpt>
      <trkpt lat="47.42392" lon="0.87987">
        <ele>154</ele>
        <time>2013-09-01T07:00:29.426Z</time>
      </trkpt>
      <trkpt lat="47.42397" lon="0.87987">
        <ele>155</ele>
        <time>2013-09-01T07:00:30.462Z</time>
      </trkpt>
      <trkpt lat="47.42404" lon="0.87985">
        <ele>154</ele>
        <time>2013-09-01T07:00:32.621Z</time>
      </trkpt>
      <trkpt lat="47.42408" lon="0.87985">
        <ele>154</ele>
        <time>2013-09-01T07:00:33.450Z</time>
      </trkpt>
      <trkpt lat="47.42416" lon="0.87981">
        <ele>155</ele>
        <time>2013-09-01T07:00:35.459Z</time>
      </trkpt>
      <trkpt lat="47.4242" lon="0.87979">
        <ele>155</ele>
        <time>2013-09-01T07:00:36.484Z</time>
      </trkpt>
      <trkpt lat="47.42429" lon="0.87977">
        <ele>155</ele>
        <time>2013-09-01T07:00:38.473Z</time>
      </trkpt>
      <trkpt lat="47.42433" lon="0.87974">
        <ele>155</ele>
        <time>2013-09-01T07:00:39.476Z</time>
      </trkpt>
      <trkpt lat="47.4244" lon="0.8797">
        <ele>155</ele>
        <time>2013-09-01T07:00:41.471Z</time>
      </trkpt>
      <trkpt lat="47.42445" lon="0.87968">
        <ele>155</ele>
        <time>2013-09-01T07:00:42.471Z</time>
      </trkpt>
      <trkpt lat="47.42452" lon="0.87964">
        <ele>155</ele>
        <time>2013-09-01T07:00:44.484Z</time>
      </trkpt>
      <trkpt lat="47.42456" lon="0.87961">
        <ele>155</ele>
        <time>2013-09-01T07:00:45.472Z</time>
      </trkpt>
      <trkpt lat="47.42464" lon="0.87959">
        <ele>156</ele>
        <time>2013-09-01T07:00:47.471Z</time>
      </trkpt>
      <trkpt lat="47.42468" lon="0.87959">
        <ele>156</ele>
        <time>2013-09-01T07:00:48.471Z</time>
      </trkpt>
      <trkpt lat="47.42475" lon="0.87967">
        <ele>156</ele>
        <time>2013-09-01T07:00:50.471Z</time>
      </trkpt>
      <trkpt lat="47.42476" lon="0.87974">
        <ele>157</ele>
        <time>2013-09-01T07:00:51.481Z</time>
      </trkpt>
      <trkpt lat="47.42477" lon="0.87981">
        <ele>157</ele>
        <time>2013-09-01T07:00:52.496Z</time>
      </trkpt>
      <trkpt lat="47.42478" lon="0.87987">
        <ele>157</ele>
        <time>2013-09-01T07:00:53.479Z</time>
      </trkpt>
      <trkpt lat="47.4248" lon="0.87998">
        <ele>157</ele>
        <time>2013-09-01T07:00:55.486Z</time>
      </trkpt>
      <trkpt lat="47.42481" lon="0.88004">
        <ele>157</ele>
        <time>2013-09-01T07:00:56.489Z</time>
      </trkpt>
      <trkpt lat="47.42482" lon="0.88011">
        <ele>156</ele>
        <time>2013-09-01T07:00:57.531Z</time>
      </trkpt>
      <trkpt lat="47.42484" lon="0.88017">
        <ele>156</ele>
        <time>2013-09-01T07:00:58.532Z</time>
      </trkpt>
      <trkpt lat="47.42487" lon="0.88028">
        <ele>156</ele>
        <time>2013-09-01T07:01:00.500Z</time>
      </trkpt>
      <trkpt lat="47.42488" lon="0.88034">
        <ele>155</ele>
        <time>2013-09-01T07:01:01.544Z</time>
      </trkpt>
      <trkpt lat="47.42489" lon="0.88041">
        <ele>155</ele>
        <time>2013-09-01T07:01:02.531Z</time>
      </trkpt>
      <trkpt lat="47.4249" lon="0.88047">
        <ele>154</ele>
        <time>2013-09-01T07:01:03.537Z</time>
      </trkpt>
      <trkpt lat="47.42492" lon="0.88058">
        <ele>153</ele>
        <time>2013-09-01T07:01:05.531Z</time>
      </trkpt>
      <trkpt lat="47.42493" lon="0.88064">
        <ele>153</ele>
        <time>2013-09-01T07:01:06.514Z</time>
      </trkpt>
      <trkpt lat="47.42493" lon="0.88075">
        <ele>152</ele>
        <time>2013-09-01T07:01:09.572Z</time>
      </trkpt>
      <trkpt lat="47.4249" lon="0.88077">
        <ele>152</ele>
        <time>2013-09-01T07:01:10.505Z</time>
      </trkpt>
      <trkpt lat="47.42486" lon="0.8808">
        <ele>151</ele>
        <time>2013-09-01T07:01:11.505Z</time>
      </trkpt>
      <trkpt lat="47.42481" lon="0.88084">
        <ele>151</ele>
        <time>2013-09-01T07:01:12.543Z</time>
      </trkpt>
      <trkpt lat="47.42477" lon="0.88086">
        <ele>151</ele>
        <time>2013-09-01T07:01:13.539Z</time>
      </trkpt>
      <trkpt lat="47.42473" lon="0.8809">
        <ele>151</ele>
        <time>2013-09-01T07:01:14.531Z</time>
      </trkpt>
      <trkpt lat="47.42468" lon="0.88094">
        <ele>150</ele>
        <time>2013-09-01T07:01:15.536Z</time>
      </trkpt>
      <trkpt lat="47.42464" lon="0.88099">
        <ele>150</ele>
        <time>2013-09-01T07:01:16.537Z</time>
      </trkpt>
      <trkpt lat="47.4246" lon="0.88103">
        <ele>149</ele>
        <time>2013-09-01T07:01:17.536Z</time>
      </trkpt>
      <trkpt lat="47.42456" lon="0.88105">
        <ele>149</ele>
        <time>2013-09-01T07:01:18.521Z</time>
      </trkpt>
      <trkpt lat="47.42451" lon="0.88109">
        <ele>149</ele>
        <time>2013-09-01T07:01:19.504Z</time>
      </trkpt>
      <trkpt lat="47.42447" lon="0.88114">
        <ele>148</ele>
        <time>2013-09-01T07:01:20.536Z</time>
      </trkpt>
      <trkpt lat="47.42443" lon="0.88118">
        <ele>148</ele>
        <time>2013-09-01T07:01:21.486Z</time>
      </trkpt>
      <trkpt lat="47.42438" lon="0.88122">
        <ele>148</ele>
        <time>2013-09-01T07:01:22.519Z</time>
      </trkpt>
      <trkpt lat="47.42434" lon="0.88127">
        <ele>148</ele>
        <time>2013-09-01T07:01:23.491Z</time>
      </trkpt>
      <trkpt lat="47.4243" lon="0.88131">
        <ele>148</ele>
        <time>2013-09-01T07:01:24.536Z</time>
      </trkpt>
      <trkpt lat="47.42424" lon="0.8814">
        <ele>148</ele>
        <time>2013-09-01T07:01:26.481Z</time>
      </trkpt>
      <trkpt lat="47.42422" lon="0.88146">
        <ele>148</ele>
        <time>2013-09-01T07:01:27.499Z</time>
      </trkpt>
      <trkpt lat="47.42419" lon="0.88152">
        <ele>149</ele>
        <time>2013-09-01T07:01:29.488Z</time>
      </trkpt>
      <trkpt lat="47.42416" lon="0.88157">
        <ele>149</ele>
        <time>2013-09-01T07:01:30.481Z</time>
      </trkpt>
      <trkpt lat="47.4241" lon="0.88163">
        <ele>148</ele>
        <time>2013-09-01T07:01:32.480Z</time>
      </trkpt>
      <trkpt lat="47.42405" lon="0.88167">
        <ele>148</ele>
        <time>2013-09-01T07:01:33.484Z</time>
      </trkpt>
      <trkpt lat="47.424" lon="0.8817">
        <ele>147</ele>
        <time>2013-09-01T07:01:34.536Z</time>
      </trkpt>
      <trkpt lat="47.42394" lon="0.88174">
        <ele>147</ele>
        <time>2013-09-01T07:01:35.544Z</time>
      </trkpt>
      <trkpt lat="47.42389" lon="0.88178">
        <ele>146</ele>
        <time>2013-09-01T07:01:36.536Z</time>
      </trkpt>
      <trkpt lat="47.42384" lon="0.88182">
        <ele>146</ele>
        <time>2013-09-01T07:01:37.536Z</time>
      </trkpt>
      <trkpt lat="47.42376" lon="0.88189">
        <ele>145</ele>
        <time>2013-09-01T07:01:39.483Z</time>
      </trkpt>
      <trkpt lat="47.42373" lon="0.88191">
        <ele>144</ele>
        <time>2013-09-01T07:01:40.484Z</time>
      </trkpt>
      <trkpt lat="47.42372" lon="0.88204">
        <ele>144</ele>
        <time>2013-09-01T07:01:42.487Z</time>
      </trkpt>
      <trkpt lat="47.42372" lon="0.88212">
        <ele>144</ele>
        <time>2013-09-01T07:01:43.486Z</time>
      </trkpt>
      <trkpt lat="47.42373" lon="0.88221">
        <ele>143</ele>
        <time>2013-09-01T07:01:44.481Z</time>
      </trkpt>
      <trkpt lat="47.42373" lon="0.8823">
        <ele>143</ele>
        <time>2013-09-01T07:01:45.482Z</time>
      </trkpt>
      <trkpt lat="47.42374" lon="0.8824">
        <ele>142</ele>
        <time>2013-09-01T07:01:46.482Z</time>
      </trkpt>
      <trkpt lat="47.42374" lon="0.88249">
        <ele>141</ele>
        <time>2013-09-01T07:01:47.481Z</time>
      </trkpt>
      <trkpt lat="47.42374" lon="0.8826">
        <ele>142</ele>
        <time>2013-09-01T07:01:48.486Z</time>
      </trkpt>
      <trkpt lat="47.42374" lon="0.88268">
        <ele>142</ele>
        <time>2013-09-01T07:01:49.491Z</time>
      </trkpt>
      <trkpt lat="47.42374" lon="0.88277">
        <ele>143</ele>
        <time>2013-09-01T07:01:50.541Z</time>
      </trkpt>
      <trkpt lat="47.42375" lon="0.88285">
        <ele>143</ele>
        <time>2013-09-01T07:01:51.541Z</time>
      </trkpt>
      <trkpt lat="47.42378" lon="0.88294">
        <ele>144</ele>
        <time>2013-09-01T07:01:53.524Z</time>
      </trkpt>
      <trkpt lat="47.4238" lon="0.88296">
        <ele>145</ele>
        <time>2013-09-01T07:01:54.509Z</time>
      </trkpt>
      <trkpt lat="47.42384" lon="0.88307">
        <ele>146</ele>
        <time>2013-09-01T07:01:58.520Z</time>
      </trkpt>
      <trkpt lat="47.42385" lon="0.88311">
        <ele>146</ele>
        <time>2013-09-01T07:01:59.482Z</time>
      </trkpt>
      <trkpt lat="47.42392" lon="0.88316">
        <ele>148</ele>
        <time>2013-09-01T07:02:03.511Z</time>
      </trkpt>
      <trkpt lat="47.42394" lon="0.88317">
        <ele>148</ele>
        <time>2013-09-01T07:02:04.506Z</time>
      </trkpt>
      <trkpt lat="47.42403" lon="0.88318">
        <ele>149</ele>
        <time>2013-09-01T07:02:07.531Z</time>
      </trkpt>
      <trkpt lat="47.42405" lon="0.88318">
        <ele>149</ele>
        <time>2013-09-01T07:02:08.674Z</time>
      </trkpt>
      <trkpt lat="47.42414" lon="0.88318">
        <ele>150</ele>
        <time>2013-09-01T07:02:11.484Z</time>
      </trkpt>
      <trkpt lat="47.42417" lon="0.8832">
        <ele>150</ele>
        <time>2013-09-01T07:02:12.490Z</time>
      </trkpt>
      <trkpt lat="47.42425" lon="0.8832">
        <ele>151</ele>
        <time>2013-09-01T07:02:14.536Z</time>
      </trkpt>
      <trkpt lat="47.42428" lon="0.8832">
        <ele>150</ele>
        <time>2013-09-01T07:02:15.536Z</time>
      </trkpt>
      <trkpt lat="47.42434" lon="0.8832">
        <ele>150</ele>
        <time>2013-09-01T07:02:17.542Z</time>
      </trkpt>
      <trkpt lat="47.42437" lon="0.8832">
        <ele>150</ele>
        <time>2013-09-01T07:02:18.541Z</time>
      </trkpt>
      <trkpt lat="47.42446" lon="0.88322">
        <ele>151</ele>
        <time>2013-09-01T07:02:21.539Z</time>
      </trkpt>
      <trkpt lat="47.42449" lon="0.88322">
        <ele>152</ele>
        <time>2013-09-01T07:02:22.534Z</time>
      </trkpt>
      <trkpt lat="47.42456" lon="0.8832">
        <ele>152</ele>
        <time>2013-09-01T07:02:24.541Z</time>
      </trkpt>
      <trkpt lat="47.42459" lon="0.8832">
        <ele>153</ele>
        <time>2013-09-01T07:02:25.484Z</time>
      </trkpt>
      <trkpt lat="47.42465" lon="0.8832">
        <ele>154</ele>
        <time>2013-09-01T07:02:27.556Z</time>
      </trkpt>
      <trkpt lat="47.42468" lon="0.8832">
        <ele>155</ele>
        <time>2013-09-01T07:02:28.557Z</time>
      </trkpt>
      <trkpt lat="47.42476" lon="0.8832">
        <ele>156</ele>
        <time>2013-09-01T07:02:30.485Z</time>
      </trkpt>
      <trkpt lat="47.42479" lon="0.8832">
        <ele>155</ele>
        <time>2013-09-01T07:02:31.517Z</time>
      </trkpt>
      <trkpt lat="47.42485" lon="0.88317">
        <ele>155</ele>
        <time>2013-09-01T07:02:33.541Z</time>
      </trkpt>
      <trkpt lat="47.4249" lon="0.88318">
        <ele>155</ele>
        <time>2013-09-01T07:02:34.541Z</time>
      </trkpt>
      <trkpt lat="47.42496" lon="0.88318">
        <ele>155</ele>
        <time>2013-09-01T07:02:36.496Z</time>
      </trkpt>
      <trkpt lat="47.425" lon="0.88318">
        <ele>156</ele>
        <time>2013-09-01T07:02:37.546Z</time>
      </trkpt>
      <trkpt lat="47.42506" lon="0.88318">
        <ele>156</ele>
        <time>2013-09-01T07:02:39.545Z</time>
      </trkpt>
      <trkpt lat="47.42509" lon="0.88318">
        <ele>157</ele>
        <time>2013-09-01T07:02:40.541Z</time>
      </trkpt>
      <trkpt lat="47.42516" lon="0.88316">
        <ele>158</ele>
        <time>2013-09-01T07:02:42.540Z</time>
      </trkpt>
      <trkpt lat="47.42519" lon="0.88313">
        <ele>158</ele>
        <time>2013-09-01T07:02:43.546Z</time>
      </trkpt>
      <trkpt lat="47.42526" lon="0.88307">
        <ele>161</ele>
        <time>2013-09-01T07:02:46.536Z</time>
      </trkpt>
      <trkpt lat="47.42529" lon="0.88303">
        <ele>162</ele>
        <time>2013-09-01T07:02:47.549Z</time>
      </trkpt>
      <trkpt lat="47.42532" lon="0.88296">
        <ele>161</ele>
        <time>2013-09-01T07:02:49.549Z</time>
      </trkpt>
      <trkpt lat="47.42535" lon="0.8829">
        <ele>161</ele>
        <time>2013-09-01T07:02:50.497Z</time>
      </trkpt>
      <trkpt lat="47.42537" lon="0.88281">
        <ele>161</ele>
        <time>2013-09-01T07:02:52.536Z</time>
      </trkpt>
      <trkpt lat="47.42538" lon="0.88275">
        <ele>161</ele>
        <time>2013-09-01T07:02:53.549Z</time>
      </trkpt>
      <trkpt lat="47.4254" lon="0.88264">
        <ele>161</ele>
        <time>2013-09-01T07:02:55.584Z</time>
      </trkpt>
      <trkpt lat="47.42543" lon="0.8826">
        <ele>160</ele>
        <time>2013-09-01T07:02:56.491Z</time>
      </trkpt>
      <trkpt lat="47.42548" lon="0.88257">
        <ele>158</ele>
        <time>2013-09-01T07:02:57.481Z</time>
      </trkpt>
      <trkpt lat="47.42552" lon="0.88255">
        <ele>158</ele>
        <time>2013-09-01T07:02:58.503Z</time>
      </trkpt>
      <trkpt lat="47.4256" lon="0.88251">
        <ele>158</ele>
        <time>2013-09-01T07:03:00.648Z</time>
      </trkpt>
      <trkpt lat="47.42564" lon="0.88251">
        <ele>158</ele>
        <time>2013-09-01T07:03:01.524Z</time>
      </trkpt>
      <trkpt lat="47.42571" lon="0.88251">
        <ele>159</ele>
        <time>2013-09-01T07:03:03.541Z</time>
      </trkpt>
      <trkpt lat="47.42576" lon="0.88251">
        <ele>158</ele>
        <time>2013-09-01T07:03:04.541Z</time>
      </trkpt>
      <trkpt lat="47.4258" lon="0.88251">
        <ele>159</ele>
        <time>2013-09-01T07:03:05.518Z</time>
      </trkpt>
      <trkpt lat="47.42585" lon="0.88251">
        <ele>158</ele>
        <time>2013-09-01T07:03:06.490Z</time>
      </trkpt>
      <trkpt lat="47.42592" lon="0.88249">
        <ele>158</ele>
        <time>2013-09-01T07:03:08.486Z</time>
      </trkpt>
      <trkpt lat="47.42596" lon="0.88249">
        <ele>158</ele>
        <time>2013-09-01T07:03:09.541Z</time>
      </trkpt>
      <trkpt lat="47.42604" lon="0.88245">
        <ele>159</ele>
        <time>2013-09-01T07:03:11.593Z</time>
      </trkpt>
      <trkpt lat="47.42608" lon="0.88244">
        <ele>160</ele>
        <time>2013-09-01T07:03:12.536Z</time>
      </trkpt>
      <trkpt lat="47.42615" lon="0.88245">
        <ele>160</ele>
        <time>2013-09-01T07:03:14.545Z</time>
      </trkpt>
      <trkpt lat="47.4262" lon="0.88245">
        <ele>159</ele>
        <time>2013-09-01T07:03:15.541Z</time>
      </trkpt>
      <trkpt lat="47.42627" lon="0.88247">
        <ele>159</ele>
        <time>2013-09-01T07:03:17.547Z</time>
      </trkpt>
      <trkpt lat="47.42631" lon="0.88249">
        <ele>159</ele>
        <time>2013-09-01T07:03:18.529Z</time>
      </trkpt>
      <trkpt lat="47.4264" lon="0.88251">
        <ele>160</ele>
        <time>2013-09-01T07:03:20.522Z</time>
      </trkpt>
      <trkpt lat="47.42644" lon="0.88251">
        <ele>160</ele>
        <time>2013-09-01T07:03:21.554Z</time>
      </trkpt>
      <trkpt lat="47.42653" lon="0.88255">
        <ele>159</ele>
        <time>2013-09-01T07:03:23.522Z</time>
      </trkpt>
      <trkpt lat="47.42656" lon="0.88256">
        <ele>160</ele>
        <time>2013-09-01T07:03:24.497Z</time>
      </trkpt>
      <trkpt lat="47.42665" lon="0.88258">
        <ele>162</ele>
        <time>2013-09-01T07:03:26.546Z</time>
      </trkpt>
      <trkpt lat="47.42669" lon="0.88259">
        <ele>161</ele>
        <time>2013-09-01T07:03:27.487Z</time>
      </trkpt>
      <trkpt lat="47.42677" lon="0.88264">
        <ele>159</ele>
        <time>2013-09-01T07:03:29.551Z</time>
      </trkpt>
      <trkpt lat="47.42681" lon="0.88266">
        <ele>160</ele>
        <time>2013-09-01T07:03:30.547Z</time>
      </trkpt>
      <trkpt lat="47.42686" lon="0.88267">
        <ele>160</ele>
        <time>2013-09-01T07:03:31.493Z</time>
      </trkpt>
      <trkpt lat="47.4269" lon="0.88268">
        <ele>160</ele>
        <time>2013-09-01T07:03:32.491Z</time>
      </trkpt>
      <trkpt lat="47.42699" lon="0.88268">
        <ele>161</ele>
        <time>2013-09-01T07:03:34.502Z</time>
      </trkpt>
      <trkpt lat="47.42704" lon="0.8827">
        <ele>161</ele>
        <time>2013-09-01T07:03:35.554Z</time>
      </trkpt>
      <trkpt lat="47.42713" lon="0.88271">
        <ele>162</ele>
        <time>2013-09-01T07:03:37.541Z</time>
      </trkpt>
      <trkpt lat="47.42717" lon="0.88272">
        <ele>162</ele>
        <time>2013-09-01T07:03:38.640Z</time>
      </trkpt>
      <trkpt lat="47.42722" lon="0.88274">
        <ele>162</ele>
        <time>2013-09-01T07:03:39.551Z</time>
      </trkpt>
      <trkpt lat="47.42727" lon="0.88275">
        <ele>163</ele>
        <time>2013-09-01T07:03:40.551Z</time>
      </trkpt>
      <trkpt lat="47.42731" lon="0.88277">
        <ele>162</ele>
        <time>2013-09-01T07:03:41.554Z</time>
      </trkpt>
      <trkpt lat="47.42736" lon="0.88277">
        <ele>162</ele>
        <time>2013-09-01T07:03:42.513Z</time>
      </trkpt>
      <trkpt lat="47.42741" lon="0.88279">
        <ele>162</ele>
        <time>2013-09-01T07:03:43.545Z</time>
      </trkpt>
      <trkpt lat="47.42745" lon="0.88281">
        <ele>163</ele>
        <time>2013-09-01T07:03:44.496Z</time>
      </trkpt>
      <trkpt lat="47.4275" lon="0.88281">
        <ele>163</ele>
        <time>2013-09-01T07:03:45.516Z</time>
      </trkpt>
      <trkpt lat="47.42755" lon="0.88283">
        <ele>163</ele>
        <time>2013-09-01T07:03:46.541Z</time>
      </trkpt>
      <trkpt lat="47.42759" lon="0.88285">
        <ele>163</ele>
        <time>2013-09-01T07:03:47.546Z</time>
      </trkpt>
      <trkpt lat="47.42764" lon="0.88286">
        <ele>163</ele>
        <time>2013-09-01T07:03:48.541Z</time>
      </trkpt>
      <trkpt lat="47.4277" lon="0.88287">
        <ele>163</ele>
        <time>2013-09-01T07:03:49.491Z</time>
      </trkpt>
      <trkpt lat="47.42774" lon="0.8829">
        <ele>162</ele>
        <time>2013-09-01T07:03:50.547Z</time>
      </trkpt>
      <trkpt lat="47.42779" lon="0.8829">
        <ele>163</ele>
        <time>2013-09-01T07:03:51.541Z</time>
      </trkpt>
      <trkpt lat="47.42784" lon="0.8829">
        <ele>164</ele>
        <time>2013-09-01T07:03:52.549Z</time>
      </trkpt>
      <trkpt lat="47.42789" lon="0.8829">
        <ele>164</ele>
        <time>2013-09-01T07:03:53.541Z</time>
      </trkpt>
      <trkpt lat="47.42794" lon="0.88291">
        <ele>164</ele>
        <time>2013-09-01T07:03:54.495Z</time>
      </trkpt>
      <trkpt lat="47.42799" lon="0.88292">
        <ele>164</ele>
        <time>2013-09-01T07:03:55.492Z</time>
      </trkpt>
      <trkpt lat="47.42803" lon="0.88294">
        <ele>164</ele>
        <time>2013-09-01T07:03:56.491Z</time>
      </trkpt>
      <trkpt lat="47.42809" lon="0.88296">
        <ele>162</ele>
        <time>2013-09-01T07:03:57.513Z</time>
      </trkpt>
      <trkpt lat="47.42814" lon="0.88298">
        <ele>162</ele>
        <time>2013-09-01T07:03:58.539Z</time>
      </trkpt>
      <trkpt lat="47.42818" lon="0.883">
        <ele>163</ele>
        <time>2013-09-01T07:03:59.497Z</time>
      </trkpt>
      <trkpt lat="47.42823" lon="0.88301">
        <ele>162</ele>
        <time>2013-09-01T07:04:00.495Z</time>
      </trkpt>
      <trkpt lat="47.42829" lon="0.88302">
        <ele>162</ele>
        <time>2013-09-01T07:04:01.492Z</time>
      </trkpt>
      <trkpt lat="47.42834" lon="0.88305">
        <ele>161</ele>
        <time>2013-09-01T07:04:02.505Z</time>
      </trkpt>
      <trkpt lat="47.42839" lon="0.88305">
        <ele>160</ele>
        <time>2013-09-01T07:04:03.552Z</time>
      </trkpt>
      <trkpt lat="47.42844" lon="0.88307">
        <ele>160</ele>
        <time>2013-09-01T07:04:04.541Z</time>
      </trkpt>
      <trkpt lat="47.42848" lon="0.88309">
        <ele>159</ele>
        <time>2013-09-01T07:04:05.564Z</time>
      </trkpt>
      <trkpt lat="47.42852" lon="0.88311">
        <ele>159</ele>
        <time>2013-09-01T07:04:06.488Z</time>
      </trkpt>
      <trkpt lat="47.42858" lon="0.88313">
        <ele>158</ele>
        <time>2013-09-01T07:04:07.546Z</time>
      </trkpt>
      <trkpt lat="47.42863" lon="0.88315">
        <ele>158</ele>
        <time>2013-09-01T07:04:08.545Z</time>
      </trkpt>
      <trkpt lat="47.42868" lon="0.88314">
        <ele>159</ele>
        <time>2013-09-01T07:04:09.543Z</time>
      </trkpt>
      <trkpt lat="47.42873" lon="0.88315">
        <ele>159</ele>
        <time>2013-09-01T07:04:10.539Z</time>
      </trkpt>
      <trkpt lat="47.42878" lon="0.88316">
        <ele>160</ele>
        <time>2013-09-01T07:04:11.550Z</time>
      </trkpt>
      <trkpt lat="47.42883" lon="0.88316">
        <ele>160</ele>
        <time>2013-09-01T07:04:12.544Z</time>
      </trkpt>
      <trkpt lat="47.42891" lon="0.88318">
        <ele>159</ele>
        <time>2013-09-01T07:04:14.546Z</time>
      </trkpt>
      <trkpt lat="47.42895" lon="0.8832">
        <ele>159</ele>
        <time>2013-09-01T07:04:15.551Z</time>
      </trkpt>
      <trkpt lat="47.42903" lon="0.88324">
        <ele>158</ele>
        <time>2013-09-01T07:04:17.536Z</time>
      </trkpt>
      <trkpt lat="47.42906" lon="0.88328">
        <ele>156</ele>
        <time>2013-09-01T07:04:18.493Z</time>
      </trkpt>
      <trkpt lat="47.42909" lon="0.88334">
        <ele>155</ele>
        <time>2013-09-01T07:04:19.538Z</time>
      </trkpt>
      <trkpt lat="47.42912" lon="0.88341">
        <ele>153</ele>
        <time>2013-09-01T07:04:20.541Z</time>
      </trkpt>
      <trkpt lat="47.42913" lon="0.88349">
        <ele>153</ele>
        <time>2013-09-01T07:04:21.545Z</time>
      </trkpt>
      <trkpt lat="47.42914" lon="0.88356">
        <ele>153</ele>
        <time>2013-09-01T07:04:22.546Z</time>
      </trkpt>
      <trkpt lat="47.42916" lon="0.88365">
        <ele>153</ele>
        <time>2013-09-01T07:04:23.553Z</time>
      </trkpt>
      <trkpt lat="47.42918" lon="0.88373">
        <ele>153</ele>
        <time>2013-09-01T07:04:24.491Z</time>
      </trkpt>
      <trkpt lat="47.42919" lon="0.8838">
        <ele>153</ele>
        <time>2013-09-01T07:04:25.526Z</time>
      </trkpt>
      <trkpt lat="47.42921" lon="0.88386">
        <ele>152</ele>
        <time>2013-09-01T07:04:26.547Z</time>
      </trkpt>
      <trkpt lat="47.42923" lon="0.88393">
        <ele>153</ele>
        <time>2013-09-01T07:04:27.554Z</time>
      </trkpt>
      <trkpt lat="47.42926" lon="0.88399">
        <ele>153</ele>
        <time>2013-09-01T07:04:28.510Z</time>
      </trkpt>
      <trkpt lat="47.42929" lon="0.88406">
        <ele>153</ele>
        <time>2013-09-01T07:04:29.541Z</time>
      </trkpt>
      <trkpt lat="47.42931" lon="0.88412">
        <ele>153</ele>
        <time>2013-09-01T07:04:30.542Z</time>
      </trkpt>
      <trkpt lat="47.42934" lon="0.88418">
        <ele>152</ele>
        <time>2013-09-01T07:04:31.541Z</time>
      </trkpt>
      <trkpt lat="47.42936" lon="0.88423">
        <ele>153</ele>
        <time>2013-09-01T07:04:32.570Z</time>
      </trkpt>
      <trkpt lat="47.42942" lon="0.88433">
        <ele>154</ele>
        <time>2013-09-01T07:04:34.498Z</time>
      </trkpt>
      <trkpt lat="47.42944" lon="0.8844">
        <ele>154</ele>
        <time>2013-09-01T07:04:35.492Z</time>
      </trkpt>
      <trkpt lat="47.42948" lon="0.88451">
        <ele>154</ele>
        <time>2013-09-01T07:04:37.549Z</time>
      </trkpt>
      <trkpt lat="47.42951" lon="0.88457">
        <ele>154</ele>
        <time>2013-09-01T07:04:38.596Z</time>
      </trkpt>
      <trkpt lat="47.42954" lon="0.88463">
        <ele>154</ele>
        <time>2013-09-01T07:04:39.498Z</time>
      </trkpt>
      <trkpt lat="47.42957" lon="0.88468">
        <ele>153</ele>
        <time>2013-09-01T07:04:40.493Z</time>
      </trkpt>
      <trkpt lat="47.42959" lon="0.88474">
        <ele>153</ele>
        <time>2013-09-01T07:04:41.494Z</time>
      </trkpt>
      <trkpt lat="47.42961" lon="0.88481">
        <ele>152</ele>
        <time>2013-09-01T07:04:42.490Z</time>
      </trkpt>
      <trkpt lat="47.42964" lon="0.88485">
        <ele>152</ele>
        <time>2013-09-01T07:04:43.495Z</time>
      </trkpt>
      <trkpt lat="47.42967" lon="0.88491">
        <ele>152</ele>
        <time>2013-09-01T07:04:44.546Z</time>
      </trkpt>
      <trkpt lat="47.42971" lon="0.88496">
        <ele>152</ele>
        <time>2013-09-01T07:04:45.541Z</time>
      </trkpt>
      <trkpt lat="47.42975" lon="0.88502">
        <ele>152</ele>
        <time>2013-09-01T07:04:46.550Z</time>
      </trkpt>
      <trkpt lat="47.42978" lon="0.88507">
        <ele>152</ele>
        <time>2013-09-01T07:04:47.546Z</time>
      </trkpt>
      <trkpt lat="47.42982" lon="0.88511">
        <ele>153</ele>
        <time>2013-09-01T07:04:48.541Z</time>
      </trkpt>
      <trkpt lat="47.42987" lon="0.88513">
        <ele>153</ele>
        <time>2013-09-01T07:04:49.497Z</time>
      </trkpt>
      <trkpt lat="47.42991" lon="0.88517">
        <ele>153</ele>
        <time>2013-09-01T07:04:50.502Z</time>
      </trkpt>
      <trkpt lat="47.42999" lon="0.88522">
        <ele>155</ele>
        <time>2013-09-01T07:04:52.510Z</time>
      </trkpt>
      <trkpt lat="47.43005" lon="0.88525">
        <ele>154</ele>
        <time>2013-09-01T07:04:53.549Z</time>
      </trkpt>
      <trkpt lat="47.4301" lon="0.8853">
        <ele>154</ele>
        <time>2013-09-01T07:04:54.497Z</time>
      </trkpt>
      <trkpt lat="47.43015" lon="0.88532">
        <ele>154</ele>
        <time>2013-09-01T07:04:55.537Z</time>
      </trkpt>
      <trkpt lat="47.43019" lon="0.88534">
        <ele>155</ele>
        <time>2013-09-01T07:04:56.545Z</time>
      </trkpt>
      <trkpt lat="47.43024" lon="0.88538">
        <ele>155</ele>
        <time>2013-09-01T07:04:57.547Z</time>
      </trkpt>
      <trkpt lat="47.43028" lon="0.88541">
        <ele>155</ele>
        <time>2013-09-01T07:04:58.551Z</time>
      </trkpt>
      <trkpt lat="47.43033" lon="0.88543">
        <ele>155</ele>
        <time>2013-09-01T07:04:59.500Z</time>
      </trkpt>
      <trkpt lat="47.43038" lon="0.88545">
        <ele>155</ele>
        <time>2013-09-01T07:05:00.503Z</time>
      </trkpt>
      <trkpt lat="47.43043" lon="0.88547">
        <ele>155</ele>
        <time>2013-09-01T07:05:01.491Z</time>
      </trkpt>
      <trkpt lat="47.43048" lon="0.88549">
        <ele>155</ele>
        <time>2013-09-01T07:05:02.493Z</time>
      </trkpt>
      <trkpt lat="47.43052" lon="0.88552">
        <ele>155</ele>
        <time>2013-09-01T07:05:03.498Z</time>
      </trkpt>
      <trkpt lat="47.43057" lon="0.88552">
        <ele>155</ele>
        <time>2013-09-01T07:05:04.501Z</time>
      </trkpt>
      <trkpt lat="47.43062" lon="0.88552">
        <ele>156</ele>
        <time>2013-09-01T07:05:05.516Z</time>
      </trkpt>
      <trkpt lat="47.43066" lon="0.88552">
        <ele>156</ele>
        <time>2013-09-01T07:05:06.533Z</time>
      </trkpt>
      <trkpt lat="47.43071" lon="0.88552">
        <ele>156</ele>
        <time>2013-09-01T07:05:07.546Z</time>
      </trkpt>
      <trkpt lat="47.4308" lon="0.88552">
        <ele>157</ele>
        <time>2013-09-01T07:05:09.490Z</time>
      </trkpt>
      <trkpt lat="47.43084" lon="0.88552">
        <ele>158</ele>
        <time>2013-09-01T07:05:10.542Z</time>
      </trkpt>
      <trkpt lat="47.43089" lon="0.88552">
        <ele>158</ele>
        <time>2013-09-01T07:05:11.546Z</time>
      </trkpt>
      <trkpt lat="47.43094" lon="0.88552">
        <ele>159</ele>
        <time>2013-09-01T07:05:12.500Z</time>
      </trkpt>
      <trkpt lat="47.43098" lon="0.88553">
        <ele>159</ele>
        <time>2013-09-01T07:05:13.551Z</time>
      </trkpt>
      <trkpt lat="47.43102" lon="0.88556">
        <ele>159</ele>
        <time>2013-09-01T07:05:14.501Z</time>
      </trkpt>
      <trkpt lat="47.43107" lon="0.88558">
        <ele>159</ele>
        <time>2013-09-01T07:05:15.491Z</time>
      </trkpt>
      <trkpt lat="47.43111" lon="0.88562">
        <ele>158</ele>
        <time>2013-09-01T07:05:16.505Z</time>
      </trkpt>
      <trkpt lat="47.43118" lon="0.88569">
        <ele>156</ele>
        <time>2013-09-01T07:05:18.498Z</time>
      </trkpt>
      <trkpt lat="47.4312" lon="0.88573">
        <ele>156</ele>
        <time>2013-09-01T07:05:19.551Z</time>
      </trkpt>
      <trkpt lat="47.4312" lon="0.88586">
        <ele>155</ele>
        <time>2013-09-01T07:05:21.592Z</time>
      </trkpt>
      <trkpt lat="47.43119" lon="0.88592">
        <ele>155</ele>
        <time>2013-09-01T07:05:22.554Z</time>
      </trkpt>
      <trkpt lat="47.43118" lon="0.88597">
        <ele>155</ele>
        <time>2013-09-01T07:05:23.509Z</time>
      </trkpt>
      <trkpt lat="47.43115" lon="0.88605">
        <ele>154</ele>
        <time>2013-09-01T07:05:24.556Z</time>
      </trkpt>
      <trkpt lat="47.43113" lon="0.88612">
        <ele>153</ele>
        <time>2013-09-01T07:05:25.534Z</time>
      </trkpt>
      <trkpt lat="47.43111" lon="0.8862">
        <ele>153</ele>
        <time>2013-09-01T07:05:26.556Z</time>
      </trkpt>
      <trkpt lat="47.43108" lon="0.88629">
        <ele>152</ele>
        <time>2013-09-01T07:05:27.536Z</time>
      </trkpt>
      <trkpt lat="47.43105" lon="0.88635">
        <ele>151</ele>
        <time>2013-09-01T07:05:28.544Z</time>
      </trkpt>
      <trkpt lat="47.43102" lon="0.88642">
        <ele>149</ele>
        <time>2013-09-01T07:05:29.534Z</time>
      </trkpt>
      <trkpt lat="47.43099" lon="0.8865">
        <ele>149</ele>
        <time>2013-09-01T07:05:30.561Z</time>
      </trkpt>
      <trkpt lat="47.43097" lon="0.88659">
        <ele>150</ele>
        <time>2013-09-01T07:05:31.507Z</time>
      </trkpt>
      <trkpt lat="47.43096" lon="0.88667">
        <ele>151</ele>
        <time>2013-09-01T07:05:32.497Z</time>
      </trkpt>
      <trkpt lat="47.43095" lon="0.88674">
        <ele>152</ele>
        <time>2013-09-01T07:05:33.491Z</time>
      </trkpt>
      <trkpt lat="47.43093" lon="0.8868">
        <ele>153</ele>
        <time>2013-09-01T07:05:34.491Z</time>
      </trkpt>
      <trkpt lat="47.43092" lon="0.88687">
        <ele>152</ele>
        <time>2013-09-01T07:05:35.496Z</time>
      </trkpt>
      <trkpt lat="47.43089" lon="0.88693">
        <ele>151</ele>
        <time>2013-09-01T07:05:36.510Z</time>
      </trkpt>
      <trkpt lat="47.43086" lon="0.887">
        <ele>152</ele>
        <time>2013-09-01T07:05:37.652Z</time>
      </trkpt>
      <trkpt lat="47.43083" lon="0.88704">
        <ele>152</ele>
        <time>2013-09-01T07:05:38.527Z</time>
      </trkpt>
      <trkpt lat="47.43082" lon="0.8871">
        <ele>152</ele>
        <time>2013-09-01T07:05:39.547Z</time>
      </trkpt>
      <trkpt lat="47.43079" lon="0.88717">
        <ele>153</ele>
        <time>2013-09-01T07:05:40.542Z</time>
      </trkpt>
      <trkpt lat="47.43074" lon="0.88725">
        <ele>154</ele>
        <time>2013-09-01T07:05:42.526Z</time>
      </trkpt>
      <trkpt lat="47.4307" lon="0.8873">
        <ele>153</ele>
        <time>2013-09-01T07:05:43.622Z</time>
      </trkpt>
      <trkpt lat="47.43066" lon="0.88735">
        <ele>152</ele>
        <time>2013-09-01T07:05:44.531Z</time>
      </trkpt>
      <trkpt lat="47.43062" lon="0.8874">
        <ele>151</ele>
        <time>2013-09-01T07:05:45.552Z</time>
      </trkpt>
      <trkpt lat="47.43055" lon="0.88749">
        <ele>150</ele>
        <time>2013-09-01T07:05:47.521Z</time>
      </trkpt>
      <trkpt lat="47.43052" lon="0.88753">
        <ele>151</ele>
        <time>2013-09-01T07:05:47.292Z</time>
      </trkpt>
      <trkpt lat="47.43049" lon="0.88758">
        <ele>150</ele>
        <time>2013-09-01T07:05:48.279Z</time>
      </trkpt>
      <trkpt lat="47.43044" lon="0.88764">
        <ele>148</ele>
        <time>2013-09-01T07:05:49.305Z</time>
      </trkpt>
      <trkpt lat="47.43039" lon="0.88768">
        <ele>147</ele>
        <time>2013-09-01T07:05:50.293Z</time>
      </trkpt>
      <trkpt lat="47.43036" lon="0.88773">
        <ele>147</ele>
        <time>2013-09-01T07:05:51.304Z</time>
      </trkpt>
      <trkpt lat="47.43031" lon="0.88783">
        <ele>149</ele>
        <time>2013-09-01T07:05:54.283Z</time>
      </trkpt>
      <trkpt lat="47.43028" lon="0.88787">
        <ele>148</ele>
        <time>2013-09-01T07:05:55.278Z</time>
      </trkpt>
      <trkpt lat="47.43024" lon="0.88794">
        <ele>148</ele>
        <time>2013-09-01T07:05:56.285Z</time>
      </trkpt>
      <trkpt lat="47.43021" lon="0.88798">
        <ele>148</ele>
        <time>2013-09-01T07:05:57.284Z</time>
      </trkpt>
      <trkpt lat="47.43017" lon="0.88805">
        <ele>148</ele>
        <time>2013-09-01T07:05:58.284Z</time>
      </trkpt>
      <trkpt lat="47.43012" lon="0.88811">
        <ele>148</ele>
        <time>2013-09-01T07:05:59.277Z</time>
      </trkpt>
      <trkpt lat="47.43008" lon="0.88816">
        <ele>148</ele>
        <time>2013-09-01T07:06:00.298Z</time>
      </trkpt>
      <trkpt lat="47.43004" lon="0.88822">
        <ele>148</ele>
        <time>2013-09-01T07:06:01.294Z</time>
      </trkpt>
      <trkpt lat="47.43" lon="0.88828">
        <ele>148</ele>
        <time>2013-09-01T07:06:02.330Z</time>
      </trkpt>
      <trkpt lat="47.42995" lon="0.88837">
        <ele>148</ele>
        <time>2013-09-01T07:06:03.324Z</time>
      </trkpt>
      <trkpt lat="47.42991" lon="0.88843">
        <ele>147</ele>
        <time>2013-09-01T07:06:04.335Z</time>
      </trkpt>
      <trkpt lat="47.42986" lon="0.88852">
        <ele>146</ele>
        <time>2013-09-01T07:06:05.413Z</time>
      </trkpt>
      <trkpt lat="47.4298" lon="0.8886">
        <ele>145</ele>
        <time>2013-09-01T07:06:06.291Z</time>
      </trkpt>
      <trkpt lat="47.42975" lon="0.88869">
        <ele>145</ele>
        <time>2013-09-01T07:06:07.324Z</time>
      </trkpt>
      <trkpt lat="47.42971" lon="0.88878">
        <ele>146</ele>
        <time>2013-09-01T07:06:08.271Z</time>
      </trkpt>
      <trkpt lat="47.42965" lon="0.88886">
        <ele>146</ele>
        <time>2013-09-01T07:06:09.283Z</time>
      </trkpt>
      <trkpt lat="47.42959" lon="0.88897">
        <ele>146</ele>
        <time>2013-09-01T07:06:10.317Z</time>
      </trkpt>
      <trkpt lat="47.42953" lon="0.88906">
        <ele>146</ele>
        <time>2013-09-01T07:06:11.304Z</time>
      </trkpt>
      <trkpt lat="47.42948" lon="0.88912">
        <ele>146</ele>
        <time>2013-09-01T07:06:12.309Z</time>
      </trkpt>
      <trkpt lat="47.42942" lon="0.88917">
        <ele>146</ele>
        <time>2013-09-01T07:06:13.319Z</time>
      </trkpt>
      <trkpt lat="47.42938" lon="0.88921">
        <ele>146</ele>
        <time>2013-09-01T07:06:14.374Z</time>
      </trkpt>
      <trkpt lat="47.42935" lon="0.88927">
        <ele>146</ele>
        <time>2013-09-01T07:06:15.329Z</time>
      </trkpt>
      <trkpt lat="47.42932" lon="0.88931">
        <ele>146</ele>
        <time>2013-09-01T07:06:16.334Z</time>
      </trkpt>
      <trkpt lat="47.42925" lon="0.88936">
        <ele>146</ele>
        <time>2013-09-01T07:06:18.334Z</time>
      </trkpt>
      <trkpt lat="47.4292" lon="0.88936">
        <ele>149</ele>
        <time>2013-09-01T07:06:19.334Z</time>
      </trkpt>
      <trkpt lat="47.42913" lon="0.88932">
        <ele>155</ele>
        <time>2013-09-01T07:06:21.339Z</time>
      </trkpt>
      <trkpt lat="47.42911" lon="0.88929">
        <ele>157</ele>
        <time>2013-09-01T07:06:22.291Z</time>
      </trkpt>
      <trkpt lat="47.42904" lon="0.88929">
        <ele>158</ele>
        <time>2013-09-01T07:06:24.347Z</time>
      </trkpt>
      <trkpt lat="47.429" lon="0.88929">
        <ele>158</ele>
        <time>2013-09-01T07:06:25.339Z</time>
      </trkpt>
      <trkpt lat="47.42893" lon="0.88929">
        <ele>159</ele>
        <time>2013-09-01T07:06:27.328Z</time>
      </trkpt>
      <trkpt lat="47.42889" lon="0.88929">
        <ele>158</ele>
        <time>2013-09-01T07:06:28.288Z</time>
      </trkpt>
      <trkpt lat="47.42882" lon="0.88927">
        <ele>161</ele>
        <time>2013-09-01T07:06:30.289Z</time>
      </trkpt>
      <trkpt lat="47.42879" lon="0.88925">
        <ele>162</ele>
        <time>2013-09-01T07:06:31.339Z</time>
      </trkpt>
      <trkpt lat="47.42871" lon="0.88922">
        <ele>165</ele>
        <time>2013-09-01T07:06:34.299Z</time>
      </trkpt>
      <trkpt lat="47.42868" lon="0.88924">
        <ele>164</ele>
        <time>2013-09-01T07:06:35.316Z</time>
      </trkpt>
      <trkpt lat="47.4286" lon="0.88929">
        <ele>164</ele>
        <time>2013-09-01T07:06:40.336Z</time>
      </trkpt>
      <trkpt lat="47.42856" lon="0.88931">
        <ele>163</ele>
        <time>2013-09-01T07:06:41.334Z</time>
      </trkpt>
      <trkpt lat="47.42848" lon="0.88935">
        <ele>159</ele>
        <time>2013-09-01T07:06:42.418Z</time>
      </trkpt>
      <trkpt lat="47.42842" lon="0.88939">
        <ele>158</ele>
        <time>2013-09-01T07:06:43.280Z</time>
      </trkpt>
      <trkpt lat="47.42834" lon="0.88943">
        <ele>157</ele>
        <time>2013-09-01T07:06:45.281Z</time>
      </trkpt>
      <trkpt lat="47.4283" lon="0.88942">
        <ele>158</ele>
        <time>2013-09-01T07:06:46.278Z</time>
      </trkpt>
      <trkpt lat="47.42823" lon="0.8894">
        <ele>159</ele>
        <time>2013-09-01T07:06:48.343Z</time>
      </trkpt>
      <trkpt lat="47.4282" lon="0.88938">
        <ele>159</ele>
        <time>2013-09-01T07:06:49.340Z</time>
      </trkpt>
      <trkpt lat="47.42813" lon="0.88931">
        <ele>158</ele>
        <time>2013-09-01T07:06:51.402Z</time>
      </trkpt>
      <trkpt lat="47.4281" lon="0.88929">
        <ele>158</ele>
        <time>2013-09-01T07:06:52.308Z</time>
      </trkpt>
      <trkpt lat="47.42803" lon="0.88923">
        <ele>159</ele>
        <time>2013-09-01T07:06:54.321Z</time>
      </trkpt>
      <trkpt lat="47.428" lon="0.8892">
        <ele>160</ele>
        <time>2013-09-01T07:06:55.339Z</time>
      </trkpt>
      <trkpt lat="47.42792" lon="0.8892">
        <ele>160</ele>
        <time>2013-09-01T07:06:57.289Z</time>
      </trkpt>
      <trkpt lat="47.42789" lon="0.88919">
        <ele>162</ele>
        <time>2013-09-01T07:06:58.299Z</time>
      </trkpt>
      <trkpt lat="47.42783" lon="0.88914">
        <ele>164</ele>
        <time>2013-09-01T07:07:00.291Z</time>
      </trkpt>
      <trkpt lat="47.42779" lon="0.88912">
        <ele>165</ele>
        <time>2013-09-01T07:07:01.321Z</time>
      </trkpt>
      <trkpt lat="47.42773" lon="0.88912">
        <ele>166</ele>
        <time>2013-09-01T07:07:02.344Z</time>
      </trkpt>
      <trkpt lat="47.42769" lon="0.88912">
        <ele>167</ele>
        <time>2013-09-01T07:07:03.344Z</time>
      </trkpt>
      <trkpt lat="47.42761" lon="0.88914">
        <ele>167</ele>
        <time>2013-09-01T07:07:05.340Z</time>
      </trkpt>
      <trkpt lat="47.42758" lon="0.88913">
        <ele>168</ele>
        <time>2013-09-01T07:07:06.339Z</time>
      </trkpt>
      <trkpt lat="47.4275" lon="0.8891">
        <ele>169</ele>
        <time>2013-09-01T07:07:09.291Z</time>
      </trkpt>
      <trkpt lat="47.42746" lon="0.8891">
        <ele>169</ele>
        <time>2013-09-01T07:07:10.297Z</time>
      </trkpt>
      <trkpt lat="47.42741" lon="0.88906">
        <ele>167</ele>
        <time>2013-09-01T07:07:11.293Z</time>
      </trkpt>
      <trkpt lat="47.42736" lon="0.88902">
        <ele>166</ele>
        <time>2013-09-01T07:07:12.352Z</time>
      </trkpt>
      <trkpt lat="47.42731" lon="0.88897">
        <ele>166</ele>
        <time>2013-09-01T07:07:13.323Z</time>
      </trkpt>
      <trkpt lat="47.42727" lon="0.88893">
        <ele>165</ele>
        <time>2013-09-01T07:07:14.393Z</time>
      </trkpt>
      <trkpt lat="47.42723" lon="0.88888">
        <ele>162</ele>
        <time>2013-09-01T07:07:15.348Z</time>
      </trkpt>
      <trkpt lat="47.42718" lon="0.88884">
        <ele>161</ele>
        <time>2013-09-01T07:07:16.349Z</time>
      </trkpt>
      <trkpt lat="47.42714" lon="0.8888">
        <ele>159</ele>
        <time>2013-09-01T07:07:17.306Z</time>
      </trkpt>
      <trkpt lat="47.42709" lon="0.88875">
        <ele>159</ele>
        <time>2013-09-01T07:07:18.329Z</time>
      </trkpt>
      <trkpt lat="47.42703" lon="0.8887">
        <ele>156</ele>
        <time>2013-09-01T07:07:19.348Z</time>
      </trkpt>
      <trkpt lat="47.42698" lon="0.88861">
        <ele>153</ele>
        <time>2013-09-01T07:07:20.349Z</time>
      </trkpt>
      <trkpt lat="47.42693" lon="0.88854">
        <ele>152</ele>
        <time>2013-09-01T07:07:21.329Z</time>
      </trkpt>
      <trkpt lat="47.42687" lon="0.88848">
        <ele>151</ele>
        <time>2013-09-01T07:07:22.295Z</time>
      </trkpt>
      <trkpt lat="47.42681" lon="0.88843">
        <ele>151</ele>
        <time>2013-09-01T07:07:23.295Z</time>
      </trkpt>
      <trkpt lat="47.42674" lon="0.88839">
        <ele>151</ele>
        <time>2013-09-01T07:07:24.293Z</time>
      </trkpt>
      <trkpt lat="47.42667" lon="0.88836">
        <ele>150</ele>
        <time>2013-09-01T07:07:25.339Z</time>
      </trkpt>
      <trkpt lat="47.42661" lon="0.88836">
        <ele>148</ele>
        <time>2013-09-01T07:07:26.339Z</time>
      </trkpt>
      <trkpt lat="47.42652" lon="0.88836">
        <ele>148</ele>
        <time>2013-09-01T07:07:29.339Z</time>
      </trkpt>
      <trkpt lat="47.4265" lon="0.88833">
        <ele>148</ele>
        <time>2013-09-01T07:07:30.349Z</time>
      </trkpt>
      <trkpt lat="47.42644" lon="0.88828">
        <ele>150</ele>
        <time>2013-09-01T07:07:32.397Z</time>
      </trkpt>
      <trkpt lat="47.42639" lon="0.88826">
        <ele>150</ele>
        <time>2013-09-01T07:07:33.289Z</time>
      </trkpt>
      <trkpt lat="47.42633" lon="0.88826">
        <ele>149</ele>
        <time>2013-09-01T07:07:34.342Z</time>
      </trkpt>
      <trkpt lat="47.42628" lon="0.88826">
        <ele>149</ele>
        <time>2013-09-01T07:07:35.338Z</time>
      </trkpt>
      <trkpt lat="47.42623" lon="0.88829">
        <ele>148</ele>
        <time>2013-09-01T07:07:36.339Z</time>
      </trkpt>
      <trkpt lat="47.42619" lon="0.88832">
        <ele>149</ele>
        <time>2013-09-01T07:07:37.400Z</time>
      </trkpt>
      <trkpt lat="47.42611" lon="0.88837">
        <ele>150</ele>
        <time>2013-09-01T07:07:40.284Z</time>
      </trkpt>
      <trkpt lat="47.42607" lon="0.88837">
        <ele>150</ele>
        <time>2013-09-01T07:07:41.309Z</time>
      </trkpt>
      <trkpt lat="47.426" lon="0.88841">
        <ele>151</ele>
        <time>2013-09-01T07:07:43.344Z</time>
      </trkpt>
      <trkpt lat="47.42596" lon="0.88845">
        <ele>151</ele>
        <time>2013-09-01T07:07:44.332Z</time>
      </trkpt>
      <trkpt lat="47.42592" lon="0.88849">
        <ele>151</ele>
        <time>2013-09-01T07:07:45.342Z</time>
      </trkpt>
      <trkpt lat="47.42588" lon="0.88854">
        <ele>150</ele>
        <time>2013-09-01T07:07:46.343Z</time>
      </trkpt>
      <trkpt lat="47.42585" lon="0.88858">
        <ele>150</ele>
        <time>2013-09-01T07:07:47.343Z</time>
      </trkpt>
      <trkpt lat="47.42582" lon="0.88864">
        <ele>151</ele>
        <time>2013-09-01T07:07:48.349Z</time>
      </trkpt>
      <trkpt lat="47.42578" lon="0.88873">
        <ele>151</ele>
        <time>2013-09-01T07:07:50.290Z</time>
      </trkpt>
      <trkpt lat="47.42575" lon="0.88878">
        <ele>151</ele>
        <time>2013-09-01T07:07:51.287Z</time>
      </trkpt>
      <trkpt lat="47.42571" lon="0.88882">
        <ele>151</ele>
        <time>2013-09-01T07:07:52.289Z</time>
      </trkpt>
      <trkpt lat="47.42566" lon="0.88886">
        <ele>151</ele>
        <time>2013-09-01T07:07:53.349Z</time>
      </trkpt>
      <trkpt lat="47.42559" lon="0.88895">
        <ele>148</ele>
        <time>2013-09-01T07:07:55.356Z</time>
      </trkpt>
      <trkpt lat="47.42557" lon="0.88901">
        <ele>148</ele>
        <time>2013-09-01T07:07:56.449Z</time>
      </trkpt>
      <trkpt lat="47.42552" lon="0.8891">
        <ele>149</ele>
        <time>2013-09-01T07:07:58.287Z</time>
      </trkpt>
      <trkpt lat="47.4255" lon="0.88913">
        <ele>152</ele>
        <time>2013-09-01T07:07:59.318Z</time>
      </trkpt>
      <trkpt lat="47.42542" lon="0.88918">
        <ele>151</ele>
        <time>2013-09-01T07:08:02.345Z</time>
      </trkpt>
      <trkpt lat="47.42538" lon="0.88924">
        <ele>149</ele>
        <time>2013-09-01T07:08:03.353Z</time>
      </trkpt>
      <trkpt lat="47.42535" lon="0.88936">
        <ele>155</ele>
        <time>2013-09-01T07:08:08.344Z</time>
      </trkpt>
      <trkpt lat="47.42536" lon="0.88938">
        <ele>156</ele>
        <time>2013-09-01T07:08:09.347Z</time>
      </trkpt>
      <trkpt lat="47.42532" lon="0.88948">
        <ele>156</ele>
        <time>2013-09-01T07:08:12.285Z</time>
      </trkpt>
      <trkpt lat="47.4253" lon="0.88953">
        <ele>157</ele>
        <time>2013-09-01T07:08:13.348Z</time>
      </trkpt>
      <trkpt lat="47.42524" lon="0.8896">
        <ele>154</ele>
        <time>2013-09-01T07:08:15.348Z</time>
      </trkpt>
      <trkpt lat="47.42521" lon="0.88962">
        <ele>153</ele>
        <time>2013-09-01T07:08:16.348Z</time>
      </trkpt>
      <trkpt lat="47.42515" lon="0.88967">
        <ele>152</ele>
        <time>2013-09-01T07:08:18.291Z</time>
      </trkpt>
      <trkpt lat="47.42513" lon="0.8897">
        <ele>151</ele>
        <time>2013-09-01T07:08:19.285Z</time>
      </trkpt>
      <trkpt lat="47.42505" lon="0.88972">
        <ele>149</ele>
        <time>2013-09-01T07:08:21.299Z</time>
      </trkpt>
      <trkpt lat="47.42501" lon="0.88972">
        <ele>149</ele>
        <time>2013-09-01T07:08:22.308Z</time>
      </trkpt>
      <trkpt lat="47.42493" lon="0.88974">
        <ele>147</ele>
        <time>2013-09-01T07:08:24.295Z</time>
      </trkpt>
      <trkpt lat="47.42489" lon="0.88974">
        <ele>147</ele>
        <time>2013-09-01T07:08:25.290Z</time>
      </trkpt>
      <trkpt lat="47.42481" lon="0.88979">
        <ele>146</ele>
        <time>2013-09-01T07:08:29.664Z</time>
      </trkpt>
      <trkpt lat="47.4248" lon="0.88979">
        <ele>146</ele>
        <time>2013-09-01T07:08:30.713Z</time>
      </trkpt>
      <trkpt lat="47.42481" lon="0.88989">
        <ele>146</ele>
        <time>2013-09-01T07:08:34.709Z</time>
      </trkpt>
      <trkpt lat="47.42482" lon="0.88993">
        <ele>146</ele>
        <time>2013-09-01T07:08:35.711Z</time>
      </trkpt>
      <trkpt lat="47.42488" lon="0.89002">
        <ele>147</ele>
        <time>2013-09-01T07:08:38.775Z</time>
      </trkpt>
      <trkpt lat="47.42489" lon="0.89006">
        <ele>147</ele>
        <time>2013-09-01T07:08:39.722Z</time>
      </trkpt>
      <trkpt lat="47.42493" lon="0.89013">
        <ele>149</ele>
        <time>2013-09-01T07:08:41.668Z</time>
      </trkpt>
      <trkpt lat="47.42494" lon="0.89017">
        <ele>149</ele>
        <time>2013-09-01T07:08:42.703Z</time>
      </trkpt>
      <trkpt lat="47.42499" lon="0.89028">
        <ele>150</ele>
        <time>2013-09-01T07:08:45.700Z</time>
      </trkpt>
      <trkpt lat="47.42501" lon="0.8903">
        <ele>151</ele>
        <time>2013-09-01T07:08:46.704Z</time>
      </trkpt>
      <trkpt lat="47.42505" lon="0.89039">
        <ele>151</ele>
        <time>2013-09-01T07:08:49.648Z</time>
      </trkpt>
      <trkpt lat="47.42506" lon="0.89043">
        <ele>152</ele>
        <time>2013-09-01T07:08:50.671Z</time>
      </trkpt>
      <trkpt lat="47.4251" lon="0.89054">
        <ele>153</ele>
        <time>2013-09-01T07:08:53.706Z</time>
      </trkpt>
      <trkpt lat="47.42512" lon="0.89058">
        <ele>153</ele>
        <time>2013-09-01T07:08:54.688Z</time>
      </trkpt>
      <trkpt lat="47.42514" lon="0.89066">
        <ele>153</ele>
        <time>2013-09-01T07:08:56.710Z</time>
      </trkpt>
      <trkpt lat="47.42516" lon="0.89071">
        <ele>153</ele>
        <time>2013-09-01T07:08:57.709Z</time>
      </trkpt>
      <trkpt lat="47.42518" lon="0.89079">
        <ele>152</ele>
        <time>2013-09-01T07:08:59.671Z</time>
      </trkpt>
      <trkpt lat="47.42519" lon="0.89084">
        <ele>152</ele>
        <time>2013-09-01T07:09:00.703Z</time>
      </trkpt>
      <trkpt lat="47.42521" lon="0.89094">
        <ele>153</ele>
        <time>2013-09-01T07:09:02.699Z</time>
      </trkpt>
      <trkpt lat="47.42523" lon="0.89099">
        <ele>153</ele>
        <time>2013-09-01T07:09:03.699Z</time>
      </trkpt>
      <trkpt lat="47.42526" lon="0.89107">
        <ele>152</ele>
        <time>2013-09-01T07:09:05.643Z</time>
      </trkpt>
      <trkpt lat="47.42527" lon="0.89112">
        <ele>152</ele>
        <time>2013-09-01T07:09:06.648Z</time>
      </trkpt>
      <trkpt lat="47.4253" lon="0.89122">
        <ele>152</ele>
        <time>2013-09-01T07:09:08.643Z</time>
      </trkpt>
      <trkpt lat="47.4253" lon="0.89127">
        <ele>151</ele>
        <time>2013-09-01T07:09:09.648Z</time>
      </trkpt>
      <trkpt lat="47.42532" lon="0.89139">
        <ele>150</ele>
        <time>2013-09-01T07:09:11.651Z</time>
      </trkpt>
      <trkpt lat="47.42533" lon="0.89144">
        <ele>150</ele>
        <time>2013-09-01T07:09:12.654Z</time>
      </trkpt>
      <trkpt lat="47.42535" lon="0.89155">
        <ele>149</ele>
        <time>2013-09-01T07:09:14.698Z</time>
      </trkpt>
      <trkpt lat="47.42536" lon="0.89161">
        <ele>149</ele>
        <time>2013-09-01T07:09:15.758Z</time>
      </trkpt>
      <trkpt lat="47.42539" lon="0.89172">
        <ele>148</ele>
        <time>2013-09-01T07:09:17.687Z</time>
      </trkpt>
      <trkpt lat="47.4254" lon="0.89178">
        <ele>148</ele>
        <time>2013-09-01T07:09:18.711Z</time>
      </trkpt>
      <trkpt lat="47.42542" lon="0.89189">
        <ele>148</ele>
        <time>2013-09-01T07:09:20.663Z</time>
      </trkpt>
      <trkpt lat="47.42542" lon="0.89195">
        <ele>148</ele>
        <time>2013-09-01T07:09:21.704Z</time>
      </trkpt>
      <trkpt lat="47.42545" lon="0.89206">
        <ele>148</ele>
        <time>2013-09-01T07:09:23.682Z</time>
      </trkpt>
      <trkpt lat="47.42546" lon="0.89212">
        <ele>148</ele>
        <time>2013-09-01T07:09:24.701Z</time>
      </trkpt>
      <trkpt lat="47.42547" lon="0.89219">
        <ele>148</ele>
        <time>2013-09-01T07:09:25.703Z</time>
      </trkpt>
      <trkpt lat="47.42548" lon="0.89225">
        <ele>148</ele>
        <time>2013-09-01T07:09:26.701Z</time>
      </trkpt>
      <trkpt lat="47.4255" lon="0.89236">
        <ele>149</ele>
        <time>2013-09-01T07:09:28.655Z</time>
      </trkpt>
      <trkpt lat="47.4255" lon="0.89241">
        <ele>149</ele>
        <time>2013-09-01T07:09:29.652Z</time>
      </trkpt>
      <trkpt lat="47.42551" lon="0.89253">
        <ele>149</ele>
        <time>2013-09-01T07:09:31.700Z</time>
      </trkpt>
      <trkpt lat="47.42552" lon="0.8926">
        <ele>149</ele>
        <time>2013-09-01T07:09:32.708Z</time>
      </trkpt>
      <trkpt lat="47.42554" lon="0.8927">
        <ele>150</ele>
        <time>2013-09-01T07:09:34.654Z</time>
      </trkpt>
      <trkpt lat="47.42555" lon="0.89277">
        <ele>150</ele>
        <time>2013-09-01T07:09:35.653Z</time>
      </trkpt>
      <trkpt lat="47.42559" lon="0.89288">
        <ele>150</ele>
        <time>2013-09-01T07:09:38.687Z</time>
      </trkpt>
      <trkpt lat="47.42561" lon="0.89288">
        <ele>150</ele>
        <time>2013-09-01T07:09:39.718Z</time>
      </trkpt>
      <trkpt lat="47.42567" lon="0.89288">
        <ele>151</ele>
        <time>2013-09-01T07:09:41.714Z</time>
      </trkpt>
      <trkpt lat="47.4257" lon="0.89289">
        <ele>151</ele>
        <time>2013-09-01T07:09:42.715Z</time>
      </trkpt>
      <trkpt lat="47.42576" lon="0.89296">
        <ele>152</ele>
        <time>2013-09-01T07:09:44.701Z</time>
      </trkpt>
      <trkpt lat="47.42578" lon="0.893">
        <ele>152</ele>
        <time>2013-09-01T07:09:45.705Z</time>
      </trkpt>
      <trkpt lat="47.42583" lon="0.89305">
        <ele>152</ele>
        <time>2013-09-01T07:09:47.707Z</time>
      </trkpt>
      <trkpt lat="47.42586" lon="0.89307">
        <ele>153</ele>
        <time>2013-09-01T07:09:48.711Z</time>
      </trkpt>
      <trkpt lat="47.42593" lon="0.89313">
        <ele>153</ele>
        <time>2013-09-01T07:09:50.659Z</time>
      </trkpt>
      <trkpt lat="47.42595" lon="0.89317">
        <ele>153</ele>
        <time>2013-09-01T07:09:51.669Z</time>
      </trkpt>
      <trkpt lat="47.42596" lon="0.89328">
        <ele>153</ele>
        <time>2013-09-01T07:09:53.712Z</time>
      </trkpt>
      <trkpt lat="47.42596" lon="0.89333">
        <ele>153</ele>
        <time>2013-09-01T07:09:54.698Z</time>
      </trkpt>
      <trkpt lat="47.42596" lon="0.89345">
        <ele>153</ele>
        <time>2013-09-01T07:09:56.720Z</time>
      </trkpt>
      <trkpt lat="47.42596" lon="0.8935">
        <ele>153</ele>
        <time>2013-09-01T07:09:57.866Z</time>
      </trkpt>
      <trkpt lat="47.42596" lon="0.8936">
        <ele>153</ele>
        <time>2013-09-01T07:09:59.656Z</time>
      </trkpt>
      <trkpt lat="47.42596" lon="0.89367">
        <ele>153</ele>
        <time>2013-09-01T07:10:00.657Z</time>
      </trkpt>
      <trkpt lat="47.42597" lon="0.8938">
        <ele>151</ele>
        <time>2013-09-01T07:10:02.669Z</time>
      </trkpt>
      <trkpt lat="47.42597" lon="0.89386">
        <ele>151</ele>
        <time>2013-09-01T07:10:03.648Z</time>
      </trkpt>
      <trkpt lat="47.42597" lon="0.89399">
        <ele>151</ele>
        <time>2013-09-01T07:10:05.649Z</time>
      </trkpt>
      <trkpt lat="47.42597" lon="0.89404">
        <ele>150</ele>
        <time>2013-09-01T07:10:06.646Z</time>
      </trkpt>
      <trkpt lat="47.42598" lon="0.89416">
        <ele>150</ele>
        <time>2013-09-01T07:10:08.710Z</time>
      </trkpt>
      <trkpt lat="47.42598" lon="0.89423">
        <ele>149</ele>
        <time>2013-09-01T07:10:09.764Z</time>
      </trkpt>
      <trkpt lat="47.42598" lon="0.89436">
        <ele>149</ele>
        <time>2013-09-01T07:10:11.649Z</time>
      </trkpt>
      <trkpt lat="47.42598" lon="0.89442">
        <ele>148</ele>
        <time>2013-09-01T07:10:12.649Z</time>
      </trkpt>
      <trkpt lat="47.42598" lon="0.89448">
        <ele>148</ele>
        <time>2013-09-01T07:10:13.649Z</time>
      </trkpt>
      <trkpt lat="47.42598" lon="0.89457">
        <ele>148</ele>
        <time>2013-09-01T07:10:14.681Z</time>
      </trkpt>
      <trkpt lat="47.42598" lon="0.89464">
        <ele>147</ele>
        <time>2013-09-01T07:10:15.649Z</time>
      </trkpt>
      <trkpt lat="47.42597" lon="0.8947">
        <ele>146</ele>
        <time>2013-09-01T07:10:16.664Z</time>
      </trkpt>
      <trkpt lat="47.42598" lon="0.89478">
        <ele>146</ele>
        <time>2013-09-01T07:10:17.704Z</time>
      </trkpt>
      <trkpt lat="47.42597" lon="0.89485">
        <ele>146</ele>
        <time>2013-09-01T07:10:18.715Z</time>
      </trkpt>
      <trkpt lat="47.42596" lon="0.89491">
        <ele>145</ele>
        <time>2013-09-01T07:10:19.655Z</time>
      </trkpt>
      <trkpt lat="47.42594" lon="0.89498">
        <ele>145</ele>
        <time>2013-09-01T07:10:20.719Z</time>
      </trkpt>
      <trkpt lat="47.42592" lon="0.89504">
        <ele>144</ele>
        <time>2013-09-01T07:10:21.708Z</time>
      </trkpt>
      <trkpt lat="47.4259" lon="0.89513">
        <ele>144</ele>
        <time>2013-09-01T07:10:22.706Z</time>
      </trkpt>
      <trkpt lat="47.42588" lon="0.89519">
        <ele>144</ele>
        <time>2013-09-01T07:10:23.680Z</time>
      </trkpt>
      <trkpt lat="47.42587" lon="0.89528">
        <ele>144</ele>
        <time>2013-09-01T07:10:24.704Z</time>
      </trkpt>
      <trkpt lat="47.42585" lon="0.89534">
        <ele>144</ele>
        <time>2013-09-01T07:10:25.711Z</time>
      </trkpt>
      <trkpt lat="47.42584" lon="0.89541">
        <ele>144</ele>
        <time>2013-09-01T07:10:26.709Z</time>
      </trkpt>
      <trkpt lat="47.42582" lon="0.89549">
        <ele>144</ele>
        <time>2013-09-01T07:10:27.651Z</time>
      </trkpt>
      <trkpt lat="47.42581" lon="0.89556">
        <ele>144</ele>
        <time>2013-09-01T07:10:28.663Z</time>
      </trkpt>
      <trkpt lat="47.42579" lon="0.89562">
        <ele>144</ele>
        <time>2013-09-01T07:10:29.649Z</time>
      </trkpt>
      <trkpt lat="47.42578" lon="0.89569">
        <ele>144</ele>
        <time>2013-09-01T07:10:30.659Z</time>
      </trkpt>
      <trkpt lat="47.42576" lon="0.89575">
        <ele>143</ele>
        <time>2013-09-01T07:10:31.650Z</time>
      </trkpt>
      <trkpt lat="47.42574" lon="0.89583">
        <ele>143</ele>
        <time>2013-09-01T07:10:32.668Z</time>
      </trkpt>
      <trkpt lat="47.42571" lon="0.8959">
        <ele>142</ele>
        <time>2013-09-01T07:10:33.662Z</time>
      </trkpt>
      <trkpt lat="47.4257" lon="0.89599">
        <ele>142</ele>
        <time>2013-09-01T07:10:34.653Z</time>
      </trkpt>
      <trkpt lat="47.42569" lon="0.89607">
        <ele>141</ele>
        <time>2013-09-01T07:10:35.650Z</time>
      </trkpt>
      <trkpt lat="47.42567" lon="0.89616">
        <ele>141</ele>
        <time>2013-09-01T07:10:36.713Z</time>
      </trkpt>
      <trkpt lat="47.42565" lon="0.89624">
        <ele>141</ele>
        <time>2013-09-01T07:10:37.704Z</time>
      </trkpt>
      <trkpt lat="47.42563" lon="0.89633">
        <ele>141</ele>
        <time>2013-09-01T07:10:38.720Z</time>
      </trkpt>
      <trkpt lat="47.42562" lon="0.89642">
        <ele>141</ele>
        <time>2013-09-01T07:10:39.654Z</time>
      </trkpt>
      <trkpt lat="47.42559" lon="0.8965">
        <ele>140</ele>
        <time>2013-09-01T07:10:40.678Z</time>
      </trkpt>
      <trkpt lat="47.42556" lon="0.89659">
        <ele>140</ele>
        <time>2013-09-01T07:10:41.720Z</time>
      </trkpt>
      <trkpt lat="47.42555" lon="0.89667">
        <ele>140</ele>
        <time>2013-09-01T07:10:42.703Z</time>
      </trkpt>
      <trkpt lat="47.42552" lon="0.89676">
        <ele>140</ele>
        <time>2013-09-01T07:10:43.776Z</time>
      </trkpt>
      <trkpt lat="47.4255" lon="0.89682">
        <ele>139</ele>
        <time>2013-09-01T07:10:44.704Z</time>
      </trkpt>
      <trkpt lat="47.42547" lon="0.89689">
        <ele>138</ele>
        <time>2013-09-01T07:10:45.704Z</time>
      </trkpt>
      <trkpt lat="47.42543" lon="0.89697">
        <ele>137</ele>
        <time>2013-09-01T07:10:46.704Z</time>
      </trkpt>
      <trkpt lat="47.42543" lon="0.89706">
        <ele>137</ele>
        <time>2013-09-01T07:10:47.652Z</time>
      </trkpt>
      <trkpt lat="47.42544" lon="0.89716">
        <ele>137</ele>
        <time>2013-09-01T07:10:48.654Z</time>
      </trkpt>
      <trkpt lat="47.42546" lon="0.89725">
        <ele>137</ele>
        <time>2013-09-01T07:10:49.639Z</time>
      </trkpt>
      <trkpt lat="47.42547" lon="0.89734">
        <ele>137</ele>
        <time>2013-09-01T07:10:50.641Z</time>
      </trkpt>
      <trkpt lat="47.42548" lon="0.89742">
        <ele>137</ele>
        <time>2013-09-01T07:10:51.643Z</time>
      </trkpt>
      <trkpt lat="47.42549" lon="0.89751">
        <ele>138</ele>
        <time>2013-09-01T07:10:52.695Z</time>
      </trkpt>
      <trkpt lat="47.42549" lon="0.8976">
        <ele>138</ele>
        <time>2013-09-01T07:10:53.705Z</time>
      </trkpt>
      <trkpt lat="47.4255" lon="0.89766">
        <ele>139</ele>
        <time>2013-09-01T07:10:54.649Z</time>
      </trkpt>
      <trkpt lat="47.4255" lon="0.89779">
        <ele>139</ele>
        <time>2013-09-01T07:10:57.797Z</time>
      </trkpt>
      <trkpt lat="47.4255" lon="0.89781">
        <ele>138</ele>
        <time>2013-09-01T07:10:58.639Z</time>
      </trkpt>
      <trkpt lat="47.42559" lon="0.89781">
        <ele>139</ele>
        <time>2013-09-01T07:11:01.700Z</time>
      </trkpt>
      <trkpt lat="47.42561" lon="0.89781">
        <ele>140</ele>
        <time>2013-09-01T07:11:02.705Z</time>
      </trkpt>
      <trkpt lat="47.42568" lon="0.89779">
        <ele>140</ele>
        <time>2013-09-01T07:11:05.706Z</time>
      </trkpt>
      <trkpt lat="47.42571" lon="0.89779">
        <ele>140</ele>
        <time>2013-09-01T07:11:06.721Z</time>
      </trkpt>
      <trkpt lat="47.4258" lon="0.89779">
        <ele>141</ele>
        <time>2013-09-01T07:11:09.705Z</time>
      </trkpt>
      <trkpt lat="47.42583" lon="0.89779">
        <ele>142</ele>
        <time>2013-09-01T07:11:10.716Z</time>
      </trkpt>
      <trkpt lat="47.42592" lon="0.89779">
        <ele>142</ele>
        <time>2013-09-01T07:11:13.667Z</time>
      </trkpt>
      <trkpt lat="47.42595" lon="0.89779">
        <ele>142</ele>
        <time>2013-09-01T07:11:14.690Z</time>
      </trkpt>
      <trkpt lat="47.42604" lon="0.89779">
        <ele>143</ele>
        <time>2013-09-01T07:11:17.706Z</time>
      </trkpt>
      <trkpt lat="47.42607" lon="0.89779">
        <ele>143</ele>
        <time>2013-09-01T07:11:18.681Z</time>
      </trkpt>
      <trkpt lat="47.42612" lon="0.89779">
        <ele>143</ele>
        <time>2013-09-01T07:11:20.668Z</time>
      </trkpt>
      <trkpt lat="47.42616" lon="0.89779">
        <ele>143</ele>
        <time>2013-09-01T07:11:21.709Z</time>
      </trkpt>
      <trkpt lat="47.42625" lon="0.89781">
        <ele>143</ele>
        <time>2013-09-01T07:11:24.675Z</time>
      </trkpt>
      <trkpt lat="47.42628" lon="0.89781">
        <ele>143</ele>
        <time>2013-09-01T07:11:25.687Z</time>
      </trkpt>
      <trkpt lat="47.42637" lon="0.89783">
        <ele>142</ele>
        <time>2013-09-01T07:11:28.674Z</time>
      </trkpt>
      <trkpt lat="47.4264" lon="0.89783">
        <ele>142</ele>
        <time>2013-09-01T07:11:29.661Z</time>
      </trkpt>
      <trkpt lat="47.42646" lon="0.89783">
        <ele>141</ele>
        <time>2013-09-01T07:11:31.660Z</time>
      </trkpt>
      <trkpt lat="47.4265" lon="0.89783">
        <ele>141</ele>
        <time>2013-09-01T07:11:32.662Z</time>
      </trkpt>
      <trkpt lat="47.42656" lon="0.89784">
        <ele>141</ele>
        <time>2013-09-01T07:11:34.659Z</time>
      </trkpt>
      <trkpt lat="47.42659" lon="0.89783">
        <ele>140</ele>
        <time>2013-09-01T07:11:35.655Z</time>
      </trkpt>
      <trkpt lat="47.42667" lon="0.89781">
        <ele>140</ele>
        <time>2013-09-01T07:11:37.663Z</time>
      </trkpt>
      <trkpt lat="47.4267" lon="0.89781">
        <ele>140</ele>
        <time>2013-09-01T07:11:38.664Z</time>
      </trkpt>
      <trkpt lat="47.42678" lon="0.89784">
        <ele>140</ele>
        <time>2013-09-01T07:11:42.665Z</time>
      </trkpt>
      <trkpt lat="47.42678" lon="0.89789">
        <ele>140</ele>
        <time>2013-09-01T07:11:43.660Z</time>
      </trkpt>
      <trkpt lat="47.42674" lon="0.89796">
        <ele>139</ele>
        <time>2013-09-01T07:11:45.663Z</time>
      </trkpt>
      <trkpt lat="47.42671" lon="0.89799">
        <ele>139</ele>
        <time>2013-09-01T07:11:46.663Z</time>
      </trkpt>
      <trkpt lat="47.42667" lon="0.89809">
        <ele>138</ele>
        <time>2013-09-01T07:11:48.672Z</time>
      </trkpt>
      <trkpt lat="47.42665" lon="0.89815">
        <ele>137</ele>
        <time>2013-09-01T07:11:49.659Z</time>
      </trkpt>
      <trkpt lat="47.42665" lon="0.89823">
        <ele>137</ele>
        <time>2013-09-01T07:11:50.663Z</time>
      </trkpt>
      <trkpt lat="47.42668" lon="0.89832">
        <ele>136</ele>
        <time>2013-09-01T07:11:51.659Z</time>
      </trkpt>
      <trkpt lat="47.42671" lon="0.89839">
        <ele>137</ele>
        <time>2013-09-01T07:11:52.691Z</time>
      </trkpt>
      <trkpt lat="47.42674" lon="0.89847">
        <ele>137</ele>
        <time>2013-09-01T07:11:53.710Z</time>
      </trkpt>
      <trkpt lat="47.42676" lon="0.89854">
        <ele>137</ele>
        <time>2013-09-01T07:11:54.667Z</time>
      </trkpt>
      <trkpt lat="47.42678" lon="0.89861">
        <ele>137</ele>
        <time>2013-09-01T07:11:55.703Z</time>
      </trkpt>
      <trkpt lat="47.42681" lon="0.89869">
        <ele>137</ele>
        <time>2013-09-01T07:11:56.729Z</time>
      </trkpt>
      <trkpt lat="47.42684" lon="0.89877">
        <ele>136</ele>
        <time>2013-09-01T07:11:57.730Z</time>
      </trkpt>
      <trkpt lat="47.42686" lon="0.89888">
        <ele>136</ele>
        <time>2013-09-01T07:11:58.670Z</time>
      </trkpt>
      <trkpt lat="47.42688" lon="0.89897">
        <ele>136</ele>
        <time>2013-09-01T07:11:59.717Z</time>
      </trkpt>
      <trkpt lat="47.4269" lon="0.89907">
        <ele>135</ele>
        <time>2013-09-01T07:12:00.659Z</time>
      </trkpt>
      <trkpt lat="47.42691" lon="0.89916">
        <ele>134</ele>
        <time>2013-09-01T07:12:01.661Z</time>
      </trkpt>
      <trkpt lat="47.42692" lon="0.89927">
        <ele>133</ele>
        <time>2013-09-01T07:12:02.664Z</time>
      </trkpt>
      <trkpt lat="47.42696" lon="0.89936">
        <ele>133</ele>
        <time>2013-09-01T07:12:03.684Z</time>
      </trkpt>
      <trkpt lat="47.42698" lon="0.89944">
        <ele>133</ele>
        <time>2013-09-01T07:12:04.667Z</time>
      </trkpt>
      <trkpt lat="47.427" lon="0.89955">
        <ele>132</ele>
        <time>2013-09-01T07:12:05.665Z</time>
      </trkpt>
      <trkpt lat="47.427" lon="0.89964">
        <ele>132</ele>
        <time>2013-09-01T07:12:06.719Z</time>
      </trkpt>
      <trkpt lat="47.42699" lon="0.89974">
        <ele>131</ele>
        <time>2013-09-01T07:12:07.707Z</time>
      </trkpt>
      <trkpt lat="47.42701" lon="0.89985">
        <ele>130</ele>
        <time>2013-09-01T07:12:08.664Z</time>
      </trkpt>
      <trkpt lat="47.42704" lon="0.89996">
        <ele>129</ele>
        <time>2013-09-01T07:12:09.719Z</time>
      </trkpt>
      <trkpt lat="47.42707" lon="0.90008">
        <ele>128</ele>
        <time>2013-09-01T07:12:10.665Z</time>
      </trkpt>
      <trkpt lat="47.42711" lon="0.90019">
        <ele>126</ele>
        <time>2013-09-01T07:12:11.676Z</time>
      </trkpt>
      <trkpt lat="47.42714" lon="0.9003">
        <ele>125</ele>
        <time>2013-09-01T07:12:12.677Z</time>
      </trkpt>
      <trkpt lat="47.42717" lon="0.90043">
        <ele>126</ele>
        <time>2013-09-01T07:12:13.710Z</time>
      </trkpt>
      <trkpt lat="47.4272" lon="0.90054">
        <ele>127</ele>
        <time>2013-09-01T07:12:14.698Z</time>
      </trkpt>
      <trkpt lat="47.42724" lon="0.90064">
        <ele>128</ele>
        <time>2013-09-01T07:12:15.706Z</time>
      </trkpt>
      <trkpt lat="47.42728" lon="0.90073">
        <ele>130</ele>
        <time>2013-09-01T07:12:16.702Z</time>
      </trkpt>
      <trkpt lat="47.42731" lon="0.90079">
        <ele>132</ele>
        <time>2013-09-01T07:12:17.707Z</time>
      </trkpt>
      <trkpt lat="47.42737" lon="0.90073">
        <ele>133</ele>
        <time>2013-09-01T07:12:23.700Z</time>
      </trkpt>
      <trkpt lat="47.4274" lon="0.90069">
        <ele>132</ele>
        <time>2013-09-01T07:12:24.707Z</time>
      </trkpt>
      <trkpt lat="47.42744" lon="0.90062">
        <ele>134</ele>
        <time>2013-09-01T07:12:26.705Z</time>
      </trkpt>
      <trkpt lat="47.42747" lon="0.90058">
        <ele>133</ele>
        <time>2013-09-01T07:12:27.714Z</time>
      </trkpt>
      <trkpt lat="47.42751" lon="0.90054">
        <ele>132</ele>
        <time>2013-09-01T07:12:28.703Z</time>
      </trkpt>
      <trkpt lat="47.42757" lon="0.90049">
        <ele>130</ele>
        <time>2013-09-01T07:12:29.737Z</time>
      </trkpt>
      <trkpt lat="47.42761" lon="0.90045">
        <ele>130</ele>
        <time>2013-09-01T07:12:30.656Z</time>
      </trkpt>
      <trkpt lat="47.42764" lon="0.90039">
        <ele>130</ele>
        <time>2013-09-01T07:12:31.711Z</time>
      </trkpt>
      <trkpt lat="47.42768" lon="0.90034">
        <ele>129</ele>
        <time>2013-09-01T07:12:32.713Z</time>
      </trkpt>
      <trkpt lat="47.42771" lon="0.9003">
        <ele>130</ele>
        <time>2013-09-01T07:12:33.723Z</time>
      </trkpt>
      <trkpt lat="47.42776" lon="0.90021">
        <ele>131</ele>
        <time>2013-09-01T07:12:35.680Z</time>
      </trkpt>
      <trkpt lat="47.42779" lon="0.90017">
        <ele>133</ele>
        <time>2013-09-01T07:12:36.715Z</time>
      </trkpt>
      <trkpt lat="47.42783" lon="0.90013">
        <ele>133</ele>
        <time>2013-09-01T07:12:37.710Z</time>
      </trkpt>
      <trkpt lat="47.42787" lon="0.90008">
        <ele>135</ele>
        <time>2013-09-01T07:12:38.729Z</time>
      </trkpt>
      <trkpt lat="47.42793" lon="0.90002">
        <ele>136</ele>
        <time>2013-09-01T07:12:40.713Z</time>
      </trkpt>
      <trkpt lat="47.42796" lon="0.9">
        <ele>137</ele>
        <time>2013-09-01T07:12:41.714Z</time>
      </trkpt>
      <trkpt lat="47.428" lon="0.89992">
        <ele>138</ele>
        <time>2013-09-01T07:12:43.701Z</time>
      </trkpt>
      <trkpt lat="47.42802" lon="0.89989">
        <ele>138</ele>
        <time>2013-09-01T07:12:44.700Z</time>
      </trkpt>
      <trkpt lat="47.42807" lon="0.89982">
        <ele>139</ele>
        <time>2013-09-01T07:12:46.695Z</time>
      </trkpt>
      <trkpt lat="47.4281" lon="0.89979">
        <ele>139</ele>
        <time>2013-09-01T07:12:47.701Z</time>
      </trkpt>
      <trkpt lat="47.42814" lon="0.89976">
        <ele>138</ele>
        <time>2013-09-01T07:12:48.704Z</time>
      </trkpt>
      <trkpt lat="47.42819" lon="0.89974">
        <ele>136</ele>
        <time>2013-09-01T07:12:49.649Z</time>
      </trkpt>
      <trkpt lat="47.42823" lon="0.8997">
        <ele>136</ele>
        <time>2013-09-01T07:12:50.659Z</time>
      </trkpt>
      <trkpt lat="47.42828" lon="0.89968">
        <ele>135</ele>
        <time>2013-09-01T07:12:51.683Z</time>
      </trkpt>
      <trkpt lat="47.42832" lon="0.89965">
        <ele>134</ele>
        <time>2013-09-01T07:12:52.716Z</time>
      </trkpt>
      <trkpt lat="47.42836" lon="0.89963">
        <ele>132</ele>
        <time>2013-09-01T07:12:53.704Z</time>
      </trkpt>
      <trkpt lat="47.42844" lon="0.89957">
        <ele>132</ele>
        <time>2013-09-01T07:12:55.652Z</time>
      </trkpt>
      <trkpt lat="47.42847" lon="0.89955">
        <ele>132</ele>
        <time>2013-09-01T07:12:56.647Z</time>
      </trkpt>
      <trkpt lat="47.42855" lon="0.89948">
        <ele>132</ele>
        <time>2013-09-01T07:12:59.530Z</time>
      </trkpt>
      <trkpt lat="47.42857" lon="0.89946">
        <ele>132</ele>
        <time>2013-09-01T07:13:00.531Z</time>
      </trkpt>
      <trkpt lat="47.42862" lon="0.89938">
        <ele>134</ele>
        <time>2013-09-01T07:13:03.608Z</time>
      </trkpt>
      <trkpt lat="47.42864" lon="0.89935">
        <ele>135</ele>
        <time>2013-09-01T07:13:04.582Z</time>
      </trkpt>
      <trkpt lat="47.42871" lon="0.89931">
        <ele>134</ele>
        <time>2013-09-01T07:13:06.571Z</time>
      </trkpt>
      <trkpt lat="47.42875" lon="0.89931">
        <ele>133</ele>
        <time>2013-09-01T07:13:07.584Z</time>
      </trkpt>
      <trkpt lat="47.42881" lon="0.89929">
        <ele>134</ele>
        <time>2013-09-01T07:13:09.548Z</time>
      </trkpt>
      <trkpt lat="47.42884" lon="0.89929">
        <ele>135</ele>
        <time>2013-09-01T07:13:10.558Z</time>
      </trkpt>
      <trkpt lat="47.42891" lon="0.89935">
        <ele>137</ele>
        <time>2013-09-01T07:13:13.604Z</time>
      </trkpt>
      <trkpt lat="47.42893" lon="0.89939">
        <ele>138</ele>
        <time>2013-09-01T07:13:14.600Z</time>
      </trkpt>
      <trkpt lat="47.42897" lon="0.89944">
        <ele>135</ele>
        <time>2013-09-01T07:13:15.599Z</time>
      </trkpt>
      <trkpt lat="47.42902" lon="0.89945">
        <ele>134</ele>
        <time>2013-09-01T07:13:16.646Z</time>
      </trkpt>
      <trkpt lat="47.4291" lon="0.89948">
        <ele>137</ele>
        <time>2013-09-01T07:13:18.586Z</time>
      </trkpt>
      <trkpt lat="47.42913" lon="0.89951">
        <ele>137</ele>
        <time>2013-09-01T07:13:19.611Z</time>
      </trkpt>
      <trkpt lat="47.42921" lon="0.89954">
        <ele>140</ele>
        <time>2013-09-01T07:13:21.609Z</time>
      </trkpt>
      <trkpt lat="47.42925" lon="0.89955">
        <ele>141</ele>
        <time>2013-09-01T07:13:22.604Z</time>
      </trkpt>
      <trkpt lat="47.4293" lon="0.89959">
        <ele>142</ele>
        <time>2013-09-01T07:13:24.600Z</time>
      </trkpt>
      <trkpt lat="47.42932" lon="0.89963">
        <ele>142</ele>
        <time>2013-09-01T07:13:25.594Z</time>
      </trkpt>
      <trkpt lat="47.4294" lon="0.8997">
        <ele>142</ele>
        <time>2013-09-01T07:13:27.599Z</time>
      </trkpt>
      <trkpt lat="47.42944" lon="0.89972">
        <ele>142</ele>
        <time>2013-09-01T07:13:28.553Z</time>
      </trkpt>
      <trkpt lat="47.42951" lon="0.89977">
        <ele>141</ele>
        <time>2013-09-01T07:13:30.544Z</time>
      </trkpt>
      <trkpt lat="47.42955" lon="0.89979">
        <ele>141</ele>
        <time>2013-09-01T07:13:31.564Z</time>
      </trkpt>
      <trkpt lat="47.42961" lon="0.89984">
        <ele>141</ele>
        <time>2013-09-01T07:13:33.637Z</time>
      </trkpt>
      <trkpt lat="47.42963" lon="0.89987">
        <ele>141</ele>
        <time>2013-09-01T07:13:34.551Z</time>
      </trkpt>
      <trkpt lat="47.42966" lon="0.89995">
        <ele>141</ele>
        <time>2013-09-01T07:13:36.599Z</time>
      </trkpt>
      <trkpt lat="47.42967" lon="0.9">
        <ele>142</ele>
        <time>2013-09-01T07:13:37.599Z</time>
      </trkpt>
      <trkpt lat="47.42971" lon="0.90004">
        <ele>143</ele>
        <time>2013-09-01T07:13:39.545Z</time>
      </trkpt>
      <trkpt lat="47.42974" lon="0.90008">
        <ele>143</ele>
        <time>2013-09-01T07:13:40.546Z</time>
      </trkpt>
      <trkpt lat="47.42982" lon="0.90015">
        <ele>142</ele>
        <time>2013-09-01T07:13:42.613Z</time>
      </trkpt>
      <trkpt lat="47.42985" lon="0.90017">
        <ele>142</ele>
        <time>2013-09-01T07:13:43.605Z</time>
      </trkpt>
      <trkpt lat="47.4299" lon="0.90023">
        <ele>143</ele>
        <time>2013-09-01T07:13:45.562Z</time>
      </trkpt>
      <trkpt lat="47.42993" lon="0.90026">
        <ele>141</ele>
        <time>2013-09-01T07:13:46.609Z</time>
      </trkpt>
      <trkpt lat="47.42999" lon="0.90031">
        <ele>142</ele>
        <time>2013-09-01T07:13:48.594Z</time>
      </trkpt>
      <trkpt lat="47.43002" lon="0.90034">
        <ele>142</ele>
        <time>2013-09-01T07:13:49.551Z</time>
      </trkpt>
      <trkpt lat="47.43005" lon="0.90041">
        <ele>145</ele>
        <time>2013-09-01T07:13:51.559Z</time>
      </trkpt>
      <trkpt lat="47.43007" lon="0.90045">
        <ele>145</ele>
        <time>2013-09-01T07:13:52.609Z</time>
      </trkpt>
      <trkpt lat="47.4301" lon="0.90052">
        <ele>146</ele>
        <time>2013-09-01T07:13:54.574Z</time>
      </trkpt>
      <trkpt lat="47.43012" lon="0.90056">
        <ele>147</ele>
        <time>2013-09-01T07:13:55.620Z</time>
      </trkpt>
      <trkpt lat="47.43016" lon="0.90064">
        <ele>145</ele>
        <time>2013-09-01T07:13:57.609Z</time>
      </trkpt>
      <trkpt lat="47.43018" lon="0.9007">
        <ele>143</ele>
        <time>2013-09-01T07:13:58.549Z</time>
      </trkpt>
      <trkpt lat="47.4302" lon="0.90077">
        <ele>141</ele>
        <time>2013-09-01T07:13:59.599Z</time>
      </trkpt>
      <trkpt lat="47.43021" lon="0.90083">
        <ele>140</ele>
        <time>2013-09-01T07:14:00.557Z</time>
      </trkpt>
      <trkpt lat="47.43024" lon="0.90093">
        <ele>140</ele>
        <time>2013-09-01T07:14:02.559Z</time>
      </trkpt>
      <trkpt lat="47.43026" lon="0.90095">
        <ele>140</ele>
        <time>2013-09-01T07:14:03.610Z</time>
      </trkpt>
      <trkpt lat="47.43032" lon="0.901">
        <ele>141</ele>
        <time>2013-09-01T07:14:05.610Z</time>
      </trkpt>
      <trkpt lat="47.43034" lon="0.90103">
        <ele>141</ele>
        <time>2013-09-01T07:14:06.567Z</time>
      </trkpt>
      <trkpt lat="47.43038" lon="0.90111">
        <ele>141</ele>
        <time>2013-09-01T07:14:08.613Z</time>
      </trkpt>
      <trkpt lat="47.43039" lon="0.90117">
        <ele>140</ele>
        <time>2013-09-01T07:14:09.548Z</time>
      </trkpt>
      <trkpt lat="47.43045" lon="0.90125">
        <ele>138</ele>
        <time>2013-09-01T07:14:11.610Z</time>
      </trkpt>
      <trkpt lat="47.43046" lon="0.90127">
        <ele>138</ele>
        <time>2013-09-01T07:14:12.604Z</time>
      </trkpt>
      <trkpt lat="47.43052" lon="0.90133">
        <ele>139</ele>
        <time>2013-09-01T07:14:14.605Z</time>
      </trkpt>
      <trkpt lat="47.43054" lon="0.90135">
        <ele>139</ele>
        <time>2013-09-01T07:14:15.657Z</time>
      </trkpt>
      <trkpt lat="47.43059" lon="0.90141">
        <ele>140</ele>
        <time>2013-09-01T07:14:17.560Z</time>
      </trkpt>
      <trkpt lat="47.43061" lon="0.90145">
        <ele>140</ele>
        <time>2013-09-01T07:14:18.564Z</time>
      </trkpt>
      <trkpt lat="47.43065" lon="0.90152">
        <ele>140</ele>
        <time>2013-09-01T07:14:20.557Z</time>
      </trkpt>
      <trkpt lat="47.43067" lon="0.90155">
        <ele>140</ele>
        <time>2013-09-01T07:14:21.580Z</time>
      </trkpt>
      <trkpt lat="47.43074" lon="0.90157">
        <ele>148</ele>
        <time>2013-09-01T07:14:25.609Z</time>
      </trkpt>
      <trkpt lat="47.43077" lon="0.90157">
        <ele>149</ele>
        <time>2013-09-01T07:14:26.557Z</time>
      </trkpt>
      <trkpt lat="47.43086" lon="0.90154">
        <ele>151</ele>
        <time>2013-09-01T07:14:29.548Z</time>
      </trkpt>
      <trkpt lat="47.4309" lon="0.90152">
        <ele>152</ele>
        <time>2013-09-01T07:14:30.567Z</time>
      </trkpt>
      <trkpt lat="47.43097" lon="0.90148">
        <ele>152</ele>
        <time>2013-09-01T07:14:32.661Z</time>
      </trkpt>
      <trkpt lat="47.431" lon="0.90146">
        <ele>152</ele>
        <time>2013-09-01T07:14:33.657Z</time>
      </trkpt>
      <trkpt lat="47.43107" lon="0.90142">
        <ele>154</ele>
        <time>2013-09-01T07:14:35.600Z</time>
      </trkpt>
      <trkpt lat="47.43111" lon="0.90139">
        <ele>153</ele>
        <time>2013-09-01T07:14:36.616Z</time>
      </trkpt>
      <trkpt lat="47.43119" lon="0.90135">
        <ele>155</ele>
        <time>2013-09-01T07:14:38.653Z</time>
      </trkpt>
      <trkpt lat="47.43122" lon="0.90133">
        <ele>155</ele>
        <time>2013-09-01T07:14:39.599Z</time>
      </trkpt>
      <trkpt lat="47.43131" lon="0.90132">
        <ele>156</ele>
        <time>2013-09-01T07:14:42.602Z</time>
      </trkpt>
      <trkpt lat="47.43134" lon="0.90133">
        <ele>155</ele>
        <time>2013-09-01T07:14:43.703Z</time>
      </trkpt>
      <trkpt lat="47.43143" lon="0.90131">
        <ele>156</ele>
        <time>2013-09-01T07:14:46.599Z</time>
      </trkpt>
      <trkpt lat="47.43146" lon="0.90131">
        <ele>157</ele>
        <time>2013-09-01T07:14:47.553Z</time>
      </trkpt>
      <trkpt lat="47.43155" lon="0.90131">
        <ele>159</ele>
        <time>2013-09-01T07:14:50.609Z</time>
      </trkpt>
      <trkpt lat="47.43158" lon="0.90131">
        <ele>159</ele>
        <time>2013-09-01T07:14:51.618Z</time>
      </trkpt>
      <trkpt lat="47.43167" lon="0.90135">
        <ele>157</ele>
        <time>2013-09-01T07:14:54.550Z</time>
      </trkpt>
      <trkpt lat="47.4317" lon="0.90135">
        <ele>157</ele>
        <time>2013-09-01T07:14:55.553Z</time>
      </trkpt>
      <trkpt lat="47.43177" lon="0.90137">
        <ele>158</ele>
        <time>2013-09-01T07:14:57.548Z</time>
      </trkpt>
      <trkpt lat="47.43179" lon="0.90137">
        <ele>158</ele>
        <time>2013-09-01T07:14:58.547Z</time>
      </trkpt>
      <trkpt lat="47.43186" lon="0.90137">
        <ele>157</ele>
        <time>2013-09-01T07:15:00.575Z</time>
      </trkpt>
      <trkpt lat="47.43189" lon="0.90139">
        <ele>157</ele>
        <time>2013-09-01T07:15:01.606Z</time>
      </trkpt>
      <trkpt lat="47.43198" lon="0.9014">
        <ele>157</ele>
        <time>2013-09-01T07:15:04.604Z</time>
      </trkpt>
      <trkpt lat="47.43201" lon="0.90141">
        <ele>157</ele>
        <time>2013-09-01T07:15:05.613Z</time>
      </trkpt>
      <trkpt lat="47.43208" lon="0.90144">
        <ele>157</ele>
        <time>2013-09-01T07:15:07.605Z</time>
      </trkpt>
      <trkpt lat="47.43212" lon="0.90144">
        <ele>157</ele>
        <time>2013-09-01T07:15:08.615Z</time>
      </trkpt>
      <trkpt lat="47.43217" lon="0.90146">
        <ele>155</ele>
        <time>2013-09-01T07:15:10.557Z</time>
      </trkpt>
      <trkpt lat="47.4322" lon="0.90146">
        <ele>156</ele>
        <time>2013-09-01T07:15:11.553Z</time>
      </trkpt>
      <trkpt lat="47.43228" lon="0.9015">
        <ele>154</ele>
        <time>2013-09-01T07:15:14.584Z</time>
      </trkpt>
      <trkpt lat="47.4323" lon="0.90152">
        <ele>155</ele>
        <time>2013-09-01T07:15:15.651Z</time>
      </trkpt>
      <trkpt lat="47.43236" lon="0.90159">
        <ele>153</ele>
        <time>2013-09-01T07:15:19.609Z</time>
      </trkpt>
      <trkpt lat="47.43239" lon="0.90161">
        <ele>152</ele>
        <time>2013-09-01T07:15:20.619Z</time>
      </trkpt>
      <trkpt lat="47.43245" lon="0.90167">
        <ele>151</ele>
        <time>2013-09-01T07:15:23.596Z</time>
      </trkpt>
      <trkpt lat="47.43247" lon="0.90168">
        <ele>151</ele>
        <time>2013-09-01T07:15:24.558Z</time>
      </trkpt>
      <trkpt lat="47.43254" lon="0.90173">
        <ele>151</ele>
        <time>2013-09-01T07:15:27.565Z</time>
      </trkpt>
      <trkpt lat="47.43256" lon="0.90174">
        <ele>152</ele>
        <time>2013-09-01T07:15:28.572Z</time>
      </trkpt>
      <trkpt lat="47.43262" lon="0.9018">
        <ele>153</ele>
        <time>2013-09-01T07:15:31.604Z</time>
      </trkpt>
      <trkpt lat="47.43263" lon="0.90182">
        <ele>152</ele>
        <time>2013-09-01T07:15:32.666Z</time>
      </trkpt>
      <trkpt lat="47.43271" lon="0.90182">
        <ele>154</ele>
        <time>2013-09-01T07:15:37.608Z</time>
      </trkpt>
      <trkpt lat="47.43274" lon="0.90182">
        <ele>154</ele>
        <time>2013-09-01T07:15:38.646Z</time>
      </trkpt>
      <trkpt lat="47.43281" lon="0.90185">
        <ele>152</ele>
        <time>2013-09-01T07:15:40.609Z</time>
      </trkpt>
      <trkpt lat="47.43283" lon="0.90185">
        <ele>152</ele>
        <time>2013-09-01T07:15:41.617Z</time>
      </trkpt>
      <trkpt lat="47.4329" lon="0.90191">
        <ele>153</ele>
        <time>2013-09-01T07:15:46.600Z</time>
      </trkpt>
      <trkpt lat="47.43291" lon="0.90193">
        <ele>152</ele>
        <time>2013-09-01T07:15:47.605Z</time>
      </trkpt>
      <trkpt lat="47.43288" lon="0.90201">
        <ele>151</ele>
        <time>2013-09-01T07:15:49.551Z</time>
      </trkpt>
      <trkpt lat="47.43286" lon="0.90206">
        <ele>151</ele>
        <time>2013-09-01T07:15:50.550Z</time>
      </trkpt>
      <trkpt lat="47.43282" lon="0.90215">
        <ele>151</ele>
        <time>2013-09-01T07:15:52.592Z</time>
      </trkpt>
      <trkpt lat="47.4328" lon="0.90219">
        <ele>151</ele>
        <time>2013-09-01T07:15:53.609Z</time>
      </trkpt>
      <trkpt lat="47.43277" lon="0.90227">
        <ele>150</ele>
        <time>2013-09-01T07:15:55.553Z</time>
      </trkpt>
      <trkpt lat="47.43275" lon="0.90232">
        <ele>151</ele>
        <time>2013-09-01T07:15:56.551Z</time>
      </trkpt>
      <trkpt lat="47.4327" lon="0.90242">
        <ele>151</ele>
        <time>2013-09-01T07:15:59.553Z</time>
      </trkpt>
      <trkpt lat="47.43268" lon="0.90245">
        <ele>150</ele>
        <time>2013-09-01T07:16:00.547Z</time>
      </trkpt>
      <trkpt lat="47.43262" lon="0.90255">
        <ele>153</ele>
        <time>2013-09-01T07:16:04.604Z</time>
      </trkpt>
      <trkpt lat="47.4326" lon="0.90259">
        <ele>153</ele>
        <time>2013-09-01T07:16:05.604Z</time>
      </trkpt>
      <trkpt lat="47.43255" lon="0.90268">
        <ele>154</ele>
        <time>2013-09-01T07:16:09.598Z</time>
      </trkpt>
      <trkpt lat="47.43254" lon="0.9027">
        <ele>155</ele>
        <time>2013-09-01T07:16:10.540Z</time>
      </trkpt>
      <trkpt lat="47.4325" lon="0.90279">
        <ele>153</ele>
        <time>2013-09-01T07:16:13.557Z</time>
      </trkpt>
      <trkpt lat="47.43248" lon="0.90283">
        <ele>153</ele>
        <time>2013-09-01T07:16:14.589Z</time>
      </trkpt>
      <trkpt lat="47.43248" lon="0.90294">
        <ele>153</ele>
        <time>2013-09-01T07:16:17.593Z</time>
      </trkpt>
      <trkpt lat="47.43248" lon="0.90298">
        <ele>154</ele>
        <time>2013-09-01T07:16:18.577Z</time>
      </trkpt>
      <trkpt lat="47.43251" lon="0.90307">
        <ele>155</ele>
        <time>2013-09-01T07:16:20.606Z</time>
      </trkpt>
      <trkpt lat="47.43251" lon="0.90311">
        <ele>155</ele>
        <time>2013-09-01T07:16:21.559Z</time>
      </trkpt>
      <trkpt lat="47.43254" lon="0.90322">
        <ele>155</ele>
        <time>2013-09-01T07:16:24.609Z</time>
      </trkpt>
      <trkpt lat="47.43254" lon="0.90326">
        <ele>156</ele>
        <time>2013-09-01T07:16:25.636Z</time>
      </trkpt>
      <trkpt lat="47.43256" lon="0.90335">
        <ele>157</ele>
        <time>2013-09-01T07:16:27.618Z</time>
      </trkpt>
      <trkpt lat="47.43256" lon="0.90339">
        <ele>157</ele>
        <time>2013-09-01T07:16:28.582Z</time>
      </trkpt>
      <trkpt lat="47.43257" lon="0.90352">
        <ele>157</ele>
        <time>2013-09-01T07:16:31.616Z</time>
      </trkpt>
      <trkpt lat="47.43257" lon="0.90356">
        <ele>157</ele>
        <time>2013-09-01T07:16:32.680Z</time>
      </trkpt>
      <trkpt lat="47.43258" lon="0.90365">
        <ele>157</ele>
        <time>2013-09-01T07:16:34.685Z</time>
      </trkpt>
      <trkpt lat="47.43259" lon="0.90369">
        <ele>156</ele>
        <time>2013-09-01T07:16:35.628Z</time>
      </trkpt>
      <trkpt lat="47.4326" lon="0.9038">
        <ele>156</ele>
        <time>2013-09-01T07:16:37.634Z</time>
      </trkpt>
      <trkpt lat="47.4326" lon="0.90384">
        <ele>156</ele>
        <time>2013-09-01T07:16:38.712Z</time>
      </trkpt>
      <trkpt lat="47.43262" lon="0.90397">
        <ele>155</ele>
        <time>2013-09-01T07:16:41.677Z</time>
      </trkpt>
      <trkpt lat="47.43263" lon="0.90401">
        <ele>155</ele>
        <time>2013-09-01T07:16:42.689Z</time>
      </trkpt>
      <trkpt lat="47.43264" lon="0.90414">
        <ele>155</ele>
        <time>2013-09-01T07:16:45.688Z</time>
      </trkpt>
      <trkpt lat="47.43265" lon="0.90416">
        <ele>155</ele>
        <time>2013-09-01T07:16:46.676Z</time>
      </trkpt>
      <trkpt lat="47.43273" lon="0.90416">
        <ele>157</ele>
        <time>2013-09-01T07:16:49.634Z</time>
      </trkpt>
      <trkpt lat="47.43276" lon="0.90418">
        <ele>157</ele>
        <time>2013-09-01T07:16:50.641Z</time>
      </trkpt>
      <trkpt lat="47.43285" lon="0.90418">
        <ele>157</ele>
        <time>2013-09-01T07:16:53.691Z</time>
      </trkpt>
      <trkpt lat="47.43288" lon="0.9042">
        <ele>158</ele>
        <time>2013-09-01T07:16:54.642Z</time>
      </trkpt>
      <trkpt lat="47.43294" lon="0.90421">
        <ele>158</ele>
        <time>2013-09-01T07:16:56.704Z</time>
      </trkpt>
      <trkpt lat="47.43298" lon="0.90422">
        <ele>158</ele>
        <time>2013-09-01T07:16:57.690Z</time>
      </trkpt>
      <trkpt lat="47.43304" lon="0.90423">
        <ele>158</ele>
        <time>2013-09-01T07:16:59.634Z</time>
      </trkpt>
      <trkpt lat="47.43307" lon="0.90423">
        <ele>158</ele>
        <time>2013-09-01T07:17:00.641Z</time>
      </trkpt>
      <trkpt lat="47.43314" lon="0.90425">
        <ele>159</ele>
        <time>2013-09-01T07:17:02.659Z</time>
      </trkpt>
      <trkpt lat="47.43317" lon="0.90425">
        <ele>159</ele>
        <time>2013-09-01T07:17:03.681Z</time>
      </trkpt>
      <trkpt lat="47.43325" lon="0.90427">
        <ele>160</ele>
        <time>2013-09-01T07:17:05.632Z</time>
      </trkpt>
      <trkpt lat="47.43328" lon="0.90427">
        <ele>160</ele>
        <time>2013-09-01T07:17:06.637Z</time>
      </trkpt>
      <trkpt lat="47.43335" lon="0.90427">
        <ele>160</ele>
        <time>2013-09-01T07:17:08.681Z</time>
      </trkpt>
      <trkpt lat="47.43338" lon="0.90429">
        <ele>160</ele>
        <time>2013-09-01T07:17:09.845Z</time>
      </trkpt>
      <trkpt lat="47.43347" lon="0.90429">
        <ele>160</ele>
        <time>2013-09-01T07:17:11.635Z</time>
      </trkpt>
      <trkpt lat="47.43351" lon="0.90431">
        <ele>159</ele>
        <time>2013-09-01T07:17:12.656Z</time>
      </trkpt>
      <trkpt lat="47.4336" lon="0.90434">
        <ele>159</ele>
        <time>2013-09-01T07:17:14.685Z</time>
      </trkpt>
      <trkpt lat="47.43365" lon="0.90433">
        <ele>159</ele>
        <time>2013-09-01T07:17:15.687Z</time>
      </trkpt>
      <trkpt lat="47.43374" lon="0.90435">
        <ele>159</ele>
        <time>2013-09-01T07:17:17.681Z</time>
      </trkpt>
      <trkpt lat="47.43378" lon="0.90436">
        <ele>159</ele>
        <time>2013-09-01T07:17:18.654Z</time>
      </trkpt>
      <trkpt lat="47.43386" lon="0.90437">
        <ele>158</ele>
        <time>2013-09-01T07:17:20.677Z</time>
      </trkpt>
      <trkpt lat="47.43391" lon="0.90438">
        <ele>158</ele>
        <time>2013-09-01T07:17:21.709Z</time>
      </trkpt>
      <trkpt lat="47.43399" lon="0.9044">
        <ele>158</ele>
        <time>2013-09-01T07:17:23.640Z</time>
      </trkpt>
      <trkpt lat="47.43404" lon="0.90442">
        <ele>158</ele>
        <time>2013-09-01T07:17:24.690Z</time>
      </trkpt>
      <trkpt lat="47.43408" lon="0.90442">
        <ele>159</ele>
        <time>2013-09-01T07:17:25.639Z</time>
      </trkpt>
      <trkpt lat="47.43413" lon="0.90444">
        <ele>158</ele>
        <time>2013-09-01T07:17:26.640Z</time>
      </trkpt>
      <trkpt lat="47.43418" lon="0.90444">
        <ele>158</ele>
        <time>2013-09-01T07:17:27.650Z</time>
      </trkpt>
      <trkpt lat="47.43422" lon="0.90446">
        <ele>158</ele>
        <time>2013-09-01T07:17:28.629Z</time>
      </trkpt>
      <trkpt lat="47.43428" lon="0.90446">
        <ele>158</ele>
        <time>2013-09-01T07:17:29.632Z</time>
      </trkpt>
      <trkpt lat="47.43433" lon="0.90446">
        <ele>158</ele>
        <time>2013-09-01T07:17:30.660Z</time>
      </trkpt>
      <trkpt lat="47.43437" lon="0.90448">
        <ele>158</ele>
        <time>2013-09-01T07:17:31.634Z</time>
      </trkpt>
      <trkpt lat="47.43443" lon="0.9045">
        <ele>158</ele>
        <time>2013-09-01T07:17:32.743Z</time>
      </trkpt>
      <trkpt lat="47.43448" lon="0.90453">
        <ele>158</ele>
        <time>2013-09-01T07:17:33.632Z</time>
      </trkpt>
      <trkpt lat="47.43452" lon="0.90453">
        <ele>158</ele>
        <time>2013-09-01T07:17:34.636Z</time>
      </trkpt>
      <trkpt lat="47.43457" lon="0.90455">
        <ele>158</ele>
        <time>2013-09-01T07:17:35.649Z</time>
      </trkpt>
      <trkpt lat="47.43462" lon="0.90457">
        <ele>158</ele>
        <time>2013-09-01T07:17:36.687Z</time>
      </trkpt>
      <trkpt lat="47.43466" lon="0.90459">
        <ele>158</ele>
        <time>2013-09-01T07:17:37.681Z</time>
      </trkpt>
      <trkpt lat="47.43469" lon="0.90465">
        <ele>157</ele>
        <time>2013-09-01T07:17:38.726Z</time>
      </trkpt>
      <trkpt lat="47.43473" lon="0.9047">
        <ele>158</ele>
        <time>2013-09-01T07:17:39.640Z</time>
      </trkpt>
      <trkpt lat="47.43475" lon="0.90476">
        <ele>157</ele>
        <time>2013-09-01T07:17:40.619Z</time>
      </trkpt>
      <trkpt lat="47.43477" lon="0.90483">
        <ele>157</ele>
        <time>2013-09-01T07:17:41.671Z</time>
      </trkpt>
      <trkpt lat="47.43478" lon="0.90489">
        <ele>157</ele>
        <time>2013-09-01T07:17:42.681Z</time>
      </trkpt>
      <trkpt lat="47.4348" lon="0.90498">
        <ele>158</ele>
        <time>2013-09-01T07:17:43.796Z</time>
      </trkpt>
      <trkpt lat="47.43481" lon="0.90504">
        <ele>158</ele>
        <time>2013-09-01T07:17:44.635Z</time>
      </trkpt>
      <trkpt lat="47.43482" lon="0.90511">
        <ele>158</ele>
        <time>2013-09-01T07:17:45.650Z</time>
      </trkpt>
      <trkpt lat="47.43483" lon="0.90517">
        <ele>158</ele>
        <time>2013-09-01T07:17:46.681Z</time>
      </trkpt>
      <trkpt lat="47.43485" lon="0.9053">
        <ele>158</ele>
        <time>2013-09-01T07:17:48.690Z</time>
      </trkpt>
      <trkpt lat="47.43486" lon="0.90538">
        <ele>158</ele>
        <time>2013-09-01T07:17:49.690Z</time>
      </trkpt>
      <trkpt lat="47.43486" lon="0.90545">
        <ele>158</ele>
        <time>2013-09-01T07:17:50.690Z</time>
      </trkpt>
      <trkpt lat="47.43488" lon="0.90551">
        <ele>158</ele>
        <time>2013-09-01T07:17:51.686Z</time>
      </trkpt>
      <trkpt lat="47.43489" lon="0.9056">
        <ele>158</ele>
        <time>2013-09-01T07:17:52.690Z</time>
      </trkpt>
      <trkpt lat="47.4349" lon="0.90567">
        <ele>158</ele>
        <time>2013-09-01T07:17:53.695Z</time>
      </trkpt>
      <trkpt lat="47.43491" lon="0.90579">
        <ele>159</ele>
        <time>2013-09-01T07:17:55.653Z</time>
      </trkpt>
      <trkpt lat="47.43492" lon="0.90588">
        <ele>159</ele>
        <time>2013-09-01T07:17:56.695Z</time>
      </trkpt>
      <trkpt lat="47.43492" lon="0.90594">
        <ele>159</ele>
        <time>2013-09-01T07:17:57.683Z</time>
      </trkpt>
      <trkpt lat="47.43493" lon="0.90601">
        <ele>159</ele>
        <time>2013-09-01T07:17:58.703Z</time>
      </trkpt>
      <trkpt lat="47.43493" lon="0.90614">
        <ele>159</ele>
        <time>2013-09-01T07:18:00.651Z</time>
      </trkpt>
      <trkpt lat="47.43493" lon="0.9062">
        <ele>159</ele>
        <time>2013-09-01T07:18:01.655Z</time>
      </trkpt>
      <trkpt lat="47.43494" lon="0.90633">
        <ele>159</ele>
        <time>2013-09-01T07:18:03.682Z</time>
      </trkpt>
      <trkpt lat="47.43494" lon="0.90639">
        <ele>159</ele>
        <time>2013-09-01T07:18:04.691Z</time>
      </trkpt>
      <trkpt lat="47.43494" lon="0.90652">
        <ele>159</ele>
        <time>2013-09-01T07:18:06.681Z</time>
      </trkpt>
      <trkpt lat="47.43495" lon="0.90659">
        <ele>159</ele>
        <time>2013-09-01T07:18:07.682Z</time>
      </trkpt>
      <trkpt lat="47.43495" lon="0.9067">
        <ele>159</ele>
        <time>2013-09-01T07:18:09.690Z</time>
      </trkpt>
      <trkpt lat="47.43495" lon="0.90676">
        <ele>159</ele>
        <time>2013-09-01T07:18:10.689Z</time>
      </trkpt>
      <trkpt lat="47.43496" lon="0.90687">
        <ele>159</ele>
        <time>2013-09-01T07:18:12.634Z</time>
      </trkpt>
      <trkpt lat="47.43496" lon="0.90691">
        <ele>159</ele>
        <time>2013-09-01T07:18:13.628Z</time>
      </trkpt>
      <trkpt lat="47.43497" lon="0.90702">
        <ele>159</ele>
        <time>2013-09-01T07:18:15.632Z</time>
      </trkpt>
      <trkpt lat="47.43497" lon="0.90708">
        <ele>160</ele>
        <time>2013-09-01T07:18:16.692Z</time>
      </trkpt>
      <trkpt lat="47.43499" lon="0.90719">
        <ele>160</ele>
        <time>2013-09-01T07:18:18.682Z</time>
      </trkpt>
      <trkpt lat="47.43501" lon="0.90723">
        <ele>160</ele>
        <time>2013-09-01T07:18:19.640Z</time>
      </trkpt>
      <trkpt lat="47.43504" lon="0.90734">
        <ele>160</ele>
        <time>2013-09-01T07:18:21.681Z</time>
      </trkpt>
      <trkpt lat="47.43506" lon="0.90738">
        <ele>160</ele>
        <time>2013-09-01T07:18:22.686Z</time>
      </trkpt>
      <trkpt lat="47.4351" lon="0.90747">
        <ele>160</ele>
        <time>2013-09-01T07:18:24.647Z</time>
      </trkpt>
      <trkpt lat="47.43513" lon="0.90753">
        <ele>160</ele>
        <time>2013-09-01T07:18:25.226Z</time>
      </trkpt>
      <trkpt lat="47.4352" lon="0.90762">
        <ele>160</ele>
        <time>2013-09-01T07:18:27.160Z</time>
      </trkpt>
      <trkpt lat="47.43523" lon="0.90764">
        <ele>160</ele>
        <time>2013-09-01T07:18:28.198Z</time>
      </trkpt>
      <trkpt lat="47.4353" lon="0.9077">
        <ele>160</ele>
        <time>2013-09-01T07:18:30.124Z</time>
      </trkpt>
      <trkpt lat="47.43534" lon="0.90774">
        <ele>160</ele>
        <time>2013-09-01T07:18:31.180Z</time>
      </trkpt>
      <trkpt lat="47.4354" lon="0.90783">
        <ele>160</ele>
        <time>2013-09-01T07:18:33.119Z</time>
      </trkpt>
      <trkpt lat="47.43543" lon="0.90787">
        <ele>159</ele>
        <time>2013-09-01T07:18:34.109Z</time>
      </trkpt>
      <trkpt lat="47.43546" lon="0.90798">
        <ele>159</ele>
        <time>2013-09-01T07:18:36.127Z</time>
      </trkpt>
      <trkpt lat="47.43548" lon="0.90801">
        <ele>159</ele>
        <time>2013-09-01T07:18:37.218Z</time>
      </trkpt>
      <trkpt lat="47.43556" lon="0.90801">
        <ele>159</ele>
        <time>2013-09-01T07:18:40.196Z</time>
      </trkpt>
      <trkpt lat="47.4356" lon="0.90796">
        <ele>159</ele>
        <time>2013-09-01T07:18:41.232Z</time>
      </trkpt>
      <trkpt lat="47.43567" lon="0.90792">
        <ele>159</ele>
        <time>2013-09-01T07:18:43.235Z</time>
      </trkpt>
      <trkpt lat="47.4357" lon="0.9079">
        <ele>159</ele>
        <time>2013-09-01T07:18:44.128Z</time>
      </trkpt>
      <trkpt lat="47.43578" lon="0.90783">
        <ele>160</ele>
        <time>2013-09-01T07:18:46.176Z</time>
      </trkpt>
      <trkpt lat="47.43581" lon="0.90781">
        <ele>160</ele>
        <time>2013-09-01T07:18:47.184Z</time>
      </trkpt>
      <trkpt lat="47.43585" lon="0.90779">
        <ele>160</ele>
        <time>2013-09-01T07:18:48.175Z</time>
      </trkpt>
      <trkpt lat="47.43589" lon="0.90775">
        <ele>160</ele>
        <time>2013-09-01T07:18:49.176Z</time>
      </trkpt>
      <trkpt lat="47.43594" lon="0.90772">
        <ele>160</ele>
        <time>2013-09-01T07:18:50.180Z</time>
      </trkpt>
      <trkpt lat="47.43598" lon="0.9077">
        <ele>161</ele>
        <time>2013-09-01T07:18:51.180Z</time>
      </trkpt>
      <trkpt lat="47.43606" lon="0.90768">
        <ele>161</ele>
        <time>2013-09-01T07:18:53.187Z</time>
      </trkpt>
      <trkpt lat="47.4361" lon="0.90768">
        <ele>162</ele>
        <time>2013-09-01T07:18:54.132Z</time>
      </trkpt>
      <trkpt lat="47.43618" lon="0.9077">
        <ele>162</ele>
        <time>2013-09-01T07:18:56.185Z</time>
      </trkpt>
      <trkpt lat="47.43623" lon="0.9077">
        <ele>162</ele>
        <time>2013-09-01T07:18:57.175Z</time>
      </trkpt>
      <trkpt lat="47.43631" lon="0.90774">
        <ele>163</ele>
        <time>2013-09-01T07:18:59.180Z</time>
      </trkpt>
      <trkpt lat="47.43636" lon="0.90775">
        <ele>163</ele>
        <time>2013-09-01T07:19:00.127Z</time>
      </trkpt>
      <trkpt lat="47.4364" lon="0.90779">
        <ele>163</ele>
        <time>2013-09-01T07:19:01.134Z</time>
      </trkpt>
      <trkpt lat="47.43644" lon="0.90779">
        <ele>163</ele>
        <time>2013-09-01T07:19:02.181Z</time>
      </trkpt>
      <trkpt lat="47.43649" lon="0.90781">
        <ele>164</ele>
        <time>2013-09-01T07:19:03.177Z</time>
      </trkpt>
      <trkpt lat="47.43653" lon="0.90785">
        <ele>164</ele>
        <time>2013-09-01T07:19:04.190Z</time>
      </trkpt>
      <trkpt lat="47.43657" lon="0.90788">
        <ele>164</ele>
        <time>2013-09-01T07:19:05.180Z</time>
      </trkpt>
      <trkpt lat="47.43662" lon="0.9079">
        <ele>164</ele>
        <time>2013-09-01T07:19:06.185Z</time>
      </trkpt>
      <trkpt lat="47.4367" lon="0.90794">
        <ele>164</ele>
        <time>2013-09-01T07:19:08.184Z</time>
      </trkpt>
      <trkpt lat="47.43674" lon="0.90796">
        <ele>164</ele>
        <time>2013-09-01T07:19:09.137Z</time>
      </trkpt>
      <trkpt lat="47.43682" lon="0.908">
        <ele>164</ele>
        <time>2013-09-01T07:19:11.134Z</time>
      </trkpt>
      <trkpt lat="47.43686" lon="0.90802">
        <ele>165</ele>
        <time>2013-09-01T07:19:12.132Z</time>
      </trkpt>
      <trkpt lat="47.4369" lon="0.90805">
        <ele>165</ele>
        <time>2013-09-01T07:19:13.139Z</time>
      </trkpt>
      <trkpt lat="47.43695" lon="0.90805">
        <ele>165</ele>
        <time>2013-09-01T07:19:14.180Z</time>
      </trkpt>
      <trkpt lat="47.43703" lon="0.90807">
        <ele>166</ele>
        <time>2013-09-01T07:19:16.186Z</time>
      </trkpt>
      <trkpt lat="47.43709" lon="0.90807">
        <ele>166</ele>
        <time>2013-09-01T07:19:17.181Z</time>
      </trkpt>
      <trkpt lat="47.43717" lon="0.90809">
        <ele>166</ele>
        <time>2013-09-01T07:19:19.181Z</time>
      </trkpt>
      <trkpt lat="47.43721" lon="0.90809">
        <ele>166</ele>
        <time>2013-09-01T07:19:20.232Z</time>
      </trkpt>
      <trkpt lat="47.43729" lon="0.90811">
        <ele>166</ele>
        <time>2013-09-01T07:19:22.136Z</time>
      </trkpt>
      <trkpt lat="47.43733" lon="0.90813">
        <ele>166</ele>
        <time>2013-09-01T07:19:23.142Z</time>
      </trkpt>
      <trkpt lat="47.43738" lon="0.90813">
        <ele>166</ele>
        <time>2013-09-01T07:19:24.134Z</time>
      </trkpt>
      <trkpt lat="47.43743" lon="0.90815">
        <ele>166</ele>
        <time>2013-09-01T07:19:25.136Z</time>
      </trkpt>
      <trkpt lat="47.43752" lon="0.9082">
        <ele>166</ele>
        <time>2013-09-01T07:19:27.143Z</time>
      </trkpt>
      <trkpt lat="47.43756" lon="0.90822">
        <ele>166</ele>
        <time>2013-09-01T07:19:28.137Z</time>
      </trkpt>
      <trkpt lat="47.4376" lon="0.90824">
        <ele>166</ele>
        <time>2013-09-01T07:19:29.180Z</time>
      </trkpt>
      <trkpt lat="47.43765" lon="0.90826">
        <ele>165</ele>
        <time>2013-09-01T07:19:30.180Z</time>
      </trkpt>
      <trkpt lat="47.43769" lon="0.90828">
        <ele>165</ele>
        <time>2013-09-01T07:19:31.228Z</time>
      </trkpt>
      <trkpt lat="47.43774" lon="0.9083">
        <ele>165</ele>
        <time>2013-09-01T07:19:32.185Z</time>
      </trkpt>
      <trkpt lat="47.43778" lon="0.90832">
        <ele>165</ele>
        <time>2013-09-01T07:19:33.210Z</time>
      </trkpt>
      <trkpt lat="47.43783" lon="0.90835">
        <ele>165</ele>
        <time>2013-09-01T07:19:34.160Z</time>
      </trkpt>
      <trkpt lat="47.43787" lon="0.90837">
        <ele>165</ele>
        <time>2013-09-01T07:19:35.185Z</time>
      </trkpt>
      <trkpt lat="47.43791" lon="0.90839">
        <ele>165</ele>
        <time>2013-09-01T07:19:36.180Z</time>
      </trkpt>
      <trkpt lat="47.43795" lon="0.90841">
        <ele>165</ele>
        <time>2013-09-01T07:19:37.185Z</time>
      </trkpt>
      <trkpt lat="47.43801" lon="0.90843">
        <ele>165</ele>
        <time>2013-09-01T07:19:38.273Z</time>
      </trkpt>
      <trkpt lat="47.43805" lon="0.90845">
        <ele>165</ele>
        <time>2013-09-01T07:19:39.143Z</time>
      </trkpt>
      <trkpt lat="47.43811" lon="0.90849">
        <ele>165</ele>
        <time>2013-09-01T07:19:40.135Z</time>
      </trkpt>
      <trkpt lat="47.43819" lon="0.90852">
        <ele>165</ele>
        <time>2013-09-01T07:19:42.303Z</time>
      </trkpt>
      <trkpt lat="47.43824" lon="0.90854">
        <ele>165</ele>
        <time>2013-09-01T07:19:43.195Z</time>
      </trkpt>
      <trkpt lat="47.4383" lon="0.90856">
        <ele>165</ele>
        <time>2013-09-01T07:19:44.246Z</time>
      </trkpt>
      <trkpt lat="47.43835" lon="0.90856">
        <ele>165</ele>
        <time>2013-09-01T07:19:45.223Z</time>
      </trkpt>
      <trkpt lat="47.4384" lon="0.90858">
        <ele>164</ele>
        <time>2013-09-01T07:19:46.259Z</time>
      </trkpt>
      <trkpt lat="47.43845" lon="0.90858">
        <ele>164</ele>
        <time>2013-09-01T07:19:47.207Z</time>
      </trkpt>
      <trkpt lat="47.4385" lon="0.9086">
        <ele>163</ele>
        <time>2013-09-01T07:19:48.247Z</time>
      </trkpt>
      <trkpt lat="47.43856" lon="0.9086">
        <ele>163</ele>
        <time>2013-09-01T07:19:49.248Z</time>
      </trkpt>
      <trkpt lat="47.43861" lon="0.9086">
        <ele>162</ele>
        <time>2013-09-01T07:19:50.261Z</time>
      </trkpt>
      <trkpt lat="47.43866" lon="0.90862">
        <ele>162</ele>
        <time>2013-09-01T07:19:51.256Z</time>
      </trkpt>
      <trkpt lat="47.43872" lon="0.90863">
        <ele>161</ele>
        <time>2013-09-01T07:19:52.344Z</time>
      </trkpt>
      <trkpt lat="47.43877" lon="0.90863">
        <ele>161</ele>
        <time>2013-09-01T07:19:53.195Z</time>
      </trkpt>
      <trkpt lat="47.43882" lon="0.90864">
        <ele>161</ele>
        <time>2013-09-01T07:19:54.239Z</time>
      </trkpt>
      <trkpt lat="47.43888" lon="0.90865">
        <ele>160</ele>
        <time>2013-09-01T07:19:55.265Z</time>
      </trkpt>
      <trkpt lat="47.43892" lon="0.90865">
        <ele>160</ele>
        <time>2013-09-01T07:19:56.266Z</time>
      </trkpt>
      <trkpt lat="47.43898" lon="0.90867">
        <ele>160</ele>
        <time>2013-09-01T07:19:57.351Z</time>
      </trkpt>
      <trkpt lat="47.43903" lon="0.90867">
        <ele>160</ele>
        <time>2013-09-01T07:19:58.204Z</time>
      </trkpt>
      <trkpt lat="47.43907" lon="0.90869">
        <ele>160</ele>
        <time>2013-09-01T07:19:59.199Z</time>
      </trkpt>
      <trkpt lat="47.43912" lon="0.90869">
        <ele>159</ele>
        <time>2013-09-01T07:20:00.200Z</time>
      </trkpt>
      <trkpt lat="47.43917" lon="0.90871">
        <ele>159</ele>
        <time>2013-09-01T07:20:01.200Z</time>
      </trkpt>
      <trkpt lat="47.43922" lon="0.90871">
        <ele>159</ele>
        <time>2013-09-01T07:20:02.194Z</time>
      </trkpt>
      <trkpt lat="47.43927" lon="0.90871">
        <ele>159</ele>
        <time>2013-09-01T07:20:03.199Z</time>
      </trkpt>
      <trkpt lat="47.43933" lon="0.90871">
        <ele>159</ele>
        <time>2013-09-01T07:20:04.198Z</time>
      </trkpt>
      <trkpt lat="47.43938" lon="0.90873">
        <ele>159</ele>
        <time>2013-09-01T07:20:05.222Z</time>
      </trkpt>
      <trkpt lat="47.43943" lon="0.90871">
        <ele>159</ele>
        <time>2013-09-01T07:20:06.246Z</time>
      </trkpt>
      <trkpt lat="47.43948" lon="0.90871">
        <ele>159</ele>
        <time>2013-09-01T07:20:07.252Z</time>
      </trkpt>
      <trkpt lat="47.43953" lon="0.90873">
        <ele>159</ele>
        <time>2013-09-01T07:20:08.251Z</time>
      </trkpt>
      <trkpt lat="47.43959" lon="0.90873">
        <ele>159</ele>
        <time>2013-09-01T07:20:09.217Z</time>
      </trkpt>
      <trkpt lat="47.43964" lon="0.90873">
        <ele>159</ele>
        <time>2013-09-01T07:20:10.200Z</time>
      </trkpt>
      <trkpt lat="47.43969" lon="0.90873">
        <ele>159</ele>
        <time>2013-09-01T07:20:11.252Z</time>
      </trkpt>
      <trkpt lat="47.43975" lon="0.90875">
        <ele>159</ele>
        <time>2013-09-01T07:20:12.256Z</time>
      </trkpt>
      <trkpt lat="47.4398" lon="0.90875">
        <ele>159</ele>
        <time>2013-09-01T07:20:13.259Z</time>
      </trkpt>
      <trkpt lat="47.43985" lon="0.90875">
        <ele>158</ele>
        <time>2013-09-01T07:20:14.204Z</time>
      </trkpt>
      <trkpt lat="47.4399" lon="0.90875">
        <ele>158</ele>
        <time>2013-09-01T07:20:15.196Z</time>
      </trkpt>
      <trkpt lat="47.43995" lon="0.90875">
        <ele>158</ele>
        <time>2013-09-01T07:20:16.191Z</time>
      </trkpt>
      <trkpt lat="47.44001" lon="0.90877">
        <ele>158</ele>
        <time>2013-09-01T07:20:17.198Z</time>
      </trkpt>
      <trkpt lat="47.44006" lon="0.90878">
        <ele>157</ele>
        <time>2013-09-01T07:20:18.200Z</time>
      </trkpt>
      <trkpt lat="47.44011" lon="0.90876">
        <ele>157</ele>
        <time>2013-09-01T07:20:19.199Z</time>
      </trkpt>
      <trkpt lat="47.44017" lon="0.90877">
        <ele>157</ele>
        <time>2013-09-01T07:20:20.215Z</time>
      </trkpt>
      <trkpt lat="47.44022" lon="0.90878">
        <ele>157</ele>
        <time>2013-09-01T07:20:21.298Z</time>
      </trkpt>
      <trkpt lat="47.44027" lon="0.90878">
        <ele>157</ele>
        <time>2013-09-01T07:20:22.251Z</time>
      </trkpt>
      <trkpt lat="47.44032" lon="0.90878">
        <ele>157</ele>
        <time>2013-09-01T07:20:23.229Z</time>
      </trkpt>
      <trkpt lat="47.44037" lon="0.90878">
        <ele>157</ele>
        <time>2013-09-01T07:20:24.197Z</time>
      </trkpt>
      <trkpt lat="47.44042" lon="0.90878">
        <ele>157</ele>
        <time>2013-09-01T07:20:25.215Z</time>
      </trkpt>
      <trkpt lat="47.44047" lon="0.90878">
        <ele>157</ele>
        <time>2013-09-01T07:20:26.246Z</time>
      </trkpt>
      <trkpt lat="47.44052" lon="0.90878">
        <ele>157</ele>
        <time>2013-09-01T07:20:27.251Z</time>
      </trkpt>
      <trkpt lat="47.44061" lon="0.90878">
        <ele>157</ele>
        <time>2013-09-01T07:20:29.268Z</time>
      </trkpt>
      <trkpt lat="47.44066" lon="0.90878">
        <ele>157</ele>
        <time>2013-09-01T07:20:30.208Z</time>
      </trkpt>
      <trkpt lat="47.44071" lon="0.90879">
        <ele>157</ele>
        <time>2013-09-01T07:20:31.197Z</time>
      </trkpt>
      <trkpt lat="47.44077" lon="0.9088">
        <ele>157</ele>
        <time>2013-09-01T07:20:32.189Z</time>
      </trkpt>
      <trkpt lat="47.44081" lon="0.9088">
        <ele>157</ele>
        <time>2013-09-01T07:20:33.195Z</time>
      </trkpt>
      <trkpt lat="47.44086" lon="0.9088">
        <ele>157</ele>
        <time>2013-09-01T07:20:34.244Z</time>
      </trkpt>
      <trkpt lat="47.44095" lon="0.9088">
        <ele>158</ele>
        <time>2013-09-01T07:20:36.241Z</time>
      </trkpt>
      <trkpt lat="47.44099" lon="0.9088">
        <ele>158</ele>
        <time>2013-09-01T07:20:37.236Z</time>
      </trkpt>
      <trkpt lat="47.44106" lon="0.90882">
        <ele>158</ele>
        <time>2013-09-01T07:20:39.190Z</time>
      </trkpt>
      <trkpt lat="47.44109" lon="0.90882">
        <ele>157</ele>
        <time>2013-09-01T07:20:40.181Z</time>
      </trkpt>
      <trkpt lat="47.44115" lon="0.9088">
        <ele>158</ele>
        <time>2013-09-01T07:20:42.251Z</time>
      </trkpt>
      <trkpt lat="47.44118" lon="0.90879">
        <ele>158</ele>
        <time>2013-09-01T07:20:43.336Z</time>
      </trkpt>
      <trkpt lat="47.44125" lon="0.90876">
        <ele>161</ele>
        <time>2013-09-01T07:20:47.246Z</time>
      </trkpt>
      <trkpt lat="47.44126" lon="0.90871">
        <ele>162</ele>
        <time>2013-09-01T07:20:48.256Z</time>
      </trkpt>
      <trkpt lat="47.44128" lon="0.90861">
        <ele>164</ele>
        <time>2013-09-01T07:20:50.195Z</time>
      </trkpt>
      <trkpt lat="47.44129" lon="0.90854">
        <ele>164</ele>
        <time>2013-09-01T07:20:51.191Z</time>
      </trkpt>
      <trkpt lat="47.44129" lon="0.90842">
        <ele>165</ele>
        <time>2013-09-01T07:20:53.185Z</time>
      </trkpt>
      <trkpt lat="47.44128" lon="0.90835">
        <ele>166</ele>
        <time>2013-09-01T07:20:54.047Z</time>
      </trkpt>
      <trkpt lat="47.44129" lon="0.90828">
        <ele>167</ele>
        <time>2013-09-01T07:20:55.051Z</time>
      </trkpt>
      <trkpt lat="47.44129" lon="0.90822">
        <ele>167</ele>
        <time>2013-09-01T07:20:56.084Z</time>
      </trkpt>
      <trkpt lat="47.4413" lon="0.90815">
        <ele>166</ele>
        <time>2013-09-01T07:20:57.087Z</time>
      </trkpt>
      <trkpt lat="47.44131" lon="0.90807">
        <ele>166</ele>
        <time>2013-09-01T07:20:58.095Z</time>
      </trkpt>
      <trkpt lat="47.44132" lon="0.90797">
        <ele>165</ele>
        <time>2013-09-01T07:20:59.038Z</time>
      </trkpt>
      <trkpt lat="47.44133" lon="0.90789">
        <ele>165</ele>
        <time>2013-09-01T07:21:00.043Z</time>
      </trkpt>
      <trkpt lat="47.44135" lon="0.90781">
        <ele>164</ele>
        <time>2013-09-01T07:21:01.026Z</time>
      </trkpt>
      <trkpt lat="47.44137" lon="0.90776">
        <ele>163</ele>
        <time>2013-09-01T07:21:02.037Z</time>
      </trkpt>
      <trkpt lat="47.44137" lon="0.90768">
        <ele>163</ele>
        <time>2013-09-01T07:21:03.036Z</time>
      </trkpt>
      <trkpt lat="47.44137" lon="0.90762">
        <ele>163</ele>
        <time>2013-09-01T07:21:04.077Z</time>
      </trkpt>
      <trkpt lat="47.44136" lon="0.90753">
        <ele>162</ele>
        <time>2013-09-01T07:21:05.098Z</time>
      </trkpt>
      <trkpt lat="47.44136" lon="0.90746">
        <ele>162</ele>
        <time>2013-09-01T07:21:06.096Z</time>
      </trkpt>
      <trkpt lat="47.44135" lon="0.9074">
        <ele>162</ele>
        <time>2013-09-01T07:21:07.022Z</time>
      </trkpt>
      <trkpt lat="47.44134" lon="0.90732">
        <ele>162</ele>
        <time>2013-09-01T07:21:08.063Z</time>
      </trkpt>
      <trkpt lat="47.44137" lon="0.90725">
        <ele>161</ele>
        <time>2013-09-01T07:21:09.094Z</time>
      </trkpt>
      <trkpt lat="47.44139" lon="0.90719">
        <ele>160</ele>
        <time>2013-09-01T07:21:10.075Z</time>
      </trkpt>
      <trkpt lat="47.4414" lon="0.90707">
        <ele>164</ele>
        <time>2013-09-01T07:21:12.080Z</time>
      </trkpt>
      <trkpt lat="47.4414" lon="0.90698">
        <ele>164</ele>
        <time>2013-09-01T07:21:13.075Z</time>
      </trkpt>
      <trkpt lat="47.4414" lon="0.90691">
        <ele>165</ele>
        <time>2013-09-01T07:21:14.061Z</time>
      </trkpt>
      <trkpt lat="47.44141" lon="0.90682">
        <ele>165</ele>
        <time>2013-09-01T07:21:15.068Z</time>
      </trkpt>
      <trkpt lat="47.44142" lon="0.90676">
        <ele>166</ele>
        <time>2013-09-01T07:21:16.033Z</time>
      </trkpt>
      <trkpt lat="47.44144" lon="0.90669">
        <ele>166</ele>
        <time>2013-09-01T07:21:17.044Z</time>
      </trkpt>
      <trkpt lat="47.44147" lon="0.90663">
        <ele>166</ele>
        <time>2013-09-01T07:21:18.097Z</time>
      </trkpt>
      <trkpt lat="47.4415" lon="0.90656">
        <ele>167</ele>
        <time>2013-09-01T07:21:19.095Z</time>
      </trkpt>
      <trkpt lat="47.44154" lon="0.90645">
        <ele>169</ele>
        <time>2013-09-01T07:21:21.100Z</time>
      </trkpt>
      <trkpt lat="47.44154" lon="0.9064">
        <ele>170</ele>
        <time>2013-09-01T07:21:22.032Z</time>
      </trkpt>
      <trkpt lat="47.44155" lon="0.90633">
        <ele>172</ele>
        <time>2013-09-01T07:21:23.061Z</time>
      </trkpt>
      <trkpt lat="47.44157" lon="0.90627">
        <ele>171</ele>
        <time>2013-09-01T07:21:24.089Z</time>
      </trkpt>
      <trkpt lat="47.44162" lon="0.90616">
        <ele>171</ele>
        <time>2013-09-01T07:21:26.081Z</time>
      </trkpt>
      <trkpt lat="47.44171" lon="0.9061">
        <ele>164</ele>
        <time>2013-09-01T07:21:27.083Z</time>
      </trkpt>
      <trkpt lat="47.44176" lon="0.90603">
        <ele>164</ele>
        <time>2013-09-01T07:21:28.053Z</time>
      </trkpt>
      <trkpt lat="47.44178" lon="0.90598">
        <ele>165</ele>
        <time>2013-09-01T07:21:29.085Z</time>
      </trkpt>
      <trkpt lat="47.44178" lon="0.90588">
        <ele>168</ele>
        <time>2013-09-01T07:21:31.058Z</time>
      </trkpt>
      <trkpt lat="47.44178" lon="0.9058">
        <ele>170</ele>
        <time>2013-09-01T07:21:32.085Z</time>
      </trkpt>
      <trkpt lat="47.44181" lon="0.90571">
        <ele>169</ele>
        <time>2013-09-01T07:21:33.046Z</time>
      </trkpt>
      <trkpt lat="47.44184" lon="0.90566">
        <ele>169</ele>
        <time>2013-09-01T07:21:34.084Z</time>
      </trkpt>
      <trkpt lat="47.44187" lon="0.9056">
        <ele>169</ele>
        <time>2013-09-01T07:21:35.093Z</time>
      </trkpt>
      <trkpt lat="47.4419" lon="0.90554">
        <ele>169</ele>
        <time>2013-09-01T07:21:36.080Z</time>
      </trkpt>
      <trkpt lat="47.44194" lon="0.90545">
        <ele>170</ele>
        <time>2013-09-01T07:21:37.074Z</time>
      </trkpt>
      <trkpt lat="47.44196" lon="0.90538">
        <ele>170</ele>
        <time>2013-09-01T07:21:38.117Z</time>
      </trkpt>
      <trkpt lat="47.442" lon="0.90532">
        <ele>170</ele>
        <time>2013-09-01T07:21:39.028Z</time>
      </trkpt>
      <trkpt lat="47.44206" lon="0.90524">
        <ele>168</ele>
        <time>2013-09-01T07:21:40.054Z</time>
      </trkpt>
      <trkpt lat="47.44212" lon="0.90517">
        <ele>166</ele>
        <time>2013-09-01T07:21:41.089Z</time>
      </trkpt>
      <trkpt lat="47.44215" lon="0.90511">
        <ele>166</ele>
        <time>2013-09-01T07:21:42.038Z</time>
      </trkpt>
      <trkpt lat="47.44221" lon="0.905">
        <ele>166</ele>
        <time>2013-09-01T07:21:44.085Z</time>
      </trkpt>
      <trkpt lat="47.44224" lon="0.90495">
        <ele>165</ele>
        <time>2013-09-01T07:21:45.088Z</time>
      </trkpt>
      <trkpt lat="47.44228" lon="0.90489">
        <ele>164</ele>
        <time>2013-09-01T07:21:46.089Z</time>
      </trkpt>
      <trkpt lat="47.44233" lon="0.90483">
        <ele>162</ele>
        <time>2013-09-01T07:21:47.084Z</time>
      </trkpt>
      <trkpt lat="47.44239" lon="0.90476">
        <ele>160</ele>
        <time>2013-09-01T07:21:48.075Z</time>
      </trkpt>
      <trkpt lat="47.44246" lon="0.90472">
        <ele>157</ele>
        <time>2013-09-01T07:21:49.075Z</time>
      </trkpt>
      <trkpt lat="47.44251" lon="0.90467">
        <ele>158</ele>
        <time>2013-09-01T07:21:50.079Z</time>
      </trkpt>
      <trkpt lat="47.44254" lon="0.90462">
        <ele>159</ele>
        <time>2013-09-01T07:21:51.081Z</time>
      </trkpt>
      <trkpt lat="47.44262" lon="0.90459">
        <ele>159</ele>
        <time>2013-09-01T07:21:55.085Z</time>
      </trkpt>
      <trkpt lat="47.44265" lon="0.90463">
        <ele>159</ele>
        <time>2013-09-01T07:21:56.070Z</time>
      </trkpt>
      <trkpt lat="47.44269" lon="0.90471">
        <ele>157</ele>
        <time>2013-09-01T07:21:57.080Z</time>
      </trkpt>
      <trkpt lat="47.44272" lon="0.90477">
        <ele>157</ele>
        <time>2013-09-01T07:21:58.075Z</time>
      </trkpt>
      <trkpt lat="47.44275" lon="0.90483">
        <ele>157</ele>
        <time>2013-09-01T07:21:59.029Z</time>
      </trkpt>
      <trkpt lat="47.44278" lon="0.90487">
        <ele>157</ele>
        <time>2013-09-01T07:22:00.058Z</time>
      </trkpt>
      <trkpt lat="47.44284" lon="0.90492">
        <ele>158</ele>
        <time>2013-09-01T07:22:02.052Z</time>
      </trkpt>
      <trkpt lat="47.44287" lon="0.90494">
        <ele>160</ele>
        <time>2013-09-01T07:22:03.094Z</time>
      </trkpt>
      <trkpt lat="47.44291" lon="0.90494">
        <ele>162</ele>
        <time>2013-09-01T07:22:04.033Z</time>
      </trkpt>
      <trkpt lat="47.44297" lon="0.90492">
        <ele>164</ele>
        <time>2013-09-01T07:22:05.048Z</time>
      </trkpt>
      <trkpt lat="47.44306" lon="0.90495">
        <ele>166</ele>
        <time>2013-09-01T07:22:07.038Z</time>
      </trkpt>
      <trkpt lat="47.4431" lon="0.90497">
        <ele>166</ele>
        <time>2013-09-01T07:22:08.040Z</time>
      </trkpt>
      <trkpt lat="47.44315" lon="0.905">
        <ele>166</ele>
        <time>2013-09-01T07:22:09.039Z</time>
      </trkpt>
      <trkpt lat="47.44321" lon="0.905">
        <ele>165</ele>
        <time>2013-09-01T07:22:10.045Z</time>
      </trkpt>
      <trkpt lat="47.44327" lon="0.90507">
        <ele>168</ele>
        <time>2013-09-01T07:22:15.138Z</time>
      </trkpt>
      <trkpt lat="47.4433" lon="0.90507">
        <ele>169</ele>
        <time>2013-09-01T07:22:16.090Z</time>
      </trkpt>
      <trkpt lat="47.44336" lon="0.9051">
        <ele>169</ele>
        <time>2013-09-01T07:22:18.075Z</time>
      </trkpt>
      <trkpt lat="47.44339" lon="0.90514">
        <ele>169</ele>
        <time>2013-09-01T07:22:19.042Z</time>
      </trkpt>
      <trkpt lat="47.44346" lon="0.90519">
        <ele>168</ele>
        <time>2013-09-01T07:22:21.106Z</time>
      </trkpt>
      <trkpt lat="47.4435" lon="0.90521">
        <ele>168</ele>
        <time>2013-09-01T07:22:22.056Z</time>
      </trkpt>
      <trkpt lat="47.44354" lon="0.90525">
        <ele>167</ele>
        <time>2013-09-01T07:22:23.139Z</time>
      </trkpt>
      <trkpt lat="47.44359" lon="0.90529">
        <ele>168</ele>
        <time>2013-09-01T07:22:24.038Z</time>
      </trkpt>
      <trkpt lat="47.44364" lon="0.90535">
        <ele>169</ele>
        <time>2013-09-01T07:22:26.095Z</time>
      </trkpt>
      <trkpt lat="47.44367" lon="0.90537">
        <ele>170</ele>
        <time>2013-09-01T07:22:27.118Z</time>
      </trkpt>
      <trkpt lat="47.44374" lon="0.9054">
        <ele>172</ele>
        <time>2013-09-01T07:22:29.044Z</time>
      </trkpt>
      <trkpt lat="47.44377" lon="0.90541">
        <ele>172</ele>
        <time>2013-09-01T07:22:30.032Z</time>
      </trkpt>
      <trkpt lat="47.44385" lon="0.90547">
        <ele>172</ele>
        <time>2013-09-01T07:22:32.185Z</time>
      </trkpt>
      <trkpt lat="47.44388" lon="0.90549">
        <ele>173</ele>
        <time>2013-09-01T07:22:33.045Z</time>
      </trkpt>
      <trkpt lat="47.44394" lon="0.90554">
        <ele>174</ele>
        <time>2013-09-01T07:22:35.039Z</time>
      </trkpt>
      <trkpt lat="47.44398" lon="0.90556">
        <ele>173</ele>
        <time>2013-09-01T07:22:36.037Z</time>
      </trkpt>
      <trkpt lat="47.44405" lon="0.9056">
        <ele>171</ele>
        <time>2013-09-01T07:22:38.040Z</time>
      </trkpt>
      <trkpt lat="47.4441" lon="0.90564">
        <ele>171</ele>
        <time>2013-09-01T07:22:39.095Z</time>
      </trkpt>
      <trkpt lat="47.44417" lon="0.90569">
        <ele>173</ele>
        <time>2013-09-01T07:22:41.095Z</time>
      </trkpt>
      <trkpt lat="47.44419" lon="0.90571">
        <ele>173</ele>
        <time>2013-09-01T07:22:42.053Z</time>
      </trkpt>
      <trkpt lat="47.44424" lon="0.90575">
        <ele>174</ele>
        <time>2013-09-01T07:22:44.066Z</time>
      </trkpt>
      <trkpt lat="47.44428" lon="0.90577">
        <ele>173</ele>
        <time>2013-09-01T07:22:45.094Z</time>
      </trkpt>
      <trkpt lat="47.44436" lon="0.90583">
        <ele>174</ele>
        <time>2013-09-01T07:22:49.018Z</time>
      </trkpt>
      <trkpt lat="47.44437" lon="0.90586">
        <ele>175</ele>
        <time>2013-09-01T07:22:50.048Z</time>
      </trkpt>
      <trkpt lat="47.44443" lon="0.90592">
        <ele>176</ele>
        <time>2013-09-01T07:22:53.070Z</time>
      </trkpt>
      <trkpt lat="47.44446" lon="0.90593">
        <ele>175</ele>
        <time>2013-09-01T07:22:54.081Z</time>
      </trkpt>
      <trkpt lat="47.44453" lon="0.906">
        <ele>174</ele>
        <time>2013-09-01T07:22:57.040Z</time>
      </trkpt>
      <trkpt lat="47.44456" lon="0.90605">
        <ele>174</ele>
        <time>2013-09-01T07:22:58.075Z</time>
      </trkpt>
      <trkpt lat="47.44462" lon="0.9061">
        <ele>173</ele>
        <time>2013-09-01T07:23:00.201Z</time>
      </trkpt>
      <trkpt lat="47.44465" lon="0.90611">
        <ele>173</ele>
        <time>2013-09-01T07:23:01.031Z</time>
      </trkpt>
      <trkpt lat="47.44471" lon="0.90616">
        <ele>172</ele>
        <time>2013-09-01T07:23:03.059Z</time>
      </trkpt>
      <trkpt lat="47.44474" lon="0.90618">
        <ele>171</ele>
        <time>2013-09-01T07:23:04.085Z</time>
      </trkpt>
      <trkpt lat="47.44482" lon="0.9062">
        <ele>171</ele>
        <time>2013-09-01T07:23:06.086Z</time>
      </trkpt>
      <trkpt lat="47.44486" lon="0.90622">
        <ele>170</ele>
        <time>2013-09-01T07:23:07.096Z</time>
      </trkpt>
      <trkpt lat="47.44494" lon="0.90628">
        <ele>168</ele>
        <time>2013-09-01T07:23:09.042Z</time>
      </trkpt>
      <trkpt lat="47.44497" lon="0.90631">
        <ele>167</ele>
        <time>2013-09-01T07:23:10.017Z</time>
      </trkpt>
      <trkpt lat="47.44504" lon="0.90637">
        <ele>165</ele>
        <time>2013-09-01T07:23:12.086Z</time>
      </trkpt>
      <trkpt lat="47.44509" lon="0.90638">
        <ele>165</ele>
        <time>2013-09-01T07:23:13.069Z</time>
      </trkpt>
      <trkpt lat="47.44516" lon="0.90641">
        <ele>164</ele>
        <time>2013-09-01T07:23:15.129Z</time>
      </trkpt>
      <trkpt lat="47.44519" lon="0.90645">
        <ele>164</ele>
        <time>2013-09-01T07:23:16.090Z</time>
      </trkpt>
      <trkpt lat="47.44525" lon="0.90652">
        <ele>162</ele>
        <time>2013-09-01T07:23:18.056Z</time>
      </trkpt>
      <trkpt lat="47.44527" lon="0.90655">
        <ele>162</ele>
        <time>2013-09-01T07:23:19.070Z</time>
      </trkpt>
      <trkpt lat="47.44531" lon="0.90657">
        <ele>163</ele>
        <time>2013-09-01T07:23:20.018Z</time>
      </trkpt>
      <trkpt lat="47.44537" lon="0.90659">
        <ele>164</ele>
        <time>2013-09-01T07:23:21.056Z</time>
      </trkpt>
      <trkpt lat="47.44544" lon="0.90663">
        <ele>165</ele>
        <time>2013-09-01T07:23:23.062Z</time>
      </trkpt>
      <trkpt lat="47.44547" lon="0.90665">
        <ele>167</ele>
        <time>2013-09-01T07:23:24.080Z</time>
      </trkpt>
      <trkpt lat="47.44554" lon="0.90669">
        <ele>170</ele>
        <time>2013-09-01T07:23:26.075Z</time>
      </trkpt>
      <trkpt lat="47.44557" lon="0.90672">
        <ele>170</ele>
        <time>2013-09-01T07:23:27.075Z</time>
      </trkpt>
      <trkpt lat="47.44564" lon="0.90676">
        <ele>171</ele>
        <time>2013-09-01T07:23:29.094Z</time>
      </trkpt>
      <trkpt lat="47.44567" lon="0.9068">
        <ele>171</ele>
        <time>2013-09-01T07:23:30.074Z</time>
      </trkpt>
      <trkpt lat="47.44574" lon="0.90685">
        <ele>172</ele>
        <time>2013-09-01T07:23:32.075Z</time>
      </trkpt>
      <trkpt lat="47.44578" lon="0.90687">
        <ele>172</ele>
        <time>2013-09-01T07:23:33.152Z</time>
      </trkpt>
      <trkpt lat="47.44586" lon="0.9069">
        <ele>171</ele>
        <time>2013-09-01T07:23:35.077Z</time>
      </trkpt>
      <trkpt lat="47.4459" lon="0.90693">
        <ele>171</ele>
        <time>2013-09-01T07:23:36.080Z</time>
      </trkpt>
      <trkpt lat="47.44595" lon="0.90697">
        <ele>171</ele>
        <time>2013-09-01T07:23:38.038Z</time>
      </trkpt>
      <trkpt lat="47.44598" lon="0.90699">
        <ele>173</ele>
        <time>2013-09-01T07:23:39.080Z</time>
      </trkpt>
      <trkpt lat="47.44605" lon="0.90704">
        <ele>174</ele>
        <time>2013-09-01T07:23:41.080Z</time>
      </trkpt>
      <trkpt lat="47.44609" lon="0.90706">
        <ele>174</ele>
        <time>2013-09-01T07:23:42.061Z</time>
      </trkpt>
      <trkpt lat="47.44613" lon="0.90708">
        <ele>174</ele>
        <time>2013-09-01T07:23:43.029Z</time>
      </trkpt>
      <trkpt lat="47.44617" lon="0.9071">
        <ele>174</ele>
        <time>2013-09-01T07:23:44.031Z</time>
      </trkpt>
      <trkpt lat="47.44625" lon="0.90714">
        <ele>175</ele>
        <time>2013-09-01T07:23:46.026Z</time>
      </trkpt>
      <trkpt lat="47.44627" lon="0.90718">
        <ele>174</ele>
        <time>2013-09-01T07:23:47.022Z</time>
      </trkpt>
      <trkpt lat="47.44633" lon="0.90723">
        <ele>171</ele>
        <time>2013-09-01T07:23:49.028Z</time>
      </trkpt>
      <trkpt lat="47.44637" lon="0.90727">
        <ele>171</ele>
        <time>2013-09-01T07:23:50.032Z</time>
      </trkpt>
      <trkpt lat="47.44645" lon="0.90732">
        <ele>171</ele>
        <time>2013-09-01T07:23:52.033Z</time>
      </trkpt>
      <trkpt lat="47.44649" lon="0.90736">
        <ele>172</ele>
        <time>2013-09-01T07:23:53.061Z</time>
      </trkpt>
      <trkpt lat="47.44653" lon="0.90738">
        <ele>171</ele>
        <time>2013-09-01T07:23:54.046Z</time>
      </trkpt>
      <trkpt lat="47.44657" lon="0.90742">
        <ele>171</ele>
        <time>2013-09-01T07:23:55.078Z</time>
      </trkpt>
      <trkpt lat="47.44665" lon="0.90747">
        <ele>170</ele>
        <time>2013-09-01T07:23:57.084Z</time>
      </trkpt>
      <trkpt lat="47.44668" lon="0.90751">
        <ele>170</ele>
        <time>2013-09-01T07:23:58.075Z</time>
      </trkpt>
      <trkpt lat="47.44676" lon="0.90753">
        <ele>172</ele>
        <time>2013-09-01T07:24:00.035Z</time>
      </trkpt>
      <trkpt lat="47.4468" lon="0.90753">
        <ele>172</ele>
        <time>2013-09-01T07:24:01.034Z</time>
      </trkpt>
      <trkpt lat="47.44688" lon="0.90757">
        <ele>174</ele>
        <time>2013-09-01T07:24:03.080Z</time>
      </trkpt>
      <trkpt lat="47.44692" lon="0.90761">
        <ele>175</ele>
        <time>2013-09-01T07:24:04.079Z</time>
      </trkpt>
      <trkpt lat="47.44698" lon="0.90766">
        <ele>174</ele>
        <time>2013-09-01T07:24:06.079Z</time>
      </trkpt>
      <trkpt lat="47.44701" lon="0.90768">
        <ele>174</ele>
        <time>2013-09-01T07:24:07.080Z</time>
      </trkpt>
      <trkpt lat="47.44707" lon="0.90772">
        <ele>175</ele>
        <time>2013-09-01T07:24:09.075Z</time>
      </trkpt>
      <trkpt lat="47.4471" lon="0.90776">
        <ele>174</ele>
        <time>2013-09-01T07:24:10.080Z</time>
      </trkpt>
      <trkpt lat="47.44714" lon="0.90781">
        <ele>175</ele>
        <time>2013-09-01T07:24:12.234Z</time>
      </trkpt>
      <trkpt lat="47.44717" lon="0.90785">
        <ele>175</ele>
        <time>2013-09-01T07:24:13.048Z</time>
      </trkpt>
      <trkpt lat="47.44724" lon="0.90788">
        <ele>176</ele>
        <time>2013-09-01T07:24:15.088Z</time>
      </trkpt>
      <trkpt lat="47.44727" lon="0.90789">
        <ele>176</ele>
        <time>2013-09-01T07:24:16.080Z</time>
      </trkpt>
      <trkpt lat="47.44732" lon="0.90794">
        <ele>176</ele>
        <time>2013-09-01T07:24:18.079Z</time>
      </trkpt>
      <trkpt lat="47.44735" lon="0.90796">
        <ele>176</ele>
        <time>2013-09-01T07:24:19.075Z</time>
      </trkpt>
      <trkpt lat="47.44742" lon="0.90805">
        <ele>176</ele>
        <time>2013-09-01T07:24:25.093Z</time>
      </trkpt>
      <trkpt lat="47.44744" lon="0.90807">
        <ele>176</ele>
        <time>2013-09-01T07:24:26.085Z</time>
      </trkpt>
      <trkpt lat="47.44752" lon="0.90811">
        <ele>177</ele>
        <time>2013-09-01T07:24:32.080Z</time>
      </trkpt>
      <trkpt lat="47.44754" lon="0.90811">
        <ele>177</ele>
        <time>2013-09-01T07:24:33.104Z</time>
      </trkpt>
      <trkpt lat="47.44761" lon="0.90815">
        <ele>178</ele>
        <time>2013-09-01T07:24:38.036Z</time>
      </trkpt>
      <trkpt lat="47.44762" lon="0.90817">
        <ele>177</ele>
        <time>2013-09-01T07:24:39.029Z</time>
      </trkpt>
      <trkpt lat="47.4477" lon="0.9082">
        <ele>176</ele>
        <time>2013-09-01T07:24:42.052Z</time>
      </trkpt>
      <trkpt lat="47.44772" lon="0.90822">
        <ele>176</ele>
        <time>2013-09-01T07:24:43.141Z</time>
      </trkpt>
      <trkpt lat="47.44779" lon="0.90826">
        <ele>175</ele>
        <time>2013-09-01T07:24:48.200Z</time>
      </trkpt>
      <trkpt lat="47.4478" lon="0.90828">
        <ele>176</ele>
        <time>2013-09-01T07:24:49.035Z</time>
      </trkpt>
      <trkpt lat="47.44786" lon="0.90837">
        <ele>174</ele>
        <time>2013-09-01T07:24:53.027Z</time>
      </trkpt>
      <trkpt lat="47.44788" lon="0.90839">
        <ele>173</ele>
        <time>2013-09-01T07:24:54.034Z</time>
      </trkpt>
      <trkpt lat="47.44789" lon="0.90839">
        <ele>172</ele>
        <time>2013-09-01T07:25:00.040Z</time>
      </trkpt>
      <trkpt lat="47.44789" lon="0.90839">
        <ele>172</ele>
        <time>2013-09-01T07:25:01.044Z</time>
      </trkpt>
      <trkpt lat="47.44789" lon="0.90839">
        <ele>172</ele>
        <time>2013-09-01T07:25:09.019Z</time>
      </trkpt>
      <trkpt lat="47.44789" lon="0.9084">
        <ele>172</ele>
        <time>2013-09-01T07:25:10.029Z</time>
      </trkpt>
      <trkpt lat="47.44789" lon="0.90841">
        <ele>172</ele>
        <time>2013-09-01T07:25:12.079Z</time>
      </trkpt>
      <trkpt lat="47.44789" lon="0.90841">
        <ele>172</ele>
        <time>2013-09-01T07:25:13.032Z</time>
      </trkpt>
      <trkpt lat="47.44789" lon="0.90841">
        <ele>172</ele>
        <time>2013-09-01T07:25:25.045Z</time>
      </trkpt>
      <trkpt lat="47.44788" lon="0.90841">
        <ele>172</ele>
        <time>2013-09-01T07:25:26.033Z</time>
      </trkpt>
      <trkpt lat="47.44788" lon="0.90841">
        <ele>172</ele>
        <time>2013-09-01T07:25:27.031Z</time>
      </trkpt>
      <trkpt lat="47.44788" lon="0.90841">
        <ele>172</ele>
        <time>2013-09-01T07:25:28.031Z</time>
      </trkpt>
      <trkpt lat="47.44788" lon="0.90841">
        <ele>172</ele>
        <time>2013-09-01T07:26:16.093Z</time>
      </trkpt>
      <trkpt lat="47.44788" lon="0.90843">
        <ele>172</ele>
        <time>2013-09-01T07:26:17.101Z</time>
      </trkpt>
      <trkpt lat="47.44788" lon="0.90842">
        <ele>173</ele>
        <time>2013-09-01T07:26:18.086Z</time>
      </trkpt>
      <trkpt lat="47.44788" lon="0.90841">
        <ele>173</ele>
        <time>2013-09-01T07:26:19.095Z</time>
      </trkpt>
      <trkpt lat="47.44796" lon="0.90843">
        <ele>176</ele>
        <time>2013-09-01T07:26:23.063Z</time>
      </trkpt>
      <trkpt lat="47.44799" lon="0.90843">
        <ele>176</ele>
        <time>2013-09-01T07:26:24.094Z</time>
      </trkpt>
      <trkpt lat="47.44804" lon="0.90845">
        <ele>176</ele>
        <time>2013-09-01T07:26:26.081Z</time>
      </trkpt>
      <trkpt lat="47.44807" lon="0.90847">
        <ele>175</ele>
        <time>2013-09-01T07:26:27.086Z</time>
      </trkpt>
      <trkpt lat="47.44812" lon="0.90852">
        <ele>174</ele>
        <time>2013-09-01T07:26:29.049Z</time>
      </trkpt>
      <trkpt lat="47.44815" lon="0.90854">
        <ele>173</ele>
        <time>2013-09-01T07:26:30.043Z</time>
      </trkpt>
      <trkpt lat="47.44823" lon="0.9086">
        <ele>173</ele>
        <time>2013-09-01T07:26:32.065Z</time>
      </trkpt>
      <trkpt lat="47.44828" lon="0.90863">
        <ele>172</ele>
        <time>2013-09-01T07:26:33.060Z</time>
      </trkpt>
      <trkpt lat="47.44833" lon="0.90867">
        <ele>173</ele>
        <time>2013-09-01T07:26:35.048Z</time>
      </trkpt>
      <trkpt lat="47.44836" lon="0.90869">
        <ele>174</ele>
        <time>2013-09-01T07:26:36.034Z</time>
      </trkpt>
      <trkpt lat="47.44844" lon="0.90875">
        <ele>173</ele>
        <time>2013-09-01T07:26:38.150Z</time>
      </trkpt>
      <trkpt lat="47.44849" lon="0.90879">
        <ele>171</ele>
        <time>2013-09-01T07:26:39.127Z</time>
      </trkpt>
      <trkpt lat="47.44854" lon="0.90884">
        <ele>171</ele>
        <time>2013-09-01T07:26:40.089Z</time>
      </trkpt>
      <trkpt lat="47.4486" lon="0.90888">
        <ele>169</ele>
        <time>2013-09-01T07:26:41.084Z</time>
      </trkpt>
      <trkpt lat="47.44864" lon="0.90894">
        <ele>168</ele>
        <time>2013-09-01T07:26:42.066Z</time>
      </trkpt>
      <trkpt lat="47.44869" lon="0.90899">
        <ele>167</ele>
        <time>2013-09-01T07:26:43.080Z</time>
      </trkpt>
      <trkpt lat="47.44876" lon="0.90906">
        <ele>165</ele>
        <time>2013-09-01T07:26:45.099Z</time>
      </trkpt>
      <trkpt lat="47.4488" lon="0.90908">
        <ele>164</ele>
        <time>2013-09-01T07:26:46.099Z</time>
      </trkpt>
      <trkpt lat="47.44886" lon="0.90914">
        <ele>163</ele>
        <time>2013-09-01T07:26:48.032Z</time>
      </trkpt>
      <trkpt lat="47.44891" lon="0.90916">
        <ele>164</ele>
        <time>2013-09-01T07:26:49.106Z</time>
      </trkpt>
      <trkpt lat="47.44898" lon="0.90921">
        <ele>164</ele>
        <time>2013-09-01T07:26:51.100Z</time>
      </trkpt>
      <trkpt lat="47.449" lon="0.90923">
        <ele>166</ele>
        <time>2013-09-01T07:26:52.081Z</time>
      </trkpt>
      <trkpt lat="47.44907" lon="0.9093">
        <ele>166</ele>
        <time>2013-09-01T07:26:54.072Z</time>
      </trkpt>
      <trkpt lat="47.4491" lon="0.90934">
        <ele>166</ele>
        <time>2013-09-01T07:26:55.104Z</time>
      </trkpt>
      <trkpt lat="47.44915" lon="0.90936">
        <ele>167</ele>
        <time>2013-09-01T07:26:56.055Z</time>
      </trkpt>
      <trkpt lat="47.44919" lon="0.90939">
        <ele>166</ele>
        <time>2013-09-01T07:26:57.028Z</time>
      </trkpt>
      <trkpt lat="47.44922" lon="0.90942">
        <ele>164</ele>
        <time>2013-09-01T07:26:58.038Z</time>
      </trkpt>
      <trkpt lat="47.44928" lon="0.90946">
        <ele>163</ele>
        <time>2013-09-01T07:26:59.061Z</time>
      </trkpt>
      <trkpt lat="47.44933" lon="0.9095">
        <ele>161</ele>
        <time>2013-09-01T07:27:00.203Z</time>
      </trkpt>
      <trkpt lat="47.44938" lon="0.90954">
        <ele>160</ele>
        <time>2013-09-01T07:27:01.040Z</time>
      </trkpt>
      <trkpt lat="47.44944" lon="0.90959">
        <ele>160</ele>
        <time>2013-09-01T07:27:02.055Z</time>
      </trkpt>
      <trkpt lat="47.44949" lon="0.90962">
        <ele>160</ele>
        <time>2013-09-01T07:27:03.048Z</time>
      </trkpt>
      <trkpt lat="47.44955" lon="0.90965">
        <ele>161</ele>
        <time>2013-09-01T07:27:04.081Z</time>
      </trkpt>
      <trkpt lat="47.44962" lon="0.90968">
        <ele>161</ele>
        <time>2013-09-01T07:27:05.074Z</time>
      </trkpt>
      <trkpt lat="47.44968" lon="0.9097">
        <ele>160</ele>
        <time>2013-09-01T07:27:06.084Z</time>
      </trkpt>
      <trkpt lat="47.44974" lon="0.90974">
        <ele>160</ele>
        <time>2013-09-01T07:27:07.075Z</time>
      </trkpt>
      <trkpt lat="47.44977" lon="0.90978">
        <ele>160</ele>
        <time>2013-09-01T07:27:08.016Z</time>
      </trkpt>
      <trkpt lat="47.44981" lon="0.90983">
        <ele>161</ele>
        <time>2013-09-01T07:27:09.070Z</time>
      </trkpt>
      <trkpt lat="47.44985" lon="0.90985">
        <ele>160</ele>
        <time>2013-09-01T07:27:10.065Z</time>
      </trkpt>
      <trkpt lat="47.4499" lon="0.90989">
        <ele>158</ele>
        <time>2013-09-01T07:27:11.060Z</time>
      </trkpt>
      <trkpt lat="47.44995" lon="0.90992">
        <ele>157</ele>
        <time>2013-09-01T07:27:12.079Z</time>
      </trkpt>
      <trkpt lat="47.44999" lon="0.90995">
        <ele>157</ele>
        <time>2013-09-01T07:27:13.088Z</time>
      </trkpt>
      <trkpt lat="47.45004" lon="0.91">
        <ele>158</ele>
        <time>2013-09-01T07:27:14.029Z</time>
      </trkpt>
      <trkpt lat="47.45008" lon="0.91002">
        <ele>158</ele>
        <time>2013-09-01T07:27:15.026Z</time>
      </trkpt>
      <trkpt lat="47.45011" lon="0.90992">
        <ele>167</ele>
        <time>2013-09-01T07:27:21.119Z</time>
      </trkpt>
      <trkpt lat="47.4501" lon="0.90986">
        <ele>170</ele>
        <time>2013-09-01T07:27:22.023Z</time>
      </trkpt>
      <trkpt lat="47.45011" lon="0.90974">
        <ele>172</ele>
        <time>2013-09-01T07:27:24.085Z</time>
      </trkpt>
      <trkpt lat="47.45012" lon="0.90968">
        <ele>172</ele>
        <time>2013-09-01T07:27:25.079Z</time>
      </trkpt>
      <trkpt lat="47.45015" lon="0.90959">
        <ele>174</ele>
        <time>2013-09-01T07:27:27.084Z</time>
      </trkpt>
      <trkpt lat="47.45017" lon="0.90956">
        <ele>174</ele>
        <time>2013-09-01T07:27:28.110Z</time>
      </trkpt>
      <trkpt lat="47.4502" lon="0.90944">
        <ele>175</ele>
        <time>2013-09-01T07:27:31.012Z</time>
      </trkpt>
      <trkpt lat="47.4502" lon="0.90938">
        <ele>176</ele>
        <time>2013-09-01T07:27:32.033Z</time>
      </trkpt>
      <trkpt lat="47.45019" lon="0.90932">
        <ele>178</ele>
        <time>2013-09-01T07:27:33.025Z</time>
      </trkpt>
      <trkpt lat="47.45019" lon="0.90923">
        <ele>178</ele>
        <time>2013-09-01T07:27:34.080Z</time>
      </trkpt>
      <trkpt lat="47.45024" lon="0.90913">
        <ele>175</ele>
        <time>2013-09-01T07:27:36.068Z</time>
      </trkpt>
      <trkpt lat="47.45027" lon="0.90908">
        <ele>173</ele>
        <time>2013-09-01T07:27:37.070Z</time>
      </trkpt>
      <trkpt lat="47.4503" lon="0.90901">
        <ele>170</ele>
        <time>2013-09-01T07:27:38.176Z</time>
      </trkpt>
      <trkpt lat="47.45034" lon="0.90897">
        <ele>167</ele>
        <time>2013-09-01T07:27:39.079Z</time>
      </trkpt>
      <trkpt lat="47.45039" lon="0.90886">
        <ele>164</ele>
        <time>2013-09-01T07:27:41.082Z</time>
      </trkpt>
      <trkpt lat="47.45041" lon="0.90882">
        <ele>161</ele>
        <time>2013-09-01T07:27:42.055Z</time>
      </trkpt>
      <trkpt lat="47.45045" lon="0.90876">
        <ele>158</ele>
        <time>2013-09-01T07:27:43.041Z</time>
      </trkpt>
      <trkpt lat="47.45048" lon="0.90871">
        <ele>158</ele>
        <time>2013-09-01T07:27:44.062Z</time>
      </trkpt>
      <trkpt lat="47.45051" lon="0.90861">
        <ele>158</ele>
        <time>2013-09-01T07:27:46.095Z</time>
      </trkpt>
      <trkpt lat="47.45053" lon="0.90856">
        <ele>158</ele>
        <time>2013-09-01T07:27:47.095Z</time>
      </trkpt>
      <trkpt lat="47.45056" lon="0.90847">
        <ele>159</ele>
        <time>2013-09-01T07:27:49.046Z</time>
      </trkpt>
      <trkpt lat="47.45057" lon="0.90843">
        <ele>159</ele>
        <time>2013-09-01T07:27:50.044Z</time>
      </trkpt>
      <trkpt lat="47.4506" lon="0.90831">
        <ele>160</ele>
        <time>2013-09-01T07:27:53.080Z</time>
      </trkpt>
      <trkpt lat="47.45062" lon="0.90828">
        <ele>161</ele>
        <time>2013-09-01T07:27:54.033Z</time>
      </trkpt>
      <trkpt lat="47.45065" lon="0.90815">
        <ele>162</ele>
        <time>2013-09-01T07:27:57.090Z</time>
      </trkpt>
      <trkpt lat="47.45066" lon="0.90811">
        <ele>161</ele>
        <time>2013-09-01T07:27:58.088Z</time>
      </trkpt>
      <trkpt lat="47.45067" lon="0.90805">
        <ele>161</ele>
        <time>2013-09-01T07:27:59.062Z</time>
      </trkpt>
      <trkpt lat="47.45068" lon="0.90798">
        <ele>160</ele>
        <time>2013-09-01T07:28:00.245Z</time>
      </trkpt>
      <trkpt lat="47.4507" lon="0.90789">
        <ele>160</ele>
        <time>2013-09-01T07:28:02.035Z</time>
      </trkpt>
      <trkpt lat="47.45071" lon="0.90785">
        <ele>160</ele>
        <time>2013-09-01T07:28:03.039Z</time>
      </trkpt>
      <trkpt lat="47.45074" lon="0.90774">
        <ele>159</ele>
        <time>2013-09-01T07:28:05.088Z</time>
      </trkpt>
      <trkpt lat="47.45077" lon="0.90772">
        <ele>159</ele>
        <time>2013-09-01T07:28:06.032Z</time>
      </trkpt>
      <trkpt lat="47.45084" lon="0.9077">
        <ele>159</ele>
        <time>2013-09-01T07:28:08.038Z</time>
      </trkpt>
      <trkpt lat="47.45087" lon="0.9077">
        <ele>159</ele>
        <time>2013-09-01T07:28:09.085Z</time>
      </trkpt>
      <trkpt lat="47.45094" lon="0.90768">
        <ele>160</ele>
        <time>2013-09-01T07:28:11.074Z</time>
      </trkpt>
      <trkpt lat="47.45098" lon="0.90768">
        <ele>160</ele>
        <time>2013-09-01T07:28:12.075Z</time>
      </trkpt>
      <trkpt lat="47.45105" lon="0.90766">
        <ele>160</ele>
        <time>2013-09-01T07:28:14.027Z</time>
      </trkpt>
      <trkpt lat="47.45108" lon="0.90766">
        <ele>160</ele>
        <time>2013-09-01T07:28:15.075Z</time>
      </trkpt>
      <trkpt lat="47.45115" lon="0.90764">
        <ele>160</ele>
        <time>2013-09-01T07:28:17.032Z</time>
      </trkpt>
      <trkpt lat="47.45119" lon="0.90762">
        <ele>161</ele>
        <time>2013-09-01T07:28:18.074Z</time>
      </trkpt>
      <trkpt lat="47.45126" lon="0.90759">
        <ele>161</ele>
        <time>2013-09-01T07:28:20.063Z</time>
      </trkpt>
      <trkpt lat="47.4513" lon="0.90758">
        <ele>161</ele>
        <time>2013-09-01T07:28:21.070Z</time>
      </trkpt>
      <trkpt lat="47.45138" lon="0.90755">
        <ele>161</ele>
        <time>2013-09-01T07:28:23.073Z</time>
      </trkpt>
      <trkpt lat="47.45141" lon="0.90753">
        <ele>161</ele>
        <time>2013-09-01T07:28:24.075Z</time>
      </trkpt>
      <trkpt lat="47.45148" lon="0.90751">
        <ele>161</ele>
        <time>2013-09-01T07:28:26.075Z</time>
      </trkpt>
      <trkpt lat="47.45153" lon="0.90749">
        <ele>161</ele>
        <time>2013-09-01T07:28:27.092Z</time>
      </trkpt>
      <trkpt lat="47.45159" lon="0.90746">
        <ele>162</ele>
        <time>2013-09-01T07:28:29.074Z</time>
      </trkpt>
      <trkpt lat="47.45163" lon="0.90745">
        <ele>162</ele>
        <time>2013-09-01T07:28:30.075Z</time>
      </trkpt>
      <trkpt lat="47.45171" lon="0.90743">
        <ele>162</ele>
        <time>2013-09-01T07:28:32.078Z</time>
      </trkpt>
      <trkpt lat="47.45174" lon="0.9074">
        <ele>163</ele>
        <time>2013-09-01T07:28:33.084Z</time>
      </trkpt>
      <trkpt lat="47.45182" lon="0.90738">
        <ele>163</ele>
        <time>2013-09-01T07:28:35.018Z</time>
      </trkpt>
      <trkpt lat="47.45186" lon="0.90736">
        <ele>163</ele>
        <time>2013-09-01T07:28:36.038Z</time>
      </trkpt>
      <trkpt lat="47.45192" lon="0.90734">
        <ele>164</ele>
        <time>2013-09-01T07:28:38.126Z</time>
      </trkpt>
      <trkpt lat="47.45196" lon="0.90734">
        <ele>164</ele>
        <time>2013-09-01T07:28:39.397Z</time>
      </trkpt>
      <trkpt lat="47.45204" lon="0.9073">
        <ele>164</ele>
        <time>2013-09-01T07:28:41.403Z</time>
      </trkpt>
      <trkpt lat="47.45208" lon="0.90729">
        <ele>164</ele>
        <time>2013-09-01T07:28:42.392Z</time>
      </trkpt>
      <trkpt lat="47.45216" lon="0.90725">
        <ele>163</ele>
        <time>2013-09-01T07:28:44.447Z</time>
      </trkpt>
      <trkpt lat="47.45219" lon="0.90725">
        <ele>163</ele>
        <time>2013-09-01T07:28:45.452Z</time>
      </trkpt>
      <trkpt lat="47.45227" lon="0.90723">
        <ele>162</ele>
        <time>2013-09-01T07:28:47.447Z</time>
      </trkpt>
      <trkpt lat="47.45231" lon="0.90721">
        <ele>162</ele>
        <time>2013-09-01T07:28:48.554Z</time>
      </trkpt>
      <trkpt lat="47.45239" lon="0.90719">
        <ele>161</ele>
        <time>2013-09-01T07:28:50.576Z</time>
      </trkpt>
      <trkpt lat="47.45243" lon="0.90717">
        <ele>161</ele>
        <time>2013-09-01T07:28:51.402Z</time>
      </trkpt>
      <trkpt lat="47.4525" lon="0.90715">
        <ele>161</ele>
        <time>2013-09-01T07:28:53.393Z</time>
      </trkpt>
      <trkpt lat="47.45254" lon="0.90712">
        <ele>161</ele>
        <time>2013-09-01T07:28:54.399Z</time>
      </trkpt>
      <trkpt lat="47.45261" lon="0.90708">
        <ele>160</ele>
        <time>2013-09-01T07:28:56.441Z</time>
      </trkpt>
      <trkpt lat="47.45264" lon="0.90704">
        <ele>160</ele>
        <time>2013-09-01T07:28:57.441Z</time>
      </trkpt>
      <trkpt lat="47.45271" lon="0.90695">
        <ele>160</ele>
        <time>2013-09-01T07:28:59.390Z</time>
      </trkpt>
      <trkpt lat="47.45273" lon="0.90691">
        <ele>160</ele>
        <time>2013-09-01T07:29:00.403Z</time>
      </trkpt>
      <trkpt lat="47.45278" lon="0.9068">
        <ele>160</ele>
        <time>2013-09-01T07:29:02.568Z</time>
      </trkpt>
      <trkpt lat="47.45281" lon="0.90676">
        <ele>160</ele>
        <time>2013-09-01T07:29:03.457Z</time>
      </trkpt>
      <trkpt lat="47.45287" lon="0.90667">
        <ele>160</ele>
        <time>2013-09-01T07:29:05.399Z</time>
      </trkpt>
      <trkpt lat="47.45289" lon="0.90663">
        <ele>160</ele>
        <time>2013-09-01T07:29:06.431Z</time>
      </trkpt>
      <trkpt lat="47.45294" lon="0.90654">
        <ele>160</ele>
        <time>2013-09-01T07:29:08.452Z</time>
      </trkpt>
      <trkpt lat="47.45298" lon="0.9065">
        <ele>160</ele>
        <time>2013-09-01T07:29:09.478Z</time>
      </trkpt>
      <trkpt lat="47.45304" lon="0.90642">
        <ele>161</ele>
        <time>2013-09-01T07:29:11.381Z</time>
      </trkpt>
      <trkpt lat="47.45306" lon="0.90635">
        <ele>161</ele>
        <time>2013-09-01T07:29:12.431Z</time>
      </trkpt>
      <trkpt lat="47.45311" lon="0.90626">
        <ele>161</ele>
        <time>2013-09-01T07:29:14.585Z</time>
      </trkpt>
      <trkpt lat="47.45315" lon="0.90622">
        <ele>161</ele>
        <time>2013-09-01T07:29:15.615Z</time>
      </trkpt>
      <trkpt lat="47.45321" lon="0.90616">
        <ele>161</ele>
        <time>2013-09-01T07:29:17.622Z</time>
      </trkpt>
      <trkpt lat="47.45324" lon="0.90612">
        <ele>160</ele>
        <time>2013-09-01T07:29:18.607Z</time>
      </trkpt>
      <trkpt lat="47.45331" lon="0.90603">
        <ele>160</ele>
        <time>2013-09-01T07:29:20.572Z</time>
      </trkpt>
      <trkpt lat="47.45334" lon="0.90599">
        <ele>160</ele>
        <time>2013-09-01T07:29:21.608Z</time>
      </trkpt>
      <trkpt lat="47.45342" lon="0.90592">
        <ele>160</ele>
        <time>2013-09-01T07:29:23.721Z</time>
      </trkpt>
      <trkpt lat="47.45345" lon="0.9059">
        <ele>161</ele>
        <time>2013-09-01T07:29:24.588Z</time>
      </trkpt>
      <trkpt lat="47.45352" lon="0.90584">
        <ele>161</ele>
        <time>2013-09-01T07:29:26.678Z</time>
      </trkpt>
      <trkpt lat="47.45357" lon="0.90579">
        <ele>161</ele>
        <time>2013-09-01T07:29:27.634Z</time>
      </trkpt>
      <trkpt lat="47.45364" lon="0.90573">
        <ele>161</ele>
        <time>2013-09-01T07:29:29.643Z</time>
      </trkpt>
      <trkpt lat="47.45368" lon="0.90571">
        <ele>161</ele>
        <time>2013-09-01T07:29:30.657Z</time>
      </trkpt>
      <trkpt lat="47.45372" lon="0.90567">
        <ele>162</ele>
        <time>2013-09-01T07:29:31.649Z</time>
      </trkpt>
      <trkpt lat="47.45377" lon="0.90564">
        <ele>162</ele>
        <time>2013-09-01T07:29:32.648Z</time>
      </trkpt>
      <trkpt lat="47.45381" lon="0.9056">
        <ele>161</ele>
        <time>2013-09-01T07:29:33.669Z</time>
      </trkpt>
      <trkpt lat="47.45385" lon="0.90558">
        <ele>161</ele>
        <time>2013-09-01T07:29:34.594Z</time>
      </trkpt>
      <trkpt lat="47.4539" lon="0.90554">
        <ele>161</ele>
        <time>2013-09-01T07:29:35.588Z</time>
      </trkpt>
      <trkpt lat="47.45394" lon="0.90551">
        <ele>161</ele>
        <time>2013-09-01T07:29:36.582Z</time>
      </trkpt>
      <trkpt lat="47.45402" lon="0.90545">
        <ele>161</ele>
        <time>2013-09-01T07:29:38.649Z</time>
      </trkpt>
      <trkpt lat="47.45405" lon="0.90543">
        <ele>162</ele>
        <time>2013-09-01T07:29:39.599Z</time>
      </trkpt>
      <trkpt lat="47.45409" lon="0.90539">
        <ele>162</ele>
        <time>2013-09-01T07:29:40.594Z</time>
      </trkpt>
      <trkpt lat="47.45413" lon="0.90534">
        <ele>163</ele>
        <time>2013-09-01T07:29:41.616Z</time>
      </trkpt>
      <trkpt lat="47.45417" lon="0.9053">
        <ele>162</ele>
        <time>2013-09-01T07:29:42.649Z</time>
      </trkpt>
      <trkpt lat="47.45421" lon="0.90526">
        <ele>163</ele>
        <time>2013-09-01T07:29:43.707Z</time>
      </trkpt>
      <trkpt lat="47.45425" lon="0.9052">
        <ele>162</ele>
        <time>2013-09-01T07:29:44.618Z</time>
      </trkpt>
      <trkpt lat="47.45431" lon="0.90516">
        <ele>162</ele>
        <time>2013-09-01T07:29:45.649Z</time>
      </trkpt>
      <trkpt lat="47.45436" lon="0.90515">
        <ele>161</ele>
        <time>2013-09-01T07:29:46.764Z</time>
      </trkpt>
      <trkpt lat="47.4544" lon="0.90514">
        <ele>161</ele>
        <time>2013-09-01T07:29:47.764Z</time>
      </trkpt>
      <trkpt lat="47.45445" lon="0.90513">
        <ele>161</ele>
        <time>2013-09-01T07:29:48.812Z</time>
      </trkpt>
      <trkpt lat="47.4545" lon="0.90509">
        <ele>161</ele>
        <time>2013-09-01T07:29:49.781Z</time>
      </trkpt>
      <trkpt lat="47.45453" lon="0.90506">
        <ele>161</ele>
        <time>2013-09-01T07:29:50.811Z</time>
      </trkpt>
      <trkpt lat="47.45458" lon="0.90504">
        <ele>161</ele>
        <time>2013-09-01T07:29:51.817Z</time>
      </trkpt>
      <trkpt lat="47.45466" lon="0.905">
        <ele>162</ele>
        <time>2013-09-01T07:29:53.818Z</time>
      </trkpt>
      <trkpt lat="47.4547" lon="0.90498">
        <ele>162</ele>
        <time>2013-09-01T07:29:54.764Z</time>
      </trkpt>
      <trkpt lat="47.45478" lon="0.90493">
        <ele>162</ele>
        <time>2013-09-01T07:29:56.806Z</time>
      </trkpt>
      <trkpt lat="47.45482" lon="0.90491">
        <ele>162</ele>
        <time>2013-09-01T07:29:57.817Z</time>
      </trkpt>
      <trkpt lat="47.45489" lon="0.90487">
        <ele>164</ele>
        <time>2013-09-01T07:29:59.772Z</time>
      </trkpt>
      <trkpt lat="47.45494" lon="0.90487">
        <ele>164</ele>
        <time>2013-09-01T07:30:00.837Z</time>
      </trkpt>
      <trkpt lat="47.45499" lon="0.90483">
        <ele>164</ele>
        <time>2013-09-01T07:30:01.832Z</time>
      </trkpt>
      <trkpt lat="47.45504" lon="0.90482">
        <ele>164</ele>
        <time>2013-09-01T07:30:02.826Z</time>
      </trkpt>
      <trkpt lat="47.45509" lon="0.90482">
        <ele>163</ele>
        <time>2013-09-01T07:30:03.758Z</time>
      </trkpt>
      <trkpt lat="47.45513" lon="0.90481">
        <ele>164</ele>
        <time>2013-09-01T07:30:04.760Z</time>
      </trkpt>
      <trkpt lat="47.45518" lon="0.90479">
        <ele>164</ele>
        <time>2013-09-01T07:30:05.817Z</time>
      </trkpt>
      <trkpt lat="47.45522" lon="0.90476">
        <ele>164</ele>
        <time>2013-09-01T07:30:06.826Z</time>
      </trkpt>
      <trkpt lat="47.45529" lon="0.90472">
        <ele>164</ele>
        <time>2013-09-01T07:30:08.816Z</time>
      </trkpt>
      <trkpt lat="47.45534" lon="0.9047">
        <ele>165</ele>
        <time>2013-09-01T07:30:09.863Z</time>
      </trkpt>
      <trkpt lat="47.45539" lon="0.90468">
        <ele>165</ele>
        <time>2013-09-01T07:30:10.817Z</time>
      </trkpt>
      <trkpt lat="47.45542" lon="0.90466">
        <ele>166</ele>
        <time>2013-09-01T07:30:11.817Z</time>
      </trkpt>
      <trkpt lat="47.45547" lon="0.90463">
        <ele>165</ele>
        <time>2013-09-01T07:30:12.802Z</time>
      </trkpt>
      <trkpt lat="47.45552" lon="0.90461">
        <ele>165</ele>
        <time>2013-09-01T07:30:13.816Z</time>
      </trkpt>
      <trkpt lat="47.45556" lon="0.90459">
        <ele>165</ele>
        <time>2013-09-01T07:30:14.802Z</time>
      </trkpt>
      <trkpt lat="47.4556" lon="0.90457">
        <ele>166</ele>
        <time>2013-09-01T07:30:15.749Z</time>
      </trkpt>
      <trkpt lat="47.45569" lon="0.90453">
        <ele>166</ele>
        <time>2013-09-01T07:30:17.775Z</time>
      </trkpt>
      <trkpt lat="47.45574" lon="0.90451">
        <ele>166</ele>
        <time>2013-09-01T07:30:18.782Z</time>
      </trkpt>
      <trkpt lat="47.4558" lon="0.90448">
        <ele>166</ele>
        <time>2013-09-01T07:30:19.818Z</time>
      </trkpt>
      <trkpt lat="47.45585" lon="0.90446">
        <ele>165</ele>
        <time>2013-09-01T07:30:20.863Z</time>
      </trkpt>
      <trkpt lat="47.45594" lon="0.90442">
        <ele>165</ele>
        <time>2013-09-01T07:30:22.817Z</time>
      </trkpt>
      <trkpt lat="47.45599" lon="0.9044">
        <ele>164</ele>
        <time>2013-09-01T07:30:23.798Z</time>
      </trkpt>
      <trkpt lat="47.45603" lon="0.90438">
        <ele>164</ele>
        <time>2013-09-01T07:30:24.817Z</time>
      </trkpt>
      <trkpt lat="47.45608" lon="0.90436">
        <ele>164</ele>
        <time>2013-09-01T07:30:25.770Z</time>
      </trkpt>
      <trkpt lat="47.45613" lon="0.90433">
        <ele>165</ele>
        <time>2013-09-01T07:30:26.825Z</time>
      </trkpt>
      <trkpt lat="47.45617" lon="0.90429">
        <ele>164</ele>
        <time>2013-09-01T07:30:27.793Z</time>
      </trkpt>
      <trkpt lat="47.45623" lon="0.90427">
        <ele>165</ele>
        <time>2013-09-01T07:30:28.770Z</time>
      </trkpt>
      <trkpt lat="47.45627" lon="0.90425">
        <ele>166</ele>
        <time>2013-09-01T07:30:29.813Z</time>
      </trkpt>
      <trkpt lat="47.45636" lon="0.90423">
        <ele>166</ele>
        <time>2013-09-01T07:30:31.802Z</time>
      </trkpt>
      <trkpt lat="47.4564" lon="0.90421">
        <ele>166</ele>
        <time>2013-09-01T07:30:32.802Z</time>
      </trkpt>
      <trkpt lat="47.45645" lon="0.90418">
        <ele>166</ele>
        <time>2013-09-01T07:30:33.823Z</time>
      </trkpt>
      <trkpt lat="47.45649" lon="0.90416">
        <ele>166</ele>
        <time>2013-09-01T07:30:34.806Z</time>
      </trkpt>
      <trkpt lat="47.45654" lon="0.90414">
        <ele>166</ele>
        <time>2013-09-01T07:30:35.802Z</time>
      </trkpt>
      <trkpt lat="47.45659" lon="0.90414">
        <ele>164</ele>
        <time>2013-09-01T07:30:36.807Z</time>
      </trkpt>
      <trkpt lat="47.45668" lon="0.90412">
        <ele>163</ele>
        <time>2013-09-01T07:30:38.873Z</time>
      </trkpt>
      <trkpt lat="47.45671" lon="0.9041">
        <ele>163</ele>
        <time>2013-09-01T07:30:39.820Z</time>
      </trkpt>
      <trkpt lat="47.45679" lon="0.90405">
        <ele>162</ele>
        <time>2013-09-01T07:30:41.816Z</time>
      </trkpt>
      <trkpt lat="47.45685" lon="0.90403">
        <ele>162</ele>
        <time>2013-09-01T07:30:42.826Z</time>
      </trkpt>
      <trkpt lat="47.4569" lon="0.90401">
        <ele>162</ele>
        <time>2013-09-01T07:30:43.887Z</time>
      </trkpt>
      <trkpt lat="47.45695" lon="0.90399">
        <ele>163</ele>
        <time>2013-09-01T07:30:44.770Z</time>
      </trkpt>
      <trkpt lat="47.457" lon="0.90397">
        <ele>163</ele>
        <time>2013-09-01T07:30:45.776Z</time>
      </trkpt>
      <trkpt lat="47.45704" lon="0.90395">
        <ele>164</ele>
        <time>2013-09-01T07:30:46.765Z</time>
      </trkpt>
      <trkpt lat="47.45711" lon="0.9039">
        <ele>163</ele>
        <time>2013-09-01T07:30:48.787Z</time>
      </trkpt>
      <trkpt lat="47.45714" lon="0.90386">
        <ele>163</ele>
        <time>2013-09-01T07:30:49.820Z</time>
      </trkpt>
      <trkpt lat="47.45721" lon="0.9038">
        <ele>163</ele>
        <time>2013-09-01T07:30:51.823Z</time>
      </trkpt>
      <trkpt lat="47.45726" lon="0.90376">
        <ele>163</ele>
        <time>2013-09-01T07:30:52.822Z</time>
      </trkpt>
      <trkpt lat="47.45732" lon="0.90369">
        <ele>162</ele>
        <time>2013-09-01T07:30:54.771Z</time>
      </trkpt>
      <trkpt lat="47.45735" lon="0.90365">
        <ele>162</ele>
        <time>2013-09-01T07:30:55.830Z</time>
      </trkpt>
      <trkpt lat="47.45742" lon="0.90356">
        <ele>162</ele>
        <time>2013-09-01T07:30:57.817Z</time>
      </trkpt>
      <trkpt lat="47.45745" lon="0.90352">
        <ele>162</ele>
        <time>2013-09-01T07:30:58.818Z</time>
      </trkpt>
      <trkpt lat="47.4575" lon="0.90345">
        <ele>163</ele>
        <time>2013-09-01T07:31:00.773Z</time>
      </trkpt>
      <trkpt lat="47.45753" lon="0.90341">
        <ele>163</ele>
        <time>2013-09-01T07:31:01.841Z</time>
      </trkpt>
      <trkpt lat="47.45757" lon="0.90337">
        <ele>163</ele>
        <time>2013-09-01T07:31:02.944Z</time>
      </trkpt>
      <trkpt lat="47.4576" lon="0.90331">
        <ele>163</ele>
        <time>2013-09-01T07:31:03.750Z</time>
      </trkpt>
      <trkpt lat="47.45763" lon="0.90326">
        <ele>163</ele>
        <time>2013-09-01T07:31:04.780Z</time>
      </trkpt>
      <trkpt lat="47.45766" lon="0.90322">
        <ele>163</ele>
        <time>2013-09-01T07:31:05.772Z</time>
      </trkpt>
      <trkpt lat="47.45771" lon="0.90317">
        <ele>162</ele>
        <time>2013-09-01T07:31:06.827Z</time>
      </trkpt>
      <trkpt lat="47.45775" lon="0.90313">
        <ele>162</ele>
        <time>2013-09-01T07:31:07.833Z</time>
      </trkpt>
      <trkpt lat="47.45783" lon="0.90307">
        <ele>162</ele>
        <time>2013-09-01T07:31:09.880Z</time>
      </trkpt>
      <trkpt lat="47.45787" lon="0.90303">
        <ele>162</ele>
        <time>2013-09-01T07:31:10.771Z</time>
      </trkpt>
      <trkpt lat="47.45794" lon="0.90296">
        <ele>162</ele>
        <time>2013-09-01T07:31:12.784Z</time>
      </trkpt>
      <trkpt lat="47.45797" lon="0.90294">
        <ele>162</ele>
        <time>2013-09-01T07:31:13.775Z</time>
      </trkpt>
      <trkpt lat="47.45805" lon="0.90287">
        <ele>162</ele>
        <time>2013-09-01T07:31:15.785Z</time>
      </trkpt>
      <trkpt lat="47.45808" lon="0.90283">
        <ele>162</ele>
        <time>2013-09-01T07:31:16.778Z</time>
      </trkpt>
      <trkpt lat="47.45816" lon="0.90277">
        <ele>162</ele>
        <time>2013-09-01T07:31:18.822Z</time>
      </trkpt>
      <trkpt lat="47.45819" lon="0.90273">
        <ele>162</ele>
        <time>2013-09-01T07:31:19.821Z</time>
      </trkpt>
      <trkpt lat="47.45826" lon="0.90266">
        <ele>162</ele>
        <time>2013-09-01T07:31:21.775Z</time>
      </trkpt>
      <trkpt lat="47.4583" lon="0.90264">
        <ele>163</ele>
        <time>2013-09-01T07:31:22.780Z</time>
      </trkpt>
      <trkpt lat="47.45836" lon="0.90255">
        <ele>162</ele>
        <time>2013-09-01T07:31:24.828Z</time>
      </trkpt>
      <trkpt lat="47.45839" lon="0.90253">
        <ele>162</ele>
        <time>2013-09-01T07:31:25.833Z</time>
      </trkpt>
      <trkpt lat="47.45845" lon="0.90245">
        <ele>163</ele>
        <time>2013-09-01T07:31:27.822Z</time>
      </trkpt>
      <trkpt lat="47.45847" lon="0.9024">
        <ele>163</ele>
        <time>2013-09-01T07:31:28.809Z</time>
      </trkpt>
      <trkpt lat="47.45851" lon="0.90229">
        <ele>162</ele>
        <time>2013-09-01T07:31:31.773Z</time>
      </trkpt>
      <trkpt lat="47.45851" lon="0.90225">
        <ele>162</ele>
        <time>2013-09-01T07:31:32.769Z</time>
      </trkpt>
      <trkpt lat="47.45857" lon="0.90216">
        <ele>164</ele>
        <time>2013-09-01T07:31:38.779Z</time>
      </trkpt>
      <trkpt lat="47.45858" lon="0.90215">
        <ele>164</ele>
        <time>2013-09-01T07:31:39.781Z</time>
      </trkpt>
      <trkpt lat="47.45858" lon="0.90215">
        <ele>164</ele>
        <time>2013-09-01T07:31:44.827Z</time>
      </trkpt>
      <trkpt lat="47.45858" lon="0.90215">
        <ele>164</ele>
        <time>2013-09-01T07:31:45.833Z</time>
      </trkpt>
      <trkpt lat="47.45858" lon="0.90214">
        <ele>163</ele>
        <time>2013-09-01T07:31:48.896Z</time>
      </trkpt>
      <trkpt lat="47.45858" lon="0.90213">
        <ele>163</ele>
        <time>2013-09-01T07:31:49.769Z</time>
      </trkpt>
      <trkpt lat="47.45861" lon="0.90217">
        <ele>165</ele>
        <time>2013-09-01T07:31:54.826Z</time>
      </trkpt>
      <trkpt lat="47.45861" lon="0.90217">
        <ele>165</ele>
        <time>2013-09-01T07:31:55.829Z</time>
      </trkpt>
      <trkpt lat="47.45861" lon="0.90218">
        <ele>166</ele>
        <time>2013-09-01T07:31:56.775Z</time>
      </trkpt>
      <trkpt lat="47.45858" lon="0.90223">
        <ele>168</ele>
        <time>2013-09-01T07:32:02.860Z</time>
      </trkpt>
      <trkpt lat="47.45858" lon="0.90223">
        <ele>168</ele>
        <time>2013-09-01T07:32:03.843Z</time>
      </trkpt>
      <trkpt lat="47.45858" lon="0.90223">
        <ele>168</ele>
        <time>2013-09-01T07:32:05.805Z</time>
      </trkpt>
      <trkpt lat="47.45857" lon="0.90225">
        <ele>167</ele>
        <time>2013-09-01T07:32:06.827Z</time>
      </trkpt>
      <trkpt lat="47.45855" lon="0.90221">
        <ele>166</ele>
        <time>2013-09-01T07:32:10.851Z</time>
      </trkpt>
      <trkpt lat="47.45855" lon="0.90221">
        <ele>167</ele>
        <time>2013-09-01T07:32:11.894Z</time>
      </trkpt>
      <trkpt lat="47.45855" lon="0.90223">
        <ele>167</ele>
        <time>2013-09-01T07:32:12.780Z</time>
      </trkpt>
      <trkpt lat="47.45855" lon="0.90222">
        <ele>167</ele>
        <time>2013-09-01T07:32:13.770Z</time>
      </trkpt>
      <trkpt lat="47.45855" lon="0.90221">
        <ele>167</ele>
        <time>2013-09-01T07:32:14.827Z</time>
      </trkpt>
      <trkpt lat="47.45855" lon="0.90223">
        <ele>167</ele>
        <time>2013-09-01T07:32:18.796Z</time>
      </trkpt>
      <trkpt lat="47.45855" lon="0.90223">
        <ele>167</ele>
        <time>2013-09-01T07:32:19.832Z</time>
      </trkpt>
      <trkpt lat="47.45855" lon="0.90223">
        <ele>166</ele>
        <time>2013-09-01T07:32:31.818Z</time>
      </trkpt>
      <trkpt lat="47.45855" lon="0.90223">
        <ele>166</ele>
        <time>2013-09-01T07:32:32.816Z</time>
      </trkpt>
      <trkpt lat="47.45855" lon="0.90223">
        <ele>166</ele>
        <time>2013-09-01T07:32:33.871Z</time>
      </trkpt>
      <trkpt lat="47.45855" lon="0.90223">
        <ele>166</ele>
        <time>2013-09-01T07:32:34.775Z</time>
      </trkpt>
      <trkpt lat="47.45855" lon="0.90223">
        <ele>167</ele>
        <time>2013-09-01T07:32:47.817Z</time>
      </trkpt>
      <trkpt lat="47.45855" lon="0.90223">
        <ele>167</ele>
        <time>2013-09-01T07:32:48.817Z</time>
      </trkpt>
      <trkpt lat="47.45855" lon="0.90223">
        <ele>167</ele>
        <time>2013-09-01T07:32:49.774Z</time>
      </trkpt>
      <trkpt lat="47.45854" lon="0.90223">
        <ele>167</ele>
        <time>2013-09-01T07:32:50.795Z</time>
      </trkpt>
      <trkpt lat="47.45855" lon="0.90223">
        <ele>167</ele>
        <time>2013-09-01T07:33:02.798Z</time>
      </trkpt>
      <trkpt lat="47.45855" lon="0.90223">
        <ele>167</ele>
        <time>2013-09-01T07:33:03.800Z</time>
      </trkpt>
      <trkpt lat="47.45855" lon="0.90225">
        <ele>166</ele>
        <time>2013-09-01T07:33:06.771Z</time>
      </trkpt>
      <trkpt lat="47.45855" lon="0.90225">
        <ele>166</ele>
        <time>2013-09-01T07:33:07.775Z</time>
      </trkpt>
      <trkpt lat="47.45855" lon="0.90225">
        <ele>166</ele>
        <time>2013-09-01T07:33:11.783Z</time>
      </trkpt>
      <trkpt lat="47.45855" lon="0.90224">
        <ele>166</ele>
        <time>2013-09-01T07:33:12.787Z</time>
      </trkpt>
      <trkpt lat="47.45853" lon="0.90223">
        <ele>166</ele>
        <time>2013-09-01T07:33:15.920Z</time>
      </trkpt>
      <trkpt lat="47.45853" lon="0.90223">
        <ele>166</ele>
        <time>2013-09-01T07:33:16.758Z</time>
      </trkpt>
      <trkpt lat="47.45853" lon="0.90225">
        <ele>166</ele>
        <time>2013-09-01T07:33:17.832Z</time>
      </trkpt>
      <trkpt lat="47.45853" lon="0.90223">
        <ele>167</ele>
        <time>2013-09-01T07:33:19.832Z</time>
      </trkpt>
      <trkpt lat="47.45853" lon="0.90223">
        <ele>167</ele>
        <time>2013-09-01T07:33:20.842Z</time>
      </trkpt>
      <trkpt lat="47.45853" lon="0.90223">
        <ele>166</ele>
        <time>2013-09-01T07:33:36.853Z</time>
      </trkpt>
      <trkpt lat="47.45853" lon="0.90225">
        <ele>166</ele>
        <time>2013-09-01T07:33:37.786Z</time>
      </trkpt>
      <trkpt lat="47.45852" lon="0.90225">
        <ele>167</ele>
        <time>2013-09-01T07:33:40.832Z</time>
      </trkpt>
      <trkpt lat="47.45852" lon="0.90225">
        <ele>167</ele>
        <time>2013-09-01T07:33:41.837Z</time>
      </trkpt>
      <trkpt lat="47.45852" lon="0.90225">
        <ele>167</ele>
        <time>2013-09-01T07:33:42.780Z</time>
      </trkpt>
      <trkpt lat="47.45853" lon="0.90225">
        <ele>167</ele>
        <time>2013-09-01T07:33:43.778Z</time>
      </trkpt>
      <trkpt lat="47.45854" lon="0.90223">
        <ele>167</ele>
        <time>2013-09-01T07:33:45.832Z</time>
      </trkpt>
      <trkpt lat="47.45853" lon="0.90223">
        <ele>167</ele>
        <time>2013-09-01T07:33:46.817Z</time>
      </trkpt>
      <trkpt lat="47.45853" lon="0.90225">
        <ele>167</ele>
        <time>2013-09-01T07:33:47.863Z</time>
      </trkpt>
      <trkpt lat="47.45853" lon="0.90225">
        <ele>167</ele>
        <time>2013-09-01T07:33:49.837Z</time>
      </trkpt>
      <trkpt lat="47.45853" lon="0.90225">
        <ele>167</ele>
        <time>2013-09-01T07:33:50.832Z</time>
      </trkpt>
      <trkpt lat="47.45853" lon="0.90225">
        <ele>167</ele>
        <time>2013-09-01T07:34:01.873Z</time>
      </trkpt>
      <trkpt lat="47.45853" lon="0.90225">
        <ele>167</ele>
        <time>2013-09-01T07:34:02.878Z</time>
      </trkpt>
      <trkpt lat="47.45852" lon="0.90225">
        <ele>167</ele>
        <time>2013-09-01T07:34:03.888Z</time>
      </trkpt>
      <trkpt lat="47.45852" lon="0.90225">
        <ele>167</ele>
        <time>2013-09-01T07:34:04.897Z</time>
      </trkpt>
      <trkpt lat="47.45852" lon="0.90225">
        <ele>167</ele>
        <time>2013-09-01T07:34:10.830Z</time>
      </trkpt>
      <trkpt lat="47.45852" lon="0.90227">
        <ele>167</ele>
        <time>2013-09-01T07:34:11.844Z</time>
      </trkpt>
      <trkpt lat="47.45852" lon="0.90228">
        <ele>167</ele>
        <time>2013-09-01T07:34:13.856Z</time>
      </trkpt>
      <trkpt lat="47.45852" lon="0.90227">
        <ele>167</ele>
        <time>2013-09-01T07:34:14.894Z</time>
      </trkpt>
      <trkpt lat="47.45852" lon="0.90227">
        <ele>166</ele>
        <time>2013-09-01T07:34:21.897Z</time>
      </trkpt>
      <trkpt lat="47.45853" lon="0.90227">
        <ele>166</ele>
        <time>2013-09-01T07:34:22.891Z</time>
      </trkpt>
      <trkpt lat="47.45854" lon="0.90225">
        <ele>166</ele>
        <time>2013-09-01T07:34:24.841Z</time>
      </trkpt>
      <trkpt lat="47.45853" lon="0.90225">
        <ele>166</ele>
        <time>2013-09-01T07:34:25.838Z</time>
      </trkpt>
      <trkpt lat="47.45853" lon="0.90225">
        <ele>166</ele>
        <time>2013-09-01T07:34:43.640Z</time>
      </trkpt>
      <trkpt lat="47.45854" lon="0.90225">
        <ele>165</ele>
        <time>2013-09-01T07:34:44.643Z</time>
      </trkpt>
      <trkpt lat="47.45855" lon="0.90225">
        <ele>165</ele>
        <time>2013-09-01T07:34:45.685Z</time>
      </trkpt>
      <trkpt lat="47.45855" lon="0.90225">
        <ele>165</ele>
        <time>2013-09-01T07:34:46.805Z</time>
      </trkpt>
      <trkpt lat="47.45855" lon="0.90225">
        <ele>166</ele>
        <time>2013-09-01T07:35:05.637Z</time>
      </trkpt>
      <trkpt lat="47.45855" lon="0.90227">
        <ele>166</ele>
        <time>2013-09-01T07:35:06.643Z</time>
      </trkpt>
      <trkpt lat="47.45853" lon="0.9023">
        <ele>167</ele>
        <time>2013-09-01T07:35:09.651Z</time>
      </trkpt>
      <trkpt lat="47.45853" lon="0.9023">
        <ele>166</ele>
        <time>2013-09-01T07:35:10.656Z</time>
      </trkpt>
      <trkpt lat="47.45853" lon="0.9023">
        <ele>166</ele>
        <time>2013-09-01T07:35:21.695Z</time>
      </trkpt>
      <trkpt lat="47.45854" lon="0.9023">
        <ele>166</ele>
        <time>2013-09-01T07:35:22.700Z</time>
      </trkpt>
      <trkpt lat="47.45855" lon="0.9023">
        <ele>166</ele>
        <time>2013-09-01T07:35:23.663Z</time>
      </trkpt>
      <trkpt lat="47.45855" lon="0.9023">
        <ele>166</ele>
        <time>2013-09-01T07:35:24.709Z</time>
      </trkpt>
      <trkpt lat="47.45855" lon="0.9023">
        <ele>167</ele>
        <time>2013-09-01T07:35:54.703Z</time>
      </trkpt>
      <trkpt lat="47.45855" lon="0.90228">
        <ele>166</ele>
        <time>2013-09-01T07:35:55.706Z</time>
      </trkpt>
      <trkpt lat="47.45852" lon="0.90234">
        <ele>165</ele>
        <time>2013-09-01T07:36:04.700Z</time>
      </trkpt>
      <trkpt lat="47.45852" lon="0.90234">
        <ele>165</ele>
        <time>2013-09-01T07:36:05.706Z</time>
      </trkpt>
      <trkpt lat="47.45852" lon="0.90234">
        <ele>165</ele>
        <time>2013-09-01T07:36:08.574Z</time>
      </trkpt>
      <trkpt lat="47.45851" lon="0.90232">
        <ele>165</ele>
        <time>2013-09-01T07:36:09.525Z</time>
      </trkpt>
      <trkpt lat="47.45851" lon="0.90232">
        <ele>165</ele>
        <time>2013-09-01T07:36:10.579Z</time>
      </trkpt>
      <trkpt lat="47.45851" lon="0.90232">
        <ele>165</ele>
        <time>2013-09-01T07:36:11.695Z</time>
      </trkpt>
      <trkpt lat="47.45851" lon="0.90232">
        <ele>164</ele>
        <time>2013-09-01T07:36:37.540Z</time>
      </trkpt>
      <trkpt lat="47.45851" lon="0.9023">
        <ele>164</ele>
        <time>2013-09-01T07:36:38.548Z</time>
      </trkpt>
      <trkpt lat="47.45851" lon="0.90229">
        <ele>164</ele>
        <time>2013-09-01T07:36:40.568Z</time>
      </trkpt>
      <trkpt lat="47.45851" lon="0.90229">
        <ele>164</ele>
        <time>2013-09-01T07:36:41.568Z</time>
      </trkpt>
      <trkpt lat="47.45851" lon="0.90229">
        <ele>164</ele>
        <time>2013-09-01T07:36:42.568Z</time>
      </trkpt>
      <trkpt lat="47.45852" lon="0.9023">
        <ele>164</ele>
        <time>2013-09-01T07:36:43.670Z</time>
      </trkpt>
      <trkpt lat="47.45852" lon="0.9023">
        <ele>164</ele>
        <time>2013-09-01T07:36:44.517Z</time>
      </trkpt>
      <trkpt lat="47.45852" lon="0.9023">
        <ele>164</ele>
        <time>2013-09-01T07:36:45.516Z</time>
      </trkpt>
      <trkpt lat="47.45852" lon="0.9023">
        <ele>164</ele>
        <time>2013-09-01T07:36:52.564Z</time>
      </trkpt>
      <trkpt lat="47.45853" lon="0.9023">
        <ele>164</ele>
        <time>2013-09-01T07:36:53.557Z</time>
      </trkpt>
      <trkpt lat="47.45854" lon="0.9023">
        <ele>164</ele>
        <time>2013-09-01T07:36:54.526Z</time>
      </trkpt>
      <trkpt lat="47.45854" lon="0.9023">
        <ele>164</ele>
        <time>2013-09-01T07:36:55.516Z</time>
      </trkpt>
      <trkpt lat="47.45853" lon="0.9023">
        <ele>164</ele>
        <time>2013-09-01T07:37:04.563Z</time>
      </trkpt>
      <trkpt lat="47.45853" lon="0.9023">
        <ele>163</ele>
        <time>2013-09-01T07:37:05.563Z</time>
      </trkpt>
      <trkpt lat="47.45853" lon="0.9023">
        <ele>163</ele>
        <time>2013-09-01T07:37:06.548Z</time>
      </trkpt>
      <trkpt lat="47.45852" lon="0.9023">
        <ele>164</ele>
        <time>2013-09-01T07:37:07.548Z</time>
      </trkpt>
      <trkpt lat="47.45852" lon="0.90227">
        <ele>164</ele>
        <time>2013-09-01T07:37:09.563Z</time>
      </trkpt>
      <trkpt lat="47.45852" lon="0.90227">
        <ele>164</ele>
        <time>2013-09-01T07:37:10.570Z</time>
      </trkpt>
      <trkpt lat="47.45852" lon="0.90227">
        <ele>164</ele>
        <time>2013-09-01T07:37:13.518Z</time>
      </trkpt>
      <trkpt lat="47.45852" lon="0.90229">
        <ele>164</ele>
        <time>2013-09-01T07:37:14.515Z</time>
      </trkpt>
      <trkpt lat="47.45852" lon="0.9023">
        <ele>164</ele>
        <time>2013-09-01T07:37:15.518Z</time>
      </trkpt>
      <trkpt lat="47.45852" lon="0.9023">
        <ele>164</ele>
        <time>2013-09-01T07:37:16.552Z</time>
      </trkpt>
      <trkpt lat="47.45853" lon="0.9023">
        <ele>164</ele>
        <time>2013-09-01T07:37:17.515Z</time>
      </trkpt>
      <trkpt lat="47.45854" lon="0.9023">
        <ele>164</ele>
        <time>2013-09-01T07:37:18.756Z</time>
      </trkpt>
      <trkpt lat="47.45853" lon="0.9023">
        <ele>163</ele>
        <time>2013-09-01T07:37:19.588Z</time>
      </trkpt>
      <trkpt lat="47.45853" lon="0.9023">
        <ele>165</ele>
        <time>2013-09-01T07:38:22.573Z</time>
      </trkpt>
      <trkpt lat="47.45854" lon="0.9023">
        <ele>165</ele>
        <time>2013-09-01T07:38:23.538Z</time>
      </trkpt>
      <trkpt lat="47.45855" lon="0.90225">
        <ele>167</ele>
        <time>2013-09-01T07:38:26.568Z</time>
      </trkpt>
      <trkpt lat="47.45855" lon="0.90225">
        <ele>167</ele>
        <time>2013-09-01T07:38:27.577Z</time>
      </trkpt>
      <trkpt lat="47.45855" lon="0.90225">
        <ele>167</ele>
        <time>2013-09-01T07:38:35.590Z</time>
      </trkpt>
      <trkpt lat="47.45856" lon="0.90225">
        <ele>167</ele>
        <time>2013-09-01T07:38:36.592Z</time>
      </trkpt>
      <trkpt lat="47.45857" lon="0.90225">
        <ele>167</ele>
        <time>2013-09-01T07:38:37.580Z</time>
      </trkpt>
      <trkpt lat="47.45857" lon="0.90225">
        <ele>167</ele>
        <time>2013-09-01T07:38:38.519Z</time>
      </trkpt>
      <trkpt lat="47.45856" lon="0.90225">
        <ele>166</ele>
        <time>2013-09-01T07:38:48.529Z</time>
      </trkpt>
      <trkpt lat="47.45856" lon="0.90224">
        <ele>166</ele>
        <time>2013-09-01T07:38:49.526Z</time>
      </trkpt>
      <trkpt lat="47.45858" lon="0.90223">
        <ele>166</ele>
        <time>2013-09-01T07:38:53.531Z</time>
      </trkpt>
      <trkpt lat="47.45858" lon="0.90223">
        <ele>166</ele>
        <time>2013-09-01T07:38:54.572Z</time>
      </trkpt>
      <trkpt lat="47.45858" lon="0.90223">
        <ele>165</ele>
        <time>2013-09-01T07:38:58.625Z</time>
      </trkpt>
      <trkpt lat="47.45858" lon="0.9022">
        <ele>165</ele>
        <time>2013-09-01T07:38:59.526Z</time>
      </trkpt>
      <trkpt lat="47.45858" lon="0.90216">
        <ele>165</ele>
        <time>2013-09-01T07:39:03.506Z</time>
      </trkpt>
      <trkpt lat="47.45858" lon="0.90216">
        <ele>165</ele>
        <time>2013-09-01T07:39:04.517Z</time>
      </trkpt>
      <trkpt lat="47.45858" lon="0.90217">
        <ele>165</ele>
        <time>2013-09-01T07:39:05.505Z</time>
      </trkpt>
      <trkpt lat="47.45859" lon="0.90215">
        <ele>164</ele>
        <time>2013-09-01T07:39:06.527Z</time>
      </trkpt>
      <trkpt lat="47.45864" lon="0.90209">
        <ele>165</ele>
        <time>2013-09-01T07:39:09.594Z</time>
      </trkpt>
      <trkpt lat="47.45867" lon="0.90204">
        <ele>165</ele>
        <time>2013-09-01T07:39:10.589Z</time>
      </trkpt>
      <trkpt lat="47.45872" lon="0.90195">
        <ele>165</ele>
        <time>2013-09-01T07:39:12.929Z</time>
      </trkpt>
      <trkpt lat="47.45873" lon="0.90191">
        <ele>166</ele>
        <time>2013-09-01T07:39:13.927Z</time>
      </trkpt>
      <trkpt lat="47.45875" lon="0.9018">
        <ele>166</ele>
        <time>2013-09-01T07:39:15.974Z</time>
      </trkpt>
      <trkpt lat="47.45875" lon="0.90174">
        <ele>165</ele>
        <time>2013-09-01T07:39:16.975Z</time>
      </trkpt>
      <trkpt lat="47.45877" lon="0.90163">
        <ele>165</ele>
        <time>2013-09-01T07:39:18.972Z</time>
      </trkpt>
      <trkpt lat="47.45877" lon="0.90157">
        <ele>165</ele>
        <time>2013-09-01T07:39:19.971Z</time>
      </trkpt>
      <trkpt lat="47.45878" lon="0.90146">
        <ele>165</ele>
        <time>2013-09-01T07:39:22.096Z</time>
      </trkpt>
      <trkpt lat="47.45879" lon="0.9014">
        <ele>165</ele>
        <time>2013-09-01T07:39:22.919Z</time>
      </trkpt>
      <trkpt lat="47.4588" lon="0.90131">
        <ele>165</ele>
        <time>2013-09-01T07:39:23.960Z</time>
      </trkpt>
      <trkpt lat="47.45881" lon="0.90126">
        <ele>165</ele>
        <time>2013-09-01T07:39:24.961Z</time>
      </trkpt>
      <trkpt lat="47.45882" lon="0.90114">
        <ele>167</ele>
        <time>2013-09-01T07:39:26.961Z</time>
      </trkpt>
      <trkpt lat="47.45885" lon="0.90107">
        <ele>165</ele>
        <time>2013-09-01T07:39:27.966Z</time>
      </trkpt>
      <trkpt lat="47.45889" lon="0.90101">
        <ele>164</ele>
        <time>2013-09-01T07:39:28.969Z</time>
      </trkpt>
      <trkpt lat="47.45892" lon="0.90094">
        <ele>163</ele>
        <time>2013-09-01T07:39:29.960Z</time>
      </trkpt>
      <trkpt lat="47.45896" lon="0.90088">
        <ele>162</ele>
        <time>2013-09-01T07:39:30.964Z</time>
      </trkpt>
      <trkpt lat="47.459" lon="0.90083">
        <ele>162</ele>
        <time>2013-09-01T07:39:31.965Z</time>
      </trkpt>
      <trkpt lat="47.45906" lon="0.90075">
        <ele>162</ele>
        <time>2013-09-01T07:39:33.931Z</time>
      </trkpt>
      <trkpt lat="47.4591" lon="0.90069">
        <ele>162</ele>
        <time>2013-09-01T07:39:34.942Z</time>
      </trkpt>
      <trkpt lat="47.45913" lon="0.90064">
        <ele>162</ele>
        <time>2013-09-01T07:39:35.948Z</time>
      </trkpt>
      <trkpt lat="47.45917" lon="0.9006">
        <ele>161</ele>
        <time>2013-09-01T07:39:36.895Z</time>
      </trkpt>
      <trkpt lat="47.45922" lon="0.90054">
        <ele>161</ele>
        <time>2013-09-01T07:39:37.931Z</time>
      </trkpt>
      <trkpt lat="47.45925" lon="0.90047">
        <ele>161</ele>
        <time>2013-09-01T07:39:38.946Z</time>
      </trkpt>
      <trkpt lat="47.45929" lon="0.90043">
        <ele>161</ele>
        <time>2013-09-01T07:39:39.946Z</time>
      </trkpt>
      <trkpt lat="47.45934" lon="0.90037">
        <ele>160</ele>
        <time>2013-09-01T07:39:40.936Z</time>
      </trkpt>
      <trkpt lat="47.45938" lon="0.9003">
        <ele>160</ele>
        <time>2013-09-01T07:39:42.050Z</time>
      </trkpt>
      <trkpt lat="47.45943" lon="0.90024">
        <ele>159</ele>
        <time>2013-09-01T07:39:42.928Z</time>
      </trkpt>
      <trkpt lat="47.45948" lon="0.90017">
        <ele>158</ele>
        <time>2013-09-01T07:39:43.949Z</time>
      </trkpt>
      <trkpt lat="47.45951" lon="0.90011">
        <ele>158</ele>
        <time>2013-09-01T07:39:44.950Z</time>
      </trkpt>
      <trkpt lat="47.45955" lon="0.90004">
        <ele>160</ele>
        <time>2013-09-01T07:39:45.210Z</time>
      </trkpt>
      <trkpt lat="47.45959" lon="0.89998">
        <ele>161</ele>
        <time>2013-09-01T07:39:46.274Z</time>
      </trkpt>
      <trkpt lat="47.45964" lon="0.89991">
        <ele>159</ele>
        <time>2013-09-01T07:39:47.206Z</time>
      </trkpt>
      <trkpt lat="47.45969" lon="0.89983">
        <ele>158</ele>
        <time>2013-09-01T07:39:48.208Z</time>
      </trkpt>
      <trkpt lat="47.45974" lon="0.89976">
        <ele>157</ele>
        <time>2013-09-01T07:39:49.210Z</time>
      </trkpt>
      <trkpt lat="47.45978" lon="0.89968">
        <ele>157</ele>
        <time>2013-09-01T07:39:50.213Z</time>
      </trkpt>
      <trkpt lat="47.45982" lon="0.89958">
        <ele>157</ele>
        <time>2013-09-01T07:39:51.276Z</time>
      </trkpt>
      <trkpt lat="47.45986" lon="0.8995">
        <ele>157</ele>
        <time>2013-09-01T07:39:52.259Z</time>
      </trkpt>
      <trkpt lat="47.45992" lon="0.89944">
        <ele>160</ele>
        <time>2013-09-01T07:39:53.330Z</time>
      </trkpt>
      <trkpt lat="47.45996" lon="0.89938">
        <ele>162</ele>
        <time>2013-09-01T07:39:54.256Z</time>
      </trkpt>
      <trkpt lat="47.46001" lon="0.89931">
        <ele>161</ele>
        <time>2013-09-01T07:39:55.241Z</time>
      </trkpt>
      <trkpt lat="47.46007" lon="0.89925">
        <ele>160</ele>
        <time>2013-09-01T07:39:56.214Z</time>
      </trkpt>
      <trkpt lat="47.46014" lon="0.8992">
        <ele>157</ele>
        <time>2013-09-01T07:39:57.205Z</time>
      </trkpt>
      <trkpt lat="47.46019" lon="0.89914">
        <ele>156</ele>
        <time>2013-09-01T07:39:58.220Z</time>
      </trkpt>
      <trkpt lat="47.46023" lon="0.89906">
        <ele>156</ele>
        <time>2013-09-01T07:39:59.219Z</time>
      </trkpt>
      <trkpt lat="47.46026" lon="0.89897">
        <ele>155</ele>
        <time>2013-09-01T07:40:00.216Z</time>
      </trkpt>
      <trkpt lat="47.46034" lon="0.8989">
        <ele>156</ele>
        <time>2013-09-01T07:40:02.248Z</time>
      </trkpt>
      <trkpt lat="47.46038" lon="0.8989">
        <ele>155</ele>
        <time>2013-09-01T07:40:03.249Z</time>
      </trkpt>
      <trkpt lat="47.46042" lon="0.89894">
        <ele>155</ele>
        <time>2013-09-01T07:40:04.305Z</time>
      </trkpt>
      <trkpt lat="47.46046" lon="0.89898">
        <ele>155</ele>
        <time>2013-09-01T07:40:05.263Z</time>
      </trkpt>
      <trkpt lat="47.4605" lon="0.89907">
        <ele>155</ele>
        <time>2013-09-01T07:40:06.264Z</time>
      </trkpt>
      <trkpt lat="47.46053" lon="0.89914">
        <ele>154</ele>
        <time>2013-09-01T07:40:07.252Z</time>
      </trkpt>
      <trkpt lat="47.46055" lon="0.89921">
        <ele>154</ele>
        <time>2013-09-01T07:40:08.242Z</time>
      </trkpt>
      <trkpt lat="47.46055" lon="0.89927">
        <ele>154</ele>
        <time>2013-09-01T07:40:09.247Z</time>
      </trkpt>
      <trkpt lat="47.46058" lon="0.89938">
        <ele>158</ele>
        <time>2013-09-01T07:40:11.248Z</time>
      </trkpt>
      <trkpt lat="47.4606" lon="0.89944">
        <ele>159</ele>
        <time>2013-09-01T07:40:12.243Z</time>
      </trkpt>
      <trkpt lat="47.46066" lon="0.89953">
        <ele>158</ele>
        <time>2013-09-01T07:40:14.231Z</time>
      </trkpt>
      <trkpt lat="47.46067" lon="0.89959">
        <ele>159</ele>
        <time>2013-09-01T07:40:15.236Z</time>
      </trkpt>
      <trkpt lat="47.4607" lon="0.8997">
        <ele>161</ele>
        <time>2013-09-01T07:40:17.325Z</time>
      </trkpt>
      <trkpt lat="47.46073" lon="0.89974">
        <ele>162</ele>
        <time>2013-09-01T07:40:18.183Z</time>
      </trkpt>
      <trkpt lat="47.46076" lon="0.8998">
        <ele>163</ele>
        <time>2013-09-01T07:40:19.234Z</time>
      </trkpt>
      <trkpt lat="47.46079" lon="0.89987">
        <ele>163</ele>
        <time>2013-09-01T07:40:20.236Z</time>
      </trkpt>
      <trkpt lat="47.46083" lon="0.89993">
        <ele>163</ele>
        <time>2013-09-01T07:40:21.236Z</time>
      </trkpt>
      <trkpt lat="47.46086" lon="0.89998">
        <ele>162</ele>
        <time>2013-09-01T07:40:22.168Z</time>
      </trkpt>
      <trkpt lat="47.46089" lon="0.90003">
        <ele>160</ele>
        <time>2013-09-01T07:40:23.174Z</time>
      </trkpt>
      <trkpt lat="47.46092" lon="0.90008">
        <ele>156</ele>
        <time>2013-09-01T07:40:24.239Z</time>
      </trkpt>
      <trkpt lat="47.46096" lon="0.90013">
        <ele>155</ele>
        <time>2013-09-01T07:40:25.229Z</time>
      </trkpt>
      <trkpt lat="47.46099" lon="0.90017">
        <ele>153</ele>
        <time>2013-09-01T07:40:26.237Z</time>
      </trkpt>
      <trkpt lat="47.46105" lon="0.90026">
        <ele>153</ele>
        <time>2013-09-01T07:40:28.196Z</time>
      </trkpt>
      <trkpt lat="47.46109" lon="0.9003">
        <ele>153</ele>
        <time>2013-09-01T07:40:29.236Z</time>
      </trkpt>
      <trkpt lat="47.46112" lon="0.90034">
        <ele>152</ele>
        <time>2013-09-01T07:40:30.236Z</time>
      </trkpt>
      <trkpt lat="47.46116" lon="0.90039">
        <ele>152</ele>
        <time>2013-09-01T07:40:31.258Z</time>
      </trkpt>
      <trkpt lat="47.46123" lon="0.90047">
        <ele>152</ele>
        <time>2013-09-01T07:40:33.280Z</time>
      </trkpt>
      <trkpt lat="47.46124" lon="0.90053">
        <ele>151</ele>
        <time>2013-09-01T07:40:34.216Z</time>
      </trkpt>
      <trkpt lat="47.46128" lon="0.90058">
        <ele>151</ele>
        <time>2013-09-01T07:40:35.258Z</time>
      </trkpt>
      <trkpt lat="47.46132" lon="0.90062">
        <ele>152</ele>
        <time>2013-09-01T07:40:36.253Z</time>
      </trkpt>
      <trkpt lat="47.46136" lon="0.90067">
        <ele>152</ele>
        <time>2013-09-01T07:40:37.246Z</time>
      </trkpt>
      <trkpt lat="47.46141" lon="0.90071">
        <ele>151</ele>
        <time>2013-09-01T07:40:38.297Z</time>
      </trkpt>
      <trkpt lat="47.46145" lon="0.90077">
        <ele>152</ele>
        <time>2013-09-01T07:40:39.213Z</time>
      </trkpt>
      <trkpt lat="47.4615" lon="0.90082">
        <ele>151</ele>
        <time>2013-09-01T07:40:40.186Z</time>
      </trkpt>
      <trkpt lat="47.46155" lon="0.90088">
        <ele>151</ele>
        <time>2013-09-01T07:40:41.248Z</time>
      </trkpt>
      <trkpt lat="47.46159" lon="0.90092">
        <ele>151</ele>
        <time>2013-09-01T07:40:42.243Z</time>
      </trkpt>
      <trkpt lat="47.46163" lon="0.90098">
        <ele>151</ele>
        <time>2013-09-01T07:40:43.206Z</time>
      </trkpt>
      <trkpt lat="47.46168" lon="0.90103">
        <ele>151</ele>
        <time>2013-09-01T07:40:44.238Z</time>
      </trkpt>
      <trkpt lat="47.46173" lon="0.90109">
        <ele>151</ele>
        <time>2013-09-01T07:40:45.247Z</time>
      </trkpt>
      <trkpt lat="47.46176" lon="0.90112">
        <ele>150</ele>
        <time>2013-09-01T07:40:46.237Z</time>
      </trkpt>
      <trkpt lat="47.46183" lon="0.90113">
        <ele>150</ele>
        <time>2013-09-01T07:40:48.350Z</time>
      </trkpt>
      <trkpt lat="47.46186" lon="0.90109">
        <ele>152</ele>
        <time>2013-09-01T07:40:49.205Z</time>
      </trkpt>
      <trkpt lat="47.4619" lon="0.90102">
        <ele>152</ele>
        <time>2013-09-01T07:40:50.209Z</time>
      </trkpt>
      <trkpt lat="47.46193" lon="0.90097">
        <ele>152</ele>
        <time>2013-09-01T07:40:51.220Z</time>
      </trkpt>
      <trkpt lat="47.46198" lon="0.9009">
        <ele>151</ele>
        <time>2013-09-01T07:40:52.219Z</time>
      </trkpt>
      <trkpt lat="47.46204" lon="0.90082">
        <ele>150</ele>
        <time>2013-09-01T07:40:53.218Z</time>
      </trkpt>
      <trkpt lat="47.46209" lon="0.90075">
        <ele>150</ele>
        <time>2013-09-01T07:40:54.274Z</time>
      </trkpt>
      <trkpt lat="47.46214" lon="0.90068">
        <ele>150</ele>
        <time>2013-09-01T07:40:55.287Z</time>
      </trkpt>
      <trkpt lat="47.46219" lon="0.90064">
        <ele>149</ele>
        <time>2013-09-01T07:40:56.246Z</time>
      </trkpt>
      <trkpt lat="47.46225" lon="0.90058">
        <ele>149</ele>
        <time>2013-09-01T07:40:57.321Z</time>
      </trkpt>
      <trkpt lat="47.46229" lon="0.9005">
        <ele>151</ele>
        <time>2013-09-01T07:40:58.208Z</time>
      </trkpt>
      <trkpt lat="47.46237" lon="0.90038">
        <ele>148</ele>
        <time>2013-09-01T07:40:59.208Z</time>
      </trkpt>
      <trkpt lat="47.46242" lon="0.90028">
        <ele>150</ele>
        <time>2013-09-01T07:41:00.216Z</time>
      </trkpt>
      <trkpt lat="47.46247" lon="0.90019">
        <ele>150</ele>
        <time>2013-09-01T07:41:01.239Z</time>
      </trkpt>
      <trkpt lat="47.46248" lon="0.90007">
        <ele>154</ele>
        <time>2013-09-01T07:41:03.259Z</time>
      </trkpt>
      <trkpt lat="47.46248" lon="0.9">
        <ele>155</ele>
        <time>2013-09-01T07:41:04.205Z</time>
      </trkpt>
      <trkpt lat="47.46253" lon="0.8999">
        <ele>154</ele>
        <time>2013-09-01T07:41:06.273Z</time>
      </trkpt>
      <trkpt lat="47.46258" lon="0.89985">
        <ele>151</ele>
        <time>2013-09-01T07:41:07.216Z</time>
      </trkpt>
      <trkpt lat="47.46262" lon="0.89979">
        <ele>152</ele>
        <time>2013-09-01T07:41:08.216Z</time>
      </trkpt>
      <trkpt lat="47.46265" lon="0.89974">
        <ele>152</ele>
        <time>2013-09-01T07:41:09.311Z</time>
      </trkpt>
      <trkpt lat="47.46267" lon="0.89963">
        <ele>151</ele>
        <time>2013-09-01T07:41:11.223Z</time>
      </trkpt>
      <trkpt lat="47.46268" lon="0.89959">
        <ele>152</ele>
        <time>2013-09-01T07:41:12.253Z</time>
      </trkpt>
      <trkpt lat="47.4627" lon="0.89951">
        <ele>151</ele>
        <time>2013-09-01T07:41:14.268Z</time>
      </trkpt>
      <trkpt lat="47.46272" lon="0.89946">
        <ele>152</ele>
        <time>2013-09-01T07:41:15.274Z</time>
      </trkpt>
      <trkpt lat="47.46275" lon="0.89937">
        <ele>155</ele>
        <time>2013-09-01T07:41:18.256Z</time>
      </trkpt>
      <trkpt lat="47.46275" lon="0.89934">
        <ele>157</ele>
        <time>2013-09-01T07:41:19.278Z</time>
      </trkpt>
      <trkpt lat="47.46278" lon="0.89923">
        <ele>161</ele>
        <time>2013-09-01T07:41:21.264Z</time>
      </trkpt>
      <trkpt lat="47.4628" lon="0.89918">
        <ele>162</ele>
        <time>2013-09-01T07:41:22.273Z</time>
      </trkpt>
      <trkpt lat="47.46285" lon="0.89907">
        <ele>160</ele>
        <time>2013-09-01T07:41:24.274Z</time>
      </trkpt>
      <trkpt lat="47.46287" lon="0.89903">
        <ele>161</ele>
        <time>2013-09-01T07:41:25.283Z</time>
      </trkpt>
      <trkpt lat="47.46292" lon="0.89895">
        <ele>159</ele>
        <time>2013-09-01T07:41:28.240Z</time>
      </trkpt>
      <trkpt lat="47.46294" lon="0.89891">
        <ele>159</ele>
        <time>2013-09-01T07:41:29.289Z</time>
      </trkpt>
      <trkpt lat="47.46295" lon="0.8988">
        <ele>161</ele>
        <time>2013-09-01T07:41:32.292Z</time>
      </trkpt>
      <trkpt lat="47.46296" lon="0.89877">
        <ele>160</ele>
        <time>2013-09-01T07:41:33.414Z</time>
      </trkpt>
      <trkpt lat="47.46295" lon="0.89867">
        <ele>159</ele>
        <time>2013-09-01T07:41:35.217Z</time>
      </trkpt>
      <trkpt lat="47.46295" lon="0.89862">
        <ele>158</ele>
        <time>2013-09-01T07:41:36.215Z</time>
      </trkpt>
      <trkpt lat="47.46294" lon="0.89852">
        <ele>157</ele>
        <time>2013-09-01T07:41:38.226Z</time>
      </trkpt>
      <trkpt lat="47.46294" lon="0.89846">
        <ele>157</ele>
        <time>2013-09-01T07:41:39.232Z</time>
      </trkpt>
      <trkpt lat="47.4629" lon="0.89837">
        <ele>155</ele>
        <time>2013-09-01T07:41:41.238Z</time>
      </trkpt>
      <trkpt lat="47.46289" lon="0.89831">
        <ele>154</ele>
        <time>2013-09-01T07:41:42.277Z</time>
      </trkpt>
      <trkpt lat="47.4629" lon="0.8982">
        <ele>151</ele>
        <time>2013-09-01T07:41:44.227Z</time>
      </trkpt>
      <trkpt lat="47.4629" lon="0.89813">
        <ele>151</ele>
        <time>2013-09-01T07:41:45.221Z</time>
      </trkpt>
      <trkpt lat="47.4629" lon="0.898">
        <ele>153</ele>
        <time>2013-09-01T07:41:47.278Z</time>
      </trkpt>
      <trkpt lat="47.46289" lon="0.89794">
        <ele>153</ele>
        <time>2013-09-01T07:41:48.263Z</time>
      </trkpt>
      <trkpt lat="47.46289" lon="0.89783">
        <ele>153</ele>
        <time>2013-09-01T07:41:50.237Z</time>
      </trkpt>
      <trkpt lat="47.4629" lon="0.89778">
        <ele>154</ele>
        <time>2013-09-01T07:41:51.279Z</time>
      </trkpt>
      <trkpt lat="47.46291" lon="0.89766">
        <ele>156</ele>
        <time>2013-09-01T07:41:54.246Z</time>
      </trkpt>
      <trkpt lat="47.46291" lon="0.8976">
        <ele>156</ele>
        <time>2013-09-01T07:41:55.278Z</time>
      </trkpt>
      <trkpt lat="47.46293" lon="0.89749">
        <ele>157</ele>
        <time>2013-09-01T07:41:57.498Z</time>
      </trkpt>
      <trkpt lat="47.46293" lon="0.89745">
        <ele>158</ele>
        <time>2013-09-01T07:41:58.245Z</time>
      </trkpt>
      <trkpt lat="47.46294" lon="0.89732">
        <ele>160</ele>
        <time>2013-09-01T07:42:01.222Z</time>
      </trkpt>
      <trkpt lat="47.46296" lon="0.89726">
        <ele>160</ele>
        <time>2013-09-01T07:42:02.225Z</time>
      </trkpt>
      <trkpt lat="47.46298" lon="0.89717">
        <ele>159</ele>
        <time>2013-09-01T07:42:04.236Z</time>
      </trkpt>
      <trkpt lat="47.46298" lon="0.89711">
        <ele>160</ele>
        <time>2013-09-01T07:42:05.248Z</time>
      </trkpt>
      <trkpt lat="47.46297" lon="0.89702">
        <ele>160</ele>
        <time>2013-09-01T07:42:07.237Z</time>
      </trkpt>
      <trkpt lat="47.46298" lon="0.89697">
        <ele>159</ele>
        <time>2013-09-01T07:42:08.319Z</time>
      </trkpt>
      <trkpt lat="47.46302" lon="0.89687">
        <ele>158</ele>
        <time>2013-09-01T07:42:10.242Z</time>
      </trkpt>
      <trkpt lat="47.46304" lon="0.89682">
        <ele>157</ele>
        <time>2013-09-01T07:42:11.252Z</time>
      </trkpt>
      <trkpt lat="47.46304" lon="0.89674">
        <ele>157</ele>
        <time>2013-09-01T07:42:13.272Z</time>
      </trkpt>
      <trkpt lat="47.46305" lon="0.89668">
        <ele>157</ele>
        <time>2013-09-01T07:42:14.278Z</time>
      </trkpt>
      <trkpt lat="47.46306" lon="0.89657">
        <ele>156</ele>
        <time>2013-09-01T07:42:16.288Z</time>
      </trkpt>
      <trkpt lat="47.46306" lon="0.8965">
        <ele>156</ele>
        <time>2013-09-01T07:42:17.293Z</time>
      </trkpt>
      <trkpt lat="47.46309" lon="0.89639">
        <ele>157</ele>
        <time>2013-09-01T07:42:19.256Z</time>
      </trkpt>
      <trkpt lat="47.4631" lon="0.89635">
        <ele>158</ele>
        <time>2013-09-01T07:42:20.288Z</time>
      </trkpt>
      <trkpt lat="47.46312" lon="0.89625">
        <ele>158</ele>
        <time>2013-09-01T07:42:22.288Z</time>
      </trkpt>
      <trkpt lat="47.46312" lon="0.8962">
        <ele>158</ele>
        <time>2013-09-01T07:42:23.286Z</time>
      </trkpt>
      <trkpt lat="47.46314" lon="0.89609">
        <ele>157</ele>
        <time>2013-09-01T07:42:25.287Z</time>
      </trkpt>
      <trkpt lat="47.46315" lon="0.89605">
        <ele>157</ele>
        <time>2013-09-01T07:42:26.293Z</time>
      </trkpt>
      <trkpt lat="47.46316" lon="0.89595">
        <ele>158</ele>
        <time>2013-09-01T07:42:28.258Z</time>
      </trkpt>
      <trkpt lat="47.46316" lon="0.8959">
        <ele>158</ele>
        <time>2013-09-01T07:42:29.220Z</time>
      </trkpt>
      <trkpt lat="47.46318" lon="0.89577">
        <ele>158</ele>
        <time>2013-09-01T07:42:32.293Z</time>
      </trkpt>
      <trkpt lat="47.46319" lon="0.89571">
        <ele>158</ele>
        <time>2013-09-01T07:42:33.278Z</time>
      </trkpt>
      <trkpt lat="47.4632" lon="0.8956">
        <ele>159</ele>
        <time>2013-09-01T07:42:35.238Z</time>
      </trkpt>
      <trkpt lat="47.46321" lon="0.89556">
        <ele>159</ele>
        <time>2013-09-01T07:42:36.256Z</time>
      </trkpt>
      <trkpt lat="47.46324" lon="0.89545">
        <ele>158</ele>
        <time>2013-09-01T07:42:38.241Z</time>
      </trkpt>
      <trkpt lat="47.46325" lon="0.89539">
        <ele>158</ele>
        <time>2013-09-01T07:42:39.267Z</time>
      </trkpt>
      <trkpt lat="47.46326" lon="0.89532">
        <ele>158</ele>
        <time>2013-09-01T07:42:40.271Z</time>
      </trkpt>
      <trkpt lat="47.46328" lon="0.89526">
        <ele>158</ele>
        <time>2013-09-01T07:42:41.231Z</time>
      </trkpt>
      <trkpt lat="47.4633" lon="0.89515">
        <ele>157</ele>
        <time>2013-09-01T07:42:43.307Z</time>
      </trkpt>
      <trkpt lat="47.46332" lon="0.89509">
        <ele>156</ele>
        <time>2013-09-01T07:42:44.222Z</time>
      </trkpt>
      <trkpt lat="47.46333" lon="0.89496">
        <ele>156</ele>
        <time>2013-09-01T07:42:46.228Z</time>
      </trkpt>
      <trkpt lat="47.46333" lon="0.89489">
        <ele>157</ele>
        <time>2013-09-01T07:42:47.251Z</time>
      </trkpt>
      <trkpt lat="47.46334" lon="0.89479">
        <ele>157</ele>
        <time>2013-09-01T07:42:49.303Z</time>
      </trkpt>
      <trkpt lat="47.46334" lon="0.89474">
        <ele>158</ele>
        <time>2013-09-01T07:42:50.289Z</time>
      </trkpt>
      <trkpt lat="47.46336" lon="0.89464">
        <ele>159</ele>
        <time>2013-09-01T07:42:52.301Z</time>
      </trkpt>
      <trkpt lat="47.46336" lon="0.89459">
        <ele>158</ele>
        <time>2013-09-01T07:42:53.293Z</time>
      </trkpt>
      <trkpt lat="47.46337" lon="0.89446">
        <ele>158</ele>
        <time>2013-09-01T07:42:55.258Z</time>
      </trkpt>
      <trkpt lat="47.46338" lon="0.89442">
        <ele>160</ele>
        <time>2013-09-01T07:42:56.298Z</time>
      </trkpt>
      <trkpt lat="47.46341" lon="0.89429">
        <ele>161</ele>
        <time>2013-09-01T07:42:59.237Z</time>
      </trkpt>
      <trkpt lat="47.46341" lon="0.89425">
        <ele>161</ele>
        <time>2013-09-01T07:43:00.249Z</time>
      </trkpt>
      <trkpt lat="47.46345" lon="0.89416">
        <ele>161</ele>
        <time>2013-09-01T07:43:02.241Z</time>
      </trkpt>
      <trkpt lat="47.46345" lon="0.8941">
        <ele>161</ele>
        <time>2013-09-01T07:43:03.282Z</time>
      </trkpt>
      <trkpt lat="47.46344" lon="0.89399">
        <ele>161</ele>
        <time>2013-09-01T07:43:05.245Z</time>
      </trkpt>
      <trkpt lat="47.46346" lon="0.89391">
        <ele>161</ele>
        <time>2013-09-01T07:43:06.231Z</time>
      </trkpt>
      <trkpt lat="47.46347" lon="0.89384">
        <ele>161</ele>
        <time>2013-09-01T07:43:07.227Z</time>
      </trkpt>
      <trkpt lat="47.46349" lon="0.89377">
        <ele>160</ele>
        <time>2013-09-01T07:43:08.263Z</time>
      </trkpt>
      <trkpt lat="47.46351" lon="0.89371">
        <ele>159</ele>
        <time>2013-09-01T07:43:09.211Z</time>
      </trkpt>
      <trkpt lat="47.46353" lon="0.89365">
        <ele>159</ele>
        <time>2013-09-01T07:43:10.561Z</time>
      </trkpt>
      <trkpt lat="47.46353" lon="0.89352">
        <ele>158</ele>
        <time>2013-09-01T07:43:12.577Z</time>
      </trkpt>
      <trkpt lat="47.46354" lon="0.89345">
        <ele>158</ele>
        <time>2013-09-01T07:43:13.570Z</time>
      </trkpt>
      <trkpt lat="47.46355" lon="0.89333">
        <ele>157</ele>
        <time>2013-09-01T07:43:15.571Z</time>
      </trkpt>
      <trkpt lat="47.46357" lon="0.89326">
        <ele>156</ele>
        <time>2013-09-01T07:43:16.576Z</time>
      </trkpt>
      <trkpt lat="47.46357" lon="0.89318">
        <ele>157</ele>
        <time>2013-09-01T07:43:17.575Z</time>
      </trkpt>
      <trkpt lat="47.46359" lon="0.89311">
        <ele>157</ele>
        <time>2013-09-01T07:43:18.603Z</time>
      </trkpt>
      <trkpt lat="47.46361" lon="0.89305">
        <ele>156</ele>
        <time>2013-09-01T07:43:19.624Z</time>
      </trkpt>
      <trkpt lat="47.46362" lon="0.89298">
        <ele>155</ele>
        <time>2013-09-01T07:43:20.629Z</time>
      </trkpt>
      <trkpt lat="47.46362" lon="0.8929">
        <ele>157</ele>
        <time>2013-09-01T07:43:21.623Z</time>
      </trkpt>
      <trkpt lat="47.46363" lon="0.89283">
        <ele>157</ele>
        <time>2013-09-01T07:43:22.633Z</time>
      </trkpt>
      <trkpt lat="47.46365" lon="0.89275">
        <ele>157</ele>
        <time>2013-09-01T07:43:23.588Z</time>
      </trkpt>
      <trkpt lat="47.46368" lon="0.89268">
        <ele>157</ele>
        <time>2013-09-01T07:43:24.642Z</time>
      </trkpt>
      <trkpt lat="47.46371" lon="0.89262">
        <ele>156</ele>
        <time>2013-09-01T07:43:25.614Z</time>
      </trkpt>
      <trkpt lat="47.46375" lon="0.89255">
        <ele>156</ele>
        <time>2013-09-01T07:43:26.614Z</time>
      </trkpt>
      <trkpt lat="47.4638" lon="0.89249">
        <ele>157</ele>
        <time>2013-09-01T07:43:27.613Z</time>
      </trkpt>
      <trkpt lat="47.46383" lon="0.89246">
        <ele>156</ele>
        <time>2013-09-01T07:43:28.569Z</time>
      </trkpt>
      <trkpt lat="47.46389" lon="0.89241">
        <ele>154</ele>
        <time>2013-09-01T07:43:31.623Z</time>
      </trkpt>
      <trkpt lat="47.46389" lon="0.89234">
        <ele>154</ele>
        <time>2013-09-01T07:43:32.613Z</time>
      </trkpt>
      <trkpt lat="47.46391" lon="0.89223">
        <ele>153</ele>
        <time>2013-09-01T07:43:34.618Z</time>
      </trkpt>
      <trkpt lat="47.46393" lon="0.8922">
        <ele>153</ele>
        <time>2013-09-01T07:43:35.614Z</time>
      </trkpt>
      <trkpt lat="47.46396" lon="0.89213">
        <ele>155</ele>
        <time>2013-09-01T07:43:37.615Z</time>
      </trkpt>
      <trkpt lat="47.46398" lon="0.89206">
        <ele>155</ele>
        <time>2013-09-01T07:43:38.689Z</time>
      </trkpt>
      <trkpt lat="47.46401" lon="0.89197">
        <ele>154</ele>
        <time>2013-09-01T07:43:40.554Z</time>
      </trkpt>
      <trkpt lat="47.46404" lon="0.89195">
        <ele>154</ele>
        <time>2013-09-01T07:43:41.569Z</time>
      </trkpt>
      <trkpt lat="47.46408" lon="0.89187">
        <ele>154</ele>
        <time>2013-09-01T07:43:43.234Z</time>
      </trkpt>
      <trkpt lat="47.46411" lon="0.89181">
        <ele>153</ele>
        <time>2013-09-01T07:43:44.091Z</time>
      </trkpt>
      <trkpt lat="47.46415" lon="0.89169">
        <ele>153</ele>
        <time>2013-09-01T07:43:46.119Z</time>
      </trkpt>
      <trkpt lat="47.46417" lon="0.89165">
        <ele>152</ele>
        <time>2013-09-01T07:43:47.146Z</time>
      </trkpt>
      <trkpt lat="47.46421" lon="0.89159">
        <ele>150</ele>
        <time>2013-09-01T07:43:48.149Z</time>
      </trkpt>
      <trkpt lat="47.46423" lon="0.89153">
        <ele>149</ele>
        <time>2013-09-01T07:43:49.137Z</time>
      </trkpt>
      <trkpt lat="47.46427" lon="0.89148">
        <ele>147</ele>
        <time>2013-09-01T07:43:50.140Z</time>
      </trkpt>
      <trkpt lat="47.4643" lon="0.89143">
        <ele>146</ele>
        <time>2013-09-01T07:43:51.141Z</time>
      </trkpt>
      <trkpt lat="47.46434" lon="0.89138">
        <ele>146</ele>
        <time>2013-09-01T07:43:52.129Z</time>
      </trkpt>
      <trkpt lat="47.46438" lon="0.89131">
        <ele>146</ele>
        <time>2013-09-01T07:43:53.119Z</time>
      </trkpt>
      <trkpt lat="47.46442" lon="0.89125">
        <ele>145</ele>
        <time>2013-09-01T07:43:54.100Z</time>
      </trkpt>
      <trkpt lat="47.46446" lon="0.89118">
        <ele>145</ele>
        <time>2013-09-01T07:43:55.141Z</time>
      </trkpt>
      <trkpt lat="47.46447" lon="0.89112">
        <ele>146</ele>
        <time>2013-09-01T07:43:56.135Z</time>
      </trkpt>
      <trkpt lat="47.46451" lon="0.89105">
        <ele>146</ele>
        <time>2013-09-01T07:43:57.160Z</time>
      </trkpt>
      <trkpt lat="47.46457" lon="0.89097">
        <ele>148</ele>
        <time>2013-09-01T07:43:58.107Z</time>
      </trkpt>
      <trkpt lat="47.46461" lon="0.89092">
        <ele>149</ele>
        <time>2013-09-01T07:43:59.183Z</time>
      </trkpt>
      <trkpt lat="47.46464" lon="0.89086">
        <ele>148</ele>
        <time>2013-09-01T07:44:00.202Z</time>
      </trkpt>
      <trkpt lat="47.46467" lon="0.89081">
        <ele>150</ele>
        <time>2013-09-01T07:44:01.120Z</time>
      </trkpt>
      <trkpt lat="47.46469" lon="0.89073">
        <ele>151</ele>
        <time>2013-09-01T07:44:03.100Z</time>
      </trkpt>
      <trkpt lat="47.46471" lon="0.89065">
        <ele>147</ele>
        <time>2013-09-01T07:44:04.094Z</time>
      </trkpt>
      <trkpt lat="47.46473" lon="0.89055">
        <ele>145</ele>
        <time>2013-09-01T07:44:05.154Z</time>
      </trkpt>
      <trkpt lat="47.46473" lon="0.89044">
        <ele>142</ele>
        <time>2013-09-01T07:44:06.128Z</time>
      </trkpt>
      <trkpt lat="47.46474" lon="0.89031">
        <ele>139</ele>
        <time>2013-09-01T07:44:07.134Z</time>
      </trkpt>
      <trkpt lat="47.46475" lon="0.89019">
        <ele>140</ele>
        <time>2013-09-01T07:44:08.159Z</time>
      </trkpt>
      <trkpt lat="47.46476" lon="0.89008">
        <ele>138</ele>
        <time>2013-09-01T07:44:09.109Z</time>
      </trkpt>
      <trkpt lat="47.46477" lon="0.88999">
        <ele>136</ele>
        <time>2013-09-01T07:44:10.154Z</time>
      </trkpt>
      <trkpt lat="47.46477" lon="0.88989">
        <ele>136</ele>
        <time>2013-09-01T07:44:11.100Z</time>
      </trkpt>
      <trkpt lat="47.46477" lon="0.8898">
        <ele>137</ele>
        <time>2013-09-01T07:44:12.122Z</time>
      </trkpt>
      <trkpt lat="47.46477" lon="0.8897">
        <ele>138</ele>
        <time>2013-09-01T07:44:13.152Z</time>
      </trkpt>
      <trkpt lat="47.46478" lon="0.88961">
        <ele>138</ele>
        <time>2013-09-01T07:44:14.146Z</time>
      </trkpt>
      <trkpt lat="47.46479" lon="0.88951">
        <ele>139</ele>
        <time>2013-09-01T07:44:15.114Z</time>
      </trkpt>
      <trkpt lat="47.46481" lon="0.88942">
        <ele>139</ele>
        <time>2013-09-01T07:44:16.087Z</time>
      </trkpt>
      <trkpt lat="47.46482" lon="0.88933">
        <ele>140</ele>
        <time>2013-09-01T07:44:17.150Z</time>
      </trkpt>
      <trkpt lat="47.46482" lon="0.88923">
        <ele>139</ele>
        <time>2013-09-01T07:44:18.518Z</time>
      </trkpt>
      <trkpt lat="47.46483" lon="0.88914">
        <ele>139</ele>
        <time>2013-09-01T07:44:19.555Z</time>
      </trkpt>
      <trkpt lat="47.46484" lon="0.88904">
        <ele>137</ele>
        <time>2013-09-01T07:44:20.550Z</time>
      </trkpt>
      <trkpt lat="47.46485" lon="0.88895">
        <ele>136</ele>
        <time>2013-09-01T07:44:21.526Z</time>
      </trkpt>
      <trkpt lat="47.46486" lon="0.88884">
        <ele>136</ele>
        <time>2013-09-01T07:44:22.560Z</time>
      </trkpt>
      <trkpt lat="47.46487" lon="0.88875">
        <ele>134</ele>
        <time>2013-09-01T07:44:23.566Z</time>
      </trkpt>
      <trkpt lat="47.46489" lon="0.88868">
        <ele>134</ele>
        <time>2013-09-01T07:44:24.575Z</time>
      </trkpt>
      <trkpt lat="47.46488" lon="0.88862">
        <ele>132</ele>
        <time>2013-09-01T07:44:25.628Z</time>
      </trkpt>
      <trkpt lat="47.46488" lon="0.88854">
        <ele>132</ele>
        <time>2013-09-01T07:44:26.565Z</time>
      </trkpt>
      <trkpt lat="47.4649" lon="0.88843">
        <ele>132</ele>
        <time>2013-09-01T07:44:28.612Z</time>
      </trkpt>
      <trkpt lat="47.46491" lon="0.88841">
        <ele>131</ele>
        <time>2013-09-01T07:44:29.509Z</time>
      </trkpt>
      <trkpt lat="47.46484" lon="0.88835">
        <ele>129</ele>
        <time>2013-09-01T07:44:33.608Z</time>
      </trkpt>
      <trkpt lat="47.46484" lon="0.88831">
        <ele>128</ele>
        <time>2013-09-01T07:44:34.509Z</time>
      </trkpt>
      <trkpt lat="47.46484" lon="0.88824">
        <ele>128</ele>
        <time>2013-09-01T07:44:38.560Z</time>
      </trkpt>
      <trkpt lat="47.46484" lon="0.88824">
        <ele>128</ele>
        <time>2013-09-01T07:44:39.560Z</time>
      </trkpt>
      <trkpt lat="47.46484" lon="0.88824">
        <ele>129</ele>
        <time>2013-09-01T07:44:51.550Z</time>
      </trkpt>
      <trkpt lat="47.46484" lon="0.88826">
        <ele>129</ele>
        <time>2013-09-01T07:44:52.607Z</time>
      </trkpt>
      <trkpt lat="47.46484" lon="0.88826">
        <ele>129</ele>
        <time>2013-09-01T07:44:54.581Z</time>
      </trkpt>
      <trkpt lat="47.46484" lon="0.88826">
        <ele>129</ele>
        <time>2013-09-01T07:44:55.516Z</time>
      </trkpt>
      <trkpt lat="47.46484" lon="0.88825">
        <ele>129</ele>
        <time>2013-09-01T07:44:56.565Z</time>
      </trkpt>
      <trkpt lat="47.46484" lon="0.88824">
        <ele>129</ele>
        <time>2013-09-01T07:44:58.510Z</time>
      </trkpt>
      <trkpt lat="47.46484" lon="0.88824">
        <ele>129</ele>
        <time>2013-09-01T07:44:59.573Z</time>
      </trkpt>
      <trkpt lat="47.46484" lon="0.88824">
        <ele>129</ele>
        <time>2013-09-01T07:45:00.536Z</time>
      </trkpt>
      <trkpt lat="47.46484" lon="0.88826">
        <ele>129</ele>
        <time>2013-09-01T07:45:01.573Z</time>
      </trkpt>
      <trkpt lat="47.46484" lon="0.88826">
        <ele>129</ele>
        <time>2013-09-01T07:45:03.510Z</time>
      </trkpt>
      <trkpt lat="47.46484" lon="0.88826">
        <ele>129</ele>
        <time>2013-09-01T07:45:04.563Z</time>
      </trkpt>
      <trkpt lat="47.46484" lon="0.88826">
        <ele>129</ele>
        <time>2013-09-01T07:45:14.571Z</time>
      </trkpt>
      <trkpt lat="47.46484" lon="0.88825">
        <ele>130</ele>
        <time>2013-09-01T07:45:15.578Z</time>
      </trkpt>
      <trkpt lat="47.4649" lon="0.8882">
        <ele>131</ele>
        <time>2013-09-01T07:45:18.547Z</time>
      </trkpt>
      <trkpt lat="47.46492" lon="0.88818">
        <ele>131</ele>
        <time>2013-09-01T07:45:19.569Z</time>
      </trkpt>
      <trkpt lat="47.46495" lon="0.8881">
        <ele>131</ele>
        <time>2013-09-01T07:45:21.560Z</time>
      </trkpt>
      <trkpt lat="47.46496" lon="0.88805">
        <ele>131</ele>
        <time>2013-09-01T07:45:22.560Z</time>
      </trkpt>
      <trkpt lat="47.46498" lon="0.88799">
        <ele>131</ele>
        <time>2013-09-01T07:45:23.520Z</time>
      </trkpt>
      <trkpt lat="47.465" lon="0.88792">
        <ele>132</ele>
        <time>2013-09-01T07:45:24.575Z</time>
      </trkpt>
      <trkpt lat="47.46506" lon="0.88783">
        <ele>135</ele>
        <time>2013-09-01T07:45:26.570Z</time>
      </trkpt>
      <trkpt lat="47.46509" lon="0.88781">
        <ele>137</ele>
        <time>2013-09-01T07:45:27.575Z</time>
      </trkpt>
      <trkpt lat="47.46515" lon="0.88779">
        <ele>139</ele>
        <time>2013-09-01T07:45:29.556Z</time>
      </trkpt>
      <trkpt lat="47.4652" lon="0.8878">
        <ele>137</ele>
        <time>2013-09-01T07:45:30.565Z</time>
      </trkpt>
      <trkpt lat="47.46525" lon="0.88781">
        <ele>135</ele>
        <time>2013-09-01T07:45:31.564Z</time>
      </trkpt>
      <trkpt lat="47.46529" lon="0.88783">
        <ele>133</ele>
        <time>2013-09-01T07:45:32.565Z</time>
      </trkpt>
      <trkpt lat="47.46537" lon="0.88783">
        <ele>133</ele>
        <time>2013-09-01T07:45:34.548Z</time>
      </trkpt>
      <trkpt lat="47.4654" lon="0.88783">
        <ele>134</ele>
        <time>2013-09-01T07:45:35.574Z</time>
      </trkpt>
      <trkpt lat="47.46548" lon="0.88783">
        <ele>135</ele>
        <time>2013-09-01T07:45:38.570Z</time>
      </trkpt>
      <trkpt lat="47.46552" lon="0.88783">
        <ele>136</ele>
        <time>2013-09-01T07:45:39.565Z</time>
      </trkpt>
      <trkpt lat="47.46556" lon="0.88783">
        <ele>137</ele>
        <time>2013-09-01T07:45:40.580Z</time>
      </trkpt>
      <trkpt lat="47.46561" lon="0.88783">
        <ele>135</ele>
        <time>2013-09-01T07:45:41.529Z</time>
      </trkpt>
      <trkpt lat="47.46569" lon="0.88785">
        <ele>135</ele>
        <time>2013-09-01T07:45:43.583Z</time>
      </trkpt>
      <trkpt lat="47.46574" lon="0.88784">
        <ele>135</ele>
        <time>2013-09-01T07:45:44.575Z</time>
      </trkpt>
      <trkpt lat="47.46583" lon="0.88783">
        <ele>137</ele>
        <time>2013-09-01T07:45:47.579Z</time>
      </trkpt>
      <trkpt lat="47.46588" lon="0.88783">
        <ele>137</ele>
        <time>2013-09-01T07:45:48.557Z</time>
      </trkpt>
      <trkpt lat="47.46593" lon="0.88782">
        <ele>135</ele>
        <time>2013-09-01T07:45:49.550Z</time>
      </trkpt>
      <trkpt lat="47.46599" lon="0.88783">
        <ele>134</ele>
        <time>2013-09-01T07:45:50.575Z</time>
      </trkpt>
      <trkpt lat="47.46607" lon="0.88783">
        <ele>135</ele>
        <time>2013-09-01T07:45:52.570Z</time>
      </trkpt>
      <trkpt lat="47.46609" lon="0.88785">
        <ele>136</ele>
        <time>2013-09-01T07:45:53.575Z</time>
      </trkpt>
      <trkpt lat="47.46615" lon="0.88786">
        <ele>139</ele>
        <time>2013-09-01T07:45:55.529Z</time>
      </trkpt>
      <trkpt lat="47.46618" lon="0.88785">
        <ele>140</ele>
        <time>2013-09-01T07:45:56.527Z</time>
      </trkpt>
      <trkpt lat="47.46624" lon="0.88788">
        <ele>141</ele>
        <time>2013-09-01T07:45:58.543Z</time>
      </trkpt>
      <trkpt lat="47.46628" lon="0.88789">
        <ele>140</ele>
        <time>2013-09-01T07:45:59.580Z</time>
      </trkpt>
      <trkpt lat="47.46636" lon="0.88792">
        <ele>142</ele>
        <time>2013-09-01T07:46:02.580Z</time>
      </trkpt>
      <trkpt lat="47.46639" lon="0.88794">
        <ele>142</ele>
        <time>2013-09-01T07:46:03.576Z</time>
      </trkpt>
      <trkpt lat="47.46647" lon="0.88796">
        <ele>143</ele>
        <time>2013-09-01T07:46:06.547Z</time>
      </trkpt>
      <trkpt lat="47.4665" lon="0.88796">
        <ele>143</ele>
        <time>2013-09-01T07:46:07.575Z</time>
      </trkpt>
      <trkpt lat="47.46658" lon="0.888">
        <ele>146</ele>
        <time>2013-09-01T07:46:11.595Z</time>
      </trkpt>
      <trkpt lat="47.46661" lon="0.88801">
        <ele>145</ele>
        <time>2013-09-01T07:46:12.595Z</time>
      </trkpt>
      <trkpt lat="47.4667" lon="0.88805">
        <ele>145</ele>
        <time>2013-09-01T07:46:15.585Z</time>
      </trkpt>
      <trkpt lat="47.46672" lon="0.88805">
        <ele>145</ele>
        <time>2013-09-01T07:46:16.610Z</time>
      </trkpt>
      <trkpt lat="47.46679" lon="0.88811">
        <ele>147</ele>
        <time>2013-09-01T07:46:19.542Z</time>
      </trkpt>
      <trkpt lat="47.46681" lon="0.88813">
        <ele>148</ele>
        <time>2013-09-01T07:46:20.555Z</time>
      </trkpt>
      <trkpt lat="47.46683" lon="0.88826">
        <ele>154</ele>
        <time>2013-09-01T07:46:25.517Z</time>
      </trkpt>
      <trkpt lat="47.46683" lon="0.88828">
        <ele>154</ele>
        <time>2013-09-01T07:46:26.554Z</time>
      </trkpt>
      <trkpt lat="47.46679" lon="0.88837">
        <ele>152</ele>
        <time>2013-09-01T07:46:29.519Z</time>
      </trkpt>
      <trkpt lat="47.46676" lon="0.88839">
        <ele>151</ele>
        <time>2013-09-01T07:46:30.528Z</time>
      </trkpt>
      <trkpt lat="47.46674" lon="0.8885">
        <ele>148</ele>
        <time>2013-09-01T07:46:33.623Z</time>
      </trkpt>
      <trkpt lat="47.46673" lon="0.88852">
        <ele>147</ele>
        <time>2013-09-01T07:46:34.523Z</time>
      </trkpt>
      <trkpt lat="47.46669" lon="0.88862">
        <ele>145</ele>
        <time>2013-09-01T07:46:37.585Z</time>
      </trkpt>
      <trkpt lat="47.46667" lon="0.88867">
        <ele>144</ele>
        <time>2013-09-01T07:46:38.618Z</time>
      </trkpt>
      <trkpt lat="47.46664" lon="0.88876">
        <ele>143</ele>
        <time>2013-09-01T07:46:41.569Z</time>
      </trkpt>
      <trkpt lat="47.46662" lon="0.88878">
        <ele>144</ele>
        <time>2013-09-01T07:46:42.521Z</time>
      </trkpt>
      <trkpt lat="47.4666" lon="0.88886">
        <ele>144</ele>
        <time>2013-09-01T07:46:45.534Z</time>
      </trkpt>
      <trkpt lat="47.46659" lon="0.8889">
        <ele>144</ele>
        <time>2013-09-01T07:46:46.576Z</time>
      </trkpt>
      <trkpt lat="47.46659" lon="0.88903">
        <ele>145</ele>
        <time>2013-09-01T07:46:50.554Z</time>
      </trkpt>
      <trkpt lat="47.4666" lon="0.88906">
        <ele>145</ele>
        <time>2013-09-01T07:46:51.595Z</time>
      </trkpt>
      <trkpt lat="47.46668" lon="0.88912">
        <ele>146</ele>
        <time>2013-09-01T07:46:54.533Z</time>
      </trkpt>
      <trkpt lat="47.4667" lon="0.88912">
        <ele>146</ele>
        <time>2013-09-01T07:46:55.528Z</time>
      </trkpt>
      <trkpt lat="47.46677" lon="0.88917">
        <ele>146</ele>
        <time>2013-09-01T07:46:58.523Z</time>
      </trkpt>
      <trkpt lat="47.46679" lon="0.88918">
        <ele>147</ele>
        <time>2013-09-01T07:46:59.517Z</time>
      </trkpt>
      <trkpt lat="47.46686" lon="0.88923">
        <ele>147</ele>
        <time>2013-09-01T07:47:02.518Z</time>
      </trkpt>
      <trkpt lat="47.46689" lon="0.88925">
        <ele>146</ele>
        <time>2013-09-01T07:47:03.514Z</time>
      </trkpt>
      <trkpt lat="47.46696" lon="0.88931">
        <ele>146</ele>
        <time>2013-09-01T07:47:06.585Z</time>
      </trkpt>
      <trkpt lat="47.467" lon="0.88932">
        <ele>146</ele>
        <time>2013-09-01T07:47:07.594Z</time>
      </trkpt>
      <trkpt lat="47.46708" lon="0.88936">
        <ele>147</ele>
        <time>2013-09-01T07:47:10.600Z</time>
      </trkpt>
      <trkpt lat="47.46712" lon="0.88938">
        <ele>148</ele>
        <time>2013-09-01T07:47:11.600Z</time>
      </trkpt>
      <trkpt lat="47.46718" lon="0.88942">
        <ele>149</ele>
        <time>2013-09-01T07:47:13.591Z</time>
      </trkpt>
      <trkpt lat="47.4672" lon="0.88942">
        <ele>149</ele>
        <time>2013-09-01T07:47:14.596Z</time>
      </trkpt>
      <trkpt lat="47.46727" lon="0.88944">
        <ele>150</ele>
        <time>2013-09-01T07:47:16.591Z</time>
      </trkpt>
      <trkpt lat="47.4673" lon="0.88946">
        <ele>150</ele>
        <time>2013-09-01T07:47:17.595Z</time>
      </trkpt>
      <trkpt lat="47.46736" lon="0.88949">
        <ele>149</ele>
        <time>2013-09-01T07:47:19.578Z</time>
      </trkpt>
      <trkpt lat="47.4674" lon="0.88949">
        <ele>149</ele>
        <time>2013-09-01T07:47:20.544Z</time>
      </trkpt>
      <trkpt lat="47.46746" lon="0.88953">
        <ele>149</ele>
        <time>2013-09-01T07:47:22.615Z</time>
      </trkpt>
      <trkpt lat="47.46749" lon="0.88955">
        <ele>148</ele>
        <time>2013-09-01T07:47:23.592Z</time>
      </trkpt>
      <trkpt lat="47.46756" lon="0.88957">
        <ele>147</ele>
        <time>2013-09-01T07:47:25.620Z</time>
      </trkpt>
      <trkpt lat="47.4676" lon="0.88959">
        <ele>148</ele>
        <time>2013-09-01T07:47:26.684Z</time>
      </trkpt>
      <trkpt lat="47.46764" lon="0.88961">
        <ele>148</ele>
        <time>2013-09-01T07:47:27.540Z</time>
      </trkpt>
      <trkpt lat="47.46769" lon="0.88964">
        <ele>148</ele>
        <time>2013-09-01T07:47:28.533Z</time>
      </trkpt>
      <trkpt lat="47.46776" lon="0.88968">
        <ele>148</ele>
        <time>2013-09-01T07:47:30.585Z</time>
      </trkpt>
      <trkpt lat="47.46779" lon="0.88972">
        <ele>149</ele>
        <time>2013-09-01T07:47:31.580Z</time>
      </trkpt>
      <trkpt lat="47.46786" lon="0.88977">
        <ele>149</ele>
        <time>2013-09-01T07:47:33.590Z</time>
      </trkpt>
      <trkpt lat="47.4679" lon="0.8898">
        <ele>149</ele>
        <time>2013-09-01T07:47:34.579Z</time>
      </trkpt>
      <trkpt lat="47.46797" lon="0.88983">
        <ele>150</ele>
        <time>2013-09-01T07:47:36.543Z</time>
      </trkpt>
      <trkpt lat="47.46802" lon="0.88985">
        <ele>150</ele>
        <time>2013-09-01T07:47:37.570Z</time>
      </trkpt>
      <trkpt lat="47.4681" lon="0.88989">
        <ele>148</ele>
        <time>2013-09-01T07:47:39.577Z</time>
      </trkpt>
      <trkpt lat="47.46815" lon="0.8899">
        <ele>148</ele>
        <time>2013-09-01T07:47:40.595Z</time>
      </trkpt>
      <trkpt lat="47.46822" lon="0.88989">
        <ele>149</ele>
        <time>2013-09-01T07:47:42.595Z</time>
      </trkpt>
      <trkpt lat="47.46827" lon="0.88991">
        <ele>150</ele>
        <time>2013-09-01T07:47:43.799Z</time>
      </trkpt>
      <trkpt lat="47.46834" lon="0.88992">
        <ele>150</ele>
        <time>2013-09-01T07:47:45.595Z</time>
      </trkpt>
      <trkpt lat="47.46838" lon="0.88991">
        <ele>149</ele>
        <time>2013-09-01T07:47:46.600Z</time>
      </trkpt>
      <trkpt lat="47.46846" lon="0.88986">
        <ele>152</ele>
        <time>2013-09-01T07:47:49.583Z</time>
      </trkpt>
      <trkpt lat="47.46847" lon="0.88985">
        <ele>153</ele>
        <time>2013-09-01T07:47:50.610Z</time>
      </trkpt>
      <trkpt lat="47.46853" lon="0.88979">
        <ele>152</ele>
        <time>2013-09-01T07:47:52.559Z</time>
      </trkpt>
      <trkpt lat="47.46857" lon="0.88975">
        <ele>151</ele>
        <time>2013-09-01T07:47:53.562Z</time>
      </trkpt>
      <trkpt lat="47.46862" lon="0.8897">
        <ele>149</ele>
        <time>2013-09-01T07:47:54.596Z</time>
      </trkpt>
      <trkpt lat="47.46866" lon="0.88964">
        <ele>149</ele>
        <time>2013-09-01T07:47:55.590Z</time>
      </trkpt>
      <trkpt lat="47.4687" lon="0.88961">
        <ele>148</ele>
        <time>2013-09-01T07:47:56.590Z</time>
      </trkpt>
      <trkpt lat="47.46876" lon="0.88957">
        <ele>146</ele>
        <time>2013-09-01T07:47:57.590Z</time>
      </trkpt>
      <trkpt lat="47.46883" lon="0.88953">
        <ele>145</ele>
        <time>2013-09-01T07:47:58.546Z</time>
      </trkpt>
      <trkpt lat="47.46889" lon="0.8895">
        <ele>146</ele>
        <time>2013-09-01T07:47:59.553Z</time>
      </trkpt>
      <trkpt lat="47.46893" lon="0.88948">
        <ele>145</ele>
        <time>2013-09-01T07:48:00.549Z</time>
      </trkpt>
      <trkpt lat="47.46898" lon="0.88948">
        <ele>144</ele>
        <time>2013-09-01T07:48:01.558Z</time>
      </trkpt>
      <trkpt lat="47.46904" lon="0.88948">
        <ele>144</ele>
        <time>2013-09-01T07:48:02.594Z</time>
      </trkpt>
      <trkpt lat="47.46909" lon="0.88948">
        <ele>143</ele>
        <time>2013-09-01T07:48:03.597Z</time>
      </trkpt>
      <trkpt lat="47.46913" lon="0.8895">
        <ele>144</ele>
        <time>2013-09-01T07:48:04.595Z</time>
      </trkpt>
      <trkpt lat="47.46919" lon="0.88953">
        <ele>145</ele>
        <time>2013-09-01T07:48:05.595Z</time>
      </trkpt>
      <trkpt lat="47.46927" lon="0.88953">
        <ele>146</ele>
        <time>2013-09-01T07:48:06.595Z</time>
      </trkpt>
      <trkpt lat="47.46934" lon="0.88955">
        <ele>147</ele>
        <time>2013-09-01T07:48:07.600Z</time>
      </trkpt>
      <trkpt lat="47.4694" lon="0.88957">
        <ele>147</ele>
        <time>2013-09-01T07:48:08.595Z</time>
      </trkpt>
      <trkpt lat="47.46947" lon="0.88959">
        <ele>147</ele>
        <time>2013-09-01T07:48:09.543Z</time>
      </trkpt>
      <trkpt lat="47.46952" lon="0.88959">
        <ele>147</ele>
        <time>2013-09-01T07:48:10.543Z</time>
      </trkpt>
      <trkpt lat="47.46957" lon="0.88961">
        <ele>147</ele>
        <time>2013-09-01T07:48:11.536Z</time>
      </trkpt>
      <trkpt lat="47.46966" lon="0.88962">
        <ele>147</ele>
        <time>2013-09-01T07:48:13.542Z</time>
      </trkpt>
      <trkpt lat="47.46969" lon="0.88963">
        <ele>148</ele>
        <time>2013-09-01T07:48:14.824Z</time>
      </trkpt>
      <trkpt lat="47.46974" lon="0.88964">
        <ele>149</ele>
        <time>2013-09-01T07:48:15.572Z</time>
      </trkpt>
      <trkpt lat="47.4698" lon="0.88964">
        <ele>150</ele>
        <time>2013-09-01T07:48:16.562Z</time>
      </trkpt>
      <trkpt lat="47.46985" lon="0.88965">
        <ele>150</ele>
        <time>2013-09-01T07:48:17.592Z</time>
      </trkpt>
      <trkpt lat="47.4699" lon="0.88964">
        <ele>149</ele>
        <time>2013-09-01T07:48:18.549Z</time>
      </trkpt>
      <trkpt lat="47.46995" lon="0.88964">
        <ele>149</ele>
        <time>2013-09-01T07:48:19.595Z</time>
      </trkpt>
      <trkpt lat="47.47" lon="0.88962">
        <ele>148</ele>
        <time>2013-09-01T07:48:20.532Z</time>
      </trkpt>
      <trkpt lat="47.47005" lon="0.88959">
        <ele>148</ele>
        <time>2013-09-01T07:48:21.533Z</time>
      </trkpt>
      <trkpt lat="47.4701" lon="0.88957">
        <ele>146</ele>
        <time>2013-09-01T07:48:22.585Z</time>
      </trkpt>
      <trkpt lat="47.47016" lon="0.88955">
        <ele>146</ele>
        <time>2013-09-01T07:48:23.571Z</time>
      </trkpt>
      <trkpt lat="47.47022" lon="0.88951">
        <ele>144</ele>
        <time>2013-09-01T07:48:24.609Z</time>
      </trkpt>
      <trkpt lat="47.47028" lon="0.88948">
        <ele>143</ele>
        <time>2013-09-01T07:48:25.568Z</time>
      </trkpt>
      <trkpt lat="47.47035" lon="0.88944">
        <ele>143</ele>
        <time>2013-09-01T07:48:26.641Z</time>
      </trkpt>
      <trkpt lat="47.47042" lon="0.8894">
        <ele>142</ele>
        <time>2013-09-01T07:48:27.519Z</time>
      </trkpt>
      <trkpt lat="47.4705" lon="0.88936">
        <ele>140</ele>
        <time>2013-09-01T07:48:28.524Z</time>
      </trkpt>
      <trkpt lat="47.47057" lon="0.88931">
        <ele>140</ele>
        <time>2013-09-01T07:48:29.589Z</time>
      </trkpt>
      <trkpt lat="47.47064" lon="0.88927">
        <ele>142</ele>
        <time>2013-09-01T07:48:30.551Z</time>
      </trkpt>
      <trkpt lat="47.4707" lon="0.88924">
        <ele>143</ele>
        <time>2013-09-01T07:48:31.565Z</time>
      </trkpt>
      <trkpt lat="47.47076" lon="0.88921">
        <ele>143</ele>
        <time>2013-09-01T07:48:32.543Z</time>
      </trkpt>
      <trkpt lat="47.47084" lon="0.88919">
        <ele>140</ele>
        <time>2013-09-01T07:48:33.546Z</time>
      </trkpt>
      <trkpt lat="47.47091" lon="0.88919">
        <ele>139</ele>
        <time>2013-09-01T07:48:34.533Z</time>
      </trkpt>
      <trkpt lat="47.47098" lon="0.8892">
        <ele>140</ele>
        <time>2013-09-01T07:48:35.676Z</time>
      </trkpt>
      <trkpt lat="47.47104" lon="0.88919">
        <ele>140</ele>
        <time>2013-09-01T07:48:36.606Z</time>
      </trkpt>
      <trkpt lat="47.47108" lon="0.88917">
        <ele>141</ele>
        <time>2013-09-01T07:48:37.547Z</time>
      </trkpt>
      <trkpt lat="47.47113" lon="0.88915">
        <ele>139</ele>
        <time>2013-09-01T07:48:38.535Z</time>
      </trkpt>
      <trkpt lat="47.47117" lon="0.88912">
        <ele>139</ele>
        <time>2013-09-01T07:48:39.585Z</time>
      </trkpt>
      <trkpt lat="47.47122" lon="0.88905">
        <ele>136</ele>
        <time>2013-09-01T07:48:40.552Z</time>
      </trkpt>
      <trkpt lat="47.47128" lon="0.889">
        <ele>135</ele>
        <time>2013-09-01T07:48:41.529Z</time>
      </trkpt>
      <trkpt lat="47.47135" lon="0.88895">
        <ele>133</ele>
        <time>2013-09-01T07:48:42.534Z</time>
      </trkpt>
      <trkpt lat="47.47142" lon="0.88889">
        <ele>135</ele>
        <time>2013-09-01T07:48:43.548Z</time>
      </trkpt>
      <trkpt lat="47.47148" lon="0.88884">
        <ele>134</ele>
        <time>2013-09-01T07:48:44.573Z</time>
      </trkpt>
      <trkpt lat="47.47155" lon="0.88881">
        <ele>131</ele>
        <time>2013-09-01T07:48:45.565Z</time>
      </trkpt>
      <trkpt lat="47.47163" lon="0.88877">
        <ele>133</ele>
        <time>2013-09-01T07:48:46.555Z</time>
      </trkpt>
      <trkpt lat="47.4717" lon="0.88876">
        <ele>134</ele>
        <time>2013-09-01T07:48:47.534Z</time>
      </trkpt>
      <trkpt lat="47.47177" lon="0.88876">
        <ele>137</ele>
        <time>2013-09-01T07:48:48.532Z</time>
      </trkpt>
      <trkpt lat="47.47186" lon="0.88877">
        <ele>140</ele>
        <time>2013-09-01T07:48:49.584Z</time>
      </trkpt>
      <trkpt lat="47.47195" lon="0.88882">
        <ele>140</ele>
        <time>2013-09-01T07:48:50.535Z</time>
      </trkpt>
      <trkpt lat="47.47203" lon="0.88886">
        <ele>140</ele>
        <time>2013-09-01T07:48:51.590Z</time>
      </trkpt>
      <trkpt lat="47.47211" lon="0.8889">
        <ele>140</ele>
        <time>2013-09-01T07:48:52.580Z</time>
      </trkpt>
      <trkpt lat="47.47217" lon="0.88895">
        <ele>142</ele>
        <time>2013-09-01T07:48:53.685Z</time>
      </trkpt>
      <trkpt lat="47.47222" lon="0.88897">
        <ele>142</ele>
        <time>2013-09-01T07:48:54.563Z</time>
      </trkpt>
      <trkpt lat="47.47228" lon="0.88899">
        <ele>143</ele>
        <time>2013-09-01T07:48:55.557Z</time>
      </trkpt>
      <trkpt lat="47.47233" lon="0.88902">
        <ele>143</ele>
        <time>2013-09-01T07:48:56.588Z</time>
      </trkpt>
      <trkpt lat="47.47237" lon="0.88903">
        <ele>143</ele>
        <time>2013-09-01T07:48:57.570Z</time>
      </trkpt>
      <trkpt lat="47.47243" lon="0.88906">
        <ele>143</ele>
        <time>2013-09-01T07:48:58.581Z</time>
      </trkpt>
      <trkpt lat="47.47247" lon="0.88908">
        <ele>143</ele>
        <time>2013-09-01T07:48:59.596Z</time>
      </trkpt>
      <trkpt lat="47.47252" lon="0.88912">
        <ele>143</ele>
        <time>2013-09-01T07:49:00.531Z</time>
      </trkpt>
      <trkpt lat="47.47257" lon="0.88914">
        <ele>143</ele>
        <time>2013-09-01T07:49:01.541Z</time>
      </trkpt>
      <trkpt lat="47.47262" lon="0.88918">
        <ele>143</ele>
        <time>2013-09-01T07:49:02.590Z</time>
      </trkpt>
      <trkpt lat="47.47269" lon="0.88927">
        <ele>143</ele>
        <time>2013-09-01T07:49:04.534Z</time>
      </trkpt>
      <trkpt lat="47.47273" lon="0.88931">
        <ele>142</ele>
        <time>2013-09-01T07:49:05.541Z</time>
      </trkpt>
      <trkpt lat="47.47277" lon="0.88936">
        <ele>143</ele>
        <time>2013-09-01T07:49:06.590Z</time>
      </trkpt>
      <trkpt lat="47.47281" lon="0.88938">
        <ele>143</ele>
        <time>2013-09-01T07:49:07.571Z</time>
      </trkpt>
      <trkpt lat="47.47285" lon="0.88939">
        <ele>143</ele>
        <time>2013-09-01T07:49:08.570Z</time>
      </trkpt>
      <trkpt lat="47.47291" lon="0.88937">
        <ele>143</ele>
        <time>2013-09-01T07:49:09.630Z</time>
      </trkpt>
      <trkpt lat="47.47295" lon="0.88929">
        <ele>142</ele>
        <time>2013-09-01T07:49:10.553Z</time>
      </trkpt>
      <trkpt lat="47.473" lon="0.8892">
        <ele>140</ele>
        <time>2013-09-01T07:49:11.527Z</time>
      </trkpt>
      <trkpt lat="47.47305" lon="0.8891">
        <ele>139</ele>
        <time>2013-09-01T07:49:12.589Z</time>
      </trkpt>
      <trkpt lat="47.47312" lon="0.88901">
        <ele>136</ele>
        <time>2013-09-01T07:49:13.550Z</time>
      </trkpt>
      <trkpt lat="47.47319" lon="0.88893">
        <ele>134</ele>
        <time>2013-09-01T07:49:14.580Z</time>
      </trkpt>
      <trkpt lat="47.47325" lon="0.88884">
        <ele>135</ele>
        <time>2013-09-01T07:49:15.585Z</time>
      </trkpt>
      <trkpt lat="47.47332" lon="0.88877">
        <ele>132</ele>
        <time>2013-09-01T07:49:16.599Z</time>
      </trkpt>
      <trkpt lat="47.47337" lon="0.88871">
        <ele>131</ele>
        <time>2013-09-01T07:49:17.575Z</time>
      </trkpt>
      <trkpt lat="47.47341" lon="0.88866">
        <ele>128</ele>
        <time>2013-09-01T07:49:18.568Z</time>
      </trkpt>
      <trkpt lat="47.47346" lon="0.88864">
        <ele>132</ele>
        <time>2013-09-01T07:49:19.581Z</time>
      </trkpt>
      <trkpt lat="47.4735" lon="0.88864">
        <ele>132</ele>
        <time>2013-09-01T07:49:20.542Z</time>
      </trkpt>
      <trkpt lat="47.47343" lon="0.88861">
        <ele>138</ele>
        <time>2013-09-01T07:49:25.615Z</time>
      </trkpt>
      <trkpt lat="47.47337" lon="0.88859">
        <ele>138</ele>
        <time>2013-09-01T07:49:26.662Z</time>
      </trkpt>
      <trkpt lat="47.47331" lon="0.88857">
        <ele>138</ele>
        <time>2013-09-01T07:49:27.526Z</time>
      </trkpt>
      <trkpt lat="47.47323" lon="0.88853">
        <ele>136</ele>
        <time>2013-09-01T07:49:28.574Z</time>
      </trkpt>
      <trkpt lat="47.47315" lon="0.88849">
        <ele>136</ele>
        <time>2013-09-01T07:49:29.566Z</time>
      </trkpt>
      <trkpt lat="47.47307" lon="0.88842">
        <ele>138</ele>
        <time>2013-09-01T07:49:30.589Z</time>
      </trkpt>
      <trkpt lat="47.47299" lon="0.88836">
        <ele>140</ele>
        <time>2013-09-01T07:49:31.590Z</time>
      </trkpt>
      <trkpt lat="47.47293" lon="0.8883">
        <ele>138</ele>
        <time>2013-09-01T07:49:32.594Z</time>
      </trkpt>
      <trkpt lat="47.47285" lon="0.88824">
        <ele>138</ele>
        <time>2013-09-01T07:49:33.649Z</time>
      </trkpt>
      <trkpt lat="47.47276" lon="0.88819">
        <ele>139</ele>
        <time>2013-09-01T07:49:34.548Z</time>
      </trkpt>
      <trkpt lat="47.47266" lon="0.88815">
        <ele>139</ele>
        <time>2013-09-01T07:49:35.581Z</time>
      </trkpt>
      <trkpt lat="47.4725" lon="0.88809">
        <ele>139</ele>
        <time>2013-09-01T07:49:36.575Z</time>
      </trkpt>
      <trkpt lat="47.47235" lon="0.88803">
        <ele>138</ele>
        <time>2013-09-01T07:49:37.575Z</time>
      </trkpt>
      <trkpt lat="47.47223" lon="0.888">
        <ele>138</ele>
        <time>2013-09-01T07:49:38.586Z</time>
      </trkpt>
      <trkpt lat="47.47215" lon="0.88796">
        <ele>139</ele>
        <time>2013-09-01T07:49:39.518Z</time>
      </trkpt>
      <trkpt lat="47.47208" lon="0.88792">
        <ele>139</ele>
        <time>2013-09-01T07:49:40.538Z</time>
      </trkpt>
      <trkpt lat="47.47203" lon="0.88786">
        <ele>139</ele>
        <time>2013-09-01T07:49:41.553Z</time>
      </trkpt>
      <trkpt lat="47.47199" lon="0.8878">
        <ele>139</ele>
        <time>2013-09-01T07:49:42.575Z</time>
      </trkpt>
      <trkpt lat="47.47194" lon="0.88773">
        <ele>139</ele>
        <time>2013-09-01T07:49:43.565Z</time>
      </trkpt>
      <trkpt lat="47.47189" lon="0.88766">
        <ele>139</ele>
        <time>2013-09-01T07:49:44.528Z</time>
      </trkpt>
      <trkpt lat="47.47183" lon="0.8876">
        <ele>140</ele>
        <time>2013-09-01T07:49:45.523Z</time>
      </trkpt>
      <trkpt lat="47.47177" lon="0.88755">
        <ele>139</ele>
        <time>2013-09-01T07:49:46.575Z</time>
      </trkpt>
      <trkpt lat="47.47172" lon="0.8875">
        <ele>139</ele>
        <time>2013-09-01T07:49:47.565Z</time>
      </trkpt>
      <trkpt lat="47.47167" lon="0.88746">
        <ele>139</ele>
        <time>2013-09-01T07:49:48.594Z</time>
      </trkpt>
      <trkpt lat="47.47159" lon="0.88744">
        <ele>139</ele>
        <time>2013-09-01T07:49:49.519Z</time>
      </trkpt>
      <trkpt lat="47.4715" lon="0.88742">
        <ele>138</ele>
        <time>2013-09-01T07:49:50.542Z</time>
      </trkpt>
      <trkpt lat="47.47145" lon="0.88733">
        <ele>123</ele>
        <time>2013-09-01T07:49:53.575Z</time>
      </trkpt>
      <trkpt lat="47.47149" lon="0.88728">
        <ele>118</ele>
        <time>2013-09-01T07:49:54.533Z</time>
      </trkpt>
      <trkpt lat="47.47151" lon="0.88722">
        <ele>117</ele>
        <time>2013-09-01T07:49:55.529Z</time>
      </trkpt>
      <trkpt lat="47.47154" lon="0.88714">
        <ele>118</ele>
        <time>2013-09-01T07:49:56.532Z</time>
      </trkpt>
      <trkpt lat="47.47155" lon="0.88705">
        <ele>120</ele>
        <time>2013-09-01T07:49:57.585Z</time>
      </trkpt>
      <trkpt lat="47.47156" lon="0.88697">
        <ele>122</ele>
        <time>2013-09-01T07:49:58.584Z</time>
      </trkpt>
      <trkpt lat="47.47158" lon="0.88684">
        <ele>124</ele>
        <time>2013-09-01T07:50:00.541Z</time>
      </trkpt>
      <trkpt lat="47.4716" lon="0.88678">
        <ele>121</ele>
        <time>2013-09-01T07:50:01.546Z</time>
      </trkpt>
      <trkpt lat="47.47162" lon="0.88668">
        <ele>122</ele>
        <time>2013-09-01T07:50:03.565Z</time>
      </trkpt>
      <trkpt lat="47.47164" lon="0.88663">
        <ele>123</ele>
        <time>2013-09-01T07:50:04.593Z</time>
      </trkpt>
      <trkpt lat="47.47168" lon="0.88659">
        <ele>123</ele>
        <time>2013-09-01T07:50:05.585Z</time>
      </trkpt>
      <trkpt lat="47.47173" lon="0.88654">
        <ele>122</ele>
        <time>2013-09-01T07:50:06.595Z</time>
      </trkpt>
      <trkpt lat="47.47178" lon="0.88648">
        <ele>124</ele>
        <time>2013-09-01T07:50:08.585Z</time>
      </trkpt>
      <trkpt lat="47.47181" lon="0.88646">
        <ele>125</ele>
        <time>2013-09-01T07:50:09.588Z</time>
      </trkpt>
      <trkpt lat="47.47188" lon="0.88642">
        <ele>131</ele>
        <time>2013-09-01T07:50:11.590Z</time>
      </trkpt>
      <trkpt lat="47.47192" lon="0.88639">
        <ele>132</ele>
        <time>2013-09-01T07:50:12.590Z</time>
      </trkpt>
      <trkpt lat="47.47197" lon="0.88636">
        <ele>131</ele>
        <time>2013-09-01T07:50:13.585Z</time>
      </trkpt>
      <trkpt lat="47.47203" lon="0.88633">
        <ele>130</ele>
        <time>2013-09-01T07:50:14.538Z</time>
      </trkpt>
      <trkpt lat="47.47211" lon="0.88629">
        <ele>131</ele>
        <time>2013-09-01T07:50:16.542Z</time>
      </trkpt>
      <trkpt lat="47.47214" lon="0.88627">
        <ele>131</ele>
        <time>2013-09-01T07:50:17.558Z</time>
      </trkpt>
      <trkpt lat="47.47222" lon="0.88621">
        <ele>130</ele>
        <time>2013-09-01T07:50:19.583Z</time>
      </trkpt>
      <trkpt lat="47.47227" lon="0.88616">
        <ele>128</ele>
        <time>2013-09-01T07:50:20.599Z</time>
      </trkpt>
      <trkpt lat="47.47234" lon="0.8861">
        <ele>129</ele>
        <time>2013-09-01T07:50:22.542Z</time>
      </trkpt>
      <trkpt lat="47.47238" lon="0.88605">
        <ele>128</ele>
        <time>2013-09-01T07:50:23.543Z</time>
      </trkpt>
      <trkpt lat="47.47241" lon="0.88601">
        <ele>128</ele>
        <time>2013-09-01T07:50:24.575Z</time>
      </trkpt>
      <trkpt lat="47.47246" lon="0.88597">
        <ele>127</ele>
        <time>2013-09-01T07:50:25.538Z</time>
      </trkpt>
      <trkpt lat="47.47249" lon="0.88592">
        <ele>128</ele>
        <time>2013-09-01T07:50:26.572Z</time>
      </trkpt>
      <trkpt lat="47.47253" lon="0.88588">
        <ele>128</ele>
        <time>2013-09-01T07:50:27.566Z</time>
      </trkpt>
      <trkpt lat="47.47257" lon="0.88582">
        <ele>126</ele>
        <time>2013-09-01T07:50:28.609Z</time>
      </trkpt>
      <trkpt lat="47.4726" lon="0.88577">
        <ele>125</ele>
        <time>2013-09-01T07:50:29.614Z</time>
      </trkpt>
      <trkpt lat="47.47263" lon="0.88571">
        <ele>123</ele>
        <time>2013-09-01T07:50:30.680Z</time>
      </trkpt>
      <trkpt lat="47.47266" lon="0.88565">
        <ele>122</ele>
        <time>2013-09-01T07:50:31.634Z</time>
      </trkpt>
      <trkpt lat="47.47269" lon="0.8856">
        <ele>121</ele>
        <time>2013-09-01T07:50:32.611Z</time>
      </trkpt>
      <trkpt lat="47.47273" lon="0.88554">
        <ele>120</ele>
        <time>2013-09-01T07:50:33.630Z</time>
      </trkpt>
      <trkpt lat="47.47279" lon="0.88545">
        <ele>119</ele>
        <time>2013-09-01T07:50:35.605Z</time>
      </trkpt>
      <trkpt lat="47.47281" lon="0.88541">
        <ele>119</ele>
        <time>2013-09-01T07:50:36.605Z</time>
      </trkpt>
      <trkpt lat="47.47286" lon="0.88534">
        <ele>121</ele>
        <time>2013-09-01T07:50:38.555Z</time>
      </trkpt>
      <trkpt lat="47.4729" lon="0.88532">
        <ele>122</ele>
        <time>2013-09-01T07:50:39.555Z</time>
      </trkpt>
      <trkpt lat="47.47294" lon="0.88532">
        <ele>123</ele>
        <time>2013-09-01T07:50:40.576Z</time>
      </trkpt>
      <trkpt lat="47.47299" lon="0.88532">
        <ele>122</ele>
        <time>2013-09-01T07:50:41.621Z</time>
      </trkpt>
      <trkpt lat="47.47305" lon="0.88532">
        <ele>120</ele>
        <time>2013-09-01T07:50:42.651Z</time>
      </trkpt>
      <trkpt lat="47.47311" lon="0.88532">
        <ele>119</ele>
        <time>2013-09-01T07:50:43.615Z</time>
      </trkpt>
      <trkpt lat="47.47317" lon="0.88532">
        <ele>118</ele>
        <time>2013-09-01T07:50:44.624Z</time>
      </trkpt>
      <trkpt lat="47.47322" lon="0.88531">
        <ele>118</ele>
        <time>2013-09-01T07:50:45.625Z</time>
      </trkpt>
      <trkpt lat="47.47327" lon="0.88528">
        <ele>118</ele>
        <time>2013-09-01T07:50:46.600Z</time>
      </trkpt>
      <trkpt lat="47.47333" lon="0.88528">
        <ele>118</ele>
        <time>2013-09-01T07:50:47.659Z</time>
      </trkpt>
      <trkpt lat="47.47338" lon="0.88526">
        <ele>117</ele>
        <time>2013-09-01T07:50:48.604Z</time>
      </trkpt>
      <trkpt lat="47.47343" lon="0.88524">
        <ele>118</ele>
        <time>2013-09-01T07:50:49.634Z</time>
      </trkpt>
      <trkpt lat="47.47349" lon="0.88523">
        <ele>118</ele>
        <time>2013-09-01T07:50:50.605Z</time>
      </trkpt>
      <trkpt lat="47.47354" lon="0.88523">
        <ele>118</ele>
        <time>2013-09-01T07:50:51.600Z</time>
      </trkpt>
      <trkpt lat="47.47359" lon="0.88524">
        <ele>118</ele>
        <time>2013-09-01T07:50:52.600Z</time>
      </trkpt>
      <trkpt lat="47.47365" lon="0.88524">
        <ele>118</ele>
        <time>2013-09-01T07:50:53.556Z</time>
      </trkpt>
      <trkpt lat="47.47371" lon="0.88524">
        <ele>118</ele>
        <time>2013-09-01T07:50:54.547Z</time>
      </trkpt>
      <trkpt lat="47.47376" lon="0.88522">
        <ele>118</ele>
        <time>2013-09-01T07:50:55.554Z</time>
      </trkpt>
      <trkpt lat="47.47383" lon="0.88515">
        <ele>121</ele>
        <time>2013-09-01T07:50:57.605Z</time>
      </trkpt>
      <trkpt lat="47.47388" lon="0.88513">
        <ele>121</ele>
        <time>2013-09-01T07:50:58.598Z</time>
      </trkpt>
      <trkpt lat="47.47394" lon="0.88509">
        <ele>120</ele>
        <time>2013-09-01T07:50:59.611Z</time>
      </trkpt>
      <trkpt lat="47.474" lon="0.88506">
        <ele>120</ele>
        <time>2013-09-01T07:51:00.600Z</time>
      </trkpt>
      <trkpt lat="47.47405" lon="0.88504">
        <ele>120</ele>
        <time>2013-09-01T07:51:01.590Z</time>
      </trkpt>
      <trkpt lat="47.47409" lon="0.88502">
        <ele>120</ele>
        <time>2013-09-01T07:51:02.589Z</time>
      </trkpt>
      <trkpt lat="47.47414" lon="0.885">
        <ele>120</ele>
        <time>2013-09-01T07:51:03.542Z</time>
      </trkpt>
      <trkpt lat="47.4742" lon="0.88498">
        <ele>120</ele>
        <time>2013-09-01T07:51:04.543Z</time>
      </trkpt>
      <trkpt lat="47.47424" lon="0.88496">
        <ele>120</ele>
        <time>2013-09-01T07:51:05.537Z</time>
      </trkpt>
      <trkpt lat="47.47429" lon="0.88495">
        <ele>120</ele>
        <time>2013-09-01T07:51:06.533Z</time>
      </trkpt>
      <trkpt lat="47.47435" lon="0.88495">
        <ele>120</ele>
        <time>2013-09-01T07:51:07.553Z</time>
      </trkpt>
      <trkpt lat="47.47439" lon="0.88496">
        <ele>120</ele>
        <time>2013-09-01T07:51:08.584Z</time>
      </trkpt>
      <trkpt lat="47.47444" lon="0.88497">
        <ele>121</ele>
        <time>2013-09-01T07:51:09.592Z</time>
      </trkpt>
      <trkpt lat="47.4745" lon="0.88498">
        <ele>120</ele>
        <time>2013-09-01T07:51:10.599Z</time>
      </trkpt>
      <trkpt lat="47.47454" lon="0.885">
        <ele>121</ele>
        <time>2013-09-01T07:51:11.608Z</time>
      </trkpt>
      <trkpt lat="47.47459" lon="0.88502">
        <ele>120</ele>
        <time>2013-09-01T07:51:12.574Z</time>
      </trkpt>
      <trkpt lat="47.47465" lon="0.88506">
        <ele>118</ele>
        <time>2013-09-01T07:51:13.584Z</time>
      </trkpt>
      <trkpt lat="47.4747" lon="0.88509">
        <ele>116</ele>
        <time>2013-09-01T07:51:14.585Z</time>
      </trkpt>
      <trkpt lat="47.47475" lon="0.88513">
        <ele>115</ele>
        <time>2013-09-01T07:51:15.538Z</time>
      </trkpt>
      <trkpt lat="47.4748" lon="0.88515">
        <ele>118</ele>
        <time>2013-09-01T07:51:16.546Z</time>
      </trkpt>
      <trkpt lat="47.47485" lon="0.88517">
        <ele>118</ele>
        <time>2013-09-01T07:51:17.538Z</time>
      </trkpt>
      <trkpt lat="47.47491" lon="0.88521">
        <ele>118</ele>
        <time>2013-09-01T07:51:18.604Z</time>
      </trkpt>
      <trkpt lat="47.47496" lon="0.88524">
        <ele>117</ele>
        <time>2013-09-01T07:51:19.556Z</time>
      </trkpt>
      <trkpt lat="47.47501" lon="0.88528">
        <ele>116</ele>
        <time>2013-09-01T07:51:20.607Z</time>
      </trkpt>
      <trkpt lat="47.47507" lon="0.8853">
        <ele>116</ele>
        <time>2013-09-01T07:51:21.553Z</time>
      </trkpt>
      <trkpt lat="47.47512" lon="0.88534">
        <ele>115</ele>
        <time>2013-09-01T07:51:22.557Z</time>
      </trkpt>
      <trkpt lat="47.47516" lon="0.88539">
        <ele>116</ele>
        <time>2013-09-01T07:51:23.560Z</time>
      </trkpt>
      <trkpt lat="47.47522" lon="0.88541">
        <ele>115</ele>
        <time>2013-09-01T07:51:24.632Z</time>
      </trkpt>
      <trkpt lat="47.47527" lon="0.88545">
        <ele>115</ele>
        <time>2013-09-01T07:51:25.558Z</time>
      </trkpt>
      <trkpt lat="47.47532" lon="0.88547">
        <ele>115</ele>
        <time>2013-09-01T07:51:26.620Z</time>
      </trkpt>
      <trkpt lat="47.47538" lon="0.88549">
        <ele>115</ele>
        <time>2013-09-01T07:51:27.593Z</time>
      </trkpt>
      <trkpt lat="47.47542" lon="0.88552">
        <ele>115</ele>
        <time>2013-09-01T07:51:28.549Z</time>
      </trkpt>
      <trkpt lat="47.47547" lon="0.88552">
        <ele>114</ele>
        <time>2013-09-01T07:51:29.569Z</time>
      </trkpt>
      <trkpt lat="47.47552" lon="0.88554">
        <ele>114</ele>
        <time>2013-09-01T07:51:30.605Z</time>
      </trkpt>
      <trkpt lat="47.4756" lon="0.88556">
        <ele>113</ele>
        <time>2013-09-01T07:51:32.590Z</time>
      </trkpt>
      <trkpt lat="47.47565" lon="0.88558">
        <ele>114</ele>
        <time>2013-09-01T07:51:33.551Z</time>
      </trkpt>
      <trkpt lat="47.4757" lon="0.8856">
        <ele>114</ele>
        <time>2013-09-01T07:51:34.589Z</time>
      </trkpt>
      <trkpt lat="47.47574" lon="0.88562">
        <ele>114</ele>
        <time>2013-09-01T07:51:35.619Z</time>
      </trkpt>
      <trkpt lat="47.47578" lon="0.88564">
        <ele>114</ele>
        <time>2013-09-01T07:51:36.625Z</time>
      </trkpt>
      <trkpt lat="47.47583" lon="0.88568">
        <ele>114</ele>
        <time>2013-09-01T07:51:37.610Z</time>
      </trkpt>
      <trkpt lat="47.47586" lon="0.88573">
        <ele>114</ele>
        <time>2013-09-01T07:51:38.652Z</time>
      </trkpt>
      <trkpt lat="47.4759" lon="0.88577">
        <ele>114</ele>
        <time>2013-09-01T07:51:39.614Z</time>
      </trkpt>
      <trkpt lat="47.47598" lon="0.88584">
        <ele>114</ele>
        <time>2013-09-01T07:51:41.623Z</time>
      </trkpt>
      <trkpt lat="47.47601" lon="0.88588">
        <ele>115</ele>
        <time>2013-09-01T07:51:42.605Z</time>
      </trkpt>
      <trkpt lat="47.47605" lon="0.88592">
        <ele>115</ele>
        <time>2013-09-01T07:51:43.703Z</time>
      </trkpt>
      <trkpt lat="47.47609" lon="0.88596">
        <ele>115</ele>
        <time>2013-09-01T07:51:44.559Z</time>
      </trkpt>
      <trkpt lat="47.47613" lon="0.88599">
        <ele>114</ele>
        <time>2013-09-01T07:51:45.569Z</time>
      </trkpt>
      <trkpt lat="47.47617" lon="0.88603">
        <ele>115</ele>
        <time>2013-09-01T07:51:46.545Z</time>
      </trkpt>
      <trkpt lat="47.47621" lon="0.88607">
        <ele>116</ele>
        <time>2013-09-01T07:51:47.590Z</time>
      </trkpt>
      <trkpt lat="47.47624" lon="0.8861">
        <ele>115</ele>
        <time>2013-09-01T07:51:48.547Z</time>
      </trkpt>
      <trkpt lat="47.47629" lon="0.88614">
        <ele>115</ele>
        <time>2013-09-01T07:51:49.561Z</time>
      </trkpt>
      <trkpt lat="47.47633" lon="0.88618">
        <ele>115</ele>
        <time>2013-09-01T07:51:50.611Z</time>
      </trkpt>
      <trkpt lat="47.47638" lon="0.8862">
        <ele>115</ele>
        <time>2013-09-01T07:51:51.595Z</time>
      </trkpt>
      <trkpt lat="47.47642" lon="0.88623">
        <ele>115</ele>
        <time>2013-09-01T07:51:52.590Z</time>
      </trkpt>
      <trkpt lat="47.47647" lon="0.88625">
        <ele>115</ele>
        <time>2013-09-01T07:51:53.595Z</time>
      </trkpt>
      <trkpt lat="47.47651" lon="0.88627">
        <ele>114</ele>
        <time>2013-09-01T07:51:54.538Z</time>
      </trkpt>
      <trkpt lat="47.47657" lon="0.88627">
        <ele>114</ele>
        <time>2013-09-01T07:51:55.538Z</time>
      </trkpt>
      <trkpt lat="47.47661" lon="0.88625">
        <ele>113</ele>
        <time>2013-09-01T07:51:56.558Z</time>
      </trkpt>
      <trkpt lat="47.4767" lon="0.88623">
        <ele>114</ele>
        <time>2013-09-01T07:51:58.537Z</time>
      </trkpt>
      <trkpt lat="47.47673" lon="0.8862">
        <ele>115</ele>
        <time>2013-09-01T07:51:59.539Z</time>
      </trkpt>
      <trkpt lat="47.47679" lon="0.88616">
        <ele>116</ele>
        <time>2013-09-01T07:52:01.536Z</time>
      </trkpt>
      <trkpt lat="47.47682" lon="0.88614">
        <ele>117</ele>
        <time>2013-09-01T07:52:02.559Z</time>
      </trkpt>
      <trkpt lat="47.47686" lon="0.88611">
        <ele>118</ele>
        <time>2013-09-01T07:52:05.615Z</time>
      </trkpt>
      <trkpt lat="47.47686" lon="0.88612">
        <ele>117</ele>
        <time>2013-09-01T07:52:06.610Z</time>
      </trkpt>
      <trkpt lat="47.47686" lon="0.88612">
        <ele>117</ele>
        <time>2013-09-01T07:52:16.620Z</time>
      </trkpt>
      <trkpt lat="47.47686" lon="0.88613">
        <ele>117</ele>
        <time>2013-09-01T07:52:17.630Z</time>
      </trkpt>
      <trkpt lat="47.47686" lon="0.88614">
        <ele>117</ele>
        <time>2013-09-01T07:52:19.644Z</time>
      </trkpt>
      <trkpt lat="47.47686" lon="0.88614">
        <ele>117</ele>
        <time>2013-09-01T07:52:20.630Z</time>
      </trkpt>
      <trkpt lat="47.47686" lon="0.88614">
        <ele>117</ele>
        <time>2013-09-01T07:52:22.568Z</time>
      </trkpt>
      <trkpt lat="47.47686" lon="0.88612">
        <ele>117</ele>
        <time>2013-09-01T07:52:23.539Z</time>
      </trkpt>
      <trkpt lat="47.47692" lon="0.88607">
        <ele>117</ele>
        <time>2013-09-01T07:52:27.544Z</time>
      </trkpt>
      <trkpt lat="47.47694" lon="0.88605">
        <ele>117</ele>
        <time>2013-09-01T07:52:28.562Z</time>
      </trkpt>
      <trkpt lat="47.47696" lon="0.88605">
        <ele>117</ele>
        <time>2013-09-01T07:52:30.550Z</time>
      </trkpt>
      <trkpt lat="47.47696" lon="0.88605">
        <ele>117</ele>
        <time>2013-09-01T07:52:31.549Z</time>
      </trkpt>
      <trkpt lat="47.47696" lon="0.88605">
        <ele>117</ele>
        <time>2013-09-01T07:52:36.542Z</time>
      </trkpt>
      <trkpt lat="47.47697" lon="0.88603">
        <ele>116</ele>
        <time>2013-09-01T07:52:37.540Z</time>
      </trkpt>
      <trkpt lat="47.47704" lon="0.88598">
        <ele>114</ele>
        <time>2013-09-01T07:52:42.610Z</time>
      </trkpt>
      <trkpt lat="47.47705" lon="0.88597">
        <ele>113</ele>
        <time>2013-09-01T07:52:43.635Z</time>
      </trkpt>
      <trkpt lat="47.47713" lon="0.8859">
        <ele>112</ele>
        <time>2013-09-01T07:52:49.606Z</time>
      </trkpt>
      <trkpt lat="47.47714" lon="0.8859">
        <ele>112</ele>
        <time>2013-09-01T07:52:50.620Z</time>
      </trkpt>
      <trkpt lat="47.4772" lon="0.88582">
        <ele>112</ele>
        <time>2013-09-01T07:52:56.600Z</time>
      </trkpt>
      <trkpt lat="47.47722" lon="0.88581">
        <ele>112</ele>
        <time>2013-09-01T07:52:57.604Z</time>
      </trkpt>
      <trkpt lat="47.47729" lon="0.88575">
        <ele>112</ele>
        <time>2013-09-01T07:53:00.538Z</time>
      </trkpt>
      <trkpt lat="47.47732" lon="0.88575">
        <ele>112</ele>
        <time>2013-09-01T07:53:01.538Z</time>
      </trkpt>
      <trkpt lat="47.47738" lon="0.88567">
        <ele>112</ele>
        <time>2013-09-01T07:53:04.568Z</time>
      </trkpt>
      <trkpt lat="47.4774" lon="0.88564">
        <ele>113</ele>
        <time>2013-09-01T07:53:05.588Z</time>
      </trkpt>
      <trkpt lat="47.47747" lon="0.88558">
        <ele>114</ele>
        <time>2013-09-01T07:53:08.630Z</time>
      </trkpt>
      <trkpt lat="47.47749" lon="0.88556">
        <ele>115</ele>
        <time>2013-09-01T07:53:09.634Z</time>
      </trkpt>
      <trkpt lat="47.47755" lon="0.88549">
        <ele>116</ele>
        <time>2013-09-01T07:53:12.654Z</time>
      </trkpt>
      <trkpt lat="47.47758" lon="0.88547">
        <ele>116</ele>
        <time>2013-09-01T07:53:13.635Z</time>
      </trkpt>
      <trkpt lat="47.47764" lon="0.88547">
        <ele>116</ele>
        <time>2013-09-01T07:53:15.605Z</time>
      </trkpt>
      <trkpt lat="47.47768" lon="0.88547">
        <ele>116</ele>
        <time>2013-09-01T07:53:16.595Z</time>
      </trkpt>
      <trkpt lat="47.47777" lon="0.88547">
        <ele>115</ele>
        <time>2013-09-01T07:53:19.631Z</time>
      </trkpt>
      <trkpt lat="47.4778" lon="0.88547">
        <ele>114</ele>
        <time>2013-09-01T07:53:20.579Z</time>
      </trkpt>
      <trkpt lat="47.47789" lon="0.88547">
        <ele>115</ele>
        <time>2013-09-01T07:53:23.576Z</time>
      </trkpt>
      <trkpt lat="47.47792" lon="0.88545">
        <ele>115</ele>
        <time>2013-09-01T07:53:24.615Z</time>
      </trkpt>
      <trkpt lat="47.47798" lon="0.88547">
        <ele>115</ele>
        <time>2013-09-01T07:53:26.615Z</time>
      </trkpt>
      <trkpt lat="47.47802" lon="0.88547">
        <ele>115</ele>
        <time>2013-09-01T07:53:27.561Z</time>
      </trkpt>
      <trkpt lat="47.47809" lon="0.88547">
        <ele>115</ele>
        <time>2013-09-01T07:53:29.594Z</time>
      </trkpt>
      <trkpt lat="47.47812" lon="0.88547">
        <ele>115</ele>
        <time>2013-09-01T07:53:30.556Z</time>
      </trkpt>
      <trkpt lat="47.47819" lon="0.88547">
        <ele>114</ele>
        <time>2013-09-01T07:53:32.560Z</time>
      </trkpt>
      <trkpt lat="47.47823" lon="0.88547">
        <ele>115</ele>
        <time>2013-09-01T07:53:33.557Z</time>
      </trkpt>
      <trkpt lat="47.47831" lon="0.88547">
        <ele>115</ele>
        <time>2013-09-01T07:53:35.609Z</time>
      </trkpt>
      <trkpt lat="47.47835" lon="0.88547">
        <ele>116</ele>
        <time>2013-09-01T07:53:36.610Z</time>
      </trkpt>
      <trkpt lat="47.47842" lon="0.88545">
        <ele>117</ele>
        <time>2013-09-01T07:53:38.613Z</time>
      </trkpt>
      <trkpt lat="47.47846" lon="0.88545">
        <ele>117</ele>
        <time>2013-09-01T07:53:39.575Z</time>
      </trkpt>
      <trkpt lat="47.47854" lon="0.88547">
        <ele>117</ele>
        <time>2013-09-01T07:53:42.635Z</time>
      </trkpt>
      <trkpt lat="47.47857" lon="0.88547">
        <ele>117</ele>
        <time>2013-09-01T07:53:43.681Z</time>
      </trkpt>
      <trkpt lat="47.47864" lon="0.88547">
        <ele>118</ele>
        <time>2013-09-01T07:53:46.620Z</time>
      </trkpt>
      <trkpt lat="47.47867" lon="0.88549">
        <ele>118</ele>
        <time>2013-09-01T07:53:47.634Z</time>
      </trkpt>
      <trkpt lat="47.47873" lon="0.88551">
        <ele>118</ele>
        <time>2013-09-01T07:53:49.568Z</time>
      </trkpt>
      <trkpt lat="47.47877" lon="0.88553">
        <ele>119</ele>
        <time>2013-09-01T07:53:50.550Z</time>
      </trkpt>
      <trkpt lat="47.47884" lon="0.88558">
        <ele>119</ele>
        <time>2013-09-01T07:53:52.620Z</time>
      </trkpt>
      <trkpt lat="47.47888" lon="0.8856">
        <ele>120</ele>
        <time>2013-09-01T07:53:53.605Z</time>
      </trkpt>
      <trkpt lat="47.47895" lon="0.88567">
        <ele>120</ele>
        <time>2013-09-01T07:53:55.563Z</time>
      </trkpt>
      <trkpt lat="47.47899" lon="0.88569">
        <ele>120</ele>
        <time>2013-09-01T07:53:56.615Z</time>
      </trkpt>
      <trkpt lat="47.47906" lon="0.88573">
        <ele>120</ele>
        <time>2013-09-01T07:53:58.625Z</time>
      </trkpt>
      <trkpt lat="47.4791" lon="0.88577">
        <ele>119</ele>
        <time>2013-09-01T07:53:59.630Z</time>
      </trkpt>
      <trkpt lat="47.47916" lon="0.88586">
        <ele>119</ele>
        <time>2013-09-01T07:54:01.575Z</time>
      </trkpt>
      <trkpt lat="47.47919" lon="0.8859">
        <ele>120</ele>
        <time>2013-09-01T07:54:02.630Z</time>
      </trkpt>
      <trkpt lat="47.47923" lon="0.88599">
        <ele>120</ele>
        <time>2013-09-01T07:54:04.625Z</time>
      </trkpt>
      <trkpt lat="47.47925" lon="0.88603">
        <ele>120</ele>
        <time>2013-09-01T07:54:05.634Z</time>
      </trkpt>
      <trkpt lat="47.47929" lon="0.88614">
        <ele>121</ele>
        <time>2013-09-01T07:54:08.624Z</time>
      </trkpt>
      <trkpt lat="47.47932" lon="0.88618">
        <ele>121</ele>
        <time>2013-09-01T07:54:09.625Z</time>
      </trkpt>
      <trkpt lat="47.47939" lon="0.88626">
        <ele>121</ele>
        <time>2013-09-01T07:54:11.569Z</time>
      </trkpt>
      <trkpt lat="47.47943" lon="0.88631">
        <ele>121</ele>
        <time>2013-09-01T07:54:12.586Z</time>
      </trkpt>
      <trkpt lat="47.47948" lon="0.88635">
        <ele>120</ele>
        <time>2013-09-01T07:54:13.575Z</time>
      </trkpt>
      <trkpt lat="47.4795" lon="0.8864">
        <ele>119</ele>
        <time>2013-09-01T07:54:14.603Z</time>
      </trkpt>
      <trkpt lat="47.47956" lon="0.88646">
        <ele>119</ele>
        <time>2013-09-01T07:54:16.631Z</time>
      </trkpt>
      <trkpt lat="47.4796" lon="0.88648">
        <ele>118</ele>
        <time>2013-09-01T07:54:17.625Z</time>
      </trkpt>
      <trkpt lat="47.47966" lon="0.88657">
        <ele>118</ele>
        <time>2013-09-01T07:54:19.641Z</time>
      </trkpt>
      <trkpt lat="47.47968" lon="0.88661">
        <ele>118</ele>
        <time>2013-09-01T07:54:20.694Z</time>
      </trkpt>
      <trkpt lat="47.47971" lon="0.88665">
        <ele>118</ele>
        <time>2013-09-01T07:54:21.672Z</time>
      </trkpt>
      <trkpt lat="47.47975" lon="0.88669">
        <ele>117</ele>
        <time>2013-09-01T07:54:22.588Z</time>
      </trkpt>
      <trkpt lat="47.47979" lon="0.88674">
        <ele>117</ele>
        <time>2013-09-01T07:54:23.578Z</time>
      </trkpt>
      <trkpt lat="47.47982" lon="0.8868">
        <ele>117</ele>
        <time>2013-09-01T07:54:24.635Z</time>
      </trkpt>
      <trkpt lat="47.47988" lon="0.88689">
        <ele>116</ele>
        <time>2013-09-01T07:54:26.645Z</time>
      </trkpt>
      <trkpt lat="47.4799" lon="0.88693">
        <ele>116</ele>
        <time>2013-09-01T07:54:27.626Z</time>
      </trkpt>
      <trkpt lat="47.47996" lon="0.88702">
        <ele>115</ele>
        <time>2013-09-01T07:54:29.625Z</time>
      </trkpt>
      <trkpt lat="47.47998" lon="0.88706">
        <ele>115</ele>
        <time>2013-09-01T07:54:30.624Z</time>
      </trkpt>
      <trkpt lat="47.48003" lon="0.88713">
        <ele>114</ele>
        <time>2013-09-01T07:54:32.557Z</time>
      </trkpt>
      <trkpt lat="47.48007" lon="0.88717">
        <ele>115</ele>
        <time>2013-09-01T07:54:33.576Z</time>
      </trkpt>
      <trkpt lat="47.48011" lon="0.88721">
        <ele>114</ele>
        <time>2013-09-01T07:54:34.616Z</time>
      </trkpt>
      <trkpt lat="47.48014" lon="0.88725">
        <ele>114</ele>
        <time>2013-09-01T07:54:35.620Z</time>
      </trkpt>
      <trkpt lat="47.48018" lon="0.88728">
        <ele>115</ele>
        <time>2013-09-01T07:54:36.635Z</time>
      </trkpt>
      <trkpt lat="47.48023" lon="0.88732">
        <ele>114</ele>
        <time>2013-09-01T07:54:37.602Z</time>
      </trkpt>
      <trkpt lat="47.4803" lon="0.88738">
        <ele>114</ele>
        <time>2013-09-01T07:54:39.638Z</time>
      </trkpt>
      <trkpt lat="47.48035" lon="0.88742">
        <ele>114</ele>
        <time>2013-09-01T07:54:40.625Z</time>
      </trkpt>
      <trkpt lat="47.48039" lon="0.88745">
        <ele>113</ele>
        <time>2013-09-01T07:54:41.645Z</time>
      </trkpt>
      <trkpt lat="47.48043" lon="0.88749">
        <ele>112</ele>
        <time>2013-09-01T07:54:42.720Z</time>
      </trkpt>
      <trkpt lat="47.48047" lon="0.88753">
        <ele>111</ele>
        <time>2013-09-01T07:54:43.596Z</time>
      </trkpt>
      <trkpt lat="47.48052" lon="0.88756">
        <ele>112</ele>
        <time>2013-09-01T07:54:44.601Z</time>
      </trkpt>
      <trkpt lat="47.48057" lon="0.88764">
        <ele>113</ele>
        <time>2013-09-01T07:54:46.682Z</time>
      </trkpt>
      <trkpt lat="47.48059" lon="0.8877">
        <ele>115</ele>
        <time>2013-09-01T07:54:47.597Z</time>
      </trkpt>
      <trkpt lat="47.48063" lon="0.88777">
        <ele>115</ele>
        <time>2013-09-01T07:54:49.625Z</time>
      </trkpt>
      <trkpt lat="47.48066" lon="0.88781">
        <ele>115</ele>
        <time>2013-09-01T07:54:50.625Z</time>
      </trkpt>
      <trkpt lat="47.48071" lon="0.8879">
        <ele>117</ele>
        <time>2013-09-01T07:54:52.605Z</time>
      </trkpt>
      <trkpt lat="47.48074" lon="0.88792">
        <ele>117</ele>
        <time>2013-09-01T07:54:53.546Z</time>
      </trkpt>
      <trkpt lat="47.48077" lon="0.888">
        <ele>118</ele>
        <time>2013-09-01T07:54:55.569Z</time>
      </trkpt>
      <trkpt lat="47.48079" lon="0.88805">
        <ele>117</ele>
        <time>2013-09-01T07:54:56.572Z</time>
      </trkpt>
      <trkpt lat="47.4808" lon="0.88815">
        <ele>118</ele>
        <time>2013-09-01T07:54:59.572Z</time>
      </trkpt>
      <trkpt lat="47.48082" lon="0.88818">
        <ele>118</ele>
        <time>2013-09-01T07:55:00.588Z</time>
      </trkpt>
      <trkpt lat="47.48089" lon="0.8882">
        <ele>121</ele>
        <time>2013-09-01T07:55:04.600Z</time>
      </trkpt>
      <trkpt lat="47.48091" lon="0.88818">
        <ele>121</ele>
        <time>2013-09-01T07:55:05.604Z</time>
      </trkpt>
      <trkpt lat="47.48097" lon="0.88812">
        <ele>120</ele>
        <time>2013-09-01T07:55:07.615Z</time>
      </trkpt>
      <trkpt lat="47.48099" lon="0.88807">
        <ele>119</ele>
        <time>2013-09-01T07:55:08.619Z</time>
      </trkpt>
      <trkpt lat="47.481" lon="0.88796">
        <ele>118</ele>
        <time>2013-09-01T07:55:10.543Z</time>
      </trkpt>
      <trkpt lat="47.48101" lon="0.88794">
        <ele>118</ele>
        <time>2013-09-01T07:55:11.539Z</time>
      </trkpt>
      <trkpt lat="47.48103" lon="0.88786">
        <ele>117</ele>
        <time>2013-09-01T07:55:13.592Z</time>
      </trkpt>
      <trkpt lat="47.48104" lon="0.88779">
        <ele>117</ele>
        <time>2013-09-01T07:55:14.620Z</time>
      </trkpt>
      <trkpt lat="47.48107" lon="0.88768">
        <ele>117</ele>
        <time>2013-09-01T07:55:16.605Z</time>
      </trkpt>
      <trkpt lat="47.48109" lon="0.88764">
        <ele>117</ele>
        <time>2013-09-01T07:55:17.605Z</time>
      </trkpt>
      <trkpt lat="47.48111" lon="0.88758">
        <ele>117</ele>
        <time>2013-09-01T07:55:18.583Z</time>
      </trkpt>
      <trkpt lat="47.48112" lon="0.88751">
        <ele>117</ele>
        <time>2013-09-01T07:55:19.597Z</time>
      </trkpt>
      <trkpt lat="47.48114" lon="0.88745">
        <ele>117</ele>
        <time>2013-09-01T07:55:20.614Z</time>
      </trkpt>
      <trkpt lat="47.48115" lon="0.88736">
        <ele>117</ele>
        <time>2013-09-01T07:55:21.621Z</time>
      </trkpt>
      <trkpt lat="47.48116" lon="0.88729">
        <ele>117</ele>
        <time>2013-09-01T07:55:22.615Z</time>
      </trkpt>
      <trkpt lat="47.48118" lon="0.88723">
        <ele>117</ele>
        <time>2013-09-01T07:55:23.562Z</time>
      </trkpt>
      <trkpt lat="47.48121" lon="0.88712">
        <ele>117</ele>
        <time>2013-09-01T07:55:25.582Z</time>
      </trkpt>
      <trkpt lat="47.48122" lon="0.88706">
        <ele>117</ele>
        <time>2013-09-01T07:55:26.615Z</time>
      </trkpt>
      <trkpt lat="47.48126" lon="0.88695">
        <ele>117</ele>
        <time>2013-09-01T07:55:28.576Z</time>
      </trkpt>
      <trkpt lat="47.48127" lon="0.88689">
        <ele>117</ele>
        <time>2013-09-01T07:55:29.622Z</time>
      </trkpt>
      <trkpt lat="47.4813" lon="0.88678">
        <ele>117</ele>
        <time>2013-09-01T07:55:31.610Z</time>
      </trkpt>
      <trkpt lat="47.48132" lon="0.88672">
        <ele>117</ele>
        <time>2013-09-01T07:55:32.567Z</time>
      </trkpt>
      <trkpt lat="47.48133" lon="0.88665">
        <ele>117</ele>
        <time>2013-09-01T07:55:33.558Z</time>
      </trkpt>
      <trkpt lat="47.48134" lon="0.88659">
        <ele>117</ele>
        <time>2013-09-01T07:55:34.564Z</time>
      </trkpt>
      <trkpt lat="47.48137" lon="0.88648">
        <ele>118</ele>
        <time>2013-09-01T07:55:36.575Z</time>
      </trkpt>
      <trkpt lat="47.48138" lon="0.88642">
        <ele>117</ele>
        <time>2013-09-01T07:55:37.629Z</time>
      </trkpt>
      <trkpt lat="47.4814" lon="0.88633">
        <ele>116</ele>
        <time>2013-09-01T07:55:39.605Z</time>
      </trkpt>
      <trkpt lat="47.48141" lon="0.88627">
        <ele>116</ele>
        <time>2013-09-01T07:55:40.610Z</time>
      </trkpt>
      <trkpt lat="47.48144" lon="0.88618">
        <ele>114</ele>
        <time>2013-09-01T07:55:42.609Z</time>
      </trkpt>
      <trkpt lat="47.48146" lon="0.88614">
        <ele>114</ele>
        <time>2013-09-01T07:55:43.663Z</time>
      </trkpt>
      <trkpt lat="47.48152" lon="0.88609">
        <ele>113</ele>
        <time>2013-09-01T07:55:45.549Z</time>
      </trkpt>
      <trkpt lat="47.48157" lon="0.88607">
        <ele>113</ele>
        <time>2013-09-01T07:55:46.607Z</time>
      </trkpt>
      <trkpt lat="47.48163" lon="0.88612">
        <ele>114</ele>
        <time>2013-09-01T07:55:50.574Z</time>
      </trkpt>
      <trkpt lat="47.48165" lon="0.88612">
        <ele>114</ele>
        <time>2013-09-01T07:55:51.623Z</time>
      </trkpt>
      <trkpt lat="47.48172" lon="0.88618">
        <ele>114</ele>
        <time>2013-09-01T07:55:55.589Z</time>
      </trkpt>
      <trkpt lat="47.48174" lon="0.8862">
        <ele>113</ele>
        <time>2013-09-01T07:55:56.649Z</time>
      </trkpt>
      <trkpt lat="47.48179" lon="0.88624">
        <ele>114</ele>
        <time>2013-09-01T07:55:59.615Z</time>
      </trkpt>
      <trkpt lat="47.48182" lon="0.88625">
        <ele>114</ele>
        <time>2013-09-01T07:56:00.558Z</time>
      </trkpt>
      <trkpt lat="47.4819" lon="0.88631">
        <ele>115</ele>
        <time>2013-09-01T07:56:03.565Z</time>
      </trkpt>
      <trkpt lat="47.48192" lon="0.88631">
        <ele>115</ele>
        <time>2013-09-01T07:56:04.568Z</time>
      </trkpt>
      <trkpt lat="47.48196" lon="0.88639">
        <ele>117</ele>
        <time>2013-09-01T07:56:07.610Z</time>
      </trkpt>
      <trkpt lat="47.482" lon="0.88642">
        <ele>117</ele>
        <time>2013-09-01T07:56:08.615Z</time>
      </trkpt>
      <trkpt lat="47.48207" lon="0.88648">
        <ele>116</ele>
        <time>2013-09-01T07:56:10.573Z</time>
      </trkpt>
      <trkpt lat="47.48212" lon="0.8865">
        <ele>117</ele>
        <time>2013-09-01T07:56:11.625Z</time>
      </trkpt>
      <trkpt lat="47.48218" lon="0.88655">
        <ele>117</ele>
        <time>2013-09-01T07:56:13.610Z</time>
      </trkpt>
      <trkpt lat="47.48221" lon="0.88655">
        <ele>117</ele>
        <time>2013-09-01T07:56:14.615Z</time>
      </trkpt>
      <trkpt lat="47.48228" lon="0.88661">
        <ele>116</ele>
        <time>2013-09-01T07:56:16.610Z</time>
      </trkpt>
      <trkpt lat="47.48232" lon="0.88663">
        <ele>116</ele>
        <time>2013-09-01T07:56:17.610Z</time>
      </trkpt>
      <trkpt lat="47.48239" lon="0.88667">
        <ele>115</ele>
        <time>2013-09-01T07:56:19.600Z</time>
      </trkpt>
      <trkpt lat="47.48244" lon="0.8867">
        <ele>115</ele>
        <time>2013-09-01T07:56:20.595Z</time>
      </trkpt>
      <trkpt lat="47.48251" lon="0.88674">
        <ele>116</ele>
        <time>2013-09-01T07:56:22.599Z</time>
      </trkpt>
      <trkpt lat="47.48255" lon="0.88676">
        <ele>116</ele>
        <time>2013-09-01T07:56:23.559Z</time>
      </trkpt>
      <trkpt lat="47.48262" lon="0.8868">
        <ele>116</ele>
        <time>2013-09-01T07:56:25.569Z</time>
      </trkpt>
      <trkpt lat="47.48266" lon="0.88682">
        <ele>116</ele>
        <time>2013-09-01T07:56:26.574Z</time>
      </trkpt>
      <trkpt lat="47.48273" lon="0.88689">
        <ele>117</ele>
        <time>2013-09-01T07:56:28.583Z</time>
      </trkpt>
      <trkpt lat="47.48275" lon="0.88691">
        <ele>117</ele>
        <time>2013-09-01T07:56:29.615Z</time>
      </trkpt>
      <trkpt lat="47.48282" lon="0.88691">
        <ele>120</ele>
        <time>2013-09-01T07:56:33.567Z</time>
      </trkpt>
      <trkpt lat="47.48284" lon="0.88689">
        <ele>120</ele>
        <time>2013-09-01T07:56:34.561Z</time>
      </trkpt>
      <trkpt lat="47.48289" lon="0.88678">
        <ele>121</ele>
        <time>2013-09-01T07:56:37.619Z</time>
      </trkpt>
      <trkpt lat="47.48291" lon="0.88676">
        <ele>121</ele>
        <time>2013-09-01T07:56:38.634Z</time>
      </trkpt>
      <trkpt lat="47.48298" lon="0.88674">
        <ele>122</ele>
        <time>2013-09-01T07:56:41.576Z</time>
      </trkpt>
      <trkpt lat="47.48302" lon="0.88676">
        <ele>123</ele>
        <time>2013-09-01T07:56:42.548Z</time>
      </trkpt>
      <trkpt lat="47.48309" lon="0.88681">
        <ele>123</ele>
        <time>2013-09-01T07:56:44.594Z</time>
      </trkpt>
      <trkpt lat="47.48313" lon="0.88681">
        <ele>121</ele>
        <time>2013-09-01T07:56:45.605Z</time>
      </trkpt>
      <trkpt lat="47.48318" lon="0.88672">
        <ele>119</ele>
        <time>2013-09-01T07:56:47.615Z</time>
      </trkpt>
      <trkpt lat="47.48319" lon="0.88666">
        <ele>117</ele>
        <time>2013-09-01T07:56:48.712Z</time>
      </trkpt>
      <trkpt lat="47.48322" lon="0.88655">
        <ele>115</ele>
        <time>2013-09-01T07:56:50.558Z</time>
      </trkpt>
      <trkpt lat="47.48323" lon="0.88648">
        <ele>114</ele>
        <time>2013-09-01T07:56:51.573Z</time>
      </trkpt>
      <trkpt lat="47.48324" lon="0.88635">
        <ele>114</ele>
        <time>2013-09-01T07:56:53.568Z</time>
      </trkpt>
      <trkpt lat="47.48325" lon="0.88629">
        <ele>113</ele>
        <time>2013-09-01T07:56:54.586Z</time>
      </trkpt>
      <trkpt lat="47.48327" lon="0.88618">
        <ele>114</ele>
        <time>2013-09-01T07:56:56.431Z</time>
      </trkpt>
      <trkpt lat="47.48328" lon="0.88612">
        <ele>113</ele>
        <time>2013-09-01T07:56:57.430Z</time>
      </trkpt>
      <trkpt lat="47.4833" lon="0.88605">
        <ele>114</ele>
        <time>2013-09-01T07:56:58.436Z</time>
      </trkpt>
      <trkpt lat="47.48331" lon="0.88599">
        <ele>114</ele>
        <time>2013-09-01T07:56:59.434Z</time>
      </trkpt>
      <trkpt lat="47.48333" lon="0.88588">
        <ele>114</ele>
        <time>2013-09-01T07:57:01.486Z</time>
      </trkpt>
      <trkpt lat="47.48334" lon="0.88582">
        <ele>114</ele>
        <time>2013-09-01T07:57:02.486Z</time>
      </trkpt>
      <trkpt lat="47.48337" lon="0.88573">
        <ele>114</ele>
        <time>2013-09-01T07:57:04.486Z</time>
      </trkpt>
      <trkpt lat="47.48339" lon="0.88569">
        <ele>114</ele>
        <time>2013-09-01T07:57:05.481Z</time>
      </trkpt>
      <trkpt lat="47.48344" lon="0.88558">
        <ele>114</ele>
        <time>2013-09-01T07:57:07.486Z</time>
      </trkpt>
      <trkpt lat="47.48345" lon="0.88552">
        <ele>114</ele>
        <time>2013-09-01T07:57:08.478Z</time>
      </trkpt>
      <trkpt lat="47.48347" lon="0.8854">
        <ele>115</ele>
        <time>2013-09-01T07:57:12.459Z</time>
      </trkpt>
      <trkpt lat="47.48347" lon="0.88541">
        <ele>115</ele>
        <time>2013-09-01T07:57:13.488Z</time>
      </trkpt>
      <trkpt lat="47.48347" lon="0.88541">
        <ele>114</ele>
        <time>2013-09-01T07:57:16.496Z</time>
      </trkpt>
      <trkpt lat="47.48347" lon="0.88539">
        <ele>114</ele>
        <time>2013-09-01T07:57:17.445Z</time>
      </trkpt>
      <trkpt lat="47.48339" lon="0.88532">
        <ele>114</ele>
        <time>2013-09-01T07:57:22.445Z</time>
      </trkpt>
      <trkpt lat="47.48336" lon="0.88532">
        <ele>114</ele>
        <time>2013-09-01T07:57:23.446Z</time>
      </trkpt>
      <trkpt lat="47.4833" lon="0.88528">
        <ele>113</ele>
        <time>2013-09-01T07:57:25.437Z</time>
      </trkpt>
      <trkpt lat="47.48326" lon="0.88528">
        <ele>113</ele>
        <time>2013-09-01T07:57:26.443Z</time>
      </trkpt>
      <trkpt lat="47.48319" lon="0.88524">
        <ele>114</ele>
        <time>2013-09-01T07:57:28.437Z</time>
      </trkpt>
      <trkpt lat="47.48315" lon="0.88523">
        <ele>114</ele>
        <time>2013-09-01T07:57:29.486Z</time>
      </trkpt>
      <trkpt lat="47.48307" lon="0.88519">
        <ele>112</ele>
        <time>2013-09-01T07:57:31.501Z</time>
      </trkpt>
      <trkpt lat="47.48304" lon="0.88517">
        <ele>113</ele>
        <time>2013-09-01T07:57:32.486Z</time>
      </trkpt>
      <trkpt lat="47.48296" lon="0.8852">
        <ele>120</ele>
        <time>2013-09-01T07:57:38.522Z</time>
      </trkpt>
      <trkpt lat="47.48296" lon="0.8852">
        <ele>122</ele>
        <time>2013-09-01T07:57:39.422Z</time>
      </trkpt>
      <trkpt lat="47.48298" lon="0.88519">
        <ele>123</ele>
        <time>2013-09-01T07:57:40.440Z</time>
      </trkpt>
      <trkpt lat="47.48304" lon="0.88519">
        <ele>125</ele>
        <time>2013-09-01T07:57:43.540Z</time>
      </trkpt>
      <trkpt lat="47.48309" lon="0.88516">
        <ele>121</ele>
        <time>2013-09-01T07:57:44.418Z</time>
      </trkpt>
      <trkpt lat="47.48315" lon="0.88507">
        <ele>119</ele>
        <time>2013-09-01T07:57:46.471Z</time>
      </trkpt>
      <trkpt lat="47.48315" lon="0.88504">
        <ele>119</ele>
        <time>2013-09-01T07:57:47.471Z</time>
      </trkpt>
      <trkpt lat="47.48314" lon="0.88491">
        <ele>120</ele>
        <time>2013-09-01T07:57:50.441Z</time>
      </trkpt>
      <trkpt lat="47.48315" lon="0.88489">
        <ele>120</ele>
        <time>2013-09-01T07:57:51.486Z</time>
      </trkpt>
      <trkpt lat="47.48315" lon="0.88476">
        <ele>121</ele>
        <time>2013-09-01T07:57:54.495Z</time>
      </trkpt>
      <trkpt lat="47.48315" lon="0.88472">
        <ele>121</ele>
        <time>2013-09-01T07:57:55.491Z</time>
      </trkpt>
      <trkpt lat="47.48315" lon="0.88459">
        <ele>120</ele>
        <time>2013-09-01T07:57:59.491Z</time>
      </trkpt>
      <trkpt lat="47.48315" lon="0.88457">
        <ele>120</ele>
        <time>2013-09-01T07:58:00.498Z</time>
      </trkpt>
      <trkpt lat="47.48311" lon="0.88448">
        <ele>121</ele>
        <time>2013-09-01T07:58:03.448Z</time>
      </trkpt>
      <trkpt lat="47.48309" lon="0.88446">
        <ele>122</ele>
        <time>2013-09-01T07:58:04.492Z</time>
      </trkpt>
      <trkpt lat="47.48303" lon="0.8844">
        <ele>121</ele>
        <time>2013-09-01T07:58:07.476Z</time>
      </trkpt>
      <trkpt lat="47.48301" lon="0.88438">
        <ele>121</ele>
        <time>2013-09-01T07:58:08.476Z</time>
      </trkpt>
      <trkpt lat="47.48297" lon="0.88427">
        <ele>121</ele>
        <time>2013-09-01T07:58:11.496Z</time>
      </trkpt>
      <trkpt lat="47.48298" lon="0.88423">
        <ele>122</ele>
        <time>2013-09-01T07:58:12.448Z</time>
      </trkpt>
      <trkpt lat="47.48306" lon="0.88419">
        <ele>123</ele>
        <time>2013-09-01T07:58:15.471Z</time>
      </trkpt>
      <trkpt lat="47.48307" lon="0.88418">
        <ele>124</ele>
        <time>2013-09-01T07:58:16.471Z</time>
      </trkpt>
      <trkpt lat="47.48314" lon="0.88414">
        <ele>132</ele>
        <time>2013-09-01T07:58:22.514Z</time>
      </trkpt>
      <trkpt lat="47.48315" lon="0.88412">
        <ele>134</ele>
        <time>2013-09-01T07:58:23.498Z</time>
      </trkpt>
      <trkpt lat="47.48323" lon="0.8841">
        <ele>134</ele>
        <time>2013-09-01T07:58:27.491Z</time>
      </trkpt>
      <trkpt lat="47.48325" lon="0.8841">
        <ele>133</ele>
        <time>2013-09-01T07:58:28.469Z</time>
      </trkpt>
      <trkpt lat="47.48327" lon="0.88397">
        <ele>130</ele>
        <time>2013-09-01T07:58:35.486Z</time>
      </trkpt>
      <trkpt lat="47.48325" lon="0.88395">
        <ele>130</ele>
        <time>2013-09-01T07:58:36.472Z</time>
      </trkpt>
      <trkpt lat="47.48322" lon="0.88387">
        <ele>129</ele>
        <time>2013-09-01T07:58:39.461Z</time>
      </trkpt>
      <trkpt lat="47.4832" lon="0.88384">
        <ele>128</ele>
        <time>2013-09-01T07:58:40.429Z</time>
      </trkpt>
      <trkpt lat="47.48317" lon="0.88376">
        <ele>126</ele>
        <time>2013-09-01T07:58:42.486Z</time>
      </trkpt>
      <trkpt lat="47.48314" lon="0.88371">
        <ele>126</ele>
        <time>2013-09-01T07:58:43.481Z</time>
      </trkpt>
      <trkpt lat="47.48308" lon="0.88365">
        <ele>124</ele>
        <time>2013-09-01T07:58:45.471Z</time>
      </trkpt>
      <trkpt lat="47.48306" lon="0.88364">
        <ele>125</ele>
        <time>2013-09-01T07:58:46.486Z</time>
      </trkpt>
      <trkpt lat="47.48304" lon="0.88352">
        <ele>127</ele>
        <time>2013-09-01T07:58:51.476Z</time>
      </trkpt>
      <trkpt lat="47.48306" lon="0.8835">
        <ele>127</ele>
        <time>2013-09-01T07:58:52.489Z</time>
      </trkpt>
      <trkpt lat="47.4831" lon="0.88343">
        <ele>128</ele>
        <time>2013-09-01T07:58:54.476Z</time>
      </trkpt>
      <trkpt lat="47.48312" lon="0.88339">
        <ele>128</ele>
        <time>2013-09-01T07:58:55.491Z</time>
      </trkpt>
      <trkpt lat="47.48315" lon="0.88331">
        <ele>128</ele>
        <time>2013-09-01T07:58:57.486Z</time>
      </trkpt>
      <trkpt lat="47.48316" lon="0.88324">
        <ele>127</ele>
        <time>2013-09-01T07:58:58.486Z</time>
      </trkpt>
      <trkpt lat="47.48318" lon="0.88318">
        <ele>127</ele>
        <time>2013-09-01T07:58:59.480Z</time>
      </trkpt>
      <trkpt lat="47.48319" lon="0.88311">
        <ele>127</ele>
        <time>2013-09-01T07:59:00.442Z</time>
      </trkpt>
      <trkpt lat="47.48321" lon="0.88303">
        <ele>127</ele>
        <time>2013-09-01T07:59:01.462Z</time>
      </trkpt>
      <trkpt lat="47.48321" lon="0.88296">
        <ele>127</ele>
        <time>2013-09-01T07:59:02.466Z</time>
      </trkpt>
      <trkpt lat="47.48322" lon="0.88288">
        <ele>127</ele>
        <time>2013-09-01T07:59:03.466Z</time>
      </trkpt>
      <trkpt lat="47.48323" lon="0.88279">
        <ele>126</ele>
        <time>2013-09-01T07:59:04.414Z</time>
      </trkpt>
      <trkpt lat="47.48324" lon="0.88269">
        <ele>125</ele>
        <time>2013-09-01T07:59:05.414Z</time>
      </trkpt>
      <trkpt lat="47.48324" lon="0.88258">
        <ele>124</ele>
        <time>2013-09-01T07:59:06.430Z</time>
      </trkpt>
      <trkpt lat="47.48325" lon="0.88247">
        <ele>123</ele>
        <time>2013-09-01T07:59:07.466Z</time>
      </trkpt>
      <trkpt lat="47.48327" lon="0.88234">
        <ele>122</ele>
        <time>2013-09-01T07:59:08.466Z</time>
      </trkpt>
      <trkpt lat="47.48328" lon="0.88223">
        <ele>121</ele>
        <time>2013-09-01T07:59:09.507Z</time>
      </trkpt>
      <trkpt lat="47.48331" lon="0.88212">
        <ele>120</ele>
        <time>2013-09-01T07:59:10.466Z</time>
      </trkpt>
      <trkpt lat="47.48333" lon="0.882">
        <ele>120</ele>
        <time>2013-09-01T07:59:11.475Z</time>
      </trkpt>
      <trkpt lat="47.48335" lon="0.88189">
        <ele>120</ele>
        <time>2013-09-01T07:59:12.461Z</time>
      </trkpt>
      <trkpt lat="47.48335" lon="0.88178">
        <ele>119</ele>
        <time>2013-09-01T07:59:13.455Z</time>
      </trkpt>
      <trkpt lat="47.48335" lon="0.88171">
        <ele>120</ele>
        <time>2013-09-01T07:59:14.466Z</time>
      </trkpt>
      <trkpt lat="47.48333" lon="0.88159">
        <ele>120</ele>
        <time>2013-09-01T07:59:16.421Z</time>
      </trkpt>
      <trkpt lat="47.48331" lon="0.88154">
        <ele>120</ele>
        <time>2013-09-01T07:59:17.446Z</time>
      </trkpt>
      <trkpt lat="47.48329" lon="0.88148">
        <ele>120</ele>
        <time>2013-09-01T07:59:18.453Z</time>
      </trkpt>
      <trkpt lat="47.48328" lon="0.8814">
        <ele>120</ele>
        <time>2013-09-01T07:59:19.489Z</time>
      </trkpt>
      <trkpt lat="47.48328" lon="0.88131">
        <ele>119</ele>
        <time>2013-09-01T07:59:20.477Z</time>
      </trkpt>
      <trkpt lat="47.48327" lon="0.88122">
        <ele>119</ele>
        <time>2013-09-01T07:59:21.486Z</time>
      </trkpt>
      <trkpt lat="47.48327" lon="0.88114">
        <ele>119</ele>
        <time>2013-09-01T07:59:22.476Z</time>
      </trkpt>
      <trkpt lat="47.48327" lon="0.88103">
        <ele>119</ele>
        <time>2013-09-01T07:59:23.429Z</time>
      </trkpt>
      <trkpt lat="47.48327" lon="0.88094">
        <ele>118</ele>
        <time>2013-09-01T07:59:24.494Z</time>
      </trkpt>
      <trkpt lat="47.48327" lon="0.88088">
        <ele>118</ele>
        <time>2013-09-01T07:59:25.428Z</time>
      </trkpt>
      <trkpt lat="47.48327" lon="0.8808">
        <ele>117</ele>
        <time>2013-09-01T07:59:26.431Z</time>
      </trkpt>
      <trkpt lat="47.48326" lon="0.88071">
        <ele>117</ele>
        <time>2013-09-01T07:59:27.481Z</time>
      </trkpt>
      <trkpt lat="47.48326" lon="0.88062">
        <ele>117</ele>
        <time>2013-09-01T07:59:28.484Z</time>
      </trkpt>
      <trkpt lat="47.48326" lon="0.88056">
        <ele>117</ele>
        <time>2013-09-01T07:59:29.430Z</time>
      </trkpt>
      <trkpt lat="47.48327" lon="0.88047">
        <ele>117</ele>
        <time>2013-09-01T07:59:30.476Z</time>
      </trkpt>
      <trkpt lat="47.48325" lon="0.88041">
        <ele>117</ele>
        <time>2013-09-01T07:59:31.533Z</time>
      </trkpt>
      <trkpt lat="47.48325" lon="0.88033">
        <ele>117</ele>
        <time>2013-09-01T07:59:32.430Z</time>
      </trkpt>
      <trkpt lat="47.48325" lon="0.88024">
        <ele>117</ele>
        <time>2013-09-01T07:59:33.445Z</time>
      </trkpt>
      <trkpt lat="47.48324" lon="0.88017">
        <ele>117</ele>
        <time>2013-09-01T07:59:34.426Z</time>
      </trkpt>
      <trkpt lat="47.48324" lon="0.88009">
        <ele>117</ele>
        <time>2013-09-01T07:59:35.453Z</time>
      </trkpt>
      <trkpt lat="47.48324" lon="0.87996">
        <ele>117</ele>
        <time>2013-09-01T07:59:37.513Z</time>
      </trkpt>
      <trkpt lat="47.48324" lon="0.87987">
        <ele>117</ele>
        <time>2013-09-01T07:59:38.526Z</time>
      </trkpt>
      <trkpt lat="47.48324" lon="0.87974">
        <ele>117</ele>
        <time>2013-09-01T07:59:40.425Z</time>
      </trkpt>
      <trkpt lat="47.48324" lon="0.87968">
        <ele>117</ele>
        <time>2013-09-01T07:59:41.441Z</time>
      </trkpt>
      <trkpt lat="47.48323" lon="0.87961">
        <ele>117</ele>
        <time>2013-09-01T07:59:42.415Z</time>
      </trkpt>
      <trkpt lat="47.48323" lon="0.87953">
        <ele>117</ele>
        <time>2013-09-01T07:59:43.527Z</time>
      </trkpt>
      <trkpt lat="47.48322" lon="0.8794">
        <ele>118</ele>
        <time>2013-09-01T07:59:45.487Z</time>
      </trkpt>
      <trkpt lat="47.48322" lon="0.87933">
        <ele>118</ele>
        <time>2013-09-01T07:59:46.489Z</time>
      </trkpt>
      <trkpt lat="47.48323" lon="0.87921">
        <ele>118</ele>
        <time>2013-09-01T07:59:48.444Z</time>
      </trkpt>
      <trkpt lat="47.48323" lon="0.87914">
        <ele>118</ele>
        <time>2013-09-01T07:59:49.468Z</time>
      </trkpt>
      <trkpt lat="47.48325" lon="0.87901">
        <ele>118</ele>
        <time>2013-09-01T07:59:51.486Z</time>
      </trkpt>
      <trkpt lat="47.48326" lon="0.87895">
        <ele>118</ele>
        <time>2013-09-01T07:59:52.420Z</time>
      </trkpt>
      <trkpt lat="47.48329" lon="0.87886">
        <ele>118</ele>
        <time>2013-09-01T07:59:54.476Z</time>
      </trkpt>
      <trkpt lat="47.48331" lon="0.87882">
        <ele>118</ele>
        <time>2013-09-01T07:59:55.481Z</time>
      </trkpt>
      <trkpt lat="47.48334" lon="0.87872">
        <ele>118</ele>
        <time>2013-09-01T07:59:57.467Z</time>
      </trkpt>
      <trkpt lat="47.48335" lon="0.87867">
        <ele>118</ele>
        <time>2013-09-01T07:59:58.471Z</time>
      </trkpt>
      <trkpt lat="47.48337" lon="0.87856">
        <ele>118</ele>
        <time>2013-09-01T08:00:00.434Z</time>
      </trkpt>
      <trkpt lat="47.48338" lon="0.87852">
        <ele>118</ele>
        <time>2013-09-01T08:00:01.431Z</time>
      </trkpt>
      <trkpt lat="47.4834" lon="0.87841">
        <ele>119</ele>
        <time>2013-09-01T08:00:03.452Z</time>
      </trkpt>
      <trkpt lat="47.48342" lon="0.87837">
        <ele>119</ele>
        <time>2013-09-01T08:00:04.457Z</time>
      </trkpt>
      <trkpt lat="47.48346" lon="0.87828">
        <ele>119</ele>
        <time>2013-09-01T08:00:06.466Z</time>
      </trkpt>
      <trkpt lat="47.48348" lon="0.87826">
        <ele>119</ele>
        <time>2013-09-01T08:00:07.461Z</time>
      </trkpt>
      <trkpt lat="47.48355" lon="0.87819">
        <ele>120</ele>
        <time>2013-09-01T08:00:11.460Z</time>
      </trkpt>
      <trkpt lat="47.48357" lon="0.87818">
        <ele>120</ele>
        <time>2013-09-01T08:00:12.481Z</time>
      </trkpt>
      <trkpt lat="47.48364" lon="0.87809">
        <ele>124</ele>
        <time>2013-09-01T08:00:17.491Z</time>
      </trkpt>
      <trkpt lat="47.48365" lon="0.87807">
        <ele>125</ele>
        <time>2013-09-01T08:00:18.478Z</time>
      </trkpt>
      <trkpt lat="47.48373" lon="0.87801">
        <ele>138</ele>
        <time>2013-09-01T08:00:24.496Z</time>
      </trkpt>
      <trkpt lat="47.48374" lon="0.878">
        <ele>140</ele>
        <time>2013-09-01T08:00:25.507Z</time>
      </trkpt>
      <trkpt lat="47.48382" lon="0.87796">
        <ele>143</ele>
        <time>2013-09-01T08:00:29.491Z</time>
      </trkpt>
      <trkpt lat="47.48383" lon="0.87796">
        <ele>144</ele>
        <time>2013-09-01T08:00:30.508Z</time>
      </trkpt>
      <trkpt lat="47.48392" lon="0.87792">
        <ele>148</ele>
        <time>2013-09-01T08:00:34.487Z</time>
      </trkpt>
      <trkpt lat="47.48394" lon="0.87792">
        <ele>149</ele>
        <time>2013-09-01T08:00:35.495Z</time>
      </trkpt>
      <trkpt lat="47.48402" lon="0.87792">
        <ele>152</ele>
        <time>2013-09-01T08:00:39.439Z</time>
      </trkpt>
      <trkpt lat="47.48406" lon="0.87792">
        <ele>152</ele>
        <time>2013-09-01T08:00:40.455Z</time>
      </trkpt>
      <trkpt lat="47.48413" lon="0.87786">
        <ele>149</ele>
        <time>2013-09-01T08:00:43.461Z</time>
      </trkpt>
      <trkpt lat="47.48415" lon="0.87785">
        <ele>149</ele>
        <time>2013-09-01T08:00:44.437Z</time>
      </trkpt>
      <trkpt lat="47.48422" lon="0.87781">
        <ele>145</ele>
        <time>2013-09-01T08:00:47.448Z</time>
      </trkpt>
      <trkpt lat="47.48424" lon="0.87779">
        <ele>144</ele>
        <time>2013-09-01T08:00:48.555Z</time>
      </trkpt>
      <trkpt lat="47.4843" lon="0.87772">
        <ele>141</ele>
        <time>2013-09-01T08:00:52.412Z</time>
      </trkpt>
      <trkpt lat="47.48431" lon="0.87771">
        <ele>140</ele>
        <time>2013-09-01T08:00:53.459Z</time>
      </trkpt>
      <trkpt lat="47.48439" lon="0.87764">
        <ele>137</ele>
        <time>2013-09-01T08:00:58.429Z</time>
      </trkpt>
      <trkpt lat="47.4844" lon="0.87764">
        <ele>137</ele>
        <time>2013-09-01T08:00:59.419Z</time>
      </trkpt>
      <trkpt lat="47.48447" lon="0.87757">
        <ele>139</ele>
        <time>2013-09-01T08:01:07.511Z</time>
      </trkpt>
      <trkpt lat="47.48449" lon="0.87757">
        <ele>139</ele>
        <time>2013-09-01T08:01:08.440Z</time>
      </trkpt>
      <trkpt lat="47.48456" lon="0.87753">
        <ele>142</ele>
        <time>2013-09-01T08:01:14.422Z</time>
      </trkpt>
      <trkpt lat="47.48457" lon="0.87753">
        <ele>143</ele>
        <time>2013-09-01T08:01:15.425Z</time>
      </trkpt>
      <trkpt lat="47.48461" lon="0.87751">
        <ele>143</ele>
        <time>2013-09-01T08:01:20.425Z</time>
      </trkpt>
      <trkpt lat="47.4846" lon="0.87751">
        <ele>143</ele>
        <time>2013-09-01T08:01:21.415Z</time>
      </trkpt>
      <trkpt lat="47.4846" lon="0.87751">
        <ele>143</ele>
        <time>2013-09-01T08:01:22.421Z</time>
      </trkpt>
      <trkpt lat="47.4846" lon="0.87749">
        <ele>143</ele>
        <time>2013-09-01T08:01:23.626Z</time>
      </trkpt>
      <trkpt lat="47.48463" lon="0.87745">
        <ele>145</ele>
        <time>2013-09-01T08:01:31.420Z</time>
      </trkpt>
      <trkpt lat="47.48463" lon="0.87745">
        <ele>145</ele>
        <time>2013-09-01T08:01:32.415Z</time>
      </trkpt>
      <trkpt lat="47.48463" lon="0.87745">
        <ele>145</ele>
        <time>2013-09-01T08:01:36.414Z</time>
      </trkpt>
      <trkpt lat="47.48463" lon="0.87743">
        <ele>145</ele>
        <time>2013-09-01T08:01:37.414Z</time>
      </trkpt>
      <trkpt lat="47.4847" lon="0.87738">
        <ele>145</ele>
        <time>2013-09-01T08:01:43.470Z</time>
      </trkpt>
      <trkpt lat="47.48472" lon="0.87736">
        <ele>145</ele>
        <time>2013-09-01T08:01:44.472Z</time>
      </trkpt>
      <trkpt lat="47.4848" lon="0.8773">
        <ele>147</ele>
        <time>2013-09-01T08:01:50.485Z</time>
      </trkpt>
      <trkpt lat="47.4848" lon="0.87728">
        <ele>147</ele>
        <time>2013-09-01T08:01:51.486Z</time>
      </trkpt>
      <trkpt lat="47.48486" lon="0.87719">
        <ele>153</ele>
        <time>2013-09-01T08:01:58.425Z</time>
      </trkpt>
      <trkpt lat="47.48488" lon="0.87717">
        <ele>153</ele>
        <time>2013-09-01T08:01:59.457Z</time>
      </trkpt>
      <trkpt lat="47.48497" lon="0.87716">
        <ele>155</ele>
        <time>2013-09-01T08:02:06.461Z</time>
      </trkpt>
      <trkpt lat="47.48498" lon="0.87715">
        <ele>155</ele>
        <time>2013-09-01T08:02:07.462Z</time>
      </trkpt>
      <trkpt lat="47.48505" lon="0.87712">
        <ele>156</ele>
        <time>2013-09-01T08:02:13.453Z</time>
      </trkpt>
      <trkpt lat="47.48508" lon="0.87712">
        <ele>156</ele>
        <time>2013-09-01T08:02:14.475Z</time>
      </trkpt>
      <trkpt lat="47.48515" lon="0.87708">
        <ele>157</ele>
        <time>2013-09-01T08:02:19.481Z</time>
      </trkpt>
      <trkpt lat="47.48516" lon="0.87708">
        <ele>157</ele>
        <time>2013-09-01T08:02:20.480Z</time>
      </trkpt>
      <trkpt lat="47.48519" lon="0.877">
        <ele>157</ele>
        <time>2013-09-01T08:02:24.486Z</time>
      </trkpt>
      <trkpt lat="47.4852" lon="0.87696">
        <ele>157</ele>
        <time>2013-09-01T08:02:25.485Z</time>
      </trkpt>
      <trkpt lat="47.48521" lon="0.87685">
        <ele>158</ele>
        <time>2013-09-01T08:02:29.433Z</time>
      </trkpt>
      <trkpt lat="47.48521" lon="0.87681">
        <ele>158</ele>
        <time>2013-09-01T08:02:30.444Z</time>
      </trkpt>
      <trkpt lat="47.48523" lon="0.8767">
        <ele>159</ele>
        <time>2013-09-01T08:02:34.432Z</time>
      </trkpt>
      <trkpt lat="47.48524" lon="0.87665">
        <ele>159</ele>
        <time>2013-09-01T08:02:35.485Z</time>
      </trkpt>
      <trkpt lat="47.48526" lon="0.87653">
        <ele>161</ele>
        <time>2013-09-01T08:02:39.430Z</time>
      </trkpt>
      <trkpt lat="47.48527" lon="0.8765">
        <ele>161</ele>
        <time>2013-09-01T08:02:40.451Z</time>
      </trkpt>
      <trkpt lat="47.48528" lon="0.87637">
        <ele>161</ele>
        <time>2013-09-01T08:02:44.487Z</time>
      </trkpt>
      <trkpt lat="47.48528" lon="0.87635">
        <ele>161</ele>
        <time>2013-09-01T08:02:45.487Z</time>
      </trkpt>
      <trkpt lat="47.48522" lon="0.87629">
        <ele>159</ele>
        <time>2013-09-01T08:02:49.483Z</time>
      </trkpt>
      <trkpt lat="47.48518" lon="0.87629">
        <ele>159</ele>
        <time>2013-09-01T08:02:50.482Z</time>
      </trkpt>
      <trkpt lat="47.48512" lon="0.87627">
        <ele>159</ele>
        <time>2013-09-01T08:02:52.435Z</time>
      </trkpt>
      <trkpt lat="47.48508" lon="0.87625">
        <ele>158</ele>
        <time>2013-09-01T08:02:53.443Z</time>
      </trkpt>
      <trkpt lat="47.485" lon="0.8762">
        <ele>158</ele>
        <time>2013-09-01T08:02:55.485Z</time>
      </trkpt>
      <trkpt lat="47.48496" lon="0.87618">
        <ele>158</ele>
        <time>2013-09-01T08:02:56.487Z</time>
      </trkpt>
      <trkpt lat="47.48488" lon="0.87616">
        <ele>157</ele>
        <time>2013-09-01T08:02:58.486Z</time>
      </trkpt>
      <trkpt lat="47.48484" lon="0.87614">
        <ele>157</ele>
        <time>2013-09-01T08:02:59.487Z</time>
      </trkpt>
      <trkpt lat="47.4848" lon="0.87612">
        <ele>157</ele>
        <time>2013-09-01T08:03:00.430Z</time>
      </trkpt>
      <trkpt lat="47.48475" lon="0.8761">
        <ele>156</ele>
        <time>2013-09-01T08:03:01.435Z</time>
      </trkpt>
      <trkpt lat="47.48467" lon="0.87605">
        <ele>156</ele>
        <time>2013-09-01T08:03:03.436Z</time>
      </trkpt>
      <trkpt lat="47.48463" lon="0.87603">
        <ele>155</ele>
        <time>2013-09-01T08:03:04.480Z</time>
      </trkpt>
      <trkpt lat="47.48458" lon="0.87601">
        <ele>155</ele>
        <time>2013-09-01T08:03:05.481Z</time>
      </trkpt>
      <trkpt lat="47.48453" lon="0.87599">
        <ele>154</ele>
        <time>2013-09-01T08:03:06.480Z</time>
      </trkpt>
      <trkpt lat="47.48445" lon="0.87593">
        <ele>154</ele>
        <time>2013-09-01T08:03:08.484Z</time>
      </trkpt>
      <trkpt lat="47.48444" lon="0.87588">
        <ele>154</ele>
        <time>2013-09-01T08:03:09.449Z</time>
      </trkpt>
      <trkpt lat="47.48445" lon="0.87575">
        <ele>154</ele>
        <time>2013-09-01T08:03:11.434Z</time>
      </trkpt>
      <trkpt lat="47.48447" lon="0.87569">
        <ele>155</ele>
        <time>2013-09-01T08:03:12.449Z</time>
      </trkpt>
      <trkpt lat="47.48447" lon="0.87562">
        <ele>155</ele>
        <time>2013-09-01T08:03:13.493Z</time>
      </trkpt>
      <trkpt lat="47.4845" lon="0.87556">
        <ele>155</ele>
        <time>2013-09-01T08:03:14.506Z</time>
      </trkpt>
      <trkpt lat="47.48451" lon="0.87543">
        <ele>156</ele>
        <time>2013-09-01T08:03:16.507Z</time>
      </trkpt>
      <trkpt lat="47.48452" lon="0.87538">
        <ele>156</ele>
        <time>2013-09-01T08:03:17.495Z</time>
      </trkpt>
      <trkpt lat="47.48453" lon="0.87526">
        <ele>156</ele>
        <time>2013-09-01T08:03:19.496Z</time>
      </trkpt>
      <trkpt lat="47.48454" lon="0.87521">
        <ele>156</ele>
        <time>2013-09-01T08:03:20.496Z</time>
      </trkpt>
      <trkpt lat="47.48454" lon="0.87509">
        <ele>156</ele>
        <time>2013-09-01T08:03:22.486Z</time>
      </trkpt>
      <trkpt lat="47.48454" lon="0.87502">
        <ele>156</ele>
        <time>2013-09-01T08:03:23.446Z</time>
      </trkpt>
      <trkpt lat="47.48454" lon="0.87489">
        <ele>157</ele>
        <time>2013-09-01T08:03:25.491Z</time>
      </trkpt>
      <trkpt lat="47.48454" lon="0.87483">
        <ele>157</ele>
        <time>2013-09-01T08:03:26.498Z</time>
      </trkpt>
      <trkpt lat="47.48454" lon="0.8747">
        <ele>157</ele>
        <time>2013-09-01T08:03:28.446Z</time>
      </trkpt>
      <trkpt lat="47.48454" lon="0.87464">
        <ele>157</ele>
        <time>2013-09-01T08:03:29.487Z</time>
      </trkpt>
      <trkpt lat="47.48453" lon="0.87451">
        <ele>157</ele>
        <time>2013-09-01T08:03:31.477Z</time>
      </trkpt>
      <trkpt lat="47.48453" lon="0.87444">
        <ele>156</ele>
        <time>2013-09-01T08:03:32.440Z</time>
      </trkpt>
      <trkpt lat="47.48452" lon="0.87438">
        <ele>156</ele>
        <time>2013-09-01T08:03:33.475Z</time>
      </trkpt>
      <trkpt lat="47.48452" lon="0.8743">
        <ele>155</ele>
        <time>2013-09-01T08:03:34.487Z</time>
      </trkpt>
      <trkpt lat="47.48451" lon="0.87416">
        <ele>157</ele>
        <time>2013-09-01T08:03:36.491Z</time>
      </trkpt>
      <trkpt lat="47.48451" lon="0.8741">
        <ele>156</ele>
        <time>2013-09-01T08:03:37.470Z</time>
      </trkpt>
      <trkpt lat="47.48451" lon="0.87402">
        <ele>156</ele>
        <time>2013-09-01T08:03:38.540Z</time>
      </trkpt>
      <trkpt lat="47.48451" lon="0.87395">
        <ele>156</ele>
        <time>2013-09-01T08:03:39.420Z</time>
      </trkpt>
      <trkpt lat="47.48451" lon="0.87387">
        <ele>155</ele>
        <time>2013-09-01T08:03:40.415Z</time>
      </trkpt>
      <trkpt lat="47.48452" lon="0.8738">
        <ele>155</ele>
        <time>2013-09-01T08:03:41.440Z</time>
      </trkpt>
      <trkpt lat="47.48454" lon="0.87367">
        <ele>156</ele>
        <time>2013-09-01T08:03:43.471Z</time>
      </trkpt>
      <trkpt lat="47.48455" lon="0.87361">
        <ele>156</ele>
        <time>2013-09-01T08:03:44.430Z</time>
      </trkpt>
      <trkpt lat="47.48456" lon="0.87354">
        <ele>156</ele>
        <time>2013-09-01T08:03:45.486Z</time>
      </trkpt>
      <trkpt lat="47.48457" lon="0.87348">
        <ele>156</ele>
        <time>2013-09-01T08:03:46.486Z</time>
      </trkpt>
      <trkpt lat="47.48459" lon="0.87337">
        <ele>157</ele>
        <time>2013-09-01T08:03:48.591Z</time>
      </trkpt>
      <trkpt lat="47.4846" lon="0.87331">
        <ele>157</ele>
        <time>2013-09-01T08:03:49.428Z</time>
      </trkpt>
      <trkpt lat="47.48462" lon="0.87324">
        <ele>158</ele>
        <time>2013-09-01T08:03:50.440Z</time>
      </trkpt>
      <trkpt lat="47.48463" lon="0.87318">
        <ele>158</ele>
        <time>2013-09-01T08:03:51.444Z</time>
      </trkpt>
      <trkpt lat="47.48465" lon="0.87307">
        <ele>157</ele>
        <time>2013-09-01T08:03:53.459Z</time>
      </trkpt>
      <trkpt lat="47.48467" lon="0.87299">
        <ele>157</ele>
        <time>2013-09-01T08:03:54.459Z</time>
      </trkpt>
      <trkpt lat="47.48468" lon="0.87292">
        <ele>157</ele>
        <time>2013-09-01T08:03:55.494Z</time>
      </trkpt>
      <trkpt lat="47.48469" lon="0.87285">
        <ele>156</ele>
        <time>2013-09-01T08:03:56.477Z</time>
      </trkpt>
      <trkpt lat="47.48471" lon="0.87273">
        <ele>157</ele>
        <time>2013-09-01T08:03:58.474Z</time>
      </trkpt>
      <trkpt lat="47.48473" lon="0.87266">
        <ele>156</ele>
        <time>2013-09-01T08:03:59.420Z</time>
      </trkpt>
      <trkpt lat="47.48475" lon="0.87256">
        <ele>157</ele>
        <time>2013-09-01T08:04:01.439Z</time>
      </trkpt>
      <trkpt lat="47.48477" lon="0.87249">
        <ele>156</ele>
        <time>2013-09-01T08:04:02.472Z</time>
      </trkpt>
      <trkpt lat="47.4848" lon="0.87243">
        <ele>156</ele>
        <time>2013-09-01T08:04:03.473Z</time>
      </trkpt>
      <trkpt lat="47.48483" lon="0.87238">
        <ele>155</ele>
        <time>2013-09-01T08:04:04.471Z</time>
      </trkpt>
      <trkpt lat="47.48485" lon="0.87232">
        <ele>155</ele>
        <time>2013-09-01T08:04:05.476Z</time>
      </trkpt>
      <trkpt lat="47.48487" lon="0.87226">
        <ele>154</ele>
        <time>2013-09-01T08:04:06.470Z</time>
      </trkpt>
      <trkpt lat="47.48489" lon="0.87219">
        <ele>155</ele>
        <time>2013-09-01T08:04:07.476Z</time>
      </trkpt>
      <trkpt lat="47.48491" lon="0.87213">
        <ele>155</ele>
        <time>2013-09-01T08:04:08.488Z</time>
      </trkpt>
      <trkpt lat="47.48492" lon="0.87202">
        <ele>156</ele>
        <time>2013-09-01T08:04:10.475Z</time>
      </trkpt>
      <trkpt lat="47.48495" lon="0.87195">
        <ele>156</ele>
        <time>2013-09-01T08:04:11.486Z</time>
      </trkpt>
      <trkpt lat="47.485" lon="0.87185">
        <ele>157</ele>
        <time>2013-09-01T08:04:13.482Z</time>
      </trkpt>
      <trkpt lat="47.48502" lon="0.87178">
        <ele>157</ele>
        <time>2013-09-01T08:04:14.491Z</time>
      </trkpt>
      <trkpt lat="47.48504" lon="0.87172">
        <ele>157</ele>
        <time>2013-09-01T08:04:15.543Z</time>
      </trkpt>
      <trkpt lat="47.48506" lon="0.87165">
        <ele>157</ele>
        <time>2013-09-01T08:04:16.486Z</time>
      </trkpt>
      <trkpt lat="47.48508" lon="0.87159">
        <ele>158</ele>
        <time>2013-09-01T08:04:17.486Z</time>
      </trkpt>
      <trkpt lat="47.4851" lon="0.87151">
        <ele>158</ele>
        <time>2013-09-01T08:04:18.437Z</time>
      </trkpt>
      <trkpt lat="47.48513" lon="0.87144">
        <ele>158</ele>
        <time>2013-09-01T08:04:19.436Z</time>
      </trkpt>
      <trkpt lat="47.48515" lon="0.87137">
        <ele>158</ele>
        <time>2013-09-01T08:04:20.442Z</time>
      </trkpt>
      <trkpt lat="47.48518" lon="0.87131">
        <ele>158</ele>
        <time>2013-09-01T08:04:21.492Z</time>
      </trkpt>
      <trkpt lat="47.48521" lon="0.87125">
        <ele>158</ele>
        <time>2013-09-01T08:04:22.487Z</time>
      </trkpt>
      <trkpt lat="47.48524" lon="0.87116">
        <ele>157</ele>
        <time>2013-09-01T08:04:23.444Z</time>
      </trkpt>
      <trkpt lat="47.48527" lon="0.87109">
        <ele>157</ele>
        <time>2013-09-01T08:04:24.492Z</time>
      </trkpt>
      <trkpt lat="47.48529" lon="0.87101">
        <ele>156</ele>
        <time>2013-09-01T08:04:25.487Z</time>
      </trkpt>
      <trkpt lat="47.48533" lon="0.87092">
        <ele>155</ele>
        <time>2013-09-01T08:04:26.484Z</time>
      </trkpt>
      <trkpt lat="47.48537" lon="0.87084">
        <ele>155</ele>
        <time>2013-09-01T08:04:27.492Z</time>
      </trkpt>
      <trkpt lat="47.4854" lon="0.87077">
        <ele>154</ele>
        <time>2013-09-01T08:04:28.507Z</time>
      </trkpt>
      <trkpt lat="47.48543" lon="0.87069">
        <ele>153</ele>
        <time>2013-09-01T08:04:29.454Z</time>
      </trkpt>
      <trkpt lat="47.48546" lon="0.8706">
        <ele>151</ele>
        <time>2013-09-01T08:04:30.502Z</time>
      </trkpt>
      <trkpt lat="47.4855" lon="0.87054">
        <ele>150</ele>
        <time>2013-09-01T08:04:31.497Z</time>
      </trkpt>
      <trkpt lat="47.48551" lon="0.87045">
        <ele>149</ele>
        <time>2013-09-01T08:04:32.520Z</time>
      </trkpt>
      <trkpt lat="47.48553" lon="0.87037">
        <ele>150</ele>
        <time>2013-09-01T08:04:33.466Z</time>
      </trkpt>
      <trkpt lat="47.48554" lon="0.8703">
        <ele>149</ele>
        <time>2013-09-01T08:04:34.482Z</time>
      </trkpt>
      <trkpt lat="47.48558" lon="0.87021">
        <ele>147</ele>
        <time>2013-09-01T08:04:36.476Z</time>
      </trkpt>
      <trkpt lat="47.48559" lon="0.87017">
        <ele>147</ele>
        <time>2013-09-01T08:04:37.431Z</time>
      </trkpt>
      <trkpt lat="47.48561" lon="0.87009">
        <ele>144</ele>
        <time>2013-09-01T08:04:39.476Z</time>
      </trkpt>
      <trkpt lat="47.48562" lon="0.87003">
        <ele>143</ele>
        <time>2013-09-01T08:04:40.483Z</time>
      </trkpt>
      <trkpt lat="47.48567" lon="0.86994">
        <ele>142</ele>
        <time>2013-09-01T08:04:42.523Z</time>
      </trkpt>
      <trkpt lat="47.4857" lon="0.86989">
        <ele>141</ele>
        <time>2013-09-01T08:04:43.472Z</time>
      </trkpt>
      <trkpt lat="47.48572" lon="0.86981">
        <ele>141</ele>
        <time>2013-09-01T08:04:45.427Z</time>
      </trkpt>
      <trkpt lat="47.48572" lon="0.86976">
        <ele>142</ele>
        <time>2013-09-01T08:04:46.439Z</time>
      </trkpt>
      <trkpt lat="47.48565" lon="0.8697">
        <ele>142</ele>
        <time>2013-09-01T08:04:49.427Z</time>
      </trkpt>
      <trkpt lat="47.4856" lon="0.86968">
        <ele>141</ele>
        <time>2013-09-01T08:04:50.424Z</time>
      </trkpt>
      <trkpt lat="47.48555" lon="0.86966">
        <ele>141</ele>
        <time>2013-09-01T08:04:51.423Z</time>
      </trkpt>
      <trkpt lat="47.4855" lon="0.86964">
        <ele>142</ele>
        <time>2013-09-01T08:04:52.419Z</time>
      </trkpt>
      <trkpt lat="47.48545" lon="0.86962">
        <ele>142</ele>
        <time>2013-09-01T08:04:53.421Z</time>
      </trkpt>
      <trkpt lat="47.48539" lon="0.86959">
        <ele>141</ele>
        <time>2013-09-01T08:04:54.432Z</time>
      </trkpt>
      <trkpt lat="47.48533" lon="0.86956">
        <ele>141</ele>
        <time>2013-09-01T08:04:55.440Z</time>
      </trkpt>
      <trkpt lat="47.48526" lon="0.8695">
        <ele>139</ele>
        <time>2013-09-01T08:04:56.477Z</time>
      </trkpt>
      <trkpt lat="47.4852" lon="0.86946">
        <ele>138</ele>
        <time>2013-09-01T08:04:57.484Z</time>
      </trkpt>
      <trkpt lat="47.48513" lon="0.86942">
        <ele>137</ele>
        <time>2013-09-01T08:04:58.404Z</time>
      </trkpt>
      <trkpt lat="47.48507" lon="0.8694">
        <ele>135</ele>
        <time>2013-09-01T08:04:59.409Z</time>
      </trkpt>
      <trkpt lat="47.48502" lon="0.86937">
        <ele>133</ele>
        <time>2013-09-01T08:05:00.436Z</time>
      </trkpt>
      <trkpt lat="47.48497" lon="0.86935">
        <ele>131</ele>
        <time>2013-09-01T08:05:01.476Z</time>
      </trkpt>
      <trkpt lat="47.48492" lon="0.86934">
        <ele>130</ele>
        <time>2013-09-01T08:05:02.480Z</time>
      </trkpt>
      <trkpt lat="47.48487" lon="0.86932">
        <ele>129</ele>
        <time>2013-09-01T08:05:03.425Z</time>
      </trkpt>
      <trkpt lat="47.48482" lon="0.86929">
        <ele>129</ele>
        <time>2013-09-01T08:05:04.447Z</time>
      </trkpt>
      <trkpt lat="47.48476" lon="0.86926">
        <ele>131</ele>
        <time>2013-09-01T08:05:05.472Z</time>
      </trkpt>
      <trkpt lat="47.48471" lon="0.86923">
        <ele>131</ele>
        <time>2013-09-01T08:05:06.487Z</time>
      </trkpt>
      <trkpt lat="47.48467" lon="0.86921">
        <ele>132</ele>
        <time>2013-09-01T08:05:07.476Z</time>
      </trkpt>
      <trkpt lat="47.48462" lon="0.86917">
        <ele>132</ele>
        <time>2013-09-01T08:05:08.482Z</time>
      </trkpt>
      <trkpt lat="47.48456" lon="0.86912">
        <ele>131</ele>
        <time>2013-09-01T08:05:09.529Z</time>
      </trkpt>
      <trkpt lat="47.48451" lon="0.86908">
        <ele>129</ele>
        <time>2013-09-01T08:05:10.491Z</time>
      </trkpt>
      <trkpt lat="47.48444" lon="0.86902">
        <ele>127</ele>
        <time>2013-09-01T08:05:11.481Z</time>
      </trkpt>
      <trkpt lat="47.48438" lon="0.86897">
        <ele>125</ele>
        <time>2013-09-01T08:05:12.482Z</time>
      </trkpt>
      <trkpt lat="47.48433" lon="0.86891">
        <ele>122</ele>
        <time>2013-09-01T08:05:13.490Z</time>
      </trkpt>
      <trkpt lat="47.48427" lon="0.86886">
        <ele>119</ele>
        <time>2013-09-01T08:05:14.481Z</time>
      </trkpt>
      <trkpt lat="47.48419" lon="0.86882">
        <ele>117</ele>
        <time>2013-09-01T08:05:15.486Z</time>
      </trkpt>
      <trkpt lat="47.4841" lon="0.86878">
        <ele>118</ele>
        <time>2013-09-01T08:05:16.487Z</time>
      </trkpt>
      <trkpt lat="47.48399" lon="0.86873">
        <ele>120</ele>
        <time>2013-09-01T08:05:17.524Z</time>
      </trkpt>
      <trkpt lat="47.4839" lon="0.86871">
        <ele>124</ele>
        <time>2013-09-01T08:05:18.468Z</time>
      </trkpt>
      <trkpt lat="47.48381" lon="0.8687">
        <ele>127</ele>
        <time>2013-09-01T08:05:19.482Z</time>
      </trkpt>
      <trkpt lat="47.48373" lon="0.86874">
        <ele>131</ele>
        <time>2013-09-01T08:05:20.491Z</time>
      </trkpt>
      <trkpt lat="47.48365" lon="0.86879">
        <ele>135</ele>
        <time>2013-09-01T08:05:21.440Z</time>
      </trkpt>
      <trkpt lat="47.48361" lon="0.86887">
        <ele>131</ele>
        <time>2013-09-01T08:05:22.430Z</time>
      </trkpt>
      <trkpt lat="47.48355" lon="0.86894">
        <ele>131</ele>
        <time>2013-09-01T08:05:24.435Z</time>
      </trkpt>
      <trkpt lat="47.48353" lon="0.86892">
        <ele>130</ele>
        <time>2013-09-01T08:05:25.451Z</time>
      </trkpt>
      <trkpt lat="47.4835" lon="0.86882">
        <ele>128</ele>
        <time>2013-09-01T08:05:28.447Z</time>
      </trkpt>
      <trkpt lat="47.48348" lon="0.86876">
        <ele>127</ele>
        <time>2013-09-01T08:05:29.458Z</time>
      </trkpt>
      <trkpt lat="47.48344" lon="0.86867">
        <ele>126</ele>
        <time>2013-09-01T08:05:31.537Z</time>
      </trkpt>
      <trkpt lat="47.48339" lon="0.86863">
        <ele>126</ele>
        <time>2013-09-01T08:05:32.438Z</time>
      </trkpt>
      <trkpt lat="47.48335" lon="0.8686">
        <ele>126</ele>
        <time>2013-09-01T08:05:33.449Z</time>
      </trkpt>
      <trkpt lat="47.4833" lon="0.86856">
        <ele>126</ele>
        <time>2013-09-01T08:05:34.487Z</time>
      </trkpt>
      <trkpt lat="47.48325" lon="0.86854">
        <ele>126</ele>
        <time>2013-09-01T08:05:35.476Z</time>
      </trkpt>
      <trkpt lat="47.4832" lon="0.8685">
        <ele>126</ele>
        <time>2013-09-01T08:05:36.481Z</time>
      </trkpt>
      <trkpt lat="47.48315" lon="0.86846">
        <ele>125</ele>
        <time>2013-09-01T08:05:37.476Z</time>
      </trkpt>
      <trkpt lat="47.48311" lon="0.86843">
        <ele>125</ele>
        <time>2013-09-01T08:05:38.525Z</time>
      </trkpt>
      <trkpt lat="47.48306" lon="0.86839">
        <ele>126</ele>
        <time>2013-09-01T08:05:39.476Z</time>
      </trkpt>
      <trkpt lat="47.48302" lon="0.86835">
        <ele>126</ele>
        <time>2013-09-01T08:05:40.476Z</time>
      </trkpt>
      <trkpt lat="47.48297" lon="0.86833">
        <ele>126</ele>
        <time>2013-09-01T08:05:41.477Z</time>
      </trkpt>
      <trkpt lat="47.48293" lon="0.86829">
        <ele>126</ele>
        <time>2013-09-01T08:05:42.485Z</time>
      </trkpt>
      <trkpt lat="47.48289" lon="0.86826">
        <ele>127</ele>
        <time>2013-09-01T08:05:43.429Z</time>
      </trkpt>
      <trkpt lat="47.48284" lon="0.86824">
        <ele>127</ele>
        <time>2013-09-01T08:05:44.628Z</time>
      </trkpt>
      <trkpt lat="47.4828" lon="0.86822">
        <ele>127</ele>
        <time>2013-09-01T08:05:45.426Z</time>
      </trkpt>
      <trkpt lat="47.48275" lon="0.86822">
        <ele>128</ele>
        <time>2013-09-01T08:05:46.420Z</time>
      </trkpt>
      <trkpt lat="47.4827" lon="0.8682">
        <ele>129</ele>
        <time>2013-09-01T08:05:47.430Z</time>
      </trkpt>
      <trkpt lat="47.48265" lon="0.8682">
        <ele>129</ele>
        <time>2013-09-01T08:05:48.418Z</time>
      </trkpt>
      <trkpt lat="47.48258" lon="0.86816">
        <ele>130</ele>
        <time>2013-09-01T08:05:50.422Z</time>
      </trkpt>
      <trkpt lat="47.48254" lon="0.86813">
        <ele>130</ele>
        <time>2013-09-01T08:05:51.418Z</time>
      </trkpt>
      <trkpt lat="47.48249" lon="0.86805">
        <ele>130</ele>
        <time>2013-09-01T08:05:53.422Z</time>
      </trkpt>
      <trkpt lat="47.48247" lon="0.86801">
        <ele>129</ele>
        <time>2013-09-01T08:05:54.420Z</time>
      </trkpt>
      <trkpt lat="47.48242" lon="0.86792">
        <ele>130</ele>
        <time>2013-09-01T08:05:56.466Z</time>
      </trkpt>
      <trkpt lat="47.48241" lon="0.86789">
        <ele>130</ele>
        <time>2013-09-01T08:05:57.471Z</time>
      </trkpt>
      <trkpt lat="47.48237" lon="0.86783">
        <ele>130</ele>
        <time>2013-09-01T08:05:59.422Z</time>
      </trkpt>
      <trkpt lat="47.48235" lon="0.86779">
        <ele>131</ele>
        <time>2013-09-01T08:06:00.437Z</time>
      </trkpt>
      <trkpt lat="47.48231" lon="0.86772">
        <ele>132</ele>
        <time>2013-09-01T08:06:02.470Z</time>
      </trkpt>
      <trkpt lat="47.48229" lon="0.86769">
        <ele>134</ele>
        <time>2013-09-01T08:06:03.513Z</time>
      </trkpt>
      <trkpt lat="47.48224" lon="0.86758">
        <ele>136</ele>
        <time>2013-09-01T08:06:06.492Z</time>
      </trkpt>
      <trkpt lat="47.48222" lon="0.86755">
        <ele>136</ele>
        <time>2013-09-01T08:06:07.491Z</time>
      </trkpt>
      <trkpt lat="47.48218" lon="0.86747">
        <ele>137</ele>
        <time>2013-09-01T08:06:10.495Z</time>
      </trkpt>
      <trkpt lat="47.48217" lon="0.86743">
        <ele>137</ele>
        <time>2013-09-01T08:06:11.491Z</time>
      </trkpt>
      <trkpt lat="47.48213" lon="0.86736">
        <ele>138</ele>
        <time>2013-09-01T08:06:13.448Z</time>
      </trkpt>
      <trkpt lat="47.4821" lon="0.86732">
        <ele>138</ele>
        <time>2013-09-01T08:06:14.437Z</time>
      </trkpt>
      <trkpt lat="47.48208" lon="0.86723">
        <ele>138</ele>
        <time>2013-09-01T08:06:16.446Z</time>
      </trkpt>
      <trkpt lat="47.48207" lon="0.86719">
        <ele>138</ele>
        <time>2013-09-01T08:06:17.439Z</time>
      </trkpt>
      <trkpt lat="47.48203" lon="0.8671">
        <ele>140</ele>
        <time>2013-09-01T08:06:20.539Z</time>
      </trkpt>
      <trkpt lat="47.48202" lon="0.86706">
        <ele>140</ele>
        <time>2013-09-01T08:06:21.495Z</time>
      </trkpt>
      <trkpt lat="47.48197" lon="0.86695">
        <ele>141</ele>
        <time>2013-09-01T08:06:24.493Z</time>
      </trkpt>
      <trkpt lat="47.48195" lon="0.86691">
        <ele>141</ele>
        <time>2013-09-01T08:06:25.438Z</time>
      </trkpt>
      <trkpt lat="47.48192" lon="0.86684">
        <ele>142</ele>
        <time>2013-09-01T08:06:27.432Z</time>
      </trkpt>
      <trkpt lat="47.4819" lon="0.86681">
        <ele>142</ele>
        <time>2013-09-01T08:06:28.468Z</time>
      </trkpt>
      <trkpt lat="47.48184" lon="0.86672">
        <ele>142</ele>
        <time>2013-09-01T08:06:31.454Z</time>
      </trkpt>
      <trkpt lat="47.48182" lon="0.86668">
        <ele>143</ele>
        <time>2013-09-01T08:06:32.436Z</time>
      </trkpt>
      <trkpt lat="47.48176" lon="0.86659">
        <ele>143</ele>
        <time>2013-09-01T08:06:35.460Z</time>
      </trkpt>
      <trkpt lat="47.48174" lon="0.86655">
        <ele>143</ele>
        <time>2013-09-01T08:06:36.458Z</time>
      </trkpt>
      <trkpt lat="47.4817" lon="0.86644">
        <ele>142</ele>
        <time>2013-09-01T08:06:39.446Z</time>
      </trkpt>
      <trkpt lat="47.48169" lon="0.8664">
        <ele>142</ele>
        <time>2013-09-01T08:06:40.447Z</time>
      </trkpt>
      <trkpt lat="47.48165" lon="0.86629">
        <ele>142</ele>
        <time>2013-09-01T08:06:42.441Z</time>
      </trkpt>
      <trkpt lat="47.48163" lon="0.86624">
        <ele>142</ele>
        <time>2013-09-01T08:06:43.447Z</time>
      </trkpt>
      <trkpt lat="47.4816" lon="0.86616">
        <ele>143</ele>
        <time>2013-09-01T08:06:45.461Z</time>
      </trkpt>
      <trkpt lat="47.48159" lon="0.86612">
        <ele>143</ele>
        <time>2013-09-01T08:06:46.496Z</time>
      </trkpt>
      <trkpt lat="47.48154" lon="0.86601">
        <ele>143</ele>
        <time>2013-09-01T08:06:49.436Z</time>
      </trkpt>
      <trkpt lat="47.48152" lon="0.86597">
        <ele>143</ele>
        <time>2013-09-01T08:06:50.439Z</time>
      </trkpt>
      <trkpt lat="47.48146" lon="0.8659">
        <ele>145</ele>
        <time>2013-09-01T08:06:53.450Z</time>
      </trkpt>
      <trkpt lat="47.48144" lon="0.86588">
        <ele>145</ele>
        <time>2013-09-01T08:06:54.492Z</time>
      </trkpt>
      <trkpt lat="47.48138" lon="0.86582">
        <ele>145</ele>
        <time>2013-09-01T08:06:56.510Z</time>
      </trkpt>
      <trkpt lat="47.48135" lon="0.86579">
        <ele>145</ele>
        <time>2013-09-01T08:06:57.496Z</time>
      </trkpt>
      <trkpt lat="47.4813" lon="0.86575">
        <ele>145</ele>
        <time>2013-09-01T08:06:59.445Z</time>
      </trkpt>
      <trkpt lat="47.48127" lon="0.86573">
        <ele>145</ele>
        <time>2013-09-01T08:07:00.453Z</time>
      </trkpt>
      <trkpt lat="47.48118" lon="0.86569">
        <ele>145</ele>
        <time>2013-09-01T08:07:03.492Z</time>
      </trkpt>
      <trkpt lat="47.48116" lon="0.86567">
        <ele>145</ele>
        <time>2013-09-01T08:07:04.492Z</time>
      </trkpt>
      <trkpt lat="47.4811" lon="0.86562">
        <ele>145</ele>
        <time>2013-09-01T08:07:06.501Z</time>
      </trkpt>
      <trkpt lat="47.48107" lon="0.86562">
        <ele>145</ele>
        <time>2013-09-01T08:07:07.506Z</time>
      </trkpt>
      <trkpt lat="47.481" lon="0.86556">
        <ele>145</ele>
        <time>2013-09-01T08:07:10.445Z</time>
      </trkpt>
      <trkpt lat="47.48097" lon="0.86554">
        <ele>145</ele>
        <time>2013-09-01T08:07:11.468Z</time>
      </trkpt>
      <trkpt lat="47.48089" lon="0.8655">
        <ele>145</ele>
        <time>2013-09-01T08:07:14.450Z</time>
      </trkpt>
      <trkpt lat="47.48087" lon="0.86547">
        <ele>145</ele>
        <time>2013-09-01T08:07:15.504Z</time>
      </trkpt>
      <trkpt lat="47.4808" lon="0.86543">
        <ele>146</ele>
        <time>2013-09-01T08:07:18.477Z</time>
      </trkpt>
      <trkpt lat="47.48076" lon="0.86541">
        <ele>146</ele>
        <time>2013-09-01T08:07:19.501Z</time>
      </trkpt>
      <trkpt lat="47.48069" lon="0.86537">
        <ele>146</ele>
        <time>2013-09-01T08:07:22.491Z</time>
      </trkpt>
      <trkpt lat="47.48067" lon="0.86535">
        <ele>147</ele>
        <time>2013-09-01T08:07:23.449Z</time>
      </trkpt>
      <trkpt lat="47.48059" lon="0.8653">
        <ele>147</ele>
        <time>2013-09-01T08:07:26.445Z</time>
      </trkpt>
      <trkpt lat="47.48056" lon="0.86528">
        <ele>148</ele>
        <time>2013-09-01T08:07:27.465Z</time>
      </trkpt>
      <trkpt lat="47.48048" lon="0.86523">
        <ele>148</ele>
        <time>2013-09-01T08:07:30.511Z</time>
      </trkpt>
      <trkpt lat="47.48045" lon="0.86522">
        <ele>149</ele>
        <time>2013-09-01T08:07:31.573Z</time>
      </trkpt>
      <trkpt lat="47.48038" lon="0.86517">
        <ele>149</ele>
        <time>2013-09-01T08:07:33.997Z</time>
      </trkpt>
      <trkpt lat="47.48035" lon="0.86515">
        <ele>149</ele>
        <time>2013-09-01T08:07:35.013Z</time>
      </trkpt>
      <trkpt lat="47.48029" lon="0.86513">
        <ele>149</ele>
        <time>2013-09-01T08:07:37.044Z</time>
      </trkpt>
      <trkpt lat="47.48026" lon="0.86511">
        <ele>150</ele>
        <time>2013-09-01T08:07:38.099Z</time>
      </trkpt>
      <trkpt lat="47.48018" lon="0.86507">
        <ele>150</ele>
        <time>2013-09-01T08:07:41.060Z</time>
      </trkpt>
      <trkpt lat="47.48016" lon="0.86505">
        <ele>150</ele>
        <time>2013-09-01T08:07:42.057Z</time>
      </trkpt>
      <trkpt lat="47.48007" lon="0.86503">
        <ele>150</ele>
        <time>2013-09-01T08:07:44.995Z</time>
      </trkpt>
      <trkpt lat="47.48005" lon="0.86502">
        <ele>150</ele>
        <time>2013-09-01T08:07:45.993Z</time>
      </trkpt>
      <trkpt lat="47.47997" lon="0.86498">
        <ele>150</ele>
        <time>2013-09-01T08:07:48.996Z</time>
      </trkpt>
      <trkpt lat="47.47994" lon="0.86498">
        <ele>150</ele>
        <time>2013-09-01T08:07:50.017Z</time>
      </trkpt>
      <trkpt lat="47.47985" lon="0.86496">
        <ele>150</ele>
        <time>2013-09-01T08:07:53.237Z</time>
      </trkpt>
      <trkpt lat="47.47982" lon="0.86496">
        <ele>150</ele>
        <time>2013-09-01T08:07:53.993Z</time>
      </trkpt>
      <trkpt lat="47.47975" lon="0.86494">
        <ele>151</ele>
        <time>2013-09-01T08:07:56.010Z</time>
      </trkpt>
      <trkpt lat="47.47973" lon="0.86492">
        <ele>151</ele>
        <time>2013-09-01T08:07:56.998Z</time>
      </trkpt>
      <trkpt lat="47.47967" lon="0.8649">
        <ele>151</ele>
        <time>2013-09-01T08:07:59.053Z</time>
      </trkpt>
      <trkpt lat="47.47964" lon="0.86489">
        <ele>151</ele>
        <time>2013-09-01T08:08:00.157Z</time>
      </trkpt>
      <trkpt lat="47.47955" lon="0.86487">
        <ele>152</ele>
        <time>2013-09-01T08:08:03.051Z</time>
      </trkpt>
      <trkpt lat="47.47952" lon="0.86485">
        <ele>152</ele>
        <time>2013-09-01T08:08:04.050Z</time>
      </trkpt>
      <trkpt lat="47.47945" lon="0.86483">
        <ele>153</ele>
        <time>2013-09-01T08:08:06.059Z</time>
      </trkpt>
      <trkpt lat="47.47942" lon="0.86483">
        <ele>153</ele>
        <time>2013-09-01T08:08:06.998Z</time>
      </trkpt>
      <trkpt lat="47.47935" lon="0.86481">
        <ele>154</ele>
        <time>2013-09-01T08:08:09.049Z</time>
      </trkpt>
      <trkpt lat="47.47932" lon="0.86479">
        <ele>154</ele>
        <time>2013-09-01T08:08:10.050Z</time>
      </trkpt>
      <trkpt lat="47.47925" lon="0.86479">
        <ele>154</ele>
        <time>2013-09-01T08:08:11.993Z</time>
      </trkpt>
      <trkpt lat="47.47921" lon="0.86479">
        <ele>154</ele>
        <time>2013-09-01T08:08:13.002Z</time>
      </trkpt>
      <trkpt lat="47.47914" lon="0.86476">
        <ele>155</ele>
        <time>2013-09-01T08:08:15.053Z</time>
      </trkpt>
      <trkpt lat="47.4791" lon="0.86475">
        <ele>155</ele>
        <time>2013-09-01T08:08:16.053Z</time>
      </trkpt>
      <trkpt lat="47.47903" lon="0.86472">
        <ele>155</ele>
        <time>2013-09-01T08:08:18.062Z</time>
      </trkpt>
      <trkpt lat="47.47899" lon="0.86472">
        <ele>155</ele>
        <time>2013-09-01T08:08:19.053Z</time>
      </trkpt>
      <trkpt lat="47.47892" lon="0.8647">
        <ele>155</ele>
        <time>2013-09-01T08:08:21.052Z</time>
      </trkpt>
      <trkpt lat="47.47888" lon="0.86468">
        <ele>156</ele>
        <time>2013-09-01T08:08:22.054Z</time>
      </trkpt>
      <trkpt lat="47.47881" lon="0.86466">
        <ele>156</ele>
        <time>2013-09-01T08:08:24.049Z</time>
      </trkpt>
      <trkpt lat="47.47878" lon="0.86466">
        <ele>156</ele>
        <time>2013-09-01T08:08:25.053Z</time>
      </trkpt>
      <trkpt lat="47.47869" lon="0.86462">
        <ele>157</ele>
        <time>2013-09-01T08:08:27.064Z</time>
      </trkpt>
      <trkpt lat="47.47866" lon="0.86461">
        <ele>157</ele>
        <time>2013-09-01T08:08:28.015Z</time>
      </trkpt>
      <trkpt lat="47.4786" lon="0.86457">
        <ele>157</ele>
        <time>2013-09-01T08:08:30.049Z</time>
      </trkpt>
      <trkpt lat="47.47856" lon="0.86453">
        <ele>157</ele>
        <time>2013-09-01T08:08:31.122Z</time>
      </trkpt>
      <trkpt lat="47.47851" lon="0.86444">
        <ele>158</ele>
        <time>2013-09-01T08:08:33.015Z</time>
      </trkpt>
      <trkpt lat="47.4785" lon="0.86438">
        <ele>158</ele>
        <time>2013-09-01T08:08:34.079Z</time>
      </trkpt>
      <trkpt lat="47.47848" lon="0.86427">
        <ele>159</ele>
        <time>2013-09-01T08:08:36.064Z</time>
      </trkpt>
      <trkpt lat="47.47846" lon="0.86423">
        <ele>159</ele>
        <time>2013-09-01T08:08:37.075Z</time>
      </trkpt>
      <trkpt lat="47.47843" lon="0.86412">
        <ele>159</ele>
        <time>2013-09-01T08:08:39.064Z</time>
      </trkpt>
      <trkpt lat="47.47841" lon="0.86408">
        <ele>159</ele>
        <time>2013-09-01T08:08:40.064Z</time>
      </trkpt>
      <trkpt lat="47.47837" lon="0.86397">
        <ele>160</ele>
        <time>2013-09-01T08:08:42.053Z</time>
      </trkpt>
      <trkpt lat="47.47836" lon="0.86393">
        <ele>160</ele>
        <time>2013-09-01T08:08:43.119Z</time>
      </trkpt>
      <trkpt lat="47.47833" lon="0.86384">
        <ele>160</ele>
        <time>2013-09-01T08:08:44.998Z</time>
      </trkpt>
      <trkpt lat="47.47831" lon="0.8638">
        <ele>160</ele>
        <time>2013-09-01T08:08:46.032Z</time>
      </trkpt>
      <trkpt lat="47.47829" lon="0.86371">
        <ele>160</ele>
        <time>2013-09-01T08:08:48.162Z</time>
      </trkpt>
      <trkpt lat="47.47827" lon="0.86367">
        <ele>160</ele>
        <time>2013-09-01T08:08:49.069Z</time>
      </trkpt>
      <trkpt lat="47.47823" lon="0.86356">
        <ele>160</ele>
        <time>2013-09-01T08:08:51.064Z</time>
      </trkpt>
      <trkpt lat="47.47821" lon="0.86352">
        <ele>160</ele>
        <time>2013-09-01T08:08:51.995Z</time>
      </trkpt>
      <trkpt lat="47.47817" lon="0.86344">
        <ele>160</ele>
        <time>2013-09-01T08:08:54.005Z</time>
      </trkpt>
      <trkpt lat="47.47815" lon="0.86339">
        <ele>160</ele>
        <time>2013-09-01T08:08:54.997Z</time>
      </trkpt>
      <trkpt lat="47.47812" lon="0.86333">
        <ele>160</ele>
        <time>2013-09-01T08:08:56.037Z</time>
      </trkpt>
      <trkpt lat="47.47809" lon="0.86328">
        <ele>160</ele>
        <time>2013-09-01T08:08:57.064Z</time>
      </trkpt>
      <trkpt lat="47.47804" lon="0.8632">
        <ele>160</ele>
        <time>2013-09-01T08:08:59.012Z</time>
      </trkpt>
      <trkpt lat="47.47801" lon="0.86314">
        <ele>159</ele>
        <time>2013-09-01T08:09:00.010Z</time>
      </trkpt>
      <trkpt lat="47.47794" lon="0.86305">
        <ele>159</ele>
        <time>2013-09-01T08:09:02.022Z</time>
      </trkpt>
      <trkpt lat="47.47792" lon="0.86301">
        <ele>159</ele>
        <time>2013-09-01T08:09:03.069Z</time>
      </trkpt>
      <trkpt lat="47.47789" lon="0.86295">
        <ele>159</ele>
        <time>2013-09-01T08:09:04.006Z</time>
      </trkpt>
      <trkpt lat="47.47787" lon="0.8629">
        <ele>159</ele>
        <time>2013-09-01T08:09:05.020Z</time>
      </trkpt>
      <trkpt lat="47.4778" lon="0.86281">
        <ele>158</ele>
        <time>2013-09-01T08:09:07.068Z</time>
      </trkpt>
      <trkpt lat="47.47777" lon="0.86275">
        <ele>158</ele>
        <time>2013-09-01T08:09:08.071Z</time>
      </trkpt>
      <trkpt lat="47.47774" lon="0.8627">
        <ele>157</ele>
        <time>2013-09-01T08:09:09.026Z</time>
      </trkpt>
      <trkpt lat="47.47771" lon="0.86264">
        <ele>157</ele>
        <time>2013-09-01T08:09:10.028Z</time>
      </trkpt>
      <trkpt lat="47.47767" lon="0.8626">
        <ele>157</ele>
        <time>2013-09-01T08:09:11.064Z</time>
      </trkpt>
      <trkpt lat="47.47764" lon="0.86254">
        <ele>157</ele>
        <time>2013-09-01T08:09:12.081Z</time>
      </trkpt>
      <trkpt lat="47.47761" lon="0.86249">
        <ele>157</ele>
        <time>2013-09-01T08:09:13.074Z</time>
      </trkpt>
      <trkpt lat="47.47759" lon="0.86243">
        <ele>156</ele>
        <time>2013-09-01T08:09:14.070Z</time>
      </trkpt>
      <trkpt lat="47.47756" lon="0.86236">
        <ele>156</ele>
        <time>2013-09-01T08:09:15.116Z</time>
      </trkpt>
      <trkpt lat="47.47752" lon="0.8623">
        <ele>156</ele>
        <time>2013-09-01T08:09:16.070Z</time>
      </trkpt>
      <trkpt lat="47.47749" lon="0.86225">
        <ele>156</ele>
        <time>2013-09-01T08:09:17.086Z</time>
      </trkpt>
      <trkpt lat="47.47747" lon="0.86219">
        <ele>156</ele>
        <time>2013-09-01T08:09:18.056Z</time>
      </trkpt>
      <trkpt lat="47.47744" lon="0.86213">
        <ele>156</ele>
        <time>2013-09-01T08:09:19.024Z</time>
      </trkpt>
      <trkpt lat="47.47741" lon="0.86206">
        <ele>155</ele>
        <time>2013-09-01T08:09:20.047Z</time>
      </trkpt>
      <trkpt lat="47.47738" lon="0.862">
        <ele>155</ele>
        <time>2013-09-01T08:09:21.052Z</time>
      </trkpt>
      <trkpt lat="47.47735" lon="0.86193">
        <ele>155</ele>
        <time>2013-09-01T08:09:22.076Z</time>
      </trkpt>
      <trkpt lat="47.47733" lon="0.86187">
        <ele>155</ele>
        <time>2013-09-01T08:09:23.026Z</time>
      </trkpt>
      <trkpt lat="47.4773" lon="0.86179">
        <ele>155</ele>
        <time>2013-09-01T08:09:24.060Z</time>
      </trkpt>
      <trkpt lat="47.47727" lon="0.86172">
        <ele>155</ele>
        <time>2013-09-01T08:09:25.032Z</time>
      </trkpt>
      <trkpt lat="47.47723" lon="0.86165">
        <ele>155</ele>
        <time>2013-09-01T08:09:26.018Z</time>
      </trkpt>
      <trkpt lat="47.4772" lon="0.86159">
        <ele>155</ele>
        <time>2013-09-01T08:09:27.016Z</time>
      </trkpt>
      <trkpt lat="47.47717" lon="0.86153">
        <ele>155</ele>
        <time>2013-09-01T08:09:28.015Z</time>
      </trkpt>
      <trkpt lat="47.47714" lon="0.86146">
        <ele>155</ele>
        <time>2013-09-01T08:09:29.064Z</time>
      </trkpt>
      <trkpt lat="47.47709" lon="0.86142">
        <ele>155</ele>
        <time>2013-09-01T08:09:30.045Z</time>
      </trkpt>
      <trkpt lat="47.47705" lon="0.86136">
        <ele>155</ele>
        <time>2013-09-01T08:09:31.064Z</time>
      </trkpt>
      <trkpt lat="47.47702" lon="0.86129">
        <ele>155</ele>
        <time>2013-09-01T08:09:32.082Z</time>
      </trkpt>
      <trkpt lat="47.47698" lon="0.86124">
        <ele>155</ele>
        <time>2013-09-01T08:09:33.111Z</time>
      </trkpt>
      <trkpt lat="47.47693" lon="0.86118">
        <ele>155</ele>
        <time>2013-09-01T08:09:34.013Z</time>
      </trkpt>
      <trkpt lat="47.47687" lon="0.86116">
        <ele>154</ele>
        <time>2013-09-01T08:09:35.054Z</time>
      </trkpt>
      <trkpt lat="47.47681" lon="0.86116">
        <ele>154</ele>
        <time>2013-09-01T08:09:36.076Z</time>
      </trkpt>
      <trkpt lat="47.47675" lon="0.86118">
        <ele>154</ele>
        <time>2013-09-01T08:09:37.033Z</time>
      </trkpt>
      <trkpt lat="47.47669" lon="0.86118">
        <ele>154</ele>
        <time>2013-09-01T08:09:38.156Z</time>
      </trkpt>
      <trkpt lat="47.47663" lon="0.8612">
        <ele>154</ele>
        <time>2013-09-01T08:09:39.036Z</time>
      </trkpt>
      <trkpt lat="47.47658" lon="0.86124">
        <ele>154</ele>
        <time>2013-09-01T08:09:40.083Z</time>
      </trkpt>
      <trkpt lat="47.47652" lon="0.86127">
        <ele>154</ele>
        <time>2013-09-01T08:09:41.075Z</time>
      </trkpt>
      <trkpt lat="47.47647" lon="0.86129">
        <ele>154</ele>
        <time>2013-09-01T08:09:42.145Z</time>
      </trkpt>
      <trkpt lat="47.47642" lon="0.86133">
        <ele>153</ele>
        <time>2013-09-01T08:09:43.018Z</time>
      </trkpt>
      <trkpt lat="47.47637" lon="0.86137">
        <ele>154</ele>
        <time>2013-09-01T08:09:44.019Z</time>
      </trkpt>
      <trkpt lat="47.47632" lon="0.86142">
        <ele>153</ele>
        <time>2013-09-01T08:09:45.019Z</time>
      </trkpt>
      <trkpt lat="47.47628" lon="0.86146">
        <ele>153</ele>
        <time>2013-09-01T08:09:46.068Z</time>
      </trkpt>
      <trkpt lat="47.47623" lon="0.86152">
        <ele>153</ele>
        <time>2013-09-01T08:09:47.069Z</time>
      </trkpt>
      <trkpt lat="47.47619" lon="0.86157">
        <ele>153</ele>
        <time>2013-09-01T08:09:48.055Z</time>
      </trkpt>
      <trkpt lat="47.47616" lon="0.86163">
        <ele>153</ele>
        <time>2013-09-01T08:09:49.074Z</time>
      </trkpt>
      <trkpt lat="47.47612" lon="0.86168">
        <ele>153</ele>
        <time>2013-09-01T08:09:50.065Z</time>
      </trkpt>
      <trkpt lat="47.47607" lon="0.86174">
        <ele>153</ele>
        <time>2013-09-01T08:09:51.073Z</time>
      </trkpt>
      <trkpt lat="47.47603" lon="0.8618">
        <ele>154</ele>
        <time>2013-09-01T08:09:52.070Z</time>
      </trkpt>
      <trkpt lat="47.47598" lon="0.86185">
        <ele>154</ele>
        <time>2013-09-01T08:09:53.070Z</time>
      </trkpt>
      <trkpt lat="47.47593" lon="0.86189">
        <ele>153</ele>
        <time>2013-09-01T08:09:54.008Z</time>
      </trkpt>
      <trkpt lat="47.47588" lon="0.86191">
        <ele>153</ele>
        <time>2013-09-01T08:09:55.066Z</time>
      </trkpt>
      <trkpt lat="47.47583" lon="0.86195">
        <ele>153</ele>
        <time>2013-09-01T08:09:56.064Z</time>
      </trkpt>
      <trkpt lat="47.47577" lon="0.86198">
        <ele>153</ele>
        <time>2013-09-01T08:09:57.064Z</time>
      </trkpt>
      <trkpt lat="47.47572" lon="0.86202">
        <ele>152</ele>
        <time>2013-09-01T08:09:58.073Z</time>
      </trkpt>
      <trkpt lat="47.47567" lon="0.86204">
        <ele>152</ele>
        <time>2013-09-01T08:09:59.013Z</time>
      </trkpt>
      <trkpt lat="47.4756" lon="0.86204">
        <ele>152</ele>
        <time>2013-09-01T08:10:00.150Z</time>
      </trkpt>
      <trkpt lat="47.47554" lon="0.86206">
        <ele>152</ele>
        <time>2013-09-01T08:10:01.068Z</time>
      </trkpt>
      <trkpt lat="47.47548" lon="0.86206">
        <ele>152</ele>
        <time>2013-09-01T08:10:02.073Z</time>
      </trkpt>
      <trkpt lat="47.47543" lon="0.86204">
        <ele>152</ele>
        <time>2013-09-01T08:10:03.080Z</time>
      </trkpt>
      <trkpt lat="47.47537" lon="0.86202">
        <ele>152</ele>
        <time>2013-09-01T08:10:04.078Z</time>
      </trkpt>
      <trkpt lat="47.4753" lon="0.862">
        <ele>152</ele>
        <time>2013-09-01T08:10:05.079Z</time>
      </trkpt>
      <trkpt lat="47.47525" lon="0.86196">
        <ele>152</ele>
        <time>2013-09-01T08:10:06.068Z</time>
      </trkpt>
      <trkpt lat="47.47519" lon="0.86193">
        <ele>152</ele>
        <time>2013-09-01T08:10:07.047Z</time>
      </trkpt>
      <trkpt lat="47.47514" lon="0.86193">
        <ele>151</ele>
        <time>2013-09-01T08:10:08.053Z</time>
      </trkpt>
      <trkpt lat="47.47508" lon="0.86191">
        <ele>152</ele>
        <time>2013-09-01T08:10:10.070Z</time>
      </trkpt>
      <trkpt lat="47.47504" lon="0.86189">
        <ele>152</ele>
        <time>2013-09-01T08:10:11.074Z</time>
      </trkpt>
      <trkpt lat="47.47497" lon="0.86187">
        <ele>152</ele>
        <time>2013-09-01T08:10:14.079Z</time>
      </trkpt>
      <trkpt lat="47.47494" lon="0.86187">
        <ele>152</ele>
        <time>2013-09-01T08:10:15.064Z</time>
      </trkpt>
      <trkpt lat="47.47487" lon="0.86189">
        <ele>152</ele>
        <time>2013-09-01T08:10:17.644Z</time>
      </trkpt>
      <trkpt lat="47.47484" lon="0.86193">
        <ele>152</ele>
        <time>2013-09-01T08:10:18.520Z</time>
      </trkpt>
      <trkpt lat="47.47477" lon="0.862">
        <ele>152</ele>
        <time>2013-09-01T08:10:20.482Z</time>
      </trkpt>
      <trkpt lat="47.47473" lon="0.86204">
        <ele>152</ele>
        <time>2013-09-01T08:10:21.478Z</time>
      </trkpt>
      <trkpt lat="47.47466" lon="0.86211">
        <ele>152</ele>
        <time>2013-09-01T08:10:23.478Z</time>
      </trkpt>
      <trkpt lat="47.47462" lon="0.86213">
        <ele>152</ele>
        <time>2013-09-01T08:10:24.533Z</time>
      </trkpt>
      <trkpt lat="47.47454" lon="0.86217">
        <ele>151</ele>
        <time>2013-09-01T08:10:26.472Z</time>
      </trkpt>
      <trkpt lat="47.47451" lon="0.86219">
        <ele>151</ele>
        <time>2013-09-01T08:10:27.500Z</time>
      </trkpt>
      <trkpt lat="47.47447" lon="0.86221">
        <ele>151</ele>
        <time>2013-09-01T08:10:28.478Z</time>
      </trkpt>
      <trkpt lat="47.47442" lon="0.86225">
        <ele>151</ele>
        <time>2013-09-01T08:10:29.525Z</time>
      </trkpt>
      <trkpt lat="47.47434" lon="0.8623">
        <ele>152</ele>
        <time>2013-09-01T08:10:31.524Z</time>
      </trkpt>
      <trkpt lat="47.4743" lon="0.86232">
        <ele>152</ele>
        <time>2013-09-01T08:10:32.571Z</time>
      </trkpt>
      <trkpt lat="47.47423" lon="0.86238">
        <ele>152</ele>
        <time>2013-09-01T08:10:34.483Z</time>
      </trkpt>
      <trkpt lat="47.47419" lon="0.86241">
        <ele>152</ele>
        <time>2013-09-01T08:10:35.469Z</time>
      </trkpt>
      <trkpt lat="47.47414" lon="0.86243">
        <ele>152</ele>
        <time>2013-09-01T08:10:36.477Z</time>
      </trkpt>
      <trkpt lat="47.4741" lon="0.86247">
        <ele>152</ele>
        <time>2013-09-01T08:10:37.491Z</time>
      </trkpt>
      <trkpt lat="47.47403" lon="0.86251">
        <ele>153</ele>
        <time>2013-09-01T08:10:39.524Z</time>
      </trkpt>
      <trkpt lat="47.47399" lon="0.86255">
        <ele>153</ele>
        <time>2013-09-01T08:10:40.524Z</time>
      </trkpt>
      <trkpt lat="47.47395" lon="0.8626">
        <ele>153</ele>
        <time>2013-09-01T08:10:41.528Z</time>
      </trkpt>
      <trkpt lat="47.47392" lon="0.86264">
        <ele>153</ele>
        <time>2013-09-01T08:10:42.523Z</time>
      </trkpt>
      <trkpt lat="47.47384" lon="0.86271">
        <ele>154</ele>
        <time>2013-09-01T08:10:44.529Z</time>
      </trkpt>
      <trkpt lat="47.4738" lon="0.86275">
        <ele>153</ele>
        <time>2013-09-01T08:10:45.529Z</time>
      </trkpt>
      <trkpt lat="47.47374" lon="0.86283">
        <ele>154</ele>
        <time>2013-09-01T08:10:47.645Z</time>
      </trkpt>
      <trkpt lat="47.4737" lon="0.86288">
        <ele>154</ele>
        <time>2013-09-01T08:10:48.485Z</time>
      </trkpt>
      <trkpt lat="47.47363" lon="0.86296">
        <ele>155</ele>
        <time>2013-09-01T08:10:50.524Z</time>
      </trkpt>
      <trkpt lat="47.47359" lon="0.86299">
        <ele>155</ele>
        <time>2013-09-01T08:10:51.524Z</time>
      </trkpt>
      <trkpt lat="47.47355" lon="0.86303">
        <ele>155</ele>
        <time>2013-09-01T08:10:52.529Z</time>
      </trkpt>
      <trkpt lat="47.47351" lon="0.86307">
        <ele>155</ele>
        <time>2013-09-01T08:10:53.538Z</time>
      </trkpt>
      <trkpt lat="47.47345" lon="0.86316">
        <ele>155</ele>
        <time>2013-09-01T08:10:55.534Z</time>
      </trkpt>
      <trkpt lat="47.47342" lon="0.86318">
        <ele>155</ele>
        <time>2013-09-01T08:10:56.525Z</time>
      </trkpt>
      <trkpt lat="47.47337" lon="0.86322">
        <ele>155</ele>
        <time>2013-09-01T08:10:57.524Z</time>
      </trkpt>
      <trkpt lat="47.47334" lon="0.86326">
        <ele>155</ele>
        <time>2013-09-01T08:10:58.417Z</time>
      </trkpt>
      <trkpt lat="47.47326" lon="0.86333">
        <ele>155</ele>
        <time>2013-09-01T08:11:00.450Z</time>
      </trkpt>
      <trkpt lat="47.47322" lon="0.86335">
        <ele>155</ele>
        <time>2013-09-01T08:11:01.448Z</time>
      </trkpt>
      <trkpt lat="47.47314" lon="0.86339">
        <ele>155</ele>
        <time>2013-09-01T08:11:03.422Z</time>
      </trkpt>
      <trkpt lat="47.47309" lon="0.86341">
        <ele>155</ele>
        <time>2013-09-01T08:11:04.433Z</time>
      </trkpt>
      <trkpt lat="47.47305" lon="0.86344">
        <ele>154</ele>
        <time>2013-09-01T08:11:05.433Z</time>
      </trkpt>
      <trkpt lat="47.473" lon="0.86346">
        <ele>154</ele>
        <time>2013-09-01T08:11:06.432Z</time>
      </trkpt>
      <trkpt lat="47.47291" lon="0.86348">
        <ele>154</ele>
        <time>2013-09-01T08:11:08.442Z</time>
      </trkpt>
      <trkpt lat="47.47286" lon="0.8635">
        <ele>154</ele>
        <time>2013-09-01T08:11:09.433Z</time>
      </trkpt>
      <trkpt lat="47.47281" lon="0.8635">
        <ele>153</ele>
        <time>2013-09-01T08:11:10.437Z</time>
      </trkpt>
      <trkpt lat="47.47276" lon="0.8635">
        <ele>153</ele>
        <time>2013-09-01T08:11:11.400Z</time>
      </trkpt>
      <trkpt lat="47.47267" lon="0.86348">
        <ele>152</ele>
        <time>2013-09-01T08:11:13.389Z</time>
      </trkpt>
      <trkpt lat="47.47263" lon="0.86348">
        <ele>152</ele>
        <time>2013-09-01T08:11:14.407Z</time>
      </trkpt>
      <trkpt lat="47.47258" lon="0.86348">
        <ele>152</ele>
        <time>2013-09-01T08:11:15.433Z</time>
      </trkpt>
      <trkpt lat="47.47253" lon="0.86346">
        <ele>151</ele>
        <time>2013-09-01T08:11:16.418Z</time>
      </trkpt>
      <trkpt lat="47.47248" lon="0.86346">
        <ele>150</ele>
        <time>2013-09-01T08:11:17.388Z</time>
      </trkpt>
      <trkpt lat="47.47244" lon="0.86344">
        <ele>150</ele>
        <time>2013-09-01T08:11:18.429Z</time>
      </trkpt>
      <trkpt lat="47.47239" lon="0.86341">
        <ele>149</ele>
        <time>2013-09-01T08:11:19.384Z</time>
      </trkpt>
      <trkpt lat="47.47233" lon="0.86341">
        <ele>149</ele>
        <time>2013-09-01T08:11:20.391Z</time>
      </trkpt>
      <trkpt lat="47.47229" lon="0.86339">
        <ele>148</ele>
        <time>2013-09-01T08:11:21.391Z</time>
      </trkpt>
      <trkpt lat="47.47223" lon="0.86339">
        <ele>148</ele>
        <time>2013-09-01T08:11:22.387Z</time>
      </trkpt>
      <trkpt lat="47.47219" lon="0.86339">
        <ele>147</ele>
        <time>2013-09-01T08:11:23.392Z</time>
      </trkpt>
      <trkpt lat="47.47214" lon="0.86339">
        <ele>146</ele>
        <time>2013-09-01T08:11:24.443Z</time>
      </trkpt>
      <trkpt lat="47.47209" lon="0.86338">
        <ele>145</ele>
        <time>2013-09-01T08:11:25.438Z</time>
      </trkpt>
      <trkpt lat="47.47202" lon="0.86335">
        <ele>146</ele>
        <time>2013-09-01T08:11:26.438Z</time>
      </trkpt>
      <trkpt lat="47.47196" lon="0.86333">
        <ele>146</ele>
        <time>2013-09-01T08:11:27.429Z</time>
      </trkpt>
      <trkpt lat="47.4719" lon="0.86331">
        <ele>147</ele>
        <time>2013-09-01T08:11:28.443Z</time>
      </trkpt>
      <trkpt lat="47.47185" lon="0.86329">
        <ele>148</ele>
        <time>2013-09-01T08:11:29.387Z</time>
      </trkpt>
      <trkpt lat="47.47178" lon="0.86326">
        <ele>148</ele>
        <time>2013-09-01T08:11:30.395Z</time>
      </trkpt>
      <trkpt lat="47.47172" lon="0.86324">
        <ele>148</ele>
        <time>2013-09-01T08:11:31.438Z</time>
      </trkpt>
      <trkpt lat="47.47165" lon="0.86324">
        <ele>148</ele>
        <time>2013-09-01T08:11:32.461Z</time>
      </trkpt>
      <trkpt lat="47.47158" lon="0.86322">
        <ele>149</ele>
        <time>2013-09-01T08:11:33.382Z</time>
      </trkpt>
      <trkpt lat="47.47152" lon="0.86322">
        <ele>150</ele>
        <time>2013-09-01T08:11:34.438Z</time>
      </trkpt>
      <trkpt lat="47.47147" lon="0.86322">
        <ele>150</ele>
        <time>2013-09-01T08:11:35.438Z</time>
      </trkpt>
      <trkpt lat="47.47141" lon="0.86322">
        <ele>151</ele>
        <time>2013-09-01T08:11:36.438Z</time>
      </trkpt>
      <trkpt lat="47.47133" lon="0.86322">
        <ele>151</ele>
        <time>2013-09-01T08:11:38.446Z</time>
      </trkpt>
      <trkpt lat="47.4713" lon="0.86322">
        <ele>152</ele>
        <time>2013-09-01T08:11:39.434Z</time>
      </trkpt>
      <trkpt lat="47.47121" lon="0.8632">
        <ele>154</ele>
        <time>2013-09-01T08:11:43.410Z</time>
      </trkpt>
      <trkpt lat="47.47119" lon="0.86322">
        <ele>154</ele>
        <time>2013-09-01T08:11:44.454Z</time>
      </trkpt>
      <trkpt lat="47.47112" lon="0.8632">
        <ele>155</ele>
        <time>2013-09-01T08:11:50.438Z</time>
      </trkpt>
      <trkpt lat="47.47112" lon="0.8632">
        <ele>155</ele>
        <time>2013-09-01T08:11:51.437Z</time>
      </trkpt>
      <trkpt lat="47.47113" lon="0.8632">
        <ele>155</ele>
        <time>2013-09-01T08:11:52.389Z</time>
      </trkpt>
      <trkpt lat="47.4712" lon="0.86322">
        <ele>156</ele>
        <time>2013-09-01T08:11:59.437Z</time>
      </trkpt>
      <trkpt lat="47.47123" lon="0.86324">
        <ele>156</ele>
        <time>2013-09-01T08:12:00.388Z</time>
      </trkpt>
      <trkpt lat="47.47128" lon="0.86333">
        <ele>154</ele>
        <time>2013-09-01T08:12:04.443Z</time>
      </trkpt>
      <trkpt lat="47.47129" lon="0.86335">
        <ele>154</ele>
        <time>2013-09-01T08:12:05.452Z</time>
      </trkpt>
      <trkpt lat="47.47131" lon="0.86335">
        <ele>154</ele>
        <time>2013-09-01T08:12:08.438Z</time>
      </trkpt>
      <trkpt lat="47.47131" lon="0.86335">
        <ele>154</ele>
        <time>2013-09-01T08:12:09.445Z</time>
      </trkpt>
      <trkpt lat="47.47131" lon="0.86335">
        <ele>156</ele>
        <time>2013-09-01T08:12:19.449Z</time>
      </trkpt>
      <trkpt lat="47.47132" lon="0.86335">
        <ele>156</ele>
        <time>2013-09-01T08:12:20.427Z</time>
      </trkpt>
      <trkpt lat="47.47132" lon="0.86335">
        <ele>156</ele>
        <time>2013-09-01T08:12:22.428Z</time>
      </trkpt>
      <trkpt lat="47.47132" lon="0.86335">
        <ele>156</ele>
        <time>2013-09-01T08:12:23.381Z</time>
      </trkpt>
      <trkpt lat="47.47133" lon="0.86333">
        <ele>159</ele>
        <time>2013-09-01T08:12:24.389Z</time>
      </trkpt>
      <trkpt lat="47.47141" lon="0.86334">
        <ele>161</ele>
        <time>2013-09-01T08:12:28.416Z</time>
      </trkpt>
      <trkpt lat="47.47142" lon="0.86337">
        <ele>160</ele>
        <time>2013-09-01T08:12:29.371Z</time>
      </trkpt>
      <trkpt lat="47.47148" lon="0.86342">
        <ele>161</ele>
        <time>2013-09-01T08:12:32.428Z</time>
      </trkpt>
      <trkpt lat="47.47151" lon="0.86342">
        <ele>161</ele>
        <time>2013-09-01T08:12:33.528Z</time>
      </trkpt>
      <trkpt lat="47.47156" lon="0.8635">
        <ele>160</ele>
        <time>2013-09-01T08:12:40.377Z</time>
      </trkpt>
      <trkpt lat="47.47156" lon="0.8635">
        <ele>161</ele>
        <time>2013-09-01T08:12:41.404Z</time>
      </trkpt>
      <trkpt lat="47.47156" lon="0.8635">
        <ele>161</ele>
        <time>2013-09-01T08:12:42.433Z</time>
      </trkpt>
      <trkpt lat="47.47157" lon="0.8635">
        <ele>161</ele>
        <time>2013-09-01T08:12:43.433Z</time>
      </trkpt>
      <trkpt lat="47.47162" lon="0.86357">
        <ele>163</ele>
        <time>2013-09-01T08:12:48.378Z</time>
      </trkpt>
      <trkpt lat="47.47163" lon="0.86358">
        <ele>162</ele>
        <time>2013-09-01T08:12:49.465Z</time>
      </trkpt>
      <trkpt lat="47.47164" lon="0.86359">
        <ele>161</ele>
        <time>2013-09-01T08:12:51.448Z</time>
      </trkpt>
      <trkpt lat="47.47163" lon="0.86359">
        <ele>161</ele>
        <time>2013-09-01T08:12:52.383Z</time>
      </trkpt>
      <trkpt lat="47.47163" lon="0.8636">
        <ele>160</ele>
        <time>2013-09-01T08:12:53.382Z</time>
      </trkpt>
      <trkpt lat="47.47166" lon="0.86372">
        <ele>153</ele>
        <time>2013-09-01T08:12:57.445Z</time>
      </trkpt>
      <trkpt lat="47.47168" lon="0.86374">
        <ele>154</ele>
        <time>2013-09-01T08:12:58.446Z</time>
      </trkpt>
      <trkpt lat="47.47172" lon="0.86384">
        <ele>155</ele>
        <time>2013-09-01T08:13:02.433Z</time>
      </trkpt>
      <trkpt lat="47.47173" lon="0.86387">
        <ele>155</ele>
        <time>2013-09-01T08:13:03.449Z</time>
      </trkpt>
      <trkpt lat="47.47172" lon="0.86398">
        <ele>158</ele>
        <time>2013-09-01T08:13:06.437Z</time>
      </trkpt>
      <trkpt lat="47.47173" lon="0.86401">
        <ele>159</ele>
        <time>2013-09-01T08:13:07.428Z</time>
      </trkpt>
      <trkpt lat="47.47173" lon="0.86409">
        <ele>158</ele>
        <time>2013-09-01T08:13:10.443Z</time>
      </trkpt>
      <trkpt lat="47.47173" lon="0.86408">
        <ele>158</ele>
        <time>2013-09-01T08:13:11.433Z</time>
      </trkpt>
      <trkpt lat="47.47174" lon="0.8641">
        <ele>158</ele>
        <time>2013-09-01T08:13:12.429Z</time>
      </trkpt>
      <trkpt lat="47.4718" lon="0.86419">
        <ele>155</ele>
        <time>2013-09-01T08:13:19.429Z</time>
      </trkpt>
      <trkpt lat="47.4718" lon="0.86419">
        <ele>155</ele>
        <time>2013-09-01T08:13:20.434Z</time>
      </trkpt>
      <trkpt lat="47.4718" lon="0.86419">
        <ele>154</ele>
        <time>2013-09-01T08:13:21.428Z</time>
      </trkpt>
      <trkpt lat="47.47183" lon="0.86431">
        <ele>157</ele>
        <time>2013-09-01T08:13:31.042Z</time>
      </trkpt>
      <trkpt lat="47.47183" lon="0.86434">
        <ele>158</ele>
        <time>2013-09-01T08:13:32.047Z</time>
      </trkpt>
      <trkpt lat="47.47185" lon="0.86444">
        <ele>158</ele>
        <time>2013-09-01T08:13:34.997Z</time>
      </trkpt>
      <trkpt lat="47.47186" lon="0.86447">
        <ele>158</ele>
        <time>2013-09-01T08:13:36.014Z</time>
      </trkpt>
      <trkpt lat="47.47189" lon="0.86457">
        <ele>157</ele>
        <time>2013-09-01T08:13:39.046Z</time>
      </trkpt>
      <trkpt lat="47.4719" lon="0.8646">
        <ele>158</ele>
        <time>2013-09-01T08:13:40.055Z</time>
      </trkpt>
      <trkpt lat="47.47194" lon="0.86468">
        <ele>156</ele>
        <time>2013-09-01T08:13:43.046Z</time>
      </trkpt>
      <trkpt lat="47.47196" lon="0.86472">
        <ele>156</ele>
        <time>2013-09-01T08:13:44.055Z</time>
      </trkpt>
      <trkpt lat="47.47198" lon="0.86483">
        <ele>154</ele>
        <time>2013-09-01T08:13:48.050Z</time>
      </trkpt>
      <trkpt lat="47.47199" lon="0.86485">
        <ele>153</ele>
        <time>2013-09-01T08:13:48.994Z</time>
      </trkpt>
      <trkpt lat="47.47204" lon="0.86494">
        <ele>152</ele>
        <time>2013-09-01T08:13:52.051Z</time>
      </trkpt>
      <trkpt lat="47.47205" lon="0.86496">
        <ele>152</ele>
        <time>2013-09-01T08:13:52.994Z</time>
      </trkpt>
      <trkpt lat="47.47208" lon="0.86504">
        <ele>156</ele>
        <time>2013-09-01T08:13:57.056Z</time>
      </trkpt>
      <trkpt lat="47.4721" lon="0.86508">
        <ele>157</ele>
        <time>2013-09-01T08:13:58.047Z</time>
      </trkpt>
      <trkpt lat="47.47214" lon="0.86518">
        <ele>157</ele>
        <time>2013-09-01T08:14:02.052Z</time>
      </trkpt>
      <trkpt lat="47.47216" lon="0.86521">
        <ele>157</ele>
        <time>2013-09-01T08:14:03.006Z</time>
      </trkpt>
      <trkpt lat="47.4722" lon="0.8653">
        <ele>153</ele>
        <time>2013-09-01T08:14:05.051Z</time>
      </trkpt>
      <trkpt lat="47.47222" lon="0.86533">
        <ele>151</ele>
        <time>2013-09-01T08:14:06.053Z</time>
      </trkpt>
      <trkpt lat="47.47228" lon="0.86541">
        <ele>158</ele>
        <time>2013-09-01T08:14:12.046Z</time>
      </trkpt>
      <trkpt lat="47.4723" lon="0.86543">
        <ele>159</ele>
        <time>2013-09-01T08:14:13.045Z</time>
      </trkpt>
      <trkpt lat="47.47235" lon="0.86552">
        <ele>158</ele>
        <time>2013-09-01T08:14:17.724Z</time>
      </trkpt>
      <trkpt lat="47.47237" lon="0.86554">
        <ele>158</ele>
        <time>2013-09-01T08:14:18.719Z</time>
      </trkpt>
      <trkpt lat="47.47242" lon="0.86564">
        <ele>159</ele>
        <time>2013-09-01T08:14:21.780Z</time>
      </trkpt>
      <trkpt lat="47.47243" lon="0.86569">
        <ele>159</ele>
        <time>2013-09-01T08:14:22.735Z</time>
      </trkpt>
      <trkpt lat="47.47248" lon="0.86577">
        <ele>161</ele>
        <time>2013-09-01T08:14:25.771Z</time>
      </trkpt>
      <trkpt lat="47.47251" lon="0.8658">
        <ele>160</ele>
        <time>2013-09-01T08:14:26.763Z</time>
      </trkpt>
      <trkpt lat="47.47257" lon="0.86586">
        <ele>162</ele>
        <time>2013-09-01T08:14:29.763Z</time>
      </trkpt>
      <trkpt lat="47.47259" lon="0.86588">
        <ele>162</ele>
        <time>2013-09-01T08:14:30.763Z</time>
      </trkpt>
      <trkpt lat="47.47264" lon="0.86595">
        <ele>164</ele>
        <time>2013-09-01T08:14:33.743Z</time>
      </trkpt>
      <trkpt lat="47.47266" lon="0.86598">
        <ele>163</ele>
        <time>2013-09-01T08:14:34.771Z</time>
      </trkpt>
      <trkpt lat="47.47273" lon="0.86602">
        <ele>165</ele>
        <time>2013-09-01T08:14:37.783Z</time>
      </trkpt>
      <trkpt lat="47.47274" lon="0.86605">
        <ele>165</ele>
        <time>2013-09-01T08:14:38.820Z</time>
      </trkpt>
      <trkpt lat="47.47278" lon="0.86616">
        <ele>162</ele>
        <time>2013-09-01T08:14:41.767Z</time>
      </trkpt>
      <trkpt lat="47.47279" lon="0.86617">
        <ele>164</ele>
        <time>2013-09-01T08:14:42.794Z</time>
      </trkpt>
      <trkpt lat="47.47288" lon="0.86618">
        <ele>167</ele>
        <time>2013-09-01T08:14:47.784Z</time>
      </trkpt>
      <trkpt lat="47.4729" lon="0.8662">
        <ele>164</ele>
        <time>2013-09-01T08:14:48.780Z</time>
      </trkpt>
      <trkpt lat="47.47294" lon="0.86629">
        <ele>164</ele>
        <time>2013-09-01T08:14:54.713Z</time>
      </trkpt>
      <trkpt lat="47.47296" lon="0.86631">
        <ele>165</ele>
        <time>2013-09-01T08:14:55.701Z</time>
      </trkpt>
      <trkpt lat="47.47303" lon="0.86637">
        <ele>166</ele>
        <time>2013-09-01T08:14:58.761Z</time>
      </trkpt>
      <trkpt lat="47.47305" lon="0.8664">
        <ele>166</ele>
        <time>2013-09-01T08:14:59.720Z</time>
      </trkpt>
      <trkpt lat="47.47311" lon="0.86646">
        <ele>164</ele>
        <time>2013-09-01T08:15:02.768Z</time>
      </trkpt>
      <trkpt lat="47.47313" lon="0.86648">
        <ele>165</ele>
        <time>2013-09-01T08:15:03.717Z</time>
      </trkpt>
      <trkpt lat="47.47318" lon="0.86657">
        <ele>166</ele>
        <time>2013-09-01T08:15:06.775Z</time>
      </trkpt>
      <trkpt lat="47.4732" lon="0.86659">
        <ele>166</ele>
        <time>2013-09-01T08:15:07.757Z</time>
      </trkpt>
      <trkpt lat="47.47327" lon="0.86664">
        <ele>163</ele>
        <time>2013-09-01T08:15:10.766Z</time>
      </trkpt>
      <trkpt lat="47.47329" lon="0.86665">
        <ele>162</ele>
        <time>2013-09-01T08:15:11.757Z</time>
      </trkpt>
      <trkpt lat="47.47335" lon="0.86674">
        <ele>163</ele>
        <time>2013-09-01T08:15:15.775Z</time>
      </trkpt>
      <trkpt lat="47.47336" lon="0.86676">
        <ele>165</ele>
        <time>2013-09-01T08:15:16.775Z</time>
      </trkpt>
      <trkpt lat="47.47341" lon="0.86683">
        <ele>166</ele>
        <time>2013-09-01T08:15:19.775Z</time>
      </trkpt>
      <trkpt lat="47.47343" lon="0.86685">
        <ele>165</ele>
        <time>2013-09-01T08:15:20.767Z</time>
      </trkpt>
      <trkpt lat="47.4735" lon="0.86691">
        <ele>166</ele>
        <time>2013-09-01T08:15:23.839Z</time>
      </trkpt>
      <trkpt lat="47.47352" lon="0.86693">
        <ele>165</ele>
        <time>2013-09-01T08:15:24.736Z</time>
      </trkpt>
      <trkpt lat="47.47359" lon="0.86701">
        <ele>164</ele>
        <time>2013-09-01T08:15:27.799Z</time>
      </trkpt>
      <trkpt lat="47.47361" lon="0.86706">
        <ele>162</ele>
        <time>2013-09-01T08:15:28.719Z</time>
      </trkpt>
      <trkpt lat="47.47368" lon="0.86711">
        <ele>162</ele>
        <time>2013-09-01T08:15:31.780Z</time>
      </trkpt>
      <trkpt lat="47.47371" lon="0.86713">
        <ele>162</ele>
        <time>2013-09-01T08:15:32.780Z</time>
      </trkpt>
      <trkpt lat="47.47376" lon="0.86721">
        <ele>160</ele>
        <time>2013-09-01T08:15:35.736Z</time>
      </trkpt>
      <trkpt lat="47.47377" lon="0.86724">
        <ele>160</ele>
        <time>2013-09-01T08:15:36.780Z</time>
      </trkpt>
      <trkpt lat="47.47385" lon="0.86723">
        <ele>162</ele>
        <time>2013-09-01T08:15:40.716Z</time>
      </trkpt>
      <trkpt lat="47.47388" lon="0.86725">
        <ele>164</ele>
        <time>2013-09-01T08:15:41.746Z</time>
      </trkpt>
      <trkpt lat="47.47393" lon="0.86734">
        <ele>165</ele>
        <time>2013-09-01T08:15:48.781Z</time>
      </trkpt>
      <trkpt lat="47.47393" lon="0.86738">
        <ele>166</ele>
        <time>2013-09-01T08:15:49.780Z</time>
      </trkpt>
      <trkpt lat="47.47395" lon="0.8675">
        <ele>164</ele>
        <time>2013-09-01T08:15:57.779Z</time>
      </trkpt>
      <trkpt lat="47.47395" lon="0.86752">
        <ele>164</ele>
        <time>2013-09-01T08:15:58.781Z</time>
      </trkpt>
      <trkpt lat="47.47395" lon="0.86752">
        <ele>164</ele>
        <time>2013-09-01T08:16:00.720Z</time>
      </trkpt>
      <trkpt lat="47.47395" lon="0.86752">
        <ele>164</ele>
        <time>2013-09-01T08:16:01.720Z</time>
      </trkpt>
      <trkpt lat="47.47395" lon="0.86751">
        <ele>164</ele>
        <time>2013-09-01T08:16:02.719Z</time>
      </trkpt>
      <trkpt lat="47.47396" lon="0.86751">
        <ele>164</ele>
        <time>2013-09-01T08:16:03.718Z</time>
      </trkpt>
      <trkpt lat="47.47402" lon="0.8676">
        <ele>166</ele>
        <time>2013-09-01T08:16:10.782Z</time>
      </trkpt>
      <trkpt lat="47.47405" lon="0.86763">
        <ele>165</ele>
        <time>2013-09-01T08:16:11.860Z</time>
      </trkpt>
      <trkpt lat="47.4741" lon="0.86772">
        <ele>165</ele>
        <time>2013-09-01T08:16:14.781Z</time>
      </trkpt>
      <trkpt lat="47.47411" lon="0.86773">
        <ele>165</ele>
        <time>2013-09-01T08:16:15.781Z</time>
      </trkpt>
      <trkpt lat="47.47417" lon="0.86781">
        <ele>162</ele>
        <time>2013-09-01T08:16:20.780Z</time>
      </trkpt>
      <trkpt lat="47.47419" lon="0.86785">
        <ele>162</ele>
        <time>2013-09-01T08:16:21.781Z</time>
      </trkpt>
      <trkpt lat="47.47424" lon="0.8679">
        <ele>162</ele>
        <time>2013-09-01T08:16:23.757Z</time>
      </trkpt>
      <trkpt lat="47.47427" lon="0.86792">
        <ele>160</ele>
        <time>2013-09-01T08:16:24.223Z</time>
      </trkpt>
      <trkpt lat="47.4743" lon="0.86796">
        <ele>160</ele>
        <time>2013-09-01T08:16:25.048Z</time>
      </trkpt>
      <trkpt lat="47.47434" lon="0.86801">
        <ele>159</ele>
        <time>2013-09-01T08:16:26.055Z</time>
      </trkpt>
      <trkpt lat="47.47438" lon="0.86812">
        <ele>158</ele>
        <time>2013-09-01T08:16:29.065Z</time>
      </trkpt>
      <trkpt lat="47.47439" lon="0.86814">
        <ele>157</ele>
        <time>2013-09-01T08:16:30.061Z</time>
      </trkpt>
      <trkpt lat="47.47445" lon="0.86817">
        <ele>152</ele>
        <time>2013-09-01T08:16:35.060Z</time>
      </trkpt>
      <trkpt lat="47.47447" lon="0.86821">
        <ele>151</ele>
        <time>2013-09-01T08:16:36.054Z</time>
      </trkpt>
      <trkpt lat="47.47448" lon="0.86827">
        <ele>149</ele>
        <time>2013-09-01T08:16:40.111Z</time>
      </trkpt>
      <trkpt lat="47.47448" lon="0.86827">
        <ele>149</ele>
        <time>2013-09-01T08:16:41.096Z</time>
      </trkpt>
      <trkpt lat="47.47448" lon="0.86826">
        <ele>150</ele>
        <time>2013-09-01T08:16:43.122Z</time>
      </trkpt>
      <trkpt lat="47.47448" lon="0.86826">
        <ele>149</ele>
        <time>2013-09-01T08:16:44.060Z</time>
      </trkpt>
      <trkpt lat="47.47454" lon="0.86833">
        <ele>151</ele>
        <time>2013-09-01T08:16:48.211Z</time>
      </trkpt>
      <trkpt lat="47.47455" lon="0.86836">
        <ele>152</ele>
        <time>2013-09-01T08:16:49.114Z</time>
      </trkpt>
      <trkpt lat="47.47457" lon="0.86848">
        <ele>151</ele>
        <time>2013-09-01T08:16:53.111Z</time>
      </trkpt>
      <trkpt lat="47.47457" lon="0.86852">
        <ele>151</ele>
        <time>2013-09-01T08:16:54.114Z</time>
      </trkpt>
      <trkpt lat="47.47459" lon="0.86861">
        <ele>153</ele>
        <time>2013-09-01T08:16:57.110Z</time>
      </trkpt>
      <trkpt lat="47.4746" lon="0.86865">
        <ele>154</ele>
        <time>2013-09-01T08:16:58.096Z</time>
      </trkpt>
      <trkpt lat="47.4746" lon="0.86866">
        <ele>154</ele>
        <time>2013-09-01T08:17:01.053Z</time>
      </trkpt>
      <trkpt lat="47.47459" lon="0.86865">
        <ele>154</ele>
        <time>2013-09-01T08:17:02.063Z</time>
      </trkpt>
      <trkpt lat="47.47459" lon="0.86865">
        <ele>154</ele>
        <time>2013-09-01T08:17:21.059Z</time>
      </trkpt>
      <trkpt lat="47.4746" lon="0.86865">
        <ele>154</ele>
        <time>2013-09-01T08:17:22.073Z</time>
      </trkpt>
      <trkpt lat="47.47457" lon="0.86875">
        <ele>159</ele>
        <time>2013-09-01T08:17:25.133Z</time>
      </trkpt>
      <trkpt lat="47.47456" lon="0.86879">
        <ele>160</ele>
        <time>2013-09-01T08:17:26.110Z</time>
      </trkpt>
      <trkpt lat="47.4745" lon="0.86889">
        <ele>161</ele>
        <time>2013-09-01T08:17:30.108Z</time>
      </trkpt>
      <trkpt lat="47.47449" lon="0.86891">
        <ele>161</ele>
        <time>2013-09-01T08:17:31.114Z</time>
      </trkpt>
      <trkpt lat="47.47449" lon="0.86901">
        <ele>168</ele>
        <time>2013-09-01T08:17:38.184Z</time>
      </trkpt>
      <trkpt lat="47.4745" lon="0.86905">
        <ele>168</ele>
        <time>2013-09-01T08:17:39.066Z</time>
      </trkpt>
      <trkpt lat="47.47454" lon="0.86914">
        <ele>173</ele>
        <time>2013-09-01T08:17:42.077Z</time>
      </trkpt>
      <trkpt lat="47.47456" lon="0.86918">
        <ele>174</ele>
        <time>2013-09-01T08:17:43.084Z</time>
      </trkpt>
      <trkpt lat="47.47461" lon="0.86928">
        <ele>174</ele>
        <time>2013-09-01T08:17:46.110Z</time>
      </trkpt>
      <trkpt lat="47.47463" lon="0.8693">
        <ele>174</ele>
        <time>2013-09-01T08:17:47.117Z</time>
      </trkpt>
      <trkpt lat="47.47467" lon="0.86939">
        <ele>172</ele>
        <time>2013-09-01T08:17:49.108Z</time>
      </trkpt>
      <trkpt lat="47.47466" lon="0.86944">
        <ele>172</ele>
        <time>2013-09-01T08:17:50.117Z</time>
      </trkpt>
      <trkpt lat="47.47466" lon="0.86955">
        <ele>169</ele>
        <time>2013-09-01T08:17:53.117Z</time>
      </trkpt>
      <trkpt lat="47.47467" lon="0.86958">
        <ele>171</ele>
        <time>2013-09-01T08:17:54.064Z</time>
      </trkpt>
      <trkpt lat="47.47469" lon="0.8697">
        <ele>174</ele>
        <time>2013-09-01T08:17:58.116Z</time>
      </trkpt>
      <trkpt lat="47.47466" lon="0.86979">
        <ele>173</ele>
        <time>2013-09-01T08:17:59.091Z</time>
      </trkpt>
      <trkpt lat="47.47465" lon="0.86985">
        <ele>169</ele>
        <time>2013-09-01T08:18:00.094Z</time>
      </trkpt>
      <trkpt lat="47.47464" lon="0.86992">
        <ele>168</ele>
        <time>2013-09-01T08:18:01.058Z</time>
      </trkpt>
      <trkpt lat="47.4746" lon="0.87002">
        <ele>164</ele>
        <time>2013-09-01T08:18:03.118Z</time>
      </trkpt>
      <trkpt lat="47.47458" lon="0.87006">
        <ele>164</ele>
        <time>2013-09-01T08:18:04.067Z</time>
      </trkpt>
      <trkpt lat="47.47459" lon="0.87017">
        <ele>171</ele>
        <time>2013-09-01T08:18:09.159Z</time>
      </trkpt>
      <trkpt lat="47.4746" lon="0.87021">
        <ele>173</ele>
        <time>2013-09-01T08:18:10.114Z</time>
      </trkpt>
      <trkpt lat="47.47457" lon="0.8703">
        <ele>178</ele>
        <time>2013-09-01T08:18:13.128Z</time>
      </trkpt>
      <trkpt lat="47.47454" lon="0.87034">
        <ele>180</ele>
        <time>2013-09-01T08:18:14.112Z</time>
      </trkpt>
      <trkpt lat="47.47449" lon="0.87041">
        <ele>180</ele>
        <time>2013-09-01T08:18:16.073Z</time>
      </trkpt>
      <trkpt lat="47.47447" lon="0.87045">
        <ele>180</ele>
        <time>2013-09-01T08:18:17.062Z</time>
      </trkpt>
      <trkpt lat="47.47444" lon="0.87053">
        <ele>181</ele>
        <time>2013-09-01T08:18:20.110Z</time>
      </trkpt>
      <trkpt lat="47.47443" lon="0.87057">
        <ele>183</ele>
        <time>2013-09-01T08:18:21.112Z</time>
      </trkpt>
      <trkpt lat="47.47437" lon="0.87066">
        <ele>186</ele>
        <time>2013-09-01T08:18:23.213Z</time>
      </trkpt>
      <trkpt lat="47.47434" lon="0.87071">
        <ele>187</ele>
        <time>2013-09-01T08:18:24.099Z</time>
      </trkpt>
      <trkpt lat="47.47433" lon="0.87082">
        <ele>179</ele>
        <time>2013-09-01T08:18:28.066Z</time>
      </trkpt>
      <trkpt lat="47.47434" lon="0.87086">
        <ele>179</ele>
        <time>2013-09-01T08:18:29.113Z</time>
      </trkpt>
      <trkpt lat="47.47436" lon="0.87097">
        <ele>182</ele>
        <time>2013-09-01T08:18:32.121Z</time>
      </trkpt>
      <trkpt lat="47.47436" lon="0.87101">
        <ele>182</ele>
        <time>2013-09-01T08:18:33.088Z</time>
      </trkpt>
      <trkpt lat="47.47437" lon="0.87112">
        <ele>178</ele>
        <time>2013-09-01T08:18:36.136Z</time>
      </trkpt>
      <trkpt lat="47.47437" lon="0.87116">
        <ele>175</ele>
        <time>2013-09-01T08:18:37.169Z</time>
      </trkpt>
      <trkpt lat="47.47436" lon="0.87124">
        <ele>172</ele>
        <time>2013-09-01T08:18:39.124Z</time>
      </trkpt>
      <trkpt lat="47.47434" lon="0.87129">
        <ele>170</ele>
        <time>2013-09-01T08:18:40.143Z</time>
      </trkpt>
      <trkpt lat="47.47432" lon="0.8714">
        <ele>170</ele>
        <time>2013-09-01T08:18:44.119Z</time>
      </trkpt>
      <trkpt lat="47.47431" lon="0.87144">
        <ele>172</ele>
        <time>2013-09-01T08:18:45.114Z</time>
      </trkpt>
      <trkpt lat="47.47429" lon="0.87154">
        <ele>176</ele>
        <time>2013-09-01T08:18:47.061Z</time>
      </trkpt>
      <trkpt lat="47.47429" lon="0.87159">
        <ele>176</ele>
        <time>2013-09-01T08:18:48.063Z</time>
      </trkpt>
      <trkpt lat="47.47429" lon="0.87172">
        <ele>172</ele>
        <time>2013-09-01T08:18:51.114Z</time>
      </trkpt>
      <trkpt lat="47.47429" lon="0.87176">
        <ele>172</ele>
        <time>2013-09-01T08:18:52.060Z</time>
      </trkpt>
      <trkpt lat="47.47428" lon="0.87187">
        <ele>167</ele>
        <time>2013-09-01T08:18:54.125Z</time>
      </trkpt>
      <trkpt lat="47.47427" lon="0.87193">
        <ele>166</ele>
        <time>2013-09-01T08:18:55.113Z</time>
      </trkpt>
      <trkpt lat="47.47425" lon="0.87199">
        <ele>161</ele>
        <time>2013-09-01T08:18:56.069Z</time>
      </trkpt>
      <trkpt lat="47.47421" lon="0.87204">
        <ele>161</ele>
        <time>2013-09-01T08:18:57.067Z</time>
      </trkpt>
      <trkpt lat="47.47416" lon="0.87208">
        <ele>160</ele>
        <time>2013-09-01T08:18:58.122Z</time>
      </trkpt>
      <trkpt lat="47.47412" lon="0.8721">
        <ele>159</ele>
        <time>2013-09-01T08:18:59.111Z</time>
      </trkpt>
      <trkpt lat="47.47406" lon="0.87212">
        <ele>159</ele>
        <time>2013-09-01T08:19:01.069Z</time>
      </trkpt>
      <trkpt lat="47.47404" lon="0.87215">
        <ele>158</ele>
        <time>2013-09-01T08:19:02.060Z</time>
      </trkpt>
      <trkpt lat="47.474" lon="0.87225">
        <ele>153</ele>
        <time>2013-09-01T08:19:07.073Z</time>
      </trkpt>
      <trkpt lat="47.474" lon="0.87228">
        <ele>155</ele>
        <time>2013-09-01T08:19:08.270Z</time>
      </trkpt>
      <trkpt lat="47.47399" lon="0.8724">
        <ele>158</ele>
        <time>2013-09-01T08:19:12.066Z</time>
      </trkpt>
      <trkpt lat="47.47399" lon="0.87243">
        <ele>158</ele>
        <time>2013-09-01T08:19:13.079Z</time>
      </trkpt>
      <trkpt lat="47.47395" lon="0.87254">
        <ele>158</ele>
        <time>2013-09-01T08:19:16.113Z</time>
      </trkpt>
      <trkpt lat="47.47394" lon="0.87257">
        <ele>159</ele>
        <time>2013-09-01T08:19:17.107Z</time>
      </trkpt>
      <trkpt lat="47.47392" lon="0.8727">
        <ele>158</ele>
        <time>2013-09-01T08:19:20.111Z</time>
      </trkpt>
      <trkpt lat="47.47391" lon="0.87275">
        <ele>158</ele>
        <time>2013-09-01T08:19:21.106Z</time>
      </trkpt>
      <trkpt lat="47.47389" lon="0.87285">
        <ele>161</ele>
        <time>2013-09-01T08:19:25.158Z</time>
      </trkpt>
      <trkpt lat="47.47388" lon="0.87288">
        <ele>160</ele>
        <time>2013-09-01T08:19:26.180Z</time>
      </trkpt>
      <trkpt lat="47.47383" lon="0.87296">
        <ele>157</ele>
        <time>2013-09-01T08:19:28.059Z</time>
      </trkpt>
      <trkpt lat="47.47382" lon="0.873">
        <ele>154</ele>
        <time>2013-09-01T08:19:29.062Z</time>
      </trkpt>
      <trkpt lat="47.47382" lon="0.87312">
        <ele>151</ele>
        <time>2013-09-01T08:19:32.057Z</time>
      </trkpt>
      <trkpt lat="47.47382" lon="0.87314">
        <ele>151</ele>
        <time>2013-09-01T08:19:33.062Z</time>
      </trkpt>
      <trkpt lat="47.47385" lon="0.87316">
        <ele>154</ele>
        <time>2013-09-01T08:19:38.110Z</time>
      </trkpt>
      <trkpt lat="47.47384" lon="0.87316">
        <ele>154</ele>
        <time>2013-09-01T08:19:39.123Z</time>
      </trkpt>
      <trkpt lat="47.47384" lon="0.87316">
        <ele>153</ele>
        <time>2013-09-01T08:19:49.094Z</time>
      </trkpt>
      <trkpt lat="47.47385" lon="0.87317">
        <ele>154</ele>
        <time>2013-09-01T08:19:50.123Z</time>
      </trkpt>
      <trkpt lat="47.47386" lon="0.87318">
        <ele>154</ele>
        <time>2013-09-01T08:19:53.096Z</time>
      </trkpt>
      <trkpt lat="47.47386" lon="0.87318">
        <ele>154</ele>
        <time>2013-09-01T08:19:54.119Z</time>
      </trkpt>
      <trkpt lat="47.47385" lon="0.87318">
        <ele>154</ele>
        <time>2013-09-01T08:20:17.129Z</time>
      </trkpt>
      <trkpt lat="47.47385" lon="0.87316">
        <ele>154</ele>
        <time>2013-09-01T08:20:18.064Z</time>
      </trkpt>
      <trkpt lat="47.47385" lon="0.87316">
        <ele>154</ele>
        <time>2013-09-01T08:20:19.054Z</time>
      </trkpt>
      <trkpt lat="47.47385" lon="0.87317">
        <ele>154</ele>
        <time>2013-09-01T08:20:20.049Z</time>
      </trkpt>
      <trkpt lat="47.47385" lon="0.87317">
        <ele>154</ele>
        <time>2013-09-01T08:20:21.075Z</time>
      </trkpt>
      <trkpt lat="47.47385" lon="0.87318">
        <ele>154</ele>
        <time>2013-09-01T08:20:22.110Z</time>
      </trkpt>
      <trkpt lat="47.47385" lon="0.87318">
        <ele>154</ele>
        <time>2013-09-01T08:20:23.058Z</time>
      </trkpt>
      <trkpt lat="47.47385" lon="0.87318">
        <ele>154</ele>
        <time>2013-09-01T08:20:53.115Z</time>
      </trkpt>
      <trkpt lat="47.47385" lon="0.87316">
        <ele>154</ele>
        <time>2013-09-01T08:20:54.076Z</time>
      </trkpt>
      <trkpt lat="47.47385" lon="0.87315">
        <ele>155</ele>
        <time>2013-09-01T08:20:56.128Z</time>
      </trkpt>
      <trkpt lat="47.47385" lon="0.87315">
        <ele>155</ele>
        <time>2013-09-01T08:20:57.211Z</time>
      </trkpt>
      <trkpt lat="47.47386" lon="0.87315">
        <ele>155</ele>
        <time>2013-09-01T08:20:58.064Z</time>
      </trkpt>
      <trkpt lat="47.47385" lon="0.87328">
        <ele>168</ele>
        <time>2013-09-01T08:21:06.123Z</time>
      </trkpt>
      <trkpt lat="47.47385" lon="0.87333">
        <ele>170</ele>
        <time>2013-09-01T08:21:07.117Z</time>
      </trkpt>
      <trkpt lat="47.47384" lon="0.8734">
        <ele>170</ele>
        <time>2013-09-01T08:21:08.068Z</time>
      </trkpt>
      <trkpt lat="47.4738" lon="0.87346">
        <ele>170</ele>
        <time>2013-09-01T08:21:09.090Z</time>
      </trkpt>
      <trkpt lat="47.47375" lon="0.87355">
        <ele>169</ele>
        <time>2013-09-01T08:21:11.188Z</time>
      </trkpt>
      <trkpt lat="47.47374" lon="0.87359">
        <ele>170</ele>
        <time>2013-09-01T08:21:12.071Z</time>
      </trkpt>
      <trkpt lat="47.47372" lon="0.87369">
        <ele>168</ele>
        <time>2013-09-01T08:21:14.095Z</time>
      </trkpt>
      <trkpt lat="47.47372" lon="0.87374">
        <ele>169</ele>
        <time>2013-09-01T08:21:15.178Z</time>
      </trkpt>
      <trkpt lat="47.47372" lon="0.87385">
        <ele>164</ele>
        <time>2013-09-01T08:21:18.192Z</time>
      </trkpt>
      <trkpt lat="47.47373" lon="0.87387">
        <ele>164</ele>
        <time>2013-09-01T08:21:19.122Z</time>
      </trkpt>
      <trkpt lat="47.47373" lon="0.87399">
        <ele>167</ele>
        <time>2013-09-01T08:21:23.066Z</time>
      </trkpt>
      <trkpt lat="47.47374" lon="0.87402">
        <ele>166</ele>
        <time>2013-09-01T08:21:24.113Z</time>
      </trkpt>
      <trkpt lat="47.47375" lon="0.87407">
        <ele>166</ele>
        <time>2013-09-01T08:21:25.070Z</time>
      </trkpt>
      <trkpt lat="47.47376" lon="0.87414">
        <ele>168</ele>
        <time>2013-09-01T08:21:26.060Z</time>
      </trkpt>
      <trkpt lat="47.47376" lon="0.87422">
        <ele>167</ele>
        <time>2013-09-01T08:21:27.058Z</time>
      </trkpt>
      <trkpt lat="47.47376" lon="0.8743">
        <ele>161</ele>
        <time>2013-09-01T08:21:28.064Z</time>
      </trkpt>
      <trkpt lat="47.47376" lon="0.87442">
        <ele>158</ele>
        <time>2013-09-01T08:21:30.098Z</time>
      </trkpt>
      <trkpt lat="47.47376" lon="0.87445">
        <ele>157</ele>
        <time>2013-09-01T08:21:31.110Z</time>
      </trkpt>
      <trkpt lat="47.47377" lon="0.87455">
        <ele>154</ele>
        <time>2013-09-01T08:21:34.068Z</time>
      </trkpt>
      <trkpt lat="47.47375" lon="0.87459">
        <ele>153</ele>
        <time>2013-09-01T08:21:35.077Z</time>
      </trkpt>
      <trkpt lat="47.47377" lon="0.87468">
        <ele>157</ele>
        <time>2013-09-01T08:21:38.064Z</time>
      </trkpt>
      <trkpt lat="47.47379" lon="0.87472">
        <ele>157</ele>
        <time>2013-09-01T08:21:39.120Z</time>
      </trkpt>
      <trkpt lat="47.47384" lon="0.87483">
        <ele>157</ele>
        <time>2013-09-01T08:21:43.180Z</time>
      </trkpt>
      <trkpt lat="47.47385" lon="0.87487">
        <ele>158</ele>
        <time>2013-09-01T08:21:44.075Z</time>
      </trkpt>
      <trkpt lat="47.47388" lon="0.87498">
        <ele>165</ele>
        <time>2013-09-01T08:21:48.120Z</time>
      </trkpt>
      <trkpt lat="47.4739" lon="0.875">
        <ele>166</ele>
        <time>2013-09-01T08:21:49.066Z</time>
      </trkpt>
      <trkpt lat="47.47393" lon="0.87507">
        <ele>169</ele>
        <time>2013-09-01T08:21:51.089Z</time>
      </trkpt>
      <trkpt lat="47.47396" lon="0.8751">
        <ele>171</ele>
        <time>2013-09-01T08:21:52.079Z</time>
      </trkpt>
      <trkpt lat="47.474" lon="0.87521">
        <ele>180</ele>
        <time>2013-09-01T08:21:55.055Z</time>
      </trkpt>
      <trkpt lat="47.47401" lon="0.87526">
        <ele>181</ele>
        <time>2013-09-01T08:21:56.063Z</time>
      </trkpt>
      <trkpt lat="47.47405" lon="0.87532">
        <ele>181</ele>
        <time>2013-09-01T08:21:58.073Z</time>
      </trkpt>
      <trkpt lat="47.47409" lon="0.87536">
        <ele>177</ele>
        <time>2013-09-01T08:21:59.126Z</time>
      </trkpt>
      <trkpt lat="47.47415" lon="0.87545">
        <ele>172</ele>
        <time>2013-09-01T08:22:01.069Z</time>
      </trkpt>
      <trkpt lat="47.47417" lon="0.87549">
        <ele>169</ele>
        <time>2013-09-01T08:22:02.116Z</time>
      </trkpt>
      <trkpt lat="47.47421" lon="0.87559">
        <ele>165</ele>
        <time>2013-09-01T08:22:04.107Z</time>
      </trkpt>
      <trkpt lat="47.47422" lon="0.87566">
        <ele>162</ele>
        <time>2013-09-01T08:22:05.119Z</time>
      </trkpt>
      <trkpt lat="47.47426" lon="0.87577">
        <ele>157</ele>
        <time>2013-09-01T08:22:07.126Z</time>
      </trkpt>
      <trkpt lat="47.47428" lon="0.87583">
        <ele>155</ele>
        <time>2013-09-01T08:22:08.119Z</time>
      </trkpt>
      <trkpt lat="47.47431" lon="0.87593">
        <ele>154</ele>
        <time>2013-09-01T08:22:10.070Z</time>
      </trkpt>
      <trkpt lat="47.47434" lon="0.87595">
        <ele>154</ele>
        <time>2013-09-01T08:22:11.082Z</time>
      </trkpt>
      <trkpt lat="47.47442" lon="0.87599">
        <ele>151</ele>
        <time>2013-09-01T08:22:14.122Z</time>
      </trkpt>
      <trkpt lat="47.47445" lon="0.87601">
        <ele>150</ele>
        <time>2013-09-01T08:22:15.170Z</time>
      </trkpt>
      <trkpt lat="47.47452" lon="0.87603">
        <ele>150</ele>
        <time>2013-09-01T08:22:17.119Z</time>
      </trkpt>
      <trkpt lat="47.47454" lon="0.87607">
        <ele>151</ele>
        <time>2013-09-01T08:22:18.096Z</time>
      </trkpt>
      <trkpt lat="47.47458" lon="0.87613">
        <ele>152</ele>
        <time>2013-09-01T08:22:20.129Z</time>
      </trkpt>
      <trkpt lat="47.4746" lon="0.87618">
        <ele>153</ele>
        <time>2013-09-01T08:22:21.120Z</time>
      </trkpt>
      <trkpt lat="47.47461" lon="0.87627">
        <ele>155</ele>
        <time>2013-09-01T08:22:23.095Z</time>
      </trkpt>
      <trkpt lat="47.47461" lon="0.87631">
        <ele>154</ele>
        <time>2013-09-01T08:22:24.127Z</time>
      </trkpt>
      <trkpt lat="47.47466" lon="0.87642">
        <ele>158</ele>
        <time>2013-09-01T08:22:29.070Z</time>
      </trkpt>
      <trkpt lat="47.47468" lon="0.87644">
        <ele>156</ele>
        <time>2013-09-01T08:22:30.063Z</time>
      </trkpt>
      <trkpt lat="47.47473" lon="0.87653">
        <ele>161</ele>
        <time>2013-09-01T08:22:33.078Z</time>
      </trkpt>
      <trkpt lat="47.47475" lon="0.87655">
        <ele>163</ele>
        <time>2013-09-01T08:22:34.077Z</time>
      </trkpt>
      <trkpt lat="47.47482" lon="0.87661">
        <ele>163</ele>
        <time>2013-09-01T08:22:36.127Z</time>
      </trkpt>
      <trkpt lat="47.47483" lon="0.87665">
        <ele>163</ele>
        <time>2013-09-01T08:22:37.122Z</time>
      </trkpt>
      <trkpt lat="47.47486" lon="0.87671">
        <ele>164</ele>
        <time>2013-09-01T08:22:39.126Z</time>
      </trkpt>
      <trkpt lat="47.47489" lon="0.87677">
        <ele>163</ele>
        <time>2013-09-01T08:22:40.121Z</time>
      </trkpt>
      <trkpt lat="47.47492" lon="0.87685">
        <ele>162</ele>
        <time>2013-09-01T08:22:41.123Z</time>
      </trkpt>
      <trkpt lat="47.47495" lon="0.87692">
        <ele>161</ele>
        <time>2013-09-01T08:22:42.085Z</time>
      </trkpt>
      <trkpt lat="47.47498" lon="0.877">
        <ele>159</ele>
        <time>2013-09-01T08:22:43.072Z</time>
      </trkpt>
      <trkpt lat="47.475" lon="0.87705">
        <ele>158</ele>
        <time>2013-09-01T08:22:44.125Z</time>
      </trkpt>
      <trkpt lat="47.47503" lon="0.87715">
        <ele>158</ele>
        <time>2013-09-01T08:22:47.124Z</time>
      </trkpt>
      <trkpt lat="47.47504" lon="0.87719">
        <ele>158</ele>
        <time>2013-09-01T08:22:48.139Z</time>
      </trkpt>
      <trkpt lat="47.47503" lon="0.87732">
        <ele>160</ele>
        <time>2013-09-01T08:22:51.068Z</time>
      </trkpt>
      <trkpt lat="47.47502" lon="0.87736">
        <ele>161</ele>
        <time>2013-09-01T08:22:52.072Z</time>
      </trkpt>
      <trkpt lat="47.475" lon="0.87747">
        <ele>162</ele>
        <time>2013-09-01T08:22:56.072Z</time>
      </trkpt>
      <trkpt lat="47.475" lon="0.87752">
        <ele>161</ele>
        <time>2013-09-01T08:22:57.080Z</time>
      </trkpt>
      <trkpt lat="47.47498" lon="0.87764">
        <ele>159</ele>
        <time>2013-09-01T08:22:59.129Z</time>
      </trkpt>
      <trkpt lat="47.47497" lon="0.8777">
        <ele>158</ele>
        <time>2013-09-01T08:23:00.148Z</time>
      </trkpt>
      <trkpt lat="47.47494" lon="0.87782">
        <ele>154</ele>
        <time>2013-09-01T08:23:02.069Z</time>
      </trkpt>
      <trkpt lat="47.47493" lon="0.87788">
        <ele>151</ele>
        <time>2013-09-01T08:23:03.131Z</time>
      </trkpt>
      <trkpt lat="47.47491" lon="0.87798">
        <ele>151</ele>
        <time>2013-09-01T08:23:05.089Z</time>
      </trkpt>
      <trkpt lat="47.4749" lon="0.87803">
        <ele>152</ele>
        <time>2013-09-01T08:23:06.076Z</time>
      </trkpt>
      <trkpt lat="47.47488" lon="0.87812">
        <ele>150</ele>
        <time>2013-09-01T08:23:08.126Z</time>
      </trkpt>
      <trkpt lat="47.47487" lon="0.87816">
        <ele>151</ele>
        <time>2013-09-01T08:23:09.123Z</time>
      </trkpt>
      <trkpt lat="47.47488" lon="0.87829">
        <ele>147</ele>
        <time>2013-09-01T08:23:13.134Z</time>
      </trkpt>
      <trkpt lat="47.47487" lon="0.87832">
        <ele>145</ele>
        <time>2013-09-01T08:23:14.122Z</time>
      </trkpt>
      <trkpt lat="47.47487" lon="0.87841">
        <ele>142</ele>
        <time>2013-09-01T08:23:16.123Z</time>
      </trkpt>
      <trkpt lat="47.47486" lon="0.87845">
        <ele>143</ele>
        <time>2013-09-01T08:23:17.129Z</time>
      </trkpt>
      <trkpt lat="47.47482" lon="0.87856">
        <ele>144</ele>
        <time>2013-09-01T08:23:20.082Z</time>
      </trkpt>
      <trkpt lat="47.4748" lon="0.8786">
        <ele>144</ele>
        <time>2013-09-01T08:23:21.130Z</time>
      </trkpt>
      <trkpt lat="47.47481" lon="0.87874">
        <ele>143</ele>
        <time>2013-09-01T08:23:24.137Z</time>
      </trkpt>
      <trkpt lat="47.47482" lon="0.87876">
        <ele>143</ele>
        <time>2013-09-01T08:23:25.126Z</time>
      </trkpt>
      <trkpt lat="47.47479" lon="0.87888">
        <ele>143</ele>
        <time>2013-09-01T08:23:28.092Z</time>
      </trkpt>
      <trkpt lat="47.47479" lon="0.87891">
        <ele>142</ele>
        <time>2013-09-01T08:23:29.075Z</time>
      </trkpt>
      <trkpt lat="47.47478" lon="0.87902">
        <ele>142</ele>
        <time>2013-09-01T08:23:32.095Z</time>
      </trkpt>
      <trkpt lat="47.47478" lon="0.87905">
        <ele>142</ele>
        <time>2013-09-01T08:23:33.087Z</time>
      </trkpt>
      <trkpt lat="47.4748" lon="0.87918">
        <ele>139</ele>
        <time>2013-09-01T08:23:36.124Z</time>
      </trkpt>
      <trkpt lat="47.47477" lon="0.87924">
        <ele>139</ele>
        <time>2013-09-01T08:23:37.094Z</time>
      </trkpt>
      <trkpt lat="47.47472" lon="0.87932">
        <ele>138</ele>
        <time>2013-09-01T08:23:39.138Z</time>
      </trkpt>
      <trkpt lat="47.47471" lon="0.87936">
        <ele>139</ele>
        <time>2013-09-01T08:23:40.123Z</time>
      </trkpt>
      <trkpt lat="47.47468" lon="0.87945">
        <ele>140</ele>
        <time>2013-09-01T08:23:43.118Z</time>
      </trkpt>
      <trkpt lat="47.47467" lon="0.87948">
        <ele>140</ele>
        <time>2013-09-01T08:23:44.105Z</time>
      </trkpt>
      <trkpt lat="47.47465" lon="0.8796">
        <ele>143</ele>
        <time>2013-09-01T08:23:48.191Z</time>
      </trkpt>
      <trkpt lat="47.47464" lon="0.87964">
        <ele>143</ele>
        <time>2013-09-01T08:23:49.116Z</time>
      </trkpt>
      <trkpt lat="47.47462" lon="0.87973">
        <ele>142</ele>
        <time>2013-09-01T08:23:51.132Z</time>
      </trkpt>
      <trkpt lat="47.4746" lon="0.87976">
        <ele>141</ele>
        <time>2013-09-01T08:23:52.124Z</time>
      </trkpt>
      <trkpt lat="47.47456" lon="0.87985">
        <ele>134</ele>
        <time>2013-09-01T08:23:54.084Z</time>
      </trkpt>
      <trkpt lat="47.47455" lon="0.87988">
        <ele>133</ele>
        <time>2013-09-01T08:23:55.087Z</time>
      </trkpt>
      <trkpt lat="47.47454" lon="0.87985">
        <ele>132</ele>
        <time>2013-09-01T08:24:01.070Z</time>
      </trkpt>
      <trkpt lat="47.47454" lon="0.87985">
        <ele>132</ele>
        <time>2013-09-01T08:24:02.073Z</time>
      </trkpt>
      <trkpt lat="47.47453" lon="0.87985">
        <ele>132</ele>
        <time>2013-09-01T08:24:03.084Z</time>
      </trkpt>
      <trkpt lat="47.47453" lon="0.87985">
        <ele>132</ele>
        <time>2013-09-01T08:24:04.123Z</time>
      </trkpt>
      <trkpt lat="47.47453" lon="0.87985">
        <ele>132</ele>
        <time>2013-09-01T08:24:05.130Z</time>
      </trkpt>
      <trkpt lat="47.47453" lon="0.87985">
        <ele>131</ele>
        <time>2013-09-01T08:25:37.083Z</time>
      </trkpt>
      <trkpt lat="47.47452" lon="0.87985">
        <ele>131</ele>
        <time>2013-09-01T08:25:38.092Z</time>
      </trkpt>
      <trkpt lat="47.47452" lon="0.87985">
        <ele>131</ele>
        <time>2013-09-01T08:25:39.078Z</time>
      </trkpt>
      <trkpt lat="47.47452" lon="0.87985">
        <ele>131</ele>
        <time>2013-09-01T08:25:40.083Z</time>
      </trkpt>
      <trkpt lat="47.47452" lon="0.87985">
        <ele>131</ele>
        <time>2013-09-01T08:26:02.126Z</time>
      </trkpt>
      <trkpt lat="47.47453" lon="0.87983">
        <ele>131</ele>
        <time>2013-09-01T08:26:03.091Z</time>
      </trkpt>
      <trkpt lat="47.47453" lon="0.87972">
        <ele>134</ele>
        <time>2013-09-01T08:26:10.113Z</time>
      </trkpt>
      <trkpt lat="47.47453" lon="0.87968">
        <ele>134</ele>
        <time>2013-09-01T08:26:11.307Z</time>
      </trkpt>
      <trkpt lat="47.47455" lon="0.87959">
        <ele>134</ele>
        <time>2013-09-01T08:26:14.156Z</time>
      </trkpt>
      <trkpt lat="47.47456" lon="0.87955">
        <ele>135</ele>
        <time>2013-09-01T08:26:15.114Z</time>
      </trkpt>
      <trkpt lat="47.47456" lon="0.87944">
        <ele>137</ele>
        <time>2013-09-01T08:26:18.128Z</time>
      </trkpt>
      <trkpt lat="47.47458" lon="0.8794">
        <ele>137</ele>
        <time>2013-09-01T08:26:19.093Z</time>
      </trkpt>
      <trkpt lat="47.47461" lon="0.8793">
        <ele>137</ele>
        <time>2013-09-01T08:26:21.139Z</time>
      </trkpt>
      <trkpt lat="47.47462" lon="0.87925">
        <ele>136</ele>
        <time>2013-09-01T08:26:22.084Z</time>
      </trkpt>
      <trkpt lat="47.47463" lon="0.87912">
        <ele>136</ele>
        <time>2013-09-01T08:26:25.130Z</time>
      </trkpt>
      <trkpt lat="47.47464" lon="0.87908">
        <ele>137</ele>
        <time>2013-09-01T08:26:26.188Z</time>
      </trkpt>
      <trkpt lat="47.47466" lon="0.87897">
        <ele>138</ele>
        <time>2013-09-01T08:26:29.081Z</time>
      </trkpt>
      <trkpt lat="47.47466" lon="0.87895">
        <ele>138</ele>
        <time>2013-09-01T08:26:30.079Z</time>
      </trkpt>
      <trkpt lat="47.47468" lon="0.87882">
        <ele>139</ele>
        <time>2013-09-01T08:26:33.084Z</time>
      </trkpt>
      <trkpt lat="47.47468" lon="0.87878">
        <ele>137</ele>
        <time>2013-09-01T08:26:34.137Z</time>
      </trkpt>
      <trkpt lat="47.47468" lon="0.87868">
        <ele>136</ele>
        <time>2013-09-01T08:26:36.138Z</time>
      </trkpt>
      <trkpt lat="47.47468" lon="0.87863">
        <ele>136</ele>
        <time>2013-09-01T08:26:37.184Z</time>
      </trkpt>
      <trkpt lat="47.47466" lon="0.87852">
        <ele>136</ele>
        <time>2013-09-01T08:26:40.085Z</time>
      </trkpt>
      <trkpt lat="47.47466" lon="0.87848">
        <ele>136</ele>
        <time>2013-09-01T08:26:41.080Z</time>
      </trkpt>
      <trkpt lat="47.47466" lon="0.87837">
        <ele>139</ele>
        <time>2013-09-01T08:26:44.105Z</time>
      </trkpt>
      <trkpt lat="47.47466" lon="0.87834">
        <ele>139</ele>
        <time>2013-09-01T08:26:45.137Z</time>
      </trkpt>
      <trkpt lat="47.47465" lon="0.87822">
        <ele>141</ele>
        <time>2013-09-01T08:26:48.108Z</time>
      </trkpt>
      <trkpt lat="47.47465" lon="0.87819">
        <ele>142</ele>
        <time>2013-09-01T08:26:49.116Z</time>
      </trkpt>
      <trkpt lat="47.47463" lon="0.87807">
        <ele>144</ele>
        <time>2013-09-01T08:26:53.157Z</time>
      </trkpt>
      <trkpt lat="47.47462" lon="0.87803">
        <ele>144</ele>
        <time>2013-09-01T08:26:54.086Z</time>
      </trkpt>
      <trkpt lat="47.4746" lon="0.8779">
        <ele>144</ele>
        <time>2013-09-01T08:26:59.133Z</time>
      </trkpt>
      <trkpt lat="47.4746" lon="0.87788">
        <ele>144</ele>
        <time>2013-09-01T08:27:00.084Z</time>
      </trkpt>
      <trkpt lat="47.47457" lon="0.87777">
        <ele>145</ele>
        <time>2013-09-01T08:27:05.138Z</time>
      </trkpt>
      <trkpt lat="47.47456" lon="0.87775">
        <ele>145</ele>
        <time>2013-09-01T08:27:06.132Z</time>
      </trkpt>
      <trkpt lat="47.47455" lon="0.87762">
        <ele>143</ele>
        <time>2013-09-01T08:27:10.133Z</time>
      </trkpt>
      <trkpt lat="47.47454" lon="0.87758">
        <ele>143</ele>
        <time>2013-09-01T08:27:11.134Z</time>
      </trkpt>
      <trkpt lat="47.4745" lon="0.87747">
        <ele>145</ele>
        <time>2013-09-01T08:27:17.099Z</time>
      </trkpt>
      <trkpt lat="47.47448" lon="0.87747">
        <ele>145</ele>
        <time>2013-09-01T08:27:18.093Z</time>
      </trkpt>
      <trkpt lat="47.47441" lon="0.8774">
        <ele>146</ele>
        <time>2013-09-01T08:27:27.132Z</time>
      </trkpt>
      <trkpt lat="47.4744" lon="0.87739">
        <ele>146</ele>
        <time>2013-09-01T08:27:28.086Z</time>
      </trkpt>
      <trkpt lat="47.47438" lon="0.87738">
        <ele>146</ele>
        <time>2013-09-01T08:27:31.103Z</time>
      </trkpt>
      <trkpt lat="47.47438" lon="0.87738">
        <ele>146</ele>
        <time>2013-09-01T08:27:32.084Z</time>
      </trkpt>
      <trkpt lat="47.47438" lon="0.87738">
        <ele>146</ele>
        <time>2013-09-01T08:27:35.149Z</time>
      </trkpt>
      <trkpt lat="47.47436" lon="0.87738">
        <ele>147</ele>
        <time>2013-09-01T08:27:36.130Z</time>
      </trkpt>
      <trkpt lat="47.47436" lon="0.87738">
        <ele>147</ele>
        <time>2013-09-01T08:27:38.145Z</time>
      </trkpt>
      <trkpt lat="47.47436" lon="0.87738">
        <ele>147</ele>
        <time>2013-09-01T08:27:39.089Z</time>
      </trkpt>
      <trkpt lat="47.47434" lon="0.87738">
        <ele>148</ele>
        <time>2013-09-01T08:27:40.105Z</time>
      </trkpt>
      <trkpt lat="47.47426" lon="0.87738">
        <ele>150</ele>
        <time>2013-09-01T08:27:44.085Z</time>
      </trkpt>
      <trkpt lat="47.47424" lon="0.87737">
        <ele>149</ele>
        <time>2013-09-01T08:27:45.080Z</time>
      </trkpt>
      <trkpt lat="47.47416" lon="0.87736">
        <ele>150</ele>
        <time>2013-09-01T08:27:49.086Z</time>
      </trkpt>
      <trkpt lat="47.47414" lon="0.87736">
        <ele>150</ele>
        <time>2013-09-01T08:27:50.150Z</time>
      </trkpt>
      <trkpt lat="47.47414" lon="0.87736">
        <ele>150</ele>
        <time>2013-09-01T08:27:51.147Z</time>
      </trkpt>
      <trkpt lat="47.47414" lon="0.87736">
        <ele>149</ele>
        <time>2013-09-01T08:27:52.133Z</time>
      </trkpt>
      <trkpt lat="47.47413" lon="0.87736">
        <ele>149</ele>
        <time>2013-09-01T08:27:53.085Z</time>
      </trkpt>
      <trkpt lat="47.47409" lon="0.87738">
        <ele>150</ele>
        <time>2013-09-01T08:27:58.147Z</time>
      </trkpt>
      <trkpt lat="47.47409" lon="0.87738">
        <ele>150</ele>
        <time>2013-09-01T08:27:59.088Z</time>
      </trkpt>
      <trkpt lat="47.47407" lon="0.87738">
        <ele>150</ele>
        <time>2013-09-01T08:28:00.103Z</time>
      </trkpt>
      <trkpt lat="47.47399" lon="0.87738">
        <ele>151</ele>
        <time>2013-09-01T08:28:03.105Z</time>
      </trkpt>
      <trkpt lat="47.47397" lon="0.87738">
        <ele>150</ele>
        <time>2013-09-01T08:28:04.140Z</time>
      </trkpt>
      <trkpt lat="47.47388" lon="0.87738">
        <ele>150</ele>
        <time>2013-09-01T08:28:10.080Z</time>
      </trkpt>
      <trkpt lat="47.47386" lon="0.87738">
        <ele>151</ele>
        <time>2013-09-01T08:28:11.102Z</time>
      </trkpt>
      <trkpt lat="47.47378" lon="0.87738">
        <ele>151</ele>
        <time>2013-09-01T08:28:17.137Z</time>
      </trkpt>
      <trkpt lat="47.47376" lon="0.87738">
        <ele>151</ele>
        <time>2013-09-01T08:28:18.157Z</time>
      </trkpt>
      <trkpt lat="47.47368" lon="0.87738">
        <ele>152</ele>
        <time>2013-09-01T08:28:23.139Z</time>
      </trkpt>
      <trkpt lat="47.47366" lon="0.87738">
        <ele>153</ele>
        <time>2013-09-01T08:28:24.112Z</time>
      </trkpt>
      <trkpt lat="47.47357" lon="0.87736">
        <ele>157</ele>
        <time>2013-09-01T08:28:29.115Z</time>
      </trkpt>
      <trkpt lat="47.47356" lon="0.87736">
        <ele>158</ele>
        <time>2013-09-01T08:28:30.159Z</time>
      </trkpt>
      <trkpt lat="47.47349" lon="0.87732">
        <ele>158</ele>
        <time>2013-09-01T08:28:35.094Z</time>
      </trkpt>
      <trkpt lat="47.47346" lon="0.87733">
        <ele>157</ele>
        <time>2013-09-01T08:28:36.146Z</time>
      </trkpt>
      <trkpt lat="47.47338" lon="0.8773">
        <ele>157</ele>
        <time>2013-09-01T08:28:43.187Z</time>
      </trkpt>
      <trkpt lat="47.47336" lon="0.87728">
        <ele>158</ele>
        <time>2013-09-01T08:28:44.137Z</time>
      </trkpt>
      <trkpt lat="47.47328" lon="0.87725">
        <ele>161</ele>
        <time>2013-09-01T08:28:50.084Z</time>
      </trkpt>
      <trkpt lat="47.47326" lon="0.87724">
        <ele>162</ele>
        <time>2013-09-01T08:28:51.086Z</time>
      </trkpt>
      <trkpt lat="47.47318" lon="0.87723">
        <ele>162</ele>
        <time>2013-09-01T08:28:58.151Z</time>
      </trkpt>
      <trkpt lat="47.47317" lon="0.87725">
        <ele>163</ele>
        <time>2013-09-01T08:28:59.133Z</time>
      </trkpt>
      <trkpt lat="47.47317" lon="0.87726">
        <ele>163</ele>
        <time>2013-09-01T08:29:00.112Z</time>
      </trkpt>
      <trkpt lat="47.47317" lon="0.87726">
        <ele>163</ele>
        <time>2013-09-01T08:29:01.113Z</time>
      </trkpt>
      <trkpt lat="47.47316" lon="0.87727">
        <ele>162</ele>
        <time>2013-09-01T08:29:02.150Z</time>
      </trkpt>
      <trkpt lat="47.47308" lon="0.87729">
        <ele>161</ele>
        <time>2013-09-01T08:29:05.135Z</time>
      </trkpt>
      <trkpt lat="47.47306" lon="0.8773">
        <ele>160</ele>
        <time>2013-09-01T08:29:06.102Z</time>
      </trkpt>
      <trkpt lat="47.47297" lon="0.87732">
        <ele>161</ele>
        <time>2013-09-01T08:29:11.132Z</time>
      </trkpt>
      <trkpt lat="47.47295" lon="0.87732">
        <ele>161</ele>
        <time>2013-09-01T08:29:12.148Z</time>
      </trkpt>
      <trkpt lat="47.47288" lon="0.87736">
        <ele>162</ele>
        <time>2013-09-01T08:29:14.133Z</time>
      </trkpt>
      <trkpt lat="47.47285" lon="0.87738">
        <ele>162</ele>
        <time>2013-09-01T08:29:15.132Z</time>
      </trkpt>
      <trkpt lat="47.47277" lon="0.87738">
        <ele>162</ele>
        <time>2013-09-01T08:29:19.148Z</time>
      </trkpt>
      <trkpt lat="47.47275" lon="0.8774">
        <ele>162</ele>
        <time>2013-09-01T08:29:20.136Z</time>
      </trkpt>
      <trkpt lat="47.47268" lon="0.87745">
        <ele>163</ele>
        <time>2013-09-01T08:29:23.102Z</time>
      </trkpt>
      <trkpt lat="47.47263" lon="0.87747">
        <ele>163</ele>
        <time>2013-09-01T08:29:24.123Z</time>
      </trkpt>
      <trkpt lat="47.47255" lon="0.87749">
        <ele>163</ele>
        <time>2013-09-01T08:29:27.098Z</time>
      </trkpt>
      <trkpt lat="47.47251" lon="0.87749">
        <ele>163</ele>
        <time>2013-09-01T08:29:28.083Z</time>
      </trkpt>
      <trkpt lat="47.47243" lon="0.87751">
        <ele>164</ele>
        <time>2013-09-01T08:29:30.138Z</time>
      </trkpt>
      <trkpt lat="47.4724" lon="0.87751">
        <ele>163</ele>
        <time>2013-09-01T08:29:31.162Z</time>
      </trkpt>
      <trkpt lat="47.47233" lon="0.87751">
        <ele>162</ele>
        <time>2013-09-01T08:29:34.108Z</time>
      </trkpt>
      <trkpt lat="47.4723" lon="0.87749">
        <ele>162</ele>
        <time>2013-09-01T08:29:35.134Z</time>
      </trkpt>
      <trkpt lat="47.47223" lon="0.87749">
        <ele>162</ele>
        <time>2013-09-01T08:29:37.148Z</time>
      </trkpt>
      <trkpt lat="47.4722" lon="0.87749">
        <ele>162</ele>
        <time>2013-09-01T08:29:38.173Z</time>
      </trkpt>
      <trkpt lat="47.47214" lon="0.87749">
        <ele>161</ele>
        <time>2013-09-01T08:29:40.109Z</time>
      </trkpt>
      <trkpt lat="47.47211" lon="0.87749">
        <ele>162</ele>
        <time>2013-09-01T08:29:41.137Z</time>
      </trkpt>
      <trkpt lat="47.47204" lon="0.87749">
        <ele>161</ele>
        <time>2013-09-01T08:29:43.208Z</time>
      </trkpt>
      <trkpt lat="47.472" lon="0.87749">
        <ele>159</ele>
        <time>2013-09-01T08:29:44.465Z</time>
      </trkpt>
      <trkpt lat="47.47192" lon="0.87748">
        <ele>159</ele>
        <time>2013-09-01T08:29:47.461Z</time>
      </trkpt>
      <trkpt lat="47.4719" lon="0.87747">
        <ele>160</ele>
        <time>2013-09-01T08:29:48.492Z</time>
      </trkpt>
      <trkpt lat="47.47184" lon="0.87748">
        <ele>159</ele>
        <time>2013-09-01T08:29:50.500Z</time>
      </trkpt>
      <trkpt lat="47.47181" lon="0.87751">
        <ele>158</ele>
        <time>2013-09-01T08:29:51.521Z</time>
      </trkpt>
      <trkpt lat="47.47172" lon="0.87753">
        <ele>156</ele>
        <time>2013-09-01T08:29:53.524Z</time>
      </trkpt>
      <trkpt lat="47.47169" lon="0.87754">
        <ele>156</ele>
        <time>2013-09-01T08:29:54.487Z</time>
      </trkpt>
      <trkpt lat="47.47161" lon="0.87755">
        <ele>157</ele>
        <time>2013-09-01T08:29:56.519Z</time>
      </trkpt>
      <trkpt lat="47.47157" lon="0.87756">
        <ele>157</ele>
        <time>2013-09-01T08:29:57.523Z</time>
      </trkpt>
      <trkpt lat="47.4715" lon="0.87758">
        <ele>157</ele>
        <time>2013-09-01T08:29:59.485Z</time>
      </trkpt>
      <trkpt lat="47.47146" lon="0.87758">
        <ele>157</ele>
        <time>2013-09-01T08:30:00.478Z</time>
      </trkpt>
      <trkpt lat="47.47139" lon="0.87758">
        <ele>154</ele>
        <time>2013-09-01T08:30:02.471Z</time>
      </trkpt>
      <trkpt lat="47.47135" lon="0.87758">
        <ele>155</ele>
        <time>2013-09-01T08:30:03.490Z</time>
      </trkpt>
      <trkpt lat="47.4713" lon="0.87753">
        <ele>154</ele>
        <time>2013-09-01T08:30:05.476Z</time>
      </trkpt>
      <trkpt lat="47.47127" lon="0.87753">
        <ele>154</ele>
        <time>2013-09-01T08:30:06.502Z</time>
      </trkpt>
      <trkpt lat="47.4712" lon="0.87751">
        <ele>156</ele>
        <time>2013-09-01T08:30:08.519Z</time>
      </trkpt>
      <trkpt lat="47.47116" lon="0.87751">
        <ele>157</ele>
        <time>2013-09-01T08:30:09.550Z</time>
      </trkpt>
      <trkpt lat="47.4711" lon="0.87749">
        <ele>158</ele>
        <time>2013-09-01T08:30:11.517Z</time>
      </trkpt>
      <trkpt lat="47.47106" lon="0.87747">
        <ele>158</ele>
        <time>2013-09-01T08:30:12.518Z</time>
      </trkpt>
      <trkpt lat="47.47098" lon="0.87745">
        <ele>158</ele>
        <time>2013-09-01T08:30:14.512Z</time>
      </trkpt>
      <trkpt lat="47.47093" lon="0.87743">
        <ele>158</ele>
        <time>2013-09-01T08:30:15.523Z</time>
      </trkpt>
      <trkpt lat="47.47085" lon="0.8774">
        <ele>157</ele>
        <time>2013-09-01T08:30:17.465Z</time>
      </trkpt>
      <trkpt lat="47.47081" lon="0.87738">
        <ele>157</ele>
        <time>2013-09-01T08:30:18.504Z</time>
      </trkpt>
      <trkpt lat="47.47073" lon="0.87736">
        <ele>156</ele>
        <time>2013-09-01T08:30:20.517Z</time>
      </trkpt>
      <trkpt lat="47.4707" lon="0.87736">
        <ele>155</ele>
        <time>2013-09-01T08:30:21.517Z</time>
      </trkpt>
      <trkpt lat="47.47062" lon="0.87732">
        <ele>155</ele>
        <time>2013-09-01T08:30:23.476Z</time>
      </trkpt>
      <trkpt lat="47.47058" lon="0.87732">
        <ele>155</ele>
        <time>2013-09-01T08:30:24.522Z</time>
      </trkpt>
      <trkpt lat="47.47052" lon="0.87728">
        <ele>155</ele>
        <time>2013-09-01T08:30:26.562Z</time>
      </trkpt>
      <trkpt lat="47.47048" lon="0.87727">
        <ele>155</ele>
        <time>2013-09-01T08:30:27.524Z</time>
      </trkpt>
      <trkpt lat="47.4704" lon="0.87723">
        <ele>155</ele>
        <time>2013-09-01T08:30:29.512Z</time>
      </trkpt>
      <trkpt lat="47.47037" lon="0.87723">
        <ele>155</ele>
        <time>2013-09-01T08:30:30.525Z</time>
      </trkpt>
      <trkpt lat="47.47033" lon="0.87721">
        <ele>155</ele>
        <time>2013-09-01T08:30:31.529Z</time>
      </trkpt>
      <trkpt lat="47.47028" lon="0.87719">
        <ele>155</ele>
        <time>2013-09-01T08:30:32.505Z</time>
      </trkpt>
      <trkpt lat="47.47021" lon="0.87717">
        <ele>155</ele>
        <time>2013-09-01T08:30:34.527Z</time>
      </trkpt>
      <trkpt lat="47.47016" lon="0.87715">
        <ele>154</ele>
        <time>2013-09-01T08:30:35.532Z</time>
      </trkpt>
      <trkpt lat="47.4701" lon="0.87713">
        <ele>154</ele>
        <time>2013-09-01T08:30:36.537Z</time>
      </trkpt>
      <trkpt lat="47.47005" lon="0.87712">
        <ele>154</ele>
        <time>2013-09-01T08:30:37.532Z</time>
      </trkpt>
      <trkpt lat="47.46997" lon="0.8771">
        <ele>155</ele>
        <time>2013-09-01T08:30:39.475Z</time>
      </trkpt>
      <trkpt lat="47.46992" lon="0.87708">
        <ele>155</ele>
        <time>2013-09-01T08:30:40.463Z</time>
      </trkpt>
      <trkpt lat="47.46987" lon="0.87706">
        <ele>155</ele>
        <time>2013-09-01T08:30:41.470Z</time>
      </trkpt>
      <trkpt lat="47.46983" lon="0.87704">
        <ele>155</ele>
        <time>2013-09-01T08:30:42.474Z</time>
      </trkpt>
      <trkpt lat="47.46978" lon="0.87702">
        <ele>155</ele>
        <time>2013-09-01T08:30:43.463Z</time>
      </trkpt>
      <trkpt lat="47.46973" lon="0.87702">
        <ele>155</ele>
        <time>2013-09-01T08:30:44.527Z</time>
      </trkpt>
      <trkpt lat="47.46969" lon="0.877">
        <ele>155</ele>
        <time>2013-09-01T08:30:45.471Z</time>
      </trkpt>
      <trkpt lat="47.46965" lon="0.87698">
        <ele>154</ele>
        <time>2013-09-01T08:30:46.484Z</time>
      </trkpt>
      <trkpt lat="47.4696" lon="0.87695">
        <ele>155</ele>
        <time>2013-09-01T08:30:47.523Z</time>
      </trkpt>
      <trkpt lat="47.46956" lon="0.87691">
        <ele>155</ele>
        <time>2013-09-01T08:30:48.510Z</time>
      </trkpt>
      <trkpt lat="47.46952" lon="0.87689">
        <ele>154</ele>
        <time>2013-09-01T08:30:49.543Z</time>
      </trkpt>
      <trkpt lat="47.46947" lon="0.87687">
        <ele>154</ele>
        <time>2013-09-01T08:30:50.518Z</time>
      </trkpt>
      <trkpt lat="47.46942" lon="0.87685">
        <ele>154</ele>
        <time>2013-09-01T08:30:51.463Z</time>
      </trkpt>
      <trkpt lat="47.46938" lon="0.87682">
        <ele>153</ele>
        <time>2013-09-01T08:30:52.489Z</time>
      </trkpt>
      <trkpt lat="47.46934" lon="0.87678">
        <ele>153</ele>
        <time>2013-09-01T08:30:53.517Z</time>
      </trkpt>
      <trkpt lat="47.46928" lon="0.87676">
        <ele>153</ele>
        <time>2013-09-01T08:30:54.522Z</time>
      </trkpt>
      <trkpt lat="47.46923" lon="0.87674">
        <ele>153</ele>
        <time>2013-09-01T08:30:55.466Z</time>
      </trkpt>
      <trkpt lat="47.46919" lon="0.87672">
        <ele>153</ele>
        <time>2013-09-01T08:30:56.479Z</time>
      </trkpt>
      <trkpt lat="47.46914" lon="0.8767">
        <ele>153</ele>
        <time>2013-09-01T08:30:57.528Z</time>
      </trkpt>
      <trkpt lat="47.4691" lon="0.87667">
        <ele>153</ele>
        <time>2013-09-01T08:30:58.532Z</time>
      </trkpt>
      <trkpt lat="47.46902" lon="0.87665">
        <ele>153</ele>
        <time>2013-09-01T08:31:00.494Z</time>
      </trkpt>
      <trkpt lat="47.46896" lon="0.87665">
        <ele>153</ele>
        <time>2013-09-01T08:31:01.514Z</time>
      </trkpt>
      <trkpt lat="47.46892" lon="0.87663">
        <ele>153</ele>
        <time>2013-09-01T08:31:02.623Z</time>
      </trkpt>
      <trkpt lat="47.46887" lon="0.87663">
        <ele>153</ele>
        <time>2013-09-01T08:31:03.513Z</time>
      </trkpt>
      <trkpt lat="47.46881" lon="0.87663">
        <ele>152</ele>
        <time>2013-09-01T08:31:04.462Z</time>
      </trkpt>
      <trkpt lat="47.46877" lon="0.87663">
        <ele>152</ele>
        <time>2013-09-01T08:31:05.475Z</time>
      </trkpt>
      <trkpt lat="47.46872" lon="0.87661">
        <ele>153</ele>
        <time>2013-09-01T08:31:06.489Z</time>
      </trkpt>
      <trkpt lat="47.46865" lon="0.87661">
        <ele>153</ele>
        <time>2013-09-01T08:31:07.516Z</time>
      </trkpt>
      <trkpt lat="47.4686" lon="0.87661">
        <ele>152</ele>
        <time>2013-09-01T08:31:08.514Z</time>
      </trkpt>
      <trkpt lat="47.46854" lon="0.87661">
        <ele>152</ele>
        <time>2013-09-01T08:31:09.483Z</time>
      </trkpt>
      <trkpt lat="47.46849" lon="0.87659">
        <ele>152</ele>
        <time>2013-09-01T08:31:10.465Z</time>
      </trkpt>
      <trkpt lat="47.46844" lon="0.87659">
        <ele>152</ele>
        <time>2013-09-01T08:31:11.465Z</time>
      </trkpt>
      <trkpt lat="47.46838" lon="0.87659">
        <ele>152</ele>
        <time>2013-09-01T08:31:12.482Z</time>
      </trkpt>
      <trkpt lat="47.46833" lon="0.87659">
        <ele>151</ele>
        <time>2013-09-01T08:31:13.481Z</time>
      </trkpt>
      <trkpt lat="47.46827" lon="0.87659">
        <ele>151</ele>
        <time>2013-09-01T08:31:14.504Z</time>
      </trkpt>
      <trkpt lat="47.46822" lon="0.87659">
        <ele>150</ele>
        <time>2013-09-01T08:31:15.524Z</time>
      </trkpt>
      <trkpt lat="47.46816" lon="0.87659">
        <ele>150</ele>
        <time>2013-09-01T08:31:16.520Z</time>
      </trkpt>
      <trkpt lat="47.46809" lon="0.87659">
        <ele>150</ele>
        <time>2013-09-01T08:31:17.519Z</time>
      </trkpt>
      <trkpt lat="47.46804" lon="0.87659">
        <ele>150</ele>
        <time>2013-09-01T08:31:18.499Z</time>
      </trkpt>
      <trkpt lat="47.46798" lon="0.87657">
        <ele>149</ele>
        <time>2013-09-01T08:31:19.521Z</time>
      </trkpt>
      <trkpt lat="47.46792" lon="0.87657">
        <ele>149</ele>
        <time>2013-09-01T08:31:20.473Z</time>
      </trkpt>
      <trkpt lat="47.46786" lon="0.87657">
        <ele>150</ele>
        <time>2013-09-01T08:31:21.496Z</time>
      </trkpt>
      <trkpt lat="47.4678" lon="0.87657">
        <ele>150</ele>
        <time>2013-09-01T08:31:22.518Z</time>
      </trkpt>
      <trkpt lat="47.46775" lon="0.87657">
        <ele>150</ele>
        <time>2013-09-01T08:31:23.519Z</time>
      </trkpt>
      <trkpt lat="47.46769" lon="0.87655">
        <ele>150</ele>
        <time>2013-09-01T08:31:24.500Z</time>
      </trkpt>
      <trkpt lat="47.46763" lon="0.87654">
        <ele>150</ele>
        <time>2013-09-01T08:31:25.524Z</time>
      </trkpt>
      <trkpt lat="47.46758" lon="0.87653">
        <ele>150</ele>
        <time>2013-09-01T08:31:26.565Z</time>
      </trkpt>
      <trkpt lat="47.46753" lon="0.87652">
        <ele>150</ele>
        <time>2013-09-01T08:31:27.528Z</time>
      </trkpt>
      <trkpt lat="47.46747" lon="0.8765">
        <ele>151</ele>
        <time>2013-09-01T08:31:28.473Z</time>
      </trkpt>
      <trkpt lat="47.46741" lon="0.87648">
        <ele>151</ele>
        <time>2013-09-01T08:31:29.540Z</time>
      </trkpt>
      <trkpt lat="47.46736" lon="0.87648">
        <ele>152</ele>
        <time>2013-09-01T08:31:30.477Z</time>
      </trkpt>
      <trkpt lat="47.46731" lon="0.87646">
        <ele>152</ele>
        <time>2013-09-01T08:31:31.478Z</time>
      </trkpt>
      <trkpt lat="47.46725" lon="0.87644">
        <ele>152</ele>
        <time>2013-09-01T08:31:32.470Z</time>
      </trkpt>
      <trkpt lat="47.4672" lon="0.87642">
        <ele>152</ele>
        <time>2013-09-01T08:31:33.465Z</time>
      </trkpt>
      <trkpt lat="47.46712" lon="0.87637">
        <ele>152</ele>
        <time>2013-09-01T08:31:35.522Z</time>
      </trkpt>
      <trkpt lat="47.46707" lon="0.87635">
        <ele>152</ele>
        <time>2013-09-01T08:31:36.526Z</time>
      </trkpt>
      <trkpt lat="47.46702" lon="0.87633">
        <ele>152</ele>
        <time>2013-09-01T08:31:37.526Z</time>
      </trkpt>
      <trkpt lat="47.46698" lon="0.87631">
        <ele>152</ele>
        <time>2013-09-01T08:31:38.526Z</time>
      </trkpt>
      <trkpt lat="47.46689" lon="0.87627">
        <ele>151</ele>
        <time>2013-09-01T08:31:40.507Z</time>
      </trkpt>
      <trkpt lat="47.46684" lon="0.87623">
        <ele>151</ele>
        <time>2013-09-01T08:31:41.512Z</time>
      </trkpt>
      <trkpt lat="47.46679" lon="0.8762">
        <ele>151</ele>
        <time>2013-09-01T08:31:42.518Z</time>
      </trkpt>
      <trkpt lat="47.46675" lon="0.87616">
        <ele>151</ele>
        <time>2013-09-01T08:31:43.553Z</time>
      </trkpt>
      <trkpt lat="47.46671" lon="0.87614">
        <ele>150</ele>
        <time>2013-09-01T08:31:44.476Z</time>
      </trkpt>
      <trkpt lat="47.46667" lon="0.8761">
        <ele>150</ele>
        <time>2013-09-01T08:31:45.470Z</time>
      </trkpt>
      <trkpt lat="47.46662" lon="0.87605">
        <ele>150</ele>
        <time>2013-09-01T08:31:46.528Z</time>
      </trkpt>
      <trkpt lat="47.46658" lon="0.87603">
        <ele>150</ele>
        <time>2013-09-01T08:31:47.521Z</time>
      </trkpt>
      <trkpt lat="47.46655" lon="0.87599">
        <ele>151</ele>
        <time>2013-09-01T08:31:48.463Z</time>
      </trkpt>
      <trkpt lat="47.4665" lon="0.87595">
        <ele>150</ele>
        <time>2013-09-01T08:31:49.453Z</time>
      </trkpt>
      <trkpt lat="47.46645" lon="0.8759">
        <ele>150</ele>
        <time>2013-09-01T08:31:50.451Z</time>
      </trkpt>
      <trkpt lat="47.46641" lon="0.87586">
        <ele>150</ele>
        <time>2013-09-01T08:31:51.450Z</time>
      </trkpt>
      <trkpt lat="47.46637" lon="0.87582">
        <ele>150</ele>
        <time>2013-09-01T08:31:52.460Z</time>
      </trkpt>
      <trkpt lat="47.46632" lon="0.87577">
        <ele>149</ele>
        <time>2013-09-01T08:31:53.476Z</time>
      </trkpt>
      <trkpt lat="47.46628" lon="0.87571">
        <ele>149</ele>
        <time>2013-09-01T08:31:54.470Z</time>
      </trkpt>
      <trkpt lat="47.46624" lon="0.87566">
        <ele>148</ele>
        <time>2013-09-01T08:31:55.479Z</time>
      </trkpt>
      <trkpt lat="47.46618" lon="0.8756">
        <ele>148</ele>
        <time>2013-09-01T08:31:56.485Z</time>
      </trkpt>
      <trkpt lat="47.46614" lon="0.87556">
        <ele>148</ele>
        <time>2013-09-01T08:31:57.503Z</time>
      </trkpt>
      <trkpt lat="47.46611" lon="0.8755">
        <ele>147</ele>
        <time>2013-09-01T08:31:58.526Z</time>
      </trkpt>
      <trkpt lat="47.46607" lon="0.87545">
        <ele>146</ele>
        <time>2013-09-01T08:31:59.483Z</time>
      </trkpt>
      <trkpt lat="47.46602" lon="0.87539">
        <ele>146</ele>
        <time>2013-09-01T08:32:00.485Z</time>
      </trkpt>
      <trkpt lat="47.46598" lon="0.87532">
        <ele>146</ele>
        <time>2013-09-01T08:32:01.492Z</time>
      </trkpt>
      <trkpt lat="47.46594" lon="0.87526">
        <ele>146</ele>
        <time>2013-09-01T08:32:02.517Z</time>
      </trkpt>
      <trkpt lat="47.46589" lon="0.87521">
        <ele>147</ele>
        <time>2013-09-01T08:32:03.525Z</time>
      </trkpt>
      <trkpt lat="47.46585" lon="0.87515">
        <ele>147</ele>
        <time>2013-09-01T08:32:04.497Z</time>
      </trkpt>
      <trkpt lat="47.46581" lon="0.87509">
        <ele>146</ele>
        <time>2013-09-01T08:32:05.519Z</time>
      </trkpt>
      <trkpt lat="47.46576" lon="0.87502">
        <ele>146</ele>
        <time>2013-09-01T08:32:06.525Z</time>
      </trkpt>
      <trkpt lat="47.46572" lon="0.87496">
        <ele>146</ele>
        <time>2013-09-01T08:32:07.522Z</time>
      </trkpt>
      <trkpt lat="47.46567" lon="0.87489">
        <ele>146</ele>
        <time>2013-09-01T08:32:08.522Z</time>
      </trkpt>
      <trkpt lat="47.46562" lon="0.87483">
        <ele>145</ele>
        <time>2013-09-01T08:32:09.556Z</time>
      </trkpt>
      <trkpt lat="47.46557" lon="0.87477">
        <ele>144</ele>
        <time>2013-09-01T08:32:10.459Z</time>
      </trkpt>
      <trkpt lat="47.46552" lon="0.87468">
        <ele>144</ele>
        <time>2013-09-01T08:32:11.466Z</time>
      </trkpt>
      <trkpt lat="47.46547" lon="0.87459">
        <ele>143</ele>
        <time>2013-09-01T08:32:12.496Z</time>
      </trkpt>
      <trkpt lat="47.46542" lon="0.87449">
        <ele>142</ele>
        <time>2013-09-01T08:32:13.521Z</time>
      </trkpt>
      <trkpt lat="47.46538" lon="0.87438">
        <ele>142</ele>
        <time>2013-09-01T08:32:14.466Z</time>
      </trkpt>
      <trkpt lat="47.46535" lon="0.87427">
        <ele>141</ele>
        <time>2013-09-01T08:32:15.479Z</time>
      </trkpt>
      <trkpt lat="47.4653" lon="0.87416">
        <ele>140</ele>
        <time>2013-09-01T08:32:16.508Z</time>
      </trkpt>
      <trkpt lat="47.46526" lon="0.87406">
        <ele>139</ele>
        <time>2013-09-01T08:32:17.508Z</time>
      </trkpt>
      <trkpt lat="47.46523" lon="0.87397">
        <ele>138</ele>
        <time>2013-09-01T08:32:18.504Z</time>
      </trkpt>
      <trkpt lat="47.46518" lon="0.87387">
        <ele>137</ele>
        <time>2013-09-01T08:32:19.506Z</time>
      </trkpt>
      <trkpt lat="47.46513" lon="0.87376">
        <ele>136</ele>
        <time>2013-09-01T08:32:20.554Z</time>
      </trkpt>
      <trkpt lat="47.46508" lon="0.87365">
        <ele>135</ele>
        <time>2013-09-01T08:32:21.484Z</time>
      </trkpt>
      <trkpt lat="47.46502" lon="0.87356">
        <ele>135</ele>
        <time>2013-09-01T08:32:22.475Z</time>
      </trkpt>
      <trkpt lat="47.46497" lon="0.87344">
        <ele>134</ele>
        <time>2013-09-01T08:32:23.478Z</time>
      </trkpt>
      <trkpt lat="47.46492" lon="0.87333">
        <ele>133</ele>
        <time>2013-09-01T08:32:24.524Z</time>
      </trkpt>
      <trkpt lat="47.46486" lon="0.87324">
        <ele>132</ele>
        <time>2013-09-01T08:32:25.522Z</time>
      </trkpt>
      <trkpt lat="47.46481" lon="0.87314">
        <ele>131</ele>
        <time>2013-09-01T08:32:26.453Z</time>
      </trkpt>
      <trkpt lat="47.46476" lon="0.87305">
        <ele>131</ele>
        <time>2013-09-01T08:32:27.478Z</time>
      </trkpt>
      <trkpt lat="47.4647" lon="0.87296">
        <ele>130</ele>
        <time>2013-09-01T08:32:28.467Z</time>
      </trkpt>
      <trkpt lat="47.46463" lon="0.87288">
        <ele>128</ele>
        <time>2013-09-01T08:32:29.470Z</time>
      </trkpt>
      <trkpt lat="47.46454" lon="0.87279">
        <ele>127</ele>
        <time>2013-09-01T08:32:30.517Z</time>
      </trkpt>
      <trkpt lat="47.46446" lon="0.87271">
        <ele>125</ele>
        <time>2013-09-01T08:32:31.518Z</time>
      </trkpt>
      <trkpt lat="47.46437" lon="0.87264">
        <ele>125</ele>
        <time>2013-09-01T08:32:32.461Z</time>
      </trkpt>
      <trkpt lat="47.4643" lon="0.87259">
        <ele>124</ele>
        <time>2013-09-01T08:32:33.454Z</time>
      </trkpt>
      <trkpt lat="47.46425" lon="0.87255">
        <ele>124</ele>
        <time>2013-09-01T08:32:34.474Z</time>
      </trkpt>
      <trkpt lat="47.46421" lon="0.87249">
        <ele>124</ele>
        <time>2013-09-01T08:32:35.457Z</time>
      </trkpt>
      <trkpt lat="47.46418" lon="0.87243">
        <ele>124</ele>
        <time>2013-09-01T08:32:36.492Z</time>
      </trkpt>
      <trkpt lat="47.46415" lon="0.87236">
        <ele>124</ele>
        <time>2013-09-01T08:32:37.517Z</time>
      </trkpt>
      <trkpt lat="47.46414" lon="0.8723">
        <ele>125</ele>
        <time>2013-09-01T08:32:38.482Z</time>
      </trkpt>
      <trkpt lat="47.46415" lon="0.87219">
        <ele>126</ele>
        <time>2013-09-01T08:32:40.478Z</time>
      </trkpt>
      <trkpt lat="47.46414" lon="0.87215">
        <ele>126</ele>
        <time>2013-09-01T08:32:41.501Z</time>
      </trkpt>
      <trkpt lat="47.46413" lon="0.87204">
        <ele>129</ele>
        <time>2013-09-01T08:32:43.481Z</time>
      </trkpt>
      <trkpt lat="47.46412" lon="0.872">
        <ele>130</ele>
        <time>2013-09-01T08:32:44.506Z</time>
      </trkpt>
      <trkpt lat="47.46413" lon="0.87187">
        <ele>133</ele>
        <time>2013-09-01T08:32:47.500Z</time>
      </trkpt>
      <trkpt lat="47.46413" lon="0.87183">
        <ele>135</ele>
        <time>2013-09-01T08:32:48.481Z</time>
      </trkpt>
      <trkpt lat="47.46411" lon="0.87172">
        <ele>139</ele>
        <time>2013-09-01T08:32:51.528Z</time>
      </trkpt>
      <trkpt lat="47.46411" lon="0.87168">
        <ele>138</ele>
        <time>2013-09-01T08:32:52.524Z</time>
      </trkpt>
      <trkpt lat="47.46409" lon="0.87155">
        <ele>141</ele>
        <time>2013-09-01T08:32:56.502Z</time>
      </trkpt>
      <trkpt lat="47.46409" lon="0.87152">
        <ele>141</ele>
        <time>2013-09-01T08:32:57.542Z</time>
      </trkpt>
      <trkpt lat="47.46408" lon="0.87142">
        <ele>145</ele>
        <time>2013-09-01T08:33:01.523Z</time>
      </trkpt>
      <trkpt lat="47.46408" lon="0.87138">
        <ele>145</ele>
        <time>2013-09-01T08:33:02.537Z</time>
      </trkpt>
      <trkpt lat="47.46408" lon="0.87125">
        <ele>147</ele>
        <time>2013-09-01T08:33:06.539Z</time>
      </trkpt>
      <trkpt lat="47.46408" lon="0.8712">
        <ele>147</ele>
        <time>2013-09-01T08:33:07.527Z</time>
      </trkpt>
      <trkpt lat="47.46406" lon="0.87111">
        <ele>145</ele>
        <time>2013-09-01T08:33:10.527Z</time>
      </trkpt>
      <trkpt lat="47.46405" lon="0.87108">
        <ele>145</ele>
        <time>2013-09-01T08:33:11.538Z</time>
      </trkpt>
      <trkpt lat="47.46403" lon="0.87095">
        <ele>147</ele>
        <time>2013-09-01T08:33:15.483Z</time>
      </trkpt>
      <trkpt lat="47.464" lon="0.87092">
        <ele>147</ele>
        <time>2013-09-01T08:33:16.523Z</time>
      </trkpt>
      <trkpt lat="47.46396" lon="0.87082">
        <ele>146</ele>
        <time>2013-09-01T08:33:19.536Z</time>
      </trkpt>
      <trkpt lat="47.46395" lon="0.87077">
        <ele>145</ele>
        <time>2013-09-01T08:33:20.529Z</time>
      </trkpt>
      <trkpt lat="47.46391" lon="0.87067">
        <ele>144</ele>
        <time>2013-09-01T08:33:23.500Z</time>
      </trkpt>
      <trkpt lat="47.4639" lon="0.87064">
        <ele>144</ele>
        <time>2013-09-01T08:33:24.536Z</time>
      </trkpt>
      <trkpt lat="47.46385" lon="0.87054">
        <ele>144</ele>
        <time>2013-09-01T08:33:27.486Z</time>
      </trkpt>
      <trkpt lat="47.46383" lon="0.87051">
        <ele>144</ele>
        <time>2013-09-01T08:33:28.475Z</time>
      </trkpt>
      <trkpt lat="47.46378" lon="0.87045">
        <ele>144</ele>
        <time>2013-09-01T08:33:31.534Z</time>
      </trkpt>
      <trkpt lat="47.46377" lon="0.87041">
        <ele>144</ele>
        <time>2013-09-01T08:33:32.570Z</time>
      </trkpt>
      <trkpt lat="47.4637" lon="0.87032">
        <ele>144</ele>
        <time>2013-09-01T08:33:36.511Z</time>
      </trkpt>
      <trkpt lat="47.46368" lon="0.8703">
        <ele>144</ele>
        <time>2013-09-01T08:33:37.510Z</time>
      </trkpt>
      <trkpt lat="47.46363" lon="0.8702">
        <ele>144</ele>
        <time>2013-09-01T08:33:41.526Z</time>
      </trkpt>
      <trkpt lat="47.46361" lon="0.87017">
        <ele>145</ele>
        <time>2013-09-01T08:33:42.527Z</time>
      </trkpt>
      <trkpt lat="47.46354" lon="0.87009">
        <ele>145</ele>
        <time>2013-09-01T08:33:46.524Z</time>
      </trkpt>
      <trkpt lat="47.46352" lon="0.87007">
        <ele>145</ele>
        <time>2013-09-01T08:33:47.544Z</time>
      </trkpt>
      <trkpt lat="47.46347" lon="0.86998">
        <ele>145</ele>
        <time>2013-09-01T08:33:50.507Z</time>
      </trkpt>
      <trkpt lat="47.46345" lon="0.86996">
        <ele>145</ele>
        <time>2013-09-01T08:33:51.529Z</time>
      </trkpt>
      <trkpt lat="47.46338" lon="0.86989">
        <ele>145</ele>
        <time>2013-09-01T08:33:54.518Z</time>
      </trkpt>
      <trkpt lat="47.46337" lon="0.86987">
        <ele>145</ele>
        <time>2013-09-01T08:33:55.513Z</time>
      </trkpt>
      <trkpt lat="47.46331" lon="0.86981">
        <ele>146</ele>
        <time>2013-09-01T08:33:58.454Z</time>
      </trkpt>
      <trkpt lat="47.46329" lon="0.86977">
        <ele>146</ele>
        <time>2013-09-01T08:33:59.465Z</time>
      </trkpt>
      <trkpt lat="47.46322" lon="0.86968">
        <ele>145</ele>
        <time>2013-09-01T08:34:02.504Z</time>
      </trkpt>
      <trkpt lat="47.4632" lon="0.86966">
        <ele>145</ele>
        <time>2013-09-01T08:34:03.552Z</time>
      </trkpt>
      <trkpt lat="47.46315" lon="0.86959">
        <ele>146</ele>
        <time>2013-09-01T08:34:06.527Z</time>
      </trkpt>
      <trkpt lat="47.46313" lon="0.86955">
        <ele>147</ele>
        <time>2013-09-01T08:34:07.529Z</time>
      </trkpt>
      <trkpt lat="47.46308" lon="0.86947">
        <ele>147</ele>
        <time>2013-09-01T08:34:10.528Z</time>
      </trkpt>
      <trkpt lat="47.46306" lon="0.86944">
        <ele>148</ele>
        <time>2013-09-01T08:34:11.539Z</time>
      </trkpt>
      <trkpt lat="47.46302" lon="0.86936">
        <ele>149</ele>
        <time>2013-09-01T08:34:14.530Z</time>
      </trkpt>
      <trkpt lat="47.463" lon="0.86933">
        <ele>149</ele>
        <time>2013-09-01T08:34:15.532Z</time>
      </trkpt>
      <trkpt lat="47.46295" lon="0.86925">
        <ele>150</ele>
        <time>2013-09-01T08:34:18.516Z</time>
      </trkpt>
      <trkpt lat="47.46293" lon="0.86923">
        <ele>150</ele>
        <time>2013-09-01T08:34:19.523Z</time>
      </trkpt>
      <trkpt lat="47.46288" lon="0.86912">
        <ele>150</ele>
        <time>2013-09-01T08:34:22.492Z</time>
      </trkpt>
      <trkpt lat="47.46287" lon="0.8691">
        <ele>150</ele>
        <time>2013-09-01T08:34:23.485Z</time>
      </trkpt>
      <trkpt lat="47.46282" lon="0.86901">
        <ele>151</ele>
        <time>2013-09-01T08:34:26.570Z</time>
      </trkpt>
      <trkpt lat="47.4628" lon="0.86897">
        <ele>151</ele>
        <time>2013-09-01T08:34:27.528Z</time>
      </trkpt>
      <trkpt lat="47.46275" lon="0.86888">
        <ele>151</ele>
        <time>2013-09-01T08:34:30.504Z</time>
      </trkpt>
      <trkpt lat="47.46274" lon="0.86884">
        <ele>152</ele>
        <time>2013-09-01T08:34:31.528Z</time>
      </trkpt>
      <trkpt lat="47.4627" lon="0.86873">
        <ele>152</ele>
        <time>2013-09-01T08:34:35.532Z</time>
      </trkpt>
      <trkpt lat="47.46268" lon="0.86869">
        <ele>152</ele>
        <time>2013-09-01T08:34:36.527Z</time>
      </trkpt>
      <trkpt lat="47.46262" lon="0.86863">
        <ele>152</ele>
        <time>2013-09-01T08:34:40.518Z</time>
      </trkpt>
      <trkpt lat="47.4626" lon="0.86861">
        <ele>152</ele>
        <time>2013-09-01T08:34:41.527Z</time>
      </trkpt>
      <trkpt lat="47.46254" lon="0.86854">
        <ele>153</ele>
        <time>2013-09-01T08:34:45.541Z</time>
      </trkpt>
      <trkpt lat="47.46251" lon="0.86852">
        <ele>153</ele>
        <time>2013-09-01T08:34:46.523Z</time>
      </trkpt>
      <trkpt lat="47.46245" lon="0.86848">
        <ele>153</ele>
        <time>2013-09-01T08:34:50.518Z</time>
      </trkpt>
      <trkpt lat="47.46243" lon="0.86846">
        <ele>153</ele>
        <time>2013-09-01T08:34:51.527Z</time>
      </trkpt>
      <trkpt lat="47.46236" lon="0.86843">
        <ele>153</ele>
        <time>2013-09-01T08:34:54.519Z</time>
      </trkpt>
      <trkpt lat="47.46234" lon="0.86842">
        <ele>153</ele>
        <time>2013-09-01T08:34:55.534Z</time>
      </trkpt>
      <trkpt lat="47.46227" lon="0.86837">
        <ele>153</ele>
        <time>2013-09-01T08:34:59.499Z</time>
      </trkpt>
      <trkpt lat="47.46225" lon="0.86837">
        <ele>153</ele>
        <time>2013-09-01T08:35:00.517Z</time>
      </trkpt>
      <trkpt lat="47.46217" lon="0.86833">
        <ele>153</ele>
        <time>2013-09-01T08:35:03.534Z</time>
      </trkpt>
      <trkpt lat="47.46215" lon="0.86833">
        <ele>153</ele>
        <time>2013-09-01T08:35:04.482Z</time>
      </trkpt>
      <trkpt lat="47.46209" lon="0.86829">
        <ele>154</ele>
        <time>2013-09-01T08:35:07.531Z</time>
      </trkpt>
      <trkpt lat="47.46206" lon="0.86828">
        <ele>154</ele>
        <time>2013-09-01T08:35:08.544Z</time>
      </trkpt>
      <trkpt lat="47.462" lon="0.86824">
        <ele>154</ele>
        <time>2013-09-01T08:35:11.514Z</time>
      </trkpt>
      <trkpt lat="47.46197" lon="0.86824">
        <ele>154</ele>
        <time>2013-09-01T08:35:12.535Z</time>
      </trkpt>
      <trkpt lat="47.4619" lon="0.8682">
        <ele>154</ele>
        <time>2013-09-01T08:35:15.557Z</time>
      </trkpt>
      <trkpt lat="47.46188" lon="0.86818">
        <ele>154</ele>
        <time>2013-09-01T08:35:16.516Z</time>
      </trkpt>
      <trkpt lat="47.46182" lon="0.86811">
        <ele>153</ele>
        <time>2013-09-01T08:35:19.514Z</time>
      </trkpt>
      <trkpt lat="47.4618" lon="0.86809">
        <ele>153</ele>
        <time>2013-09-01T08:35:20.480Z</time>
      </trkpt>
      <trkpt lat="47.46172" lon="0.86803">
        <ele>153</ele>
        <time>2013-09-01T08:35:23.476Z</time>
      </trkpt>
      <trkpt lat="47.4617" lon="0.86801">
        <ele>153</ele>
        <time>2013-09-01T08:35:24.485Z</time>
      </trkpt>
      <trkpt lat="47.46162" lon="0.86796">
        <ele>153</ele>
        <time>2013-09-01T08:35:27.517Z</time>
      </trkpt>
      <trkpt lat="47.4616" lon="0.86794">
        <ele>152</ele>
        <time>2013-09-01T08:35:28.484Z</time>
      </trkpt>
      <trkpt lat="47.46155" lon="0.86788">
        <ele>152</ele>
        <time>2013-09-01T08:35:30.530Z</time>
      </trkpt>
      <trkpt lat="47.46152" lon="0.86785">
        <ele>152</ele>
        <time>2013-09-01T08:35:31.536Z</time>
      </trkpt>
      <trkpt lat="47.46146" lon="0.86777">
        <ele>151</ele>
        <time>2013-09-01T08:35:34.507Z</time>
      </trkpt>
      <trkpt lat="47.46144" lon="0.86775">
        <ele>152</ele>
        <time>2013-09-01T08:35:35.538Z</time>
      </trkpt>
      <trkpt lat="47.46137" lon="0.86771">
        <ele>153</ele>
        <time>2013-09-01T08:35:38.535Z</time>
      </trkpt>
      <trkpt lat="47.46134" lon="0.86768">
        <ele>153</ele>
        <time>2013-09-01T08:35:39.463Z</time>
      </trkpt>
      <trkpt lat="47.46129" lon="0.86762">
        <ele>154</ele>
        <time>2013-09-01T08:35:41.522Z</time>
      </trkpt>
      <trkpt lat="47.46127" lon="0.8676">
        <ele>154</ele>
        <time>2013-09-01T08:35:42.516Z</time>
      </trkpt>
      <trkpt lat="47.46119" lon="0.86756">
        <ele>154</ele>
        <time>2013-09-01T08:35:45.522Z</time>
      </trkpt>
      <trkpt lat="47.46117" lon="0.86753">
        <ele>154</ele>
        <time>2013-09-01T08:35:46.525Z</time>
      </trkpt>
      <trkpt lat="47.46112" lon="0.86749">
        <ele>154</ele>
        <time>2013-09-01T08:35:48.493Z</time>
      </trkpt>
      <trkpt lat="47.46109" lon="0.86747">
        <ele>155</ele>
        <time>2013-09-01T08:35:49.486Z</time>
      </trkpt>
      <trkpt lat="47.46104" lon="0.86741">
        <ele>155</ele>
        <time>2013-09-01T08:35:51.513Z</time>
      </trkpt>
      <trkpt lat="47.46101" lon="0.86738">
        <ele>155</ele>
        <time>2013-09-01T08:35:52.529Z</time>
      </trkpt>
      <trkpt lat="47.46096" lon="0.86732">
        <ele>155</ele>
        <time>2013-09-01T08:35:54.480Z</time>
      </trkpt>
      <trkpt lat="47.46093" lon="0.8673">
        <ele>155</ele>
        <time>2013-09-01T08:35:55.491Z</time>
      </trkpt>
      <trkpt lat="47.46087" lon="0.86723">
        <ele>155</ele>
        <time>2013-09-01T08:35:57.535Z</time>
      </trkpt>
      <trkpt lat="47.46085" lon="0.86719">
        <ele>155</ele>
        <time>2013-09-01T08:35:58.543Z</time>
      </trkpt>
      <trkpt lat="47.4608" lon="0.86712">
        <ele>155</ele>
        <time>2013-09-01T08:36:00.516Z</time>
      </trkpt>
      <trkpt lat="47.46078" lon="0.86708">
        <ele>155</ele>
        <time>2013-09-01T08:36:01.527Z</time>
      </trkpt>
      <trkpt lat="47.46071" lon="0.867">
        <ele>155</ele>
        <time>2013-09-01T08:36:03.535Z</time>
      </trkpt>
      <trkpt lat="47.46069" lon="0.86695">
        <ele>155</ele>
        <time>2013-09-01T08:36:04.484Z</time>
      </trkpt>
      <trkpt lat="47.46063" lon="0.86687">
        <ele>155</ele>
        <time>2013-09-01T08:36:06.535Z</time>
      </trkpt>
      <trkpt lat="47.46059" lon="0.86683">
        <ele>155</ele>
        <time>2013-09-01T08:36:07.542Z</time>
      </trkpt>
      <trkpt lat="47.46056" lon="0.86678">
        <ele>155</ele>
        <time>2013-09-01T08:36:08.542Z</time>
      </trkpt>
      <trkpt lat="47.46052" lon="0.86674">
        <ele>155</ele>
        <time>2013-09-01T08:36:09.482Z</time>
      </trkpt>
      <trkpt lat="47.46048" lon="0.8667">
        <ele>155</ele>
        <time>2013-09-01T08:36:10.483Z</time>
      </trkpt>
      <trkpt lat="47.46044" lon="0.86665">
        <ele>154</ele>
        <time>2013-09-01T08:36:11.492Z</time>
      </trkpt>
      <trkpt lat="47.46041" lon="0.86659">
        <ele>154</ele>
        <time>2013-09-01T08:36:12.508Z</time>
      </trkpt>
      <trkpt lat="47.46038" lon="0.86653">
        <ele>154</ele>
        <time>2013-09-01T08:36:13.577Z</time>
      </trkpt>
      <trkpt lat="47.46035" lon="0.86648">
        <ele>153</ele>
        <time>2013-09-01T08:36:14.484Z</time>
      </trkpt>
      <trkpt lat="47.46032" lon="0.8664">
        <ele>153</ele>
        <time>2013-09-01T08:36:15.553Z</time>
      </trkpt>
      <trkpt lat="47.46031" lon="0.86633">
        <ele>152</ele>
        <time>2013-09-01T08:36:16.538Z</time>
      </trkpt>
      <trkpt lat="47.46031" lon="0.86625">
        <ele>152</ele>
        <time>2013-09-01T08:36:17.503Z</time>
      </trkpt>
      <trkpt lat="47.46032" lon="0.86616">
        <ele>153</ele>
        <time>2013-09-01T08:36:18.517Z</time>
      </trkpt>
      <trkpt lat="47.46033" lon="0.86611">
        <ele>153</ele>
        <time>2013-09-01T08:36:19.531Z</time>
      </trkpt>
      <trkpt lat="47.46036" lon="0.86601">
        <ele>154</ele>
        <time>2013-09-01T08:36:21.499Z</time>
      </trkpt>
      <trkpt lat="47.46038" lon="0.86597">
        <ele>154</ele>
        <time>2013-09-01T08:36:22.529Z</time>
      </trkpt>
      <trkpt lat="47.46041" lon="0.86588">
        <ele>155</ele>
        <time>2013-09-01T08:36:24.531Z</time>
      </trkpt>
      <trkpt lat="47.46043" lon="0.86584">
        <ele>155</ele>
        <time>2013-09-01T08:36:25.537Z</time>
      </trkpt>
      <trkpt lat="47.46046" lon="0.86575">
        <ele>156</ele>
        <time>2013-09-01T08:36:27.474Z</time>
      </trkpt>
      <trkpt lat="47.46048" lon="0.86571">
        <ele>156</ele>
        <time>2013-09-01T08:36:28.488Z</time>
      </trkpt>
      <trkpt lat="47.46051" lon="0.86562">
        <ele>157</ele>
        <time>2013-09-01T08:36:30.505Z</time>
      </trkpt>
      <trkpt lat="47.46053" lon="0.86558">
        <ele>157</ele>
        <time>2013-09-01T08:36:31.481Z</time>
      </trkpt>
      <trkpt lat="47.46056" lon="0.8655">
        <ele>156</ele>
        <time>2013-09-01T08:36:33.521Z</time>
      </trkpt>
      <trkpt lat="47.46058" lon="0.86545">
        <ele>156</ele>
        <time>2013-09-01T08:36:34.508Z</time>
      </trkpt>
      <trkpt lat="47.46061" lon="0.86537">
        <ele>156</ele>
        <time>2013-09-01T08:36:36.524Z</time>
      </trkpt>
      <trkpt lat="47.46062" lon="0.86532">
        <ele>155</ele>
        <time>2013-09-01T08:36:37.541Z</time>
      </trkpt>
      <trkpt lat="47.46066" lon="0.86522">
        <ele>155</ele>
        <time>2013-09-01T08:36:40.532Z</time>
      </trkpt>
      <trkpt lat="47.46068" lon="0.86515">
        <ele>154</ele>
        <time>2013-09-01T08:36:41.533Z</time>
      </trkpt>
      <trkpt lat="47.4607" lon="0.86507">
        <ele>154</ele>
        <time>2013-09-01T08:36:43.562Z</time>
      </trkpt>
      <trkpt lat="47.46072" lon="0.86502">
        <ele>154</ele>
        <time>2013-09-01T08:36:44.490Z</time>
      </trkpt>
      <trkpt lat="47.46074" lon="0.86491">
        <ele>154</ele>
        <time>2013-09-01T08:36:46.544Z</time>
      </trkpt>
      <trkpt lat="47.46075" lon="0.86485">
        <ele>153</ele>
        <time>2013-09-01T08:36:47.590Z</time>
      </trkpt>
      <trkpt lat="47.4608" lon="0.86475">
        <ele>154</ele>
        <time>2013-09-01T08:36:50.540Z</time>
      </trkpt>
      <trkpt lat="47.46082" lon="0.8647">
        <ele>154</ele>
        <time>2013-09-01T08:36:51.544Z</time>
      </trkpt>
      <trkpt lat="47.46083" lon="0.86462">
        <ele>155</ele>
        <time>2013-09-01T08:36:53.479Z</time>
      </trkpt>
      <trkpt lat="47.46084" lon="0.86457">
        <ele>155</ele>
        <time>2013-09-01T08:36:54.527Z</time>
      </trkpt>
      <trkpt lat="47.46085" lon="0.86446">
        <ele>155</ele>
        <time>2013-09-01T08:36:56.535Z</time>
      </trkpt>
      <trkpt lat="47.46085" lon="0.8644">
        <ele>155</ele>
        <time>2013-09-01T08:36:57.624Z</time>
      </trkpt>
      <trkpt lat="47.46084" lon="0.86429">
        <ele>155</ele>
        <time>2013-09-01T08:36:59.501Z</time>
      </trkpt>
      <trkpt lat="47.46082" lon="0.86423">
        <ele>155</ele>
        <time>2013-09-01T08:37:00.549Z</time>
      </trkpt>
      <trkpt lat="47.4608" lon="0.86417">
        <ele>154</ele>
        <time>2013-09-01T08:37:01.543Z</time>
      </trkpt>
      <trkpt lat="47.46076" lon="0.86412">
        <ele>154</ele>
        <time>2013-09-01T08:37:02.475Z</time>
      </trkpt>
      <trkpt lat="47.46071" lon="0.86408">
        <ele>154</ele>
        <time>2013-09-01T08:37:03.464Z</time>
      </trkpt>
      <trkpt lat="47.46066" lon="0.86404">
        <ele>153</ele>
        <time>2013-09-01T08:37:04.500Z</time>
      </trkpt>
      <trkpt lat="47.46061" lon="0.86401">
        <ele>153</ele>
        <time>2013-09-01T08:37:05.521Z</time>
      </trkpt>
      <trkpt lat="47.46055" lon="0.86401">
        <ele>153</ele>
        <time>2013-09-01T08:37:06.552Z</time>
      </trkpt>
      <trkpt lat="47.46049" lon="0.86399">
        <ele>153</ele>
        <time>2013-09-01T08:37:07.540Z</time>
      </trkpt>
      <trkpt lat="47.46044" lon="0.86399">
        <ele>153</ele>
        <time>2013-09-01T08:37:08.508Z</time>
      </trkpt>
      <trkpt lat="47.46039" lon="0.86401">
        <ele>153</ele>
        <time>2013-09-01T08:37:09.493Z</time>
      </trkpt>
      <trkpt lat="47.46033" lon="0.86404">
        <ele>153</ele>
        <time>2013-09-01T08:37:10.548Z</time>
      </trkpt>
      <trkpt lat="47.46025" lon="0.86408">
        <ele>152</ele>
        <time>2013-09-01T08:37:12.493Z</time>
      </trkpt>
      <trkpt lat="47.46021" lon="0.86412">
        <ele>152</ele>
        <time>2013-09-01T08:37:13.534Z</time>
      </trkpt>
      <trkpt lat="47.46013" lon="0.86415">
        <ele>152</ele>
        <time>2013-09-01T08:37:15.502Z</time>
      </trkpt>
      <trkpt lat="47.46009" lon="0.86414">
        <ele>152</ele>
        <time>2013-09-01T08:37:16.536Z</time>
      </trkpt>
      <trkpt lat="47.46005" lon="0.86416">
        <ele>152</ele>
        <time>2013-09-01T08:37:17.538Z</time>
      </trkpt>
      <trkpt lat="47.46" lon="0.86419">
        <ele>152</ele>
        <time>2013-09-01T08:37:18.546Z</time>
      </trkpt>
      <trkpt lat="47.45992" lon="0.86419">
        <ele>152</ele>
        <time>2013-09-01T08:37:20.477Z</time>
      </trkpt>
      <trkpt lat="47.45986" lon="0.86419">
        <ele>152</ele>
        <time>2013-09-01T08:37:21.483Z</time>
      </trkpt>
      <trkpt lat="47.45978" lon="0.86419">
        <ele>153</ele>
        <time>2013-09-01T08:37:23.498Z</time>
      </trkpt>
      <trkpt lat="47.45973" lon="0.86417">
        <ele>152</ele>
        <time>2013-09-01T08:37:24.488Z</time>
      </trkpt>
      <trkpt lat="47.45968" lon="0.86414">
        <ele>152</ele>
        <time>2013-09-01T08:37:25.500Z</time>
      </trkpt>
      <trkpt lat="47.45964" lon="0.86412">
        <ele>152</ele>
        <time>2013-09-01T08:37:26.483Z</time>
      </trkpt>
      <trkpt lat="47.45958" lon="0.8641">
        <ele>152</ele>
        <time>2013-09-01T08:37:27.499Z</time>
      </trkpt>
      <trkpt lat="47.45954" lon="0.86406">
        <ele>152</ele>
        <time>2013-09-01T08:37:28.533Z</time>
      </trkpt>
      <trkpt lat="47.45946" lon="0.86399">
        <ele>153</ele>
        <time>2013-09-01T08:37:30.523Z</time>
      </trkpt>
      <trkpt lat="47.45942" lon="0.86395">
        <ele>152</ele>
        <time>2013-09-01T08:37:31.522Z</time>
      </trkpt>
      <trkpt lat="47.45936" lon="0.86386">
        <ele>152</ele>
        <time>2013-09-01T08:37:33.609Z</time>
      </trkpt>
      <trkpt lat="47.45934" lon="0.86382">
        <ele>152</ele>
        <time>2013-09-01T08:37:34.583Z</time>
      </trkpt>
      <trkpt lat="47.45927" lon="0.86374">
        <ele>153</ele>
        <time>2013-09-01T08:37:36.508Z</time>
      </trkpt>
      <trkpt lat="47.45925" lon="0.86369">
        <ele>153</ele>
        <time>2013-09-01T08:37:37.540Z</time>
      </trkpt>
      <trkpt lat="47.45919" lon="0.86361">
        <ele>153</ele>
        <time>2013-09-01T08:37:39.490Z</time>
      </trkpt>
      <trkpt lat="47.45916" lon="0.86356">
        <ele>153</ele>
        <time>2013-09-01T08:37:40.493Z</time>
      </trkpt>
      <trkpt lat="47.45912" lon="0.8635">
        <ele>154</ele>
        <time>2013-09-01T08:37:41.535Z</time>
      </trkpt>
      <trkpt lat="47.45909" lon="0.86346">
        <ele>154</ele>
        <time>2013-09-01T08:37:42.535Z</time>
      </trkpt>
      <trkpt lat="47.45904" lon="0.86339">
        <ele>154</ele>
        <time>2013-09-01T08:37:44.516Z</time>
      </trkpt>
      <trkpt lat="47.459" lon="0.86335">
        <ele>154</ele>
        <time>2013-09-01T08:37:45.546Z</time>
      </trkpt>
      <trkpt lat="47.45896" lon="0.86326">
        <ele>155</ele>
        <time>2013-09-01T08:37:47.533Z</time>
      </trkpt>
      <trkpt lat="47.45893" lon="0.86322">
        <ele>155</ele>
        <time>2013-09-01T08:37:48.498Z</time>
      </trkpt>
      <trkpt lat="47.45888" lon="0.86311">
        <ele>156</ele>
        <time>2013-09-01T08:37:50.486Z</time>
      </trkpt>
      <trkpt lat="47.45884" lon="0.86307">
        <ele>156</ele>
        <time>2013-09-01T08:37:51.513Z</time>
      </trkpt>
      <trkpt lat="47.45879" lon="0.86298">
        <ele>157</ele>
        <time>2013-09-01T08:37:53.532Z</time>
      </trkpt>
      <trkpt lat="47.45877" lon="0.86292">
        <ele>157</ele>
        <time>2013-09-01T08:37:54.507Z</time>
      </trkpt>
      <trkpt lat="47.45872" lon="0.86283">
        <ele>157</ele>
        <time>2013-09-01T08:37:56.532Z</time>
      </trkpt>
      <trkpt lat="47.45871" lon="0.86279">
        <ele>158</ele>
        <time>2013-09-01T08:37:57.534Z</time>
      </trkpt>
      <trkpt lat="47.45865" lon="0.86268">
        <ele>157</ele>
        <time>2013-09-01T08:37:59.491Z</time>
      </trkpt>
      <trkpt lat="47.45863" lon="0.86262">
        <ele>157</ele>
        <time>2013-09-01T08:38:00.490Z</time>
      </trkpt>
      <trkpt lat="47.4586" lon="0.86256">
        <ele>157</ele>
        <time>2013-09-01T08:38:01.489Z</time>
      </trkpt>
      <trkpt lat="47.45858" lon="0.86251">
        <ele>157</ele>
        <time>2013-09-01T08:38:02.513Z</time>
      </trkpt>
      <trkpt lat="47.45855" lon="0.86245">
        <ele>157</ele>
        <time>2013-09-01T08:38:03.551Z</time>
      </trkpt>
      <trkpt lat="47.45853" lon="0.86238">
        <ele>157</ele>
        <time>2013-09-01T08:38:04.545Z</time>
      </trkpt>
      <trkpt lat="47.4585" lon="0.86232">
        <ele>158</ele>
        <time>2013-09-01T08:38:05.536Z</time>
      </trkpt>
      <trkpt lat="47.45848" lon="0.86228">
        <ele>157</ele>
        <time>2013-09-01T08:38:06.539Z</time>
      </trkpt>
      <trkpt lat="47.45845" lon="0.86221">
        <ele>157</ele>
        <time>2013-09-01T08:38:07.539Z</time>
      </trkpt>
      <trkpt lat="47.45843" lon="0.86215">
        <ele>157</ele>
        <time>2013-09-01T08:38:08.559Z</time>
      </trkpt>
      <trkpt lat="47.4584" lon="0.86208">
        <ele>156</ele>
        <time>2013-09-01T08:38:09.528Z</time>
      </trkpt>
      <trkpt lat="47.45837" lon="0.86204">
        <ele>156</ele>
        <time>2013-09-01T08:38:10.549Z</time>
      </trkpt>
      <trkpt lat="47.45834" lon="0.86198">
        <ele>157</ele>
        <time>2013-09-01T08:38:11.546Z</time>
      </trkpt>
      <trkpt lat="47.45831" lon="0.86191">
        <ele>157</ele>
        <time>2013-09-01T08:38:12.526Z</time>
      </trkpt>
      <trkpt lat="47.45829" lon="0.86185">
        <ele>157</ele>
        <time>2013-09-01T08:38:13.543Z</time>
      </trkpt>
      <trkpt lat="47.45826" lon="0.8618">
        <ele>157</ele>
        <time>2013-09-01T08:38:14.533Z</time>
      </trkpt>
      <trkpt lat="47.45821" lon="0.86174">
        <ele>157</ele>
        <time>2013-09-01T08:38:15.533Z</time>
      </trkpt>
      <trkpt lat="47.45818" lon="0.8617">
        <ele>157</ele>
        <time>2013-09-01T08:38:16.505Z</time>
      </trkpt>
      <trkpt lat="47.45815" lon="0.86163">
        <ele>157</ele>
        <time>2013-09-01T08:38:17.539Z</time>
      </trkpt>
      <trkpt lat="47.4581" lon="0.86159">
        <ele>156</ele>
        <time>2013-09-01T08:38:18.520Z</time>
      </trkpt>
      <trkpt lat="47.45807" lon="0.86153">
        <ele>156</ele>
        <time>2013-09-01T08:38:19.541Z</time>
      </trkpt>
      <trkpt lat="47.45804" lon="0.86148">
        <ele>156</ele>
        <time>2013-09-01T08:38:20.539Z</time>
      </trkpt>
      <trkpt lat="47.458" lon="0.86142">
        <ele>155</ele>
        <time>2013-09-01T08:38:21.580Z</time>
      </trkpt>
      <trkpt lat="47.45797" lon="0.86137">
        <ele>155</ele>
        <time>2013-09-01T08:38:22.532Z</time>
      </trkpt>
      <trkpt lat="47.45793" lon="0.86131">
        <ele>155</ele>
        <time>2013-09-01T08:38:23.496Z</time>
      </trkpt>
      <trkpt lat="47.45789" lon="0.86127">
        <ele>155</ele>
        <time>2013-09-01T08:38:24.553Z</time>
      </trkpt>
      <trkpt lat="47.45786" lon="0.86121">
        <ele>155</ele>
        <time>2013-09-01T08:38:25.541Z</time>
      </trkpt>
      <trkpt lat="47.45781" lon="0.86114">
        <ele>155</ele>
        <time>2013-09-01T08:38:26.536Z</time>
      </trkpt>
      <trkpt lat="47.45778" lon="0.86108">
        <ele>155</ele>
        <time>2013-09-01T08:38:27.534Z</time>
      </trkpt>
      <trkpt lat="47.45775" lon="0.86103">
        <ele>155</ele>
        <time>2013-09-01T08:38:28.519Z</time>
      </trkpt>
      <trkpt lat="47.45772" lon="0.86097">
        <ele>155</ele>
        <time>2013-09-01T08:38:29.491Z</time>
      </trkpt>
      <trkpt lat="47.45769" lon="0.8609">
        <ele>155</ele>
        <time>2013-09-01T08:38:30.483Z</time>
      </trkpt>
      <trkpt lat="47.45766" lon="0.86086">
        <ele>154</ele>
        <time>2013-09-01T08:38:31.513Z</time>
      </trkpt>
      <trkpt lat="47.45763" lon="0.8608">
        <ele>154</ele>
        <time>2013-09-01T08:38:32.515Z</time>
      </trkpt>
      <trkpt lat="47.4576" lon="0.86073">
        <ele>154</ele>
        <time>2013-09-01T08:38:33.535Z</time>
      </trkpt>
      <trkpt lat="47.45757" lon="0.86067">
        <ele>155</ele>
        <time>2013-09-01T08:38:34.551Z</time>
      </trkpt>
      <trkpt lat="47.45754" lon="0.8606">
        <ele>155</ele>
        <time>2013-09-01T08:38:35.539Z</time>
      </trkpt>
      <trkpt lat="47.45751" lon="0.86054">
        <ele>155</ele>
        <time>2013-09-01T08:38:36.537Z</time>
      </trkpt>
      <trkpt lat="47.45748" lon="0.86047">
        <ele>155</ele>
        <time>2013-09-01T08:38:37.539Z</time>
      </trkpt>
      <trkpt lat="47.45746" lon="0.86041">
        <ele>155</ele>
        <time>2013-09-01T08:38:38.601Z</time>
      </trkpt>
      <trkpt lat="47.45742" lon="0.8603">
        <ele>154</ele>
        <time>2013-09-01T08:38:40.543Z</time>
      </trkpt>
      <trkpt lat="47.4574" lon="0.86024">
        <ele>154</ele>
        <time>2013-09-01T08:38:41.547Z</time>
      </trkpt>
      <trkpt lat="47.45735" lon="0.86015">
        <ele>154</ele>
        <time>2013-09-01T08:38:43.553Z</time>
      </trkpt>
      <trkpt lat="47.45733" lon="0.86011">
        <ele>154</ele>
        <time>2013-09-01T08:38:44.495Z</time>
      </trkpt>
      <trkpt lat="47.4573" lon="0.86002">
        <ele>154</ele>
        <time>2013-09-01T08:38:46.540Z</time>
      </trkpt>
      <trkpt lat="47.45728" lon="0.85998">
        <ele>154</ele>
        <time>2013-09-01T08:38:47.537Z</time>
      </trkpt>
      <trkpt lat="47.45725" lon="0.85987">
        <ele>154</ele>
        <time>2013-09-01T08:38:49.493Z</time>
      </trkpt>
      <trkpt lat="47.45723" lon="0.85983">
        <ele>154</ele>
        <time>2013-09-01T08:38:50.515Z</time>
      </trkpt>
      <trkpt lat="47.4572" lon="0.85973">
        <ele>154</ele>
        <time>2013-09-01T08:38:52.538Z</time>
      </trkpt>
      <trkpt lat="47.45718" lon="0.85968">
        <ele>154</ele>
        <time>2013-09-01T08:38:53.554Z</time>
      </trkpt>
      <trkpt lat="47.45714" lon="0.85957">
        <ele>154</ele>
        <time>2013-09-01T08:38:55.514Z</time>
      </trkpt>
      <trkpt lat="47.45712" lon="0.85951">
        <ele>153</ele>
        <time>2013-09-01T08:38:56.527Z</time>
      </trkpt>
      <trkpt lat="47.4571" lon="0.85945">
        <ele>153</ele>
        <time>2013-09-01T08:38:57.489Z</time>
      </trkpt>
      <trkpt lat="47.45707" lon="0.85938">
        <ele>153</ele>
        <time>2013-09-01T08:38:58.496Z</time>
      </trkpt>
      <trkpt lat="47.45705" lon="0.85932">
        <ele>153</ele>
        <time>2013-09-01T08:38:59.484Z</time>
      </trkpt>
      <trkpt lat="47.45702" lon="0.85925">
        <ele>152</ele>
        <time>2013-09-01T08:39:00.520Z</time>
      </trkpt>
      <trkpt lat="47.45698" lon="0.85914">
        <ele>151</ele>
        <time>2013-09-01T08:39:02.508Z</time>
      </trkpt>
      <trkpt lat="47.45697" lon="0.85908">
        <ele>151</ele>
        <time>2013-09-01T08:39:03.543Z</time>
      </trkpt>
      <trkpt lat="47.45694" lon="0.85901">
        <ele>150</ele>
        <time>2013-09-01T08:39:06.490Z</time>
      </trkpt>
      <trkpt lat="47.45694" lon="0.85901">
        <ele>150</ele>
        <time>2013-09-01T08:39:07.490Z</time>
      </trkpt>
      <trkpt lat="47.45694" lon="0.85901">
        <ele>150</ele>
        <time>2013-09-01T08:39:15.605Z</time>
      </trkpt>
      <trkpt lat="47.45694" lon="0.85903">
        <ele>150</ele>
        <time>2013-09-01T08:39:16.491Z</time>
      </trkpt>
      <trkpt lat="47.45694" lon="0.85904">
        <ele>150</ele>
        <time>2013-09-01T08:39:18.518Z</time>
      </trkpt>
      <trkpt lat="47.45694" lon="0.85904">
        <ele>150</ele>
        <time>2013-09-01T08:39:19.549Z</time>
      </trkpt>
      <trkpt lat="47.45694" lon="0.85904">
        <ele>149</ele>
        <time>2013-09-01T08:39:46.520Z</time>
      </trkpt>
      <trkpt lat="47.45695" lon="0.85904">
        <ele>149</ele>
        <time>2013-09-01T08:39:47.545Z</time>
      </trkpt>
      <trkpt lat="47.45696" lon="0.85904">
        <ele>149</ele>
        <time>2013-09-01T08:39:48.552Z</time>
      </trkpt>
      <trkpt lat="47.45696" lon="0.85904">
        <ele>149</ele>
        <time>2013-09-01T08:39:49.497Z</time>
      </trkpt>
      <trkpt lat="47.45696" lon="0.85904">
        <ele>149</ele>
        <time>2013-09-01T08:40:07.537Z</time>
      </trkpt>
      <trkpt lat="47.45695" lon="0.85905">
        <ele>149</ele>
        <time>2013-09-01T08:40:08.558Z</time>
      </trkpt>
      <trkpt lat="47.45695" lon="0.85906">
        <ele>149</ele>
        <time>2013-09-01T08:40:09.501Z</time>
      </trkpt>
      <trkpt lat="47.45695" lon="0.85906">
        <ele>149</ele>
        <time>2013-09-01T08:40:10.541Z</time>
      </trkpt>
      <trkpt lat="47.45696" lon="0.85906">
        <ele>150</ele>
        <time>2013-09-01T08:40:42.540Z</time>
      </trkpt>
      <trkpt lat="47.45695" lon="0.85906">
        <ele>150</ele>
        <time>2013-09-01T08:40:43.543Z</time>
      </trkpt>
      <trkpt lat="47.45694" lon="0.85906">
        <ele>150</ele>
        <time>2013-09-01T08:40:44.527Z</time>
      </trkpt>
      <trkpt lat="47.45694" lon="0.85906">
        <ele>150</ele>
        <time>2013-09-01T08:40:45.534Z</time>
      </trkpt>
      <trkpt lat="47.45694" lon="0.85906">
        <ele>152</ele>
        <time>2013-09-01T08:41:56.493Z</time>
      </trkpt>
      <trkpt lat="47.45694" lon="0.85904">
        <ele>153</ele>
        <time>2013-09-01T08:41:57.493Z</time>
      </trkpt>
      <trkpt lat="47.45694" lon="0.85893">
        <ele>153</ele>
        <time>2013-09-01T08:42:01.498Z</time>
      </trkpt>
      <trkpt lat="47.45693" lon="0.85889">
        <ele>153</ele>
        <time>2013-09-01T08:42:02.531Z</time>
      </trkpt>
      <trkpt lat="47.45691" lon="0.85876">
        <ele>153</ele>
        <time>2013-09-01T08:42:05.493Z</time>
      </trkpt>
      <trkpt lat="47.4569" lon="0.85871">
        <ele>152</ele>
        <time>2013-09-01T08:42:06.493Z</time>
      </trkpt>
      <trkpt lat="47.45688" lon="0.85861">
        <ele>151</ele>
        <time>2013-09-01T08:42:08.496Z</time>
      </trkpt>
      <trkpt lat="47.45688" lon="0.85854">
        <ele>151</ele>
        <time>2013-09-01T08:42:09.496Z</time>
      </trkpt>
      <trkpt lat="47.45686" lon="0.85844">
        <ele>151</ele>
        <time>2013-09-01T08:42:11.523Z</time>
      </trkpt>
      <trkpt lat="47.45685" lon="0.85835">
        <ele>151</ele>
        <time>2013-09-01T08:42:12.495Z</time>
      </trkpt>
      <trkpt lat="47.45684" lon="0.85828">
        <ele>150</ele>
        <time>2013-09-01T08:42:13.558Z</time>
      </trkpt>
      <trkpt lat="47.45683" lon="0.8582">
        <ele>150</ele>
        <time>2013-09-01T08:42:14.543Z</time>
      </trkpt>
      <trkpt lat="47.45681" lon="0.85813">
        <ele>150</ele>
        <time>2013-09-01T08:42:15.546Z</time>
      </trkpt>
      <trkpt lat="47.45678" lon="0.85805">
        <ele>149</ele>
        <time>2013-09-01T08:42:16.550Z</time>
      </trkpt>
      <trkpt lat="47.45676" lon="0.85796">
        <ele>149</ele>
        <time>2013-09-01T08:42:17.549Z</time>
      </trkpt>
      <trkpt lat="47.45673" lon="0.85788">
        <ele>149</ele>
        <time>2013-09-01T08:42:18.549Z</time>
      </trkpt>
      <trkpt lat="47.4567" lon="0.85779">
        <ele>149</ele>
        <time>2013-09-01T08:42:19.509Z</time>
      </trkpt>
      <trkpt lat="47.45667" lon="0.85771">
        <ele>148</ele>
        <time>2013-09-01T08:42:20.523Z</time>
      </trkpt>
      <trkpt lat="47.45663" lon="0.85762">
        <ele>148</ele>
        <time>2013-09-01T08:42:21.545Z</time>
      </trkpt>
      <trkpt lat="47.45661" lon="0.85753">
        <ele>147</ele>
        <time>2013-09-01T08:42:22.543Z</time>
      </trkpt>
      <trkpt lat="47.45659" lon="0.85745">
        <ele>147</ele>
        <time>2013-09-01T08:42:23.494Z</time>
      </trkpt>
      <trkpt lat="47.45656" lon="0.85736">
        <ele>147</ele>
        <time>2013-09-01T08:42:24.563Z</time>
      </trkpt>
      <trkpt lat="47.45654" lon="0.8573">
        <ele>147</ele>
        <time>2013-09-01T08:42:25.558Z</time>
      </trkpt>
      <trkpt lat="47.45651" lon="0.85721">
        <ele>147</ele>
        <time>2013-09-01T08:42:26.562Z</time>
      </trkpt>
      <trkpt lat="47.45647" lon="0.85715">
        <ele>146</ele>
        <time>2013-09-01T08:42:27.509Z</time>
      </trkpt>
      <trkpt lat="47.45645" lon="0.85708">
        <ele>146</ele>
        <time>2013-09-01T08:42:28.509Z</time>
      </trkpt>
      <trkpt lat="47.45643" lon="0.85702">
        <ele>146</ele>
        <time>2013-09-01T08:42:29.562Z</time>
      </trkpt>
      <trkpt lat="47.4564" lon="0.85696">
        <ele>146</ele>
        <time>2013-09-01T08:42:30.524Z</time>
      </trkpt>
      <trkpt lat="47.45637" lon="0.85687">
        <ele>145</ele>
        <time>2013-09-01T08:42:31.518Z</time>
      </trkpt>
      <trkpt lat="47.45635" lon="0.8568">
        <ele>145</ele>
        <time>2013-09-01T08:42:32.497Z</time>
      </trkpt>
      <trkpt lat="47.45631" lon="0.85672">
        <ele>144</ele>
        <time>2013-09-01T08:42:33.504Z</time>
      </trkpt>
      <trkpt lat="47.45628" lon="0.85665">
        <ele>143</ele>
        <time>2013-09-01T08:42:34.555Z</time>
      </trkpt>
      <trkpt lat="47.45625" lon="0.85657">
        <ele>142</ele>
        <time>2013-09-01T08:42:35.562Z</time>
      </trkpt>
      <trkpt lat="47.45622" lon="0.85648">
        <ele>141</ele>
        <time>2013-09-01T08:42:36.553Z</time>
      </trkpt>
      <trkpt lat="47.45618" lon="0.8564">
        <ele>139</ele>
        <time>2013-09-01T08:42:38.503Z</time>
      </trkpt>
      <trkpt lat="47.45616" lon="0.85637">
        <ele>139</ele>
        <time>2013-09-01T08:42:39.496Z</time>
      </trkpt>
      <trkpt lat="47.4561" lon="0.85633">
        <ele>138</ele>
        <time>2013-09-01T08:42:41.518Z</time>
      </trkpt>
      <trkpt lat="47.45606" lon="0.85633">
        <ele>137</ele>
        <time>2013-09-01T08:42:42.543Z</time>
      </trkpt>
      <trkpt lat="47.45601" lon="0.85633">
        <ele>136</ele>
        <time>2013-09-01T08:42:43.540Z</time>
      </trkpt>
      <trkpt lat="47.45596" lon="0.85633">
        <ele>135</ele>
        <time>2013-09-01T08:42:44.556Z</time>
      </trkpt>
      <trkpt lat="47.45591" lon="0.85631">
        <ele>134</ele>
        <time>2013-09-01T08:42:45.545Z</time>
      </trkpt>
      <trkpt lat="47.45584" lon="0.85627">
        <ele>133</ele>
        <time>2013-09-01T08:42:46.542Z</time>
      </trkpt>
      <trkpt lat="47.45579" lon="0.85625">
        <ele>132</ele>
        <time>2013-09-01T08:42:47.542Z</time>
      </trkpt>
      <trkpt lat="47.45572" lon="0.85622">
        <ele>132</ele>
        <time>2013-09-01T08:42:48.546Z</time>
      </trkpt>
      <trkpt lat="47.45567" lon="0.85618">
        <ele>131</ele>
        <time>2013-09-01T08:42:49.596Z</time>
      </trkpt>
      <trkpt lat="47.45561" lon="0.85614">
        <ele>131</ele>
        <time>2013-09-01T08:42:50.510Z</time>
      </trkpt>
      <trkpt lat="47.45554" lon="0.85612">
        <ele>130</ele>
        <time>2013-09-01T08:42:51.549Z</time>
      </trkpt>
      <trkpt lat="47.45547" lon="0.85608">
        <ele>131</ele>
        <time>2013-09-01T08:42:52.548Z</time>
      </trkpt>
      <trkpt lat="47.45539" lon="0.85605">
        <ele>132</ele>
        <time>2013-09-01T08:42:53.550Z</time>
      </trkpt>
      <trkpt lat="47.45532" lon="0.85601">
        <ele>133</ele>
        <time>2013-09-01T08:42:54.556Z</time>
      </trkpt>
      <trkpt lat="47.45524" lon="0.85597">
        <ele>133</ele>
        <time>2013-09-01T08:42:55.503Z</time>
      </trkpt>
      <trkpt lat="47.45517" lon="0.85593">
        <ele>135</ele>
        <time>2013-09-01T08:42:56.493Z</time>
      </trkpt>
      <trkpt lat="47.45509" lon="0.8559">
        <ele>137</ele>
        <time>2013-09-01T08:42:57.504Z</time>
      </trkpt>
      <trkpt lat="47.45502" lon="0.85586">
        <ele>140</ele>
        <time>2013-09-01T08:42:58.534Z</time>
      </trkpt>
      <trkpt lat="47.45498" lon="0.85584">
        <ele>142</ele>
        <time>2013-09-01T08:42:59.488Z</time>
      </trkpt>
      <trkpt lat="47.45494" lon="0.8558">
        <ele>143</ele>
        <time>2013-09-01T08:43:00.597Z</time>
      </trkpt>
      <trkpt lat="47.45494" lon="0.85567">
        <ele>143</ele>
        <time>2013-09-01T08:43:04.546Z</time>
      </trkpt>
      <trkpt lat="47.45497" lon="0.85563">
        <ele>143</ele>
        <time>2013-09-01T08:43:05.507Z</time>
      </trkpt>
      <trkpt lat="47.45499" lon="0.85552">
        <ele>143</ele>
        <time>2013-09-01T08:43:07.543Z</time>
      </trkpt>
      <trkpt lat="47.45499" lon="0.85547">
        <ele>141</ele>
        <time>2013-09-01T08:43:08.551Z</time>
      </trkpt>
      <trkpt lat="47.45498" lon="0.85535">
        <ele>141</ele>
        <time>2013-09-01T08:43:11.502Z</time>
      </trkpt>
      <trkpt lat="47.45498" lon="0.8553">
        <ele>139</ele>
        <time>2013-09-01T08:43:12.506Z</time>
      </trkpt>
      <trkpt lat="47.45501" lon="0.85519">
        <ele>140</ele>
        <time>2013-09-01T08:43:14.555Z</time>
      </trkpt>
      <trkpt lat="47.45502" lon="0.85515">
        <ele>140</ele>
        <time>2013-09-01T08:43:15.547Z</time>
      </trkpt>
      <trkpt lat="47.45505" lon="0.85505">
        <ele>142</ele>
        <time>2013-09-01T08:43:18.517Z</time>
      </trkpt>
      <trkpt lat="47.45507" lon="0.855">
        <ele>142</ele>
        <time>2013-09-01T08:43:19.538Z</time>
      </trkpt>
      <trkpt lat="47.4551" lon="0.85492">
        <ele>140</ele>
        <time>2013-09-01T08:43:21.537Z</time>
      </trkpt>
      <trkpt lat="47.45511" lon="0.85487">
        <ele>138</ele>
        <time>2013-09-01T08:43:22.538Z</time>
      </trkpt>
      <trkpt lat="47.45514" lon="0.85476">
        <ele>141</ele>
        <time>2013-09-01T08:43:25.533Z</time>
      </trkpt>
      <trkpt lat="47.45515" lon="0.85472">
        <ele>140</ele>
        <time>2013-09-01T08:43:26.536Z</time>
      </trkpt>
      <trkpt lat="47.45518" lon="0.85461">
        <ele>140</ele>
        <time>2013-09-01T08:43:30.484Z</time>
      </trkpt>
      <trkpt lat="47.4552" lon="0.85457">
        <ele>140</ele>
        <time>2013-09-01T08:43:31.493Z</time>
      </trkpt>
      <trkpt lat="47.45523" lon="0.85447">
        <ele>140</ele>
        <time>2013-09-01T08:43:34.514Z</time>
      </trkpt>
      <trkpt lat="47.45524" lon="0.85444">
        <ele>140</ele>
        <time>2013-09-01T08:43:35.567Z</time>
      </trkpt>
      <trkpt lat="47.45527" lon="0.85434">
        <ele>140</ele>
        <time>2013-09-01T08:43:38.509Z</time>
      </trkpt>
      <trkpt lat="47.45528" lon="0.8543">
        <ele>140</ele>
        <time>2013-09-01T08:43:39.542Z</time>
      </trkpt>
      <trkpt lat="47.45531" lon="0.85419">
        <ele>141</ele>
        <time>2013-09-01T08:43:42.484Z</time>
      </trkpt>
      <trkpt lat="47.45532" lon="0.85414">
        <ele>142</ele>
        <time>2013-09-01T08:43:43.496Z</time>
      </trkpt>
      <trkpt lat="47.45535" lon="0.85404">
        <ele>143</ele>
        <time>2013-09-01T08:43:46.509Z</time>
      </trkpt>
      <trkpt lat="47.45537" lon="0.85401">
        <ele>141</ele>
        <time>2013-09-01T08:43:47.549Z</time>
      </trkpt>
      <trkpt lat="47.45539" lon="0.85389">
        <ele>141</ele>
        <time>2013-09-01T08:43:50.543Z</time>
      </trkpt>
      <trkpt lat="47.45541" lon="0.85386">
        <ele>141</ele>
        <time>2013-09-01T08:43:51.551Z</time>
      </trkpt>
      <trkpt lat="47.45543" lon="0.85374">
        <ele>141</ele>
        <time>2013-09-01T08:43:54.532Z</time>
      </trkpt>
      <trkpt lat="47.45545" lon="0.85371">
        <ele>142</ele>
        <time>2013-09-01T08:43:55.544Z</time>
      </trkpt>
      <trkpt lat="47.45549" lon="0.85361">
        <ele>140</ele>
        <time>2013-09-01T08:43:58.531Z</time>
      </trkpt>
      <trkpt lat="47.4555" lon="0.85357">
        <ele>141</ele>
        <time>2013-09-01T08:43:59.523Z</time>
      </trkpt>
      <trkpt lat="47.45553" lon="0.85348">
        <ele>140</ele>
        <time>2013-09-01T08:44:02.481Z</time>
      </trkpt>
      <trkpt lat="47.45554" lon="0.85344">
        <ele>140</ele>
        <time>2013-09-01T08:44:03.474Z</time>
      </trkpt>
      <trkpt lat="47.45556" lon="0.85335">
        <ele>140</ele>
        <time>2013-09-01T08:44:06.527Z</time>
      </trkpt>
      <trkpt lat="47.45557" lon="0.85331">
        <ele>140</ele>
        <time>2013-09-01T08:44:07.524Z</time>
      </trkpt>
      <trkpt lat="47.45559" lon="0.8532">
        <ele>141</ele>
        <time>2013-09-01T08:44:10.524Z</time>
      </trkpt>
      <trkpt lat="47.45559" lon="0.85316">
        <ele>141</ele>
        <time>2013-09-01T08:44:11.526Z</time>
      </trkpt>
      <trkpt lat="47.45563" lon="0.85307">
        <ele>141</ele>
        <time>2013-09-01T08:44:14.532Z</time>
      </trkpt>
      <trkpt lat="47.45563" lon="0.85303">
        <ele>141</ele>
        <time>2013-09-01T08:44:15.543Z</time>
      </trkpt>
      <trkpt lat="47.45556" lon="0.85298">
        <ele>142</ele>
        <time>2013-09-01T08:44:20.540Z</time>
      </trkpt>
      <trkpt lat="47.45553" lon="0.85301">
        <ele>142</ele>
        <time>2013-09-01T08:44:21.487Z</time>
      </trkpt>
      <trkpt lat="47.45546" lon="0.85303">
        <ele>143</ele>
        <time>2013-09-01T08:44:23.502Z</time>
      </trkpt>
      <trkpt lat="47.45543" lon="0.85305">
        <ele>143</ele>
        <time>2013-09-01T08:44:24.550Z</time>
      </trkpt>
      <trkpt lat="47.45536" lon="0.85307">
        <ele>143</ele>
        <time>2013-09-01T08:44:26.597Z</time>
      </trkpt>
      <trkpt lat="47.45533" lon="0.85307">
        <ele>143</ele>
        <time>2013-09-01T08:44:27.551Z</time>
      </trkpt>
      <trkpt lat="47.45525" lon="0.85309">
        <ele>143</ele>
        <time>2013-09-01T08:44:29.557Z</time>
      </trkpt>
      <trkpt lat="47.45522" lon="0.85311">
        <ele>143</ele>
        <time>2013-09-01T08:44:30.560Z</time>
      </trkpt>
      <trkpt lat="47.45514" lon="0.85312">
        <ele>142</ele>
        <time>2013-09-01T08:44:32.531Z</time>
      </trkpt>
      <trkpt lat="47.45511" lon="0.85313">
        <ele>143</ele>
        <time>2013-09-01T08:44:33.566Z</time>
      </trkpt>
      <trkpt lat="47.45504" lon="0.85316">
        <ele>143</ele>
        <time>2013-09-01T08:44:35.649Z</time>
      </trkpt>
      <trkpt lat="47.455" lon="0.85316">
        <ele>143</ele>
        <time>2013-09-01T08:44:36.559Z</time>
      </trkpt>
      <trkpt lat="47.45493" lon="0.85318">
        <ele>143</ele>
        <time>2013-09-01T08:44:38.495Z</time>
      </trkpt>
      <trkpt lat="47.45489" lon="0.85318">
        <ele>143</ele>
        <time>2013-09-01T08:44:39.528Z</time>
      </trkpt>
      <trkpt lat="47.45483" lon="0.8532">
        <ele>143</ele>
        <time>2013-09-01T08:44:41.503Z</time>
      </trkpt>
      <trkpt lat="47.4548" lon="0.8532">
        <ele>143</ele>
        <time>2013-09-01T08:44:42.558Z</time>
      </trkpt>
      <trkpt lat="47.45474" lon="0.8532">
        <ele>143</ele>
        <time>2013-09-01T08:44:44.498Z</time>
      </trkpt>
      <trkpt lat="47.4547" lon="0.85318">
        <ele>143</ele>
        <time>2013-09-01T08:44:45.528Z</time>
      </trkpt>
      <trkpt lat="47.45464" lon="0.85318">
        <ele>143</ele>
        <time>2013-09-01T08:44:47.533Z</time>
      </trkpt>
      <trkpt lat="47.45462" lon="0.85314">
        <ele>143</ele>
        <time>2013-09-01T08:44:48.571Z</time>
      </trkpt>
      <trkpt lat="47.45465" lon="0.85303">
        <ele>145</ele>
        <time>2013-09-01T08:44:53.534Z</time>
      </trkpt>
      <trkpt lat="47.45469" lon="0.85305">
        <ele>145</ele>
        <time>2013-09-01T08:44:54.541Z</time>
      </trkpt>
      <trkpt lat="47.45476" lon="0.85305">
        <ele>145</ele>
        <time>2013-09-01T08:44:56.537Z</time>
      </trkpt>
      <trkpt lat="47.45479" lon="0.85307">
        <ele>144</ele>
        <time>2013-09-01T08:44:57.542Z</time>
      </trkpt>
      <trkpt lat="47.45486" lon="0.85307">
        <ele>145</ele>
        <time>2013-09-01T08:44:59.496Z</time>
      </trkpt>
      <trkpt lat="47.4549" lon="0.85305">
        <ele>144</ele>
        <time>2013-09-01T08:45:00.549Z</time>
      </trkpt>
      <trkpt lat="47.45496" lon="0.85305">
        <ele>145</ele>
        <time>2013-09-01T08:45:02.558Z</time>
      </trkpt>
      <trkpt lat="47.45499" lon="0.85305">
        <ele>145</ele>
        <time>2013-09-01T08:45:03.558Z</time>
      </trkpt>
      <trkpt lat="47.45507" lon="0.85305">
        <ele>145</ele>
        <time>2013-09-01T08:45:06.538Z</time>
      </trkpt>
      <trkpt lat="47.4551" lon="0.85303">
        <ele>145</ele>
        <time>2013-09-01T08:45:07.551Z</time>
      </trkpt>
      <trkpt lat="47.45516" lon="0.85301">
        <ele>145</ele>
        <time>2013-09-01T08:45:09.600Z</time>
      </trkpt>
      <trkpt lat="47.4552" lon="0.85301">
        <ele>145</ele>
        <time>2013-09-01T08:45:10.555Z</time>
      </trkpt>
      <trkpt lat="47.45526" lon="0.85298">
        <ele>145</ele>
        <time>2013-09-01T08:45:12.543Z</time>
      </trkpt>
      <trkpt lat="47.45529" lon="0.85297">
        <ele>145</ele>
        <time>2013-09-01T08:45:13.545Z</time>
      </trkpt>
      <trkpt lat="47.45537" lon="0.85294">
        <ele>145</ele>
        <time>2013-09-01T08:45:16.545Z</time>
      </trkpt>
      <trkpt lat="47.45538" lon="0.85294">
        <ele>146</ele>
        <time>2013-09-01T08:45:17.549Z</time>
      </trkpt>
      <trkpt lat="47.45539" lon="0.85282">
        <ele>146</ele>
        <time>2013-09-01T08:45:20.595Z</time>
      </trkpt>
      <trkpt lat="47.4554" lon="0.85277">
        <ele>146</ele>
        <time>2013-09-01T08:45:21.515Z</time>
      </trkpt>
      <trkpt lat="47.45543" lon="0.85267">
        <ele>146</ele>
        <time>2013-09-01T08:45:23.499Z</time>
      </trkpt>
      <trkpt lat="47.45545" lon="0.85262">
        <ele>146</ele>
        <time>2013-09-01T08:45:24.518Z</time>
      </trkpt>
      <trkpt lat="47.45548" lon="0.85251">
        <ele>146</ele>
        <time>2013-09-01T08:45:26.541Z</time>
      </trkpt>
      <trkpt lat="47.4555" lon="0.85245">
        <ele>145</ele>
        <time>2013-09-01T08:45:27.564Z</time>
      </trkpt>
      <trkpt lat="47.45553" lon="0.85236">
        <ele>146</ele>
        <time>2013-09-01T08:45:29.498Z</time>
      </trkpt>
      <trkpt lat="47.45554" lon="0.8523">
        <ele>145</ele>
        <time>2013-09-01T08:45:30.525Z</time>
      </trkpt>
      <trkpt lat="47.45557" lon="0.85219">
        <ele>145</ele>
        <time>2013-09-01T08:45:32.524Z</time>
      </trkpt>
      <trkpt lat="47.45559" lon="0.85215">
        <ele>145</ele>
        <time>2013-09-01T08:45:33.519Z</time>
      </trkpt>
      <trkpt lat="47.45562" lon="0.85202">
        <ele>145</ele>
        <time>2013-09-01T08:45:35.551Z</time>
      </trkpt>
      <trkpt lat="47.45563" lon="0.85198">
        <ele>146</ele>
        <time>2013-09-01T08:45:36.500Z</time>
      </trkpt>
      <trkpt lat="47.45567" lon="0.85187">
        <ele>145</ele>
        <time>2013-09-01T08:45:38.536Z</time>
      </trkpt>
      <trkpt lat="47.45569" lon="0.85183">
        <ele>145</ele>
        <time>2013-09-01T08:45:39.561Z</time>
      </trkpt>
      <trkpt lat="47.45573" lon="0.85172">
        <ele>145</ele>
        <time>2013-09-01T08:45:41.558Z</time>
      </trkpt>
      <trkpt lat="47.45574" lon="0.85166">
        <ele>145</ele>
        <time>2013-09-01T08:45:42.555Z</time>
      </trkpt>
      <trkpt lat="47.45578" lon="0.85155">
        <ele>145</ele>
        <time>2013-09-01T08:45:44.513Z</time>
      </trkpt>
      <trkpt lat="47.4558" lon="0.8515">
        <ele>145</ele>
        <time>2013-09-01T08:45:45.566Z</time>
      </trkpt>
      <trkpt lat="47.45583" lon="0.8514">
        <ele>145</ele>
        <time>2013-09-01T08:45:47.565Z</time>
      </trkpt>
      <trkpt lat="47.45584" lon="0.85133">
        <ele>145</ele>
        <time>2013-09-01T08:45:48.556Z</time>
      </trkpt>
      <trkpt lat="47.45587" lon="0.85123">
        <ele>146</ele>
        <time>2013-09-01T08:45:50.503Z</time>
      </trkpt>
      <trkpt lat="47.45589" lon="0.85118">
        <ele>146</ele>
        <time>2013-09-01T08:45:51.554Z</time>
      </trkpt>
      <trkpt lat="47.45593" lon="0.85107">
        <ele>146</ele>
        <time>2013-09-01T08:45:53.561Z</time>
      </trkpt>
      <trkpt lat="47.45595" lon="0.85101">
        <ele>146</ele>
        <time>2013-09-01T08:45:54.553Z</time>
      </trkpt>
      <trkpt lat="47.45598" lon="0.85091">
        <ele>147</ele>
        <time>2013-09-01T08:45:56.553Z</time>
      </trkpt>
      <trkpt lat="47.45599" lon="0.85086">
        <ele>147</ele>
        <time>2013-09-01T08:45:57.549Z</time>
      </trkpt>
      <trkpt lat="47.456" lon="0.8508">
        <ele>147</ele>
        <time>2013-09-01T08:45:58.549Z</time>
      </trkpt>
      <trkpt lat="47.45602" lon="0.85073">
        <ele>148</ele>
        <time>2013-09-01T08:45:59.553Z</time>
      </trkpt>
      <trkpt lat="47.45606" lon="0.85063">
        <ele>148</ele>
        <time>2013-09-01T08:46:01.553Z</time>
      </trkpt>
      <trkpt lat="47.45608" lon="0.85058">
        <ele>148</ele>
        <time>2013-09-01T08:46:02.567Z</time>
      </trkpt>
      <trkpt lat="47.4561" lon="0.85045">
        <ele>148</ele>
        <time>2013-09-01T08:46:04.559Z</time>
      </trkpt>
      <trkpt lat="47.45612" lon="0.85041">
        <ele>148</ele>
        <time>2013-09-01T08:46:05.568Z</time>
      </trkpt>
      <trkpt lat="47.45613" lon="0.85035">
        <ele>148</ele>
        <time>2013-09-01T08:46:06.557Z</time>
      </trkpt>
      <trkpt lat="47.45615" lon="0.85028">
        <ele>148</ele>
        <time>2013-09-01T08:46:07.562Z</time>
      </trkpt>
      <trkpt lat="47.45619" lon="0.8502">
        <ele>149</ele>
        <time>2013-09-01T08:46:09.601Z</time>
      </trkpt>
      <trkpt lat="47.4562" lon="0.85013">
        <ele>149</ele>
        <time>2013-09-01T08:46:10.554Z</time>
      </trkpt>
      <trkpt lat="47.45623" lon="0.85002">
        <ele>150</ele>
        <time>2013-09-01T08:46:12.556Z</time>
      </trkpt>
      <trkpt lat="47.45625" lon="0.84996">
        <ele>150</ele>
        <time>2013-09-01T08:46:13.575Z</time>
      </trkpt>
      <trkpt lat="47.45628" lon="0.84985">
        <ele>149</ele>
        <time>2013-09-01T08:46:15.570Z</time>
      </trkpt>
      <trkpt lat="47.4563" lon="0.84979">
        <ele>149</ele>
        <time>2013-09-01T08:46:16.529Z</time>
      </trkpt>
      <trkpt lat="47.45631" lon="0.84972">
        <ele>150</ele>
        <time>2013-09-01T08:46:17.552Z</time>
      </trkpt>
      <trkpt lat="47.45633" lon="0.84966">
        <ele>150</ele>
        <time>2013-09-01T08:46:18.518Z</time>
      </trkpt>
      <trkpt lat="47.45637" lon="0.84955">
        <ele>150</ele>
        <time>2013-09-01T08:46:20.527Z</time>
      </trkpt>
      <trkpt lat="47.45638" lon="0.84951">
        <ele>150</ele>
        <time>2013-09-01T08:46:21.499Z</time>
      </trkpt>
      <trkpt lat="47.4564" lon="0.8494">
        <ele>149</ele>
        <time>2013-09-01T08:46:23.527Z</time>
      </trkpt>
      <trkpt lat="47.45641" lon="0.84934">
        <ele>150</ele>
        <time>2013-09-01T08:46:24.558Z</time>
      </trkpt>
      <trkpt lat="47.45644" lon="0.84923">
        <ele>150</ele>
        <time>2013-09-01T08:46:26.577Z</time>
      </trkpt>
      <trkpt lat="47.45646" lon="0.84919">
        <ele>150</ele>
        <time>2013-09-01T08:46:27.565Z</time>
      </trkpt>
      <trkpt lat="47.45649" lon="0.84908">
        <ele>149</ele>
        <time>2013-09-01T08:46:29.554Z</time>
      </trkpt>
      <trkpt lat="47.45651" lon="0.84902">
        <ele>149</ele>
        <time>2013-09-01T08:46:30.553Z</time>
      </trkpt>
      <trkpt lat="47.45646" lon="0.84893">
        <ele>150</ele>
        <time>2013-09-01T08:46:33.528Z</time>
      </trkpt>
      <trkpt lat="47.45643" lon="0.84893">
        <ele>150</ele>
        <time>2013-09-01T08:46:34.561Z</time>
      </trkpt>
      <trkpt lat="47.45636" lon="0.84893">
        <ele>150</ele>
        <time>2013-09-01T08:46:36.515Z</time>
      </trkpt>
      <trkpt lat="47.45631" lon="0.84893">
        <ele>150</ele>
        <time>2013-09-01T08:46:37.504Z</time>
      </trkpt>
      <trkpt lat="47.45624" lon="0.84889">
        <ele>149</ele>
        <time>2013-09-01T08:46:39.518Z</time>
      </trkpt>
      <trkpt lat="47.4562" lon="0.84889">
        <ele>149</ele>
        <time>2013-09-01T08:46:40.524Z</time>
      </trkpt>
      <trkpt lat="47.45613" lon="0.84883">
        <ele>149</ele>
        <time>2013-09-01T08:46:42.560Z</time>
      </trkpt>
      <trkpt lat="47.45612" lon="0.84878">
        <ele>149</ele>
        <time>2013-09-01T08:46:43.653Z</time>
      </trkpt>
      <trkpt lat="47.45612" lon="0.84867">
        <ele>149</ele>
        <time>2013-09-01T08:46:45.543Z</time>
      </trkpt>
      <trkpt lat="47.45613" lon="0.84861">
        <ele>149</ele>
        <time>2013-09-01T08:46:46.557Z</time>
      </trkpt>
      <trkpt lat="47.45614" lon="0.8485">
        <ele>148</ele>
        <time>2013-09-01T08:46:48.557Z</time>
      </trkpt>
      <trkpt lat="47.45614" lon="0.84846">
        <ele>148</ele>
        <time>2013-09-01T08:46:49.514Z</time>
      </trkpt>
      <trkpt lat="47.45615" lon="0.84835">
        <ele>149</ele>
        <time>2013-09-01T08:46:51.555Z</time>
      </trkpt>
      <trkpt lat="47.45615" lon="0.84831">
        <ele>149</ele>
        <time>2013-09-01T08:46:52.518Z</time>
      </trkpt>
      <trkpt lat="47.45616" lon="0.84818">
        <ele>150</ele>
        <time>2013-09-01T08:46:54.513Z</time>
      </trkpt>
      <trkpt lat="47.45616" lon="0.84811">
        <ele>150</ele>
        <time>2013-09-01T08:46:55.534Z</time>
      </trkpt>
      <trkpt lat="47.45616" lon="0.84801">
        <ele>151</ele>
        <time>2013-09-01T08:46:57.562Z</time>
      </trkpt>
      <trkpt lat="47.45616" lon="0.84796">
        <ele>152</ele>
        <time>2013-09-01T08:46:58.539Z</time>
      </trkpt>
      <trkpt lat="47.45616" lon="0.84786">
        <ele>153</ele>
        <time>2013-09-01T08:47:00.563Z</time>
      </trkpt>
      <trkpt lat="47.45616" lon="0.84781">
        <ele>153</ele>
        <time>2013-09-01T08:47:01.510Z</time>
      </trkpt>
      <trkpt lat="47.45616" lon="0.84771">
        <ele>154</ele>
        <time>2013-09-01T08:47:03.567Z</time>
      </trkpt>
      <trkpt lat="47.45617" lon="0.84764">
        <ele>154</ele>
        <time>2013-09-01T08:47:04.562Z</time>
      </trkpt>
      <trkpt lat="47.45618" lon="0.84754">
        <ele>155</ele>
        <time>2013-09-01T08:47:06.556Z</time>
      </trkpt>
      <trkpt lat="47.45618" lon="0.84749">
        <ele>155</ele>
        <time>2013-09-01T08:47:07.572Z</time>
      </trkpt>
      <trkpt lat="47.45618" lon="0.84736">
        <ele>154</ele>
        <time>2013-09-01T08:47:09.560Z</time>
      </trkpt>
      <trkpt lat="47.45618" lon="0.84732">
        <ele>154</ele>
        <time>2013-09-01T08:47:10.558Z</time>
      </trkpt>
      <trkpt lat="47.4562" lon="0.84721">
        <ele>155</ele>
        <time>2013-09-01T08:47:12.557Z</time>
      </trkpt>
      <trkpt lat="47.4562" lon="0.84715">
        <ele>155</ele>
        <time>2013-09-01T08:47:13.566Z</time>
      </trkpt>
      <trkpt lat="47.4562" lon="0.84704">
        <ele>154</ele>
        <time>2013-09-01T08:47:15.572Z</time>
      </trkpt>
      <trkpt lat="47.4562" lon="0.847">
        <ele>155</ele>
        <time>2013-09-01T08:47:16.558Z</time>
      </trkpt>
      <trkpt lat="47.45622" lon="0.84687">
        <ele>156</ele>
        <time>2013-09-01T08:47:19.565Z</time>
      </trkpt>
      <trkpt lat="47.45625" lon="0.84685">
        <ele>156</ele>
        <time>2013-09-01T08:47:20.628Z</time>
      </trkpt>
      <trkpt lat="47.4563" lon="0.84687">
        <ele>157</ele>
        <time>2013-09-01T08:47:22.554Z</time>
      </trkpt>
      <trkpt lat="47.45633" lon="0.84689">
        <ele>157</ele>
        <time>2013-09-01T08:47:23.509Z</time>
      </trkpt>
      <trkpt lat="47.45641" lon="0.84691">
        <ele>157</ele>
        <time>2013-09-01T08:47:25.569Z</time>
      </trkpt>
      <trkpt lat="47.45645" lon="0.84691">
        <ele>158</ele>
        <time>2013-09-01T08:47:26.555Z</time>
      </trkpt>
      <trkpt lat="47.45653" lon="0.84691">
        <ele>157</ele>
        <time>2013-09-01T08:47:28.502Z</time>
      </trkpt>
      <trkpt lat="47.45657" lon="0.84691">
        <ele>157</ele>
        <time>2013-09-01T08:47:29.516Z</time>
      </trkpt>
      <trkpt lat="47.45663" lon="0.84689">
        <ele>157</ele>
        <time>2013-09-01T08:47:31.598Z</time>
      </trkpt>
      <trkpt lat="47.45667" lon="0.84689">
        <ele>157</ele>
        <time>2013-09-01T08:47:32.559Z</time>
      </trkpt>
      <trkpt lat="47.45673" lon="0.84687">
        <ele>157</ele>
        <time>2013-09-01T08:47:34.549Z</time>
      </trkpt>
      <trkpt lat="47.45676" lon="0.84687">
        <ele>157</ele>
        <time>2013-09-01T08:47:35.509Z</time>
      </trkpt>
      <trkpt lat="47.45684" lon="0.84685">
        <ele>156</ele>
        <time>2013-09-01T08:47:37.522Z</time>
      </trkpt>
      <trkpt lat="47.45687" lon="0.84683">
        <ele>156</ele>
        <time>2013-09-01T08:47:38.565Z</time>
      </trkpt>
      <trkpt lat="47.45694" lon="0.84681">
        <ele>156</ele>
        <time>2013-09-01T08:47:40.503Z</time>
      </trkpt>
      <trkpt lat="47.45699" lon="0.8468">
        <ele>156</ele>
        <time>2013-09-01T08:47:41.557Z</time>
      </trkpt>
      <trkpt lat="47.45707" lon="0.84679">
        <ele>155</ele>
        <time>2013-09-01T08:47:43.509Z</time>
      </trkpt>
      <trkpt lat="47.45712" lon="0.84676">
        <ele>155</ele>
        <time>2013-09-01T08:47:44.558Z</time>
      </trkpt>
      <trkpt lat="47.4572" lon="0.84674">
        <ele>154</ele>
        <time>2013-09-01T08:47:46.514Z</time>
      </trkpt>
      <trkpt lat="47.45725" lon="0.84674">
        <ele>154</ele>
        <time>2013-09-01T08:47:47.594Z</time>
      </trkpt>
      <trkpt lat="47.45732" lon="0.8467">
        <ele>154</ele>
        <time>2013-09-01T08:47:49.572Z</time>
      </trkpt>
      <trkpt lat="47.45736" lon="0.8467">
        <ele>155</ele>
        <time>2013-09-01T08:47:50.567Z</time>
      </trkpt>
      <trkpt lat="47.45745" lon="0.84668">
        <ele>154</ele>
        <time>2013-09-01T08:47:52.532Z</time>
      </trkpt>
      <trkpt lat="47.45749" lon="0.84668">
        <ele>154</ele>
        <time>2013-09-01T08:47:53.514Z</time>
      </trkpt>
      <trkpt lat="47.45757" lon="0.84666">
        <ele>155</ele>
        <time>2013-09-01T08:47:55.574Z</time>
      </trkpt>
      <trkpt lat="47.45761" lon="0.84663">
        <ele>155</ele>
        <time>2013-09-01T08:47:56.564Z</time>
      </trkpt>
      <trkpt lat="47.45769" lon="0.84663">
        <ele>155</ele>
        <time>2013-09-01T08:47:58.515Z</time>
      </trkpt>
      <trkpt lat="47.45773" lon="0.84661">
        <ele>155</ele>
        <time>2013-09-01T08:47:59.503Z</time>
      </trkpt>
      <trkpt lat="47.4578" lon="0.84659">
        <ele>156</ele>
        <time>2013-09-01T08:48:01.527Z</time>
      </trkpt>
      <trkpt lat="47.45785" lon="0.84659">
        <ele>156</ele>
        <time>2013-09-01T08:48:02.557Z</time>
      </trkpt>
      <trkpt lat="47.45791" lon="0.84663">
        <ele>156</ele>
        <time>2013-09-01T08:48:04.560Z</time>
      </trkpt>
      <trkpt lat="47.45794" lon="0.84666">
        <ele>156</ele>
        <time>2013-09-01T08:48:05.511Z</time>
      </trkpt>
      <trkpt lat="47.45801" lon="0.84668">
        <ele>156</ele>
        <time>2013-09-01T08:48:07.515Z</time>
      </trkpt>
      <trkpt lat="47.45804" lon="0.84668">
        <ele>156</ele>
        <time>2013-09-01T08:48:08.503Z</time>
      </trkpt>
      <trkpt lat="47.4581" lon="0.84661">
        <ele>157</ele>
        <time>2013-09-01T08:48:11.563Z</time>
      </trkpt>
      <trkpt lat="47.45811" lon="0.84657">
        <ele>158</ele>
        <time>2013-09-01T08:48:12.572Z</time>
      </trkpt>
      <trkpt lat="47.45813" lon="0.84648">
        <ele>158</ele>
        <time>2013-09-01T08:48:14.562Z</time>
      </trkpt>
      <trkpt lat="47.45814" lon="0.84642">
        <ele>158</ele>
        <time>2013-09-01T08:48:15.602Z</time>
      </trkpt>
      <trkpt lat="47.45816" lon="0.84633">
        <ele>158</ele>
        <time>2013-09-01T08:48:17.564Z</time>
      </trkpt>
      <trkpt lat="47.45816" lon="0.84629">
        <ele>159</ele>
        <time>2013-09-01T08:48:18.573Z</time>
      </trkpt>
      <trkpt lat="47.45818" lon="0.8462">
        <ele>159</ele>
        <time>2013-09-01T08:48:20.567Z</time>
      </trkpt>
      <trkpt lat="47.45819" lon="0.84614">
        <ele>159</ele>
        <time>2013-09-01T08:48:21.509Z</time>
      </trkpt>
      <trkpt lat="47.45821" lon="0.84605">
        <ele>159</ele>
        <time>2013-09-01T08:48:23.545Z</time>
      </trkpt>
      <trkpt lat="47.45822" lon="0.84601">
        <ele>160</ele>
        <time>2013-09-01T08:48:24.559Z</time>
      </trkpt>
      <trkpt lat="47.45824" lon="0.8459">
        <ele>160</ele>
        <time>2013-09-01T08:48:26.611Z</time>
      </trkpt>
      <trkpt lat="47.45826" lon="0.84586">
        <ele>161</ele>
        <time>2013-09-01T08:48:27.559Z</time>
      </trkpt>
      <trkpt lat="47.45827" lon="0.84575">
        <ele>161</ele>
        <time>2013-09-01T08:48:29.558Z</time>
      </trkpt>
      <trkpt lat="47.45829" lon="0.84571">
        <ele>161</ele>
        <time>2013-09-01T08:48:30.564Z</time>
      </trkpt>
      <trkpt lat="47.45831" lon="0.84563">
        <ele>160</ele>
        <time>2013-09-01T08:48:32.559Z</time>
      </trkpt>
      <trkpt lat="47.45832" lon="0.84556">
        <ele>161</ele>
        <time>2013-09-01T08:48:33.551Z</time>
      </trkpt>
      <trkpt lat="47.45834" lon="0.84547">
        <ele>161</ele>
        <time>2013-09-01T08:48:35.532Z</time>
      </trkpt>
      <trkpt lat="47.45835" lon="0.84543">
        <ele>161</ele>
        <time>2013-09-01T08:48:36.573Z</time>
      </trkpt>
      <trkpt lat="47.45838" lon="0.84532">
        <ele>160</ele>
        <time>2013-09-01T08:48:38.513Z</time>
      </trkpt>
      <trkpt lat="47.45839" lon="0.84526">
        <ele>160</ele>
        <time>2013-09-01T08:48:39.509Z</time>
      </trkpt>
      <trkpt lat="47.45842" lon="0.84515">
        <ele>160</ele>
        <time>2013-09-01T08:48:41.516Z</time>
      </trkpt>
      <trkpt lat="47.45843" lon="0.84511">
        <ele>160</ele>
        <time>2013-09-01T08:48:42.559Z</time>
      </trkpt>
      <trkpt lat="47.45846" lon="0.845">
        <ele>159</ele>
        <time>2013-09-01T08:48:44.512Z</time>
      </trkpt>
      <trkpt lat="47.45847" lon="0.84494">
        <ele>159</ele>
        <time>2013-09-01T08:48:45.545Z</time>
      </trkpt>
      <trkpt lat="47.45849" lon="0.84483">
        <ele>159</ele>
        <time>2013-09-01T08:48:47.560Z</time>
      </trkpt>
      <trkpt lat="47.4585" lon="0.84479">
        <ele>159</ele>
        <time>2013-09-01T08:48:48.563Z</time>
      </trkpt>
      <trkpt lat="47.45853" lon="0.8447">
        <ele>159</ele>
        <time>2013-09-01T08:48:50.589Z</time>
      </trkpt>
      <trkpt lat="47.45854" lon="0.84464">
        <ele>159</ele>
        <time>2013-09-01T08:48:51.561Z</time>
      </trkpt>
      <trkpt lat="47.45855" lon="0.84455">
        <ele>158</ele>
        <time>2013-09-01T08:48:53.559Z</time>
      </trkpt>
      <trkpt lat="47.45856" lon="0.84451">
        <ele>158</ele>
        <time>2013-09-01T08:48:54.558Z</time>
      </trkpt>
      <trkpt lat="47.45863" lon="0.84444">
        <ele>158</ele>
        <time>2013-09-01T08:48:58.531Z</time>
      </trkpt>
      <trkpt lat="47.45865" lon="0.84444">
        <ele>159</ele>
        <time>2013-09-01T08:48:59.545Z</time>
      </trkpt>
      <trkpt lat="47.45871" lon="0.8444">
        <ele>159</ele>
        <time>2013-09-01T08:49:01.513Z</time>
      </trkpt>
      <trkpt lat="47.45872" lon="0.84434">
        <ele>159</ele>
        <time>2013-09-01T08:49:02.491Z</time>
      </trkpt>
      <trkpt lat="47.45872" lon="0.84421">
        <ele>159</ele>
        <time>2013-09-01T08:49:04.510Z</time>
      </trkpt>
      <trkpt lat="47.45873" lon="0.84416">
        <ele>159</ele>
        <time>2013-09-01T08:49:05.570Z</time>
      </trkpt>
      <trkpt lat="47.45875" lon="0.84406">
        <ele>159</ele>
        <time>2013-09-01T08:49:07.560Z</time>
      </trkpt>
      <trkpt lat="47.45876" lon="0.844">
        <ele>158</ele>
        <time>2013-09-01T08:49:08.568Z</time>
      </trkpt>
      <trkpt lat="47.45877" lon="0.84393">
        <ele>158</ele>
        <time>2013-09-01T08:49:09.508Z</time>
      </trkpt>
      <trkpt lat="47.45879" lon="0.84387">
        <ele>156</ele>
        <time>2013-09-01T08:49:10.509Z</time>
      </trkpt>
      <trkpt lat="47.4588" lon="0.84374">
        <ele>155</ele>
        <time>2013-09-01T08:49:12.562Z</time>
      </trkpt>
      <trkpt lat="47.45882" lon="0.84367">
        <ele>154</ele>
        <time>2013-09-01T08:49:13.561Z</time>
      </trkpt>
      <trkpt lat="47.45883" lon="0.84361">
        <ele>153</ele>
        <time>2013-09-01T08:49:14.555Z</time>
      </trkpt>
      <trkpt lat="47.45885" lon="0.84353">
        <ele>153</ele>
        <time>2013-09-01T08:49:15.565Z</time>
      </trkpt>
      <trkpt lat="47.45887" lon="0.84346">
        <ele>154</ele>
        <time>2013-09-01T08:49:16.512Z</time>
      </trkpt>
      <trkpt lat="47.45888" lon="0.84339">
        <ele>154</ele>
        <time>2013-09-01T08:49:17.516Z</time>
      </trkpt>
      <trkpt lat="47.45889" lon="0.84328">
        <ele>153</ele>
        <time>2013-09-01T08:49:19.506Z</time>
      </trkpt>
      <trkpt lat="47.45889" lon="0.84324">
        <ele>151</ele>
        <time>2013-09-01T08:49:20.568Z</time>
      </trkpt>
      <trkpt lat="47.45881" lon="0.8432">
        <ele>149</ele>
        <time>2013-09-01T08:49:23.531Z</time>
      </trkpt>
      <trkpt lat="47.45877" lon="0.84318">
        <ele>150</ele>
        <time>2013-09-01T08:49:24.570Z</time>
      </trkpt>
      <trkpt lat="47.45869" lon="0.84318">
        <ele>151</ele>
        <time>2013-09-01T08:49:26.605Z</time>
      </trkpt>
      <trkpt lat="47.45866" lon="0.84318">
        <ele>152</ele>
        <time>2013-09-01T08:49:27.550Z</time>
      </trkpt>
      <trkpt lat="47.4586" lon="0.84316">
        <ele>153</ele>
        <time>2013-09-01T08:49:29.554Z</time>
      </trkpt>
      <trkpt lat="47.45855" lon="0.84314">
        <ele>153</ele>
        <time>2013-09-01T08:49:30.545Z</time>
      </trkpt>
      <trkpt lat="47.45848" lon="0.84311">
        <ele>153</ele>
        <time>2013-09-01T08:49:32.511Z</time>
      </trkpt>
      <trkpt lat="47.45845" lon="0.84309">
        <ele>154</ele>
        <time>2013-09-01T08:49:33.516Z</time>
      </trkpt>
      <trkpt lat="47.45837" lon="0.84305">
        <ele>154</ele>
        <time>2013-09-01T08:49:35.526Z</time>
      </trkpt>
      <trkpt lat="47.45834" lon="0.84303">
        <ele>154</ele>
        <time>2013-09-01T08:49:36.510Z</time>
      </trkpt>
      <trkpt lat="47.45826" lon="0.84301">
        <ele>153</ele>
        <time>2013-09-01T08:49:38.555Z</time>
      </trkpt>
      <trkpt lat="47.45822" lon="0.84299">
        <ele>153</ele>
        <time>2013-09-01T08:49:39.523Z</time>
      </trkpt>
      <trkpt lat="47.45814" lon="0.84294">
        <ele>153</ele>
        <time>2013-09-01T08:49:41.506Z</time>
      </trkpt>
      <trkpt lat="47.4581" lon="0.84292">
        <ele>154</ele>
        <time>2013-09-01T08:49:42.527Z</time>
      </trkpt>
      <trkpt lat="47.45802" lon="0.84288">
        <ele>152</ele>
        <time>2013-09-01T08:49:44.504Z</time>
      </trkpt>
      <trkpt lat="47.45797" lon="0.84286">
        <ele>152</ele>
        <time>2013-09-01T08:49:45.549Z</time>
      </trkpt>
      <trkpt lat="47.45793" lon="0.84284">
        <ele>151</ele>
        <time>2013-09-01T08:49:46.503Z</time>
      </trkpt>
      <trkpt lat="47.45788" lon="0.84281">
        <ele>151</ele>
        <time>2013-09-01T08:49:47.513Z</time>
      </trkpt>
      <trkpt lat="47.45784" lon="0.84279">
        <ele>151</ele>
        <time>2013-09-01T08:49:48.512Z</time>
      </trkpt>
      <trkpt lat="47.45778" lon="0.84277">
        <ele>151</ele>
        <time>2013-09-01T08:49:49.578Z</time>
      </trkpt>
      <trkpt lat="47.45771" lon="0.84275">
        <ele>151</ele>
        <time>2013-09-01T08:49:51.551Z</time>
      </trkpt>
      <trkpt lat="47.45768" lon="0.84273">
        <ele>151</ele>
        <time>2013-09-01T08:49:52.549Z</time>
      </trkpt>
      <trkpt lat="47.45762" lon="0.84269">
        <ele>152</ele>
        <time>2013-09-01T08:49:54.544Z</time>
      </trkpt>
      <trkpt lat="47.4576" lon="0.84264">
        <ele>152</ele>
        <time>2013-09-01T08:49:55.573Z</time>
      </trkpt>
      <trkpt lat="47.45762" lon="0.84256">
        <ele>149</ele>
        <time>2013-09-01T08:49:57.747Z</time>
      </trkpt>
      <trkpt lat="47.45763" lon="0.84252">
        <ele>149</ele>
        <time>2013-09-01T08:49:58.535Z</time>
      </trkpt>
      <trkpt lat="47.45764" lon="0.84239">
        <ele>151</ele>
        <time>2013-09-01T08:50:00.521Z</time>
      </trkpt>
      <trkpt lat="47.45765" lon="0.84232">
        <ele>153</ele>
        <time>2013-09-01T08:50:01.568Z</time>
      </trkpt>
      <trkpt lat="47.45767" lon="0.84224">
        <ele>154</ele>
        <time>2013-09-01T08:50:02.519Z</time>
      </trkpt>
      <trkpt lat="47.45769" lon="0.84213">
        <ele>153</ele>
        <time>2013-09-01T08:50:03.570Z</time>
      </trkpt>
      <trkpt lat="47.45772" lon="0.84206">
        <ele>152</ele>
        <time>2013-09-01T08:50:04.575Z</time>
      </trkpt>
      <trkpt lat="47.45774" lon="0.84198">
        <ele>153</ele>
        <time>2013-09-01T08:50:05.558Z</time>
      </trkpt>
      <trkpt lat="47.45775" lon="0.84191">
        <ele>153</ele>
        <time>2013-09-01T08:50:06.537Z</time>
      </trkpt>
      <trkpt lat="47.45775" lon="0.84185">
        <ele>154</ele>
        <time>2013-09-01T08:50:07.564Z</time>
      </trkpt>
      <trkpt lat="47.45776" lon="0.84172">
        <ele>157</ele>
        <time>2013-09-01T08:50:10.544Z</time>
      </trkpt>
      <trkpt lat="47.45776" lon="0.84168">
        <ele>157</ele>
        <time>2013-09-01T08:50:11.552Z</time>
      </trkpt>
      <trkpt lat="47.4578" lon="0.84159">
        <ele>160</ele>
        <time>2013-09-01T08:50:14.572Z</time>
      </trkpt>
      <trkpt lat="47.45783" lon="0.84159">
        <ele>158</ele>
        <time>2013-09-01T08:50:15.628Z</time>
      </trkpt>
      <trkpt lat="47.45788" lon="0.84157">
        <ele>151</ele>
        <time>2013-09-01T08:50:16.556Z</time>
      </trkpt>
      <trkpt lat="47.45793" lon="0.84155">
        <ele>148</ele>
        <time>2013-09-01T08:50:17.547Z</time>
      </trkpt>
      <trkpt lat="47.458" lon="0.84158">
        <ele>144</ele>
        <time>2013-09-01T08:50:19.562Z</time>
      </trkpt>
      <trkpt lat="47.45802" lon="0.84159">
        <ele>143</ele>
        <time>2013-09-01T08:50:20.571Z</time>
      </trkpt>
      <trkpt lat="47.45804" lon="0.8417">
        <ele>146</ele>
        <time>2013-09-01T08:50:23.551Z</time>
      </trkpt>
      <trkpt lat="47.45804" lon="0.84174">
        <ele>148</ele>
        <time>2013-09-01T08:50:24.561Z</time>
      </trkpt>
      <trkpt lat="47.45803" lon="0.84175">
        <ele>152</ele>
        <time>2013-09-01T08:50:27.563Z</time>
      </trkpt>
      <trkpt lat="47.45804" lon="0.84174">
        <ele>154</ele>
        <time>2013-09-01T08:50:28.514Z</time>
      </trkpt>
      <trkpt lat="47.45804" lon="0.84172">
        <ele>157</ele>
        <time>2013-09-01T08:50:29.567Z</time>
      </trkpt>
      <trkpt lat="47.45811" lon="0.84169">
        <ele>155</ele>
        <time>2013-09-01T08:50:32.566Z</time>
      </trkpt>
      <trkpt lat="47.45814" lon="0.84166">
        <ele>156</ele>
        <time>2013-09-01T08:50:33.554Z</time>
      </trkpt>
      <trkpt lat="47.45811" lon="0.84158">
        <ele>158</ele>
        <time>2013-09-01T08:50:38.546Z</time>
      </trkpt>
      <trkpt lat="47.45808" lon="0.84153">
        <ele>156</ele>
        <time>2013-09-01T08:50:39.565Z</time>
      </trkpt>
      <trkpt lat="47.45805" lon="0.84147">
        <ele>156</ele>
        <time>2013-09-01T08:50:40.515Z</time>
      </trkpt>
      <trkpt lat="47.45803" lon="0.8414">
        <ele>156</ele>
        <time>2013-09-01T08:50:41.502Z</time>
      </trkpt>
      <trkpt lat="47.45808" lon="0.84131">
        <ele>156</ele>
        <time>2013-09-01T08:50:45.564Z</time>
      </trkpt>
      <trkpt lat="47.45814" lon="0.84131">
        <ele>152</ele>
        <time>2013-09-01T08:50:46.572Z</time>
      </trkpt>
      <trkpt lat="47.45818" lon="0.8413">
        <ele>151</ele>
        <time>2013-09-01T08:50:47.561Z</time>
      </trkpt>
      <trkpt lat="47.45822" lon="0.84126">
        <ele>144</ele>
        <time>2013-09-01T08:50:48.563Z</time>
      </trkpt>
      <trkpt lat="47.45829" lon="0.8412">
        <ele>147</ele>
        <time>2013-09-01T08:50:51.134Z</time>
      </trkpt>
      <trkpt lat="47.45832" lon="0.84122">
        <ele>146</ele>
        <time>2013-09-01T08:50:52.137Z</time>
      </trkpt>
      <trkpt lat="47.45838" lon="0.84124">
        <ele>145</ele>
        <time>2013-09-01T08:50:54.089Z</time>
      </trkpt>
      <trkpt lat="47.45841" lon="0.84127">
        <ele>145</ele>
        <time>2013-09-01T08:50:55.085Z</time>
      </trkpt>
      <trkpt lat="47.45847" lon="0.84131">
        <ele>145</ele>
        <time>2013-09-01T08:50:57.140Z</time>
      </trkpt>
      <trkpt lat="47.45849" lon="0.84133">
        <ele>146</ele>
        <time>2013-09-01T08:50:58.138Z</time>
      </trkpt>
      <trkpt lat="47.45855" lon="0.84139">
        <ele>146</ele>
        <time>2013-09-01T08:51:00.096Z</time>
      </trkpt>
      <trkpt lat="47.45859" lon="0.84142">
        <ele>146</ele>
        <time>2013-09-01T08:51:01.153Z</time>
      </trkpt>
      <trkpt lat="47.45865" lon="0.8415">
        <ele>151</ele>
        <time>2013-09-01T08:51:03.151Z</time>
      </trkpt>
      <trkpt lat="47.45868" lon="0.84153">
        <ele>152</ele>
        <time>2013-09-01T08:51:04.147Z</time>
      </trkpt>
      <trkpt lat="47.45874" lon="0.84159">
        <ele>153</ele>
        <time>2013-09-01T08:51:06.146Z</time>
      </trkpt>
      <trkpt lat="47.45877" lon="0.84162">
        <ele>153</ele>
        <time>2013-09-01T08:51:07.150Z</time>
      </trkpt>
      <trkpt lat="47.45882" lon="0.84165">
        <ele>154</ele>
        <time>2013-09-01T08:51:08.140Z</time>
      </trkpt>
      <trkpt lat="47.45886" lon="0.84168">
        <ele>155</ele>
        <time>2013-09-01T08:51:09.201Z</time>
      </trkpt>
      <trkpt lat="47.45892" lon="0.84172">
        <ele>157</ele>
        <time>2013-09-01T08:51:11.132Z</time>
      </trkpt>
      <trkpt lat="47.45895" lon="0.84174">
        <ele>158</ele>
        <time>2013-09-01T08:51:12.135Z</time>
      </trkpt>
      <trkpt lat="47.459" lon="0.84177">
        <ele>158</ele>
        <time>2013-09-01T08:51:14.169Z</time>
      </trkpt>
      <trkpt lat="47.45904" lon="0.84177">
        <ele>156</ele>
        <time>2013-09-01T08:51:15.171Z</time>
      </trkpt>
      <trkpt lat="47.45909" lon="0.84178">
        <ele>157</ele>
        <time>2013-09-01T08:51:16.152Z</time>
      </trkpt>
      <trkpt lat="47.45914" lon="0.8418">
        <ele>154</ele>
        <time>2013-09-01T08:51:17.105Z</time>
      </trkpt>
      <trkpt lat="47.45919" lon="0.84184">
        <ele>153</ele>
        <time>2013-09-01T08:51:18.097Z</time>
      </trkpt>
      <trkpt lat="47.45923" lon="0.84187">
        <ele>154</ele>
        <time>2013-09-01T08:51:19.149Z</time>
      </trkpt>
      <trkpt lat="47.45926" lon="0.84191">
        <ele>154</ele>
        <time>2013-09-01T08:51:20.152Z</time>
      </trkpt>
      <trkpt lat="47.4593" lon="0.84195">
        <ele>153</ele>
        <time>2013-09-01T08:51:21.130Z</time>
      </trkpt>
      <trkpt lat="47.45937" lon="0.84203">
        <ele>153</ele>
        <time>2013-09-01T08:51:23.108Z</time>
      </trkpt>
      <trkpt lat="47.4594" lon="0.84205">
        <ele>153</ele>
        <time>2013-09-01T08:51:24.099Z</time>
      </trkpt>
      <trkpt lat="47.45948" lon="0.84209">
        <ele>157</ele>
        <time>2013-09-01T08:51:27.219Z</time>
      </trkpt>
      <trkpt lat="47.45951" lon="0.8421">
        <ele>158</ele>
        <time>2013-09-01T08:51:28.083Z</time>
      </trkpt>
      <trkpt lat="47.45955" lon="0.84213">
        <ele>160</ele>
        <time>2013-09-01T08:51:29.091Z</time>
      </trkpt>
      <trkpt lat="47.4596" lon="0.84215">
        <ele>161</ele>
        <time>2013-09-01T08:51:30.122Z</time>
      </trkpt>
      <trkpt lat="47.45965" lon="0.84217">
        <ele>161</ele>
        <time>2013-09-01T08:51:31.085Z</time>
      </trkpt>
      <trkpt lat="47.45969" lon="0.84219">
        <ele>160</ele>
        <time>2013-09-01T08:51:32.080Z</time>
      </trkpt>
      <trkpt lat="47.45974" lon="0.84223">
        <ele>157</ele>
        <time>2013-09-01T08:51:33.102Z</time>
      </trkpt>
      <trkpt lat="47.45979" lon="0.84226">
        <ele>157</ele>
        <time>2013-09-01T08:51:34.083Z</time>
      </trkpt>
      <trkpt lat="47.45984" lon="0.84231">
        <ele>156</ele>
        <time>2013-09-01T08:51:35.108Z</time>
      </trkpt>
      <trkpt lat="47.45987" lon="0.84235">
        <ele>154</ele>
        <time>2013-09-01T08:51:36.101Z</time>
      </trkpt>
      <trkpt lat="47.45992" lon="0.84243">
        <ele>152</ele>
        <time>2013-09-01T08:51:38.096Z</time>
      </trkpt>
      <trkpt lat="47.45994" lon="0.84247">
        <ele>152</ele>
        <time>2013-09-01T08:51:39.095Z</time>
      </trkpt>
      <trkpt lat="47.46001" lon="0.84254">
        <ele>154</ele>
        <time>2013-09-01T08:51:42.110Z</time>
      </trkpt>
      <trkpt lat="47.46004" lon="0.84257">
        <ele>155</ele>
        <time>2013-09-01T08:51:43.136Z</time>
      </trkpt>
      <trkpt lat="47.4601" lon="0.84264">
        <ele>158</ele>
        <time>2013-09-01T08:51:46.092Z</time>
      </trkpt>
      <trkpt lat="47.46014" lon="0.84266">
        <ele>157</ele>
        <time>2013-09-01T08:51:47.115Z</time>
      </trkpt>
      <trkpt lat="47.46022" lon="0.84271">
        <ele>155</ele>
        <time>2013-09-01T08:51:50.087Z</time>
      </trkpt>
      <trkpt lat="47.46025" lon="0.84273">
        <ele>156</ele>
        <time>2013-09-01T08:51:51.114Z</time>
      </trkpt>
      <trkpt lat="47.46031" lon="0.84275">
        <ele>158</ele>
        <time>2013-09-01T08:51:53.141Z</time>
      </trkpt>
      <trkpt lat="47.46034" lon="0.84277">
        <ele>159</ele>
        <time>2013-09-01T08:51:54.136Z</time>
      </trkpt>
      <trkpt lat="47.46039" lon="0.84281">
        <ele>160</ele>
        <time>2013-09-01T08:51:56.095Z</time>
      </trkpt>
      <trkpt lat="47.46043" lon="0.84282">
        <ele>157</ele>
        <time>2013-09-01T08:51:57.085Z</time>
      </trkpt>
      <trkpt lat="47.4605" lon="0.84286">
        <ele>155</ele>
        <time>2013-09-01T08:51:59.116Z</time>
      </trkpt>
      <trkpt lat="47.46052" lon="0.84286">
        <ele>156</ele>
        <time>2013-09-01T08:52:00.104Z</time>
      </trkpt>
      <trkpt lat="47.46058" lon="0.84291">
        <ele>160</ele>
        <time>2013-09-01T08:52:03.146Z</time>
      </trkpt>
      <trkpt lat="47.4606" lon="0.84294">
        <ele>162</ele>
        <time>2013-09-01T08:52:04.087Z</time>
      </trkpt>
      <trkpt lat="47.46067" lon="0.84298">
        <ele>165</ele>
        <time>2013-09-01T08:52:07.095Z</time>
      </trkpt>
      <trkpt lat="47.4607" lon="0.84302">
        <ele>166</ele>
        <time>2013-09-01T08:52:08.153Z</time>
      </trkpt>
      <trkpt lat="47.46076" lon="0.84306">
        <ele>165</ele>
        <time>2013-09-01T08:52:10.144Z</time>
      </trkpt>
      <trkpt lat="47.46078" lon="0.84307">
        <ele>165</ele>
        <time>2013-09-01T08:52:11.136Z</time>
      </trkpt>
      <trkpt lat="47.46084" lon="0.84315">
        <ele>170</ele>
        <time>2013-09-01T08:52:15.159Z</time>
      </trkpt>
      <trkpt lat="47.46086" lon="0.84318">
        <ele>171</ele>
        <time>2013-09-01T08:52:16.136Z</time>
      </trkpt>
      <trkpt lat="47.46094" lon="0.84322">
        <ele>170</ele>
        <time>2013-09-01T08:52:19.144Z</time>
      </trkpt>
      <trkpt lat="47.46096" lon="0.84326">
        <ele>170</ele>
        <time>2013-09-01T08:52:20.142Z</time>
      </trkpt>
      <trkpt lat="47.46101" lon="0.84331">
        <ele>172</ele>
        <time>2013-09-01T08:52:22.106Z</time>
      </trkpt>
      <trkpt lat="47.46104" lon="0.84333">
        <ele>171</ele>
        <time>2013-09-01T08:52:23.114Z</time>
      </trkpt>
      <trkpt lat="47.4611" lon="0.84339">
        <ele>172</ele>
        <time>2013-09-01T08:52:26.132Z</time>
      </trkpt>
      <trkpt lat="47.46112" lon="0.84342">
        <ele>173</ele>
        <time>2013-09-01T08:52:27.102Z</time>
      </trkpt>
      <trkpt lat="47.46118" lon="0.84346">
        <ele>173</ele>
        <time>2013-09-01T08:52:29.088Z</time>
      </trkpt>
      <trkpt lat="47.46122" lon="0.84346">
        <ele>170</ele>
        <time>2013-09-01T08:52:30.096Z</time>
      </trkpt>
      <trkpt lat="47.46126" lon="0.84354">
        <ele>169</ele>
        <time>2013-09-01T08:52:33.118Z</time>
      </trkpt>
      <trkpt lat="47.46129" lon="0.84357">
        <ele>169</ele>
        <time>2013-09-01T08:52:34.109Z</time>
      </trkpt>
      <trkpt lat="47.46134" lon="0.84351">
        <ele>170</ele>
        <time>2013-09-01T08:52:42.115Z</time>
      </trkpt>
      <trkpt lat="47.46137" lon="0.84344">
        <ele>168</ele>
        <time>2013-09-01T08:52:43.145Z</time>
      </trkpt>
      <trkpt lat="47.4614" lon="0.84334">
        <ele>162</ele>
        <time>2013-09-01T08:52:44.094Z</time>
      </trkpt>
      <trkpt lat="47.46144" lon="0.84323">
        <ele>160</ele>
        <time>2013-09-01T08:52:45.102Z</time>
      </trkpt>
      <trkpt lat="47.46146" lon="0.84313">
        <ele>157</ele>
        <time>2013-09-01T08:52:46.147Z</time>
      </trkpt>
      <trkpt lat="47.46147" lon="0.84305">
        <ele>155</ele>
        <time>2013-09-01T08:52:47.150Z</time>
      </trkpt>
      <trkpt lat="47.46147" lon="0.84296">
        <ele>154</ele>
        <time>2013-09-01T08:52:48.134Z</time>
      </trkpt>
      <trkpt lat="47.46145" lon="0.8429">
        <ele>154</ele>
        <time>2013-09-01T08:52:49.142Z</time>
      </trkpt>
      <trkpt lat="47.46141" lon="0.84281">
        <ele>153</ele>
        <time>2013-09-01T08:52:50.229Z</time>
      </trkpt>
      <trkpt lat="47.46137" lon="0.84275">
        <ele>152</ele>
        <time>2013-09-01T08:52:51.115Z</time>
      </trkpt>
      <trkpt lat="47.46132" lon="0.84268">
        <ele>150</ele>
        <time>2013-09-01T08:52:52.143Z</time>
      </trkpt>
      <trkpt lat="47.46128" lon="0.84259">
        <ele>148</ele>
        <time>2013-09-01T08:52:53.158Z</time>
      </trkpt>
      <trkpt lat="47.46124" lon="0.84249">
        <ele>147</ele>
        <time>2013-09-01T08:52:54.136Z</time>
      </trkpt>
      <trkpt lat="47.4612" lon="0.84244">
        <ele>145</ele>
        <time>2013-09-01T08:52:55.150Z</time>
      </trkpt>
      <trkpt lat="47.46119" lon="0.84234">
        <ele>143</ele>
        <time>2013-09-01T08:52:58.085Z</time>
      </trkpt>
      <trkpt lat="47.46118" lon="0.8423">
        <ele>143</ele>
        <time>2013-09-01T08:52:59.111Z</time>
      </trkpt>
      <trkpt lat="47.4612" lon="0.84221">
        <ele>142</ele>
        <time>2013-09-01T08:53:02.141Z</time>
      </trkpt>
      <trkpt lat="47.46125" lon="0.84219">
        <ele>137</ele>
        <time>2013-09-01T08:53:03.146Z</time>
      </trkpt>
      <trkpt lat="47.46133" lon="0.84219">
        <ele>138</ele>
        <time>2013-09-01T08:53:05.134Z</time>
      </trkpt>
      <trkpt lat="47.46135" lon="0.84219">
        <ele>138</ele>
        <time>2013-09-01T08:53:06.147Z</time>
      </trkpt>
      <trkpt lat="47.46141" lon="0.84223">
        <ele>139</ele>
        <time>2013-09-01T08:53:08.091Z</time>
      </trkpt>
      <trkpt lat="47.46143" lon="0.84226">
        <ele>140</ele>
        <time>2013-09-01T08:53:09.100Z</time>
      </trkpt>
      <trkpt lat="47.46152" lon="0.84229">
        <ele>145</ele>
        <time>2013-09-01T08:53:12.139Z</time>
      </trkpt>
      <trkpt lat="47.46154" lon="0.84228">
        <ele>145</ele>
        <time>2013-09-01T08:53:13.134Z</time>
      </trkpt>
      <trkpt lat="47.46162" lon="0.84228">
        <ele>142</ele>
        <time>2013-09-01T08:53:15.149Z</time>
      </trkpt>
      <trkpt lat="47.46167" lon="0.84229">
        <ele>141</ele>
        <time>2013-09-01T08:53:16.146Z</time>
      </trkpt>
      <trkpt lat="47.46174" lon="0.84234">
        <ele>141</ele>
        <time>2013-09-01T08:53:18.117Z</time>
      </trkpt>
      <trkpt lat="47.46179" lon="0.84236">
        <ele>138</ele>
        <time>2013-09-01T08:53:19.091Z</time>
      </trkpt>
      <trkpt lat="47.46183" lon="0.84242">
        <ele>137</ele>
        <time>2013-09-01T08:53:20.129Z</time>
      </trkpt>
      <trkpt lat="47.46185" lon="0.84247">
        <ele>138</ele>
        <time>2013-09-01T08:53:21.072Z</time>
      </trkpt>
      <trkpt lat="47.46193" lon="0.84248">
        <ele>142</ele>
        <time>2013-09-01T08:53:24.075Z</time>
      </trkpt>
      <trkpt lat="47.46196" lon="0.84247">
        <ele>142</ele>
        <time>2013-09-01T08:53:25.107Z</time>
      </trkpt>
      <trkpt lat="47.46203" lon="0.84245">
        <ele>145</ele>
        <time>2013-09-01T08:53:27.075Z</time>
      </trkpt>
      <trkpt lat="47.46205" lon="0.84245">
        <ele>145</ele>
        <time>2013-09-01T08:53:28.080Z</time>
      </trkpt>
      <trkpt lat="47.4621" lon="0.84237">
        <ele>146</ele>
        <time>2013-09-01T08:53:31.131Z</time>
      </trkpt>
      <trkpt lat="47.46213" lon="0.84233">
        <ele>146</ele>
        <time>2013-09-01T08:53:32.073Z</time>
      </trkpt>
      <trkpt lat="47.46219" lon="0.8423">
        <ele>146</ele>
        <time>2013-09-01T08:53:34.072Z</time>
      </trkpt>
      <trkpt lat="47.46222" lon="0.84229">
        <ele>146</ele>
        <time>2013-09-01T08:53:35.142Z</time>
      </trkpt>
      <trkpt lat="47.4623" lon="0.84226">
        <ele>144</ele>
        <time>2013-09-01T08:53:37.130Z</time>
      </trkpt>
      <trkpt lat="47.46233" lon="0.84225">
        <ele>142</ele>
        <time>2013-09-01T08:53:38.129Z</time>
      </trkpt>
      <trkpt lat="47.4624" lon="0.84226">
        <ele>145</ele>
        <time>2013-09-01T08:53:40.170Z</time>
      </trkpt>
      <trkpt lat="47.46243" lon="0.84226">
        <ele>150</ele>
        <time>2013-09-01T08:53:41.112Z</time>
      </trkpt>
      <trkpt lat="47.4625" lon="0.84223">
        <ele>154</ele>
        <time>2013-09-01T08:53:43.099Z</time>
      </trkpt>
      <trkpt lat="47.46253" lon="0.84222">
        <ele>157</ele>
        <time>2013-09-01T08:53:44.136Z</time>
      </trkpt>
      <trkpt lat="47.46256" lon="0.84221">
        <ele>158</ele>
        <time>2013-09-01T08:53:45.140Z</time>
      </trkpt>
      <trkpt lat="47.46262" lon="0.84221">
        <ele>154</ele>
        <time>2013-09-01T08:53:46.127Z</time>
      </trkpt>
      <trkpt lat="47.46268" lon="0.84221">
        <ele>154</ele>
        <time>2013-09-01T08:53:47.077Z</time>
      </trkpt>
      <trkpt lat="47.46274" lon="0.8422">
        <ele>155</ele>
        <time>2013-09-01T08:53:48.081Z</time>
      </trkpt>
      <trkpt lat="47.46282" lon="0.84217">
        <ele>154</ele>
        <time>2013-09-01T08:53:50.081Z</time>
      </trkpt>
      <trkpt lat="47.46285" lon="0.84217">
        <ele>155</ele>
        <time>2013-09-01T08:53:51.136Z</time>
      </trkpt>
      <trkpt lat="47.4629" lon="0.84215">
        <ele>155</ele>
        <time>2013-09-01T08:53:53.202Z</time>
      </trkpt>
      <trkpt lat="47.46294" lon="0.84213">
        <ele>155</ele>
        <time>2013-09-01T08:53:54.089Z</time>
      </trkpt>
      <trkpt lat="47.46302" lon="0.8421">
        <ele>159</ele>
        <time>2013-09-01T08:53:57.134Z</time>
      </trkpt>
      <trkpt lat="47.46305" lon="0.84214">
        <ele>160</ele>
        <time>2013-09-01T08:53:58.132Z</time>
      </trkpt>
      <trkpt lat="47.46311" lon="0.84214">
        <ele>161</ele>
        <time>2013-09-01T08:54:00.088Z</time>
      </trkpt>
      <trkpt lat="47.46315" lon="0.84213">
        <ele>160</ele>
        <time>2013-09-01T08:54:01.103Z</time>
      </trkpt>
      <trkpt lat="47.46321" lon="0.84211">
        <ele>159</ele>
        <time>2013-09-01T08:54:02.082Z</time>
      </trkpt>
      <trkpt lat="47.46326" lon="0.84212">
        <ele>158</ele>
        <time>2013-09-01T08:54:03.103Z</time>
      </trkpt>
      <trkpt lat="47.46332" lon="0.84211">
        <ele>156</ele>
        <time>2013-09-01T08:54:04.081Z</time>
      </trkpt>
      <trkpt lat="47.46336" lon="0.84211">
        <ele>154</ele>
        <time>2013-09-01T08:54:05.130Z</time>
      </trkpt>
      <trkpt lat="47.46342" lon="0.84207">
        <ele>149</ele>
        <time>2013-09-01T08:54:06.124Z</time>
      </trkpt>
      <trkpt lat="47.46346" lon="0.84204">
        <ele>151</ele>
        <time>2013-09-01T08:54:07.123Z</time>
      </trkpt>
      <trkpt lat="47.46353" lon="0.84199">
        <ele>154</ele>
        <time>2013-09-01T08:54:10.119Z</time>
      </trkpt>
      <trkpt lat="47.46356" lon="0.84198">
        <ele>155</ele>
        <time>2013-09-01T08:54:11.125Z</time>
      </trkpt>
      <trkpt lat="47.46362" lon="0.84194">
        <ele>155</ele>
        <time>2013-09-01T08:54:13.101Z</time>
      </trkpt>
      <trkpt lat="47.46365" lon="0.84191">
        <ele>155</ele>
        <time>2013-09-01T08:54:14.111Z</time>
      </trkpt>
      <trkpt lat="47.46369" lon="0.84186">
        <ele>157</ele>
        <time>2013-09-01T08:54:15.109Z</time>
      </trkpt>
      <trkpt lat="47.46373" lon="0.84183">
        <ele>159</ele>
        <time>2013-09-01T08:54:16.131Z</time>
      </trkpt>
      <trkpt lat="47.46377" lon="0.8418">
        <ele>161</ele>
        <time>2013-09-01T08:54:17.135Z</time>
      </trkpt>
      <trkpt lat="47.46382" lon="0.84177">
        <ele>159</ele>
        <time>2013-09-01T08:54:18.129Z</time>
      </trkpt>
      <trkpt lat="47.4639" lon="0.84172">
        <ele>154</ele>
        <time>2013-09-01T08:54:20.193Z</time>
      </trkpt>
      <trkpt lat="47.46392" lon="0.8417">
        <ele>155</ele>
        <time>2013-09-01T08:54:21.133Z</time>
      </trkpt>
      <trkpt lat="47.46399" lon="0.84165">
        <ele>158</ele>
        <time>2013-09-01T08:54:23.075Z</time>
      </trkpt>
      <trkpt lat="47.46401" lon="0.84162">
        <ele>161</ele>
        <time>2013-09-01T08:54:24.078Z</time>
      </trkpt>
      <trkpt lat="47.46403" lon="0.84157">
        <ele>164</ele>
        <time>2013-09-01T08:54:25.069Z</time>
      </trkpt>
      <trkpt lat="47.46409" lon="0.84153">
        <ele>159</ele>
        <time>2013-09-01T08:54:26.160Z</time>
      </trkpt>
      <trkpt lat="47.46413" lon="0.84149">
        <ele>159</ele>
        <time>2013-09-01T08:54:27.124Z</time>
      </trkpt>
      <trkpt lat="47.46419" lon="0.84145">
        <ele>160</ele>
        <time>2013-09-01T08:54:28.255Z</time>
      </trkpt>
      <trkpt lat="47.46426" lon="0.84142">
        <ele>160</ele>
        <time>2013-09-01T08:54:30.094Z</time>
      </trkpt>
      <trkpt lat="47.46431" lon="0.8414">
        <ele>160</ele>
        <time>2013-09-01T08:54:31.149Z</time>
      </trkpt>
      <trkpt lat="47.46438" lon="0.84138">
        <ele>162</ele>
        <time>2013-09-01T08:54:33.129Z</time>
      </trkpt>
      <trkpt lat="47.46442" lon="0.84136">
        <ele>163</ele>
        <time>2013-09-01T08:54:34.085Z</time>
      </trkpt>
      <trkpt lat="47.46451" lon="0.84133">
        <ele>163</ele>
        <time>2013-09-01T08:54:37.192Z</time>
      </trkpt>
      <trkpt lat="47.46454" lon="0.84133">
        <ele>162</ele>
        <time>2013-09-01T08:54:38.140Z</time>
      </trkpt>
      <trkpt lat="47.46462" lon="0.84133">
        <ele>164</ele>
        <time>2013-09-01T08:54:41.110Z</time>
      </trkpt>
      <trkpt lat="47.46464" lon="0.84133">
        <ele>166</ele>
        <time>2013-09-01T08:54:42.097Z</time>
      </trkpt>
      <trkpt lat="47.4647" lon="0.84135">
        <ele>169</ele>
        <time>2013-09-01T08:54:45.145Z</time>
      </trkpt>
      <trkpt lat="47.46472" lon="0.84137">
        <ele>169</ele>
        <time>2013-09-01T08:54:46.148Z</time>
      </trkpt>
      <trkpt lat="47.4648" lon="0.84139">
        <ele>167</ele>
        <time>2013-09-01T08:54:49.143Z</time>
      </trkpt>
      <trkpt lat="47.46483" lon="0.84139">
        <ele>167</ele>
        <time>2013-09-01T08:54:50.165Z</time>
      </trkpt>
      <trkpt lat="47.46491" lon="0.84135">
        <ele>166</ele>
        <time>2013-09-01T08:54:54.157Z</time>
      </trkpt>
      <trkpt lat="47.46493" lon="0.84134">
        <ele>165</ele>
        <time>2013-09-01T08:54:55.143Z</time>
      </trkpt>
      <trkpt lat="47.46494" lon="0.84123">
        <ele>166</ele>
        <time>2013-09-01T08:55:01.095Z</time>
      </trkpt>
      <trkpt lat="47.46494" lon="0.84119">
        <ele>165</ele>
        <time>2013-09-01T08:55:02.114Z</time>
      </trkpt>
      <trkpt lat="47.46493" lon="0.84108">
        <ele>164</ele>
        <time>2013-09-01T08:55:04.096Z</time>
      </trkpt>
      <trkpt lat="47.46493" lon="0.84103">
        <ele>161</ele>
        <time>2013-09-01T08:55:05.112Z</time>
      </trkpt>
      <trkpt lat="47.46497" lon="0.84092">
        <ele>151</ele>
        <time>2013-09-01T08:55:07.157Z</time>
      </trkpt>
      <trkpt lat="47.46498" lon="0.84088">
        <ele>148</ele>
        <time>2013-09-01T08:55:08.242Z</time>
      </trkpt>
      <trkpt lat="47.46498" lon="0.84076">
        <ele>146</ele>
        <time>2013-09-01T08:55:10.099Z</time>
      </trkpt>
      <trkpt lat="47.46499" lon="0.84068">
        <ele>146</ele>
        <time>2013-09-01T08:55:11.122Z</time>
      </trkpt>
      <trkpt lat="47.46499" lon="0.84059">
        <ele>145</ele>
        <time>2013-09-01T08:55:12.106Z</time>
      </trkpt>
      <trkpt lat="47.46499" lon="0.8405">
        <ele>144</ele>
        <time>2013-09-01T08:55:13.129Z</time>
      </trkpt>
      <trkpt lat="47.46499" lon="0.84043">
        <ele>144</ele>
        <time>2013-09-01T08:55:14.152Z</time>
      </trkpt>
      <trkpt lat="47.46499" lon="0.84035">
        <ele>143</ele>
        <time>2013-09-01T08:55:15.213Z</time>
      </trkpt>
      <trkpt lat="47.46499" lon="0.84022">
        <ele>140</ele>
        <time>2013-09-01T08:55:17.100Z</time>
      </trkpt>
      <trkpt lat="47.46497" lon="0.84015">
        <ele>141</ele>
        <time>2013-09-01T08:55:18.128Z</time>
      </trkpt>
      <trkpt lat="47.46495" lon="0.84009">
        <ele>141</ele>
        <time>2013-09-01T08:55:19.145Z</time>
      </trkpt>
      <trkpt lat="47.46491" lon="0.84004">
        <ele>141</ele>
        <time>2013-09-01T08:55:20.132Z</time>
      </trkpt>
      <trkpt lat="47.46485" lon="0.84">
        <ele>143</ele>
        <time>2013-09-01T08:55:21.097Z</time>
      </trkpt>
      <trkpt lat="47.46479" lon="0.83997">
        <ele>144</ele>
        <time>2013-09-01T08:55:22.118Z</time>
      </trkpt>
      <trkpt lat="47.46471" lon="0.83993">
        <ele>141</ele>
        <time>2013-09-01T08:55:24.103Z</time>
      </trkpt>
      <trkpt lat="47.46469" lon="0.83992">
        <ele>142</ele>
        <time>2013-09-01T08:55:25.091Z</time>
      </trkpt>
      <trkpt lat="47.4646" lon="0.83989">
        <ele>141</ele>
        <time>2013-09-01T08:55:29.136Z</time>
      </trkpt>
      <trkpt lat="47.46456" lon="0.83986">
        <ele>141</ele>
        <time>2013-09-01T08:55:30.131Z</time>
      </trkpt>
      <trkpt lat="47.46451" lon="0.83983">
        <ele>142</ele>
        <time>2013-09-01T08:55:31.132Z</time>
      </trkpt>
      <trkpt lat="47.46446" lon="0.83981">
        <ele>141</ele>
        <time>2013-09-01T08:55:32.145Z</time>
      </trkpt>
      <trkpt lat="47.46439" lon="0.83981">
        <ele>142</ele>
        <time>2013-09-01T08:55:34.145Z</time>
      </trkpt>
      <trkpt lat="47.46436" lon="0.83981">
        <ele>142</ele>
        <time>2013-09-01T08:55:35.144Z</time>
      </trkpt>
      <trkpt lat="47.46429" lon="0.83978">
        <ele>143</ele>
        <time>2013-09-01T08:55:38.089Z</time>
      </trkpt>
      <trkpt lat="47.46427" lon="0.83975">
        <ele>143</ele>
        <time>2013-09-01T08:55:39.134Z</time>
      </trkpt>
      <trkpt lat="47.46423" lon="0.83966">
        <ele>142</ele>
        <time>2013-09-01T08:55:41.137Z</time>
      </trkpt>
      <trkpt lat="47.46423" lon="0.83962">
        <ele>143</ele>
        <time>2013-09-01T08:55:42.178Z</time>
      </trkpt>
      <trkpt lat="47.46428" lon="0.83953">
        <ele>137</ele>
        <time>2013-09-01T08:55:44.129Z</time>
      </trkpt>
      <trkpt lat="47.46432" lon="0.83949">
        <ele>133</ele>
        <time>2013-09-01T08:55:45.064Z</time>
      </trkpt>
      <trkpt lat="47.46439" lon="0.83944">
        <ele>133</ele>
        <time>2013-09-01T08:55:47.106Z</time>
      </trkpt>
      <trkpt lat="47.46442" lon="0.83942">
        <ele>134</ele>
        <time>2013-09-01T08:55:48.107Z</time>
      </trkpt>
      <trkpt lat="47.46449" lon="0.83936">
        <ele>133</ele>
        <time>2013-09-01T08:55:50.114Z</time>
      </trkpt>
      <trkpt lat="47.46452" lon="0.83932">
        <ele>132</ele>
        <time>2013-09-01T08:55:51.117Z</time>
      </trkpt>
      <trkpt lat="47.46458" lon="0.83925">
        <ele>132</ele>
        <time>2013-09-01T08:55:53.096Z</time>
      </trkpt>
      <trkpt lat="47.46461" lon="0.83921">
        <ele>132</ele>
        <time>2013-09-01T08:55:54.145Z</time>
      </trkpt>
      <trkpt lat="47.46467" lon="0.83917">
        <ele>132</ele>
        <time>2013-09-01T08:55:56.106Z</time>
      </trkpt>
      <trkpt lat="47.4647" lon="0.83913">
        <ele>132</ele>
        <time>2013-09-01T08:55:57.102Z</time>
      </trkpt>
      <trkpt lat="47.46477" lon="0.83904">
        <ele>132</ele>
        <time>2013-09-01T08:55:59.141Z</time>
      </trkpt>
      <trkpt lat="47.46481" lon="0.83899">
        <ele>133</ele>
        <time>2013-09-01T08:56:00.137Z</time>
      </trkpt>
      <trkpt lat="47.46486" lon="0.83891">
        <ele>133</ele>
        <time>2013-09-01T08:56:02.085Z</time>
      </trkpt>
      <trkpt lat="47.4649" lon="0.83887">
        <ele>133</ele>
        <time>2013-09-01T08:56:03.085Z</time>
      </trkpt>
      <trkpt lat="47.46496" lon="0.83878">
        <ele>133</ele>
        <time>2013-09-01T08:56:05.137Z</time>
      </trkpt>
      <trkpt lat="47.46499" lon="0.83872">
        <ele>133</ele>
        <time>2013-09-01T08:56:06.137Z</time>
      </trkpt>
      <trkpt lat="47.46506" lon="0.83863">
        <ele>133</ele>
        <time>2013-09-01T08:56:08.234Z</time>
      </trkpt>
      <trkpt lat="47.46508" lon="0.83859">
        <ele>133</ele>
        <time>2013-09-01T08:56:09.082Z</time>
      </trkpt>
      <trkpt lat="47.46514" lon="0.8385">
        <ele>134</ele>
        <time>2013-09-01T08:56:11.111Z</time>
      </trkpt>
      <trkpt lat="47.46518" lon="0.83846">
        <ele>134</ele>
        <time>2013-09-01T08:56:12.145Z</time>
      </trkpt>
      <trkpt lat="47.46523" lon="0.83837">
        <ele>134</ele>
        <time>2013-09-01T08:56:14.088Z</time>
      </trkpt>
      <trkpt lat="47.46525" lon="0.83833">
        <ele>133</ele>
        <time>2013-09-01T08:56:15.141Z</time>
      </trkpt>
      <trkpt lat="47.46529" lon="0.83824">
        <ele>133</ele>
        <time>2013-09-01T08:56:17.143Z</time>
      </trkpt>
      <trkpt lat="47.46531" lon="0.8382">
        <ele>133</ele>
        <time>2013-09-01T08:56:18.121Z</time>
      </trkpt>
      <trkpt lat="47.46536" lon="0.83812">
        <ele>134</ele>
        <time>2013-09-01T08:56:20.132Z</time>
      </trkpt>
      <trkpt lat="47.46537" lon="0.83805">
        <ele>134</ele>
        <time>2013-09-01T08:56:21.139Z</time>
      </trkpt>
      <trkpt lat="47.4653" lon="0.83798">
        <ele>134</ele>
        <time>2013-09-01T08:56:24.138Z</time>
      </trkpt>
      <trkpt lat="47.46526" lon="0.83799">
        <ele>134</ele>
        <time>2013-09-01T08:56:25.148Z</time>
      </trkpt>
      <trkpt lat="47.46518" lon="0.83801">
        <ele>134</ele>
        <time>2013-09-01T08:56:27.076Z</time>
      </trkpt>
      <trkpt lat="47.46512" lon="0.83801">
        <ele>134</ele>
        <time>2013-09-01T08:56:28.082Z</time>
      </trkpt>
      <trkpt lat="47.46503" lon="0.83801">
        <ele>133</ele>
        <time>2013-09-01T08:56:30.138Z</time>
      </trkpt>
      <trkpt lat="47.465" lon="0.83801">
        <ele>133</ele>
        <time>2013-09-01T08:56:31.137Z</time>
      </trkpt>
      <trkpt lat="47.46492" lon="0.83801">
        <ele>133</ele>
        <time>2013-09-01T08:56:33.103Z</time>
      </trkpt>
      <trkpt lat="47.46488" lon="0.83801">
        <ele>133</ele>
        <time>2013-09-01T08:56:34.082Z</time>
      </trkpt>
      <trkpt lat="47.4648" lon="0.83799">
        <ele>134</ele>
        <time>2013-09-01T08:56:36.135Z</time>
      </trkpt>
      <trkpt lat="47.46477" lon="0.83799">
        <ele>134</ele>
        <time>2013-09-01T08:56:37.136Z</time>
      </trkpt>
      <trkpt lat="47.46469" lon="0.83799">
        <ele>134</ele>
        <time>2013-09-01T08:56:39.085Z</time>
      </trkpt>
      <trkpt lat="47.46466" lon="0.83799">
        <ele>134</ele>
        <time>2013-09-01T08:56:40.145Z</time>
      </trkpt>
      <trkpt lat="47.46458" lon="0.83799">
        <ele>134</ele>
        <time>2013-09-01T08:56:42.105Z</time>
      </trkpt>
      <trkpt lat="47.46455" lon="0.83799">
        <ele>134</ele>
        <time>2013-09-01T08:56:43.100Z</time>
      </trkpt>
      <trkpt lat="47.46449" lon="0.83796">
        <ele>134</ele>
        <time>2013-09-01T08:56:45.151Z</time>
      </trkpt>
      <trkpt lat="47.46446" lon="0.83796">
        <ele>134</ele>
        <time>2013-09-01T08:56:46.089Z</time>
      </trkpt>
      <trkpt lat="47.46439" lon="0.83797">
        <ele>134</ele>
        <time>2013-09-01T08:56:48.134Z</time>
      </trkpt>
      <trkpt lat="47.46436" lon="0.83797">
        <ele>134</ele>
        <time>2013-09-01T08:56:49.140Z</time>
      </trkpt>
      <trkpt lat="47.46429" lon="0.83794">
        <ele>134</ele>
        <time>2013-09-01T08:56:51.135Z</time>
      </trkpt>
      <trkpt lat="47.46426" lon="0.83794">
        <ele>134</ele>
        <time>2013-09-01T08:56:52.141Z</time>
      </trkpt>
      <trkpt lat="47.46419" lon="0.83794">
        <ele>135</ele>
        <time>2013-09-01T08:56:54.139Z</time>
      </trkpt>
      <trkpt lat="47.46415" lon="0.83794">
        <ele>135</ele>
        <time>2013-09-01T08:56:55.108Z</time>
      </trkpt>
      <trkpt lat="47.46409" lon="0.83794">
        <ele>135</ele>
        <time>2013-09-01T08:56:57.139Z</time>
      </trkpt>
      <trkpt lat="47.46406" lon="0.83794">
        <ele>135</ele>
        <time>2013-09-01T08:56:58.140Z</time>
      </trkpt>
      <trkpt lat="47.46399" lon="0.83797">
        <ele>136</ele>
        <time>2013-09-01T08:57:00.127Z</time>
      </trkpt>
      <trkpt lat="47.46396" lon="0.83797">
        <ele>136</ele>
        <time>2013-09-01T08:57:01.135Z</time>
      </trkpt>
      <trkpt lat="47.46388" lon="0.83797">
        <ele>138</ele>
        <time>2013-09-01T08:57:04.138Z</time>
      </trkpt>
      <trkpt lat="47.46384" lon="0.83797">
        <ele>138</ele>
        <time>2013-09-01T08:57:05.151Z</time>
      </trkpt>
      <trkpt lat="47.46377" lon="0.83797">
        <ele>139</ele>
        <time>2013-09-01T08:57:08.132Z</time>
      </trkpt>
      <trkpt lat="47.46374" lon="0.83797">
        <ele>139</ele>
        <time>2013-09-01T08:57:09.132Z</time>
      </trkpt>
      <trkpt lat="47.46365" lon="0.83794">
        <ele>139</ele>
        <time>2013-09-01T08:57:12.101Z</time>
      </trkpt>
      <trkpt lat="47.46362" lon="0.83792">
        <ele>139</ele>
        <time>2013-09-01T08:57:13.099Z</time>
      </trkpt>
      <trkpt lat="47.46354" lon="0.83788">
        <ele>139</ele>
        <time>2013-09-01T08:57:16.141Z</time>
      </trkpt>
      <trkpt lat="47.46351" lon="0.83786">
        <ele>139</ele>
        <time>2013-09-01T08:57:17.144Z</time>
      </trkpt>
      <trkpt lat="47.46344" lon="0.83779">
        <ele>139</ele>
        <time>2013-09-01T08:57:20.186Z</time>
      </trkpt>
      <trkpt lat="47.46341" lon="0.83777">
        <ele>139</ele>
        <time>2013-09-01T08:57:21.115Z</time>
      </trkpt>
      <trkpt lat="47.46334" lon="0.83771">
        <ele>138</ele>
        <time>2013-09-01T08:57:24.149Z</time>
      </trkpt>
      <trkpt lat="47.46332" lon="0.83769">
        <ele>138</ele>
        <time>2013-09-01T08:57:25.203Z</time>
      </trkpt>
      <trkpt lat="47.46326" lon="0.83762">
        <ele>138</ele>
        <time>2013-09-01T08:57:27.175Z</time>
      </trkpt>
      <trkpt lat="47.46323" lon="0.8376">
        <ele>138</ele>
        <time>2013-09-01T08:57:28.171Z</time>
      </trkpt>
      <trkpt lat="47.46318" lon="0.83756">
        <ele>139</ele>
        <time>2013-09-01T08:57:30.223Z</time>
      </trkpt>
      <trkpt lat="47.46315" lon="0.83754">
        <ele>139</ele>
        <time>2013-09-01T08:57:31.182Z</time>
      </trkpt>
      <trkpt lat="47.46307" lon="0.83747">
        <ele>138</ele>
        <time>2013-09-01T08:57:34.176Z</time>
      </trkpt>
      <trkpt lat="47.46304" lon="0.83747">
        <ele>138</ele>
        <time>2013-09-01T08:57:35.184Z</time>
      </trkpt>
      <trkpt lat="47.46296" lon="0.83741">
        <ele>138</ele>
        <time>2013-09-01T08:57:38.220Z</time>
      </trkpt>
      <trkpt lat="47.46293" lon="0.83739">
        <ele>139</ele>
        <time>2013-09-01T08:57:39.192Z</time>
      </trkpt>
      <trkpt lat="47.46288" lon="0.83736">
        <ele>139</ele>
        <time>2013-09-01T08:57:41.219Z</time>
      </trkpt>
      <trkpt lat="47.46285" lon="0.83734">
        <ele>139</ele>
        <time>2013-09-01T08:57:42.236Z</time>
      </trkpt>
      <trkpt lat="47.46276" lon="0.83732">
        <ele>139</ele>
        <time>2013-09-01T08:57:45.173Z</time>
      </trkpt>
      <trkpt lat="47.46273" lon="0.83732">
        <ele>139</ele>
        <time>2013-09-01T08:57:46.227Z</time>
      </trkpt>
      <trkpt lat="47.46264" lon="0.83732">
        <ele>141</ele>
        <time>2013-09-01T08:57:49.235Z</time>
      </trkpt>
      <trkpt lat="47.46262" lon="0.83732">
        <ele>141</ele>
        <time>2013-09-01T08:57:50.232Z</time>
      </trkpt>
      <trkpt lat="47.46255" lon="0.83732">
        <ele>142</ele>
        <time>2013-09-01T08:57:53.171Z</time>
      </trkpt>
      <trkpt lat="47.4625" lon="0.8373">
        <ele>142</ele>
        <time>2013-09-01T08:57:54.196Z</time>
      </trkpt>
      <trkpt lat="47.46243" lon="0.8373">
        <ele>142</ele>
        <time>2013-09-01T08:57:56.234Z</time>
      </trkpt>
      <trkpt lat="47.46239" lon="0.83728">
        <ele>144</ele>
        <time>2013-09-01T08:57:57.232Z</time>
      </trkpt>
      <trkpt lat="47.46233" lon="0.83728">
        <ele>145</ele>
        <time>2013-09-01T08:57:59.238Z</time>
      </trkpt>
      <trkpt lat="47.46229" lon="0.83726">
        <ele>145</ele>
        <time>2013-09-01T08:58:00.228Z</time>
      </trkpt>
      <trkpt lat="47.46222" lon="0.83724">
        <ele>146</ele>
        <time>2013-09-01T08:58:02.205Z</time>
      </trkpt>
      <trkpt lat="47.46219" lon="0.83722">
        <ele>146</ele>
        <time>2013-09-01T08:58:03.226Z</time>
      </trkpt>
      <trkpt lat="47.46212" lon="0.83721">
        <ele>148</ele>
        <time>2013-09-01T08:58:05.172Z</time>
      </trkpt>
      <trkpt lat="47.46208" lon="0.8372">
        <ele>149</ele>
        <time>2013-09-01T08:58:06.193Z</time>
      </trkpt>
      <trkpt lat="47.46202" lon="0.83715">
        <ele>149</ele>
        <time>2013-09-01T08:58:08.221Z</time>
      </trkpt>
      <trkpt lat="47.46199" lon="0.83713">
        <ele>150</ele>
        <time>2013-09-01T08:58:09.273Z</time>
      </trkpt>
      <trkpt lat="47.46192" lon="0.83709">
        <ele>152</ele>
        <time>2013-09-01T08:58:11.209Z</time>
      </trkpt>
      <trkpt lat="47.46189" lon="0.83705">
        <ele>153</ele>
        <time>2013-09-01T08:58:12.247Z</time>
      </trkpt>
      <trkpt lat="47.46184" lon="0.837">
        <ele>153</ele>
        <time>2013-09-01T08:58:14.229Z</time>
      </trkpt>
      <trkpt lat="47.46181" lon="0.83696">
        <ele>153</ele>
        <time>2013-09-01T08:58:15.234Z</time>
      </trkpt>
      <trkpt lat="47.46176" lon="0.83691">
        <ele>153</ele>
        <time>2013-09-01T08:58:17.232Z</time>
      </trkpt>
      <trkpt lat="47.46173" lon="0.83687">
        <ele>153</ele>
        <time>2013-09-01T08:58:18.223Z</time>
      </trkpt>
      <trkpt lat="47.46168" lon="0.83683">
        <ele>154</ele>
        <time>2013-09-01T08:58:20.174Z</time>
      </trkpt>
      <trkpt lat="47.46164" lon="0.83679">
        <ele>154</ele>
        <time>2013-09-01T08:58:21.181Z</time>
      </trkpt>
      <trkpt lat="47.46158" lon="0.83674">
        <ele>155</ele>
        <time>2013-09-01T08:58:23.195Z</time>
      </trkpt>
      <trkpt lat="47.46155" lon="0.83672">
        <ele>155</ele>
        <time>2013-09-01T08:58:24.240Z</time>
      </trkpt>
      <trkpt lat="47.46148" lon="0.83668">
        <ele>156</ele>
        <time>2013-09-01T08:58:26.284Z</time>
      </trkpt>
      <trkpt lat="47.46145" lon="0.83664">
        <ele>156</ele>
        <time>2013-09-01T08:58:27.186Z</time>
      </trkpt>
      <trkpt lat="47.4614" lon="0.83659">
        <ele>155</ele>
        <time>2013-09-01T08:58:29.173Z</time>
      </trkpt>
      <trkpt lat="47.46137" lon="0.83655">
        <ele>155</ele>
        <time>2013-09-01T08:58:30.170Z</time>
      </trkpt>
      <trkpt lat="47.46131" lon="0.83648">
        <ele>152</ele>
        <time>2013-09-01T08:58:32.220Z</time>
      </trkpt>
      <trkpt lat="47.46129" lon="0.83644">
        <ele>152</ele>
        <time>2013-09-01T08:58:33.194Z</time>
      </trkpt>
      <trkpt lat="47.46123" lon="0.83638">
        <ele>151</ele>
        <time>2013-09-01T08:58:35.169Z</time>
      </trkpt>
      <trkpt lat="47.4612" lon="0.83635">
        <ele>151</ele>
        <time>2013-09-01T08:58:36.174Z</time>
      </trkpt>
      <trkpt lat="47.46115" lon="0.83629">
        <ele>151</ele>
        <time>2013-09-01T08:58:38.210Z</time>
      </trkpt>
      <trkpt lat="47.46112" lon="0.83625">
        <ele>151</ele>
        <time>2013-09-01T08:58:39.232Z</time>
      </trkpt>
      <trkpt lat="47.46106" lon="0.83619">
        <ele>151</ele>
        <time>2013-09-01T08:58:41.245Z</time>
      </trkpt>
      <trkpt lat="47.46103" lon="0.83614">
        <ele>150</ele>
        <time>2013-09-01T08:58:42.176Z</time>
      </trkpt>
      <trkpt lat="47.46097" lon="0.83608">
        <ele>150</ele>
        <time>2013-09-01T08:58:44.172Z</time>
      </trkpt>
      <trkpt lat="47.46094" lon="0.83603">
        <ele>150</ele>
        <time>2013-09-01T08:58:45.233Z</time>
      </trkpt>
      <trkpt lat="47.46088" lon="0.83597">
        <ele>150</ele>
        <time>2013-09-01T08:58:47.219Z</time>
      </trkpt>
      <trkpt lat="47.46085" lon="0.83593">
        <ele>150</ele>
        <time>2013-09-01T08:58:48.223Z</time>
      </trkpt>
      <trkpt lat="47.46079" lon="0.83584">
        <ele>150</ele>
        <time>2013-09-01T08:58:50.234Z</time>
      </trkpt>
      <trkpt lat="47.46075" lon="0.83582">
        <ele>150</ele>
        <time>2013-09-01T08:58:51.219Z</time>
      </trkpt>
      <trkpt lat="47.46069" lon="0.83573">
        <ele>150</ele>
        <time>2013-09-01T08:58:53.219Z</time>
      </trkpt>
      <trkpt lat="47.46066" lon="0.83569">
        <ele>151</ele>
        <time>2013-09-01T08:58:54.165Z</time>
      </trkpt>
      <trkpt lat="47.46061" lon="0.83562">
        <ele>151</ele>
        <time>2013-09-01T08:58:56.231Z</time>
      </trkpt>
      <trkpt lat="47.46057" lon="0.83558">
        <ele>151</ele>
        <time>2013-09-01T08:58:57.225Z</time>
      </trkpt>
      <trkpt lat="47.46051" lon="0.8355">
        <ele>151</ele>
        <time>2013-09-01T08:58:59.233Z</time>
      </trkpt>
      <trkpt lat="47.46048" lon="0.83545">
        <ele>151</ele>
        <time>2013-09-01T08:59:00.250Z</time>
      </trkpt>
      <trkpt lat="47.46041" lon="0.83537">
        <ele>151</ele>
        <time>2013-09-01T08:59:02.222Z</time>
      </trkpt>
      <trkpt lat="47.46038" lon="0.83533">
        <ele>151</ele>
        <time>2013-09-01T08:59:03.217Z</time>
      </trkpt>
      <trkpt lat="47.46032" lon="0.83526">
        <ele>151</ele>
        <time>2013-09-01T08:59:05.229Z</time>
      </trkpt>
      <trkpt lat="47.46028" lon="0.83522">
        <ele>151</ele>
        <time>2013-09-01T08:59:06.219Z</time>
      </trkpt>
      <trkpt lat="47.46022" lon="0.83513">
        <ele>151</ele>
        <time>2013-09-01T08:59:08.224Z</time>
      </trkpt>
      <trkpt lat="47.46019" lon="0.83511">
        <ele>151</ele>
        <time>2013-09-01T08:59:09.220Z</time>
      </trkpt>
      <trkpt lat="47.46012" lon="0.83503">
        <ele>151</ele>
        <time>2013-09-01T08:59:11.236Z</time>
      </trkpt>
      <trkpt lat="47.46009" lon="0.83498">
        <ele>151</ele>
        <time>2013-09-01T08:59:12.224Z</time>
      </trkpt>
      <trkpt lat="47.46003" lon="0.83492">
        <ele>151</ele>
        <time>2013-09-01T08:59:14.166Z</time>
      </trkpt>
      <trkpt lat="47.46" lon="0.83488">
        <ele>151</ele>
        <time>2013-09-01T08:59:15.204Z</time>
      </trkpt>
      <trkpt lat="47.45995" lon="0.83479">
        <ele>151</ele>
        <time>2013-09-01T08:59:17.221Z</time>
      </trkpt>
      <trkpt lat="47.45992" lon="0.83475">
        <ele>151</ele>
        <time>2013-09-01T08:59:18.226Z</time>
      </trkpt>
      <trkpt lat="47.45989" lon="0.8347">
        <ele>151</ele>
        <time>2013-09-01T08:59:19.225Z</time>
      </trkpt>
      <trkpt lat="47.45985" lon="0.83464">
        <ele>150</ele>
        <time>2013-09-01T08:59:20.261Z</time>
      </trkpt>
      <trkpt lat="47.45982" lon="0.83459">
        <ele>150</ele>
        <time>2013-09-01T08:59:21.284Z</time>
      </trkpt>
      <trkpt lat="47.45979" lon="0.83453">
        <ele>150</ele>
        <time>2013-09-01T08:59:22.231Z</time>
      </trkpt>
      <trkpt lat="47.45976" lon="0.83449">
        <ele>150</ele>
        <time>2013-09-01T08:59:23.186Z</time>
      </trkpt>
      <trkpt lat="47.45971" lon="0.83443">
        <ele>150</ele>
        <time>2013-09-01T08:59:24.231Z</time>
      </trkpt>
      <trkpt lat="47.45968" lon="0.83436">
        <ele>150</ele>
        <time>2013-09-01T08:59:25.238Z</time>
      </trkpt>
      <trkpt lat="47.45964" lon="0.8343">
        <ele>150</ele>
        <time>2013-09-01T08:59:26.182Z</time>
      </trkpt>
      <trkpt lat="47.45959" lon="0.83423">
        <ele>150</ele>
        <time>2013-09-01T08:59:27.200Z</time>
      </trkpt>
      <trkpt lat="47.45955" lon="0.83417">
        <ele>149</ele>
        <time>2013-09-01T08:59:28.193Z</time>
      </trkpt>
      <trkpt lat="47.45951" lon="0.83408">
        <ele>149</ele>
        <time>2013-09-01T08:59:29.178Z</time>
      </trkpt>
      <trkpt lat="47.45947" lon="0.83402">
        <ele>149</ele>
        <time>2013-09-01T08:59:30.191Z</time>
      </trkpt>
      <trkpt lat="47.45942" lon="0.83393">
        <ele>149</ele>
        <time>2013-09-01T08:59:31.176Z</time>
      </trkpt>
      <trkpt lat="47.45939" lon="0.83387">
        <ele>149</ele>
        <time>2013-09-01T08:59:32.187Z</time>
      </trkpt>
      <trkpt lat="47.45935" lon="0.8338">
        <ele>149</ele>
        <time>2013-09-01T08:59:33.175Z</time>
      </trkpt>
      <trkpt lat="47.4593" lon="0.83376">
        <ele>148</ele>
        <time>2013-09-01T08:59:34.179Z</time>
      </trkpt>
      <trkpt lat="47.45924" lon="0.83369">
        <ele>147</ele>
        <time>2013-09-01T08:59:37.226Z</time>
      </trkpt>
      <trkpt lat="47.45922" lon="0.83369">
        <ele>146</ele>
        <time>2013-09-01T08:59:38.233Z</time>
      </trkpt>
      <trkpt lat="47.45917" lon="0.83376">
        <ele>146</ele>
        <time>2013-09-01T08:59:40.183Z</time>
      </trkpt>
      <trkpt lat="47.45914" lon="0.8338">
        <ele>146</ele>
        <time>2013-09-01T08:59:41.249Z</time>
      </trkpt>
      <trkpt lat="47.45912" lon="0.83386">
        <ele>145</ele>
        <time>2013-09-01T08:59:42.216Z</time>
      </trkpt>
      <trkpt lat="47.45909" lon="0.83391">
        <ele>145</ele>
        <time>2013-09-01T08:59:43.176Z</time>
      </trkpt>
      <trkpt lat="47.45904" lon="0.834">
        <ele>145</ele>
        <time>2013-09-01T08:59:45.186Z</time>
      </trkpt>
      <trkpt lat="47.459" lon="0.83404">
        <ele>144</ele>
        <time>2013-09-01T08:59:46.183Z</time>
      </trkpt>
      <trkpt lat="47.45897" lon="0.83408">
        <ele>144</ele>
        <time>2013-09-01T08:59:47.180Z</time>
      </trkpt>
      <trkpt lat="47.45893" lon="0.83414">
        <ele>143</ele>
        <time>2013-09-01T08:59:48.178Z</time>
      </trkpt>
      <trkpt lat="47.4589" lon="0.83421">
        <ele>143</ele>
        <time>2013-09-01T08:59:49.178Z</time>
      </trkpt>
      <trkpt lat="47.45886" lon="0.83425">
        <ele>143</ele>
        <time>2013-09-01T08:59:50.178Z</time>
      </trkpt>
      <trkpt lat="47.45882" lon="0.83432">
        <ele>142</ele>
        <time>2013-09-01T08:59:51.177Z</time>
      </trkpt>
      <trkpt lat="47.45878" lon="0.83438">
        <ele>142</ele>
        <time>2013-09-01T08:59:52.185Z</time>
      </trkpt>
      <trkpt lat="47.45874" lon="0.83443">
        <ele>142</ele>
        <time>2013-09-01T08:59:53.180Z</time>
      </trkpt>
      <trkpt lat="47.45871" lon="0.83449">
        <ele>142</ele>
        <time>2013-09-01T08:59:54.182Z</time>
      </trkpt>
      <trkpt lat="47.45866" lon="0.83455">
        <ele>141</ele>
        <time>2013-09-01T08:59:55.197Z</time>
      </trkpt>
      <trkpt lat="47.45862" lon="0.83462">
        <ele>141</ele>
        <time>2013-09-01T08:59:56.229Z</time>
      </trkpt>
      <trkpt lat="47.45858" lon="0.83468">
        <ele>141</ele>
        <time>2013-09-01T08:59:57.182Z</time>
      </trkpt>
      <trkpt lat="47.45854" lon="0.83475">
        <ele>140</ele>
        <time>2013-09-01T08:59:58.178Z</time>
      </trkpt>
      <trkpt lat="47.4585" lon="0.83481">
        <ele>140</ele>
        <time>2013-09-01T08:59:59.176Z</time>
      </trkpt>
      <trkpt lat="47.45846" lon="0.8349">
        <ele>140</ele>
        <time>2013-09-01T09:00:00.189Z</time>
      </trkpt>
      <trkpt lat="47.45843" lon="0.83498">
        <ele>139</ele>
        <time>2013-09-01T09:00:01.209Z</time>
      </trkpt>
      <trkpt lat="47.45838" lon="0.83507">
        <ele>139</ele>
        <time>2013-09-01T09:00:02.176Z</time>
      </trkpt>
      <trkpt lat="47.45835" lon="0.83516">
        <ele>138</ele>
        <time>2013-09-01T09:00:03.778Z</time>
      </trkpt>
      <trkpt lat="47.45831" lon="0.83524">
        <ele>137</ele>
        <time>2013-09-01T09:00:04.581Z</time>
      </trkpt>
      <trkpt lat="47.45826" lon="0.83533">
        <ele>137</ele>
        <time>2013-09-01T09:00:05.587Z</time>
      </trkpt>
      <trkpt lat="47.4582" lon="0.83541">
        <ele>136</ele>
        <time>2013-09-01T09:00:06.640Z</time>
      </trkpt>
      <trkpt lat="47.45815" lon="0.83552">
        <ele>136</ele>
        <time>2013-09-01T09:00:07.632Z</time>
      </trkpt>
      <trkpt lat="47.45808" lon="0.83559">
        <ele>135</ele>
        <time>2013-09-01T09:00:08.627Z</time>
      </trkpt>
      <trkpt lat="47.45802" lon="0.83569">
        <ele>134</ele>
        <time>2013-09-01T09:00:09.681Z</time>
      </trkpt>
      <trkpt lat="47.45795" lon="0.83578">
        <ele>133</ele>
        <time>2013-09-01T09:00:10.644Z</time>
      </trkpt>
      <trkpt lat="47.45788" lon="0.83588">
        <ele>132</ele>
        <time>2013-09-01T09:00:11.635Z</time>
      </trkpt>
      <trkpt lat="47.45781" lon="0.83597">
        <ele>131</ele>
        <time>2013-09-01T09:00:12.639Z</time>
      </trkpt>
      <trkpt lat="47.45774" lon="0.83608">
        <ele>131</ele>
        <time>2013-09-01T09:00:13.637Z</time>
      </trkpt>
      <trkpt lat="47.45767" lon="0.83616">
        <ele>130</ele>
        <time>2013-09-01T09:00:14.632Z</time>
      </trkpt>
      <trkpt lat="47.45759" lon="0.83627">
        <ele>129</ele>
        <time>2013-09-01T09:00:15.645Z</time>
      </trkpt>
      <trkpt lat="47.45752" lon="0.83638">
        <ele>129</ele>
        <time>2013-09-01T09:00:16.637Z</time>
      </trkpt>
      <trkpt lat="47.45745" lon="0.8365">
        <ele>128</ele>
        <time>2013-09-01T09:00:17.632Z</time>
      </trkpt>
      <trkpt lat="47.4574" lon="0.83663">
        <ele>128</ele>
        <time>2013-09-01T09:00:18.633Z</time>
      </trkpt>
      <trkpt lat="47.45734" lon="0.83676">
        <ele>128</ele>
        <time>2013-09-01T09:00:19.641Z</time>
      </trkpt>
      <trkpt lat="47.4573" lon="0.83689">
        <ele>128</ele>
        <time>2013-09-01T09:00:20.632Z</time>
      </trkpt>
      <trkpt lat="47.45727" lon="0.837">
        <ele>128</ele>
        <time>2013-09-01T09:00:21.609Z</time>
      </trkpt>
      <trkpt lat="47.45724" lon="0.83711">
        <ele>128</ele>
        <time>2013-09-01T09:00:22.639Z</time>
      </trkpt>
      <trkpt lat="47.45721" lon="0.83717">
        <ele>128</ele>
        <time>2013-09-01T09:00:23.637Z</time>
      </trkpt>
      <trkpt lat="47.45719" lon="0.83724">
        <ele>128</ele>
        <time>2013-09-01T09:00:24.635Z</time>
      </trkpt>
      <trkpt lat="47.45718" lon="0.83736">
        <ele>129</ele>
        <time>2013-09-01T09:00:27.636Z</time>
      </trkpt>
      <trkpt lat="47.45719" lon="0.83743">
        <ele>129</ele>
        <time>2013-09-01T09:00:28.641Z</time>
      </trkpt>
      <trkpt lat="47.45721" lon="0.83749">
        <ele>129</ele>
        <time>2013-09-01T09:00:29.630Z</time>
      </trkpt>
      <trkpt lat="47.45723" lon="0.83756">
        <ele>128</ele>
        <time>2013-09-01T09:00:30.638Z</time>
      </trkpt>
      <trkpt lat="47.45725" lon="0.83764">
        <ele>128</ele>
        <time>2013-09-01T09:00:31.589Z</time>
      </trkpt>
      <trkpt lat="47.45726" lon="0.83771">
        <ele>128</ele>
        <time>2013-09-01T09:00:32.640Z</time>
      </trkpt>
      <trkpt lat="47.45727" lon="0.83779">
        <ele>128</ele>
        <time>2013-09-01T09:00:33.636Z</time>
      </trkpt>
      <trkpt lat="47.45728" lon="0.83788">
        <ele>127</ele>
        <time>2013-09-01T09:00:34.636Z</time>
      </trkpt>
      <trkpt lat="47.45728" lon="0.83798">
        <ele>127</ele>
        <time>2013-09-01T09:00:35.647Z</time>
      </trkpt>
      <trkpt lat="47.45727" lon="0.83809">
        <ele>127</ele>
        <time>2013-09-01T09:00:36.579Z</time>
      </trkpt>
      <trkpt lat="47.45728" lon="0.8382">
        <ele>127</ele>
        <time>2013-09-01T09:00:37.584Z</time>
      </trkpt>
      <trkpt lat="47.45727" lon="0.83831">
        <ele>126</ele>
        <time>2013-09-01T09:00:38.572Z</time>
      </trkpt>
      <trkpt lat="47.45726" lon="0.8384">
        <ele>126</ele>
        <time>2013-09-01T09:00:39.625Z</time>
      </trkpt>
      <trkpt lat="47.45723" lon="0.8385">
        <ele>127</ele>
        <time>2013-09-01T09:00:40.627Z</time>
      </trkpt>
      <trkpt lat="47.45721" lon="0.83861">
        <ele>126</ele>
        <time>2013-09-01T09:00:41.624Z</time>
      </trkpt>
      <trkpt lat="47.45719" lon="0.83872">
        <ele>126</ele>
        <time>2013-09-01T09:00:42.636Z</time>
      </trkpt>
      <trkpt lat="47.45716" lon="0.83881">
        <ele>126</ele>
        <time>2013-09-01T09:00:43.731Z</time>
      </trkpt>
      <trkpt lat="47.45712" lon="0.83887">
        <ele>126</ele>
        <time>2013-09-01T09:00:44.593Z</time>
      </trkpt>
      <trkpt lat="47.45707" lon="0.83895">
        <ele>126</ele>
        <time>2013-09-01T09:00:45.635Z</time>
      </trkpt>
      <trkpt lat="47.45703" lon="0.83904">
        <ele>125</ele>
        <time>2013-09-01T09:00:46.589Z</time>
      </trkpt>
      <trkpt lat="47.45698" lon="0.83914">
        <ele>124</ele>
        <time>2013-09-01T09:00:47.583Z</time>
      </trkpt>
      <trkpt lat="47.45694" lon="0.83923">
        <ele>124</ele>
        <time>2013-09-01T09:00:48.599Z</time>
      </trkpt>
      <trkpt lat="47.4569" lon="0.83932">
        <ele>124</ele>
        <time>2013-09-01T09:00:49.626Z</time>
      </trkpt>
      <trkpt lat="47.45686" lon="0.8394">
        <ele>124</ele>
        <time>2013-09-01T09:00:50.642Z</time>
      </trkpt>
      <trkpt lat="47.45682" lon="0.83949">
        <ele>124</ele>
        <time>2013-09-01T09:00:51.583Z</time>
      </trkpt>
      <trkpt lat="47.45679" lon="0.83958">
        <ele>124</ele>
        <time>2013-09-01T09:00:52.636Z</time>
      </trkpt>
      <trkpt lat="47.45675" lon="0.83966">
        <ele>123</ele>
        <time>2013-09-01T09:00:53.633Z</time>
      </trkpt>
      <trkpt lat="47.45673" lon="0.83973">
        <ele>123</ele>
        <time>2013-09-01T09:00:54.592Z</time>
      </trkpt>
      <trkpt lat="47.4567" lon="0.83981">
        <ele>124</ele>
        <time>2013-09-01T09:00:55.605Z</time>
      </trkpt>
      <trkpt lat="47.45669" lon="0.83988">
        <ele>124</ele>
        <time>2013-09-01T09:00:56.634Z</time>
      </trkpt>
      <trkpt lat="47.45671" lon="0.83998">
        <ele>124</ele>
        <time>2013-09-01T09:00:58.626Z</time>
      </trkpt>
      <trkpt lat="47.45674" lon="0.84003">
        <ele>125</ele>
        <time>2013-09-01T09:00:59.654Z</time>
      </trkpt>
      <trkpt lat="47.45676" lon="0.84009">
        <ele>125</ele>
        <time>2013-09-01T09:01:00.584Z</time>
      </trkpt>
      <trkpt lat="47.45679" lon="0.84013">
        <ele>125</ele>
        <time>2013-09-01T09:01:01.623Z</time>
      </trkpt>
      <trkpt lat="47.45685" lon="0.8402">
        <ele>127</ele>
        <time>2013-09-01T09:01:03.596Z</time>
      </trkpt>
      <trkpt lat="47.45687" lon="0.84024">
        <ele>127</ele>
        <time>2013-09-01T09:01:04.677Z</time>
      </trkpt>
      <trkpt lat="47.45693" lon="0.8403">
        <ele>129</ele>
        <time>2013-09-01T09:01:06.607Z</time>
      </trkpt>
      <trkpt lat="47.45698" lon="0.84033">
        <ele>130</ele>
        <time>2013-09-01T09:01:07.626Z</time>
      </trkpt>
      <trkpt lat="47.45703" lon="0.84039">
        <ele>133</ele>
        <time>2013-09-01T09:01:09.569Z</time>
      </trkpt>
      <trkpt lat="47.45706" lon="0.84041">
        <ele>135</ele>
        <time>2013-09-01T09:01:10.594Z</time>
      </trkpt>
      <trkpt lat="47.45711" lon="0.84045">
        <ele>136</ele>
        <time>2013-09-01T09:01:12.580Z</time>
      </trkpt>
      <trkpt lat="47.45713" lon="0.84049">
        <ele>138</ele>
        <time>2013-09-01T09:01:13.580Z</time>
      </trkpt>
      <trkpt lat="47.4572" lon="0.84054">
        <ele>143</ele>
        <time>2013-09-01T09:01:15.649Z</time>
      </trkpt>
      <trkpt lat="47.45723" lon="0.84056">
        <ele>145</ele>
        <time>2013-09-01T09:01:16.597Z</time>
      </trkpt>
      <trkpt lat="47.4573" lon="0.84063">
        <ele>147</ele>
        <time>2013-09-01T09:01:18.570Z</time>
      </trkpt>
      <trkpt lat="47.45734" lon="0.84065">
        <ele>146</ele>
        <time>2013-09-01T09:01:19.601Z</time>
      </trkpt>
      <trkpt lat="47.45739" lon="0.84067">
        <ele>144</ele>
        <time>2013-09-01T09:01:20.613Z</time>
      </trkpt>
      <trkpt lat="47.45744" lon="0.84069">
        <ele>142</ele>
        <time>2013-09-01T09:01:21.615Z</time>
      </trkpt>
      <trkpt lat="47.45752" lon="0.84072">
        <ele>140</ele>
        <time>2013-09-01T09:01:23.648Z</time>
      </trkpt>
      <trkpt lat="47.45756" lon="0.84073">
        <ele>139</ele>
        <time>2013-09-01T09:01:24.571Z</time>
      </trkpt>
      <trkpt lat="47.45763" lon="0.84075">
        <ele>139</ele>
        <time>2013-09-01T09:01:26.616Z</time>
      </trkpt>
      <trkpt lat="47.45767" lon="0.84077">
        <ele>138</ele>
        <time>2013-09-01T09:01:27.610Z</time>
      </trkpt>
      <trkpt lat="47.45774" lon="0.84084">
        <ele>138</ele>
        <time>2013-09-01T09:01:30.605Z</time>
      </trkpt>
      <trkpt lat="47.45776" lon="0.84084">
        <ele>138</ele>
        <time>2013-09-01T09:01:31.650Z</time>
      </trkpt>
      <trkpt lat="47.45783" lon="0.84086">
        <ele>135</ele>
        <time>2013-09-01T09:01:33.611Z</time>
      </trkpt>
      <trkpt lat="47.45786" lon="0.84088">
        <ele>134</ele>
        <time>2013-09-01T09:01:34.629Z</time>
      </trkpt>
      <trkpt lat="47.45792" lon="0.84093">
        <ele>135</ele>
        <time>2013-09-01T09:01:36.628Z</time>
      </trkpt>
      <trkpt lat="47.45795" lon="0.84095">
        <ele>135</ele>
        <time>2013-09-01T09:01:37.626Z</time>
      </trkpt>
      <trkpt lat="47.45801" lon="0.84101">
        <ele>136</ele>
        <time>2013-09-01T09:01:39.588Z</time>
      </trkpt>
      <trkpt lat="47.45803" lon="0.84104">
        <ele>137</ele>
        <time>2013-09-01T09:01:40.613Z</time>
      </trkpt>
      <trkpt lat="47.4581" lon="0.84108">
        <ele>138</ele>
        <time>2013-09-01T09:01:43.586Z</time>
      </trkpt>
      <trkpt lat="47.45814" lon="0.84108">
        <ele>138</ele>
        <time>2013-09-01T09:01:44.633Z</time>
      </trkpt>
      <trkpt lat="47.45821" lon="0.8411">
        <ele>140</ele>
        <time>2013-09-01T09:01:46.632Z</time>
      </trkpt>
      <trkpt lat="47.45824" lon="0.8411">
        <ele>141</ele>
        <time>2013-09-01T09:01:47.635Z</time>
      </trkpt>
      <trkpt lat="47.4583" lon="0.84114">
        <ele>142</ele>
        <time>2013-09-01T09:01:49.638Z</time>
      </trkpt>
      <trkpt lat="47.45833" lon="0.84116">
        <ele>141</ele>
        <time>2013-09-01T09:01:50.644Z</time>
      </trkpt>
      <trkpt lat="47.45839" lon="0.84119">
        <ele>145</ele>
        <time>2013-09-01T09:01:52.585Z</time>
      </trkpt>
      <trkpt lat="47.45843" lon="0.8412">
        <ele>146</ele>
        <time>2013-09-01T09:01:53.612Z</time>
      </trkpt>
      <trkpt lat="47.45849" lon="0.84126">
        <ele>150</ele>
        <time>2013-09-01T09:01:55.657Z</time>
      </trkpt>
      <trkpt lat="47.45851" lon="0.84129">
        <ele>151</ele>
        <time>2013-09-01T09:01:56.646Z</time>
      </trkpt>
      <trkpt lat="47.45858" lon="0.84136">
        <ele>154</ele>
        <time>2013-09-01T09:01:58.642Z</time>
      </trkpt>
      <trkpt lat="47.45862" lon="0.84138">
        <ele>154</ele>
        <time>2013-09-01T09:01:59.654Z</time>
      </trkpt>
      <trkpt lat="47.45868" lon="0.84146">
        <ele>157</ele>
        <time>2013-09-01T09:02:01.596Z</time>
      </trkpt>
      <trkpt lat="47.45871" lon="0.8415">
        <ele>158</ele>
        <time>2013-09-01T09:02:02.601Z</time>
      </trkpt>
      <trkpt lat="47.45876" lon="0.84155">
        <ele>159</ele>
        <time>2013-09-01T09:02:04.586Z</time>
      </trkpt>
      <trkpt lat="47.45879" lon="0.84157">
        <ele>160</ele>
        <time>2013-09-01T09:02:05.632Z</time>
      </trkpt>
      <trkpt lat="47.45887" lon="0.84161">
        <ele>160</ele>
        <time>2013-09-01T09:02:07.617Z</time>
      </trkpt>
      <trkpt lat="47.45891" lon="0.84165">
        <ele>160</ele>
        <time>2013-09-01T09:02:08.600Z</time>
      </trkpt>
      <trkpt lat="47.45899" lon="0.8417">
        <ele>160</ele>
        <time>2013-09-01T09:02:10.911Z</time>
      </trkpt>
      <trkpt lat="47.459" lon="0.84172">
        <ele>160</ele>
        <time>2013-09-01T09:02:11.586Z</time>
      </trkpt>
      <trkpt lat="47.45908" lon="0.84176">
        <ele>160</ele>
        <time>2013-09-01T09:02:14.640Z</time>
      </trkpt>
      <trkpt lat="47.45912" lon="0.84178">
        <ele>159</ele>
        <time>2013-09-01T09:02:15.585Z</time>
      </trkpt>
      <trkpt lat="47.45918" lon="0.8418">
        <ele>160</ele>
        <time>2013-09-01T09:02:17.627Z</time>
      </trkpt>
      <trkpt lat="47.4592" lon="0.84184">
        <ele>158</ele>
        <time>2013-09-01T09:02:18.593Z</time>
      </trkpt>
      <trkpt lat="47.45924" lon="0.84191">
        <ele>156</ele>
        <time>2013-09-01T09:02:20.700Z</time>
      </trkpt>
      <trkpt lat="47.45927" lon="0.84194">
        <ele>155</ele>
        <time>2013-09-01T09:02:21.696Z</time>
      </trkpt>
      <trkpt lat="47.45935" lon="0.84198">
        <ele>156</ele>
        <time>2013-09-01T09:02:24.684Z</time>
      </trkpt>
      <trkpt lat="47.45939" lon="0.84198">
        <ele>157</ele>
        <time>2013-09-01T09:02:25.635Z</time>
      </trkpt>
      <trkpt lat="47.45945" lon="0.84202">
        <ele>159</ele>
        <time>2013-09-01T09:02:27.663Z</time>
      </trkpt>
      <trkpt lat="47.45947" lon="0.84204">
        <ele>159</ele>
        <time>2013-09-01T09:02:28.738Z</time>
      </trkpt>
      <trkpt lat="47.45954" lon="0.84211">
        <ele>157</ele>
        <time>2013-09-01T09:02:30.679Z</time>
      </trkpt>
      <trkpt lat="47.45958" lon="0.84215">
        <ele>156</ele>
        <time>2013-09-01T09:02:31.626Z</time>
      </trkpt>
      <trkpt lat="47.45964" lon="0.84219">
        <ele>157</ele>
        <time>2013-09-01T09:02:33.635Z</time>
      </trkpt>
      <trkpt lat="47.45968" lon="0.84222">
        <ele>156</ele>
        <time>2013-09-01T09:02:34.626Z</time>
      </trkpt>
      <trkpt lat="47.45976" lon="0.84227">
        <ele>154</ele>
        <time>2013-09-01T09:02:36.685Z</time>
      </trkpt>
      <trkpt lat="47.45978" lon="0.84232">
        <ele>153</ele>
        <time>2013-09-01T09:02:37.690Z</time>
      </trkpt>
      <trkpt lat="47.45983" lon="0.84239">
        <ele>150</ele>
        <time>2013-09-01T09:02:39.655Z</time>
      </trkpt>
      <trkpt lat="47.45986" lon="0.84241">
        <ele>148</ele>
        <time>2013-09-01T09:02:40.705Z</time>
      </trkpt>
      <trkpt lat="47.45993" lon="0.84245">
        <ele>150</ele>
        <time>2013-09-01T09:02:42.745Z</time>
      </trkpt>
      <trkpt lat="47.45994" lon="0.84247">
        <ele>151</ele>
        <time>2013-09-01T09:02:43.650Z</time>
      </trkpt>
      <trkpt lat="47.46001" lon="0.8425">
        <ele>156</ele>
        <time>2013-09-01T09:02:46.692Z</time>
      </trkpt>
      <trkpt lat="47.46004" lon="0.84251">
        <ele>157</ele>
        <time>2013-09-01T09:02:47.711Z</time>
      </trkpt>
      <trkpt lat="47.4601" lon="0.84259">
        <ele>159</ele>
        <time>2013-09-01T09:02:50.689Z</time>
      </trkpt>
      <trkpt lat="47.46013" lon="0.84262">
        <ele>157</ele>
        <time>2013-09-01T09:02:51.693Z</time>
      </trkpt>
      <trkpt lat="47.4602" lon="0.84266">
        <ele>157</ele>
        <time>2013-09-01T09:02:54.663Z</time>
      </trkpt>
      <trkpt lat="47.46022" lon="0.84268">
        <ele>158</ele>
        <time>2013-09-01T09:02:55.009Z</time>
      </trkpt>
      <trkpt lat="47.46027" lon="0.84271">
        <ele>160</ele>
        <time>2013-09-01T09:02:57.028Z</time>
      </trkpt>
      <trkpt lat="47.4603" lon="0.84273">
        <ele>161</ele>
        <time>2013-09-01T09:02:58.064Z</time>
      </trkpt>
      <trkpt lat="47.46037" lon="0.84278">
        <ele>162</ele>
        <time>2013-09-01T09:03:01.064Z</time>
      </trkpt>
      <trkpt lat="47.4604" lon="0.84278">
        <ele>160</ele>
        <time>2013-09-01T09:03:02.019Z</time>
      </trkpt>
      <trkpt lat="47.46044" lon="0.84281">
        <ele>158</ele>
        <time>2013-09-01T09:03:03.041Z</time>
      </trkpt>
      <trkpt lat="47.46048" lon="0.84282">
        <ele>158</ele>
        <time>2013-09-01T09:03:04.069Z</time>
      </trkpt>
      <trkpt lat="47.46055" lon="0.84286">
        <ele>160</ele>
        <time>2013-09-01T09:03:08.027Z</time>
      </trkpt>
      <trkpt lat="47.46057" lon="0.84288">
        <ele>161</ele>
        <time>2013-09-01T09:03:09.009Z</time>
      </trkpt>
      <trkpt lat="47.46062" lon="0.84294">
        <ele>163</ele>
        <time>2013-09-01T09:03:11.069Z</time>
      </trkpt>
      <trkpt lat="47.46066" lon="0.84297">
        <ele>163</ele>
        <time>2013-09-01T09:03:12.065Z</time>
      </trkpt>
      <trkpt lat="47.4607" lon="0.84305">
        <ele>163</ele>
        <time>2013-09-01T09:03:15.109Z</time>
      </trkpt>
      <trkpt lat="47.46073" lon="0.84306">
        <ele>163</ele>
        <time>2013-09-01T09:03:16.021Z</time>
      </trkpt>
      <trkpt lat="47.4608" lon="0.84309">
        <ele>165</ele>
        <time>2013-09-01T09:03:19.022Z</time>
      </trkpt>
      <trkpt lat="47.46082" lon="0.8431">
        <ele>167</ele>
        <time>2013-09-01T09:03:20.011Z</time>
      </trkpt>
      <trkpt lat="47.46088" lon="0.84312">
        <ele>168</ele>
        <time>2013-09-01T09:03:22.069Z</time>
      </trkpt>
      <trkpt lat="47.46091" lon="0.84315">
        <ele>168</ele>
        <time>2013-09-01T09:03:23.082Z</time>
      </trkpt>
      <trkpt lat="47.46098" lon="0.84322">
        <ele>169</ele>
        <time>2013-09-01T09:03:26.013Z</time>
      </trkpt>
      <trkpt lat="47.461" lon="0.84323">
        <ele>170</ele>
        <time>2013-09-01T09:03:27.018Z</time>
      </trkpt>
      <trkpt lat="47.46107" lon="0.84329">
        <ele>171</ele>
        <time>2013-09-01T09:03:31.026Z</time>
      </trkpt>
      <trkpt lat="47.4611" lon="0.84329">
        <ele>171</ele>
        <time>2013-09-01T09:03:32.117Z</time>
      </trkpt>
      <trkpt lat="47.46116" lon="0.84337">
        <ele>171</ele>
        <time>2013-09-01T09:03:35.078Z</time>
      </trkpt>
      <trkpt lat="47.46118" lon="0.8434">
        <ele>172</ele>
        <time>2013-09-01T09:03:36.070Z</time>
      </trkpt>
      <trkpt lat="47.46123" lon="0.84346">
        <ele>173</ele>
        <time>2013-09-01T09:03:39.080Z</time>
      </trkpt>
      <trkpt lat="47.46125" lon="0.84348">
        <ele>173</ele>
        <time>2013-09-01T09:03:40.095Z</time>
      </trkpt>
      <trkpt lat="47.46132" lon="0.84355">
        <ele>174</ele>
        <time>2013-09-01T09:03:46.027Z</time>
      </trkpt>
      <trkpt lat="47.46131" lon="0.84355">
        <ele>174</ele>
        <time>2013-09-01T09:03:47.058Z</time>
      </trkpt>
      <trkpt lat="47.46131" lon="0.84354">
        <ele>174</ele>
        <time>2013-09-01T09:03:48.134Z</time>
      </trkpt>
      <trkpt lat="47.46131" lon="0.84356">
        <ele>174</ele>
        <time>2013-09-01T09:03:49.015Z</time>
      </trkpt>
      <trkpt lat="47.46131" lon="0.84357">
        <ele>174</ele>
        <time>2013-09-01T09:03:51.064Z</time>
      </trkpt>
      <trkpt lat="47.46131" lon="0.84357">
        <ele>174</ele>
        <time>2013-09-01T09:03:52.043Z</time>
      </trkpt>
      <trkpt lat="47.46131" lon="0.84357">
        <ele>173</ele>
        <time>2013-09-01T09:03:56.061Z</time>
      </trkpt>
      <trkpt lat="47.46131" lon="0.84357">
        <ele>173</ele>
        <time>2013-09-01T09:03:57.061Z</time>
      </trkpt>
      <trkpt lat="47.46123" lon="0.8436">
        <ele>173</ele>
        <time>2013-09-01T09:04:04.050Z</time>
      </trkpt>
      <trkpt lat="47.46121" lon="0.84357">
        <ele>173</ele>
        <time>2013-09-01T09:04:05.075Z</time>
      </trkpt>
      <trkpt lat="47.46113" lon="0.84352">
        <ele>173</ele>
        <time>2013-09-01T09:04:07.072Z</time>
      </trkpt>
      <trkpt lat="47.46108" lon="0.8435">
        <ele>172</ele>
        <time>2013-09-01T09:04:08.057Z</time>
      </trkpt>
      <trkpt lat="47.46103" lon="0.84346">
        <ele>170</ele>
        <time>2013-09-01T09:04:09.068Z</time>
      </trkpt>
      <trkpt lat="47.46098" lon="0.84342">
        <ele>168</ele>
        <time>2013-09-01T09:04:10.088Z</time>
      </trkpt>
      <trkpt lat="47.46092" lon="0.84338">
        <ele>166</ele>
        <time>2013-09-01T09:04:11.054Z</time>
      </trkpt>
      <trkpt lat="47.46085" lon="0.84335">
        <ele>165</ele>
        <time>2013-09-01T09:04:12.067Z</time>
      </trkpt>
      <trkpt lat="47.46079" lon="0.84329">
        <ele>162</ele>
        <time>2013-09-01T09:04:13.005Z</time>
      </trkpt>
      <trkpt lat="47.46073" lon="0.84323">
        <ele>158</ele>
        <time>2013-09-01T09:04:14.057Z</time>
      </trkpt>
      <trkpt lat="47.46066" lon="0.84318">
        <ele>156</ele>
        <time>2013-09-01T09:04:15.006Z</time>
      </trkpt>
      <trkpt lat="47.46059" lon="0.84312">
        <ele>153</ele>
        <time>2013-09-01T09:04:16.061Z</time>
      </trkpt>
      <trkpt lat="47.46051" lon="0.84305">
        <ele>153</ele>
        <time>2013-09-01T09:04:17.054Z</time>
      </trkpt>
      <trkpt lat="47.46043" lon="0.843">
        <ele>155</ele>
        <time>2013-09-01T09:04:18.060Z</time>
      </trkpt>
      <trkpt lat="47.46036" lon="0.84295">
        <ele>157</ele>
        <time>2013-09-01T09:04:19.032Z</time>
      </trkpt>
      <trkpt lat="47.46029" lon="0.84291">
        <ele>157</ele>
        <time>2013-09-01T09:04:20.049Z</time>
      </trkpt>
      <trkpt lat="47.46022" lon="0.84286">
        <ele>157</ele>
        <time>2013-09-01T09:04:21.054Z</time>
      </trkpt>
      <trkpt lat="47.46015" lon="0.84281">
        <ele>155</ele>
        <time>2013-09-01T09:04:22.049Z</time>
      </trkpt>
      <trkpt lat="47.46008" lon="0.84275">
        <ele>156</ele>
        <time>2013-09-01T09:04:23.062Z</time>
      </trkpt>
      <trkpt lat="47.46001" lon="0.84271">
        <ele>155</ele>
        <time>2013-09-01T09:04:24.063Z</time>
      </trkpt>
      <trkpt lat="47.45995" lon="0.84265">
        <ele>154</ele>
        <time>2013-09-01T09:04:25.047Z</time>
      </trkpt>
      <trkpt lat="47.45989" lon="0.84258">
        <ele>152</ele>
        <time>2013-09-01T09:04:26.050Z</time>
      </trkpt>
      <trkpt lat="47.45984" lon="0.84252">
        <ele>150</ele>
        <time>2013-09-01T09:04:27.052Z</time>
      </trkpt>
      <trkpt lat="47.45976" lon="0.84245">
        <ele>150</ele>
        <time>2013-09-01T09:04:28.064Z</time>
      </trkpt>
      <trkpt lat="47.45969" lon="0.84239">
        <ele>151</ele>
        <time>2013-09-01T09:04:29.039Z</time>
      </trkpt>
      <trkpt lat="47.45962" lon="0.84232">
        <ele>150</ele>
        <time>2013-09-01T09:04:30.063Z</time>
      </trkpt>
      <trkpt lat="47.45954" lon="0.84227">
        <ele>150</ele>
        <time>2013-09-01T09:04:31.048Z</time>
      </trkpt>
      <trkpt lat="47.45947" lon="0.84221">
        <ele>151</ele>
        <time>2013-09-01T09:04:32.075Z</time>
      </trkpt>
      <trkpt lat="47.45941" lon="0.84215">
        <ele>148</ele>
        <time>2013-09-01T09:04:33.001Z</time>
      </trkpt>
      <trkpt lat="47.45933" lon="0.84209">
        <ele>149</ele>
        <time>2013-09-01T09:04:34.054Z</time>
      </trkpt>
      <trkpt lat="47.45925" lon="0.84204">
        <ele>150</ele>
        <time>2013-09-01T09:04:35.049Z</time>
      </trkpt>
      <trkpt lat="47.45919" lon="0.84201">
        <ele>151</ele>
        <time>2013-09-01T09:04:36.015Z</time>
      </trkpt>
      <trkpt lat="47.45911" lon="0.84198">
        <ele>152</ele>
        <time>2013-09-01T09:04:37.013Z</time>
      </trkpt>
      <trkpt lat="47.45904" lon="0.84195">
        <ele>151</ele>
        <time>2013-09-01T09:04:38.048Z</time>
      </trkpt>
      <trkpt lat="47.45897" lon="0.8419">
        <ele>151</ele>
        <time>2013-09-01T09:04:39.031Z</time>
      </trkpt>
      <trkpt lat="47.45892" lon="0.84183">
        <ele>150</ele>
        <time>2013-09-01T09:04:40.069Z</time>
      </trkpt>
      <trkpt lat="47.45885" lon="0.84178">
        <ele>151</ele>
        <time>2013-09-01T09:04:41.017Z</time>
      </trkpt>
      <trkpt lat="47.45879" lon="0.84174">
        <ele>151</ele>
        <time>2013-09-01T09:04:42.127Z</time>
      </trkpt>
      <trkpt lat="47.45872" lon="0.84168">
        <ele>152</ele>
        <time>2013-09-01T09:04:43.027Z</time>
      </trkpt>
      <trkpt lat="47.45865" lon="0.84163">
        <ele>151</ele>
        <time>2013-09-01T09:04:44.074Z</time>
      </trkpt>
      <trkpt lat="47.45859" lon="0.84159">
        <ele>152</ele>
        <time>2013-09-01T09:04:45.072Z</time>
      </trkpt>
      <trkpt lat="47.45852" lon="0.84155">
        <ele>154</ele>
        <time>2013-09-01T09:04:46.114Z</time>
      </trkpt>
      <trkpt lat="47.45846" lon="0.84151">
        <ele>155</ele>
        <time>2013-09-01T09:04:47.011Z</time>
      </trkpt>
      <trkpt lat="47.4584" lon="0.84146">
        <ele>153</ele>
        <time>2013-09-01T09:04:48.030Z</time>
      </trkpt>
      <trkpt lat="47.45835" lon="0.84142">
        <ele>151</ele>
        <time>2013-09-01T09:04:49.040Z</time>
      </trkpt>
      <trkpt lat="47.4583" lon="0.84136">
        <ele>150</ele>
        <time>2013-09-01T09:04:50.063Z</time>
      </trkpt>
      <trkpt lat="47.45825" lon="0.8413">
        <ele>149</ele>
        <time>2013-09-01T09:04:51.008Z</time>
      </trkpt>
      <trkpt lat="47.4582" lon="0.84124">
        <ele>149</ele>
        <time>2013-09-01T09:04:51.997Z</time>
      </trkpt>
      <trkpt lat="47.45815" lon="0.84122">
        <ele>149</ele>
        <time>2013-09-01T09:04:53.019Z</time>
      </trkpt>
      <trkpt lat="47.4581" lon="0.8412">
        <ele>148</ele>
        <time>2013-09-01T09:04:54.065Z</time>
      </trkpt>
      <trkpt lat="47.45806" lon="0.84116">
        <ele>148</ele>
        <time>2013-09-01T09:04:55.071Z</time>
      </trkpt>
      <trkpt lat="47.45802" lon="0.84114">
        <ele>148</ele>
        <time>2013-09-01T09:04:56.056Z</time>
      </trkpt>
      <trkpt lat="47.45797" lon="0.8411">
        <ele>149</ele>
        <time>2013-09-01T09:04:57.047Z</time>
      </trkpt>
      <trkpt lat="47.45792" lon="0.84107">
        <ele>149</ele>
        <time>2013-09-01T09:04:58.042Z</time>
      </trkpt>
      <trkpt lat="47.45788" lon="0.84102">
        <ele>148</ele>
        <time>2013-09-01T09:04:59.064Z</time>
      </trkpt>
      <trkpt lat="47.45784" lon="0.84097">
        <ele>148</ele>
        <time>2013-09-01T09:05:00.069Z</time>
      </trkpt>
      <trkpt lat="47.4578" lon="0.84093">
        <ele>146</ele>
        <time>2013-09-01T09:05:01.045Z</time>
      </trkpt>
      <trkpt lat="47.45777" lon="0.84088">
        <ele>146</ele>
        <time>2013-09-01T09:05:02.049Z</time>
      </trkpt>
      <trkpt lat="47.45774" lon="0.84088">
        <ele>137</ele>
        <time>2013-09-01T09:05:07.021Z</time>
      </trkpt>
      <trkpt lat="47.45774" lon="0.84089">
        <ele>137</ele>
        <time>2013-09-01T09:05:08.008Z</time>
      </trkpt>
      <trkpt lat="47.45774" lon="0.84088">
        <ele>138</ele>
        <time>2013-09-01T09:05:18.064Z</time>
      </trkpt>
      <trkpt lat="47.45774" lon="0.8409">
        <ele>138</ele>
        <time>2013-09-01T09:05:19.010Z</time>
      </trkpt>
      <trkpt lat="47.45773" lon="0.84088">
        <ele>140</ele>
        <time>2013-09-01T09:05:23.005Z</time>
      </trkpt>
      <trkpt lat="47.45773" lon="0.84088">
        <ele>140</ele>
        <time>2013-09-01T09:05:24.046Z</time>
      </trkpt>
      <trkpt lat="47.45773" lon="0.84088">
        <ele>140</ele>
        <time>2013-09-01T09:05:35.037Z</time>
      </trkpt>
      <trkpt lat="47.45774" lon="0.84088">
        <ele>140</ele>
        <time>2013-09-01T09:05:36.039Z</time>
      </trkpt>
      <trkpt lat="47.45773" lon="0.84101">
        <ele>143</ele>
        <time>2013-09-01T09:05:56.072Z</time>
      </trkpt>
      <trkpt lat="47.45773" lon="0.84103">
        <ele>144</ele>
        <time>2013-09-01T09:05:57.067Z</time>
      </trkpt>
      <trkpt lat="47.45771" lon="0.84114">
        <ele>150</ele>
        <time>2013-09-01T09:06:03.051Z</time>
      </trkpt>
      <trkpt lat="47.4577" lon="0.84116">
        <ele>150</ele>
        <time>2013-09-01T09:06:04.069Z</time>
      </trkpt>
      <trkpt lat="47.4577" lon="0.84129">
        <ele>152</ele>
        <time>2013-09-01T09:06:09.138Z</time>
      </trkpt>
      <trkpt lat="47.4577" lon="0.84133">
        <ele>152</ele>
        <time>2013-09-01T09:06:10.087Z</time>
      </trkpt>
      <trkpt lat="47.45768" lon="0.84144">
        <ele>152</ele>
        <time>2013-09-01T09:06:18.036Z</time>
      </trkpt>
      <trkpt lat="47.45768" lon="0.84146">
        <ele>152</ele>
        <time>2013-09-01T09:06:18.978Z</time>
      </trkpt>
      <trkpt lat="47.4577" lon="0.84159">
        <ele>154</ele>
        <time>2013-09-01T09:06:25.971Z</time>
      </trkpt>
      <trkpt lat="47.4577" lon="0.8416">
        <ele>154</ele>
        <time>2013-09-01T09:06:26.964Z</time>
      </trkpt>
      <trkpt lat="47.45775" lon="0.8417">
        <ele>161</ele>
        <time>2013-09-01T09:06:33.965Z</time>
      </trkpt>
      <trkpt lat="47.45775" lon="0.84172">
        <ele>161</ele>
        <time>2013-09-01T09:06:34.982Z</time>
      </trkpt>
      <trkpt lat="47.45777" lon="0.84176">
        <ele>164</ele>
        <time>2013-09-01T09:06:41.017Z</time>
      </trkpt>
      <trkpt lat="47.45777" lon="0.84176">
        <ele>164</ele>
        <time>2013-09-01T09:06:41.979Z</time>
      </trkpt>
      <trkpt lat="47.45777" lon="0.84176">
        <ele>164</ele>
        <time>2013-09-01T09:06:52.970Z</time>
      </trkpt>
      <trkpt lat="47.45777" lon="0.84178">
        <ele>164</ele>
        <time>2013-09-01T09:06:53.987Z</time>
      </trkpt>
      <trkpt lat="47.45779" lon="0.8419">
        <ele>165</ele>
        <time>2013-09-01T09:07:00.101Z</time>
      </trkpt>
      <trkpt lat="47.45779" lon="0.84195">
        <ele>165</ele>
        <time>2013-09-01T09:07:00.990Z</time>
      </trkpt>
      <trkpt lat="47.45779" lon="0.84205">
        <ele>165</ele>
        <time>2013-09-01T09:07:04.029Z</time>
      </trkpt>
      <trkpt lat="47.45779" lon="0.84208">
        <ele>166</ele>
        <time>2013-09-01T09:07:05.034Z</time>
      </trkpt>
      <trkpt lat="47.45776" lon="0.84219">
        <ele>164</ele>
        <time>2013-09-01T09:07:10.010Z</time>
      </trkpt>
      <trkpt lat="47.45776" lon="0.84221">
        <ele>164</ele>
        <time>2013-09-01T09:07:11.034Z</time>
      </trkpt>
      <trkpt lat="47.45774" lon="0.84234">
        <ele>167</ele>
        <time>2013-09-01T09:07:16.034Z</time>
      </trkpt>
      <trkpt lat="47.45771" lon="0.84238">
        <ele>167</ele>
        <time>2013-09-01T09:07:17.031Z</time>
      </trkpt>
      <trkpt lat="47.45769" lon="0.84249">
        <ele>166</ele>
        <time>2013-09-01T09:07:22.031Z</time>
      </trkpt>
      <trkpt lat="47.45769" lon="0.84251">
        <ele>166</ele>
        <time>2013-09-01T09:07:23.039Z</time>
      </trkpt>
      <trkpt lat="47.45768" lon="0.84262">
        <ele>167</ele>
        <time>2013-09-01T09:07:27.028Z</time>
      </trkpt>
      <trkpt lat="47.45767" lon="0.84264">
        <ele>165</ele>
        <time>2013-09-01T09:07:28.032Z</time>
      </trkpt>
      <trkpt lat="47.4576" lon="0.84271">
        <ele>162</ele>
        <time>2013-09-01T09:07:31.964Z</time>
      </trkpt>
      <trkpt lat="47.45758" lon="0.84271">
        <ele>162</ele>
        <time>2013-09-01T09:07:32.991Z</time>
      </trkpt>
      <trkpt lat="47.45751" lon="0.84267">
        <ele>161</ele>
        <time>2013-09-01T09:07:37.029Z</time>
      </trkpt>
      <trkpt lat="47.45749" lon="0.84264">
        <ele>161</ele>
        <time>2013-09-01T09:07:38.030Z</time>
      </trkpt>
      <trkpt lat="47.45742" lon="0.84258">
        <ele>159</ele>
        <time>2013-09-01T09:07:42.044Z</time>
      </trkpt>
      <trkpt lat="47.4574" lon="0.84258">
        <ele>159</ele>
        <time>2013-09-01T09:07:43.090Z</time>
      </trkpt>
      <trkpt lat="47.45733" lon="0.84249">
        <ele>159</ele>
        <time>2013-09-01T09:07:47.037Z</time>
      </trkpt>
      <trkpt lat="47.45731" lon="0.84247">
        <ele>159</ele>
        <time>2013-09-01T09:07:48.037Z</time>
      </trkpt>
      <trkpt lat="47.45724" lon="0.84239">
        <ele>158</ele>
        <time>2013-09-01T09:07:51.987Z</time>
      </trkpt>
      <trkpt lat="47.45723" lon="0.84236">
        <ele>159</ele>
        <time>2013-09-01T09:07:53.016Z</time>
      </trkpt>
      <trkpt lat="47.45717" lon="0.8423">
        <ele>159</ele>
        <time>2013-09-01T09:07:55.044Z</time>
      </trkpt>
      <trkpt lat="47.45715" lon="0.84228">
        <ele>159</ele>
        <time>2013-09-01T09:07:55.990Z</time>
      </trkpt>
      <trkpt lat="47.45708" lon="0.84224">
        <ele>159</ele>
        <time>2013-09-01T09:07:57.998Z</time>
      </trkpt>
      <trkpt lat="47.45706" lon="0.84223">
        <ele>159</ele>
        <time>2013-09-01T09:07:59.034Z</time>
      </trkpt>
      <trkpt lat="47.457" lon="0.84219">
        <ele>159</ele>
        <time>2013-09-01T09:08:00.984Z</time>
      </trkpt>
      <trkpt lat="47.45698" lon="0.84217">
        <ele>159</ele>
        <time>2013-09-01T09:08:02.019Z</time>
      </trkpt>
      <trkpt lat="47.45691" lon="0.84213">
        <ele>159</ele>
        <time>2013-09-01T09:08:04.040Z</time>
      </trkpt>
      <trkpt lat="47.45689" lon="0.84211">
        <ele>160</ele>
        <time>2013-09-01T09:08:05.046Z</time>
      </trkpt>
      <trkpt lat="47.45684" lon="0.84206">
        <ele>159</ele>
        <time>2013-09-01T09:08:07.004Z</time>
      </trkpt>
      <trkpt lat="47.45681" lon="0.84204">
        <ele>160</ele>
        <time>2013-09-01T09:08:08.011Z</time>
      </trkpt>
      <trkpt lat="47.45675" lon="0.84198">
        <ele>159</ele>
        <time>2013-09-01T09:08:10.051Z</time>
      </trkpt>
      <trkpt lat="47.45672" lon="0.84196">
        <ele>159</ele>
        <time>2013-09-01T09:08:11.057Z</time>
      </trkpt>
      <trkpt lat="47.45665" lon="0.84191">
        <ele>160</ele>
        <time>2013-09-01T09:08:13.984Z</time>
      </trkpt>
      <trkpt lat="47.45661" lon="0.84189">
        <ele>160</ele>
        <time>2013-09-01T09:08:14.981Z</time>
      </trkpt>
      <trkpt lat="47.45655" lon="0.84185">
        <ele>160</ele>
        <time>2013-09-01T09:08:16.984Z</time>
      </trkpt>
      <trkpt lat="47.45653" lon="0.84185">
        <ele>160</ele>
        <time>2013-09-01T09:08:18.008Z</time>
      </trkpt>
      <trkpt lat="47.45646" lon="0.84183">
        <ele>159</ele>
        <time>2013-09-01T09:08:19.980Z</time>
      </trkpt>
      <trkpt lat="47.45642" lon="0.84183">
        <ele>159</ele>
        <time>2013-09-01T09:08:21.037Z</time>
      </trkpt>
      <trkpt lat="47.45636" lon="0.84183">
        <ele>158</ele>
        <time>2013-09-01T09:08:22.970Z</time>
      </trkpt>
      <trkpt lat="47.45632" lon="0.84183">
        <ele>159</ele>
        <time>2013-09-01T09:08:24.003Z</time>
      </trkpt>
      <trkpt lat="47.45625" lon="0.84183">
        <ele>159</ele>
        <time>2013-09-01T09:08:26.023Z</time>
      </trkpt>
      <trkpt lat="47.45621" lon="0.84183">
        <ele>159</ele>
        <time>2013-09-01T09:08:27.069Z</time>
      </trkpt>
      <trkpt lat="47.45614" lon="0.84185">
        <ele>159</ele>
        <time>2013-09-01T09:08:28.985Z</time>
      </trkpt>
      <trkpt lat="47.45611" lon="0.84187">
        <ele>160</ele>
        <time>2013-09-01T09:08:29.978Z</time>
      </trkpt>
      <trkpt lat="47.45604" lon="0.84189">
        <ele>160</ele>
        <time>2013-09-01T09:08:31.996Z</time>
      </trkpt>
      <trkpt lat="47.45601" lon="0.84189">
        <ele>159</ele>
        <time>2013-09-01T09:08:33.003Z</time>
      </trkpt>
      <trkpt lat="47.45594" lon="0.84193">
        <ele>161</ele>
        <time>2013-09-01T09:08:35.001Z</time>
      </trkpt>
      <trkpt lat="47.45591" lon="0.84196">
        <ele>161</ele>
        <time>2013-09-01T09:08:36.034Z</time>
      </trkpt>
      <trkpt lat="47.45583" lon="0.84198">
        <ele>162</ele>
        <time>2013-09-01T09:08:37.989Z</time>
      </trkpt>
      <trkpt lat="47.45579" lon="0.842">
        <ele>162</ele>
        <time>2013-09-01T09:08:38.974Z</time>
      </trkpt>
      <trkpt lat="47.45571" lon="0.842">
        <ele>162</ele>
        <time>2013-09-01T09:08:40.989Z</time>
      </trkpt>
      <trkpt lat="47.45568" lon="0.84202">
        <ele>162</ele>
        <time>2013-09-01T09:08:42.059Z</time>
      </trkpt>
      <trkpt lat="47.4556" lon="0.84204">
        <ele>162</ele>
        <time>2013-09-01T09:08:43.975Z</time>
      </trkpt>
      <trkpt lat="47.45557" lon="0.84204">
        <ele>162</ele>
        <time>2013-09-01T09:08:45.043Z</time>
      </trkpt>
      <trkpt lat="47.4555" lon="0.84206">
        <ele>162</ele>
        <time>2013-09-01T09:08:47.033Z</time>
      </trkpt>
      <trkpt lat="47.45546" lon="0.84206">
        <ele>162</ele>
        <time>2013-09-01T09:08:47.978Z</time>
      </trkpt>
      <trkpt lat="47.45537" lon="0.84209">
        <ele>162</ele>
        <time>2013-09-01T09:08:50.053Z</time>
      </trkpt>
      <trkpt lat="47.45534" lon="0.84209">
        <ele>161</ele>
        <time>2013-09-01T09:08:51.035Z</time>
      </trkpt>
      <trkpt lat="47.45526" lon="0.84208">
        <ele>160</ele>
        <time>2013-09-01T09:08:53.008Z</time>
      </trkpt>
      <trkpt lat="47.45523" lon="0.84207">
        <ele>160</ele>
        <time>2013-09-01T09:08:54.045Z</time>
      </trkpt>
      <trkpt lat="47.45514" lon="0.84204">
        <ele>160</ele>
        <time>2013-09-01T09:08:56.040Z</time>
      </trkpt>
      <trkpt lat="47.45511" lon="0.84204">
        <ele>160</ele>
        <time>2013-09-01T09:08:57.044Z</time>
      </trkpt>
      <trkpt lat="47.45502" lon="0.84204">
        <ele>160</ele>
        <time>2013-09-01T09:08:58.984Z</time>
      </trkpt>
      <trkpt lat="47.45498" lon="0.84202">
        <ele>160</ele>
        <time>2013-09-01T09:08:59.990Z</time>
      </trkpt>
      <trkpt lat="47.45491" lon="0.84202">
        <ele>159</ele>
        <time>2013-09-01T09:09:02.034Z</time>
      </trkpt>
      <trkpt lat="47.45488" lon="0.84202">
        <ele>159</ele>
        <time>2013-09-01T09:09:02.986Z</time>
      </trkpt>
      <trkpt lat="47.4548" lon="0.84206">
        <ele>158</ele>
        <time>2013-09-01T09:09:05.035Z</time>
      </trkpt>
      <trkpt lat="47.45475" lon="0.84208">
        <ele>159</ele>
        <time>2013-09-01T09:09:06.016Z</time>
      </trkpt>
      <trkpt lat="47.4547" lon="0.84209">
        <ele>159</ele>
        <time>2013-09-01T09:09:07.023Z</time>
      </trkpt>
      <trkpt lat="47.45466" lon="0.8421">
        <ele>159</ele>
        <time>2013-09-01T09:09:07.991Z</time>
      </trkpt>
      <trkpt lat="47.45457" lon="0.84213">
        <ele>159</ele>
        <time>2013-09-01T09:09:10.062Z</time>
      </trkpt>
      <trkpt lat="47.45453" lon="0.84213">
        <ele>159</ele>
        <time>2013-09-01T09:09:11.025Z</time>
      </trkpt>
      <trkpt lat="47.45444" lon="0.84215">
        <ele>159</ele>
        <time>2013-09-01T09:09:13.005Z</time>
      </trkpt>
      <trkpt lat="47.45439" lon="0.84217">
        <ele>159</ele>
        <time>2013-09-01T09:09:13.970Z</time>
      </trkpt>
      <trkpt lat="47.45432" lon="0.84221">
        <ele>159</ele>
        <time>2013-09-01T09:09:15.998Z</time>
      </trkpt>
      <trkpt lat="47.45427" lon="0.84222">
        <ele>159</ele>
        <time>2013-09-01T09:09:16.997Z</time>
      </trkpt>
      <trkpt lat="47.4542" lon="0.84221">
        <ele>159</ele>
        <time>2013-09-01T09:09:19.024Z</time>
      </trkpt>
      <trkpt lat="47.45416" lon="0.84223">
        <ele>159</ele>
        <time>2013-09-01T09:09:20.115Z</time>
      </trkpt>
      <trkpt lat="47.4541" lon="0.84224">
        <ele>159</ele>
        <time>2013-09-01T09:09:21.003Z</time>
      </trkpt>
      <trkpt lat="47.45406" lon="0.84224">
        <ele>159</ele>
        <time>2013-09-01T09:09:21.988Z</time>
      </trkpt>
      <trkpt lat="47.45398" lon="0.84226">
        <ele>159</ele>
        <time>2013-09-01T09:09:23.995Z</time>
      </trkpt>
      <trkpt lat="47.45395" lon="0.84228">
        <ele>159</ele>
        <time>2013-09-01T09:09:25.007Z</time>
      </trkpt>
      <trkpt lat="47.45387" lon="0.84228">
        <ele>159</ele>
        <time>2013-09-01T09:09:27.059Z</time>
      </trkpt>
      <trkpt lat="47.45382" lon="0.8423">
        <ele>158</ele>
        <time>2013-09-01T09:09:27.987Z</time>
      </trkpt>
      <trkpt lat="47.45377" lon="0.84234">
        <ele>158</ele>
        <time>2013-09-01T09:09:30.022Z</time>
      </trkpt>
      <trkpt lat="47.45377" lon="0.8424">
        <ele>158</ele>
        <time>2013-09-01T09:09:31.084Z</time>
      </trkpt>
      <trkpt lat="47.45368" lon="0.84239">
        <ele>157</ele>
        <time>2013-09-01T09:09:35.062Z</time>
      </trkpt>
      <trkpt lat="47.45366" lon="0.84234">
        <ele>156</ele>
        <time>2013-09-01T09:09:36.034Z</time>
      </trkpt>
      <trkpt lat="47.45359" lon="0.84234">
        <ele>156</ele>
        <time>2013-09-01T09:09:37.975Z</time>
      </trkpt>
      <trkpt lat="47.45355" lon="0.84234">
        <ele>156</ele>
        <time>2013-09-01T09:09:38.991Z</time>
      </trkpt>
      <trkpt lat="47.4535" lon="0.84236">
        <ele>156</ele>
        <time>2013-09-01T09:09:39.976Z</time>
      </trkpt>
      <trkpt lat="47.45345" lon="0.84237">
        <ele>156</ele>
        <time>2013-09-01T09:09:41.020Z</time>
      </trkpt>
      <trkpt lat="47.45336" lon="0.84239">
        <ele>156</ele>
        <time>2013-09-01T09:09:43.037Z</time>
      </trkpt>
      <trkpt lat="47.45331" lon="0.84237">
        <ele>156</ele>
        <time>2013-09-01T09:09:44.038Z</time>
      </trkpt>
      <trkpt lat="47.45327" lon="0.84236">
        <ele>156</ele>
        <time>2013-09-01T09:09:45.039Z</time>
      </trkpt>
      <trkpt lat="47.45321" lon="0.84238">
        <ele>156</ele>
        <time>2013-09-01T09:09:46.024Z</time>
      </trkpt>
      <trkpt lat="47.45317" lon="0.84241">
        <ele>156</ele>
        <time>2013-09-01T09:09:47.028Z</time>
      </trkpt>
      <trkpt lat="47.45312" lon="0.84243">
        <ele>156</ele>
        <time>2013-09-01T09:09:48.025Z</time>
      </trkpt>
      <trkpt lat="47.45305" lon="0.84245">
        <ele>156</ele>
        <time>2013-09-01T09:09:49.975Z</time>
      </trkpt>
      <trkpt lat="47.45301" lon="0.84245">
        <ele>156</ele>
        <time>2013-09-01T09:09:51.024Z</time>
      </trkpt>
      <trkpt lat="47.45295" lon="0.84245">
        <ele>157</ele>
        <time>2013-09-01T09:09:52.030Z</time>
      </trkpt>
      <trkpt lat="47.45291" lon="0.84247">
        <ele>157</ele>
        <time>2013-09-01T09:09:53.077Z</time>
      </trkpt>
      <trkpt lat="47.45282" lon="0.84247">
        <ele>157</ele>
        <time>2013-09-01T09:09:55.000Z</time>
      </trkpt>
      <trkpt lat="47.45278" lon="0.84247">
        <ele>157</ele>
        <time>2013-09-01T09:09:56.039Z</time>
      </trkpt>
      <trkpt lat="47.4527" lon="0.84247">
        <ele>156</ele>
        <time>2013-09-01T09:09:57.980Z</time>
      </trkpt>
      <trkpt lat="47.45265" lon="0.84247">
        <ele>157</ele>
        <time>2013-09-01T09:09:59.003Z</time>
      </trkpt>
      <trkpt lat="47.45257" lon="0.84247">
        <ele>156</ele>
        <time>2013-09-01T09:10:01.039Z</time>
      </trkpt>
      <trkpt lat="47.45253" lon="0.84247">
        <ele>156</ele>
        <time>2013-09-01T09:10:02.045Z</time>
      </trkpt>
      <trkpt lat="47.45248" lon="0.84247">
        <ele>156</ele>
        <time>2013-09-01T09:10:02.999Z</time>
      </trkpt>
      <trkpt lat="47.45243" lon="0.84249">
        <ele>156</ele>
        <time>2013-09-01T09:10:04.045Z</time>
      </trkpt>
      <trkpt lat="47.45238" lon="0.84251">
        <ele>156</ele>
        <time>2013-09-01T09:10:05.025Z</time>
      </trkpt>
      <trkpt lat="47.45233" lon="0.84252">
        <ele>155</ele>
        <time>2013-09-01T09:10:05.982Z</time>
      </trkpt>
      <trkpt lat="47.45228" lon="0.84251">
        <ele>155</ele>
        <time>2013-09-01T09:10:06.973Z</time>
      </trkpt>
      <trkpt lat="47.45222" lon="0.84251">
        <ele>155</ele>
        <time>2013-09-01T09:10:07.982Z</time>
      </trkpt>
      <trkpt lat="47.45217" lon="0.84249">
        <ele>155</ele>
        <time>2013-09-01T09:10:09.038Z</time>
      </trkpt>
      <trkpt lat="47.45212" lon="0.84249">
        <ele>155</ele>
        <time>2013-09-01T09:10:10.061Z</time>
      </trkpt>
      <trkpt lat="47.45205" lon="0.84249">
        <ele>155</ele>
        <time>2013-09-01T09:10:11.045Z</time>
      </trkpt>
      <trkpt lat="47.452" lon="0.84249">
        <ele>155</ele>
        <time>2013-09-01T09:10:12.043Z</time>
      </trkpt>
      <trkpt lat="47.45195" lon="0.84251">
        <ele>155</ele>
        <time>2013-09-01T09:10:12.997Z</time>
      </trkpt>
      <trkpt lat="47.45189" lon="0.84252">
        <ele>154</ele>
        <time>2013-09-01T09:10:14.017Z</time>
      </trkpt>
      <trkpt lat="47.45181" lon="0.84258">
        <ele>154</ele>
        <time>2013-09-01T09:10:16.992Z</time>
      </trkpt>
      <trkpt lat="47.4518" lon="0.8426">
        <ele>154</ele>
        <time>2013-09-01T09:10:18.002Z</time>
      </trkpt>
      <trkpt lat="47.45183" lon="0.84271">
        <ele>154</ele>
        <time>2013-09-01T09:10:20.991Z</time>
      </trkpt>
      <trkpt lat="47.45186" lon="0.84277">
        <ele>154</ele>
        <time>2013-09-01T09:10:21.985Z</time>
      </trkpt>
      <trkpt lat="47.4519" lon="0.84286">
        <ele>154</ele>
        <time>2013-09-01T09:10:23.985Z</time>
      </trkpt>
      <trkpt lat="47.45192" lon="0.8429">
        <ele>155</ele>
        <time>2013-09-01T09:10:25.025Z</time>
      </trkpt>
      <trkpt lat="47.45195" lon="0.84296">
        <ele>155</ele>
        <time>2013-09-01T09:10:25.982Z</time>
      </trkpt>
      <trkpt lat="47.45197" lon="0.84303">
        <ele>155</ele>
        <time>2013-09-01T09:10:27.127Z</time>
      </trkpt>
      <trkpt lat="47.45201" lon="0.84314">
        <ele>155</ele>
        <time>2013-09-01T09:10:29.038Z</time>
      </trkpt>
      <trkpt lat="47.45202" lon="0.8432">
        <ele>155</ele>
        <time>2013-09-01T09:10:30.052Z</time>
      </trkpt>
      <trkpt lat="47.45206" lon="0.84331">
        <ele>155</ele>
        <time>2013-09-01T09:10:32.030Z</time>
      </trkpt>
      <trkpt lat="47.45208" lon="0.84337">
        <ele>155</ele>
        <time>2013-09-01T09:10:33.039Z</time>
      </trkpt>
      <trkpt lat="47.45213" lon="0.84348">
        <ele>155</ele>
        <time>2013-09-01T09:10:34.983Z</time>
      </trkpt>
      <trkpt lat="47.45215" lon="0.84354">
        <ele>155</ele>
        <time>2013-09-01T09:10:36.049Z</time>
      </trkpt>
      <trkpt lat="47.45219" lon="0.84365">
        <ele>155</ele>
        <time>2013-09-01T09:10:38.040Z</time>
      </trkpt>
      <trkpt lat="47.45221" lon="0.84372">
        <ele>155</ele>
        <time>2013-09-01T09:10:39.035Z</time>
      </trkpt>
      <trkpt lat="47.45226" lon="0.84382">
        <ele>155</ele>
        <time>2013-09-01T09:10:40.985Z</time>
      </trkpt>
      <trkpt lat="47.45227" lon="0.84387">
        <ele>155</ele>
        <time>2013-09-01T09:10:41.987Z</time>
      </trkpt>
      <trkpt lat="47.4523" lon="0.84397">
        <ele>155</ele>
        <time>2013-09-01T09:10:44.042Z</time>
      </trkpt>
      <trkpt lat="47.45232" lon="0.84404">
        <ele>155</ele>
        <time>2013-09-01T09:10:45.054Z</time>
      </trkpt>
      <trkpt lat="47.45234" lon="0.84415">
        <ele>154</ele>
        <time>2013-09-01T09:10:47.037Z</time>
      </trkpt>
      <trkpt lat="47.45234" lon="0.84421">
        <ele>154</ele>
        <time>2013-09-01T09:10:48.038Z</time>
      </trkpt>
      <trkpt lat="47.45234" lon="0.84434">
        <ele>154</ele>
        <time>2013-09-01T09:10:50.105Z</time>
      </trkpt>
      <trkpt lat="47.45232" lon="0.84442">
        <ele>154</ele>
        <time>2013-09-01T09:10:50.983Z</time>
      </trkpt>
      <trkpt lat="47.45231" lon="0.84449">
        <ele>153</ele>
        <time>2013-09-01T09:10:52.007Z</time>
      </trkpt>
      <trkpt lat="47.45229" lon="0.84455">
        <ele>154</ele>
        <time>2013-09-01T09:10:53.041Z</time>
      </trkpt>
      <trkpt lat="47.45227" lon="0.84462">
        <ele>154</ele>
        <time>2013-09-01T09:10:53.996Z</time>
      </trkpt>
      <trkpt lat="47.45224" lon="0.84468">
        <ele>154</ele>
        <time>2013-09-01T09:10:55.004Z</time>
      </trkpt>
      <trkpt lat="47.45222" lon="0.84475">
        <ele>153</ele>
        <time>2013-09-01T09:10:56.037Z</time>
      </trkpt>
      <trkpt lat="47.4522" lon="0.84481">
        <ele>153</ele>
        <time>2013-09-01T09:10:57.039Z</time>
      </trkpt>
      <trkpt lat="47.45219" lon="0.84487">
        <ele>153</ele>
        <time>2013-09-01T09:10:58.041Z</time>
      </trkpt>
      <trkpt lat="47.45217" lon="0.84496">
        <ele>152</ele>
        <time>2013-09-01T09:10:59.084Z</time>
      </trkpt>
      <trkpt lat="47.45216" lon="0.84503">
        <ele>152</ele>
        <time>2013-09-01T09:10:59.998Z</time>
      </trkpt>
      <trkpt lat="47.45214" lon="0.84509">
        <ele>152</ele>
        <time>2013-09-01T09:11:00.996Z</time>
      </trkpt>
      <trkpt lat="47.45213" lon="0.84515">
        <ele>152</ele>
        <time>2013-09-01T09:11:02.001Z</time>
      </trkpt>
      <trkpt lat="47.45211" lon="0.84524">
        <ele>152</ele>
        <time>2013-09-01T09:11:03.028Z</time>
      </trkpt>
      <trkpt lat="47.45209" lon="0.8453">
        <ele>151</ele>
        <time>2013-09-01T09:11:04.086Z</time>
      </trkpt>
      <trkpt lat="47.45208" lon="0.84539">
        <ele>151</ele>
        <time>2013-09-01T09:11:05.059Z</time>
      </trkpt>
      <trkpt lat="47.45206" lon="0.84545">
        <ele>151</ele>
        <time>2013-09-01T09:11:06.017Z</time>
      </trkpt>
      <trkpt lat="47.45205" lon="0.84552">
        <ele>151</ele>
        <time>2013-09-01T09:11:07.037Z</time>
      </trkpt>
      <trkpt lat="47.45203" lon="0.84558">
        <ele>151</ele>
        <time>2013-09-01T09:11:08.014Z</time>
      </trkpt>
      <trkpt lat="47.45201" lon="0.84565">
        <ele>150</ele>
        <time>2013-09-01T09:11:09.039Z</time>
      </trkpt>
      <trkpt lat="47.45199" lon="0.84571">
        <ele>150</ele>
        <time>2013-09-01T09:11:10.050Z</time>
      </trkpt>
      <trkpt lat="47.45197" lon="0.84578">
        <ele>150</ele>
        <time>2013-09-01T09:11:11.035Z</time>
      </trkpt>
      <trkpt lat="47.45196" lon="0.84584">
        <ele>150</ele>
        <time>2013-09-01T09:11:12.041Z</time>
      </trkpt>
      <trkpt lat="47.45194" lon="0.84593">
        <ele>150</ele>
        <time>2013-09-01T09:11:13.178Z</time>
      </trkpt>
      <trkpt lat="47.45192" lon="0.84599">
        <ele>150</ele>
        <time>2013-09-01T09:11:14.001Z</time>
      </trkpt>
      <trkpt lat="47.45191" lon="0.84606">
        <ele>150</ele>
        <time>2013-09-01T09:11:15.018Z</time>
      </trkpt>
      <trkpt lat="47.45189" lon="0.84614">
        <ele>150</ele>
        <time>2013-09-01T09:11:15.990Z</time>
      </trkpt>
      <trkpt lat="47.45188" lon="0.84623">
        <ele>150</ele>
        <time>2013-09-01T09:11:17.018Z</time>
      </trkpt>
      <trkpt lat="47.45186" lon="0.84629">
        <ele>150</ele>
        <time>2013-09-01T09:11:18.050Z</time>
      </trkpt>
      <trkpt lat="47.45185" lon="0.84635">
        <ele>150</ele>
        <time>2013-09-01T09:11:19.019Z</time>
      </trkpt>
      <trkpt lat="47.45184" lon="0.84642">
        <ele>150</ele>
        <time>2013-09-01T09:11:20.056Z</time>
      </trkpt>
      <trkpt lat="47.45183" lon="0.8465">
        <ele>150</ele>
        <time>2013-09-01T09:11:21.087Z</time>
      </trkpt>
      <trkpt lat="47.45182" lon="0.84657">
        <ele>150</ele>
        <time>2013-09-01T09:11:21.995Z</time>
      </trkpt>
      <trkpt lat="47.45179" lon="0.84663">
        <ele>150</ele>
        <time>2013-09-01T09:11:22.993Z</time>
      </trkpt>
      <trkpt lat="47.45179" lon="0.8467">
        <ele>150</ele>
        <time>2013-09-01T09:11:24.050Z</time>
      </trkpt>
      <trkpt lat="47.45177" lon="0.84678">
        <ele>150</ele>
        <time>2013-09-01T09:11:25.053Z</time>
      </trkpt>
      <trkpt lat="47.45176" lon="0.84685">
        <ele>150</ele>
        <time>2013-09-01T09:11:25.993Z</time>
      </trkpt>
      <trkpt lat="47.45175" lon="0.84693">
        <ele>150</ele>
        <time>2013-09-01T09:11:27.054Z</time>
      </trkpt>
      <trkpt lat="47.45174" lon="0.847">
        <ele>150</ele>
        <time>2013-09-01T09:11:27.993Z</time>
      </trkpt>
      <trkpt lat="47.45174" lon="0.84708">
        <ele>150</ele>
        <time>2013-09-01T09:11:29.041Z</time>
      </trkpt>
      <trkpt lat="47.45173" lon="0.84715">
        <ele>149</ele>
        <time>2013-09-01T09:11:30.063Z</time>
      </trkpt>
      <trkpt lat="47.45172" lon="0.84723">
        <ele>149</ele>
        <time>2013-09-01T09:11:31.040Z</time>
      </trkpt>
      <trkpt lat="47.45171" lon="0.84732">
        <ele>149</ele>
        <time>2013-09-01T09:11:32.045Z</time>
      </trkpt>
      <trkpt lat="47.45171" lon="0.84741">
        <ele>149</ele>
        <time>2013-09-01T09:11:33.052Z</time>
      </trkpt>
      <trkpt lat="47.4517" lon="0.84747">
        <ele>148</ele>
        <time>2013-09-01T09:11:34.039Z</time>
      </trkpt>
      <trkpt lat="47.4517" lon="0.84756">
        <ele>148</ele>
        <time>2013-09-01T09:11:35.042Z</time>
      </trkpt>
      <trkpt lat="47.4517" lon="0.84764">
        <ele>149</ele>
        <time>2013-09-01T09:11:35.993Z</time>
      </trkpt>
      <trkpt lat="47.4517" lon="0.84771">
        <ele>149</ele>
        <time>2013-09-01T09:11:36.994Z</time>
      </trkpt>
      <trkpt lat="47.4517" lon="0.84779">
        <ele>148</ele>
        <time>2013-09-01T09:11:37.991Z</time>
      </trkpt>
      <trkpt lat="47.45171" lon="0.84786">
        <ele>148</ele>
        <time>2013-09-01T09:11:39.040Z</time>
      </trkpt>
      <trkpt lat="47.45171" lon="0.84792">
        <ele>148</ele>
        <time>2013-09-01T09:11:40.048Z</time>
      </trkpt>
      <trkpt lat="47.45171" lon="0.848">
        <ele>148</ele>
        <time>2013-09-01T09:11:40.986Z</time>
      </trkpt>
      <trkpt lat="47.45172" lon="0.84807">
        <ele>148</ele>
        <time>2013-09-01T09:11:41.986Z</time>
      </trkpt>
      <trkpt lat="47.45172" lon="0.84814">
        <ele>148</ele>
        <time>2013-09-01T09:11:43.005Z</time>
      </trkpt>
      <trkpt lat="47.45172" lon="0.84822">
        <ele>148</ele>
        <time>2013-09-01T09:11:44.013Z</time>
      </trkpt>
      <trkpt lat="47.45172" lon="0.84829">
        <ele>148</ele>
        <time>2013-09-01T09:11:45.028Z</time>
      </trkpt>
      <trkpt lat="47.45173" lon="0.84841">
        <ele>147</ele>
        <time>2013-09-01T09:11:47.042Z</time>
      </trkpt>
      <trkpt lat="47.45174" lon="0.84846">
        <ele>146</ele>
        <time>2013-09-01T09:11:48.039Z</time>
      </trkpt>
      <trkpt lat="47.45173" lon="0.84857">
        <ele>146</ele>
        <time>2013-09-01T09:11:51.038Z</time>
      </trkpt>
      <trkpt lat="47.45171" lon="0.84859">
        <ele>146</ele>
        <time>2013-09-01T09:11:52.037Z</time>
      </trkpt>
      <trkpt lat="47.45166" lon="0.84865">
        <ele>147</ele>
        <time>2013-09-01T09:11:53.999Z</time>
      </trkpt>
      <trkpt lat="47.45162" lon="0.84867">
        <ele>147</ele>
        <time>2013-09-01T09:11:55.068Z</time>
      </trkpt>
      <trkpt lat="47.45156" lon="0.84872">
        <ele>147</ele>
        <time>2013-09-01T09:11:57.044Z</time>
      </trkpt>
      <trkpt lat="47.45153" lon="0.84874">
        <ele>148</ele>
        <time>2013-09-01T09:11:58.055Z</time>
      </trkpt>
      <trkpt lat="47.45146" lon="0.8488">
        <ele>148</ele>
        <time>2013-09-01T09:12:00.041Z</time>
      </trkpt>
      <trkpt lat="47.45142" lon="0.84882">
        <ele>148</ele>
        <time>2013-09-01T09:12:00.988Z</time>
      </trkpt>
      <trkpt lat="47.45135" lon="0.84887">
        <ele>149</ele>
        <time>2013-09-01T09:12:03.018Z</time>
      </trkpt>
      <trkpt lat="47.45131" lon="0.84891">
        <ele>149</ele>
        <time>2013-09-01T09:12:04.086Z</time>
      </trkpt>
      <trkpt lat="47.45124" lon="0.84897">
        <ele>149</ele>
        <time>2013-09-01T09:12:06.042Z</time>
      </trkpt>
      <trkpt lat="47.45121" lon="0.849">
        <ele>149</ele>
        <time>2013-09-01T09:12:07.041Z</time>
      </trkpt>
      <trkpt lat="47.45117" lon="0.84902">
        <ele>149</ele>
        <time>2013-09-01T09:12:08.004Z</time>
      </trkpt>
      <trkpt lat="47.45112" lon="0.84906">
        <ele>149</ele>
        <time>2013-09-01T09:12:09.040Z</time>
      </trkpt>
      <trkpt lat="47.45105" lon="0.84912">
        <ele>149</ele>
        <time>2013-09-01T09:12:10.993Z</time>
      </trkpt>
      <trkpt lat="47.451" lon="0.84915">
        <ele>149</ele>
        <time>2013-09-01T09:12:11.988Z</time>
      </trkpt>
      <trkpt lat="47.45096" lon="0.84917">
        <ele>149</ele>
        <time>2013-09-01T09:12:12.998Z</time>
      </trkpt>
      <trkpt lat="47.45092" lon="0.84921">
        <ele>149</ele>
        <time>2013-09-01T09:12:14.022Z</time>
      </trkpt>
      <trkpt lat="47.45087" lon="0.84923">
        <ele>149</ele>
        <time>2013-09-01T09:12:15.103Z</time>
      </trkpt>
      <trkpt lat="47.45083" lon="0.84927">
        <ele>149</ele>
        <time>2013-09-01T09:12:16.049Z</time>
      </trkpt>
      <trkpt lat="47.45079" lon="0.8493">
        <ele>149</ele>
        <time>2013-09-01T09:12:16.990Z</time>
      </trkpt>
      <trkpt lat="47.45074" lon="0.84932">
        <ele>149</ele>
        <time>2013-09-01T09:12:17.988Z</time>
      </trkpt>
      <trkpt lat="47.45069" lon="0.84932">
        <ele>149</ele>
        <time>2013-09-01T09:12:19.008Z</time>
      </trkpt>
      <trkpt lat="47.45065" lon="0.84934">
        <ele>149</ele>
        <time>2013-09-01T09:12:20.045Z</time>
      </trkpt>
      <trkpt lat="47.4506" lon="0.84936">
        <ele>148</ele>
        <time>2013-09-01T09:12:21.044Z</time>
      </trkpt>
      <trkpt lat="47.45055" lon="0.84938">
        <ele>149</ele>
        <time>2013-09-01T09:12:22.044Z</time>
      </trkpt>
      <trkpt lat="47.45048" lon="0.84942">
        <ele>149</ele>
        <time>2013-09-01T09:12:24.038Z</time>
      </trkpt>
      <trkpt lat="47.45043" lon="0.84943">
        <ele>149</ele>
        <time>2013-09-01T09:12:25.070Z</time>
      </trkpt>
      <trkpt lat="47.45039" lon="0.84946">
        <ele>148</ele>
        <time>2013-09-01T09:12:26.023Z</time>
      </trkpt>
      <trkpt lat="47.45035" lon="0.84949">
        <ele>148</ele>
        <time>2013-09-01T09:12:27.038Z</time>
      </trkpt>
      <trkpt lat="47.45027" lon="0.84953">
        <ele>148</ele>
        <time>2013-09-01T09:12:29.020Z</time>
      </trkpt>
      <trkpt lat="47.45023" lon="0.84955">
        <ele>148</ele>
        <time>2013-09-01T09:12:30.070Z</time>
      </trkpt>
      <trkpt lat="47.45015" lon="0.84962">
        <ele>148</ele>
        <time>2013-09-01T09:12:32.004Z</time>
      </trkpt>
      <trkpt lat="47.45012" lon="0.84966">
        <ele>148</ele>
        <time>2013-09-01T09:12:33.020Z</time>
      </trkpt>
      <trkpt lat="47.45008" lon="0.84968">
        <ele>148</ele>
        <time>2013-09-01T09:12:34.009Z</time>
      </trkpt>
      <trkpt lat="47.45004" lon="0.84972">
        <ele>148</ele>
        <time>2013-09-01T09:12:35.002Z</time>
      </trkpt>
      <trkpt lat="47.45" lon="0.84977">
        <ele>148</ele>
        <time>2013-09-01T09:12:36.039Z</time>
      </trkpt>
      <trkpt lat="47.44996" lon="0.84981">
        <ele>147</ele>
        <time>2013-09-01T09:12:37.096Z</time>
      </trkpt>
      <trkpt lat="47.44992" lon="0.84985">
        <ele>147</ele>
        <time>2013-09-01T09:12:37.997Z</time>
      </trkpt>
      <trkpt lat="47.44988" lon="0.8499">
        <ele>147</ele>
        <time>2013-09-01T09:12:39.043Z</time>
      </trkpt>
      <trkpt lat="47.44985" lon="0.84994">
        <ele>147</ele>
        <time>2013-09-01T09:12:39.995Z</time>
      </trkpt>
      <trkpt lat="47.4498" lon="0.84998">
        <ele>146</ele>
        <time>2013-09-01T09:12:40.995Z</time>
      </trkpt>
      <trkpt lat="47.44977" lon="0.85002">
        <ele>146</ele>
        <time>2013-09-01T09:12:42.015Z</time>
      </trkpt>
      <trkpt lat="47.44973" lon="0.85007">
        <ele>146</ele>
        <time>2013-09-01T09:12:43.073Z</time>
      </trkpt>
      <trkpt lat="47.44968" lon="0.85011">
        <ele>145</ele>
        <time>2013-09-01T09:12:44.036Z</time>
      </trkpt>
      <trkpt lat="47.44964" lon="0.85015">
        <ele>145</ele>
        <time>2013-09-01T09:12:45.054Z</time>
      </trkpt>
      <trkpt lat="47.44959" lon="0.85018">
        <ele>145</ele>
        <time>2013-09-01T09:12:45.990Z</time>
      </trkpt>
      <trkpt lat="47.44954" lon="0.85022">
        <ele>145</ele>
        <time>2013-09-01T09:12:46.990Z</time>
      </trkpt>
      <trkpt lat="47.44949" lon="0.85024">
        <ele>145</ele>
        <time>2013-09-01T09:12:48.000Z</time>
      </trkpt>
      <trkpt lat="47.44945" lon="0.85028">
        <ele>144</ele>
        <time>2013-09-01T09:12:48.999Z</time>
      </trkpt>
      <trkpt lat="47.44939" lon="0.8503">
        <ele>144</ele>
        <time>2013-09-01T09:12:49.993Z</time>
      </trkpt>
      <trkpt lat="47.44934" lon="0.85034">
        <ele>144</ele>
        <time>2013-09-01T09:12:50.993Z</time>
      </trkpt>
      <trkpt lat="47.44928" lon="0.85039">
        <ele>143</ele>
        <time>2013-09-01T09:12:52.012Z</time>
      </trkpt>
      <trkpt lat="47.44923" lon="0.85043">
        <ele>143</ele>
        <time>2013-09-01T09:12:53.107Z</time>
      </trkpt>
      <trkpt lat="47.44919" lon="0.85047">
        <ele>142</ele>
        <time>2013-09-01T09:12:53.987Z</time>
      </trkpt>
      <trkpt lat="47.44914" lon="0.85054">
        <ele>142</ele>
        <time>2013-09-01T09:12:54.991Z</time>
      </trkpt>
      <trkpt lat="47.44909" lon="0.8506">
        <ele>142</ele>
        <time>2013-09-01T09:12:56.043Z</time>
      </trkpt>
      <trkpt lat="47.44906" lon="0.85067">
        <ele>141</ele>
        <time>2013-09-01T09:12:57.044Z</time>
      </trkpt>
      <trkpt lat="47.44903" lon="0.85075">
        <ele>141</ele>
        <time>2013-09-01T09:12:57.994Z</time>
      </trkpt>
      <trkpt lat="47.44899" lon="0.85084">
        <ele>141</ele>
        <time>2013-09-01T09:12:59.046Z</time>
      </trkpt>
      <trkpt lat="47.44896" lon="0.8509">
        <ele>141</ele>
        <time>2013-09-01T09:12:59.999Z</time>
      </trkpt>
      <trkpt lat="47.44894" lon="0.85097">
        <ele>141</ele>
        <time>2013-09-01T09:13:00.991Z</time>
      </trkpt>
      <trkpt lat="47.44891" lon="0.85103">
        <ele>141</ele>
        <time>2013-09-01T09:13:01.988Z</time>
      </trkpt>
      <trkpt lat="47.4489" lon="0.85112">
        <ele>140</ele>
        <time>2013-09-01T09:13:03.002Z</time>
      </trkpt>
      <trkpt lat="47.44888" lon="0.85118">
        <ele>140</ele>
        <time>2013-09-01T09:13:04.051Z</time>
      </trkpt>
      <trkpt lat="47.44887" lon="0.85127">
        <ele>140</ele>
        <time>2013-09-01T09:13:05.074Z</time>
      </trkpt>
      <trkpt lat="47.44886" lon="0.85133">
        <ele>140</ele>
        <time>2013-09-01T09:13:06.018Z</time>
      </trkpt>
      <trkpt lat="47.44885" lon="0.85142">
        <ele>139</ele>
        <time>2013-09-01T09:13:07.047Z</time>
      </trkpt>
      <trkpt lat="47.44884" lon="0.8515">
        <ele>139</ele>
        <time>2013-09-01T09:13:08.034Z</time>
      </trkpt>
      <trkpt lat="47.44883" lon="0.85159">
        <ele>139</ele>
        <time>2013-09-01T09:13:09.044Z</time>
      </trkpt>
      <trkpt lat="47.44882" lon="0.85168">
        <ele>138</ele>
        <time>2013-09-01T09:13:09.996Z</time>
      </trkpt>
      <trkpt lat="47.44881" lon="0.85176">
        <ele>138</ele>
        <time>2013-09-01T09:13:11.001Z</time>
      </trkpt>
      <trkpt lat="47.44879" lon="0.85187">
        <ele>137</ele>
        <time>2013-09-01T09:13:12.000Z</time>
      </trkpt>
      <trkpt lat="47.44876" lon="0.85196">
        <ele>137</ele>
        <time>2013-09-01T09:13:13.005Z</time>
      </trkpt>
      <trkpt lat="47.44873" lon="0.85204">
        <ele>137</ele>
        <time>2013-09-01T09:13:14.055Z</time>
      </trkpt>
      <trkpt lat="47.44869" lon="0.85211">
        <ele>136</ele>
        <time>2013-09-01T09:13:15.050Z</time>
      </trkpt>
      <trkpt lat="47.44863" lon="0.85217">
        <ele>136</ele>
        <time>2013-09-01T09:13:16.050Z</time>
      </trkpt>
      <trkpt lat="47.44858" lon="0.85221">
        <ele>136</ele>
        <time>2013-09-01T09:13:17.045Z</time>
      </trkpt>
      <trkpt lat="47.44852" lon="0.85228">
        <ele>136</ele>
        <time>2013-09-01T09:13:18.054Z</time>
      </trkpt>
      <trkpt lat="47.44846" lon="0.85232">
        <ele>136</ele>
        <time>2013-09-01T09:13:19.001Z</time>
      </trkpt>
      <trkpt lat="47.44841" lon="0.85236">
        <ele>135</ele>
        <time>2013-09-01T09:13:20.040Z</time>
      </trkpt>
      <trkpt lat="47.44835" lon="0.85241">
        <ele>135</ele>
        <time>2013-09-01T09:13:21.004Z</time>
      </trkpt>
      <trkpt lat="47.4483" lon="0.85245">
        <ele>135</ele>
        <time>2013-09-01T09:13:21.998Z</time>
      </trkpt>
      <trkpt lat="47.44825" lon="0.85251">
        <ele>135</ele>
        <time>2013-09-01T09:13:23.021Z</time>
      </trkpt>
      <trkpt lat="47.4482" lon="0.85256">
        <ele>135</ele>
        <time>2013-09-01T09:13:24.002Z</time>
      </trkpt>
      <trkpt lat="47.44817" lon="0.8526">
        <ele>134</ele>
        <time>2013-09-01T09:13:25.054Z</time>
      </trkpt>
      <trkpt lat="47.44813" lon="0.85266">
        <ele>134</ele>
        <time>2013-09-01T09:13:25.981Z</time>
      </trkpt>
      <trkpt lat="47.44809" lon="0.85273">
        <ele>133</ele>
        <time>2013-09-01T09:13:26.983Z</time>
      </trkpt>
      <trkpt lat="47.44806" lon="0.85281">
        <ele>133</ele>
        <time>2013-09-01T09:13:27.978Z</time>
      </trkpt>
      <trkpt lat="47.44802" lon="0.85292">
        <ele>132</ele>
        <time>2013-09-01T09:13:28.987Z</time>
      </trkpt>
      <trkpt lat="47.44799" lon="0.85303">
        <ele>131</ele>
        <time>2013-09-01T09:13:30.007Z</time>
      </trkpt>
      <trkpt lat="47.44795" lon="0.85312">
        <ele>130</ele>
        <time>2013-09-01T09:13:31.075Z</time>
      </trkpt>
      <trkpt lat="47.4479" lon="0.85322">
        <ele>130</ele>
        <time>2013-09-01T09:13:32.032Z</time>
      </trkpt>
      <trkpt lat="47.44786" lon="0.85331">
        <ele>129</ele>
        <time>2013-09-01T09:13:33.036Z</time>
      </trkpt>
      <trkpt lat="47.4478" lon="0.85339">
        <ele>129</ele>
        <time>2013-09-01T09:13:33.988Z</time>
      </trkpt>
      <trkpt lat="47.44775" lon="0.85348">
        <ele>128</ele>
        <time>2013-09-01T09:13:34.979Z</time>
      </trkpt>
      <trkpt lat="47.4477" lon="0.85356">
        <ele>127</ele>
        <time>2013-09-01T09:13:35.979Z</time>
      </trkpt>
      <trkpt lat="47.44764" lon="0.85365">
        <ele>126</ele>
        <time>2013-09-01T09:13:36.993Z</time>
      </trkpt>
      <trkpt lat="47.44759" lon="0.85376">
        <ele>126</ele>
        <time>2013-09-01T09:13:37.997Z</time>
      </trkpt>
      <trkpt lat="47.44754" lon="0.85385">
        <ele>125</ele>
        <time>2013-09-01T09:13:39.039Z</time>
      </trkpt>
      <trkpt lat="47.44748" lon="0.85391">
        <ele>125</ele>
        <time>2013-09-01T09:13:40.063Z</time>
      </trkpt>
      <trkpt lat="47.44742" lon="0.85399">
        <ele>124</ele>
        <time>2013-09-01T09:13:40.994Z</time>
      </trkpt>
      <trkpt lat="47.44735" lon="0.85406">
        <ele>123</ele>
        <time>2013-09-01T09:13:41.987Z</time>
      </trkpt>
      <trkpt lat="47.44728" lon="0.85412">
        <ele>122</ele>
        <time>2013-09-01T09:13:43.026Z</time>
      </trkpt>
      <trkpt lat="47.44722" lon="0.85417">
        <ele>122</ele>
        <time>2013-09-01T09:13:43.999Z</time>
      </trkpt>
      <trkpt lat="47.44714" lon="0.85421">
        <ele>121</ele>
        <time>2013-09-01T09:13:45.016Z</time>
      </trkpt>
      <trkpt lat="47.44706" lon="0.85425">
        <ele>121</ele>
        <time>2013-09-01T09:13:46.016Z</time>
      </trkpt>
      <trkpt lat="47.44699" lon="0.85429">
        <ele>121</ele>
        <time>2013-09-01T09:13:47.042Z</time>
      </trkpt>
      <trkpt lat="47.44691" lon="0.85434">
        <ele>121</ele>
        <time>2013-09-01T09:13:48.055Z</time>
      </trkpt>
      <trkpt lat="47.44683" lon="0.85438">
        <ele>120</ele>
        <time>2013-09-01T09:13:49.032Z</time>
      </trkpt>
      <trkpt lat="47.44676" lon="0.85444">
        <ele>120</ele>
        <time>2013-09-01T09:13:50.067Z</time>
      </trkpt>
      <trkpt lat="47.4467" lon="0.85449">
        <ele>121</ele>
        <time>2013-09-01T09:13:51.000Z</time>
      </trkpt>
      <trkpt lat="47.44664" lon="0.85453">
        <ele>121</ele>
        <time>2013-09-01T09:13:52.023Z</time>
      </trkpt>
      <trkpt lat="47.44659" lon="0.85457">
        <ele>121</ele>
        <time>2013-09-01T09:13:53.051Z</time>
      </trkpt>
      <trkpt lat="47.44654" lon="0.85464">
        <ele>121</ele>
        <time>2013-09-01T09:13:53.996Z</time>
      </trkpt>
      <trkpt lat="47.44648" lon="0.8547">
        <ele>121</ele>
        <time>2013-09-01T09:13:55.001Z</time>
      </trkpt>
      <trkpt lat="47.44645" lon="0.85479">
        <ele>121</ele>
        <time>2013-09-01T09:13:56.016Z</time>
      </trkpt>
      <trkpt lat="47.44642" lon="0.85489">
        <ele>121</ele>
        <time>2013-09-01T09:13:57.018Z</time>
      </trkpt>
      <trkpt lat="47.4464" lon="0.85498">
        <ele>121</ele>
        <time>2013-09-01T09:13:58.043Z</time>
      </trkpt>
      <trkpt lat="47.44639" lon="0.85509">
        <ele>121</ele>
        <time>2013-09-01T09:13:59.002Z</time>
      </trkpt>
      <trkpt lat="47.4464" lon="0.8552">
        <ele>120</ele>
        <time>2013-09-01T09:14:00.081Z</time>
      </trkpt>
      <trkpt lat="47.4464" lon="0.85528">
        <ele>120</ele>
        <time>2013-09-01T09:14:01.000Z</time>
      </trkpt>
      <trkpt lat="47.44642" lon="0.85537">
        <ele>119</ele>
        <time>2013-09-01T09:14:01.994Z</time>
      </trkpt>
      <trkpt lat="47.44643" lon="0.85547">
        <ele>119</ele>
        <time>2013-09-01T09:14:03.009Z</time>
      </trkpt>
      <trkpt lat="47.44644" lon="0.85556">
        <ele>118</ele>
        <time>2013-09-01T09:14:04.007Z</time>
      </trkpt>
      <trkpt lat="47.44645" lon="0.85565">
        <ele>118</ele>
        <time>2013-09-01T09:14:04.994Z</time>
      </trkpt>
      <trkpt lat="47.44646" lon="0.85575">
        <ele>117</ele>
        <time>2013-09-01T09:14:06.024Z</time>
      </trkpt>
      <trkpt lat="47.44647" lon="0.85584">
        <ele>117</ele>
        <time>2013-09-01T09:14:07.047Z</time>
      </trkpt>
      <trkpt lat="47.44648" lon="0.85594">
        <ele>117</ele>
        <time>2013-09-01T09:14:08.028Z</time>
      </trkpt>
      <trkpt lat="47.4465" lon="0.85605">
        <ele>116</ele>
        <time>2013-09-01T09:14:09.094Z</time>
      </trkpt>
      <trkpt lat="47.44651" lon="0.85614">
        <ele>116</ele>
        <time>2013-09-01T09:14:10.007Z</time>
      </trkpt>
      <trkpt lat="47.44651" lon="0.85625">
        <ele>116</ele>
        <time>2013-09-01T09:14:11.036Z</time>
      </trkpt>
      <trkpt lat="47.44652" lon="0.85633">
        <ele>116</ele>
        <time>2013-09-01T09:14:12.037Z</time>
      </trkpt>
      <trkpt lat="47.44653" lon="0.85642">
        <ele>116</ele>
        <time>2013-09-01T09:14:12.988Z</time>
      </trkpt>
      <trkpt lat="47.44653" lon="0.8565">
        <ele>116</ele>
        <time>2013-09-01T09:14:13.998Z</time>
      </trkpt>
      <trkpt lat="47.44653" lon="0.85657">
        <ele>116</ele>
        <time>2013-09-01T09:14:15.028Z</time>
      </trkpt>
      <trkpt lat="47.4465" lon="0.85665">
        <ele>116</ele>
        <time>2013-09-01T09:14:16.022Z</time>
      </trkpt>
      <trkpt lat="47.44645" lon="0.8567">
        <ele>116</ele>
        <time>2013-09-01T09:14:17.062Z</time>
      </trkpt>
      <trkpt lat="47.44641" lon="0.85676">
        <ele>116</ele>
        <time>2013-09-01T09:14:18.035Z</time>
      </trkpt>
      <trkpt lat="47.44637" lon="0.85681">
        <ele>116</ele>
        <time>2013-09-01T09:14:19.043Z</time>
      </trkpt>
      <trkpt lat="47.44632" lon="0.85687">
        <ele>116</ele>
        <time>2013-09-01T09:14:20.050Z</time>
      </trkpt>
      <trkpt lat="47.44627" lon="0.85691">
        <ele>116</ele>
        <time>2013-09-01T09:14:21.043Z</time>
      </trkpt>
      <trkpt lat="47.44622" lon="0.85694">
        <ele>116</ele>
        <time>2013-09-01T09:14:22.054Z</time>
      </trkpt>
      <trkpt lat="47.44616" lon="0.85698">
        <ele>117</ele>
        <time>2013-09-01T09:14:23.028Z</time>
      </trkpt>
      <trkpt lat="47.4461" lon="0.857">
        <ele>118</ele>
        <time>2013-09-01T09:14:24.004Z</time>
      </trkpt>
      <trkpt lat="47.44603" lon="0.85702">
        <ele>118</ele>
        <time>2013-09-01T09:14:25.033Z</time>
      </trkpt>
      <trkpt lat="47.44598" lon="0.85704">
        <ele>119</ele>
        <time>2013-09-01T09:14:26.005Z</time>
      </trkpt>
      <trkpt lat="47.44592" lon="0.85706">
        <ele>120</ele>
        <time>2013-09-01T09:14:27.040Z</time>
      </trkpt>
      <trkpt lat="47.44586" lon="0.85708">
        <ele>120</ele>
        <time>2013-09-01T09:14:28.039Z</time>
      </trkpt>
      <trkpt lat="47.44581" lon="0.85711">
        <ele>120</ele>
        <time>2013-09-01T09:14:29.043Z</time>
      </trkpt>
      <trkpt lat="47.44575" lon="0.85713">
        <ele>120</ele>
        <time>2013-09-01T09:14:30.074Z</time>
      </trkpt>
      <trkpt lat="47.44571" lon="0.85713">
        <ele>119</ele>
        <time>2013-09-01T09:14:31.047Z</time>
      </trkpt>
      <trkpt lat="47.44566" lon="0.85715">
        <ele>118</ele>
        <time>2013-09-01T09:14:32.048Z</time>
      </trkpt>
      <trkpt lat="47.44561" lon="0.85717">
        <ele>118</ele>
        <time>2013-09-01T09:14:33.043Z</time>
      </trkpt>
      <trkpt lat="47.44555" lon="0.85719">
        <ele>118</ele>
        <time>2013-09-01T09:14:34.011Z</time>
      </trkpt>
      <trkpt lat="47.4455" lon="0.85721">
        <ele>117</ele>
        <time>2013-09-01T09:14:35.053Z</time>
      </trkpt>
      <trkpt lat="47.44544" lon="0.85723">
        <ele>117</ele>
        <time>2013-09-01T09:14:36.021Z</time>
      </trkpt>
      <trkpt lat="47.44537" lon="0.85726">
        <ele>117</ele>
        <time>2013-09-01T09:14:37.110Z</time>
      </trkpt>
      <trkpt lat="47.44531" lon="0.85726">
        <ele>117</ele>
        <time>2013-09-01T09:14:38.062Z</time>
      </trkpt>
      <trkpt lat="47.44523" lon="0.85728">
        <ele>117</ele>
        <time>2013-09-01T09:14:39.063Z</time>
      </trkpt>
      <trkpt lat="47.44517" lon="0.85728">
        <ele>117</ele>
        <time>2013-09-01T09:14:40.016Z</time>
      </trkpt>
      <trkpt lat="47.44513" lon="0.85726">
        <ele>117</ele>
        <time>2013-09-01T09:14:41.038Z</time>
      </trkpt>
      <trkpt lat="47.44508" lon="0.85715">
        <ele>118</ele>
        <time>2013-09-01T09:14:43.058Z</time>
      </trkpt>
      <trkpt lat="47.44507" lon="0.85708">
        <ele>117</ele>
        <time>2013-09-01T09:14:44.050Z</time>
      </trkpt>
      <trkpt lat="47.44505" lon="0.85702">
        <ele>116</ele>
        <time>2013-09-01T09:14:45.021Z</time>
      </trkpt>
      <trkpt lat="47.44504" lon="0.85694">
        <ele>115</ele>
        <time>2013-09-01T09:14:46.049Z</time>
      </trkpt>
      <trkpt lat="47.44504" lon="0.85685">
        <ele>115</ele>
        <time>2013-09-01T09:14:46.995Z</time>
      </trkpt>
      <trkpt lat="47.44502" lon="0.85678">
        <ele>114</ele>
        <time>2013-09-01T09:14:48.020Z</time>
      </trkpt>
      <trkpt lat="47.44499" lon="0.8567">
        <ele>115</ele>
        <time>2013-09-01T09:14:49.006Z</time>
      </trkpt>
      <trkpt lat="47.44496" lon="0.85663">
        <ele>114</ele>
        <time>2013-09-01T09:14:50.028Z</time>
      </trkpt>
      <trkpt lat="47.44493" lon="0.85657">
        <ele>114</ele>
        <time>2013-09-01T09:14:50.997Z</time>
      </trkpt>
      <trkpt lat="47.44489" lon="0.8565">
        <ele>114</ele>
        <time>2013-09-01T09:14:52.015Z</time>
      </trkpt>
      <trkpt lat="47.44483" lon="0.85646">
        <ele>114</ele>
        <time>2013-09-01T09:14:53.047Z</time>
      </trkpt>
      <trkpt lat="47.44478" lon="0.8564">
        <ele>114</ele>
        <time>2013-09-01T09:14:54.112Z</time>
      </trkpt>
      <trkpt lat="47.44472" lon="0.85635">
        <ele>114</ele>
        <time>2013-09-01T09:14:54.995Z</time>
      </trkpt>
      <trkpt lat="47.44466" lon="0.85631">
        <ele>113</ele>
        <time>2013-09-01T09:14:56.032Z</time>
      </trkpt>
      <trkpt lat="47.44461" lon="0.85627">
        <ele>113</ele>
        <time>2013-09-01T09:14:57.053Z</time>
      </trkpt>
      <trkpt lat="47.44454" lon="0.85623">
        <ele>112</ele>
        <time>2013-09-01T09:14:58.040Z</time>
      </trkpt>
      <trkpt lat="47.44449" lon="0.85618">
        <ele>112</ele>
        <time>2013-09-01T09:14:59.043Z</time>
      </trkpt>
      <trkpt lat="47.44443" lon="0.85614">
        <ele>111</ele>
        <time>2013-09-01T09:15:00.076Z</time>
      </trkpt>
      <trkpt lat="47.44437" lon="0.8561">
        <ele>111</ele>
        <time>2013-09-01T09:15:01.010Z</time>
      </trkpt>
      <trkpt lat="47.44432" lon="0.85607">
        <ele>111</ele>
        <time>2013-09-01T09:15:02.020Z</time>
      </trkpt>
      <trkpt lat="47.44426" lon="0.85601">
        <ele>111</ele>
        <time>2013-09-01T09:15:03.018Z</time>
      </trkpt>
      <trkpt lat="47.4442" lon="0.85597">
        <ele>111</ele>
        <time>2013-09-01T09:15:04.058Z</time>
      </trkpt>
      <trkpt lat="47.44414" lon="0.85592">
        <ele>111</ele>
        <time>2013-09-01T09:15:05.102Z</time>
      </trkpt>
      <trkpt lat="47.44408" lon="0.85586">
        <ele>111</ele>
        <time>2013-09-01T09:15:06.053Z</time>
      </trkpt>
      <trkpt lat="47.44403" lon="0.85582">
        <ele>111</ele>
        <time>2013-09-01T09:15:07.055Z</time>
      </trkpt>
      <trkpt lat="47.44396" lon="0.85577">
        <ele>111</ele>
        <time>2013-09-01T09:15:08.001Z</time>
      </trkpt>
      <trkpt lat="47.44391" lon="0.85573">
        <ele>111</ele>
        <time>2013-09-01T09:15:09.053Z</time>
      </trkpt>
      <trkpt lat="47.44384" lon="0.85569">
        <ele>111</ele>
        <time>2013-09-01T09:15:10.049Z</time>
      </trkpt>
      <trkpt lat="47.44379" lon="0.85567">
        <ele>111</ele>
        <time>2013-09-01T09:15:11.004Z</time>
      </trkpt>
      <trkpt lat="47.44374" lon="0.85565">
        <ele>111</ele>
        <time>2013-09-01T09:15:12.004Z</time>
      </trkpt>
      <trkpt lat="47.44368" lon="0.85562">
        <ele>111</ele>
        <time>2013-09-01T09:15:12.991Z</time>
      </trkpt>
      <trkpt lat="47.44363" lon="0.8556">
        <ele>111</ele>
        <time>2013-09-01T09:15:14.037Z</time>
      </trkpt>
      <trkpt lat="47.44358" lon="0.8556">
        <ele>112</ele>
        <time>2013-09-01T09:15:14.996Z</time>
      </trkpt>
      <trkpt lat="47.44352" lon="0.8556">
        <ele>112</ele>
        <time>2013-09-01T09:15:15.992Z</time>
      </trkpt>
      <trkpt lat="47.44347" lon="0.85558">
        <ele>112</ele>
        <time>2013-09-01T09:15:17.041Z</time>
      </trkpt>
      <trkpt lat="47.44342" lon="0.85558">
        <ele>112</ele>
        <time>2013-09-01T09:15:18.028Z</time>
      </trkpt>
      <trkpt lat="47.44333" lon="0.85558">
        <ele>113</ele>
        <time>2013-09-01T09:15:20.050Z</time>
      </trkpt>
      <trkpt lat="47.44329" lon="0.85556">
        <ele>113</ele>
        <time>2013-09-01T09:15:21.044Z</time>
      </trkpt>
      <trkpt lat="47.44321" lon="0.85556">
        <ele>113</ele>
        <time>2013-09-01T09:15:23.034Z</time>
      </trkpt>
      <trkpt lat="47.44318" lon="0.85556">
        <ele>114</ele>
        <time>2013-09-01T09:15:23.984Z</time>
      </trkpt>
      <trkpt lat="47.4431" lon="0.8556">
        <ele>114</ele>
        <time>2013-09-01T09:15:27.048Z</time>
      </trkpt>
      <trkpt lat="47.4431" lon="0.85562">
        <ele>114</ele>
        <time>2013-09-01T09:15:28.049Z</time>
      </trkpt>
      <trkpt lat="47.44308" lon="0.85573">
        <ele>114</ele>
        <time>2013-09-01T09:15:29.994Z</time>
      </trkpt>
      <trkpt lat="47.44309" lon="0.85578">
        <ele>114</ele>
        <time>2013-09-01T09:15:30.993Z</time>
      </trkpt>
      <trkpt lat="47.4431" lon="0.8559">
        <ele>114</ele>
        <time>2013-09-01T09:15:33.006Z</time>
      </trkpt>
      <trkpt lat="47.44311" lon="0.85599">
        <ele>113</ele>
        <time>2013-09-01T09:15:34.028Z</time>
      </trkpt>
      <trkpt lat="47.44312" lon="0.85607">
        <ele>113</ele>
        <time>2013-09-01T09:15:35.066Z</time>
      </trkpt>
      <trkpt lat="47.44313" lon="0.85614">
        <ele>113</ele>
        <time>2013-09-01T09:15:36.060Z</time>
      </trkpt>
      <trkpt lat="47.44313" lon="0.85622">
        <ele>112</ele>
        <time>2013-09-01T09:15:37.065Z</time>
      </trkpt>
      <trkpt lat="47.44313" lon="0.85629">
        <ele>112</ele>
        <time>2013-09-01T09:15:38.049Z</time>
      </trkpt>
      <trkpt lat="47.44314" lon="0.85637">
        <ele>112</ele>
        <time>2013-09-01T09:15:38.994Z</time>
      </trkpt>
      <trkpt lat="47.44313" lon="0.85646">
        <ele>112</ele>
        <time>2013-09-01T09:15:40.003Z</time>
      </trkpt>
      <trkpt lat="47.44314" lon="0.85655">
        <ele>112</ele>
        <time>2013-09-01T09:15:40.993Z</time>
      </trkpt>
      <trkpt lat="47.44314" lon="0.85663">
        <ele>111</ele>
        <time>2013-09-01T09:15:42.007Z</time>
      </trkpt>
      <trkpt lat="47.44315" lon="0.85672">
        <ele>111</ele>
        <time>2013-09-01T09:15:43.052Z</time>
      </trkpt>
      <trkpt lat="47.44315" lon="0.85678">
        <ele>111</ele>
        <time>2013-09-01T09:15:44.062Z</time>
      </trkpt>
      <trkpt lat="47.44316" lon="0.85687">
        <ele>111</ele>
        <time>2013-09-01T09:15:45.030Z</time>
      </trkpt>
      <trkpt lat="47.44317" lon="0.85695">
        <ele>111</ele>
        <time>2013-09-01T09:15:46.063Z</time>
      </trkpt>
      <trkpt lat="47.44317" lon="0.85704">
        <ele>111</ele>
        <time>2013-09-01T09:15:47.055Z</time>
      </trkpt>
      <trkpt lat="47.44318" lon="0.85713">
        <ele>110</ele>
        <time>2013-09-01T09:15:48.059Z</time>
      </trkpt>
      <trkpt lat="47.44318" lon="0.85719">
        <ele>110</ele>
        <time>2013-09-01T09:15:49.031Z</time>
      </trkpt>
      <trkpt lat="47.44319" lon="0.85728">
        <ele>110</ele>
        <time>2013-09-01T09:15:50.078Z</time>
      </trkpt>
      <trkpt lat="47.4432" lon="0.85736">
        <ele>109</ele>
        <time>2013-09-01T09:15:51.068Z</time>
      </trkpt>
      <trkpt lat="47.44321" lon="0.85745">
        <ele>109</ele>
        <time>2013-09-01T09:15:52.076Z</time>
      </trkpt>
      <trkpt lat="47.44321" lon="0.85751">
        <ele>109</ele>
        <time>2013-09-01T09:15:53.029Z</time>
      </trkpt>
      <trkpt lat="47.44322" lon="0.8576">
        <ele>109</ele>
        <time>2013-09-01T09:15:54.042Z</time>
      </trkpt>
      <trkpt lat="47.44323" lon="0.85768">
        <ele>109</ele>
        <time>2013-09-01T09:15:55.084Z</time>
      </trkpt>
      <trkpt lat="47.44324" lon="0.85775">
        <ele>109</ele>
        <time>2013-09-01T09:15:56.000Z</time>
      </trkpt>
      <trkpt lat="47.44326" lon="0.85783">
        <ele>109</ele>
        <time>2013-09-01T09:15:57.009Z</time>
      </trkpt>
      <trkpt lat="47.44327" lon="0.85792">
        <ele>109</ele>
        <time>2013-09-01T09:15:58.048Z</time>
      </trkpt>
      <trkpt lat="47.44328" lon="0.85801">
        <ele>109</ele>
        <time>2013-09-01T09:15:59.070Z</time>
      </trkpt>
      <trkpt lat="47.44329" lon="0.85807">
        <ele>109</ele>
        <time>2013-09-01T09:16:00.104Z</time>
      </trkpt>
      <trkpt lat="47.44331" lon="0.85815">
        <ele>109</ele>
        <time>2013-09-01T09:16:01.040Z</time>
      </trkpt>
      <trkpt lat="47.44332" lon="0.85824">
        <ele>109</ele>
        <time>2013-09-01T09:16:02.072Z</time>
      </trkpt>
      <trkpt lat="47.44333" lon="0.85831">
        <ele>109</ele>
        <time>2013-09-01T09:16:03.003Z</time>
      </trkpt>
      <trkpt lat="47.44335" lon="0.85839">
        <ele>109</ele>
        <time>2013-09-01T09:16:04.059Z</time>
      </trkpt>
      <trkpt lat="47.44336" lon="0.85848">
        <ele>109</ele>
        <time>2013-09-01T09:16:05.032Z</time>
      </trkpt>
      <trkpt lat="47.44337" lon="0.85854">
        <ele>109</ele>
        <time>2013-09-01T09:16:06.048Z</time>
      </trkpt>
      <trkpt lat="47.44338" lon="0.85863">
        <ele>109</ele>
        <time>2013-09-01T09:16:07.013Z</time>
      </trkpt>
      <trkpt lat="47.44339" lon="0.85871">
        <ele>109</ele>
        <time>2013-09-01T09:16:08.000Z</time>
      </trkpt>
      <trkpt lat="47.44341" lon="0.8588">
        <ele>108</ele>
        <time>2013-09-01T09:16:09.049Z</time>
      </trkpt>
      <trkpt lat="47.44342" lon="0.85889">
        <ele>108</ele>
        <time>2013-09-01T09:16:10.059Z</time>
      </trkpt>
      <trkpt lat="47.44342" lon="0.85895">
        <ele>108</ele>
        <time>2013-09-01T09:16:11.024Z</time>
      </trkpt>
      <trkpt lat="47.44342" lon="0.85903">
        <ele>108</ele>
        <time>2013-09-01T09:16:11.999Z</time>
      </trkpt>
      <trkpt lat="47.44342" lon="0.85912">
        <ele>108</ele>
        <time>2013-09-01T09:16:13.018Z</time>
      </trkpt>
      <trkpt lat="47.44342" lon="0.85919">
        <ele>108</ele>
        <time>2013-09-01T09:16:14.033Z</time>
      </trkpt>
      <trkpt lat="47.4434" lon="0.85927">
        <ele>108</ele>
        <time>2013-09-01T09:16:15.070Z</time>
      </trkpt>
      <trkpt lat="47.44338" lon="0.85936">
        <ele>109</ele>
        <time>2013-09-01T09:16:15.999Z</time>
      </trkpt>
      <trkpt lat="47.44335" lon="0.85942">
        <ele>109</ele>
        <time>2013-09-01T09:16:17.054Z</time>
      </trkpt>
      <trkpt lat="47.44332" lon="0.85951">
        <ele>109</ele>
        <time>2013-09-01T09:16:18.009Z</time>
      </trkpt>
      <trkpt lat="47.44329" lon="0.85957">
        <ele>109</ele>
        <time>2013-09-01T09:16:19.063Z</time>
      </trkpt>
      <trkpt lat="47.44325" lon="0.85964">
        <ele>109</ele>
        <time>2013-09-01T09:16:20.051Z</time>
      </trkpt>
      <trkpt lat="47.44321" lon="0.85968">
        <ele>109</ele>
        <time>2013-09-01T09:16:21.052Z</time>
      </trkpt>
      <trkpt lat="47.44318" lon="0.85974">
        <ele>109</ele>
        <time>2013-09-01T09:16:22.057Z</time>
      </trkpt>
      <trkpt lat="47.44315" lon="0.85981">
        <ele>109</ele>
        <time>2013-09-01T09:16:23.004Z</time>
      </trkpt>
      <trkpt lat="47.44312" lon="0.85987">
        <ele>109</ele>
        <time>2013-09-01T09:16:24.031Z</time>
      </trkpt>
      <trkpt lat="47.44307" lon="0.85994">
        <ele>109</ele>
        <time>2013-09-01T09:16:25.067Z</time>
      </trkpt>
      <trkpt lat="47.44304" lon="0.86">
        <ele>110</ele>
        <time>2013-09-01T09:16:26.097Z</time>
      </trkpt>
      <trkpt lat="47.443" lon="0.86007">
        <ele>110</ele>
        <time>2013-09-01T09:16:27.039Z</time>
      </trkpt>
      <trkpt lat="47.44297" lon="0.86011">
        <ele>110</ele>
        <time>2013-09-01T09:16:28.076Z</time>
      </trkpt>
      <trkpt lat="47.44293" lon="0.86017">
        <ele>110</ele>
        <time>2013-09-01T09:16:28.999Z</time>
      </trkpt>
      <trkpt lat="47.44289" lon="0.86026">
        <ele>110</ele>
        <time>2013-09-01T09:16:29.999Z</time>
      </trkpt>
      <trkpt lat="47.44286" lon="0.86033">
        <ele>110</ele>
        <time>2013-09-01T09:16:31.050Z</time>
      </trkpt>
      <trkpt lat="47.44283" lon="0.86039">
        <ele>110</ele>
        <time>2013-09-01T09:16:32.055Z</time>
      </trkpt>
      <trkpt lat="47.44281" lon="0.86047">
        <ele>110</ele>
        <time>2013-09-01T09:16:33.049Z</time>
      </trkpt>
      <trkpt lat="47.44276" lon="0.86054">
        <ele>110</ele>
        <time>2013-09-01T09:16:34.003Z</time>
      </trkpt>
      <trkpt lat="47.44273" lon="0.8606">
        <ele>110</ele>
        <time>2013-09-01T09:16:35.001Z</time>
      </trkpt>
      <trkpt lat="47.44271" lon="0.86069">
        <ele>110</ele>
        <time>2013-09-01T09:16:36.005Z</time>
      </trkpt>
      <trkpt lat="47.44269" lon="0.86077">
        <ele>109</ele>
        <time>2013-09-01T09:16:36.999Z</time>
      </trkpt>
      <trkpt lat="47.44269" lon="0.86086">
        <ele>109</ele>
        <time>2013-09-01T09:16:38.009Z</time>
      </trkpt>
      <trkpt lat="47.44268" lon="0.86095">
        <ele>109</ele>
        <time>2013-09-01T09:16:39.058Z</time>
      </trkpt>
      <trkpt lat="47.44269" lon="0.86105">
        <ele>109</ele>
        <time>2013-09-01T09:16:40.059Z</time>
      </trkpt>
      <trkpt lat="47.4427" lon="0.86114">
        <ele>108</ele>
        <time>2013-09-01T09:16:41.050Z</time>
      </trkpt>
      <trkpt lat="47.44272" lon="0.86123">
        <ele>107</ele>
        <time>2013-09-01T09:16:42.053Z</time>
      </trkpt>
      <trkpt lat="47.44274" lon="0.86131">
        <ele>107</ele>
        <time>2013-09-01T09:16:42.999Z</time>
      </trkpt>
      <trkpt lat="47.44277" lon="0.86138">
        <ele>107</ele>
        <time>2013-09-01T09:16:44.018Z</time>
      </trkpt>
      <trkpt lat="47.4428" lon="0.86146">
        <ele>107</ele>
        <time>2013-09-01T09:16:45.068Z</time>
      </trkpt>
      <trkpt lat="47.44281" lon="0.86153">
        <ele>106</ele>
        <time>2013-09-01T09:16:46.047Z</time>
      </trkpt>
      <trkpt lat="47.44284" lon="0.86161">
        <ele>105</ele>
        <time>2013-09-01T09:16:47.050Z</time>
      </trkpt>
      <trkpt lat="47.44287" lon="0.86168">
        <ele>105</ele>
        <time>2013-09-01T09:16:48.049Z</time>
      </trkpt>
      <trkpt lat="47.44289" lon="0.86176">
        <ele>106</ele>
        <time>2013-09-01T09:16:49.033Z</time>
      </trkpt>
      <trkpt lat="47.44291" lon="0.86183">
        <ele>106</ele>
        <time>2013-09-01T09:16:50.072Z</time>
      </trkpt>
      <trkpt lat="47.44294" lon="0.86191">
        <ele>106</ele>
        <time>2013-09-01T09:16:51.030Z</time>
      </trkpt>
      <trkpt lat="47.44296" lon="0.86198">
        <ele>106</ele>
        <time>2013-09-01T09:16:52.054Z</time>
      </trkpt>
      <trkpt lat="47.44298" lon="0.86204">
        <ele>106</ele>
        <time>2013-09-01T09:16:53.054Z</time>
      </trkpt>
      <trkpt lat="47.44299" lon="0.86212">
        <ele>106</ele>
        <time>2013-09-01T09:16:54.054Z</time>
      </trkpt>
      <trkpt lat="47.443" lon="0.86224">
        <ele>106</ele>
        <time>2013-09-01T09:16:56.013Z</time>
      </trkpt>
      <trkpt lat="47.44301" lon="0.86228">
        <ele>106</ele>
        <time>2013-09-01T09:16:57.020Z</time>
      </trkpt>
      <trkpt lat="47.44303" lon="0.8624">
        <ele>107</ele>
        <time>2013-09-01T09:17:00.102Z</time>
      </trkpt>
      <trkpt lat="47.44304" lon="0.86245">
        <ele>107</ele>
        <time>2013-09-01T09:17:01.068Z</time>
      </trkpt>
      <trkpt lat="47.44305" lon="0.86258">
        <ele>107</ele>
        <time>2013-09-01T09:17:03.012Z</time>
      </trkpt>
      <trkpt lat="47.44304" lon="0.86264">
        <ele>107</ele>
        <time>2013-09-01T09:17:04.015Z</time>
      </trkpt>
      <trkpt lat="47.44301" lon="0.86271">
        <ele>107</ele>
        <time>2013-09-01T09:17:05.032Z</time>
      </trkpt>
      <trkpt lat="47.44298" lon="0.86277">
        <ele>107</ele>
        <time>2013-09-01T09:17:06.061Z</time>
      </trkpt>
      <trkpt lat="47.44294" lon="0.86283">
        <ele>107</ele>
        <time>2013-09-01T09:17:07.065Z</time>
      </trkpt>
      <trkpt lat="47.44292" lon="0.8629">
        <ele>107</ele>
        <time>2013-09-01T09:17:08.015Z</time>
      </trkpt>
      <trkpt lat="47.44289" lon="0.86296">
        <ele>107</ele>
        <time>2013-09-01T09:17:09.007Z</time>
      </trkpt>
      <trkpt lat="47.44286" lon="0.86303">
        <ele>107</ele>
        <time>2013-09-01T09:17:10.071Z</time>
      </trkpt>
      <trkpt lat="47.44284" lon="0.86309">
        <ele>108</ele>
        <time>2013-09-01T09:17:11.056Z</time>
      </trkpt>
      <trkpt lat="47.44281" lon="0.86316">
        <ele>107</ele>
        <time>2013-09-01T09:17:12.058Z</time>
      </trkpt>
      <trkpt lat="47.44277" lon="0.86322">
        <ele>107</ele>
        <time>2013-09-01T09:17:13.003Z</time>
      </trkpt>
      <trkpt lat="47.44274" lon="0.86329">
        <ele>108</ele>
        <time>2013-09-01T09:17:14.013Z</time>
      </trkpt>
      <trkpt lat="47.44271" lon="0.86335">
        <ele>108</ele>
        <time>2013-09-01T09:17:15.007Z</time>
      </trkpt>
      <trkpt lat="47.44268" lon="0.86339">
        <ele>109</ele>
        <time>2013-09-01T09:17:16.030Z</time>
      </trkpt>
      <trkpt lat="47.44264" lon="0.86346">
        <ele>109</ele>
        <time>2013-09-01T09:17:17.063Z</time>
      </trkpt>
      <trkpt lat="47.44262" lon="0.86352">
        <ele>108</ele>
        <time>2013-09-01T09:17:18.028Z</time>
      </trkpt>
      <trkpt lat="47.44259" lon="0.86357">
        <ele>108</ele>
        <time>2013-09-01T09:17:19.053Z</time>
      </trkpt>
      <trkpt lat="47.44256" lon="0.86363">
        <ele>107</ele>
        <time>2013-09-01T09:17:20.055Z</time>
      </trkpt>
      <trkpt lat="47.44252" lon="0.86369">
        <ele>107</ele>
        <time>2013-09-01T09:17:20.998Z</time>
      </trkpt>
      <trkpt lat="47.44248" lon="0.86378">
        <ele>107</ele>
        <time>2013-09-01T09:17:22.055Z</time>
      </trkpt>
      <trkpt lat="47.44245" lon="0.86384">
        <ele>107</ele>
        <time>2013-09-01T09:17:23.010Z</time>
      </trkpt>
      <trkpt lat="47.44242" lon="0.86391">
        <ele>107</ele>
        <time>2013-09-01T09:17:24.054Z</time>
      </trkpt>
      <trkpt lat="47.44238" lon="0.86397">
        <ele>106</ele>
        <time>2013-09-01T09:17:25.064Z</time>
      </trkpt>
      <trkpt lat="47.44234" lon="0.86404">
        <ele>106</ele>
        <time>2013-09-01T09:17:26.055Z</time>
      </trkpt>
      <trkpt lat="47.44231" lon="0.8641">
        <ele>106</ele>
        <time>2013-09-01T09:17:27.063Z</time>
      </trkpt>
      <trkpt lat="47.44228" lon="0.86416">
        <ele>106</ele>
        <time>2013-09-01T09:17:28.023Z</time>
      </trkpt>
      <trkpt lat="47.44225" lon="0.86425">
        <ele>106</ele>
        <time>2013-09-01T09:17:29.057Z</time>
      </trkpt>
      <trkpt lat="47.4422" lon="0.86432">
        <ele>106</ele>
        <time>2013-09-01T09:17:30.061Z</time>
      </trkpt>
      <trkpt lat="47.44215" lon="0.86442">
        <ele>106</ele>
        <time>2013-09-01T09:17:31.999Z</time>
      </trkpt>
      <trkpt lat="47.44212" lon="0.86449">
        <ele>106</ele>
        <time>2013-09-01T09:17:33.063Z</time>
      </trkpt>
      <trkpt lat="47.44209" lon="0.86453">
        <ele>106</ele>
        <time>2013-09-01T09:17:34.024Z</time>
      </trkpt>
      <trkpt lat="47.44204" lon="0.86459">
        <ele>106</ele>
        <time>2013-09-01T09:17:35.021Z</time>
      </trkpt>
      <trkpt lat="47.442" lon="0.86464">
        <ele>106</ele>
        <time>2013-09-01T09:17:36.006Z</time>
      </trkpt>
      <trkpt lat="47.44195" lon="0.86466">
        <ele>106</ele>
        <time>2013-09-01T09:17:37.028Z</time>
      </trkpt>
      <trkpt lat="47.44189" lon="0.86468">
        <ele>106</ele>
        <time>2013-09-01T09:17:38.061Z</time>
      </trkpt>
      <trkpt lat="47.44185" lon="0.86468">
        <ele>106</ele>
        <time>2013-09-01T09:17:39.032Z</time>
      </trkpt>
      <trkpt lat="47.44181" lon="0.8647">
        <ele>105</ele>
        <time>2013-09-01T09:17:39.997Z</time>
      </trkpt>
      <trkpt lat="47.44175" lon="0.86472">
        <ele>105</ele>
        <time>2013-09-01T09:17:40.999Z</time>
      </trkpt>
      <trkpt lat="47.4417" lon="0.86473">
        <ele>105</ele>
        <time>2013-09-01T09:17:42.010Z</time>
      </trkpt>
      <trkpt lat="47.44165" lon="0.86474">
        <ele>105</ele>
        <time>2013-09-01T09:17:43.067Z</time>
      </trkpt>
      <trkpt lat="47.44159" lon="0.86476">
        <ele>105</ele>
        <time>2013-09-01T09:17:44.007Z</time>
      </trkpt>
      <trkpt lat="47.44154" lon="0.86479">
        <ele>105</ele>
        <time>2013-09-01T09:17:45.058Z</time>
      </trkpt>
      <trkpt lat="47.44149" lon="0.86483">
        <ele>105</ele>
        <time>2013-09-01T09:17:46.032Z</time>
      </trkpt>
      <trkpt lat="47.44145" lon="0.86489">
        <ele>105</ele>
        <time>2013-09-01T09:17:47.048Z</time>
      </trkpt>
      <trkpt lat="47.44143" lon="0.86496">
        <ele>105</ele>
        <time>2013-09-01T09:17:48.071Z</time>
      </trkpt>
      <trkpt lat="47.4414" lon="0.86502">
        <ele>105</ele>
        <time>2013-09-01T09:17:49.050Z</time>
      </trkpt>
      <trkpt lat="47.44137" lon="0.86509">
        <ele>105</ele>
        <time>2013-09-01T09:17:50.058Z</time>
      </trkpt>
      <trkpt lat="47.44133" lon="0.86515">
        <ele>104</ele>
        <time>2013-09-01T09:17:51.028Z</time>
      </trkpt>
      <trkpt lat="47.44131" lon="0.86522">
        <ele>105</ele>
        <time>2013-09-01T09:17:52.061Z</time>
      </trkpt>
      <trkpt lat="47.44128" lon="0.86526">
        <ele>105</ele>
        <time>2013-09-01T09:17:53.066Z</time>
      </trkpt>
      <trkpt lat="47.44125" lon="0.86532">
        <ele>106</ele>
        <time>2013-09-01T09:17:54.066Z</time>
      </trkpt>
      <trkpt lat="47.44123" lon="0.86537">
        <ele>106</ele>
        <time>2013-09-01T09:17:55.026Z</time>
      </trkpt>
      <trkpt lat="47.44117" lon="0.86547">
        <ele>108</ele>
        <time>2013-09-01T09:17:58.054Z</time>
      </trkpt>
      <trkpt lat="47.44116" lon="0.86552">
        <ele>109</ele>
        <time>2013-09-01T09:17:59.025Z</time>
      </trkpt>
      <trkpt lat="47.44114" lon="0.8656">
        <ele>109</ele>
        <time>2013-09-01T09:18:01.070Z</time>
      </trkpt>
      <trkpt lat="47.44111" lon="0.86566">
        <ele>108</ele>
        <time>2013-09-01T09:18:02.070Z</time>
      </trkpt>
      <trkpt lat="47.44108" lon="0.86571">
        <ele>107</ele>
        <time>2013-09-01T09:18:03.004Z</time>
      </trkpt>
      <trkpt lat="47.44104" lon="0.86577">
        <ele>106</ele>
        <time>2013-09-01T09:18:04.030Z</time>
      </trkpt>
      <trkpt lat="47.441" lon="0.86584">
        <ele>105</ele>
        <time>2013-09-01T09:18:05.052Z</time>
      </trkpt>
      <trkpt lat="47.44097" lon="0.8659">
        <ele>105</ele>
        <time>2013-09-01T09:18:06.003Z</time>
      </trkpt>
      <trkpt lat="47.44094" lon="0.86599">
        <ele>105</ele>
        <time>2013-09-01T09:18:07.020Z</time>
      </trkpt>
      <trkpt lat="47.44091" lon="0.86605">
        <ele>104</ele>
        <time>2013-09-01T09:18:08.035Z</time>
      </trkpt>
      <trkpt lat="47.44087" lon="0.86614">
        <ele>105</ele>
        <time>2013-09-01T09:18:09.099Z</time>
      </trkpt>
      <trkpt lat="47.44085" lon="0.86622">
        <ele>104</ele>
        <time>2013-09-01T09:18:10.070Z</time>
      </trkpt>
      <trkpt lat="47.44082" lon="0.86629">
        <ele>104</ele>
        <time>2013-09-01T09:18:11.069Z</time>
      </trkpt>
      <trkpt lat="47.44079" lon="0.86637">
        <ele>104</ele>
        <time>2013-09-01T09:18:12.056Z</time>
      </trkpt>
      <trkpt lat="47.44076" lon="0.86644">
        <ele>104</ele>
        <time>2013-09-01T09:18:13.011Z</time>
      </trkpt>
      <trkpt lat="47.44074" lon="0.8665">
        <ele>104</ele>
        <time>2013-09-01T09:18:14.003Z</time>
      </trkpt>
      <trkpt lat="47.4407" lon="0.86657">
        <ele>104</ele>
        <time>2013-09-01T09:18:15.000Z</time>
      </trkpt>
      <trkpt lat="47.44067" lon="0.86663">
        <ele>104</ele>
        <time>2013-09-01T09:18:16.005Z</time>
      </trkpt>
      <trkpt lat="47.44064" lon="0.86668">
        <ele>104</ele>
        <time>2013-09-01T09:18:17.034Z</time>
      </trkpt>
      <trkpt lat="47.44058" lon="0.8667">
        <ele>104</ele>
        <time>2013-09-01T09:18:18.048Z</time>
      </trkpt>
      <trkpt lat="47.44054" lon="0.86668">
        <ele>104</ele>
        <time>2013-09-01T09:18:19.016Z</time>
      </trkpt>
      <trkpt lat="47.4405" lon="0.86664">
        <ele>105</ele>
        <time>2013-09-01T09:18:20.008Z</time>
      </trkpt>
      <trkpt lat="47.44047" lon="0.86657">
        <ele>105</ele>
        <time>2013-09-01T09:18:21.062Z</time>
      </trkpt>
      <trkpt lat="47.44044" lon="0.86651">
        <ele>105</ele>
        <time>2013-09-01T09:18:22.061Z</time>
      </trkpt>
      <trkpt lat="47.44042" lon="0.86644">
        <ele>104</ele>
        <time>2013-09-01T09:18:23.079Z</time>
      </trkpt>
      <trkpt lat="47.44039" lon="0.86636">
        <ele>104</ele>
        <time>2013-09-01T09:18:24.055Z</time>
      </trkpt>
      <trkpt lat="47.44036" lon="0.86629">
        <ele>104</ele>
        <time>2013-09-01T09:18:25.055Z</time>
      </trkpt>
      <trkpt lat="47.44033" lon="0.86622">
        <ele>104</ele>
        <time>2013-09-01T09:18:26.052Z</time>
      </trkpt>
      <trkpt lat="47.44029" lon="0.86616">
        <ele>104</ele>
        <time>2013-09-01T09:18:27.027Z</time>
      </trkpt>
      <trkpt lat="47.44026" lon="0.8661">
        <ele>104</ele>
        <time>2013-09-01T09:18:28.054Z</time>
      </trkpt>
      <trkpt lat="47.44022" lon="0.86603">
        <ele>105</ele>
        <time>2013-09-01T09:18:29.055Z</time>
      </trkpt>
      <trkpt lat="47.44019" lon="0.86597">
        <ele>105</ele>
        <time>2013-09-01T09:18:30.069Z</time>
      </trkpt>
      <trkpt lat="47.44015" lon="0.8659">
        <ele>106</ele>
        <time>2013-09-01T09:18:31.049Z</time>
      </trkpt>
      <trkpt lat="47.44011" lon="0.86584">
        <ele>106</ele>
        <time>2013-09-01T09:18:32.093Z</time>
      </trkpt>
      <trkpt lat="47.44008" lon="0.86577">
        <ele>106</ele>
        <time>2013-09-01T09:18:33.005Z</time>
      </trkpt>
      <trkpt lat="47.44005" lon="0.86571">
        <ele>106</ele>
        <time>2013-09-01T09:18:34.008Z</time>
      </trkpt>
      <trkpt lat="47.44001" lon="0.86565">
        <ele>105</ele>
        <time>2013-09-01T09:18:35.003Z</time>
      </trkpt>
      <trkpt lat="47.43997" lon="0.86558">
        <ele>106</ele>
        <time>2013-09-01T09:18:36.003Z</time>
      </trkpt>
      <trkpt lat="47.43994" lon="0.86552">
        <ele>106</ele>
        <time>2013-09-01T09:18:37.009Z</time>
      </trkpt>
      <trkpt lat="47.43991" lon="0.86545">
        <ele>105</ele>
        <time>2013-09-01T09:18:38.014Z</time>
      </trkpt>
      <trkpt lat="47.43988" lon="0.86539">
        <ele>105</ele>
        <time>2013-09-01T09:18:39.019Z</time>
      </trkpt>
      <trkpt lat="47.43985" lon="0.86534">
        <ele>105</ele>
        <time>2013-09-01T09:18:40.072Z</time>
      </trkpt>
      <trkpt lat="47.43982" lon="0.86528">
        <ele>104</ele>
        <time>2013-09-01T09:18:41.003Z</time>
      </trkpt>
      <trkpt lat="47.43979" lon="0.86524">
        <ele>104</ele>
        <time>2013-09-01T09:18:42.013Z</time>
      </trkpt>
      <trkpt lat="47.43976" lon="0.86517">
        <ele>103</ele>
        <time>2013-09-01T09:18:43.011Z</time>
      </trkpt>
      <trkpt lat="47.43972" lon="0.86511">
        <ele>103</ele>
        <time>2013-09-01T09:18:44.004Z</time>
      </trkpt>
      <trkpt lat="47.43967" lon="0.86502">
        <ele>102</ele>
        <time>2013-09-01T09:18:46.024Z</time>
      </trkpt>
      <trkpt lat="47.43963" lon="0.865">
        <ele>102</ele>
        <time>2013-09-01T09:18:47.052Z</time>
      </trkpt>
      <trkpt lat="47.43956" lon="0.865">
        <ele>101</ele>
        <time>2013-09-01T09:18:49.057Z</time>
      </trkpt>
      <trkpt lat="47.43952" lon="0.86502">
        <ele>101</ele>
        <time>2013-09-01T09:18:50.058Z</time>
      </trkpt>
      <trkpt lat="47.43946" lon="0.86509">
        <ele>102</ele>
        <time>2013-09-01T09:18:52.010Z</time>
      </trkpt>
      <trkpt lat="47.43943" lon="0.86513">
        <ele>101</ele>
        <time>2013-09-01T09:18:53.030Z</time>
      </trkpt>
      <trkpt lat="47.43936" lon="0.86522">
        <ele>99</ele>
        <time>2013-09-01T09:18:55.059Z</time>
      </trkpt>
      <trkpt lat="47.43933" lon="0.86528">
        <ele>102</ele>
        <time>2013-09-01T09:18:56.059Z</time>
      </trkpt>
      <trkpt lat="47.4393" lon="0.86532">
        <ele>104</ele>
        <time>2013-09-01T09:18:57.058Z</time>
      </trkpt>
      <trkpt lat="47.43926" lon="0.86539">
        <ele>105</ele>
        <time>2013-09-01T09:18:58.003Z</time>
      </trkpt>
      <trkpt lat="47.43924" lon="0.86545">
        <ele>104</ele>
        <time>2013-09-01T09:18:59.035Z</time>
      </trkpt>
      <trkpt lat="47.43921" lon="0.86552">
        <ele>105</ele>
        <time>2013-09-01T09:19:00.053Z</time>
      </trkpt>
      <trkpt lat="47.43915" lon="0.8656">
        <ele>104</ele>
        <time>2013-09-01T09:19:02.002Z</time>
      </trkpt>
      <trkpt lat="47.43913" lon="0.86566">
        <ele>104</ele>
        <time>2013-09-01T09:19:03.027Z</time>
      </trkpt>
      <trkpt lat="47.43909" lon="0.86571">
        <ele>104</ele>
        <time>2013-09-01T09:19:04.037Z</time>
      </trkpt>
      <trkpt lat="47.43907" lon="0.86577">
        <ele>104</ele>
        <time>2013-09-01T09:19:05.089Z</time>
      </trkpt>
      <trkpt lat="47.43903" lon="0.86586">
        <ele>104</ele>
        <time>2013-09-01T09:19:07.045Z</time>
      </trkpt>
      <trkpt lat="47.439" lon="0.86592">
        <ele>104</ele>
        <time>2013-09-01T09:19:08.038Z</time>
      </trkpt>
      <trkpt lat="47.43898" lon="0.86597">
        <ele>104</ele>
        <time>2013-09-01T09:19:09.108Z</time>
      </trkpt>
      <trkpt lat="47.43894" lon="0.86603">
        <ele>104</ele>
        <time>2013-09-01T09:19:10.089Z</time>
      </trkpt>
      <trkpt lat="47.4389" lon="0.86614">
        <ele>105</ele>
        <time>2013-09-01T09:19:12.006Z</time>
      </trkpt>
      <trkpt lat="47.43887" lon="0.86618">
        <ele>105</ele>
        <time>2013-09-01T09:19:13.012Z</time>
      </trkpt>
      <trkpt lat="47.43884" lon="0.86622">
        <ele>105</ele>
        <time>2013-09-01T09:19:14.038Z</time>
      </trkpt>
      <trkpt lat="47.4388" lon="0.86629">
        <ele>105</ele>
        <time>2013-09-01T09:19:15.077Z</time>
      </trkpt>
      <trkpt lat="47.43875" lon="0.86638">
        <ele>105</ele>
        <time>2013-09-01T09:19:17.066Z</time>
      </trkpt>
      <trkpt lat="47.43872" lon="0.86644">
        <ele>106</ele>
        <time>2013-09-01T09:19:18.049Z</time>
      </trkpt>
      <trkpt lat="47.43869" lon="0.86648">
        <ele>106</ele>
        <time>2013-09-01T09:19:19.005Z</time>
      </trkpt>
      <trkpt lat="47.43865" lon="0.86655">
        <ele>106</ele>
        <time>2013-09-01T09:19:20.009Z</time>
      </trkpt>
      <trkpt lat="47.43862" lon="0.86659">
        <ele>106</ele>
        <time>2013-09-01T09:19:21.060Z</time>
      </trkpt>
      <trkpt lat="47.43859" lon="0.86665">
        <ele>106</ele>
        <time>2013-09-01T09:19:22.063Z</time>
      </trkpt>
      <trkpt lat="47.43856" lon="0.8667">
        <ele>107</ele>
        <time>2013-09-01T09:19:23.087Z</time>
      </trkpt>
      <trkpt lat="47.43852" lon="0.86676">
        <ele>107</ele>
        <time>2013-09-01T09:19:24.060Z</time>
      </trkpt>
      <trkpt lat="47.43849" lon="0.86683">
        <ele>107</ele>
        <time>2013-09-01T09:19:25.073Z</time>
      </trkpt>
      <trkpt lat="47.43846" lon="0.86687">
        <ele>107</ele>
        <time>2013-09-01T09:19:26.057Z</time>
      </trkpt>
      <trkpt lat="47.43843" lon="0.86693">
        <ele>107</ele>
        <time>2013-09-01T09:19:27.005Z</time>
      </trkpt>
      <trkpt lat="47.4384" lon="0.86698">
        <ele>107</ele>
        <time>2013-09-01T09:19:28.018Z</time>
      </trkpt>
      <trkpt lat="47.43834" lon="0.86706">
        <ele>108</ele>
        <time>2013-09-01T09:19:30.062Z</time>
      </trkpt>
      <trkpt lat="47.43831" lon="0.86712">
        <ele>108</ele>
        <time>2013-09-01T09:19:31.069Z</time>
      </trkpt>
      <trkpt lat="47.43824" lon="0.86721">
        <ele>108</ele>
        <time>2013-09-01T09:19:33.006Z</time>
      </trkpt>
      <trkpt lat="47.43821" lon="0.86727">
        <ele>108</ele>
        <time>2013-09-01T09:19:34.067Z</time>
      </trkpt>
      <trkpt lat="47.43818" lon="0.86732">
        <ele>108</ele>
        <time>2013-09-01T09:19:35.072Z</time>
      </trkpt>
      <trkpt lat="47.43815" lon="0.86738">
        <ele>108</ele>
        <time>2013-09-01T09:19:36.064Z</time>
      </trkpt>
      <trkpt lat="47.43812" lon="0.86743">
        <ele>108</ele>
        <time>2013-09-01T09:19:37.075Z</time>
      </trkpt>
      <trkpt lat="47.43808" lon="0.86749">
        <ele>108</ele>
        <time>2013-09-01T09:19:38.060Z</time>
      </trkpt>
      <trkpt lat="47.43806" lon="0.86753">
        <ele>108</ele>
        <time>2013-09-01T09:19:39.030Z</time>
      </trkpt>
      <trkpt lat="47.43803" lon="0.8676">
        <ele>108</ele>
        <time>2013-09-01T09:19:40.082Z</time>
      </trkpt>
      <trkpt lat="47.43797" lon="0.86768">
        <ele>109</ele>
        <time>2013-09-01T09:19:42.016Z</time>
      </trkpt>
      <trkpt lat="47.43795" lon="0.86775">
        <ele>109</ele>
        <time>2013-09-01T09:19:43.117Z</time>
      </trkpt>
      <trkpt lat="47.43791" lon="0.86779">
        <ele>109</ele>
        <time>2013-09-01T09:19:44.016Z</time>
      </trkpt>
      <trkpt lat="47.43789" lon="0.86785">
        <ele>109</ele>
        <time>2013-09-01T09:19:45.003Z</time>
      </trkpt>
      <trkpt lat="47.43784" lon="0.86794">
        <ele>109</ele>
        <time>2013-09-01T09:19:47.018Z</time>
      </trkpt>
      <trkpt lat="47.43782" lon="0.86798">
        <ele>109</ele>
        <time>2013-09-01T09:19:48.061Z</time>
      </trkpt>
      <trkpt lat="47.43775" lon="0.86807">
        <ele>109</ele>
        <time>2013-09-01T09:19:51.020Z</time>
      </trkpt>
      <trkpt lat="47.43773" lon="0.86811">
        <ele>109</ele>
        <time>2013-09-01T09:19:52.063Z</time>
      </trkpt>
      <trkpt lat="47.43766" lon="0.8682">
        <ele>109</ele>
        <time>2013-09-01T09:19:55.064Z</time>
      </trkpt>
      <trkpt lat="47.43765" lon="0.86822">
        <ele>110</ele>
        <time>2013-09-01T09:19:56.059Z</time>
      </trkpt>
      <trkpt lat="47.43756" lon="0.86822">
        <ele>109</ele>
        <time>2013-09-01T09:19:59.014Z</time>
      </trkpt>
      <trkpt lat="47.43754" lon="0.86816">
        <ele>109</ele>
        <time>2013-09-01T09:20:00.060Z</time>
      </trkpt>
      <trkpt lat="47.43749" lon="0.86805">
        <ele>109</ele>
        <time>2013-09-01T09:20:02.064Z</time>
      </trkpt>
      <trkpt lat="47.43747" lon="0.86799">
        <ele>110</ele>
        <time>2013-09-01T09:20:03.035Z</time>
      </trkpt>
      <trkpt lat="47.43744" lon="0.86792">
        <ele>109</ele>
        <time>2013-09-01T09:20:04.059Z</time>
      </trkpt>
      <trkpt lat="47.43742" lon="0.86786">
        <ele>109</ele>
        <time>2013-09-01T09:20:05.073Z</time>
      </trkpt>
      <trkpt lat="47.43737" lon="0.86775">
        <ele>109</ele>
        <time>2013-09-01T09:20:07.064Z</time>
      </trkpt>
      <trkpt lat="47.43734" lon="0.8677">
        <ele>109</ele>
        <time>2013-09-01T09:20:08.030Z</time>
      </trkpt>
      <trkpt lat="47.43727" lon="0.86772">
        <ele>111</ele>
        <time>2013-09-01T09:20:10.008Z</time>
      </trkpt>
      <trkpt lat="47.43724" lon="0.86775">
        <ele>111</ele>
        <time>2013-09-01T09:20:11.037Z</time>
      </trkpt>
      <trkpt lat="47.43717" lon="0.86781">
        <ele>111</ele>
        <time>2013-09-01T09:20:14.026Z</time>
      </trkpt>
      <trkpt lat="47.43715" lon="0.86783">
        <ele>111</ele>
        <time>2013-09-01T09:20:15.036Z</time>
      </trkpt>
      <trkpt lat="47.43709" lon="0.8679">
        <ele>111</ele>
        <time>2013-09-01T09:20:18.060Z</time>
      </trkpt>
      <trkpt lat="47.43707" lon="0.8679">
        <ele>111</ele>
        <time>2013-09-01T09:20:19.079Z</time>
      </trkpt>
      <trkpt lat="47.43701" lon="0.86794">
        <ele>111</ele>
        <time>2013-09-01T09:20:21.112Z</time>
      </trkpt>
      <trkpt lat="47.43698" lon="0.86796">
        <ele>112</ele>
        <time>2013-09-01T09:20:22.067Z</time>
      </trkpt>
      <trkpt lat="47.4369" lon="0.868">
        <ele>112</ele>
        <time>2013-09-01T09:20:25.074Z</time>
      </trkpt>
      <trkpt lat="47.43689" lon="0.86801">
        <ele>112</ele>
        <time>2013-09-01T09:20:26.018Z</time>
      </trkpt>
      <trkpt lat="47.43681" lon="0.86803">
        <ele>112</ele>
        <time>2013-09-01T09:20:31.063Z</time>
      </trkpt>
      <trkpt lat="47.43679" lon="0.86805">
        <ele>113</ele>
        <time>2013-09-01T09:20:32.072Z</time>
      </trkpt>
      <trkpt lat="47.43671" lon="0.86807">
        <ele>114</ele>
        <time>2013-09-01T09:20:36.061Z</time>
      </trkpt>
      <trkpt lat="47.4367" lon="0.86807">
        <ele>114</ele>
        <time>2013-09-01T09:20:37.069Z</time>
      </trkpt>
      <trkpt lat="47.43662" lon="0.86811">
        <ele>115</ele>
        <time>2013-09-01T09:20:42.006Z</time>
      </trkpt>
      <trkpt lat="47.43659" lon="0.86811">
        <ele>116</ele>
        <time>2013-09-01T09:20:43.032Z</time>
      </trkpt>
      <trkpt lat="47.43652" lon="0.86812">
        <ele>116</ele>
        <time>2013-09-01T09:20:47.064Z</time>
      </trkpt>
      <trkpt lat="47.4365" lon="0.86811">
        <ele>116</ele>
        <time>2013-09-01T09:20:48.061Z</time>
      </trkpt>
      <trkpt lat="47.43642" lon="0.86813">
        <ele>117</ele>
        <time>2013-09-01T09:20:52.072Z</time>
      </trkpt>
      <trkpt lat="47.43641" lon="0.86814">
        <ele>117</ele>
        <time>2013-09-01T09:20:53.074Z</time>
      </trkpt>
      <trkpt lat="47.43632" lon="0.86811">
        <ele>118</ele>
        <time>2013-09-01T09:20:58.060Z</time>
      </trkpt>
      <trkpt lat="47.4363" lon="0.86809">
        <ele>118</ele>
        <time>2013-09-01T09:20:59.106Z</time>
      </trkpt>
      <trkpt lat="47.43622" lon="0.86811">
        <ele>120</ele>
        <time>2013-09-01T09:21:04.007Z</time>
      </trkpt>
      <trkpt lat="47.4362" lon="0.86813">
        <ele>120</ele>
        <time>2013-09-01T09:21:05.024Z</time>
      </trkpt>
      <trkpt lat="47.43613" lon="0.86818">
        <ele>120</ele>
        <time>2013-09-01T09:21:09.039Z</time>
      </trkpt>
      <trkpt lat="47.43611" lon="0.8682">
        <ele>120</ele>
        <time>2013-09-01T09:21:10.122Z</time>
      </trkpt>
      <trkpt lat="47.43605" lon="0.86824">
        <ele>119</ele>
        <time>2013-09-01T09:21:14.007Z</time>
      </trkpt>
      <trkpt lat="47.43602" lon="0.86824">
        <ele>120</ele>
        <time>2013-09-01T09:21:15.031Z</time>
      </trkpt>
      <trkpt lat="47.43595" lon="0.86829">
        <ele>120</ele>
        <time>2013-09-01T09:21:19.032Z</time>
      </trkpt>
      <trkpt lat="47.43593" lon="0.8683">
        <ele>120</ele>
        <time>2013-09-01T09:21:20.027Z</time>
      </trkpt>
      <trkpt lat="47.43585" lon="0.86837">
        <ele>119</ele>
        <time>2013-09-01T09:21:24.054Z</time>
      </trkpt>
      <trkpt lat="47.43583" lon="0.86837">
        <ele>119</ele>
        <time>2013-09-01T09:21:25.085Z</time>
      </trkpt>
      <trkpt lat="47.43576" lon="0.86841">
        <ele>120</ele>
        <time>2013-09-01T09:21:29.069Z</time>
      </trkpt>
      <trkpt lat="47.43574" lon="0.86843">
        <ele>120</ele>
        <time>2013-09-01T09:21:30.079Z</time>
      </trkpt>
      <trkpt lat="47.43567" lon="0.86848">
        <ele>121</ele>
        <time>2013-09-01T09:21:34.017Z</time>
      </trkpt>
      <trkpt lat="47.43566" lon="0.86848">
        <ele>121</ele>
        <time>2013-09-01T09:21:35.062Z</time>
      </trkpt>
      <trkpt lat="47.43559" lon="0.86852">
        <ele>122</ele>
        <time>2013-09-01T09:21:39.062Z</time>
      </trkpt>
      <trkpt lat="47.43557" lon="0.86854">
        <ele>122</ele>
        <time>2013-09-01T09:21:40.077Z</time>
      </trkpt>
      <trkpt lat="47.4355" lon="0.86858">
        <ele>123</ele>
        <time>2013-09-01T09:21:44.070Z</time>
      </trkpt>
      <trkpt lat="47.43548" lon="0.86859">
        <ele>123</ele>
        <time>2013-09-01T09:21:45.067Z</time>
      </trkpt>
      <trkpt lat="47.4354" lon="0.86865">
        <ele>125</ele>
        <time>2013-09-01T09:21:50.064Z</time>
      </trkpt>
      <trkpt lat="47.43538" lon="0.86865">
        <ele>125</ele>
        <time>2013-09-01T09:21:51.066Z</time>
      </trkpt>
      <trkpt lat="47.43531" lon="0.86865">
        <ele>126</ele>
        <time>2013-09-01T09:21:55.034Z</time>
      </trkpt>
      <trkpt lat="47.43528" lon="0.86867">
        <ele>126</ele>
        <time>2013-09-01T09:21:56.017Z</time>
      </trkpt>
      <trkpt lat="47.4352" lon="0.86865">
        <ele>125</ele>
        <time>2013-09-01T09:22:01.052Z</time>
      </trkpt>
      <trkpt lat="47.43518" lon="0.86865">
        <ele>126</ele>
        <time>2013-09-01T09:22:02.015Z</time>
      </trkpt>
      <trkpt lat="47.43509" lon="0.86863">
        <ele>126</ele>
        <time>2013-09-01T09:22:06.064Z</time>
      </trkpt>
      <trkpt lat="47.43507" lon="0.86863">
        <ele>126</ele>
        <time>2013-09-01T09:22:07.070Z</time>
      </trkpt>
      <trkpt lat="47.435" lon="0.86859">
        <ele>126</ele>
        <time>2013-09-01T09:22:11.019Z</time>
      </trkpt>
      <trkpt lat="47.43498" lon="0.86858">
        <ele>126</ele>
        <time>2013-09-01T09:22:12.044Z</time>
      </trkpt>
      <trkpt lat="47.43491" lon="0.86852">
        <ele>128</ele>
        <time>2013-09-01T09:22:17.068Z</time>
      </trkpt>
      <trkpt lat="47.4349" lon="0.8685">
        <ele>128</ele>
        <time>2013-09-01T09:22:18.058Z</time>
      </trkpt>
      <trkpt lat="47.43482" lon="0.86844">
        <ele>130</ele>
        <time>2013-09-01T09:22:23.078Z</time>
      </trkpt>
      <trkpt lat="47.4348" lon="0.86843">
        <ele>131</ele>
        <time>2013-09-01T09:22:24.062Z</time>
      </trkpt>
      <trkpt lat="47.43475" lon="0.86835">
        <ele>132</ele>
        <time>2013-09-01T09:22:28.033Z</time>
      </trkpt>
      <trkpt lat="47.43473" lon="0.86833">
        <ele>132</ele>
        <time>2013-09-01T09:22:29.069Z</time>
      </trkpt>
      <trkpt lat="47.43466" lon="0.86826">
        <ele>133</ele>
        <time>2013-09-01T09:22:34.380Z</time>
      </trkpt>
      <trkpt lat="47.43465" lon="0.86824">
        <ele>133</ele>
        <time>2013-09-01T09:22:35.059Z</time>
      </trkpt>
      <trkpt lat="47.4346" lon="0.86818">
        <ele>133</ele>
        <time>2013-09-01T09:22:39.065Z</time>
      </trkpt>
      <trkpt lat="47.43457" lon="0.86816">
        <ele>133</ele>
        <time>2013-09-01T09:22:40.084Z</time>
      </trkpt>
      <trkpt lat="47.43451" lon="0.86809">
        <ele>134</ele>
        <time>2013-09-01T09:22:45.070Z</time>
      </trkpt>
      <trkpt lat="47.4345" lon="0.86807">
        <ele>134</ele>
        <time>2013-09-01T09:22:46.169Z</time>
      </trkpt>
      <trkpt lat="47.43444" lon="0.86799">
        <ele>134</ele>
        <time>2013-09-01T09:22:52.103Z</time>
      </trkpt>
      <trkpt lat="47.43443" lon="0.86798">
        <ele>134</ele>
        <time>2013-09-01T09:22:53.065Z</time>
      </trkpt>
      <trkpt lat="47.43437" lon="0.8679">
        <ele>135</ele>
        <time>2013-09-01T09:22:58.066Z</time>
      </trkpt>
      <trkpt lat="47.43436" lon="0.86788">
        <ele>136</ele>
        <time>2013-09-01T09:22:59.043Z</time>
      </trkpt>
      <trkpt lat="47.43428" lon="0.86781">
        <ele>136</ele>
        <time>2013-09-01T09:23:05.061Z</time>
      </trkpt>
      <trkpt lat="47.43428" lon="0.86781">
        <ele>137</ele>
        <time>2013-09-01T09:23:06.066Z</time>
      </trkpt>
      <trkpt lat="47.43421" lon="0.86773">
        <ele>138</ele>
        <time>2013-09-01T09:23:12.073Z</time>
      </trkpt>
      <trkpt lat="47.4342" lon="0.86773">
        <ele>138</ele>
        <time>2013-09-01T09:23:13.026Z</time>
      </trkpt>
      <trkpt lat="47.43412" lon="0.86766">
        <ele>139</ele>
        <time>2013-09-01T09:23:18.077Z</time>
      </trkpt>
      <trkpt lat="47.43411" lon="0.86766">
        <ele>139</ele>
        <time>2013-09-01T09:23:19.082Z</time>
      </trkpt>
      <trkpt lat="47.43405" lon="0.8676">
        <ele>140</ele>
        <time>2013-09-01T09:23:24.075Z</time>
      </trkpt>
      <trkpt lat="47.43403" lon="0.86758">
        <ele>139</ele>
        <time>2013-09-01T09:23:25.088Z</time>
      </trkpt>
      <trkpt lat="47.43396" lon="0.86753">
        <ele>140</ele>
        <time>2013-09-01T09:23:30.065Z</time>
      </trkpt>
      <trkpt lat="47.43394" lon="0.86751">
        <ele>140</ele>
        <time>2013-09-01T09:23:31.073Z</time>
      </trkpt>
      <trkpt lat="47.43387" lon="0.86745">
        <ele>141</ele>
        <time>2013-09-01T09:23:36.086Z</time>
      </trkpt>
      <trkpt lat="47.43385" lon="0.86743">
        <ele>141</ele>
        <time>2013-09-01T09:23:37.117Z</time>
      </trkpt>
      <trkpt lat="47.43378" lon="0.86738">
        <ele>141</ele>
        <time>2013-09-01T09:23:41.070Z</time>
      </trkpt>
      <trkpt lat="47.43376" lon="0.86736">
        <ele>141</ele>
        <time>2013-09-01T09:23:42.048Z</time>
      </trkpt>
      <trkpt lat="47.4337" lon="0.8673">
        <ele>142</ele>
        <time>2013-09-01T09:23:46.067Z</time>
      </trkpt>
      <trkpt lat="47.43369" lon="0.86728">
        <ele>142</ele>
        <time>2013-09-01T09:23:47.072Z</time>
      </trkpt>
      <trkpt lat="47.43362" lon="0.86723">
        <ele>142</ele>
        <time>2013-09-01T09:23:51.044Z</time>
      </trkpt>
      <trkpt lat="47.4336" lon="0.86723">
        <ele>142</ele>
        <time>2013-09-01T09:23:52.054Z</time>
      </trkpt>
      <trkpt lat="47.43353" lon="0.86717">
        <ele>144</ele>
        <time>2013-09-01T09:23:56.020Z</time>
      </trkpt>
      <trkpt lat="47.43351" lon="0.86715">
        <ele>144</ele>
        <time>2013-09-01T09:23:57.019Z</time>
      </trkpt>
      <trkpt lat="47.43344" lon="0.86708">
        <ele>144</ele>
        <time>2013-09-01T09:24:01.018Z</time>
      </trkpt>
      <trkpt lat="47.43342" lon="0.86704">
        <ele>144</ele>
        <time>2013-09-01T09:24:02.038Z</time>
      </trkpt>
      <trkpt lat="47.43335" lon="0.867">
        <ele>144</ele>
        <time>2013-09-01T09:24:05.070Z</time>
      </trkpt>
      <trkpt lat="47.43333" lon="0.86698">
        <ele>145</ele>
        <time>2013-09-01T09:24:06.086Z</time>
      </trkpt>
      <trkpt lat="47.43326" lon="0.86693">
        <ele>146</ele>
        <time>2013-09-01T09:24:09.015Z</time>
      </trkpt>
      <trkpt lat="47.43323" lon="0.86693">
        <ele>146</ele>
        <time>2013-09-01T09:24:10.088Z</time>
      </trkpt>
      <trkpt lat="47.43317" lon="0.86689">
        <ele>147</ele>
        <time>2013-09-01T09:24:13.021Z</time>
      </trkpt>
      <trkpt lat="47.43315" lon="0.86689">
        <ele>147</ele>
        <time>2013-09-01T09:24:14.034Z</time>
      </trkpt>
      <trkpt lat="47.43308" lon="0.86683">
        <ele>147</ele>
        <time>2013-09-01T09:24:17.077Z</time>
      </trkpt>
      <trkpt lat="47.43306" lon="0.86682">
        <ele>148</ele>
        <time>2013-09-01T09:24:18.031Z</time>
      </trkpt>
      <trkpt lat="47.433" lon="0.86674">
        <ele>148</ele>
        <time>2013-09-01T09:24:21.072Z</time>
      </trkpt>
      <trkpt lat="47.43297" lon="0.86674">
        <ele>148</ele>
        <time>2013-09-01T09:24:22.070Z</time>
      </trkpt>
      <trkpt lat="47.4329" lon="0.86668">
        <ele>148</ele>
        <time>2013-09-01T09:24:25.094Z</time>
      </trkpt>
      <trkpt lat="47.43289" lon="0.86665">
        <ele>148</ele>
        <time>2013-09-01T09:24:26.049Z</time>
      </trkpt>
      <trkpt lat="47.43282" lon="0.86661">
        <ele>149</ele>
        <time>2013-09-01T09:24:29.022Z</time>
      </trkpt>
      <trkpt lat="47.4328" lon="0.86659">
        <ele>149</ele>
        <time>2013-09-01T09:24:30.060Z</time>
      </trkpt>
      <trkpt lat="47.43272" lon="0.86653">
        <ele>148</ele>
        <time>2013-09-01T09:24:34.065Z</time>
      </trkpt>
      <trkpt lat="47.4327" lon="0.8665">
        <ele>148</ele>
        <time>2013-09-01T09:24:35.052Z</time>
      </trkpt>
      <trkpt lat="47.43263" lon="0.86644">
        <ele>148</ele>
        <time>2013-09-01T09:24:38.055Z</time>
      </trkpt>
      <trkpt lat="47.43261" lon="0.86644">
        <ele>148</ele>
        <time>2013-09-01T09:24:39.125Z</time>
      </trkpt>
      <trkpt lat="47.43255" lon="0.86638">
        <ele>149</ele>
        <time>2013-09-01T09:24:42.060Z</time>
      </trkpt>
      <trkpt lat="47.43253" lon="0.86637">
        <ele>149</ele>
        <time>2013-09-01T09:24:43.108Z</time>
      </trkpt>
      <trkpt lat="47.43246" lon="0.86631">
        <ele>150</ele>
        <time>2013-09-01T09:24:46.056Z</time>
      </trkpt>
      <trkpt lat="47.43244" lon="0.86629">
        <ele>150</ele>
        <time>2013-09-01T09:24:47.069Z</time>
      </trkpt>
      <trkpt lat="47.43237" lon="0.86622">
        <ele>151</ele>
        <time>2013-09-01T09:24:50.105Z</time>
      </trkpt>
      <trkpt lat="47.43234" lon="0.8662">
        <ele>151</ele>
        <time>2013-09-01T09:24:51.103Z</time>
      </trkpt>
      <trkpt lat="47.43227" lon="0.86614">
        <ele>151</ele>
        <time>2013-09-01T09:24:54.112Z</time>
      </trkpt>
      <trkpt lat="47.43224" lon="0.86612">
        <ele>151</ele>
        <time>2013-09-01T09:24:55.105Z</time>
      </trkpt>
      <trkpt lat="47.43217" lon="0.86607">
        <ele>151</ele>
        <time>2013-09-01T09:24:57.054Z</time>
      </trkpt>
      <trkpt lat="47.43215" lon="0.86605">
        <ele>151</ele>
        <time>2013-09-01T09:24:58.081Z</time>
      </trkpt>
      <trkpt lat="47.43209" lon="0.86601">
        <ele>151</ele>
        <time>2013-09-01T09:25:00.139Z</time>
      </trkpt>
      <trkpt lat="47.43205" lon="0.86599">
        <ele>151</ele>
        <time>2013-09-01T09:25:01.110Z</time>
      </trkpt>
      <trkpt lat="47.43199" lon="0.86595">
        <ele>151</ele>
        <time>2013-09-01T09:25:03.501Z</time>
      </trkpt>
      <trkpt lat="47.43196" lon="0.86592">
        <ele>150</ele>
        <time>2013-09-01T09:25:04.475Z</time>
      </trkpt>
      <trkpt lat="47.4319" lon="0.86588">
        <ele>151</ele>
        <time>2013-09-01T09:25:06.515Z</time>
      </trkpt>
      <trkpt lat="47.43186" lon="0.86586">
        <ele>151</ele>
        <time>2013-09-01T09:25:07.504Z</time>
      </trkpt>
      <trkpt lat="47.43181" lon="0.86584">
        <ele>152</ele>
        <time>2013-09-01T09:25:09.574Z</time>
      </trkpt>
      <trkpt lat="47.43178" lon="0.86582">
        <ele>152</ele>
        <time>2013-09-01T09:25:10.539Z</time>
      </trkpt>
      <trkpt lat="47.4317" lon="0.86579">
        <ele>152</ele>
        <time>2013-09-01T09:25:12.528Z</time>
      </trkpt>
      <trkpt lat="47.43167" lon="0.86578">
        <ele>152</ele>
        <time>2013-09-01T09:25:13.532Z</time>
      </trkpt>
      <trkpt lat="47.4316" lon="0.86575">
        <ele>151</ele>
        <time>2013-09-01T09:25:15.544Z</time>
      </trkpt>
      <trkpt lat="47.43157" lon="0.86573">
        <ele>151</ele>
        <time>2013-09-01T09:25:16.530Z</time>
      </trkpt>
      <trkpt lat="47.4315" lon="0.86573">
        <ele>151</ele>
        <time>2013-09-01T09:25:18.534Z</time>
      </trkpt>
      <trkpt lat="47.43146" lon="0.86573">
        <ele>151</ele>
        <time>2013-09-01T09:25:19.539Z</time>
      </trkpt>
      <trkpt lat="47.43138" lon="0.86575">
        <ele>152</ele>
        <time>2013-09-01T09:25:22.498Z</time>
      </trkpt>
      <trkpt lat="47.43136" lon="0.86575">
        <ele>152</ele>
        <time>2013-09-01T09:25:23.523Z</time>
      </trkpt>
      <trkpt lat="47.43128" lon="0.86573">
        <ele>153</ele>
        <time>2013-09-01T09:25:26.481Z</time>
      </trkpt>
      <trkpt lat="47.43125" lon="0.86573">
        <ele>154</ele>
        <time>2013-09-01T09:25:27.479Z</time>
      </trkpt>
      <trkpt lat="47.43118" lon="0.86573">
        <ele>154</ele>
        <time>2013-09-01T09:25:29.545Z</time>
      </trkpt>
      <trkpt lat="47.43114" lon="0.86571">
        <ele>154</ele>
        <time>2013-09-01T09:25:30.544Z</time>
      </trkpt>
      <trkpt lat="47.43106" lon="0.86569">
        <ele>154</ele>
        <time>2013-09-01T09:25:33.484Z</time>
      </trkpt>
      <trkpt lat="47.43102" lon="0.86567">
        <ele>154</ele>
        <time>2013-09-01T09:25:34.475Z</time>
      </trkpt>
      <trkpt lat="47.43094" lon="0.86563">
        <ele>154</ele>
        <time>2013-09-01T09:25:37.488Z</time>
      </trkpt>
      <trkpt lat="47.43092" lon="0.86562">
        <ele>154</ele>
        <time>2013-09-01T09:25:38.549Z</time>
      </trkpt>
      <trkpt lat="47.43087" lon="0.86552">
        <ele>154</ele>
        <time>2013-09-01T09:25:43.530Z</time>
      </trkpt>
      <trkpt lat="47.43089" lon="0.86547">
        <ele>154</ele>
        <time>2013-09-01T09:25:44.530Z</time>
      </trkpt>
      <trkpt lat="47.43095" lon="0.86539">
        <ele>153</ele>
        <time>2013-09-01T09:25:46.533Z</time>
      </trkpt>
      <trkpt lat="47.43098" lon="0.86535">
        <ele>152</ele>
        <time>2013-09-01T09:25:47.541Z</time>
      </trkpt>
      <trkpt lat="47.43104" lon="0.86526">
        <ele>152</ele>
        <time>2013-09-01T09:25:49.520Z</time>
      </trkpt>
      <trkpt lat="47.43107" lon="0.86522">
        <ele>153</ele>
        <time>2013-09-01T09:25:50.532Z</time>
      </trkpt>
      <trkpt lat="47.43112" lon="0.86513">
        <ele>153</ele>
        <time>2013-09-01T09:25:52.535Z</time>
      </trkpt>
      <trkpt lat="47.43114" lon="0.86511">
        <ele>153</ele>
        <time>2013-09-01T09:25:53.479Z</time>
      </trkpt>
      <trkpt lat="47.43119" lon="0.86507">
        <ele>153</ele>
        <time>2013-09-01T09:25:56.481Z</time>
      </trkpt>
      <trkpt lat="47.43122" lon="0.86505">
        <ele>152</ele>
        <time>2013-09-01T09:25:57.505Z</time>
      </trkpt>
      <trkpt lat="47.43126" lon="0.86496">
        <ele>150</ele>
        <time>2013-09-01T09:25:59.536Z</time>
      </trkpt>
      <trkpt lat="47.43128" lon="0.8649">
        <ele>149</ele>
        <time>2013-09-01T09:26:00.562Z</time>
      </trkpt>
      <trkpt lat="47.43134" lon="0.86481">
        <ele>148</ele>
        <time>2013-09-01T09:26:02.537Z</time>
      </trkpt>
      <trkpt lat="47.43136" lon="0.86476">
        <ele>148</ele>
        <time>2013-09-01T09:26:03.506Z</time>
      </trkpt>
      <trkpt lat="47.43139" lon="0.86468">
        <ele>147</ele>
        <time>2013-09-01T09:26:05.550Z</time>
      </trkpt>
      <trkpt lat="47.4314" lon="0.86464">
        <ele>147</ele>
        <time>2013-09-01T09:26:06.533Z</time>
      </trkpt>
      <trkpt lat="47.43143" lon="0.86455">
        <ele>144</ele>
        <time>2013-09-01T09:26:09.538Z</time>
      </trkpt>
      <trkpt lat="47.43144" lon="0.86451">
        <ele>144</ele>
        <time>2013-09-01T09:26:10.547Z</time>
      </trkpt>
      <trkpt lat="47.43142" lon="0.8644">
        <ele>149</ele>
        <time>2013-09-01T09:26:15.537Z</time>
      </trkpt>
      <trkpt lat="47.43141" lon="0.86438">
        <ele>151</ele>
        <time>2013-09-01T09:26:16.534Z</time>
      </trkpt>
      <trkpt lat="47.43134" lon="0.86434">
        <ele>154</ele>
        <time>2013-09-01T09:26:19.478Z</time>
      </trkpt>
      <trkpt lat="47.43131" lon="0.86433">
        <ele>155</ele>
        <time>2013-09-01T09:26:20.477Z</time>
      </trkpt>
      <trkpt lat="47.43127" lon="0.86425">
        <ele>155</ele>
        <time>2013-09-01T09:26:20.849Z</time>
      </trkpt>
      <trkpt lat="47.43125" lon="0.86423">
        <ele>154</ele>
        <time>2013-09-01T09:26:21.889Z</time>
      </trkpt>
      <trkpt lat="47.43124" lon="0.86415">
        <ele>152</ele>
        <time>2013-09-01T09:26:23.899Z</time>
      </trkpt>
      <trkpt lat="47.43123" lon="0.86409">
        <ele>151</ele>
        <time>2013-09-01T09:26:24.964Z</time>
      </trkpt>
      <trkpt lat="47.4312" lon="0.86399">
        <ele>148</ele>
        <time>2013-09-01T09:26:25.867Z</time>
      </trkpt>
      <trkpt lat="47.43118" lon="0.86387">
        <ele>145</ele>
        <time>2013-09-01T09:26:26.911Z</time>
      </trkpt>
      <trkpt lat="47.43118" lon="0.86378">
        <ele>144</ele>
        <time>2013-09-01T09:26:27.916Z</time>
      </trkpt>
      <trkpt lat="47.43117" lon="0.86372">
        <ele>145</ele>
        <time>2013-09-01T09:26:28.849Z</time>
      </trkpt>
      <trkpt lat="47.43109" lon="0.86375">
        <ele>152</ele>
        <time>2013-09-01T09:26:33.913Z</time>
      </trkpt>
      <trkpt lat="47.43107" lon="0.86374">
        <ele>152</ele>
        <time>2013-09-01T09:26:34.904Z</time>
      </trkpt>
      <trkpt lat="47.43098" lon="0.86372">
        <ele>153</ele>
        <time>2013-09-01T09:26:38.906Z</time>
      </trkpt>
      <trkpt lat="47.43096" lon="0.86371">
        <ele>153</ele>
        <time>2013-09-01T09:26:39.904Z</time>
      </trkpt>
      <trkpt lat="47.43088" lon="0.86365">
        <ele>158</ele>
        <time>2013-09-01T09:26:44.911Z</time>
      </trkpt>
      <trkpt lat="47.43087" lon="0.86363">
        <ele>158</ele>
        <time>2013-09-01T09:26:45.858Z</time>
      </trkpt>
      <trkpt lat="47.4308" lon="0.86358">
        <ele>160</ele>
        <time>2013-09-01T09:26:50.828Z</time>
      </trkpt>
      <trkpt lat="47.43078" lon="0.86357">
        <ele>156</ele>
        <time>2013-09-01T09:26:51.823Z</time>
      </trkpt>
      <trkpt lat="47.43071" lon="0.86352">
        <ele>150</ele>
        <time>2013-09-01T09:26:54.936Z</time>
      </trkpt>
      <trkpt lat="47.43068" lon="0.8635">
        <ele>147</ele>
        <time>2013-09-01T09:26:55.957Z</time>
      </trkpt>
      <trkpt lat="47.43059" lon="0.86348">
        <ele>158</ele>
        <time>2013-09-01T09:26:59.885Z</time>
      </trkpt>
      <trkpt lat="47.43058" lon="0.86346">
        <ele>158</ele>
        <time>2013-09-01T09:27:00.888Z</time>
      </trkpt>
      <trkpt lat="47.43052" lon="0.86339">
        <ele>157</ele>
        <time>2013-09-01T09:27:03.889Z</time>
      </trkpt>
      <trkpt lat="47.43051" lon="0.86337">
        <ele>157</ele>
        <time>2013-09-01T09:27:04.894Z</time>
      </trkpt>
      <trkpt lat="47.43042" lon="0.86335">
        <ele>157</ele>
        <time>2013-09-01T09:27:08.851Z</time>
      </trkpt>
      <trkpt lat="47.43041" lon="0.86333">
        <ele>157</ele>
        <time>2013-09-01T09:27:09.919Z</time>
      </trkpt>
      <trkpt lat="47.43035" lon="0.86337">
        <ele>156</ele>
        <time>2013-09-01T09:27:13.840Z</time>
      </trkpt>
      <trkpt lat="47.43032" lon="0.86339">
        <ele>156</ele>
        <time>2013-09-01T09:27:15.002Z</time>
      </trkpt>
      <trkpt lat="47.43025" lon="0.86341">
        <ele>157</ele>
        <time>2013-09-01T09:27:16.860Z</time>
      </trkpt>
      <trkpt lat="47.43021" lon="0.8634">
        <ele>157</ele>
        <time>2013-09-01T09:27:17.874Z</time>
      </trkpt>
      <trkpt lat="47.43012" lon="0.86341">
        <ele>158</ele>
        <time>2013-09-01T09:27:21.879Z</time>
      </trkpt>
      <trkpt lat="47.43008" lon="0.86341">
        <ele>160</ele>
        <time>2013-09-01T09:27:22.877Z</time>
      </trkpt>
      <trkpt lat="47.43002" lon="0.86344">
        <ele>162</ele>
        <time>2013-09-01T09:27:24.863Z</time>
      </trkpt>
      <trkpt lat="47.42999" lon="0.86344">
        <ele>161</ele>
        <time>2013-09-01T09:27:25.927Z</time>
      </trkpt>
      <trkpt lat="47.42993" lon="0.86344">
        <ele>160</ele>
        <time>2013-09-01T09:27:27.866Z</time>
      </trkpt>
      <trkpt lat="47.4299" lon="0.86345">
        <ele>159</ele>
        <time>2013-09-01T09:27:28.845Z</time>
      </trkpt>
      <trkpt lat="47.42983" lon="0.8635">
        <ele>158</ele>
        <time>2013-09-01T09:27:30.839Z</time>
      </trkpt>
      <trkpt lat="47.42979" lon="0.86352">
        <ele>158</ele>
        <time>2013-09-01T09:27:31.849Z</time>
      </trkpt>
      <trkpt lat="47.42973" lon="0.86354">
        <ele>157</ele>
        <time>2013-09-01T09:27:35.702Z</time>
      </trkpt>
      <trkpt lat="47.4297" lon="0.86357">
        <ele>156</ele>
        <time>2013-09-01T09:27:35.841Z</time>
      </trkpt>
      <trkpt lat="47.42964" lon="0.86361">
        <ele>156</ele>
        <time>2013-09-01T09:27:36.908Z</time>
      </trkpt>
      <trkpt lat="47.42962" lon="0.86363">
        <ele>155</ele>
        <time>2013-09-01T09:27:37.910Z</time>
      </trkpt>
      <trkpt lat="47.42954" lon="0.86369">
        <ele>154</ele>
        <time>2013-09-01T09:27:40.871Z</time>
      </trkpt>
      <trkpt lat="47.42951" lon="0.86371">
        <ele>154</ele>
        <time>2013-09-01T09:27:41.861Z</time>
      </trkpt>
      <trkpt lat="47.42942" lon="0.86369">
        <ele>153</ele>
        <time>2013-09-01T09:27:45.874Z</time>
      </trkpt>
      <trkpt lat="47.42942" lon="0.86369">
        <ele>153</ele>
        <time>2013-09-01T09:27:46.856Z</time>
      </trkpt>
      <trkpt lat="47.42942" lon="0.86369">
        <ele>153</ele>
        <time>2013-09-01T09:27:48.107Z</time>
      </trkpt>
      <trkpt lat="47.42942" lon="0.86369">
        <ele>153</ele>
        <time>2013-09-01T09:27:57.872Z</time>
      </trkpt>
      <trkpt lat="47.42943" lon="0.86369">
        <ele>153</ele>
        <time>2013-09-01T09:27:58.846Z</time>
      </trkpt>
      <trkpt lat="47.42942" lon="0.86369">
        <ele>153</ele>
        <time>2013-09-01T09:28:00.859Z</time>
      </trkpt>
      <trkpt lat="47.42942" lon="0.86369">
        <ele>153</ele>
        <time>2013-09-01T09:28:01.868Z</time>
      </trkpt>
      <trkpt lat="47.42943" lon="0.86369">
        <ele>153</ele>
        <time>2013-09-01T09:28:02.850Z</time>
      </trkpt>
      <trkpt lat="47.42944" lon="0.86369">
        <ele>153</ele>
        <time>2013-09-01T09:28:03.859Z</time>
      </trkpt>
      <trkpt lat="47.42944" lon="0.86369">
        <ele>153</ele>
        <time>2013-09-01T09:28:04.856Z</time>
      </trkpt>
      <trkpt lat="47.42944" lon="0.86369">
        <ele>152</ele>
        <time>2013-09-01T09:28:16.861Z</time>
      </trkpt>
      <trkpt lat="47.42944" lon="0.86368">
        <ele>152</ele>
        <time>2013-09-01T09:28:17.870Z</time>
      </trkpt>
      <trkpt lat="47.42944" lon="0.86367">
        <ele>152</ele>
        <time>2013-09-01T09:28:19.893Z</time>
      </trkpt>
      <trkpt lat="47.42944" lon="0.86367">
        <ele>152</ele>
        <time>2013-09-01T09:28:20.960Z</time>
      </trkpt>
      <trkpt lat="47.42944" lon="0.86367">
        <ele>152</ele>
        <time>2013-09-01T09:28:33.910Z</time>
      </trkpt>
      <trkpt lat="47.42944" lon="0.86369">
        <ele>153</ele>
        <time>2013-09-01T09:28:34.903Z</time>
      </trkpt>
      <trkpt lat="47.42947" lon="0.86367">
        <ele>151</ele>
        <time>2013-09-01T09:28:40.863Z</time>
      </trkpt>
      <trkpt lat="47.42947" lon="0.86367">
        <ele>151</ele>
        <time>2013-09-01T09:28:41.881Z</time>
      </trkpt>
      <trkpt lat="47.42946" lon="0.86367">
        <ele>151</ele>
        <time>2013-09-01T09:28:42.857Z</time>
      </trkpt>
      <trkpt lat="47.42946" lon="0.86367">
        <ele>151</ele>
        <time>2013-09-01T09:28:43.846Z</time>
      </trkpt>
      <trkpt lat="47.42946" lon="0.86367">
        <ele>151</ele>
        <time>2013-09-01T09:28:44.864Z</time>
      </trkpt>
      <trkpt lat="47.42946" lon="0.86367">
        <ele>152</ele>
        <time>2013-09-01T09:28:45.841Z</time>
      </trkpt>
      <trkpt lat="47.42945" lon="0.86369">
        <ele>151</ele>
        <time>2013-09-01T09:28:46.826Z</time>
      </trkpt>
      <trkpt lat="47.4294" lon="0.86372">
        <ele>140</ele>
        <time>2013-09-01T09:28:48.855Z</time>
      </trkpt>
      <trkpt lat="47.42936" lon="0.86375">
        <ele>131</ele>
        <time>2013-09-01T09:28:49.833Z</time>
      </trkpt>
      <trkpt lat="47.42944" lon="0.86368">
        <ele>132</ele>
        <time>2013-09-01T09:29:07.949Z</time>
      </trkpt>
      <trkpt lat="47.42943" lon="0.86366">
        <ele>136</ele>
        <time>2013-09-01T09:29:08.894Z</time>
      </trkpt>
      <trkpt lat="47.42949" lon="0.86358">
        <ele>132</ele>
        <time>2013-09-01T09:29:15.900Z</time>
      </trkpt>
      <trkpt lat="47.4295" lon="0.86354">
        <ele>132</ele>
        <time>2013-09-01T09:29:16.899Z</time>
      </trkpt>
      <trkpt lat="47.42953" lon="0.86363">
        <ele>140</ele>
        <time>2013-09-01T09:29:21.872Z</time>
      </trkpt>
      <trkpt lat="47.42954" lon="0.86367">
        <ele>144</ele>
        <time>2013-09-01T09:29:22.900Z</time>
      </trkpt>
      <trkpt lat="47.4295" lon="0.8636">
        <ele>138</ele>
        <time>2013-09-01T09:29:35.851Z</time>
      </trkpt>
      <trkpt lat="47.4295" lon="0.8636">
        <ele>138</ele>
        <time>2013-09-01T09:29:36.855Z</time>
      </trkpt>
      <trkpt lat="47.4295" lon="0.86361">
        <ele>138</ele>
        <time>2013-09-01T09:29:38.837Z</time>
      </trkpt>
      <trkpt lat="47.42949" lon="0.86362">
        <ele>138</ele>
        <time>2013-09-01T09:29:39.884Z</time>
      </trkpt>
      <trkpt lat="47.42947" lon="0.86365">
        <ele>139</ele>
        <time>2013-09-01T09:29:45.926Z</time>
      </trkpt>
      <trkpt lat="47.42947" lon="0.86365">
        <ele>139</ele>
        <time>2013-09-01T09:29:46.863Z</time>
      </trkpt>
      <trkpt lat="47.42947" lon="0.86365">
        <ele>139</ele>
        <time>2013-09-01T09:29:50.849Z</time>
      </trkpt>
      <trkpt lat="47.42946" lon="0.86366">
        <ele>138</ele>
        <time>2013-09-01T09:29:51.834Z</time>
      </trkpt>
      <trkpt lat="47.42947" lon="0.86362">
        <ele>139</ele>
        <time>2013-09-01T09:30:02.939Z</time>
      </trkpt>
      <trkpt lat="47.42947" lon="0.86363">
        <ele>140</ele>
        <time>2013-09-01T09:30:03.877Z</time>
      </trkpt>
      <trkpt lat="47.42947" lon="0.86363">
        <ele>141</ele>
        <time>2013-09-01T09:30:05.920Z</time>
      </trkpt>
      <trkpt lat="47.42947" lon="0.86364">
        <ele>141</ele>
        <time>2013-09-01T09:30:06.870Z</time>
      </trkpt>
      <trkpt lat="47.42942" lon="0.86359">
        <ele>150</ele>
        <time>2013-09-01T09:30:11.916Z</time>
      </trkpt>
      <trkpt lat="47.4294" lon="0.86355">
        <ele>151</ele>
        <time>2013-09-01T09:30:12.956Z</time>
      </trkpt>
      <trkpt lat="47.42934" lon="0.86346">
        <ele>154</ele>
        <time>2013-09-01T09:30:14.905Z</time>
      </trkpt>
      <trkpt lat="47.42931" lon="0.86341">
        <ele>155</ele>
        <time>2013-09-01T09:30:15.911Z</time>
      </trkpt>
      <trkpt lat="47.42928" lon="0.86337">
        <ele>155</ele>
        <time>2013-09-01T09:30:16.866Z</time>
      </trkpt>
      <trkpt lat="47.42924" lon="0.86331">
        <ele>156</ele>
        <time>2013-09-01T09:30:17.862Z</time>
      </trkpt>
      <trkpt lat="47.42921" lon="0.86324">
        <ele>157</ele>
        <time>2013-09-01T09:30:18.858Z</time>
      </trkpt>
      <trkpt lat="47.42918" lon="0.86318">
        <ele>157</ele>
        <time>2013-09-01T09:30:19.857Z</time>
      </trkpt>
      <trkpt lat="47.42914" lon="0.86313">
        <ele>157</ele>
        <time>2013-09-01T09:30:20.857Z</time>
      </trkpt>
      <trkpt lat="47.4291" lon="0.86307">
        <ele>157</ele>
        <time>2013-09-01T09:30:21.885Z</time>
      </trkpt>
      <trkpt lat="47.42906" lon="0.86301">
        <ele>157</ele>
        <time>2013-09-01T09:30:22.917Z</time>
      </trkpt>
      <trkpt lat="47.42902" lon="0.86292">
        <ele>156</ele>
        <time>2013-09-01T09:30:23.897Z</time>
      </trkpt>
      <trkpt lat="47.42897" lon="0.86286">
        <ele>156</ele>
        <time>2013-09-01T09:30:24.859Z</time>
      </trkpt>
      <trkpt lat="47.42892" lon="0.86277">
        <ele>155</ele>
        <time>2013-09-01T09:30:25.890Z</time>
      </trkpt>
      <trkpt lat="47.42887" lon="0.86269">
        <ele>154</ele>
        <time>2013-09-01T09:30:26.915Z</time>
      </trkpt>
      <trkpt lat="47.42882" lon="0.8626">
        <ele>154</ele>
        <time>2013-09-01T09:30:27.919Z</time>
      </trkpt>
      <trkpt lat="47.42878" lon="0.86251">
        <ele>154</ele>
        <time>2013-09-01T09:30:28.860Z</time>
      </trkpt>
      <trkpt lat="47.42873" lon="0.86244">
        <ele>154</ele>
        <time>2013-09-01T09:30:29.865Z</time>
      </trkpt>
      <trkpt lat="47.42868" lon="0.86235">
        <ele>154</ele>
        <time>2013-09-01T09:30:30.865Z</time>
      </trkpt>
      <trkpt lat="47.42863" lon="0.86225">
        <ele>153</ele>
        <time>2013-09-01T09:30:31.860Z</time>
      </trkpt>
      <trkpt lat="47.42858" lon="0.86219">
        <ele>154</ele>
        <time>2013-09-01T09:30:32.865Z</time>
      </trkpt>
      <trkpt lat="47.42853" lon="0.86211">
        <ele>155</ele>
        <time>2013-09-01T09:30:33.865Z</time>
      </trkpt>
      <trkpt lat="47.42851" lon="0.862">
        <ele>156</ele>
        <time>2013-09-01T09:30:34.855Z</time>
      </trkpt>
      <trkpt lat="47.42849" lon="0.86191">
        <ele>156</ele>
        <time>2013-09-01T09:30:35.854Z</time>
      </trkpt>
      <trkpt lat="47.42847" lon="0.86182">
        <ele>157</ele>
        <time>2013-09-01T09:30:36.878Z</time>
      </trkpt>
      <trkpt lat="47.42846" lon="0.86176">
        <ele>157</ele>
        <time>2013-09-01T09:30:37.899Z</time>
      </trkpt>
      <trkpt lat="47.42842" lon="0.86165">
        <ele>158</ele>
        <time>2013-09-01T09:30:40.020Z</time>
      </trkpt>
      <trkpt lat="47.4284" lon="0.86161">
        <ele>158</ele>
        <time>2013-09-01T09:30:40.843Z</time>
      </trkpt>
      <trkpt lat="47.42838" lon="0.86155">
        <ele>159</ele>
        <time>2013-09-01T09:30:41.861Z</time>
      </trkpt>
      <trkpt lat="47.42836" lon="0.86148">
        <ele>159</ele>
        <time>2013-09-01T09:30:42.934Z</time>
      </trkpt>
      <trkpt lat="47.42834" lon="0.86138">
        <ele>159</ele>
        <time>2013-09-01T09:30:44.903Z</time>
      </trkpt>
      <trkpt lat="47.42832" lon="0.86133">
        <ele>159</ele>
        <time>2013-09-01T09:30:45.864Z</time>
      </trkpt>
      <trkpt lat="47.42829" lon="0.86122">
        <ele>158</ele>
        <time>2013-09-01T09:30:47.860Z</time>
      </trkpt>
      <trkpt lat="47.42827" lon="0.86114">
        <ele>158</ele>
        <time>2013-09-01T09:30:48.872Z</time>
      </trkpt>
      <trkpt lat="47.42825" lon="0.86107">
        <ele>158</ele>
        <time>2013-09-01T09:30:49.980Z</time>
      </trkpt>
      <trkpt lat="47.42823" lon="0.86101">
        <ele>158</ele>
        <time>2013-09-01T09:30:50.862Z</time>
      </trkpt>
      <trkpt lat="47.42822" lon="0.86095">
        <ele>158</ele>
        <time>2013-09-01T09:30:51.870Z</time>
      </trkpt>
      <trkpt lat="47.42819" lon="0.86088">
        <ele>157</ele>
        <time>2013-09-01T09:30:52.884Z</time>
      </trkpt>
      <trkpt lat="47.42815" lon="0.86077">
        <ele>157</ele>
        <time>2013-09-01T09:30:54.938Z</time>
      </trkpt>
      <trkpt lat="47.42813" lon="0.86073">
        <ele>158</ele>
        <time>2013-09-01T09:30:55.910Z</time>
      </trkpt>
      <trkpt lat="47.4281" lon="0.86065">
        <ele>158</ele>
        <time>2013-09-01T09:30:57.851Z</time>
      </trkpt>
      <trkpt lat="47.42807" lon="0.8606">
        <ele>157</ele>
        <time>2013-09-01T09:30:58.901Z</time>
      </trkpt>
      <trkpt lat="47.42803" lon="0.86054">
        <ele>157</ele>
        <time>2013-09-01T09:31:00.887Z</time>
      </trkpt>
      <trkpt lat="47.42802" lon="0.8605">
        <ele>157</ele>
        <time>2013-09-01T09:31:01.908Z</time>
      </trkpt>
      <trkpt lat="47.42799" lon="0.86043">
        <ele>157</ele>
        <time>2013-09-01T09:31:02.910Z</time>
      </trkpt>
      <trkpt lat="47.42797" lon="0.86039">
        <ele>156</ele>
        <time>2013-09-01T09:31:03.912Z</time>
      </trkpt>
      <trkpt lat="47.4279" lon="0.8603">
        <ele>156</ele>
        <time>2013-09-01T09:31:05.871Z</time>
      </trkpt>
      <trkpt lat="47.42787" lon="0.86024">
        <ele>156</ele>
        <time>2013-09-01T09:31:06.868Z</time>
      </trkpt>
      <trkpt lat="47.42783" lon="0.86019">
        <ele>156</ele>
        <time>2013-09-01T09:31:07.865Z</time>
      </trkpt>
      <trkpt lat="47.42779" lon="0.86015">
        <ele>156</ele>
        <time>2013-09-01T09:31:08.880Z</time>
      </trkpt>
      <trkpt lat="47.42775" lon="0.86011">
        <ele>156</ele>
        <time>2013-09-01T09:31:09.910Z</time>
      </trkpt>
      <trkpt lat="47.42772" lon="0.86005">
        <ele>156</ele>
        <time>2013-09-01T09:31:10.878Z</time>
      </trkpt>
      <trkpt lat="47.42769" lon="0.85998">
        <ele>156</ele>
        <time>2013-09-01T09:31:11.862Z</time>
      </trkpt>
      <trkpt lat="47.42765" lon="0.85994">
        <ele>156</ele>
        <time>2013-09-01T09:31:12.865Z</time>
      </trkpt>
      <trkpt lat="47.4276" lon="0.85983">
        <ele>156</ele>
        <time>2013-09-01T09:31:14.914Z</time>
      </trkpt>
      <trkpt lat="47.42757" lon="0.85979">
        <ele>156</ele>
        <time>2013-09-01T09:31:15.905Z</time>
      </trkpt>
      <trkpt lat="47.42754" lon="0.85973">
        <ele>156</ele>
        <time>2013-09-01T09:31:16.879Z</time>
      </trkpt>
      <trkpt lat="47.42751" lon="0.85968">
        <ele>156</ele>
        <time>2013-09-01T09:31:17.866Z</time>
      </trkpt>
      <trkpt lat="47.42748" lon="0.85962">
        <ele>156</ele>
        <time>2013-09-01T09:31:18.877Z</time>
      </trkpt>
      <trkpt lat="47.42745" lon="0.85955">
        <ele>156</ele>
        <time>2013-09-01T09:31:19.874Z</time>
      </trkpt>
      <trkpt lat="47.42743" lon="0.85949">
        <ele>156</ele>
        <time>2013-09-01T09:31:20.913Z</time>
      </trkpt>
      <trkpt lat="47.4274" lon="0.85944">
        <ele>156</ele>
        <time>2013-09-01T09:31:21.914Z</time>
      </trkpt>
      <trkpt lat="47.42736" lon="0.85938">
        <ele>156</ele>
        <time>2013-09-01T09:31:22.924Z</time>
      </trkpt>
      <trkpt lat="47.42734" lon="0.85932">
        <ele>156</ele>
        <time>2013-09-01T09:31:23.928Z</time>
      </trkpt>
      <trkpt lat="47.42729" lon="0.85921">
        <ele>156</ele>
        <time>2013-09-01T09:31:25.943Z</time>
      </trkpt>
      <trkpt lat="47.42726" lon="0.85916">
        <ele>156</ele>
        <time>2013-09-01T09:31:26.896Z</time>
      </trkpt>
      <trkpt lat="47.42724" lon="0.8591">
        <ele>156</ele>
        <time>2013-09-01T09:31:27.926Z</time>
      </trkpt>
      <trkpt lat="47.42721" lon="0.85904">
        <ele>156</ele>
        <time>2013-09-01T09:31:28.914Z</time>
      </trkpt>
      <trkpt lat="47.42717" lon="0.85899">
        <ele>156</ele>
        <time>2013-09-01T09:31:29.911Z</time>
      </trkpt>
      <trkpt lat="47.42714" lon="0.85893">
        <ele>156</ele>
        <time>2013-09-01T09:31:30.950Z</time>
      </trkpt>
      <trkpt lat="47.42711" lon="0.85887">
        <ele>156</ele>
        <time>2013-09-01T09:31:31.871Z</time>
      </trkpt>
      <trkpt lat="47.42707" lon="0.85882">
        <ele>156</ele>
        <time>2013-09-01T09:31:32.922Z</time>
      </trkpt>
      <trkpt lat="47.42704" lon="0.85876">
        <ele>156</ele>
        <time>2013-09-01T09:31:33.870Z</time>
      </trkpt>
      <trkpt lat="47.427" lon="0.85869">
        <ele>156</ele>
        <time>2013-09-01T09:31:34.909Z</time>
      </trkpt>
      <trkpt lat="47.42697" lon="0.85863">
        <ele>156</ele>
        <time>2013-09-01T09:31:36.014Z</time>
      </trkpt>
      <trkpt lat="47.42694" lon="0.85855">
        <ele>156</ele>
        <time>2013-09-01T09:31:36.874Z</time>
      </trkpt>
      <trkpt lat="47.4269" lon="0.85848">
        <ele>156</ele>
        <time>2013-09-01T09:31:37.865Z</time>
      </trkpt>
      <trkpt lat="47.42686" lon="0.85841">
        <ele>156</ele>
        <time>2013-09-01T09:31:38.874Z</time>
      </trkpt>
      <trkpt lat="47.42683" lon="0.85835">
        <ele>156</ele>
        <time>2013-09-01T09:31:39.869Z</time>
      </trkpt>
      <trkpt lat="47.42679" lon="0.85829">
        <ele>156</ele>
        <time>2013-09-01T09:31:40.863Z</time>
      </trkpt>
      <trkpt lat="47.42675" lon="0.85822">
        <ele>156</ele>
        <time>2013-09-01T09:31:41.883Z</time>
      </trkpt>
      <trkpt lat="47.42672" lon="0.85816">
        <ele>156</ele>
        <time>2013-09-01T09:31:42.973Z</time>
      </trkpt>
      <trkpt lat="47.42668" lon="0.85811">
        <ele>156</ele>
        <time>2013-09-01T09:31:43.884Z</time>
      </trkpt>
      <trkpt lat="47.42665" lon="0.85805">
        <ele>155</ele>
        <time>2013-09-01T09:31:44.913Z</time>
      </trkpt>
      <trkpt lat="47.42661" lon="0.85799">
        <ele>155</ele>
        <time>2013-09-01T09:31:45.913Z</time>
      </trkpt>
      <trkpt lat="47.42657" lon="0.85794">
        <ele>155</ele>
        <time>2013-09-01T09:31:46.923Z</time>
      </trkpt>
      <trkpt lat="47.42653" lon="0.85788">
        <ele>155</ele>
        <time>2013-09-01T09:31:47.923Z</time>
      </trkpt>
      <trkpt lat="47.4265" lon="0.85781">
        <ele>155</ele>
        <time>2013-09-01T09:31:48.925Z</time>
      </trkpt>
      <trkpt lat="47.42646" lon="0.85775">
        <ele>155</ele>
        <time>2013-09-01T09:31:49.918Z</time>
      </trkpt>
      <trkpt lat="47.42642" lon="0.85768">
        <ele>155</ele>
        <time>2013-09-01T09:31:50.869Z</time>
      </trkpt>
      <trkpt lat="47.42639" lon="0.85764">
        <ele>155</ele>
        <time>2013-09-01T09:31:51.896Z</time>
      </trkpt>
      <trkpt lat="47.42636" lon="0.85758">
        <ele>155</ele>
        <time>2013-09-01T09:31:52.929Z</time>
      </trkpt>
      <trkpt lat="47.42633" lon="0.85751">
        <ele>154</ele>
        <time>2013-09-01T09:31:53.910Z</time>
      </trkpt>
      <trkpt lat="47.4263" lon="0.85747">
        <ele>154</ele>
        <time>2013-09-01T09:31:54.871Z</time>
      </trkpt>
      <trkpt lat="47.42627" lon="0.85741">
        <ele>154</ele>
        <time>2013-09-01T09:31:55.870Z</time>
      </trkpt>
      <trkpt lat="47.42625" lon="0.85736">
        <ele>154</ele>
        <time>2013-09-01T09:31:56.914Z</time>
      </trkpt>
      <trkpt lat="47.42622" lon="0.85732">
        <ele>154</ele>
        <time>2013-09-01T09:31:57.931Z</time>
      </trkpt>
      <trkpt lat="47.42619" lon="0.85726">
        <ele>154</ele>
        <time>2013-09-01T09:31:58.884Z</time>
      </trkpt>
      <trkpt lat="47.42614" lon="0.85717">
        <ele>153</ele>
        <time>2013-09-01T09:32:00.884Z</time>
      </trkpt>
      <trkpt lat="47.42612" lon="0.85715">
        <ele>153</ele>
        <time>2013-09-01T09:32:01.913Z</time>
      </trkpt>
      <trkpt lat="47.42607" lon="0.85704">
        <ele>153</ele>
        <time>2013-09-01T09:32:04.909Z</time>
      </trkpt>
      <trkpt lat="47.42605" lon="0.85702">
        <ele>153</ele>
        <time>2013-09-01T09:32:05.864Z</time>
      </trkpt>
      <trkpt lat="47.42599" lon="0.85691">
        <ele>152</ele>
        <time>2013-09-01T09:32:11.880Z</time>
      </trkpt>
      <trkpt lat="47.42599" lon="0.85691">
        <ele>152</ele>
        <time>2013-09-01T09:32:12.933Z</time>
      </trkpt>
      <trkpt lat="47.42599" lon="0.85691">
        <ele>152</ele>
        <time>2013-09-01T09:32:13.891Z</time>
      </trkpt>
      <trkpt lat="47.42599" lon="0.85693">
        <ele>152</ele>
        <time>2013-09-01T09:32:14.911Z</time>
      </trkpt>
      <trkpt lat="47.42603" lon="0.857">
        <ele>152</ele>
        <time>2013-09-01T09:32:17.921Z</time>
      </trkpt>
      <trkpt lat="47.42604" lon="0.85704">
        <ele>152</ele>
        <time>2013-09-01T09:32:18.868Z</time>
      </trkpt>
      <trkpt lat="47.42607" lon="0.85708">
        <ele>151</ele>
        <time>2013-09-01T09:32:19.877Z</time>
      </trkpt>
      <trkpt lat="47.4261" lon="0.85715">
        <ele>151</ele>
        <time>2013-09-01T09:32:20.910Z</time>
      </trkpt>
      <trkpt lat="47.42613" lon="0.85719">
        <ele>151</ele>
        <time>2013-09-01T09:32:21.883Z</time>
      </trkpt>
      <trkpt lat="47.42616" lon="0.85725">
        <ele>152</ele>
        <time>2013-09-01T09:32:22.910Z</time>
      </trkpt>
      <trkpt lat="47.42622" lon="0.85734">
        <ele>151</ele>
        <time>2013-09-01T09:32:24.913Z</time>
      </trkpt>
      <trkpt lat="47.42625" lon="0.8574">
        <ele>152</ele>
        <time>2013-09-01T09:32:25.920Z</time>
      </trkpt>
      <trkpt lat="47.42628" lon="0.85747">
        <ele>152</ele>
        <time>2013-09-01T09:32:26.887Z</time>
      </trkpt>
      <trkpt lat="47.42632" lon="0.85752">
        <ele>151</ele>
        <time>2013-09-01T09:32:27.927Z</time>
      </trkpt>
      <trkpt lat="47.42636" lon="0.85758">
        <ele>152</ele>
        <time>2013-09-01T09:32:28.914Z</time>
      </trkpt>
      <trkpt lat="47.42639" lon="0.85762">
        <ele>151</ele>
        <time>2013-09-01T09:32:29.908Z</time>
      </trkpt>
      <trkpt lat="47.42642" lon="0.85768">
        <ele>151</ele>
        <time>2013-09-01T09:32:30.892Z</time>
      </trkpt>
      <trkpt lat="47.42645" lon="0.85773">
        <ele>152</ele>
        <time>2013-09-01T09:32:31.929Z</time>
      </trkpt>
      <trkpt lat="47.42649" lon="0.85779">
        <ele>152</ele>
        <time>2013-09-01T09:32:32.866Z</time>
      </trkpt>
      <trkpt lat="47.42652" lon="0.85784">
        <ele>153</ele>
        <time>2013-09-01T09:32:33.869Z</time>
      </trkpt>
      <trkpt lat="47.42655" lon="0.8579">
        <ele>153</ele>
        <time>2013-09-01T09:32:34.867Z</time>
      </trkpt>
      <trkpt lat="47.42658" lon="0.85794">
        <ele>153</ele>
        <time>2013-09-01T09:32:35.875Z</time>
      </trkpt>
      <trkpt lat="47.42662" lon="0.85801">
        <ele>152</ele>
        <time>2013-09-01T09:32:36.921Z</time>
      </trkpt>
      <trkpt lat="47.42666" lon="0.85805">
        <ele>152</ele>
        <time>2013-09-01T09:32:37.930Z</time>
      </trkpt>
      <trkpt lat="47.42669" lon="0.85811">
        <ele>152</ele>
        <time>2013-09-01T09:32:38.914Z</time>
      </trkpt>
      <trkpt lat="47.42672" lon="0.85818">
        <ele>152</ele>
        <time>2013-09-01T09:32:39.903Z</time>
      </trkpt>
      <trkpt lat="47.42675" lon="0.85822">
        <ele>151</ele>
        <time>2013-09-01T09:32:40.961Z</time>
      </trkpt>
      <trkpt lat="47.42678" lon="0.85828">
        <ele>151</ele>
        <time>2013-09-01T09:32:41.866Z</time>
      </trkpt>
      <trkpt lat="47.42681" lon="0.85833">
        <ele>151</ele>
        <time>2013-09-01T09:32:42.892Z</time>
      </trkpt>
      <trkpt lat="47.42684" lon="0.85839">
        <ele>150</ele>
        <time>2013-09-01T09:32:43.913Z</time>
      </trkpt>
      <trkpt lat="47.42686" lon="0.85844">
        <ele>150</ele>
        <time>2013-09-01T09:32:44.911Z</time>
      </trkpt>
      <trkpt lat="47.42689" lon="0.8585">
        <ele>149</ele>
        <time>2013-09-01T09:32:45.910Z</time>
      </trkpt>
      <trkpt lat="47.42692" lon="0.85854">
        <ele>149</ele>
        <time>2013-09-01T09:32:46.870Z</time>
      </trkpt>
      <trkpt lat="47.42695" lon="0.85861">
        <ele>149</ele>
        <time>2013-09-01T09:32:47.905Z</time>
      </trkpt>
      <trkpt lat="47.42699" lon="0.85867">
        <ele>150</ele>
        <time>2013-09-01T09:32:48.867Z</time>
      </trkpt>
      <trkpt lat="47.42701" lon="0.85872">
        <ele>150</ele>
        <time>2013-09-01T09:32:49.879Z</time>
      </trkpt>
      <trkpt lat="47.42704" lon="0.85878">
        <ele>149</ele>
        <time>2013-09-01T09:32:50.899Z</time>
      </trkpt>
      <trkpt lat="47.42707" lon="0.85882">
        <ele>149</ele>
        <time>2013-09-01T09:32:51.892Z</time>
      </trkpt>
      <trkpt lat="47.42711" lon="0.85889">
        <ele>148</ele>
        <time>2013-09-01T09:32:52.924Z</time>
      </trkpt>
      <trkpt lat="47.42713" lon="0.85893">
        <ele>149</ele>
        <time>2013-09-01T09:32:53.922Z</time>
      </trkpt>
      <trkpt lat="47.42716" lon="0.85899">
        <ele>149</ele>
        <time>2013-09-01T09:32:54.928Z</time>
      </trkpt>
      <trkpt lat="47.42719" lon="0.85904">
        <ele>149</ele>
        <time>2013-09-01T09:32:55.893Z</time>
      </trkpt>
      <trkpt lat="47.42723" lon="0.8591">
        <ele>150</ele>
        <time>2013-09-01T09:32:56.876Z</time>
      </trkpt>
      <trkpt lat="47.42725" lon="0.85916">
        <ele>149</ele>
        <time>2013-09-01T09:32:57.885Z</time>
      </trkpt>
      <trkpt lat="47.42728" lon="0.85921">
        <ele>149</ele>
        <time>2013-09-01T09:32:58.916Z</time>
      </trkpt>
      <trkpt lat="47.42731" lon="0.85927">
        <ele>149</ele>
        <time>2013-09-01T09:32:59.922Z</time>
      </trkpt>
      <trkpt lat="47.42733" lon="0.85934">
        <ele>150</ele>
        <time>2013-09-01T09:33:00.864Z</time>
      </trkpt>
      <trkpt lat="47.42736" lon="0.85938">
        <ele>149</ele>
        <time>2013-09-01T09:33:01.866Z</time>
      </trkpt>
      <trkpt lat="47.42739" lon="0.85944">
        <ele>149</ele>
        <time>2013-09-01T09:33:02.872Z</time>
      </trkpt>
      <trkpt lat="47.42742" lon="0.85949">
        <ele>150</ele>
        <time>2013-09-01T09:33:03.897Z</time>
      </trkpt>
      <trkpt lat="47.42745" lon="0.85955">
        <ele>151</ele>
        <time>2013-09-01T09:33:04.911Z</time>
      </trkpt>
      <trkpt lat="47.42748" lon="0.85962">
        <ele>151</ele>
        <time>2013-09-01T09:33:05.874Z</time>
      </trkpt>
      <trkpt lat="47.42751" lon="0.85968">
        <ele>152</ele>
        <time>2013-09-01T09:33:06.903Z</time>
      </trkpt>
      <trkpt lat="47.42753" lon="0.85972">
        <ele>151</ele>
        <time>2013-09-01T09:33:07.935Z</time>
      </trkpt>
      <trkpt lat="47.42756" lon="0.85979">
        <ele>152</ele>
        <time>2013-09-01T09:33:08.873Z</time>
      </trkpt>
      <trkpt lat="47.42759" lon="0.85983">
        <ele>151</ele>
        <time>2013-09-01T09:33:09.877Z</time>
      </trkpt>
      <trkpt lat="47.42762" lon="0.85989">
        <ele>151</ele>
        <time>2013-09-01T09:33:10.865Z</time>
      </trkpt>
      <trkpt lat="47.42765" lon="0.85994">
        <ele>150</ele>
        <time>2013-09-01T09:33:11.923Z</time>
      </trkpt>
      <trkpt lat="47.42768" lon="0.86">
        <ele>150</ele>
        <time>2013-09-01T09:33:12.989Z</time>
      </trkpt>
      <trkpt lat="47.42771" lon="0.86005">
        <ele>150</ele>
        <time>2013-09-01T09:33:13.872Z</time>
      </trkpt>
      <trkpt lat="47.42777" lon="0.86013">
        <ele>150</ele>
        <time>2013-09-01T09:33:15.888Z</time>
      </trkpt>
      <trkpt lat="47.42781" lon="0.86017">
        <ele>150</ele>
        <time>2013-09-01T09:33:16.871Z</time>
      </trkpt>
      <trkpt lat="47.42784" lon="0.86024">
        <ele>150</ele>
        <time>2013-09-01T09:33:17.909Z</time>
      </trkpt>
      <trkpt lat="47.42787" lon="0.86028">
        <ele>150</ele>
        <time>2013-09-01T09:33:18.869Z</time>
      </trkpt>
      <trkpt lat="47.42793" lon="0.86037">
        <ele>150</ele>
        <time>2013-09-01T09:33:20.896Z</time>
      </trkpt>
      <trkpt lat="47.42796" lon="0.86041">
        <ele>151</ele>
        <time>2013-09-01T09:33:21.879Z</time>
      </trkpt>
      <trkpt lat="47.42801" lon="0.8605">
        <ele>151</ele>
        <time>2013-09-01T09:33:23.870Z</time>
      </trkpt>
      <trkpt lat="47.42804" lon="0.86054">
        <ele>151</ele>
        <time>2013-09-01T09:33:24.918Z</time>
      </trkpt>
      <trkpt lat="47.42807" lon="0.86062">
        <ele>151</ele>
        <time>2013-09-01T09:33:26.900Z</time>
      </trkpt>
      <trkpt lat="47.4281" lon="0.86067">
        <ele>151</ele>
        <time>2013-09-01T09:33:27.923Z</time>
      </trkpt>
      <trkpt lat="47.42814" lon="0.86073">
        <ele>152</ele>
        <time>2013-09-01T09:33:29.882Z</time>
      </trkpt>
      <trkpt lat="47.42816" lon="0.86077">
        <ele>152</ele>
        <time>2013-09-01T09:33:30.949Z</time>
      </trkpt>
      <trkpt lat="47.42824" lon="0.86078">
        <ele>153</ele>
        <time>2013-09-01T09:33:36.873Z</time>
      </trkpt>
      <trkpt lat="47.42827" lon="0.86075">
        <ele>153</ele>
        <time>2013-09-01T09:33:37.922Z</time>
      </trkpt>
      <trkpt lat="47.42833" lon="0.86067">
        <ele>153</ele>
        <time>2013-09-01T09:33:40.851Z</time>
      </trkpt>
      <trkpt lat="47.42835" lon="0.86062">
        <ele>154</ele>
        <time>2013-09-01T09:33:41.899Z</time>
      </trkpt>
      <trkpt lat="47.42841" lon="0.86056">
        <ele>154</ele>
        <time>2013-09-01T09:33:43.918Z</time>
      </trkpt>
      <trkpt lat="47.42844" lon="0.86054">
        <ele>153</ele>
        <time>2013-09-01T09:33:44.918Z</time>
      </trkpt>
      <trkpt lat="47.42849" lon="0.86048">
        <ele>152</ele>
        <time>2013-09-01T09:33:46.902Z</time>
      </trkpt>
      <trkpt lat="47.42851" lon="0.86045">
        <ele>152</ele>
        <time>2013-09-01T09:33:47.905Z</time>
      </trkpt>
      <trkpt lat="47.42858" lon="0.86043">
        <ele>153</ele>
        <time>2013-09-01T09:33:49.904Z</time>
      </trkpt>
      <trkpt lat="47.4286" lon="0.86041">
        <ele>153</ele>
        <time>2013-09-01T09:33:50.904Z</time>
      </trkpt>
      <trkpt lat="47.42865" lon="0.86032">
        <ele>153</ele>
        <time>2013-09-01T09:33:55.903Z</time>
      </trkpt>
      <trkpt lat="47.42866" lon="0.8603">
        <ele>153</ele>
        <time>2013-09-01T09:33:56.874Z</time>
      </trkpt>
      <trkpt lat="47.42871" lon="0.86022">
        <ele>153</ele>
        <time>2013-09-01T09:34:00.871Z</time>
      </trkpt>
      <trkpt lat="47.42874" lon="0.86018">
        <ele>153</ele>
        <time>2013-09-01T09:34:01.908Z</time>
      </trkpt>
      <trkpt lat="47.42881" lon="0.86011">
        <ele>152</ele>
        <time>2013-09-01T09:34:03.902Z</time>
      </trkpt>
      <trkpt lat="47.42886" lon="0.86007">
        <ele>152</ele>
        <time>2013-09-01T09:34:04.906Z</time>
      </trkpt>
      <trkpt lat="47.4289" lon="0.86002">
        <ele>152</ele>
        <time>2013-09-01T09:34:05.868Z</time>
      </trkpt>
      <trkpt lat="47.42893" lon="0.85998">
        <ele>151</ele>
        <time>2013-09-01T09:34:06.877Z</time>
      </trkpt>
      <trkpt lat="47.42897" lon="0.85994">
        <ele>151</ele>
        <time>2013-09-01T09:34:07.912Z</time>
      </trkpt>
      <trkpt lat="47.42902" lon="0.85989">
        <ele>150</ele>
        <time>2013-09-01T09:34:08.922Z</time>
      </trkpt>
      <trkpt lat="47.42907" lon="0.85979">
        <ele>150</ele>
        <time>2013-09-01T09:34:12.910Z</time>
      </trkpt>
      <trkpt lat="47.42904" lon="0.85975">
        <ele>150</ele>
        <time>2013-09-01T09:34:13.905Z</time>
      </trkpt>
      <trkpt lat="47.42899" lon="0.85966">
        <ele>151</ele>
        <time>2013-09-01T09:34:15.923Z</time>
      </trkpt>
      <trkpt lat="47.42896" lon="0.85962">
        <ele>151</ele>
        <time>2013-09-01T09:34:16.862Z</time>
      </trkpt>
      <trkpt lat="47.4289" lon="0.85951">
        <ele>151</ele>
        <time>2013-09-01T09:34:18.864Z</time>
      </trkpt>
      <trkpt lat="47.42887" lon="0.85946">
        <ele>150</ele>
        <time>2013-09-01T09:34:19.878Z</time>
      </trkpt>
      <trkpt lat="47.42884" lon="0.8594">
        <ele>151</ele>
        <time>2013-09-01T09:34:20.909Z</time>
      </trkpt>
      <trkpt lat="47.4288" lon="0.85936">
        <ele>151</ele>
        <time>2013-09-01T09:34:21.861Z</time>
      </trkpt>
      <trkpt lat="47.42875" lon="0.85925">
        <ele>151</ele>
        <time>2013-09-01T09:34:23.901Z</time>
      </trkpt>
      <trkpt lat="47.42873" lon="0.85917">
        <ele>151</ele>
        <time>2013-09-01T09:34:24.949Z</time>
      </trkpt>
      <trkpt lat="47.42871" lon="0.8591">
        <ele>151</ele>
        <time>2013-09-01T09:34:25.871Z</time>
      </trkpt>
      <trkpt lat="47.42868" lon="0.85904">
        <ele>151</ele>
        <time>2013-09-01T09:34:26.881Z</time>
      </trkpt>
      <trkpt lat="47.42865" lon="0.85895">
        <ele>151</ele>
        <time>2013-09-01T09:34:27.920Z</time>
      </trkpt>
      <trkpt lat="47.42862" lon="0.85889">
        <ele>151</ele>
        <time>2013-09-01T09:34:28.911Z</time>
      </trkpt>
      <trkpt lat="47.42859" lon="0.8588">
        <ele>151</ele>
        <time>2013-09-01T09:34:29.913Z</time>
      </trkpt>
      <trkpt lat="47.42856" lon="0.85873">
        <ele>151</ele>
        <time>2013-09-01T09:34:30.916Z</time>
      </trkpt>
      <trkpt lat="47.42852" lon="0.85867">
        <ele>151</ele>
        <time>2013-09-01T09:34:31.896Z</time>
      </trkpt>
      <trkpt lat="47.42849" lon="0.85859">
        <ele>151</ele>
        <time>2013-09-01T09:34:32.920Z</time>
      </trkpt>
      <trkpt lat="47.42846" lon="0.85852">
        <ele>151</ele>
        <time>2013-09-01T09:34:33.850Z</time>
      </trkpt>
      <trkpt lat="47.42843" lon="0.85846">
        <ele>150</ele>
        <time>2013-09-01T09:34:34.856Z</time>
      </trkpt>
      <trkpt lat="47.42839" lon="0.85837">
        <ele>150</ele>
        <time>2013-09-01T09:34:35.853Z</time>
      </trkpt>
      <trkpt lat="47.42835" lon="0.85832">
        <ele>150</ele>
        <time>2013-09-01T09:34:36.859Z</time>
      </trkpt>
      <trkpt lat="47.42832" lon="0.85826">
        <ele>151</ele>
        <time>2013-09-01T09:34:37.907Z</time>
      </trkpt>
      <trkpt lat="47.42829" lon="0.8582">
        <ele>151</ele>
        <time>2013-09-01T09:34:38.907Z</time>
      </trkpt>
      <trkpt lat="47.42825" lon="0.85814">
        <ele>152</ele>
        <time>2013-09-01T09:34:39.908Z</time>
      </trkpt>
      <trkpt lat="47.42821" lon="0.85807">
        <ele>152</ele>
        <time>2013-09-01T09:34:40.905Z</time>
      </trkpt>
      <trkpt lat="47.42818" lon="0.85801">
        <ele>152</ele>
        <time>2013-09-01T09:34:41.858Z</time>
      </trkpt>
      <trkpt lat="47.42815" lon="0.85794">
        <ele>151</ele>
        <time>2013-09-01T09:34:42.871Z</time>
      </trkpt>
      <trkpt lat="47.42812" lon="0.85788">
        <ele>150</ele>
        <time>2013-09-01T09:34:43.852Z</time>
      </trkpt>
      <trkpt lat="47.42808" lon="0.85781">
        <ele>151</ele>
        <time>2013-09-01T09:34:44.913Z</time>
      </trkpt>
      <trkpt lat="47.42805" lon="0.85775">
        <ele>151</ele>
        <time>2013-09-01T09:34:45.900Z</time>
      </trkpt>
      <trkpt lat="47.42802" lon="0.85769">
        <ele>151</ele>
        <time>2013-09-01T09:34:46.872Z</time>
      </trkpt>
      <trkpt lat="47.42798" lon="0.85762">
        <ele>152</ele>
        <time>2013-09-01T09:34:47.901Z</time>
      </trkpt>
      <trkpt lat="47.42793" lon="0.85756">
        <ele>152</ele>
        <time>2013-09-01T09:34:48.902Z</time>
      </trkpt>
      <trkpt lat="47.4279" lon="0.85749">
        <ele>152</ele>
        <time>2013-09-01T09:34:49.908Z</time>
      </trkpt>
      <trkpt lat="47.42787" lon="0.85743">
        <ele>152</ele>
        <time>2013-09-01T09:34:50.903Z</time>
      </trkpt>
      <trkpt lat="47.42783" lon="0.85736">
        <ele>152</ele>
        <time>2013-09-01T09:34:51.854Z</time>
      </trkpt>
      <trkpt lat="47.4278" lon="0.85732">
        <ele>152</ele>
        <time>2013-09-01T09:34:52.920Z</time>
      </trkpt>
      <trkpt lat="47.42777" lon="0.85726">
        <ele>152</ele>
        <time>2013-09-01T09:34:53.855Z</time>
      </trkpt>
      <trkpt lat="47.42774" lon="0.85721">
        <ele>152</ele>
        <time>2013-09-01T09:34:54.866Z</time>
      </trkpt>
      <trkpt lat="47.42772" lon="0.85715">
        <ele>152</ele>
        <time>2013-09-01T09:34:55.880Z</time>
      </trkpt>
      <trkpt lat="47.42768" lon="0.8571">
        <ele>151</ele>
        <time>2013-09-01T09:34:56.888Z</time>
      </trkpt>
      <trkpt lat="47.42765" lon="0.85704">
        <ele>149</ele>
        <time>2013-09-01T09:34:57.916Z</time>
      </trkpt>
      <trkpt lat="47.42762" lon="0.857">
        <ele>149</ele>
        <time>2013-09-01T09:34:58.905Z</time>
      </trkpt>
      <trkpt lat="47.42759" lon="0.85694">
        <ele>148</ele>
        <time>2013-09-01T09:34:59.910Z</time>
      </trkpt>
      <trkpt lat="47.42757" lon="0.85687">
        <ele>149</ele>
        <time>2013-09-01T09:35:00.865Z</time>
      </trkpt>
      <trkpt lat="47.42754" lon="0.8568">
        <ele>149</ele>
        <time>2013-09-01T09:35:01.903Z</time>
      </trkpt>
      <trkpt lat="47.4275" lon="0.85674">
        <ele>148</ele>
        <time>2013-09-01T09:35:02.905Z</time>
      </trkpt>
      <trkpt lat="47.42746" lon="0.85666">
        <ele>148</ele>
        <time>2013-09-01T09:35:03.850Z</time>
      </trkpt>
      <trkpt lat="47.42742" lon="0.85659">
        <ele>147</ele>
        <time>2013-09-01T09:35:04.910Z</time>
      </trkpt>
      <trkpt lat="47.42737" lon="0.85653">
        <ele>148</ele>
        <time>2013-09-01T09:35:05.875Z</time>
      </trkpt>
      <trkpt lat="47.42731" lon="0.85646">
        <ele>148</ele>
        <time>2013-09-01T09:35:06.864Z</time>
      </trkpt>
      <trkpt lat="47.42727" lon="0.85642">
        <ele>147</ele>
        <time>2013-09-01T09:35:07.854Z</time>
      </trkpt>
      <trkpt lat="47.42722" lon="0.85639">
        <ele>148</ele>
        <time>2013-09-01T09:35:08.909Z</time>
      </trkpt>
      <trkpt lat="47.42716" lon="0.85636">
        <ele>148</ele>
        <time>2013-09-01T09:35:09.874Z</time>
      </trkpt>
      <trkpt lat="47.42713" lon="0.85633">
        <ele>148</ele>
        <time>2013-09-01T09:35:10.878Z</time>
      </trkpt>
      <trkpt lat="47.42707" lon="0.85625">
        <ele>149</ele>
        <time>2013-09-01T09:35:12.878Z</time>
      </trkpt>
      <trkpt lat="47.42705" lon="0.8562">
        <ele>149</ele>
        <time>2013-09-01T09:35:13.913Z</time>
      </trkpt>
      <trkpt lat="47.42701" lon="0.8561">
        <ele>147</ele>
        <time>2013-09-01T09:35:16.904Z</time>
      </trkpt>
      <trkpt lat="47.42698" lon="0.85605">
        <ele>147</ele>
        <time>2013-09-01T09:35:17.927Z</time>
      </trkpt>
      <trkpt lat="47.42693" lon="0.85595">
        <ele>148</ele>
        <time>2013-09-01T09:35:19.859Z</time>
      </trkpt>
      <trkpt lat="47.4269" lon="0.8559">
        <ele>149</ele>
        <time>2013-09-01T09:35:20.899Z</time>
      </trkpt>
      <trkpt lat="47.42685" lon="0.85583">
        <ele>152</ele>
        <time>2013-09-01T09:35:22.873Z</time>
      </trkpt>
      <trkpt lat="47.42682" lon="0.85581">
        <ele>153</ele>
        <time>2013-09-01T09:35:23.876Z</time>
      </trkpt>
      <trkpt lat="47.42678" lon="0.85574">
        <ele>151</ele>
        <time>2013-09-01T09:35:25.940Z</time>
      </trkpt>
      <trkpt lat="47.42675" lon="0.85566">
        <ele>151</ele>
        <time>2013-09-01T09:35:26.906Z</time>
      </trkpt>
      <trkpt lat="47.4267" lon="0.85556">
        <ele>152</ele>
        <time>2013-09-01T09:35:28.920Z</time>
      </trkpt>
      <trkpt lat="47.42669" lon="0.8555">
        <ele>152</ele>
        <time>2013-09-01T09:35:29.906Z</time>
      </trkpt>
      <trkpt lat="47.42666" lon="0.85539">
        <ele>151</ele>
        <time>2013-09-01T09:35:31.872Z</time>
      </trkpt>
      <trkpt lat="47.42664" lon="0.85534">
        <ele>151</ele>
        <time>2013-09-01T09:35:32.865Z</time>
      </trkpt>
      <trkpt lat="47.42657" lon="0.85526">
        <ele>152</ele>
        <time>2013-09-01T09:35:34.873Z</time>
      </trkpt>
      <trkpt lat="47.42654" lon="0.85522">
        <ele>153</ele>
        <time>2013-09-01T09:35:35.890Z</time>
      </trkpt>
      <trkpt lat="47.42649" lon="0.85513">
        <ele>151</ele>
        <time>2013-09-01T09:35:38.905Z</time>
      </trkpt>
      <trkpt lat="47.42647" lon="0.85511">
        <ele>151</ele>
        <time>2013-09-01T09:35:39.908Z</time>
      </trkpt>
      <trkpt lat="47.42647" lon="0.85511">
        <ele>151</ele>
        <time>2013-09-01T09:35:40.910Z</time>
      </trkpt>
      <trkpt lat="47.42648" lon="0.85511">
        <ele>152</ele>
        <time>2013-09-01T09:35:41.860Z</time>
      </trkpt>
      <trkpt lat="47.42648" lon="0.85511">
        <ele>151</ele>
        <time>2013-09-01T09:35:49.867Z</time>
      </trkpt>
      <trkpt lat="47.42647" lon="0.85511">
        <ele>151</ele>
        <time>2013-09-01T09:35:50.862Z</time>
      </trkpt>
      <trkpt lat="47.42641" lon="0.85505">
        <ele>153</ele>
        <time>2013-09-01T09:35:53.887Z</time>
      </trkpt>
      <trkpt lat="47.42638" lon="0.85502">
        <ele>152</ele>
        <time>2013-09-01T09:35:54.895Z</time>
      </trkpt>
      <trkpt lat="47.42632" lon="0.85494">
        <ele>152</ele>
        <time>2013-09-01T09:35:56.879Z</time>
      </trkpt>
      <trkpt lat="47.42628" lon="0.8549">
        <ele>151</ele>
        <time>2013-09-01T09:35:57.866Z</time>
      </trkpt>
      <trkpt lat="47.42621" lon="0.85483">
        <ele>151</ele>
        <time>2013-09-01T09:35:59.868Z</time>
      </trkpt>
      <trkpt lat="47.42617" lon="0.85481">
        <ele>151</ele>
        <time>2013-09-01T09:36:00.866Z</time>
      </trkpt>
      <trkpt lat="47.42611" lon="0.85474">
        <ele>151</ele>
        <time>2013-09-01T09:36:02.953Z</time>
      </trkpt>
      <trkpt lat="47.42608" lon="0.85472">
        <ele>151</ele>
        <time>2013-09-01T09:36:03.877Z</time>
      </trkpt>
      <trkpt lat="47.42601" lon="0.85466">
        <ele>151</ele>
        <time>2013-09-01T09:36:05.879Z</time>
      </trkpt>
      <trkpt lat="47.42599" lon="0.85462">
        <ele>151</ele>
        <time>2013-09-01T09:36:06.901Z</time>
      </trkpt>
      <trkpt lat="47.42593" lon="0.85453">
        <ele>151</ele>
        <time>2013-09-01T09:36:08.882Z</time>
      </trkpt>
      <trkpt lat="47.4259" lon="0.85451">
        <ele>151</ele>
        <time>2013-09-01T09:36:09.936Z</time>
      </trkpt>
      <trkpt lat="47.42583" lon="0.85442">
        <ele>151</ele>
        <time>2013-09-01T09:36:11.888Z</time>
      </trkpt>
      <trkpt lat="47.4258" lon="0.8544">
        <ele>151</ele>
        <time>2013-09-01T09:36:12.926Z</time>
      </trkpt>
      <trkpt lat="47.42574" lon="0.85432">
        <ele>152</ele>
        <time>2013-09-01T09:36:14.896Z</time>
      </trkpt>
      <trkpt lat="47.42571" lon="0.85427">
        <ele>152</ele>
        <time>2013-09-01T09:36:15.892Z</time>
      </trkpt>
      <trkpt lat="47.42567" lon="0.85416">
        <ele>152</ele>
        <time>2013-09-01T09:36:17.890Z</time>
      </trkpt>
      <trkpt lat="47.42565" lon="0.8541">
        <ele>153</ele>
        <time>2013-09-01T09:36:18.876Z</time>
      </trkpt>
      <trkpt lat="47.42563" lon="0.85404">
        <ele>153</ele>
        <time>2013-09-01T09:36:19.856Z</time>
      </trkpt>
      <trkpt lat="47.42562" lon="0.85397">
        <ele>153</ele>
        <time>2013-09-01T09:36:20.950Z</time>
      </trkpt>
      <trkpt lat="47.42559" lon="0.85387">
        <ele>153</ele>
        <time>2013-09-01T09:36:22.909Z</time>
      </trkpt>
      <trkpt lat="47.42557" lon="0.85382">
        <ele>153</ele>
        <time>2013-09-01T09:36:23.911Z</time>
      </trkpt>
      <trkpt lat="47.42553" lon="0.85371">
        <ele>153</ele>
        <time>2013-09-01T09:36:25.955Z</time>
      </trkpt>
      <trkpt lat="47.42552" lon="0.85365">
        <ele>152</ele>
        <time>2013-09-01T09:36:26.873Z</time>
      </trkpt>
      <trkpt lat="47.4255" lon="0.85359">
        <ele>152</ele>
        <time>2013-09-01T09:36:27.909Z</time>
      </trkpt>
      <trkpt lat="47.42549" lon="0.85352">
        <ele>151</ele>
        <time>2013-09-01T09:36:28.854Z</time>
      </trkpt>
      <trkpt lat="47.42551" lon="0.85346">
        <ele>152</ele>
        <time>2013-09-01T09:36:29.868Z</time>
      </trkpt>
      <trkpt lat="47.42554" lon="0.85341">
        <ele>152</ele>
        <time>2013-09-01T09:36:30.907Z</time>
      </trkpt>
      <trkpt lat="47.42558" lon="0.85337">
        <ele>152</ele>
        <time>2013-09-01T09:36:31.879Z</time>
      </trkpt>
      <trkpt lat="47.42563" lon="0.85333">
        <ele>151</ele>
        <time>2013-09-01T09:36:32.913Z</time>
      </trkpt>
      <trkpt lat="47.42566" lon="0.85324">
        <ele>151</ele>
        <time>2013-09-01T09:36:34.905Z</time>
      </trkpt>
      <trkpt lat="47.42565" lon="0.85318">
        <ele>151</ele>
        <time>2013-09-01T09:36:35.900Z</time>
      </trkpt>
      <trkpt lat="47.42558" lon="0.85311">
        <ele>151</ele>
        <time>2013-09-01T09:36:37.931Z</time>
      </trkpt>
      <trkpt lat="47.42553" lon="0.85307">
        <ele>151</ele>
        <time>2013-09-01T09:36:38.872Z</time>
      </trkpt>
      <trkpt lat="47.42548" lon="0.85301">
        <ele>152</ele>
        <time>2013-09-01T09:36:39.874Z</time>
      </trkpt>
      <trkpt lat="47.42543" lon="0.85296">
        <ele>151</ele>
        <time>2013-09-01T09:36:40.877Z</time>
      </trkpt>
      <trkpt lat="47.42539" lon="0.85292">
        <ele>151</ele>
        <time>2013-09-01T09:36:41.883Z</time>
      </trkpt>
      <trkpt lat="47.42535" lon="0.85286">
        <ele>151</ele>
        <time>2013-09-01T09:36:42.939Z</time>
      </trkpt>
      <trkpt lat="47.42531" lon="0.85281">
        <ele>151</ele>
        <time>2013-09-01T09:36:43.898Z</time>
      </trkpt>
      <trkpt lat="47.42527" lon="0.85277">
        <ele>151</ele>
        <time>2013-09-01T09:36:44.916Z</time>
      </trkpt>
      <trkpt lat="47.42521" lon="0.8527">
        <ele>152</ele>
        <time>2013-09-01T09:36:46.856Z</time>
      </trkpt>
      <trkpt lat="47.42518" lon="0.85266">
        <ele>152</ele>
        <time>2013-09-01T09:36:47.869Z</time>
      </trkpt>
      <trkpt lat="47.42513" lon="0.85256">
        <ele>152</ele>
        <time>2013-09-01T09:36:49.910Z</time>
      </trkpt>
      <trkpt lat="47.42511" lon="0.85253">
        <ele>151</ele>
        <time>2013-09-01T09:36:50.917Z</time>
      </trkpt>
      <trkpt lat="47.42511" lon="0.85251">
        <ele>151</ele>
        <time>2013-09-01T09:36:52.926Z</time>
      </trkpt>
      <trkpt lat="47.42511" lon="0.85251">
        <ele>151</ele>
        <time>2013-09-01T09:36:53.864Z</time>
      </trkpt>
      <trkpt lat="47.42511" lon="0.85251">
        <ele>151</ele>
        <time>2013-09-01T09:37:01.927Z</time>
      </trkpt>
      <trkpt lat="47.42512" lon="0.85251">
        <ele>152</ele>
        <time>2013-09-01T09:37:02.960Z</time>
      </trkpt>
      <trkpt lat="47.42509" lon="0.85249">
        <ele>153</ele>
        <time>2013-09-01T09:37:09.912Z</time>
      </trkpt>
      <trkpt lat="47.42509" lon="0.85249">
        <ele>153</ele>
        <time>2013-09-01T09:37:10.912Z</time>
      </trkpt>
      <trkpt lat="47.42509" lon="0.85249">
        <ele>152</ele>
        <time>2013-09-01T09:37:18.967Z</time>
      </trkpt>
      <trkpt lat="47.4251" lon="0.85249">
        <ele>152</ele>
        <time>2013-09-01T09:37:19.912Z</time>
      </trkpt>
      <trkpt lat="47.4251" lon="0.85249">
        <ele>153</ele>
        <time>2013-09-01T09:37:20.910Z</time>
      </trkpt>
      <trkpt lat="47.4251" lon="0.85249">
        <ele>153</ele>
        <time>2013-09-01T09:37:21.897Z</time>
      </trkpt>
      <trkpt lat="47.42511" lon="0.85251">
        <ele>154</ele>
        <time>2013-09-01T09:37:22.916Z</time>
      </trkpt>
      <trkpt lat="47.42511" lon="0.85251">
        <ele>154</ele>
        <time>2013-09-01T09:37:23.897Z</time>
      </trkpt>
      <trkpt lat="47.42511" lon="0.85251">
        <ele>154</ele>
        <time>2013-09-01T09:37:24.901Z</time>
      </trkpt>
      <trkpt lat="47.42511" lon="0.85251">
        <ele>154</ele>
        <time>2013-09-01T09:37:34.914Z</time>
      </trkpt>
      <trkpt lat="47.42511" lon="0.85253">
        <ele>153</ele>
        <time>2013-09-01T09:37:35.908Z</time>
      </trkpt>
      <trkpt lat="47.42511" lon="0.85254">
        <ele>153</ele>
        <time>2013-09-01T09:37:36.919Z</time>
      </trkpt>
      <trkpt lat="47.42511" lon="0.85254">
        <ele>153</ele>
        <time>2013-09-01T09:37:37.917Z</time>
      </trkpt>
      <trkpt lat="47.42511" lon="0.85253">
        <ele>153</ele>
        <time>2013-09-01T09:37:59.859Z</time>
      </trkpt>
      <trkpt lat="47.4251" lon="0.85252">
        <ele>153</ele>
        <time>2013-09-01T09:38:00.850Z</time>
      </trkpt>
      <trkpt lat="47.42508" lon="0.85249">
        <ele>154</ele>
        <time>2013-09-01T09:38:06.873Z</time>
      </trkpt>
      <trkpt lat="47.42508" lon="0.85249">
        <ele>154</ele>
        <time>2013-09-01T09:38:07.855Z</time>
      </trkpt>
      <trkpt lat="47.42508" lon="0.85249">
        <ele>154</ele>
        <time>2013-09-01T09:38:10.885Z</time>
      </trkpt>
      <trkpt lat="47.42508" lon="0.85247">
        <ele>152</ele>
        <time>2013-09-01T09:38:11.903Z</time>
      </trkpt>
      <trkpt lat="47.42509" lon="0.85247">
        <ele>152</ele>
        <time>2013-09-01T09:38:14.904Z</time>
      </trkpt>
      <trkpt lat="47.42509" lon="0.85247">
        <ele>152</ele>
        <time>2013-09-01T09:38:15.885Z</time>
      </trkpt>
      <trkpt lat="47.42509" lon="0.85249">
        <ele>153</ele>
        <time>2013-09-01T09:38:16.887Z</time>
      </trkpt>
      <trkpt lat="47.42509" lon="0.85249">
        <ele>153</ele>
        <time>2013-09-01T09:38:17.998Z</time>
      </trkpt>
      <trkpt lat="47.42509" lon="0.85249">
        <ele>153</ele>
        <time>2013-09-01T09:38:18.929Z</time>
      </trkpt>
      <trkpt lat="47.42509" lon="0.85249">
        <ele>153</ele>
        <time>2013-09-01T09:38:25.931Z</time>
      </trkpt>
      <trkpt lat="47.4251" lon="0.85249">
        <ele>152</ele>
        <time>2013-09-01T09:38:26.953Z</time>
      </trkpt>
      <trkpt lat="47.4251" lon="0.85249">
        <ele>152</ele>
        <time>2013-09-01T09:38:27.930Z</time>
      </trkpt>
      <trkpt lat="47.4251" lon="0.85249">
        <ele>152</ele>
        <time>2013-09-01T09:38:28.918Z</time>
      </trkpt>
      <trkpt lat="47.4251" lon="0.85249">
        <ele>151</ele>
        <time>2013-09-01T09:38:36.961Z</time>
      </trkpt>
      <trkpt lat="47.42509" lon="0.85249">
        <ele>151</ele>
        <time>2013-09-01T09:38:37.985Z</time>
      </trkpt>
      <trkpt lat="47.42508" lon="0.85247">
        <ele>150</ele>
        <time>2013-09-01T09:38:41.940Z</time>
      </trkpt>
      <trkpt lat="47.42508" lon="0.85247">
        <ele>151</ele>
        <time>2013-09-01T09:38:42.928Z</time>
      </trkpt>
      <trkpt lat="47.42508" lon="0.85247">
        <ele>150</ele>
        <time>2013-09-01T09:38:49.978Z</time>
      </trkpt>
      <trkpt lat="47.42507" lon="0.85247">
        <ele>150</ele>
        <time>2013-09-01T09:38:51.005Z</time>
      </trkpt>
      <trkpt lat="47.42507" lon="0.85247">
        <ele>150</ele>
        <time>2013-09-01T09:38:51.926Z</time>
      </trkpt>
      <trkpt lat="47.42507" lon="0.85247">
        <ele>151</ele>
        <time>2013-09-01T09:38:52.924Z</time>
      </trkpt>
      <trkpt lat="47.42507" lon="0.85247">
        <ele>151</ele>
        <time>2013-09-01T09:38:54.930Z</time>
      </trkpt>
      <trkpt lat="47.42508" lon="0.85247">
        <ele>151</ele>
        <time>2013-09-01T09:38:55.923Z</time>
      </trkpt>
      <trkpt lat="47.42508" lon="0.85247">
        <ele>151</ele>
        <time>2013-09-01T09:38:56.952Z</time>
      </trkpt>
      <trkpt lat="47.42508" lon="0.85247">
        <ele>151</ele>
        <time>2013-09-01T09:38:57.993Z</time>
      </trkpt>
      <trkpt lat="47.42508" lon="0.85247">
        <ele>151</ele>
        <time>2013-09-01T09:39:07.981Z</time>
      </trkpt>
      <trkpt lat="47.42507" lon="0.85247">
        <ele>152</ele>
        <time>2013-09-01T09:39:09.037Z</time>
      </trkpt>
      <trkpt lat="47.42507" lon="0.85247">
        <ele>152</ele>
        <time>2013-09-01T09:39:09.927Z</time>
      </trkpt>
      <trkpt lat="47.42507" lon="0.85247">
        <ele>152</ele>
        <time>2013-09-01T09:39:10.935Z</time>
      </trkpt>
      <trkpt lat="47.42507" lon="0.85247">
        <ele>152</ele>
        <time>2013-09-01T09:39:19.990Z</time>
      </trkpt>
      <trkpt lat="47.42508" lon="0.85247">
        <ele>152</ele>
        <time>2013-09-01T09:39:20.989Z</time>
      </trkpt>
      <trkpt lat="47.42508" lon="0.85247">
        <ele>152</ele>
        <time>2013-09-01T09:39:22.029Z</time>
      </trkpt>
      <trkpt lat="47.42508" lon="0.85247">
        <ele>152</ele>
        <time>2013-09-01T09:39:22.998Z</time>
      </trkpt>
      <trkpt lat="47.42508" lon="0.85247">
        <ele>152</ele>
        <time>2013-09-01T09:39:23.993Z</time>
      </trkpt>
      <trkpt lat="47.42508" lon="0.85245">
        <ele>152</ele>
        <time>2013-09-01T09:39:24.996Z</time>
      </trkpt>
      <trkpt lat="47.42508" lon="0.85245">
        <ele>152</ele>
        <time>2013-09-01T09:39:26.017Z</time>
      </trkpt>
      <trkpt lat="47.42508" lon="0.85245">
        <ele>152</ele>
        <time>2013-09-01T09:39:26.983Z</time>
      </trkpt>
      <trkpt lat="47.42508" lon="0.85247">
        <ele>152</ele>
        <time>2013-09-01T09:39:27.989Z</time>
      </trkpt>
      <trkpt lat="47.42508" lon="0.85247">
        <ele>152</ele>
        <time>2013-09-01T09:39:28.994Z</time>
      </trkpt>
      <trkpt lat="47.42508" lon="0.85247">
        <ele>152</ele>
        <time>2013-09-01T09:39:29.996Z</time>
      </trkpt>
      <trkpt lat="47.42508" lon="0.85247">
        <ele>152</ele>
        <time>2013-09-01T09:39:35.001Z</time>
      </trkpt>
      <trkpt lat="47.42508" lon="0.85245">
        <ele>152</ele>
        <time>2013-09-01T09:39:36.007Z</time>
      </trkpt>
      <trkpt lat="47.42511" lon="0.85249">
        <ele>155</ele>
        <time>2013-09-01T09:39:43.000Z</time>
      </trkpt>
      <trkpt lat="47.42511" lon="0.85249">
        <ele>154</ele>
        <time>2013-09-01T09:39:43.944Z</time>
      </trkpt>
      <trkpt lat="47.42511" lon="0.85251">
        <ele>154</ele>
        <time>2013-09-01T09:39:44.939Z</time>
      </trkpt>
      <trkpt lat="47.42507" lon="0.85251">
        <ele>155</ele>
        <time>2013-09-01T09:39:51.945Z</time>
      </trkpt>
      <trkpt lat="47.42507" lon="0.85251">
        <ele>155</ele>
        <time>2013-09-01T09:39:52.944Z</time>
      </trkpt>
      <trkpt lat="47.42507" lon="0.85251">
        <ele>155</ele>
        <time>2013-09-01T09:39:53.959Z</time>
      </trkpt>
      <trkpt lat="47.42507" lon="0.8525">
        <ele>154</ele>
        <time>2013-09-01T09:39:54.973Z</time>
      </trkpt>
      <trkpt lat="47.42507" lon="0.85249">
        <ele>154</ele>
        <time>2013-09-01T09:39:56.926Z</time>
      </trkpt>
      <trkpt lat="47.42507" lon="0.85249">
        <ele>154</ele>
        <time>2013-09-01T09:39:57.935Z</time>
      </trkpt>
      <trkpt lat="47.42507" lon="0.85249">
        <ele>152</ele>
        <time>2013-09-01T09:40:06.987Z</time>
      </trkpt>
      <trkpt lat="47.42507" lon="0.85246">
        <ele>151</ele>
        <time>2013-09-01T09:40:07.997Z</time>
      </trkpt>
      <trkpt lat="47.42501" lon="0.85238">
        <ele>150</ele>
        <time>2013-09-01T09:40:13.972Z</time>
      </trkpt>
      <trkpt lat="47.42499" lon="0.85238">
        <ele>150</ele>
        <time>2013-09-01T09:40:14.984Z</time>
      </trkpt>
      <trkpt lat="47.42494" lon="0.85245">
        <ele>151</ele>
        <time>2013-09-01T09:40:17.977Z</time>
      </trkpt>
      <trkpt lat="47.42493" lon="0.85249">
        <ele>152</ele>
        <time>2013-09-01T09:40:18.970Z</time>
      </trkpt>
      <trkpt lat="47.42489" lon="0.85258">
        <ele>153</ele>
        <time>2013-09-01T09:40:21.947Z</time>
      </trkpt>
      <trkpt lat="47.42487" lon="0.85262">
        <ele>154</ele>
        <time>2013-09-01T09:40:22.941Z</time>
      </trkpt>
      <trkpt lat="47.42478" lon="0.85265">
        <ele>153</ele>
        <time>2013-09-01T09:40:26.005Z</time>
      </trkpt>
      <trkpt lat="47.42474" lon="0.85262">
        <ele>153</ele>
        <time>2013-09-01T09:40:26.959Z</time>
      </trkpt>
      <trkpt lat="47.4247" lon="0.85258">
        <ele>153</ele>
        <time>2013-09-01T09:40:28.008Z</time>
      </trkpt>
      <trkpt lat="47.42466" lon="0.85254">
        <ele>153</ele>
        <time>2013-09-01T09:40:28.999Z</time>
      </trkpt>
      <trkpt lat="47.4246" lon="0.85245">
        <ele>153</ele>
        <time>2013-09-01T09:40:30.945Z</time>
      </trkpt>
      <trkpt lat="47.42456" lon="0.85241">
        <ele>153</ele>
        <time>2013-09-01T09:40:31.992Z</time>
      </trkpt>
      <trkpt lat="47.42452" lon="0.85236">
        <ele>153</ele>
        <time>2013-09-01T09:40:32.994Z</time>
      </trkpt>
      <trkpt lat="47.42448" lon="0.8523">
        <ele>153</ele>
        <time>2013-09-01T09:40:33.997Z</time>
      </trkpt>
      <trkpt lat="47.42445" lon="0.85225">
        <ele>153</ele>
        <time>2013-09-01T09:40:34.968Z</time>
      </trkpt>
      <trkpt lat="47.4244" lon="0.85221">
        <ele>153</ele>
        <time>2013-09-01T09:40:36.003Z</time>
      </trkpt>
      <trkpt lat="47.42437" lon="0.85217">
        <ele>153</ele>
        <time>2013-09-01T09:40:37.000Z</time>
      </trkpt>
      <trkpt lat="47.42433" lon="0.85213">
        <ele>153</ele>
        <time>2013-09-01T09:40:37.994Z</time>
      </trkpt>
      <trkpt lat="47.4243" lon="0.85208">
        <ele>153</ele>
        <time>2013-09-01T09:40:38.993Z</time>
      </trkpt>
      <trkpt lat="47.42426" lon="0.85204">
        <ele>153</ele>
        <time>2013-09-01T09:40:39.994Z</time>
      </trkpt>
      <trkpt lat="47.42422" lon="0.852">
        <ele>152</ele>
        <time>2013-09-01T09:40:41.005Z</time>
      </trkpt>
      <trkpt lat="47.42418" lon="0.85196">
        <ele>152</ele>
        <time>2013-09-01T09:40:41.994Z</time>
      </trkpt>
      <trkpt lat="47.42415" lon="0.85191">
        <ele>152</ele>
        <time>2013-09-01T09:40:43.006Z</time>
      </trkpt>
      <trkpt lat="47.42411" lon="0.85183">
        <ele>152</ele>
        <time>2013-09-01T09:40:44.003Z</time>
      </trkpt>
      <trkpt lat="47.4241" lon="0.85176">
        <ele>152</ele>
        <time>2013-09-01T09:40:44.947Z</time>
      </trkpt>
      <trkpt lat="47.42409" lon="0.85168">
        <ele>152</ele>
        <time>2013-09-01T09:40:45.939Z</time>
      </trkpt>
      <trkpt lat="47.42409" lon="0.85159">
        <ele>153</ele>
        <time>2013-09-01T09:40:46.960Z</time>
      </trkpt>
      <trkpt lat="47.4241" lon="0.85152">
        <ele>153</ele>
        <time>2013-09-01T09:40:48.009Z</time>
      </trkpt>
      <trkpt lat="47.42408" lon="0.85144">
        <ele>153</ele>
        <time>2013-09-01T09:40:48.999Z</time>
      </trkpt>
      <trkpt lat="47.42406" lon="0.85138">
        <ele>152</ele>
        <time>2013-09-01T09:40:49.957Z</time>
      </trkpt>
      <trkpt lat="47.42403" lon="0.85131">
        <ele>153</ele>
        <time>2013-09-01T09:40:50.954Z</time>
      </trkpt>
      <trkpt lat="47.424" lon="0.85125">
        <ele>152</ele>
        <time>2013-09-01T09:40:51.962Z</time>
      </trkpt>
      <trkpt lat="47.42397" lon="0.8512">
        <ele>152</ele>
        <time>2013-09-01T09:40:52.960Z</time>
      </trkpt>
      <trkpt lat="47.42391" lon="0.85116">
        <ele>152</ele>
        <time>2013-09-01T09:40:53.952Z</time>
      </trkpt>
      <trkpt lat="47.42387" lon="0.85112">
        <ele>152</ele>
        <time>2013-09-01T09:40:54.940Z</time>
      </trkpt>
      <trkpt lat="47.42382" lon="0.85108">
        <ele>152</ele>
        <time>2013-09-01T09:40:55.944Z</time>
      </trkpt>
      <trkpt lat="47.42377" lon="0.85103">
        <ele>152</ele>
        <time>2013-09-01T09:40:56.982Z</time>
      </trkpt>
      <trkpt lat="47.42373" lon="0.85099">
        <ele>152</ele>
        <time>2013-09-01T09:40:58.004Z</time>
      </trkpt>
      <trkpt lat="47.42368" lon="0.85095">
        <ele>152</ele>
        <time>2013-09-01T09:40:59.003Z</time>
      </trkpt>
      <trkpt lat="47.42362" lon="0.85092">
        <ele>152</ele>
        <time>2013-09-01T09:40:59.951Z</time>
      </trkpt>
      <trkpt lat="47.42357" lon="0.8509">
        <ele>152</ele>
        <time>2013-09-01T09:41:00.959Z</time>
      </trkpt>
      <trkpt lat="47.42352" lon="0.85088">
        <ele>152</ele>
        <time>2013-09-01T09:41:02.009Z</time>
      </trkpt>
      <trkpt lat="47.42345" lon="0.85086">
        <ele>152</ele>
        <time>2013-09-01T09:41:03.006Z</time>
      </trkpt>
      <trkpt lat="47.4234" lon="0.85086">
        <ele>152</ele>
        <time>2013-09-01T09:41:03.964Z</time>
      </trkpt>
      <trkpt lat="47.42334" lon="0.85086">
        <ele>152</ele>
        <time>2013-09-01T09:41:04.963Z</time>
      </trkpt>
      <trkpt lat="47.42328" lon="0.85086">
        <ele>151</ele>
        <time>2013-09-01T09:41:05.997Z</time>
      </trkpt>
      <trkpt lat="47.42323" lon="0.85086">
        <ele>152</ele>
        <time>2013-09-01T09:41:06.945Z</time>
      </trkpt>
      <trkpt lat="47.42316" lon="0.85084">
        <ele>152</ele>
        <time>2013-09-01T09:41:07.948Z</time>
      </trkpt>
      <trkpt lat="47.42311" lon="0.85082">
        <ele>152</ele>
        <time>2013-09-01T09:41:08.971Z</time>
      </trkpt>
      <trkpt lat="47.42305" lon="0.85082">
        <ele>152</ele>
        <time>2013-09-01T09:41:09.945Z</time>
      </trkpt>
      <trkpt lat="47.423" lon="0.8508">
        <ele>152</ele>
        <time>2013-09-01T09:41:10.954Z</time>
      </trkpt>
      <trkpt lat="47.42295" lon="0.85078">
        <ele>152</ele>
        <time>2013-09-01T09:41:11.976Z</time>
      </trkpt>
      <trkpt lat="47.42289" lon="0.85075">
        <ele>152</ele>
        <time>2013-09-01T09:41:12.977Z</time>
      </trkpt>
      <trkpt lat="47.42285" lon="0.85075">
        <ele>152</ele>
        <time>2013-09-01T09:41:13.946Z</time>
      </trkpt>
      <trkpt lat="47.42278" lon="0.85069">
        <ele>152</ele>
        <time>2013-09-01T09:41:16.043Z</time>
      </trkpt>
      <trkpt lat="47.42277" lon="0.85063">
        <ele>152</ele>
        <time>2013-09-01T09:41:16.942Z</time>
      </trkpt>
      <trkpt lat="47.42278" lon="0.85054">
        <ele>151</ele>
        <time>2013-09-01T09:41:17.980Z</time>
      </trkpt>
      <trkpt lat="47.4228" lon="0.85047">
        <ele>152</ele>
        <time>2013-09-01T09:41:18.971Z</time>
      </trkpt>
      <trkpt lat="47.42283" lon="0.85039">
        <ele>151</ele>
        <time>2013-09-01T09:41:19.946Z</time>
      </trkpt>
      <trkpt lat="47.42284" lon="0.8503">
        <ele>150</ele>
        <time>2013-09-01T09:41:20.954Z</time>
      </trkpt>
      <trkpt lat="47.42285" lon="0.8502">
        <ele>149</ele>
        <time>2013-09-01T09:41:21.949Z</time>
      </trkpt>
      <trkpt lat="47.42285" lon="0.85011">
        <ele>148</ele>
        <time>2013-09-01T09:41:22.953Z</time>
      </trkpt>
      <trkpt lat="47.42286" lon="0.85002">
        <ele>147</ele>
        <time>2013-09-01T09:41:24.036Z</time>
      </trkpt>
      <trkpt lat="47.42287" lon="0.84996">
        <ele>146</ele>
        <time>2013-09-01T09:41:24.994Z</time>
      </trkpt>
      <trkpt lat="47.42287" lon="0.84983">
        <ele>142</ele>
        <time>2013-09-01T09:41:27.994Z</time>
      </trkpt>
      <trkpt lat="47.42284" lon="0.84979">
        <ele>141</ele>
        <time>2013-09-01T09:41:29.001Z</time>
      </trkpt>
      <trkpt lat="47.4228" lon="0.84975">
        <ele>142</ele>
        <time>2013-09-01T09:41:29.989Z</time>
      </trkpt>
      <trkpt lat="47.42275" lon="0.84972">
        <ele>143</ele>
        <time>2013-09-01T09:41:30.953Z</time>
      </trkpt>
      <trkpt lat="47.4227" lon="0.8497">
        <ele>144</ele>
        <time>2013-09-01T09:41:31.947Z</time>
      </trkpt>
      <trkpt lat="47.42262" lon="0.84969">
        <ele>143</ele>
        <time>2013-09-01T09:41:32.979Z</time>
      </trkpt>
      <trkpt lat="47.42254" lon="0.8497">
        <ele>141</ele>
        <time>2013-09-01T09:41:33.931Z</time>
      </trkpt>
      <trkpt lat="47.42244" lon="0.8497">
        <ele>140</ele>
        <time>2013-09-01T09:41:34.942Z</time>
      </trkpt>
      <trkpt lat="47.42236" lon="0.8497">
        <ele>140</ele>
        <time>2013-09-01T09:41:35.991Z</time>
      </trkpt>
      <trkpt lat="47.42228" lon="0.84972">
        <ele>140</ele>
        <time>2013-09-01T09:41:36.931Z</time>
      </trkpt>
      <trkpt lat="47.42222" lon="0.84974">
        <ele>139</ele>
        <time>2013-09-01T09:41:37.944Z</time>
      </trkpt>
      <trkpt lat="47.42218" lon="0.84973">
        <ele>136</ele>
        <time>2013-09-01T09:41:39.025Z</time>
      </trkpt>
      <trkpt lat="47.42218" lon="0.84961">
        <ele>133</ele>
        <time>2013-09-01T09:41:40.965Z</time>
      </trkpt>
      <trkpt lat="47.42217" lon="0.84952">
        <ele>136</ele>
        <time>2013-09-01T09:41:41.958Z</time>
      </trkpt>
      <trkpt lat="47.42211" lon="0.84944">
        <ele>133</ele>
        <time>2013-09-01T09:41:44.984Z</time>
      </trkpt>
      <trkpt lat="47.42207" lon="0.84942">
        <ele>131</ele>
        <time>2013-09-01T09:41:45.971Z</time>
      </trkpt>
      <trkpt lat="47.422" lon="0.84938">
        <ele>127</ele>
        <time>2013-09-01T09:41:47.963Z</time>
      </trkpt>
      <trkpt lat="47.42197" lon="0.84934">
        <ele>126</ele>
        <time>2013-09-01T09:41:48.979Z</time>
      </trkpt>
      <trkpt lat="47.42192" lon="0.8493">
        <ele>125</ele>
        <time>2013-09-01T09:41:49.981Z</time>
      </trkpt>
      <trkpt lat="47.42186" lon="0.84927">
        <ele>124</ele>
        <time>2013-09-01T09:41:50.990Z</time>
      </trkpt>
      <trkpt lat="47.4218" lon="0.84923">
        <ele>123</ele>
        <time>2013-09-01T09:41:51.987Z</time>
      </trkpt>
      <trkpt lat="47.42173" lon="0.84923">
        <ele>122</ele>
        <time>2013-09-01T09:41:52.988Z</time>
      </trkpt>
      <trkpt lat="47.42166" lon="0.84919">
        <ele>123</ele>
        <time>2013-09-01T09:41:53.953Z</time>
      </trkpt>
      <trkpt lat="47.4216" lon="0.84917">
        <ele>124</ele>
        <time>2013-09-01T09:41:54.951Z</time>
      </trkpt>
      <trkpt lat="47.42154" lon="0.84914">
        <ele>124</ele>
        <time>2013-09-01T09:41:55.904Z</time>
      </trkpt>
      <trkpt lat="47.42148" lon="0.84912">
        <ele>125</ele>
        <time>2013-09-01T09:41:56.900Z</time>
      </trkpt>
      <trkpt lat="47.42142" lon="0.8491">
        <ele>124</ele>
        <time>2013-09-01T09:41:57.909Z</time>
      </trkpt>
      <trkpt lat="47.42135" lon="0.84912">
        <ele>123</ele>
        <time>2013-09-01T09:41:58.907Z</time>
      </trkpt>
      <trkpt lat="47.42128" lon="0.84911">
        <ele>124</ele>
        <time>2013-09-01T09:41:59.911Z</time>
      </trkpt>
      <trkpt lat="47.42121" lon="0.84908">
        <ele>123</ele>
        <time>2013-09-01T09:42:00.945Z</time>
      </trkpt>
      <trkpt lat="47.42114" lon="0.84906">
        <ele>122</ele>
        <time>2013-09-01T09:42:01.964Z</time>
      </trkpt>
      <trkpt lat="47.42109" lon="0.84902">
        <ele>121</ele>
        <time>2013-09-01T09:42:02.957Z</time>
      </trkpt>
      <trkpt lat="47.42102" lon="0.84899">
        <ele>120</ele>
        <time>2013-09-01T09:42:03.924Z</time>
      </trkpt>
      <trkpt lat="47.42094" lon="0.84897">
        <ele>120</ele>
        <time>2013-09-01T09:42:04.955Z</time>
      </trkpt>
      <trkpt lat="47.42087" lon="0.84895">
        <ele>121</ele>
        <time>2013-09-01T09:42:05.973Z</time>
      </trkpt>
      <trkpt lat="47.4208" lon="0.84894">
        <ele>121</ele>
        <time>2013-09-01T09:42:06.969Z</time>
      </trkpt>
      <trkpt lat="47.42073" lon="0.84893">
        <ele>121</ele>
        <time>2013-09-01T09:42:07.969Z</time>
      </trkpt>
      <trkpt lat="47.42067" lon="0.84893">
        <ele>122</ele>
        <time>2013-09-01T09:42:08.918Z</time>
      </trkpt>
      <trkpt lat="47.42061" lon="0.84893">
        <ele>122</ele>
        <time>2013-09-01T09:42:09.957Z</time>
      </trkpt>
      <trkpt lat="47.42056" lon="0.84895">
        <ele>121</ele>
        <time>2013-09-01T09:42:10.921Z</time>
      </trkpt>
      <trkpt lat="47.42051" lon="0.84895">
        <ele>122</ele>
        <time>2013-09-01T09:42:11.904Z</time>
      </trkpt>
      <trkpt lat="47.42045" lon="0.84897">
        <ele>122</ele>
        <time>2013-09-01T09:42:12.965Z</time>
      </trkpt>
      <trkpt lat="47.42037" lon="0.849">
        <ele>122</ele>
        <time>2013-09-01T09:42:14.958Z</time>
      </trkpt>
      <trkpt lat="47.42033" lon="0.84901">
        <ele>122</ele>
        <time>2013-09-01T09:42:15.991Z</time>
      </trkpt>
      <trkpt lat="47.42026" lon="0.84903">
        <ele>122</ele>
        <time>2013-09-01T09:42:17.919Z</time>
      </trkpt>
      <trkpt lat="47.42021" lon="0.84904">
        <ele>122</ele>
        <time>2013-09-01T09:42:18.965Z</time>
      </trkpt>
      <trkpt lat="47.42013" lon="0.84908">
        <ele>122</ele>
        <time>2013-09-01T09:42:20.970Z</time>
      </trkpt>
      <trkpt lat="47.42007" lon="0.8491">
        <ele>123</ele>
        <time>2013-09-01T09:42:21.977Z</time>
      </trkpt>
      <trkpt lat="47.42002" lon="0.84911">
        <ele>124</ele>
        <time>2013-09-01T09:42:22.968Z</time>
      </trkpt>
      <trkpt lat="47.41997" lon="0.84912">
        <ele>123</ele>
        <time>2013-09-01T09:42:23.906Z</time>
      </trkpt>
      <trkpt lat="47.41992" lon="0.84914">
        <ele>123</ele>
        <time>2013-09-01T09:42:24.902Z</time>
      </trkpt>
      <trkpt lat="47.41987" lon="0.84916">
        <ele>123</ele>
        <time>2013-09-01T09:42:25.955Z</time>
      </trkpt>
      <trkpt lat="47.41979" lon="0.84921">
        <ele>124</ele>
        <time>2013-09-01T09:42:27.975Z</time>
      </trkpt>
      <trkpt lat="47.41974" lon="0.84923">
        <ele>124</ele>
        <time>2013-09-01T09:42:28.969Z</time>
      </trkpt>
      <trkpt lat="47.41969" lon="0.84924">
        <ele>124</ele>
        <time>2013-09-01T09:42:29.916Z</time>
      </trkpt>
      <trkpt lat="47.41962" lon="0.84925">
        <ele>124</ele>
        <time>2013-09-01T09:42:30.917Z</time>
      </trkpt>
      <trkpt lat="47.41957" lon="0.84927">
        <ele>123</ele>
        <time>2013-09-01T09:42:32.014Z</time>
      </trkpt>
      <trkpt lat="47.4195" lon="0.84929">
        <ele>123</ele>
        <time>2013-09-01T09:42:32.976Z</time>
      </trkpt>
      <trkpt lat="47.41944" lon="0.84932">
        <ele>124</ele>
        <time>2013-09-01T09:42:33.958Z</time>
      </trkpt>
      <trkpt lat="47.41937" lon="0.84932">
        <ele>123</ele>
        <time>2013-09-01T09:42:34.935Z</time>
      </trkpt>
      <trkpt lat="47.41932" lon="0.84934">
        <ele>124</ele>
        <time>2013-09-01T09:42:35.923Z</time>
      </trkpt>
      <trkpt lat="47.41925" lon="0.84936">
        <ele>125</ele>
        <time>2013-09-01T09:42:36.973Z</time>
      </trkpt>
      <trkpt lat="47.4192" lon="0.84938">
        <ele>125</ele>
        <time>2013-09-01T09:42:37.945Z</time>
      </trkpt>
      <trkpt lat="47.41915" lon="0.84942">
        <ele>125</ele>
        <time>2013-09-01T09:42:38.963Z</time>
      </trkpt>
      <trkpt lat="47.41911" lon="0.84945">
        <ele>125</ele>
        <time>2013-09-01T09:42:39.974Z</time>
      </trkpt>
      <trkpt lat="47.41906" lon="0.84947">
        <ele>126</ele>
        <time>2013-09-01T09:42:40.970Z</time>
      </trkpt>
      <trkpt lat="47.41901" lon="0.84949">
        <ele>126</ele>
        <time>2013-09-01T09:42:41.948Z</time>
      </trkpt>
      <trkpt lat="47.41895" lon="0.84951">
        <ele>125</ele>
        <time>2013-09-01T09:42:43.038Z</time>
      </trkpt>
      <trkpt lat="47.4189" lon="0.84951">
        <ele>124</ele>
        <time>2013-09-01T09:42:43.944Z</time>
      </trkpt>
      <trkpt lat="47.41884" lon="0.84953">
        <ele>124</ele>
        <time>2013-09-01T09:42:44.970Z</time>
      </trkpt>
      <trkpt lat="47.41878" lon="0.84955">
        <ele>122</ele>
        <time>2013-09-01T09:42:45.986Z</time>
      </trkpt>
      <trkpt lat="47.41873" lon="0.84956">
        <ele>120</ele>
        <time>2013-09-01T09:42:46.990Z</time>
      </trkpt>
      <trkpt lat="47.41866" lon="0.84957">
        <ele>118</ele>
        <time>2013-09-01T09:42:47.983Z</time>
      </trkpt>
      <trkpt lat="47.4186" lon="0.84958">
        <ele>117</ele>
        <time>2013-09-01T09:42:48.973Z</time>
      </trkpt>
      <trkpt lat="47.41855" lon="0.84958">
        <ele>116</ele>
        <time>2013-09-01T09:42:49.952Z</time>
      </trkpt>
      <trkpt lat="47.41849" lon="0.84959">
        <ele>117</ele>
        <time>2013-09-01T09:42:50.987Z</time>
      </trkpt>
      <trkpt lat="47.41843" lon="0.84961">
        <ele>118</ele>
        <time>2013-09-01T09:42:52.012Z</time>
      </trkpt>
      <trkpt lat="47.41837" lon="0.84964">
        <ele>117</ele>
        <time>2013-09-01T09:42:52.925Z</time>
      </trkpt>
      <trkpt lat="47.41829" lon="0.84964">
        <ele>116</ele>
        <time>2013-09-01T09:42:53.953Z</time>
      </trkpt>
      <trkpt lat="47.41821" lon="0.84966">
        <ele>116</ele>
        <time>2013-09-01T09:42:54.978Z</time>
      </trkpt>
      <trkpt lat="47.41814" lon="0.84968">
        <ele>117</ele>
        <time>2013-09-01T09:42:56.004Z</time>
      </trkpt>
      <trkpt lat="47.41807" lon="0.84972">
        <ele>116</ele>
        <time>2013-09-01T09:42:56.989Z</time>
      </trkpt>
      <trkpt lat="47.41802" lon="0.84978">
        <ele>117</ele>
        <time>2013-09-01T09:42:57.944Z</time>
      </trkpt>
      <trkpt lat="47.41799" lon="0.84987">
        <ele>117</ele>
        <time>2013-09-01T09:42:58.990Z</time>
      </trkpt>
      <trkpt lat="47.41798" lon="0.84994">
        <ele>116</ele>
        <time>2013-09-01T09:42:59.964Z</time>
      </trkpt>
      <trkpt lat="47.41799" lon="0.85">
        <ele>115</ele>
        <time>2013-09-01T09:43:00.962Z</time>
      </trkpt>
      <trkpt lat="47.41803" lon="0.85011">
        <ele>115</ele>
        <time>2013-09-01T09:43:02.969Z</time>
      </trkpt>
      <trkpt lat="47.41805" lon="0.85017">
        <ele>115</ele>
        <time>2013-09-01T09:43:03.935Z</time>
      </trkpt>
      <trkpt lat="47.41808" lon="0.85024">
        <ele>115</ele>
        <time>2013-09-01T09:43:04.975Z</time>
      </trkpt>
      <trkpt lat="47.41811" lon="0.85032">
        <ele>115</ele>
        <time>2013-09-01T09:43:05.974Z</time>
      </trkpt>
      <trkpt lat="47.41814" lon="0.85039">
        <ele>114</ele>
        <time>2013-09-01T09:43:06.932Z</time>
      </trkpt>
      <trkpt lat="47.41817" lon="0.85049">
        <ele>113</ele>
        <time>2013-09-01T09:43:07.948Z</time>
      </trkpt>
      <trkpt lat="47.4182" lon="0.85058">
        <ele>114</ele>
        <time>2013-09-01T09:43:08.972Z</time>
      </trkpt>
      <trkpt lat="47.41822" lon="0.85069">
        <ele>114</ele>
        <time>2013-09-01T09:43:10.028Z</time>
      </trkpt>
      <trkpt lat="47.41824" lon="0.85078">
        <ele>113</ele>
        <time>2013-09-01T09:43:10.920Z</time>
      </trkpt>
      <trkpt lat="47.41825" lon="0.85086">
        <ele>112</ele>
        <time>2013-09-01T09:43:11.927Z</time>
      </trkpt>
      <trkpt lat="47.41818" lon="0.85095">
        <ele>112</ele>
        <time>2013-09-01T09:43:14.918Z</time>
      </trkpt>
      <trkpt lat="47.41818" lon="0.85095">
        <ele>112</ele>
        <time>2013-09-01T09:43:15.922Z</time>
      </trkpt>
      <trkpt lat="47.41814" lon="0.85091">
        <ele>112</ele>
        <time>2013-09-01T09:43:18.973Z</time>
      </trkpt>
      <trkpt lat="47.41811" lon="0.85085">
        <ele>112</ele>
        <time>2013-09-01T09:43:19.940Z</time>
      </trkpt>
      <trkpt lat="47.41808" lon="0.8508">
        <ele>112</ele>
        <time>2013-09-01T09:43:21.072Z</time>
      </trkpt>
      <trkpt lat="47.41805" lon="0.85072">
        <ele>111</ele>
        <time>2013-09-01T09:43:21.958Z</time>
      </trkpt>
      <trkpt lat="47.41802" lon="0.85065">
        <ele>111</ele>
        <time>2013-09-01T09:43:22.936Z</time>
      </trkpt>
      <trkpt lat="47.41799" lon="0.85058">
        <ele>111</ele>
        <time>2013-09-01T09:43:23.964Z</time>
      </trkpt>
      <trkpt lat="47.41796" lon="0.8505">
        <ele>110</ele>
        <time>2013-09-01T09:43:25.004Z</time>
      </trkpt>
      <trkpt lat="47.41792" lon="0.85043">
        <ele>111</ele>
        <time>2013-09-01T09:43:25.999Z</time>
      </trkpt>
      <trkpt lat="47.41788" lon="0.85035">
        <ele>111</ele>
        <time>2013-09-01T09:43:26.840Z</time>
      </trkpt>
      <trkpt lat="47.41785" lon="0.85026">
        <ele>110</ele>
        <time>2013-09-01T09:43:27.847Z</time>
      </trkpt>
      <trkpt lat="47.41781" lon="0.85017">
        <ele>110</ele>
        <time>2013-09-01T09:43:28.872Z</time>
      </trkpt>
      <trkpt lat="47.41776" lon="0.85009">
        <ele>109</ele>
        <time>2013-09-01T09:43:29.834Z</time>
      </trkpt>
      <trkpt lat="47.41772" lon="0.85">
        <ele>109</ele>
        <time>2013-09-01T09:43:30.882Z</time>
      </trkpt>
      <trkpt lat="47.41769" lon="0.84992">
        <ele>107</ele>
        <time>2013-09-01T09:43:31.847Z</time>
      </trkpt>
      <trkpt lat="47.41766" lon="0.84981">
        <ele>107</ele>
        <time>2013-09-01T09:43:32.874Z</time>
      </trkpt>
      <trkpt lat="47.41763" lon="0.8497">
        <ele>106</ele>
        <time>2013-09-01T09:43:33.873Z</time>
      </trkpt>
      <trkpt lat="47.41761" lon="0.8496">
        <ele>105</ele>
        <time>2013-09-01T09:43:34.816Z</time>
      </trkpt>
      <trkpt lat="47.4176" lon="0.84947">
        <ele>105</ele>
        <time>2013-09-01T09:43:35.822Z</time>
      </trkpt>
      <trkpt lat="47.4176" lon="0.84934">
        <ele>105</ele>
        <time>2013-09-01T09:43:36.830Z</time>
      </trkpt>
      <trkpt lat="47.41761" lon="0.84921">
        <ele>105</ele>
        <time>2013-09-01T09:43:37.802Z</time>
      </trkpt>
      <trkpt lat="47.41761" lon="0.84908">
        <ele>105</ele>
        <time>2013-09-01T09:43:38.864Z</time>
      </trkpt>
      <trkpt lat="47.4176" lon="0.84895">
        <ele>105</ele>
        <time>2013-09-01T09:43:39.870Z</time>
      </trkpt>
      <trkpt lat="47.4176" lon="0.84882">
        <ele>105</ele>
        <time>2013-09-01T09:43:40.818Z</time>
      </trkpt>
      <trkpt lat="47.4176" lon="0.84871">
        <ele>105</ele>
        <time>2013-09-01T09:43:41.828Z</time>
      </trkpt>
      <trkpt lat="47.41765" lon="0.84865">
        <ele>105</ele>
        <time>2013-09-01T09:43:45.833Z</time>
      </trkpt>
      <trkpt lat="47.4177" lon="0.84865">
        <ele>105</ele>
        <time>2013-09-01T09:43:46.827Z</time>
      </trkpt>
      <trkpt lat="47.41777" lon="0.84867">
        <ele>104</ele>
        <time>2013-09-01T09:43:47.828Z</time>
      </trkpt>
      <trkpt lat="47.41785" lon="0.84867">
        <ele>104</ele>
        <time>2013-09-01T09:43:48.850Z</time>
      </trkpt>
      <trkpt lat="47.41792" lon="0.84867">
        <ele>105</ele>
        <time>2013-09-01T09:43:49.816Z</time>
      </trkpt>
      <trkpt lat="47.41801" lon="0.84867">
        <ele>105</ele>
        <time>2013-09-01T09:43:50.815Z</time>
      </trkpt>
      <trkpt lat="47.41808" lon="0.84867">
        <ele>105</ele>
        <time>2013-09-01T09:43:51.872Z</time>
      </trkpt>
      <trkpt lat="47.41814" lon="0.84865">
        <ele>104</ele>
        <time>2013-09-01T09:43:52.917Z</time>
      </trkpt>
      <trkpt lat="47.41819" lon="0.84865">
        <ele>104</ele>
        <time>2013-09-01T09:43:53.834Z</time>
      </trkpt>
      <trkpt lat="47.41824" lon="0.84865">
        <ele>105</ele>
        <time>2013-09-01T09:43:54.836Z</time>
      </trkpt>
      <trkpt lat="47.41828" lon="0.84871">
        <ele>108</ele>
        <time>2013-09-01T09:43:59.870Z</time>
      </trkpt>
      <trkpt lat="47.41828" lon="0.84879">
        <ele>105</ele>
        <time>2013-09-01T09:44:00.871Z</time>
      </trkpt>
      <trkpt lat="47.4183" lon="0.84892">
        <ele>107</ele>
        <time>2013-09-01T09:44:03.852Z</time>
      </trkpt>
      <trkpt lat="47.41833" lon="0.84891">
        <ele>107</ele>
        <time>2013-09-01T09:44:04.872Z</time>
      </trkpt>
      <trkpt lat="47.41836" lon="0.84889">
        <ele>108</ele>
        <time>2013-09-01T09:44:05.885Z</time>
      </trkpt>
      <trkpt lat="47.41842" lon="0.84885">
        <ele>108</ele>
        <time>2013-09-01T09:44:06.867Z</time>
      </trkpt>
      <trkpt lat="47.41846" lon="0.84882">
        <ele>109</ele>
        <time>2013-09-01T09:44:07.858Z</time>
      </trkpt>
      <trkpt lat="47.4185" lon="0.8488">
        <ele>110</ele>
        <time>2013-09-01T09:44:08.810Z</time>
      </trkpt>
      <trkpt lat="47.41855" lon="0.84876">
        <ele>111</ele>
        <time>2013-09-01T09:44:09.797Z</time>
      </trkpt>
      <trkpt lat="47.4186" lon="0.84873">
        <ele>112</ele>
        <time>2013-09-01T09:44:10.803Z</time>
      </trkpt>
      <trkpt lat="47.41869" lon="0.84872">
        <ele>111</ele>
        <time>2013-09-01T09:44:12.806Z</time>
      </trkpt>
      <trkpt lat="47.41874" lon="0.8487">
        <ele>111</ele>
        <time>2013-09-01T09:44:13.800Z</time>
      </trkpt>
      <trkpt lat="47.41879" lon="0.84867">
        <ele>112</ele>
        <time>2013-09-01T09:44:14.802Z</time>
      </trkpt>
      <trkpt lat="47.41884" lon="0.84867">
        <ele>109</ele>
        <time>2013-09-01T09:44:15.844Z</time>
      </trkpt>
      <trkpt lat="47.41889" lon="0.84867">
        <ele>108</ele>
        <time>2013-09-01T09:44:16.837Z</time>
      </trkpt>
      <trkpt lat="47.41893" lon="0.84867">
        <ele>107</ele>
        <time>2013-09-01T09:44:17.797Z</time>
      </trkpt>
      <trkpt lat="47.41898" lon="0.84865">
        <ele>107</ele>
        <time>2013-09-01T09:44:18.812Z</time>
      </trkpt>
      <trkpt lat="47.41902" lon="0.84861">
        <ele>107</ele>
        <time>2013-09-01T09:44:19.812Z</time>
      </trkpt>
      <trkpt lat="47.41907" lon="0.84852">
        <ele>107</ele>
        <time>2013-09-01T09:44:21.920Z</time>
      </trkpt>
      <trkpt lat="47.41908" lon="0.84844">
        <ele>107</ele>
        <time>2013-09-01T09:44:22.813Z</time>
      </trkpt>
      <trkpt lat="47.41908" lon="0.84833">
        <ele>107</ele>
        <time>2013-09-01T09:44:23.826Z</time>
      </trkpt>
      <trkpt lat="47.41907" lon="0.84826">
        <ele>107</ele>
        <time>2013-09-01T09:44:24.813Z</time>
      </trkpt>
      <trkpt lat="47.41905" lon="0.84816">
        <ele>106</ele>
        <time>2013-09-01T09:44:25.817Z</time>
      </trkpt>
      <trkpt lat="47.41905" lon="0.84807">
        <ele>105</ele>
        <time>2013-09-01T09:44:26.879Z</time>
      </trkpt>
      <trkpt lat="47.41904" lon="0.84797">
        <ele>105</ele>
        <time>2013-09-01T09:44:27.821Z</time>
      </trkpt>
      <trkpt lat="47.41904" lon="0.84788">
        <ele>104</ele>
        <time>2013-09-01T09:44:28.914Z</time>
      </trkpt>
      <trkpt lat="47.41903" lon="0.84777">
        <ele>103</ele>
        <time>2013-09-01T09:44:29.823Z</time>
      </trkpt>
      <trkpt lat="47.41902" lon="0.84768">
        <ele>103</ele>
        <time>2013-09-01T09:44:30.863Z</time>
      </trkpt>
      <trkpt lat="47.41902" lon="0.84758">
        <ele>104</ele>
        <time>2013-09-01T09:44:31.816Z</time>
      </trkpt>
      <trkpt lat="47.41902" lon="0.84747">
        <ele>104</ele>
        <time>2013-09-01T09:44:32.821Z</time>
      </trkpt>
      <trkpt lat="47.41902" lon="0.84738">
        <ele>104</ele>
        <time>2013-09-01T09:44:33.822Z</time>
      </trkpt>
      <trkpt lat="47.41901" lon="0.84728">
        <ele>104</ele>
        <time>2013-09-01T09:44:34.823Z</time>
      </trkpt>
      <trkpt lat="47.41901" lon="0.84721">
        <ele>104</ele>
        <time>2013-09-01T09:44:35.838Z</time>
      </trkpt>
      <trkpt lat="47.419" lon="0.84711">
        <ele>104</ele>
        <time>2013-09-01T09:44:36.809Z</time>
      </trkpt>
      <trkpt lat="47.419" lon="0.84702">
        <ele>104</ele>
        <time>2013-09-01T09:44:37.812Z</time>
      </trkpt>
      <trkpt lat="47.419" lon="0.84693">
        <ele>104</ele>
        <time>2013-09-01T09:44:38.866Z</time>
      </trkpt>
      <trkpt lat="47.419" lon="0.84685">
        <ele>104</ele>
        <time>2013-09-01T09:44:39.833Z</time>
      </trkpt>
      <trkpt lat="47.419" lon="0.84676">
        <ele>104</ele>
        <time>2013-09-01T09:44:40.879Z</time>
      </trkpt>
      <trkpt lat="47.41899" lon="0.84668">
        <ele>104</ele>
        <time>2013-09-01T09:44:41.819Z</time>
      </trkpt>
      <trkpt lat="47.41899" lon="0.84659">
        <ele>104</ele>
        <time>2013-09-01T09:44:42.860Z</time>
      </trkpt>
      <trkpt lat="47.41899" lon="0.8465">
        <ele>105</ele>
        <time>2013-09-01T09:44:43.927Z</time>
      </trkpt>
      <trkpt lat="47.41899" lon="0.8464">
        <ele>104</ele>
        <time>2013-09-01T09:44:44.837Z</time>
      </trkpt>
      <trkpt lat="47.41898" lon="0.84631">
        <ele>104</ele>
        <time>2013-09-01T09:44:45.840Z</time>
      </trkpt>
      <trkpt lat="47.41898" lon="0.84623">
        <ele>104</ele>
        <time>2013-09-01T09:44:46.842Z</time>
      </trkpt>
      <trkpt lat="47.41898" lon="0.84612">
        <ele>104</ele>
        <time>2013-09-01T09:44:47.840Z</time>
      </trkpt>
      <trkpt lat="47.41898" lon="0.84603">
        <ele>105</ele>
        <time>2013-09-01T09:44:48.867Z</time>
      </trkpt>
      <trkpt lat="47.41897" lon="0.84595">
        <ele>105</ele>
        <time>2013-09-01T09:44:49.835Z</time>
      </trkpt>
      <trkpt lat="47.41896" lon="0.84586">
        <ele>105</ele>
        <time>2013-09-01T09:44:50.872Z</time>
      </trkpt>
      <trkpt lat="47.41896" lon="0.84578">
        <ele>104</ele>
        <time>2013-09-01T09:44:51.829Z</time>
      </trkpt>
      <trkpt lat="47.41895" lon="0.84571">
        <ele>104</ele>
        <time>2013-09-01T09:44:52.822Z</time>
      </trkpt>
      <trkpt lat="47.41896" lon="0.84558">
        <ele>104</ele>
        <time>2013-09-01T09:44:54.866Z</time>
      </trkpt>
      <trkpt lat="47.41897" lon="0.84556">
        <ele>105</ele>
        <time>2013-09-01T09:44:55.898Z</time>
      </trkpt>
      <trkpt lat="47.41903" lon="0.84552">
        <ele>106</ele>
        <time>2013-09-01T09:44:57.890Z</time>
      </trkpt>
      <trkpt lat="47.41906" lon="0.84552">
        <ele>106</ele>
        <time>2013-09-01T09:44:58.886Z</time>
      </trkpt>
      <trkpt lat="47.4191" lon="0.8455">
        <ele>107</ele>
        <time>2013-09-01T09:44:59.839Z</time>
      </trkpt>
      <trkpt lat="47.41916" lon="0.84549">
        <ele>108</ele>
        <time>2013-09-01T09:45:00.843Z</time>
      </trkpt>
      <trkpt lat="47.4192" lon="0.84548">
        <ele>108</ele>
        <time>2013-09-01T09:45:01.877Z</time>
      </trkpt>
      <trkpt lat="47.41925" lon="0.84546">
        <ele>108</ele>
        <time>2013-09-01T09:45:02.879Z</time>
      </trkpt>
      <trkpt lat="47.41931" lon="0.84542">
        <ele>108</ele>
        <time>2013-09-01T09:45:03.848Z</time>
      </trkpt>
      <trkpt lat="47.41936" lon="0.84541">
        <ele>108</ele>
        <time>2013-09-01T09:45:04.874Z</time>
      </trkpt>
      <trkpt lat="47.41941" lon="0.84539">
        <ele>107</ele>
        <time>2013-09-01T09:45:05.875Z</time>
      </trkpt>
      <trkpt lat="47.41947" lon="0.84537">
        <ele>107</ele>
        <time>2013-09-01T09:45:06.841Z</time>
      </trkpt>
      <trkpt lat="47.41952" lon="0.84536">
        <ele>107</ele>
        <time>2013-09-01T09:45:07.852Z</time>
      </trkpt>
      <trkpt lat="47.41957" lon="0.84537">
        <ele>106</ele>
        <time>2013-09-01T09:45:08.875Z</time>
      </trkpt>
      <trkpt lat="47.41962" lon="0.84537">
        <ele>105</ele>
        <time>2013-09-01T09:45:09.938Z</time>
      </trkpt>
      <trkpt lat="47.41966" lon="0.84537">
        <ele>105</ele>
        <time>2013-09-01T09:45:10.928Z</time>
      </trkpt>
      <trkpt lat="47.41975" lon="0.84539">
        <ele>104</ele>
        <time>2013-09-01T09:45:12.841Z</time>
      </trkpt>
      <trkpt lat="47.4198" lon="0.84539">
        <ele>105</ele>
        <time>2013-09-01T09:45:13.858Z</time>
      </trkpt>
      <trkpt lat="47.41986" lon="0.84541">
        <ele>105</ele>
        <time>2013-09-01T09:45:14.899Z</time>
      </trkpt>
      <trkpt lat="47.41991" lon="0.84541">
        <ele>105</ele>
        <time>2013-09-01T09:45:15.912Z</time>
      </trkpt>
      <trkpt lat="47.41996" lon="0.84543">
        <ele>106</ele>
        <time>2013-09-01T09:45:16.883Z</time>
      </trkpt>
      <trkpt lat="47.42002" lon="0.84544">
        <ele>106</ele>
        <time>2013-09-01T09:45:17.894Z</time>
      </trkpt>
      <trkpt lat="47.42007" lon="0.84545">
        <ele>106</ele>
        <time>2013-09-01T09:45:18.886Z</time>
      </trkpt>
      <trkpt lat="47.42012" lon="0.84546">
        <ele>106</ele>
        <time>2013-09-01T09:45:19.873Z</time>
      </trkpt>
      <trkpt lat="47.42018" lon="0.84547">
        <ele>107</ele>
        <time>2013-09-01T09:45:20.962Z</time>
      </trkpt>
      <trkpt lat="47.42023" lon="0.84548">
        <ele>107</ele>
        <time>2013-09-01T09:45:21.883Z</time>
      </trkpt>
      <trkpt lat="47.42028" lon="0.84548">
        <ele>108</ele>
        <time>2013-09-01T09:45:22.843Z</time>
      </trkpt>
      <trkpt lat="47.42034" lon="0.84549">
        <ele>108</ele>
        <time>2013-09-01T09:45:23.901Z</time>
      </trkpt>
      <trkpt lat="47.42039" lon="0.8455">
        <ele>108</ele>
        <time>2013-09-01T09:45:24.845Z</time>
      </trkpt>
      <trkpt lat="47.42045" lon="0.84551">
        <ele>109</ele>
        <time>2013-09-01T09:45:25.889Z</time>
      </trkpt>
      <trkpt lat="47.4205" lon="0.84552">
        <ele>110</ele>
        <time>2013-09-01T09:45:26.810Z</time>
      </trkpt>
      <trkpt lat="47.42055" lon="0.84551">
        <ele>110</ele>
        <time>2013-09-01T09:45:27.805Z</time>
      </trkpt>
      <trkpt lat="47.42061" lon="0.8455">
        <ele>110</ele>
        <time>2013-09-01T09:45:28.815Z</time>
      </trkpt>
      <trkpt lat="47.42067" lon="0.84548">
        <ele>111</ele>
        <time>2013-09-01T09:45:29.833Z</time>
      </trkpt>
      <trkpt lat="47.42072" lon="0.84547">
        <ele>111</ele>
        <time>2013-09-01T09:45:30.801Z</time>
      </trkpt>
      <trkpt lat="47.42077" lon="0.84547">
        <ele>111</ele>
        <time>2013-09-01T09:45:31.823Z</time>
      </trkpt>
      <trkpt lat="47.42082" lon="0.84546">
        <ele>114</ele>
        <time>2013-09-01T09:45:32.820Z</time>
      </trkpt>
      <trkpt lat="47.42086" lon="0.84544">
        <ele>117</ele>
        <time>2013-09-01T09:45:33.856Z</time>
      </trkpt>
      <trkpt lat="47.42094" lon="0.84541">
        <ele>123</ele>
        <time>2013-09-01T09:45:35.827Z</time>
      </trkpt>
      <trkpt lat="47.42098" lon="0.84542">
        <ele>117</ele>
        <time>2013-09-01T09:45:36.863Z</time>
      </trkpt>
      <trkpt lat="47.42107" lon="0.84545">
        <ele>117</ele>
        <time>2013-09-01T09:45:38.817Z</time>
      </trkpt>
      <trkpt lat="47.42111" lon="0.84545">
        <ele>117</ele>
        <time>2013-09-01T09:45:39.880Z</time>
      </trkpt>
      <trkpt lat="47.42118" lon="0.84544">
        <ele>117</ele>
        <time>2013-09-01T09:45:41.858Z</time>
      </trkpt>
      <trkpt lat="47.42121" lon="0.84543">
        <ele>116</ele>
        <time>2013-09-01T09:45:42.873Z</time>
      </trkpt>
      <trkpt lat="47.42127" lon="0.84541">
        <ele>115</ele>
        <time>2013-09-01T09:45:44.850Z</time>
      </trkpt>
      <trkpt lat="47.42131" lon="0.84541">
        <ele>114</ele>
        <time>2013-09-01T09:45:45.844Z</time>
      </trkpt>
      <trkpt lat="47.42139" lon="0.84539">
        <ele>113</ele>
        <time>2013-09-01T09:45:47.850Z</time>
      </trkpt>
      <trkpt lat="47.42142" lon="0.84537">
        <ele>114</ele>
        <time>2013-09-01T09:45:48.842Z</time>
      </trkpt>
      <trkpt lat="47.4215" lon="0.84535">
        <ele>114</ele>
        <time>2013-09-01T09:45:50.840Z</time>
      </trkpt>
      <trkpt lat="47.42153" lon="0.84533">
        <ele>114</ele>
        <time>2013-09-01T09:45:51.859Z</time>
      </trkpt>
      <trkpt lat="47.42159" lon="0.84532">
        <ele>113</ele>
        <time>2013-09-01T09:45:53.806Z</time>
      </trkpt>
      <trkpt lat="47.42163" lon="0.84531">
        <ele>112</ele>
        <time>2013-09-01T09:45:54.827Z</time>
      </trkpt>
      <trkpt lat="47.42169" lon="0.8453">
        <ele>112</ele>
        <time>2013-09-01T09:45:56.880Z</time>
      </trkpt>
      <trkpt lat="47.42171" lon="0.84535">
        <ele>110</ele>
        <time>2013-09-01T09:45:57.598Z</time>
      </trkpt>
      <trkpt lat="47.42171" lon="0.84548">
        <ele>106</ele>
        <time>2013-09-01T09:45:59.708Z</time>
      </trkpt>
      <trkpt lat="47.42171" lon="0.84554">
        <ele>105</ele>
        <time>2013-09-01T09:46:00.601Z</time>
      </trkpt>
      <trkpt lat="47.4217" lon="0.84564">
        <ele>105</ele>
        <time>2013-09-01T09:46:02.653Z</time>
      </trkpt>
      <trkpt lat="47.42169" lon="0.84569">
        <ele>104</ele>
        <time>2013-09-01T09:46:03.626Z</time>
      </trkpt>
      <trkpt lat="47.4217" lon="0.84576">
        <ele>105</ele>
        <time>2013-09-01T09:46:07.655Z</time>
      </trkpt>
      <trkpt lat="47.42169" lon="0.84576">
        <ele>107</ele>
        <time>2013-09-01T09:46:08.612Z</time>
      </trkpt>
      <trkpt lat="47.42168" lon="0.84575">
        <ele>110</ele>
        <time>2013-09-01T09:46:09.661Z</time>
      </trkpt>
      <trkpt lat="47.42169" lon="0.84564">
        <ele>110</ele>
        <time>2013-09-01T09:46:12.590Z</time>
      </trkpt>
      <trkpt lat="47.42171" lon="0.84555">
        <ele>108</ele>
        <time>2013-09-01T09:46:13.600Z</time>
      </trkpt>
      <trkpt lat="47.42171" lon="0.84548">
        <ele>106</ele>
        <time>2013-09-01T09:46:14.604Z</time>
      </trkpt>
      <trkpt lat="47.42171" lon="0.84541">
        <ele>105</ele>
        <time>2013-09-01T09:46:15.582Z</time>
      </trkpt>
      <trkpt lat="47.42171" lon="0.8453">
        <ele>103</ele>
        <time>2013-09-01T09:46:17.607Z</time>
      </trkpt>
      <trkpt lat="47.42172" lon="0.84526">
        <ele>103</ele>
        <time>2013-09-01T09:46:18.600Z</time>
      </trkpt>
      <trkpt lat="47.42178" lon="0.84521">
        <ele>108</ele>
        <time>2013-09-01T09:46:21.700Z</time>
      </trkpt>
      <trkpt lat="47.42182" lon="0.84521">
        <ele>110</ele>
        <time>2013-09-01T09:46:22.652Z</time>
      </trkpt>
      <trkpt lat="47.42188" lon="0.84522">
        <ele>112</ele>
        <time>2013-09-01T09:46:23.652Z</time>
      </trkpt>
      <trkpt lat="47.42193" lon="0.84523">
        <ele>113</ele>
        <time>2013-09-01T09:46:24.597Z</time>
      </trkpt>
      <trkpt lat="47.42199" lon="0.84526">
        <ele>113</ele>
        <time>2013-09-01T09:46:25.616Z</time>
      </trkpt>
      <trkpt lat="47.42204" lon="0.8453">
        <ele>112</ele>
        <time>2013-09-01T09:46:26.619Z</time>
      </trkpt>
      <trkpt lat="47.42209" lon="0.84534">
        <ele>112</ele>
        <time>2013-09-01T09:46:27.636Z</time>
      </trkpt>
      <trkpt lat="47.42215" lon="0.84537">
        <ele>111</ele>
        <time>2013-09-01T09:46:28.600Z</time>
      </trkpt>
      <trkpt lat="47.42221" lon="0.84539">
        <ele>111</ele>
        <time>2013-09-01T09:46:29.632Z</time>
      </trkpt>
      <trkpt lat="47.42227" lon="0.84541">
        <ele>111</ele>
        <time>2013-09-01T09:46:30.665Z</time>
      </trkpt>
      <trkpt lat="47.42232" lon="0.84543">
        <ele>112</ele>
        <time>2013-09-01T09:46:31.634Z</time>
      </trkpt>
      <trkpt lat="47.42238" lon="0.84544">
        <ele>113</ele>
        <time>2013-09-01T09:46:32.712Z</time>
      </trkpt>
      <trkpt lat="47.42243" lon="0.84547">
        <ele>112</ele>
        <time>2013-09-01T09:46:33.624Z</time>
      </trkpt>
      <trkpt lat="47.42249" lon="0.84551">
        <ele>109</ele>
        <time>2013-09-01T09:46:34.601Z</time>
      </trkpt>
      <trkpt lat="47.42253" lon="0.84558">
        <ele>104</ele>
        <time>2013-09-01T09:46:35.671Z</time>
      </trkpt>
      <trkpt lat="47.42258" lon="0.84563">
        <ele>104</ele>
        <time>2013-09-01T09:46:36.659Z</time>
      </trkpt>
      <trkpt lat="47.42263" lon="0.84565">
        <ele>104</ele>
        <time>2013-09-01T09:46:37.657Z</time>
      </trkpt>
      <trkpt lat="47.42268" lon="0.84569">
        <ele>103</ele>
        <time>2013-09-01T09:46:38.672Z</time>
      </trkpt>
      <trkpt lat="47.42272" lon="0.84573">
        <ele>103</ele>
        <time>2013-09-01T09:46:39.663Z</time>
      </trkpt>
      <trkpt lat="47.42276" lon="0.84578">
        <ele>102</ele>
        <time>2013-09-01T09:46:40.666Z</time>
      </trkpt>
      <trkpt lat="47.42281" lon="0.84582">
        <ele>102</ele>
        <time>2013-09-01T09:46:41.667Z</time>
      </trkpt>
      <trkpt lat="47.42285" lon="0.84584">
        <ele>102</ele>
        <time>2013-09-01T09:46:42.668Z</time>
      </trkpt>
      <trkpt lat="47.42291" lon="0.8459">
        <ele>103</ele>
        <time>2013-09-01T09:46:44.657Z</time>
      </trkpt>
      <trkpt lat="47.42295" lon="0.84595">
        <ele>102</ele>
        <time>2013-09-01T09:46:45.653Z</time>
      </trkpt>
      <trkpt lat="47.42298" lon="0.84601">
        <ele>101</ele>
        <time>2013-09-01T09:46:46.601Z</time>
      </trkpt>
      <trkpt lat="47.423" lon="0.84608">
        <ele>101</ele>
        <time>2013-09-01T09:46:47.630Z</time>
      </trkpt>
      <trkpt lat="47.42302" lon="0.84614">
        <ele>101</ele>
        <time>2013-09-01T09:46:48.616Z</time>
      </trkpt>
      <trkpt lat="47.42304" lon="0.84621">
        <ele>101</ele>
        <time>2013-09-01T09:46:49.641Z</time>
      </trkpt>
      <trkpt lat="47.42306" lon="0.84629">
        <ele>101</ele>
        <time>2013-09-01T09:46:50.670Z</time>
      </trkpt>
      <trkpt lat="47.42308" lon="0.84637">
        <ele>101</ele>
        <time>2013-09-01T09:46:51.669Z</time>
      </trkpt>
      <trkpt lat="47.42311" lon="0.84646">
        <ele>101</ele>
        <time>2013-09-01T09:46:52.680Z</time>
      </trkpt>
      <trkpt lat="47.42313" lon="0.84653">
        <ele>101</ele>
        <time>2013-09-01T09:46:53.677Z</time>
      </trkpt>
      <trkpt lat="47.42315" lon="0.84661">
        <ele>101</ele>
        <time>2013-09-01T09:46:54.658Z</time>
      </trkpt>
      <trkpt lat="47.42317" lon="0.8467">
        <ele>101</ele>
        <time>2013-09-01T09:46:55.674Z</time>
      </trkpt>
      <trkpt lat="47.42319" lon="0.84678">
        <ele>101</ele>
        <time>2013-09-01T09:46:56.672Z</time>
      </trkpt>
      <trkpt lat="47.42321" lon="0.84685">
        <ele>101</ele>
        <time>2013-09-01T09:46:57.681Z</time>
      </trkpt>
      <trkpt lat="47.42324" lon="0.84693">
        <ele>101</ele>
        <time>2013-09-01T09:46:58.662Z</time>
      </trkpt>
      <trkpt lat="47.42327" lon="0.847">
        <ele>101</ele>
        <time>2013-09-01T09:46:59.605Z</time>
      </trkpt>
      <trkpt lat="47.4233" lon="0.84708">
        <ele>102</ele>
        <time>2013-09-01T09:47:00.604Z</time>
      </trkpt>
      <trkpt lat="47.42332" lon="0.84715">
        <ele>102</ele>
        <time>2013-09-01T09:47:01.653Z</time>
      </trkpt>
      <trkpt lat="47.42334" lon="0.84722">
        <ele>102</ele>
        <time>2013-09-01T09:47:02.656Z</time>
      </trkpt>
      <trkpt lat="47.42335" lon="0.84728">
        <ele>102</ele>
        <time>2013-09-01T09:47:03.618Z</time>
      </trkpt>
      <trkpt lat="47.42338" lon="0.84734">
        <ele>102</ele>
        <time>2013-09-01T09:47:04.665Z</time>
      </trkpt>
      <trkpt lat="47.42341" lon="0.84741">
        <ele>102</ele>
        <time>2013-09-01T09:47:05.672Z</time>
      </trkpt>
      <trkpt lat="47.42346" lon="0.84751">
        <ele>102</ele>
        <time>2013-09-01T09:47:07.606Z</time>
      </trkpt>
      <trkpt lat="47.42348" lon="0.84758">
        <ele>102</ele>
        <time>2013-09-01T09:47:08.621Z</time>
      </trkpt>
      <trkpt lat="47.4235" lon="0.84764">
        <ele>102</ele>
        <time>2013-09-01T09:47:09.608Z</time>
      </trkpt>
      <trkpt lat="47.42353" lon="0.84771">
        <ele>101</ele>
        <time>2013-09-01T09:47:10.656Z</time>
      </trkpt>
      <trkpt lat="47.42356" lon="0.84777">
        <ele>102</ele>
        <time>2013-09-01T09:47:11.663Z</time>
      </trkpt>
      <trkpt lat="47.42359" lon="0.84784">
        <ele>103</ele>
        <time>2013-09-01T09:47:12.653Z</time>
      </trkpt>
      <trkpt lat="47.42361" lon="0.8479">
        <ele>103</ele>
        <time>2013-09-01T09:47:13.618Z</time>
      </trkpt>
      <trkpt lat="47.42363" lon="0.84797">
        <ele>102</ele>
        <time>2013-09-01T09:47:14.673Z</time>
      </trkpt>
      <trkpt lat="47.42365" lon="0.84803">
        <ele>102</ele>
        <time>2013-09-01T09:47:15.714Z</time>
      </trkpt>
      <trkpt lat="47.42367" lon="0.84809">
        <ele>102</ele>
        <time>2013-09-01T09:47:16.663Z</time>
      </trkpt>
      <trkpt lat="47.4237" lon="0.84816">
        <ele>102</ele>
        <time>2013-09-01T09:47:17.666Z</time>
      </trkpt>
      <trkpt lat="47.42372" lon="0.84822">
        <ele>102</ele>
        <time>2013-09-01T09:47:18.662Z</time>
      </trkpt>
      <trkpt lat="47.42375" lon="0.84833">
        <ele>102</ele>
        <time>2013-09-01T09:47:20.601Z</time>
      </trkpt>
      <trkpt lat="47.42377" lon="0.84837">
        <ele>102</ele>
        <time>2013-09-01T09:47:21.660Z</time>
      </trkpt>
      <trkpt lat="47.42381" lon="0.84846">
        <ele>104</ele>
        <time>2013-09-01T09:47:23.621Z</time>
      </trkpt>
      <trkpt lat="47.42384" lon="0.84852">
        <ele>104</ele>
        <time>2013-09-01T09:47:24.602Z</time>
      </trkpt>
      <trkpt lat="47.42386" lon="0.84863">
        <ele>104</ele>
        <time>2013-09-01T09:47:26.673Z</time>
      </trkpt>
      <trkpt lat="47.42388" lon="0.84869">
        <ele>105</ele>
        <time>2013-09-01T09:47:27.664Z</time>
      </trkpt>
      <trkpt lat="47.42394" lon="0.84874">
        <ele>106</ele>
        <time>2013-09-01T09:47:30.658Z</time>
      </trkpt>
      <trkpt lat="47.42397" lon="0.84874">
        <ele>107</ele>
        <time>2013-09-01T09:47:31.601Z</time>
      </trkpt>
      <trkpt lat="47.42402" lon="0.84874">
        <ele>106</ele>
        <time>2013-09-01T09:47:32.621Z</time>
      </trkpt>
      <trkpt lat="47.42407" lon="0.84874">
        <ele>107</ele>
        <time>2013-09-01T09:47:33.658Z</time>
      </trkpt>
      <trkpt lat="47.42411" lon="0.84874">
        <ele>108</ele>
        <time>2013-09-01T09:47:34.627Z</time>
      </trkpt>
      <trkpt lat="47.42417" lon="0.84874">
        <ele>109</ele>
        <time>2013-09-01T09:47:35.643Z</time>
      </trkpt>
      <trkpt lat="47.42421" lon="0.84874">
        <ele>111</ele>
        <time>2013-09-01T09:47:36.595Z</time>
      </trkpt>
      <trkpt lat="47.42427" lon="0.84874">
        <ele>109</ele>
        <time>2013-09-01T09:47:37.629Z</time>
      </trkpt>
      <trkpt lat="47.42435" lon="0.84874">
        <ele>109</ele>
        <time>2013-09-01T09:47:39.674Z</time>
      </trkpt>
      <trkpt lat="47.42439" lon="0.84874">
        <ele>110</ele>
        <time>2013-09-01T09:47:40.675Z</time>
      </trkpt>
      <trkpt lat="47.42447" lon="0.8487">
        <ele>111</ele>
        <time>2013-09-01T09:47:42.657Z</time>
      </trkpt>
      <trkpt lat="47.42451" lon="0.84866">
        <ele>112</ele>
        <time>2013-09-01T09:47:43.658Z</time>
      </trkpt>
      <trkpt lat="47.42455" lon="0.84861">
        <ele>113</ele>
        <time>2013-09-01T09:47:44.610Z</time>
      </trkpt>
      <trkpt lat="47.4246" lon="0.84857">
        <ele>114</ele>
        <time>2013-09-01T09:47:45.607Z</time>
      </trkpt>
      <trkpt lat="47.42464" lon="0.84852">
        <ele>113</ele>
        <time>2013-09-01T09:47:46.611Z</time>
      </trkpt>
      <trkpt lat="47.42469" lon="0.8485">
        <ele>112</ele>
        <time>2013-09-01T09:47:47.622Z</time>
      </trkpt>
      <trkpt lat="47.42474" lon="0.84846">
        <ele>112</ele>
        <time>2013-09-01T09:47:48.671Z</time>
      </trkpt>
      <trkpt lat="47.42478" lon="0.84842">
        <ele>114</ele>
        <time>2013-09-01T09:47:49.619Z</time>
      </trkpt>
      <trkpt lat="47.42482" lon="0.84837">
        <ele>117</ele>
        <time>2013-09-01T09:47:50.621Z</time>
      </trkpt>
      <trkpt lat="47.42488" lon="0.84831">
        <ele>117</ele>
        <time>2013-09-01T09:47:51.646Z</time>
      </trkpt>
      <trkpt lat="47.42493" lon="0.84828">
        <ele>118</ele>
        <time>2013-09-01T09:47:52.618Z</time>
      </trkpt>
      <trkpt lat="47.42497" lon="0.84824">
        <ele>118</ele>
        <time>2013-09-01T09:47:53.623Z</time>
      </trkpt>
      <trkpt lat="47.42503" lon="0.84822">
        <ele>116</ele>
        <time>2013-09-01T09:47:54.652Z</time>
      </trkpt>
      <trkpt lat="47.42508" lon="0.84818">
        <ele>114</ele>
        <time>2013-09-01T09:47:55.679Z</time>
      </trkpt>
      <trkpt lat="47.42513" lon="0.84816">
        <ele>112</ele>
        <time>2013-09-01T09:47:56.672Z</time>
      </trkpt>
      <trkpt lat="47.42519" lon="0.84812">
        <ele>110</ele>
        <time>2013-09-01T09:47:57.673Z</time>
      </trkpt>
      <trkpt lat="47.42524" lon="0.84809">
        <ele>108</ele>
        <time>2013-09-01T09:47:58.617Z</time>
      </trkpt>
      <trkpt lat="47.4253" lon="0.84807">
        <ele>108</ele>
        <time>2013-09-01T09:47:59.646Z</time>
      </trkpt>
      <trkpt lat="47.42535" lon="0.84803">
        <ele>107</ele>
        <time>2013-09-01T09:48:00.667Z</time>
      </trkpt>
      <trkpt lat="47.42539" lon="0.84799">
        <ele>108</ele>
        <time>2013-09-01T09:48:01.618Z</time>
      </trkpt>
      <trkpt lat="47.42545" lon="0.84796">
        <ele>107</ele>
        <time>2013-09-01T09:48:02.677Z</time>
      </trkpt>
      <trkpt lat="47.42549" lon="0.84792">
        <ele>107</ele>
        <time>2013-09-01T09:48:03.647Z</time>
      </trkpt>
      <trkpt lat="47.42554" lon="0.84788">
        <ele>107</ele>
        <time>2013-09-01T09:48:04.660Z</time>
      </trkpt>
      <trkpt lat="47.42559" lon="0.84786">
        <ele>106</ele>
        <time>2013-09-01T09:48:05.668Z</time>
      </trkpt>
      <trkpt lat="47.42563" lon="0.84782">
        <ele>107</ele>
        <time>2013-09-01T09:48:06.672Z</time>
      </trkpt>
      <trkpt lat="47.42568" lon="0.84777">
        <ele>106</ele>
        <time>2013-09-01T09:48:07.636Z</time>
      </trkpt>
      <trkpt lat="47.42576" lon="0.84771">
        <ele>106</ele>
        <time>2013-09-01T09:48:09.632Z</time>
      </trkpt>
      <trkpt lat="47.42581" lon="0.84768">
        <ele>106</ele>
        <time>2013-09-01T09:48:10.605Z</time>
      </trkpt>
      <trkpt lat="47.42587" lon="0.84764">
        <ele>107</ele>
        <time>2013-09-01T09:48:11.656Z</time>
      </trkpt>
      <trkpt lat="47.42591" lon="0.8476">
        <ele>107</ele>
        <time>2013-09-01T09:48:12.616Z</time>
      </trkpt>
      <trkpt lat="47.42596" lon="0.84758">
        <ele>106</ele>
        <time>2013-09-01T09:48:13.621Z</time>
      </trkpt>
      <trkpt lat="47.42601" lon="0.84754">
        <ele>106</ele>
        <time>2013-09-01T09:48:14.655Z</time>
      </trkpt>
      <trkpt lat="47.42607" lon="0.84749">
        <ele>106</ele>
        <time>2013-09-01T09:48:15.653Z</time>
      </trkpt>
      <trkpt lat="47.42612" lon="0.84745">
        <ele>106</ele>
        <time>2013-09-01T09:48:16.661Z</time>
      </trkpt>
      <trkpt lat="47.42617" lon="0.84743">
        <ele>107</ele>
        <time>2013-09-01T09:48:17.666Z</time>
      </trkpt>
      <trkpt lat="47.42623" lon="0.8474">
        <ele>107</ele>
        <time>2013-09-01T09:48:18.692Z</time>
      </trkpt>
      <trkpt lat="47.42629" lon="0.84739">
        <ele>108</ele>
        <time>2013-09-01T09:48:19.602Z</time>
      </trkpt>
      <trkpt lat="47.42634" lon="0.84738">
        <ele>108</ele>
        <time>2013-09-01T09:48:20.590Z</time>
      </trkpt>
      <trkpt lat="47.42639" lon="0.84738">
        <ele>108</ele>
        <time>2013-09-01T09:48:21.593Z</time>
      </trkpt>
      <trkpt lat="47.42644" lon="0.84738">
        <ele>108</ele>
        <time>2013-09-01T09:48:22.595Z</time>
      </trkpt>
      <trkpt lat="47.4265" lon="0.8474">
        <ele>109</ele>
        <time>2013-09-01T09:48:23.583Z</time>
      </trkpt>
      <trkpt lat="47.42654" lon="0.84743">
        <ele>109</ele>
        <time>2013-09-01T09:48:24.612Z</time>
      </trkpt>
      <trkpt lat="47.42662" lon="0.84747">
        <ele>109</ele>
        <time>2013-09-01T09:48:26.683Z</time>
      </trkpt>
      <trkpt lat="47.42667" lon="0.84749">
        <ele>109</ele>
        <time>2013-09-01T09:48:27.666Z</time>
      </trkpt>
      <trkpt lat="47.42672" lon="0.84753">
        <ele>109</ele>
        <time>2013-09-01T09:48:28.592Z</time>
      </trkpt>
      <trkpt lat="47.42678" lon="0.84756">
        <ele>109</ele>
        <time>2013-09-01T09:48:29.586Z</time>
      </trkpt>
      <trkpt lat="47.42682" lon="0.8476">
        <ele>109</ele>
        <time>2013-09-01T09:48:30.606Z</time>
      </trkpt>
      <trkpt lat="47.42687" lon="0.84762">
        <ele>108</ele>
        <time>2013-09-01T09:48:31.635Z</time>
      </trkpt>
      <trkpt lat="47.42692" lon="0.84766">
        <ele>108</ele>
        <time>2013-09-01T09:48:32.586Z</time>
      </trkpt>
      <trkpt lat="47.42697" lon="0.84769">
        <ele>108</ele>
        <time>2013-09-01T09:48:33.612Z</time>
      </trkpt>
      <trkpt lat="47.42702" lon="0.84771">
        <ele>108</ele>
        <time>2013-09-01T09:48:34.596Z</time>
      </trkpt>
      <trkpt lat="47.42707" lon="0.84773">
        <ele>108</ele>
        <time>2013-09-01T09:48:35.631Z</time>
      </trkpt>
      <trkpt lat="47.42711" lon="0.84777">
        <ele>108</ele>
        <time>2013-09-01T09:48:36.582Z</time>
      </trkpt>
      <trkpt lat="47.42715" lon="0.84779">
        <ele>108</ele>
        <time>2013-09-01T09:48:37.599Z</time>
      </trkpt>
      <trkpt lat="47.42724" lon="0.8478">
        <ele>109</ele>
        <time>2013-09-01T09:48:39.580Z</time>
      </trkpt>
      <trkpt lat="47.42727" lon="0.84778">
        <ele>111</ele>
        <time>2013-09-01T09:48:40.594Z</time>
      </trkpt>
      <trkpt lat="47.42731" lon="0.84768">
        <ele>113</ele>
        <time>2013-09-01T09:48:43.622Z</time>
      </trkpt>
      <trkpt lat="47.42733" lon="0.84764">
        <ele>113</ele>
        <time>2013-09-01T09:48:44.625Z</time>
      </trkpt>
      <trkpt lat="47.42737" lon="0.84764">
        <ele>110</ele>
        <time>2013-09-01T09:48:47.639Z</time>
      </trkpt>
      <trkpt lat="47.42737" lon="0.84764">
        <ele>110</ele>
        <time>2013-09-01T09:48:48.690Z</time>
      </trkpt>
      <trkpt lat="47.42736" lon="0.84764">
        <ele>110</ele>
        <time>2013-09-01T09:48:49.630Z</time>
      </trkpt>
      <trkpt lat="47.42736" lon="0.84764">
        <ele>110</ele>
        <time>2013-09-01T09:48:50.688Z</time>
      </trkpt>
      <trkpt lat="47.42737" lon="0.84752">
        <ele>110</ele>
        <time>2013-09-01T09:48:54.690Z</time>
      </trkpt>
      <trkpt lat="47.42734" lon="0.84749">
        <ele>109</ele>
        <time>2013-09-01T09:48:55.687Z</time>
      </trkpt>
      <trkpt lat="47.42726" lon="0.84743">
        <ele>110</ele>
        <time>2013-09-01T09:48:57.636Z</time>
      </trkpt>
      <trkpt lat="47.42722" lon="0.84739">
        <ele>111</ele>
        <time>2013-09-01T09:48:58.634Z</time>
      </trkpt>
      <trkpt lat="47.42716" lon="0.84734">
        <ele>111</ele>
        <time>2013-09-01T09:48:59.651Z</time>
      </trkpt>
      <trkpt lat="47.42711" lon="0.84732">
        <ele>112</ele>
        <time>2013-09-01T09:49:00.660Z</time>
      </trkpt>
      <trkpt lat="47.42706" lon="0.8473">
        <ele>112</ele>
        <time>2013-09-01T09:49:01.634Z</time>
      </trkpt>
      <trkpt lat="47.42701" lon="0.84724">
        <ele>111</ele>
        <time>2013-09-01T09:49:02.654Z</time>
      </trkpt>
      <trkpt lat="47.42697" lon="0.84718">
        <ele>110</ele>
        <time>2013-09-01T09:49:03.666Z</time>
      </trkpt>
      <trkpt lat="47.42692" lon="0.84713">
        <ele>110</ele>
        <time>2013-09-01T09:49:04.687Z</time>
      </trkpt>
      <trkpt lat="47.42687" lon="0.84708">
        <ele>109</ele>
        <time>2013-09-01T09:49:05.635Z</time>
      </trkpt>
      <trkpt lat="47.42682" lon="0.84702">
        <ele>110</ele>
        <time>2013-09-01T09:49:06.695Z</time>
      </trkpt>
      <trkpt lat="47.42677" lon="0.84698">
        <ele>110</ele>
        <time>2013-09-01T09:49:07.681Z</time>
      </trkpt>
      <trkpt lat="47.42671" lon="0.84693">
        <ele>109</ele>
        <time>2013-09-01T09:49:08.643Z</time>
      </trkpt>
      <trkpt lat="47.42667" lon="0.84687">
        <ele>109</ele>
        <time>2013-09-01T09:49:09.635Z</time>
      </trkpt>
      <trkpt lat="47.42662" lon="0.84683">
        <ele>108</ele>
        <time>2013-09-01T09:49:10.633Z</time>
      </trkpt>
      <trkpt lat="47.42656" lon="0.84676">
        <ele>107</ele>
        <time>2013-09-01T09:49:11.631Z</time>
      </trkpt>
      <trkpt lat="47.42652" lon="0.8467">
        <ele>107</ele>
        <time>2013-09-01T09:49:12.629Z</time>
      </trkpt>
      <trkpt lat="47.42646" lon="0.84665">
        <ele>107</ele>
        <time>2013-09-01T09:49:13.637Z</time>
      </trkpt>
      <trkpt lat="47.42641" lon="0.84659">
        <ele>107</ele>
        <time>2013-09-01T09:49:14.679Z</time>
      </trkpt>
      <trkpt lat="47.42636" lon="0.84655">
        <ele>106</ele>
        <time>2013-09-01T09:49:15.752Z</time>
      </trkpt>
      <trkpt lat="47.4263" lon="0.84649">
        <ele>106</ele>
        <time>2013-09-01T09:49:16.692Z</time>
      </trkpt>
      <trkpt lat="47.42625" lon="0.84644">
        <ele>106</ele>
        <time>2013-09-01T09:49:17.691Z</time>
      </trkpt>
      <trkpt lat="47.42621" lon="0.84638">
        <ele>107</ele>
        <time>2013-09-01T09:49:18.708Z</time>
      </trkpt>
      <trkpt lat="47.42616" lon="0.84631">
        <ele>106</ele>
        <time>2013-09-01T09:49:19.630Z</time>
      </trkpt>
      <trkpt lat="47.4261" lon="0.84625">
        <ele>105</ele>
        <time>2013-09-01T09:49:20.661Z</time>
      </trkpt>
      <trkpt lat="47.42605" lon="0.84618">
        <ele>105</ele>
        <time>2013-09-01T09:49:21.635Z</time>
      </trkpt>
      <trkpt lat="47.42599" lon="0.84612">
        <ele>106</ele>
        <time>2013-09-01T09:49:22.634Z</time>
      </trkpt>
      <trkpt lat="47.42593" lon="0.84607">
        <ele>106</ele>
        <time>2013-09-01T09:49:23.658Z</time>
      </trkpt>
      <trkpt lat="47.42587" lon="0.84601">
        <ele>106</ele>
        <time>2013-09-01T09:49:24.667Z</time>
      </trkpt>
      <trkpt lat="47.42582" lon="0.84595">
        <ele>106</ele>
        <time>2013-09-01T09:49:25.693Z</time>
      </trkpt>
      <trkpt lat="47.42577" lon="0.84588">
        <ele>106</ele>
        <time>2013-09-01T09:49:26.742Z</time>
      </trkpt>
      <trkpt lat="47.4257" lon="0.84582">
        <ele>106</ele>
        <time>2013-09-01T09:49:27.647Z</time>
      </trkpt>
      <trkpt lat="47.42564" lon="0.84575">
        <ele>106</ele>
        <time>2013-09-01T09:49:28.633Z</time>
      </trkpt>
      <trkpt lat="47.42559" lon="0.84571">
        <ele>106</ele>
        <time>2013-09-01T09:49:29.673Z</time>
      </trkpt>
      <trkpt lat="47.42553" lon="0.84565">
        <ele>105</ele>
        <time>2013-09-01T09:49:30.691Z</time>
      </trkpt>
      <trkpt lat="47.42547" lon="0.84558">
        <ele>105</ele>
        <time>2013-09-01T09:49:31.629Z</time>
      </trkpt>
      <trkpt lat="47.4254" lon="0.84552">
        <ele>106</ele>
        <time>2013-09-01T09:49:32.622Z</time>
      </trkpt>
      <trkpt lat="47.42535" lon="0.84545">
        <ele>106</ele>
        <time>2013-09-01T09:49:33.640Z</time>
      </trkpt>
      <trkpt lat="47.42529" lon="0.84539">
        <ele>106</ele>
        <time>2013-09-01T09:49:34.642Z</time>
      </trkpt>
      <trkpt lat="47.42523" lon="0.84532">
        <ele>105</ele>
        <time>2013-09-01T09:49:35.699Z</time>
      </trkpt>
      <trkpt lat="47.42517" lon="0.84528">
        <ele>106</ele>
        <time>2013-09-01T09:49:36.675Z</time>
      </trkpt>
      <trkpt lat="47.4251" lon="0.84522">
        <ele>106</ele>
        <time>2013-09-01T09:49:37.724Z</time>
      </trkpt>
      <trkpt lat="47.42504" lon="0.84515">
        <ele>107</ele>
        <time>2013-09-01T09:49:38.639Z</time>
      </trkpt>
      <trkpt lat="47.42497" lon="0.84509">
        <ele>107</ele>
        <time>2013-09-01T09:49:39.655Z</time>
      </trkpt>
      <trkpt lat="47.42491" lon="0.84502">
        <ele>107</ele>
        <time>2013-09-01T09:49:40.633Z</time>
      </trkpt>
      <trkpt lat="47.42485" lon="0.84496">
        <ele>107</ele>
        <time>2013-09-01T09:49:41.631Z</time>
      </trkpt>
      <trkpt lat="47.42479" lon="0.8449">
        <ele>106</ele>
        <time>2013-09-01T09:49:42.632Z</time>
      </trkpt>
      <trkpt lat="47.42473" lon="0.84483">
        <ele>106</ele>
        <time>2013-09-01T09:49:43.630Z</time>
      </trkpt>
      <trkpt lat="47.42466" lon="0.84477">
        <ele>106</ele>
        <time>2013-09-01T09:49:44.627Z</time>
      </trkpt>
      <trkpt lat="47.42461" lon="0.84468">
        <ele>106</ele>
        <time>2013-09-01T09:49:45.631Z</time>
      </trkpt>
      <trkpt lat="47.42454" lon="0.84463">
        <ele>105</ele>
        <time>2013-09-01T09:49:46.661Z</time>
      </trkpt>
      <trkpt lat="47.42447" lon="0.84457">
        <ele>105</ele>
        <time>2013-09-01T09:49:47.676Z</time>
      </trkpt>
      <trkpt lat="47.4244" lon="0.84449">
        <ele>105</ele>
        <time>2013-09-01T09:49:48.724Z</time>
      </trkpt>
      <trkpt lat="47.42434" lon="0.84442">
        <ele>104</ele>
        <time>2013-09-01T09:49:49.655Z</time>
      </trkpt>
      <trkpt lat="47.42428" lon="0.84436">
        <ele>104</ele>
        <time>2013-09-01T09:49:50.690Z</time>
      </trkpt>
      <trkpt lat="47.42422" lon="0.8443">
        <ele>103</ele>
        <time>2013-09-01T09:49:51.620Z</time>
      </trkpt>
      <trkpt lat="47.42416" lon="0.84423">
        <ele>103</ele>
        <time>2013-09-01T09:49:52.641Z</time>
      </trkpt>
      <trkpt lat="47.42409" lon="0.84417">
        <ele>103</ele>
        <time>2013-09-01T09:49:53.667Z</time>
      </trkpt>
      <trkpt lat="47.42403" lon="0.8441">
        <ele>103</ele>
        <time>2013-09-01T09:49:54.622Z</time>
      </trkpt>
      <trkpt lat="47.42396" lon="0.84404">
        <ele>103</ele>
        <time>2013-09-01T09:49:55.683Z</time>
      </trkpt>
      <trkpt lat="47.4239" lon="0.84397">
        <ele>104</ele>
        <time>2013-09-01T09:49:56.627Z</time>
      </trkpt>
      <trkpt lat="47.42384" lon="0.84391">
        <ele>104</ele>
        <time>2013-09-01T09:49:57.636Z</time>
      </trkpt>
      <trkpt lat="47.42377" lon="0.84386">
        <ele>104</ele>
        <time>2013-09-01T09:49:58.690Z</time>
      </trkpt>
      <trkpt lat="47.42371" lon="0.8438">
        <ele>103</ele>
        <time>2013-09-01T09:49:59.639Z</time>
      </trkpt>
      <trkpt lat="47.42364" lon="0.84374">
        <ele>103</ele>
        <time>2013-09-01T09:50:00.626Z</time>
      </trkpt>
      <trkpt lat="47.42357" lon="0.84369">
        <ele>103</ele>
        <time>2013-09-01T09:50:01.609Z</time>
      </trkpt>
      <trkpt lat="47.4235" lon="0.84365">
        <ele>103</ele>
        <time>2013-09-01T09:50:02.616Z</time>
      </trkpt>
      <trkpt lat="47.42344" lon="0.84359">
        <ele>102</ele>
        <time>2013-09-01T09:50:03.633Z</time>
      </trkpt>
      <trkpt lat="47.42336" lon="0.84354">
        <ele>103</ele>
        <time>2013-09-01T09:50:04.638Z</time>
      </trkpt>
      <trkpt lat="47.42329" lon="0.8435">
        <ele>103</ele>
        <time>2013-09-01T09:50:05.676Z</time>
      </trkpt>
      <trkpt lat="47.42323" lon="0.84346">
        <ele>103</ele>
        <time>2013-09-01T09:50:06.623Z</time>
      </trkpt>
      <trkpt lat="47.42314" lon="0.84341">
        <ele>103</ele>
        <time>2013-09-01T09:50:07.675Z</time>
      </trkpt>
      <trkpt lat="47.42307" lon="0.84337">
        <ele>103</ele>
        <time>2013-09-01T09:50:08.661Z</time>
      </trkpt>
      <trkpt lat="47.423" lon="0.84333">
        <ele>104</ele>
        <time>2013-09-01T09:50:09.722Z</time>
      </trkpt>
      <trkpt lat="47.42293" lon="0.84331">
        <ele>104</ele>
        <time>2013-09-01T09:50:10.704Z</time>
      </trkpt>
      <trkpt lat="47.42286" lon="0.84327">
        <ele>104</ele>
        <time>2013-09-01T09:50:11.629Z</time>
      </trkpt>
      <trkpt lat="47.42279" lon="0.84322">
        <ele>104</ele>
        <time>2013-09-01T09:50:12.674Z</time>
      </trkpt>
      <trkpt lat="47.42272" lon="0.84318">
        <ele>105</ele>
        <time>2013-09-01T09:50:13.639Z</time>
      </trkpt>
      <trkpt lat="47.42265" lon="0.84315">
        <ele>105</ele>
        <time>2013-09-01T09:50:14.688Z</time>
      </trkpt>
      <trkpt lat="47.42257" lon="0.84312">
        <ele>105</ele>
        <time>2013-09-01T09:50:15.694Z</time>
      </trkpt>
      <trkpt lat="47.4225" lon="0.84307">
        <ele>106</ele>
        <time>2013-09-01T09:50:16.642Z</time>
      </trkpt>
      <trkpt lat="47.42244" lon="0.84305">
        <ele>107</ele>
        <time>2013-09-01T09:50:17.631Z</time>
      </trkpt>
      <trkpt lat="47.42237" lon="0.84301">
        <ele>107</ele>
        <time>2013-09-01T09:50:18.649Z</time>
      </trkpt>
      <trkpt lat="47.42229" lon="0.84298">
        <ele>107</ele>
        <time>2013-09-01T09:50:19.696Z</time>
      </trkpt>
      <trkpt lat="47.42222" lon="0.84295">
        <ele>106</ele>
        <time>2013-09-01T09:50:20.755Z</time>
      </trkpt>
      <trkpt lat="47.42214" lon="0.8429">
        <ele>105</ele>
        <time>2013-09-01T09:50:21.645Z</time>
      </trkpt>
      <trkpt lat="47.42208" lon="0.84288">
        <ele>105</ele>
        <time>2013-09-01T09:50:22.645Z</time>
      </trkpt>
      <trkpt lat="47.42201" lon="0.84284">
        <ele>104</ele>
        <time>2013-09-01T09:50:23.685Z</time>
      </trkpt>
      <trkpt lat="47.42194" lon="0.84279">
        <ele>106</ele>
        <time>2013-09-01T09:50:24.710Z</time>
      </trkpt>
      <trkpt lat="47.42187" lon="0.84277">
        <ele>105</ele>
        <time>2013-09-01T09:50:25.722Z</time>
      </trkpt>
      <trkpt lat="47.4218" lon="0.84273">
        <ele>105</ele>
        <time>2013-09-01T09:50:26.713Z</time>
      </trkpt>
      <trkpt lat="47.42173" lon="0.8427">
        <ele>105</ele>
        <time>2013-09-01T09:50:27.653Z</time>
      </trkpt>
      <trkpt lat="47.42166" lon="0.84268">
        <ele>105</ele>
        <time>2013-09-01T09:50:28.658Z</time>
      </trkpt>
      <trkpt lat="47.42158" lon="0.84265">
        <ele>105</ele>
        <time>2013-09-01T09:50:29.645Z</time>
      </trkpt>
      <trkpt lat="47.42152" lon="0.84262">
        <ele>105</ele>
        <time>2013-09-01T09:50:30.655Z</time>
      </trkpt>
      <trkpt lat="47.42145" lon="0.84258">
        <ele>105</ele>
        <time>2013-09-01T09:50:31.655Z</time>
      </trkpt>
      <trkpt lat="47.42139" lon="0.84254">
        <ele>105</ele>
        <time>2013-09-01T09:50:32.613Z</time>
      </trkpt>
      <trkpt lat="47.42132" lon="0.84251">
        <ele>105</ele>
        <time>2013-09-01T09:50:33.611Z</time>
      </trkpt>
      <trkpt lat="47.42124" lon="0.84249">
        <ele>105</ele>
        <time>2013-09-01T09:50:34.611Z</time>
      </trkpt>
      <trkpt lat="47.42117" lon="0.84247">
        <ele>105</ele>
        <time>2013-09-01T09:50:35.601Z</time>
      </trkpt>
      <trkpt lat="47.42111" lon="0.84245">
        <ele>105</ele>
        <time>2013-09-01T09:50:36.609Z</time>
      </trkpt>
      <trkpt lat="47.42105" lon="0.84243">
        <ele>105</ele>
        <time>2013-09-01T09:50:37.620Z</time>
      </trkpt>
      <trkpt lat="47.42098" lon="0.84239">
        <ele>104</ele>
        <time>2013-09-01T09:50:38.620Z</time>
      </trkpt>
      <trkpt lat="47.42093" lon="0.84236">
        <ele>104</ele>
        <time>2013-09-01T09:50:39.646Z</time>
      </trkpt>
      <trkpt lat="47.42087" lon="0.84234">
        <ele>103</ele>
        <time>2013-09-01T09:50:40.684Z</time>
      </trkpt>
      <trkpt lat="47.42082" lon="0.8423">
        <ele>103</ele>
        <time>2013-09-01T09:50:41.677Z</time>
      </trkpt>
      <trkpt lat="47.42077" lon="0.84229">
        <ele>103</ele>
        <time>2013-09-01T09:50:42.673Z</time>
      </trkpt>
      <trkpt lat="47.42071" lon="0.84228">
        <ele>104</ele>
        <time>2013-09-01T09:50:43.756Z</time>
      </trkpt>
      <trkpt lat="47.42065" lon="0.84226">
        <ele>104</ele>
        <time>2013-09-01T09:50:44.635Z</time>
      </trkpt>
      <trkpt lat="47.4206" lon="0.84224">
        <ele>104</ele>
        <time>2013-09-01T09:50:45.687Z</time>
      </trkpt>
      <trkpt lat="47.42054" lon="0.84223">
        <ele>105</ele>
        <time>2013-09-01T09:50:46.621Z</time>
      </trkpt>
      <trkpt lat="47.42049" lon="0.84221">
        <ele>106</ele>
        <time>2013-09-01T09:50:47.621Z</time>
      </trkpt>
      <trkpt lat="47.42044" lon="0.84221">
        <ele>107</ele>
        <time>2013-09-01T09:50:48.644Z</time>
      </trkpt>
      <trkpt lat="47.42037" lon="0.84219">
        <ele>108</ele>
        <time>2013-09-01T09:50:49.630Z</time>
      </trkpt>
      <trkpt lat="47.42033" lon="0.84217">
        <ele>109</ele>
        <time>2013-09-01T09:50:50.681Z</time>
      </trkpt>
      <trkpt lat="47.42028" lon="0.84215">
        <ele>109</ele>
        <time>2013-09-01T09:50:51.676Z</time>
      </trkpt>
      <trkpt lat="47.42023" lon="0.84215">
        <ele>110</ele>
        <time>2013-09-01T09:50:52.678Z</time>
      </trkpt>
      <trkpt lat="47.42017" lon="0.84213">
        <ele>109</ele>
        <time>2013-09-01T09:50:53.682Z</time>
      </trkpt>
      <trkpt lat="47.42011" lon="0.84212">
        <ele>109</ele>
        <time>2013-09-01T09:50:54.673Z</time>
      </trkpt>
      <trkpt lat="47.42007" lon="0.84209">
        <ele>109</ele>
        <time>2013-09-01T09:50:55.680Z</time>
      </trkpt>
      <trkpt lat="47.42002" lon="0.84208">
        <ele>109</ele>
        <time>2013-09-01T09:50:56.684Z</time>
      </trkpt>
      <trkpt lat="47.41996" lon="0.84208">
        <ele>109</ele>
        <time>2013-09-01T09:50:57.680Z</time>
      </trkpt>
      <trkpt lat="47.41991" lon="0.84207">
        <ele>108</ele>
        <time>2013-09-01T09:50:58.640Z</time>
      </trkpt>
      <trkpt lat="47.41986" lon="0.84204">
        <ele>108</ele>
        <time>2013-09-01T09:50:59.631Z</time>
      </trkpt>
      <trkpt lat="47.4198" lon="0.84204">
        <ele>107</ele>
        <time>2013-09-01T09:51:00.351Z</time>
      </trkpt>
      <trkpt lat="47.41975" lon="0.84202">
        <ele>106</ele>
        <time>2013-09-01T09:51:01.350Z</time>
      </trkpt>
      <trkpt lat="47.41969" lon="0.842">
        <ele>105</ele>
        <time>2013-09-01T09:51:02.350Z</time>
      </trkpt>
      <trkpt lat="47.41963" lon="0.842">
        <ele>105</ele>
        <time>2013-09-01T09:51:03.357Z</time>
      </trkpt>
      <trkpt lat="47.41957" lon="0.84198">
        <ele>105</ele>
        <time>2013-09-01T09:51:04.358Z</time>
      </trkpt>
      <trkpt lat="47.41951" lon="0.84198">
        <ele>105</ele>
        <time>2013-09-01T09:51:05.411Z</time>
      </trkpt>
      <trkpt lat="47.41945" lon="0.84198">
        <ele>106</ele>
        <time>2013-09-01T09:51:06.362Z</time>
      </trkpt>
      <trkpt lat="47.41939" lon="0.84198">
        <ele>106</ele>
        <time>2013-09-01T09:51:07.413Z</time>
      </trkpt>
      <trkpt lat="47.41933" lon="0.84196">
        <ele>105</ele>
        <time>2013-09-01T09:51:08.421Z</time>
      </trkpt>
      <trkpt lat="47.41929" lon="0.84195">
        <ele>105</ele>
        <time>2013-09-01T09:51:09.346Z</time>
      </trkpt>
      <trkpt lat="47.41921" lon="0.84196">
        <ele>105</ele>
        <time>2013-09-01T09:51:11.412Z</time>
      </trkpt>
      <trkpt lat="47.41918" lon="0.84196">
        <ele>105</ele>
        <time>2013-09-01T09:51:12.418Z</time>
      </trkpt>
      <trkpt lat="47.41911" lon="0.84196">
        <ele>105</ele>
        <time>2013-09-01T09:51:14.405Z</time>
      </trkpt>
      <trkpt lat="47.41907" lon="0.84196">
        <ele>106</ele>
        <time>2013-09-01T09:51:15.464Z</time>
      </trkpt>
      <trkpt lat="47.41902" lon="0.84196">
        <ele>108</ele>
        <time>2013-09-01T09:51:16.418Z</time>
      </trkpt>
      <trkpt lat="47.41898" lon="0.84196">
        <ele>108</ele>
        <time>2013-09-01T09:51:17.408Z</time>
      </trkpt>
      <trkpt lat="47.4189" lon="0.84193">
        <ele>107</ele>
        <time>2013-09-01T09:51:19.367Z</time>
      </trkpt>
      <trkpt lat="47.41886" lon="0.84193">
        <ele>108</ele>
        <time>2013-09-01T09:51:20.418Z</time>
      </trkpt>
      <trkpt lat="47.41877" lon="0.84192">
        <ele>108</ele>
        <time>2013-09-01T09:51:22.377Z</time>
      </trkpt>
      <trkpt lat="47.41874" lon="0.84191">
        <ele>108</ele>
        <time>2013-09-01T09:51:23.416Z</time>
      </trkpt>
      <trkpt lat="47.41866" lon="0.84191">
        <ele>108</ele>
        <time>2013-09-01T09:51:25.368Z</time>
      </trkpt>
      <trkpt lat="47.41861" lon="0.84191">
        <ele>108</ele>
        <time>2013-09-01T09:51:26.477Z</time>
      </trkpt>
      <trkpt lat="47.41853" lon="0.84193">
        <ele>107</ele>
        <time>2013-09-01T09:51:28.365Z</time>
      </trkpt>
      <trkpt lat="47.41849" lon="0.84194">
        <ele>108</ele>
        <time>2013-09-01T09:51:29.358Z</time>
      </trkpt>
      <trkpt lat="47.41841" lon="0.84194">
        <ele>109</ele>
        <time>2013-09-01T09:51:31.417Z</time>
      </trkpt>
      <trkpt lat="47.41836" lon="0.84193">
        <ele>109</ele>
        <time>2013-09-01T09:51:32.503Z</time>
      </trkpt>
      <trkpt lat="47.41829" lon="0.84195">
        <ele>110</ele>
        <time>2013-09-01T09:51:34.357Z</time>
      </trkpt>
      <trkpt lat="47.41826" lon="0.84196">
        <ele>111</ele>
        <time>2013-09-01T09:51:35.405Z</time>
      </trkpt>
      <trkpt lat="47.41824" lon="0.84196">
        <ele>111</ele>
        <time>2013-09-01T09:51:38.351Z</time>
      </trkpt>
      <trkpt lat="47.41825" lon="0.84196">
        <ele>111</ele>
        <time>2013-09-01T09:51:39.415Z</time>
      </trkpt>
      <trkpt lat="47.41825" lon="0.84196">
        <ele>112</ele>
        <time>2013-09-01T09:51:45.373Z</time>
      </trkpt>
      <trkpt lat="47.41824" lon="0.84196">
        <ele>112</ele>
        <time>2013-09-01T09:51:46.425Z</time>
      </trkpt>
      <trkpt lat="47.41823" lon="0.84196">
        <ele>112</ele>
        <time>2013-09-01T09:51:48.410Z</time>
      </trkpt>
      <trkpt lat="47.41823" lon="0.84196">
        <ele>113</ele>
        <time>2013-09-01T09:51:49.439Z</time>
      </trkpt>
      <trkpt lat="47.41824" lon="0.84196">
        <ele>113</ele>
        <time>2013-09-01T09:52:00.370Z</time>
      </trkpt>
      <trkpt lat="47.41824" lon="0.84196">
        <ele>113</ele>
        <time>2013-09-01T09:52:01.375Z</time>
      </trkpt>
      <trkpt lat="47.41824" lon="0.84196">
        <ele>113</ele>
        <time>2013-09-01T09:52:02.409Z</time>
      </trkpt>
      <trkpt lat="47.41824" lon="0.84193">
        <ele>113</ele>
        <time>2013-09-01T09:52:03.355Z</time>
      </trkpt>
      <trkpt lat="47.41825" lon="0.84191">
        <ele>113</ele>
        <time>2013-09-01T09:52:06.397Z</time>
      </trkpt>
      <trkpt lat="47.41825" lon="0.84191">
        <ele>113</ele>
        <time>2013-09-01T09:52:07.412Z</time>
      </trkpt>
      <trkpt lat="47.41825" lon="0.84191">
        <ele>113</ele>
        <time>2013-09-01T09:52:18.344Z</time>
      </trkpt>
    </trkseg>
  </trk>
</gpx>